<?xml version="1.0" encoding="UTF-8" standalone="no" ?>
<gpx xmlns="http://www.topografix.com/GPX/1/1" xmlns:xsi="http://www.w3.org/2001/XMLSchema-instance" xsi:schemaLocation="http://www.topografix.com/GPX/1/1 http://www.topografix.com/GPX/1/1/gpx.xsd" version="1.1" creator="VisuGPX - https://www.visugpx.com">
  <metadata>
    <name>Les landes de Montagny - Circuit 44 km</name>
    <desc><![CDATA[Rando VTT des Landes de Montagny (69)
Circuit 44km.
18/10/2015]]></desc>
  </metadata>
  <trk>
    <name><![CDATA[2015-10-18 09:14 Montagny]]></name>
    <desc><![CDATA[]]></desc>
    <trkseg>
      <trkpt lat="45.62227" lon="4.74738">
        <ele>282</ele>
        <time>2015-10-18T07:14:56.421Z</time>
      </trkpt>
      <trkpt lat="45.62232" lon="4.74747">
        <ele>282</ele>
        <time>2015-10-18T07:16:30.349Z</time>
      </trkpt>
      <trkpt lat="45.62234" lon="4.74749">
        <ele>282</ele>
        <time>2015-10-18T07:16:31.310Z</time>
      </trkpt>
      <trkpt lat="45.62241" lon="4.74755">
        <ele>281</ele>
        <time>2015-10-18T07:16:34.338Z</time>
      </trkpt>
      <trkpt lat="45.62244" lon="4.74757">
        <ele>281</ele>
        <time>2015-10-18T07:16:35.304Z</time>
      </trkpt>
      <trkpt lat="45.6225" lon="4.74762">
        <ele>281</ele>
        <time>2015-10-18T07:16:37.328Z</time>
      </trkpt>
      <trkpt lat="45.62253" lon="4.74762">
        <ele>281</ele>
        <time>2015-10-18T07:16:38.304Z</time>
      </trkpt>
      <trkpt lat="45.62262" lon="4.74764">
        <ele>280</ele>
        <time>2015-10-18T07:16:40.332Z</time>
      </trkpt>
      <trkpt lat="45.62265" lon="4.74766">
        <ele>280</ele>
        <time>2015-10-18T07:16:41.308Z</time>
      </trkpt>
      <trkpt lat="45.62272" lon="4.74766">
        <ele>280</ele>
        <time>2015-10-18T07:16:43.330Z</time>
      </trkpt>
      <trkpt lat="45.62276" lon="4.74766">
        <ele>280</ele>
        <time>2015-10-18T07:16:44.301Z</time>
      </trkpt>
      <trkpt lat="45.62281" lon="4.7476">
        <ele>280</ele>
        <time>2015-10-18T07:16:46.333Z</time>
      </trkpt>
      <trkpt lat="45.62282" lon="4.74755">
        <ele>280</ele>
        <time>2015-10-18T07:16:47.298Z</time>
      </trkpt>
      <trkpt lat="45.62282" lon="4.74745">
        <ele>282</ele>
        <time>2015-10-18T07:16:50.344Z</time>
      </trkpt>
      <trkpt lat="45.62282" lon="4.7474">
        <ele>282</ele>
        <time>2015-10-18T07:16:51.312Z</time>
      </trkpt>
      <trkpt lat="45.62282" lon="4.74727">
        <ele>282</ele>
        <time>2015-10-18T07:16:58.342Z</time>
      </trkpt>
      <trkpt lat="45.62282" lon="4.74725">
        <ele>282</ele>
        <time>2015-10-18T07:16:59.306Z</time>
      </trkpt>
      <trkpt lat="45.62289" lon="4.74721">
        <ele>282</ele>
        <time>2015-10-18T07:17:17.346Z</time>
      </trkpt>
      <trkpt lat="45.62291" lon="4.74719">
        <ele>282</ele>
        <time>2015-10-18T07:17:18.312Z</time>
      </trkpt>
      <trkpt lat="45.62287" lon="4.74708">
        <ele>282</ele>
        <time>2015-10-18T07:19:02.335Z</time>
      </trkpt>
      <trkpt lat="45.62287" lon="4.74706">
        <ele>282</ele>
        <time>2015-10-18T07:19:03.307Z</time>
      </trkpt>
      <trkpt lat="45.62291" lon="4.74695">
        <ele>282</ele>
        <time>2015-10-18T07:20:04.346Z</time>
      </trkpt>
      <trkpt lat="45.62291" lon="4.74691">
        <ele>282</ele>
        <time>2015-10-18T07:20:05.315Z</time>
      </trkpt>
      <trkpt lat="45.62293" lon="4.74682">
        <ele>282</ele>
        <time>2015-10-18T07:20:07.452Z</time>
      </trkpt>
      <trkpt lat="45.62293" lon="4.74676">
        <ele>282</ele>
        <time>2015-10-18T07:20:08.319Z</time>
      </trkpt>
      <trkpt lat="45.62295" lon="4.74665">
        <ele>282</ele>
        <time>2015-10-18T07:20:10.351Z</time>
      </trkpt>
      <trkpt lat="45.62296" lon="4.74659">
        <ele>282</ele>
        <time>2015-10-18T07:20:11.316Z</time>
      </trkpt>
      <trkpt lat="45.62298" lon="4.74652">
        <ele>282</ele>
        <time>2015-10-18T07:20:12.346Z</time>
      </trkpt>
      <trkpt lat="45.62299" lon="4.74646">
        <ele>282</ele>
        <time>2015-10-18T07:20:13.321Z</time>
      </trkpt>
      <trkpt lat="45.62301" lon="4.74639">
        <ele>282</ele>
        <time>2015-10-18T07:20:14.349Z</time>
      </trkpt>
      <trkpt lat="45.62302" lon="4.74633">
        <ele>282</ele>
        <time>2015-10-18T07:20:15.314Z</time>
      </trkpt>
      <trkpt lat="45.62301" lon="4.74624">
        <ele>282</ele>
        <time>2015-10-18T07:20:17.348Z</time>
      </trkpt>
      <trkpt lat="45.62298" lon="4.7462">
        <ele>282</ele>
        <time>2015-10-18T07:20:18.311Z</time>
      </trkpt>
      <trkpt lat="45.62291" lon="4.74616">
        <ele>282</ele>
        <time>2015-10-18T07:20:20.346Z</time>
      </trkpt>
      <trkpt lat="45.62286" lon="4.74614">
        <ele>282</ele>
        <time>2015-10-18T07:20:21.316Z</time>
      </trkpt>
      <trkpt lat="45.62282" lon="4.74612">
        <ele>282</ele>
        <time>2015-10-18T07:20:22.351Z</time>
      </trkpt>
      <trkpt lat="45.62277" lon="4.74612">
        <ele>282</ele>
        <time>2015-10-18T07:20:23.316Z</time>
      </trkpt>
      <trkpt lat="45.62269" lon="4.74607">
        <ele>282</ele>
        <time>2015-10-18T07:20:25.341Z</time>
      </trkpt>
      <trkpt lat="45.62265" lon="4.74605">
        <ele>283</ele>
        <time>2015-10-18T07:20:26.308Z</time>
      </trkpt>
      <trkpt lat="45.62261" lon="4.74603">
        <ele>283</ele>
        <time>2015-10-18T07:20:27.346Z</time>
      </trkpt>
      <trkpt lat="45.62256" lon="4.74601">
        <ele>283</ele>
        <time>2015-10-18T07:20:28.308Z</time>
      </trkpt>
      <trkpt lat="45.62249" lon="4.74594">
        <ele>283</ele>
        <time>2015-10-18T07:20:30.351Z</time>
      </trkpt>
      <trkpt lat="45.62244" lon="4.7459">
        <ele>283</ele>
        <time>2015-10-18T07:20:31.318Z</time>
      </trkpt>
      <trkpt lat="45.62237" lon="4.74586">
        <ele>283</ele>
        <time>2015-10-18T07:20:33.358Z</time>
      </trkpt>
      <trkpt lat="45.62233" lon="4.74584">
        <ele>283</ele>
        <time>2015-10-18T07:20:34.312Z</time>
      </trkpt>
      <trkpt lat="45.62224" lon="4.74584">
        <ele>283</ele>
        <time>2015-10-18T07:20:36.352Z</time>
      </trkpt>
      <trkpt lat="45.6222" lon="4.74584">
        <ele>283</ele>
        <time>2015-10-18T07:20:37.315Z</time>
      </trkpt>
      <trkpt lat="45.62215" lon="4.74584">
        <ele>283</ele>
        <time>2015-10-18T07:20:38.360Z</time>
      </trkpt>
      <trkpt lat="45.6221" lon="4.74579">
        <ele>284</ele>
        <time>2015-10-18T07:20:39.319Z</time>
      </trkpt>
      <trkpt lat="45.62203" lon="4.74573">
        <ele>284</ele>
        <time>2015-10-18T07:20:41.345Z</time>
      </trkpt>
      <trkpt lat="45.62198" lon="4.74571">
        <ele>284</ele>
        <time>2015-10-18T07:20:42.315Z</time>
      </trkpt>
      <trkpt lat="45.62191" lon="4.74566">
        <ele>284</ele>
        <time>2015-10-18T07:20:44.349Z</time>
      </trkpt>
      <trkpt lat="45.62186" lon="4.74564">
        <ele>284</ele>
        <time>2015-10-18T07:20:45.316Z</time>
      </trkpt>
      <trkpt lat="45.62181" lon="4.74562">
        <ele>284</ele>
        <time>2015-10-18T07:20:46.339Z</time>
      </trkpt>
      <trkpt lat="45.62177" lon="4.7456">
        <ele>284</ele>
        <time>2015-10-18T07:20:47.310Z</time>
      </trkpt>
      <trkpt lat="45.6217" lon="4.74556">
        <ele>284</ele>
        <time>2015-10-18T07:20:49.340Z</time>
      </trkpt>
      <trkpt lat="45.62165" lon="4.74554">
        <ele>285</ele>
        <time>2015-10-18T07:20:50.311Z</time>
      </trkpt>
      <trkpt lat="45.62161" lon="4.74551">
        <ele>285</ele>
        <time>2015-10-18T07:20:51.345Z</time>
      </trkpt>
      <trkpt lat="45.62156" lon="4.74549">
        <ele>285</ele>
        <time>2015-10-18T07:20:52.315Z</time>
      </trkpt>
      <trkpt lat="45.6215" lon="4.74543">
        <ele>285</ele>
        <time>2015-10-18T07:20:54.361Z</time>
      </trkpt>
      <trkpt lat="45.62146" lon="4.74539">
        <ele>285</ele>
        <time>2015-10-18T07:20:55.312Z</time>
      </trkpt>
      <trkpt lat="45.62141" lon="4.74536">
        <ele>285</ele>
        <time>2015-10-18T07:20:56.342Z</time>
      </trkpt>
      <trkpt lat="45.62137" lon="4.74534">
        <ele>285</ele>
        <time>2015-10-18T07:20:57.311Z</time>
      </trkpt>
      <trkpt lat="45.62133" lon="4.74532">
        <ele>285</ele>
        <time>2015-10-18T07:20:58.369Z</time>
      </trkpt>
      <trkpt lat="45.62129" lon="4.7453">
        <ele>285</ele>
        <time>2015-10-18T07:20:59.319Z</time>
      </trkpt>
      <trkpt lat="45.6212" lon="4.74528">
        <ele>285</ele>
        <time>2015-10-18T07:21:01.351Z</time>
      </trkpt>
      <trkpt lat="45.62116" lon="4.74526">
        <ele>285</ele>
        <time>2015-10-18T07:21:02.315Z</time>
      </trkpt>
      <trkpt lat="45.62111" lon="4.74524">
        <ele>285</ele>
        <time>2015-10-18T07:21:03.342Z</time>
      </trkpt>
      <trkpt lat="45.62107" lon="4.74519">
        <ele>285</ele>
        <time>2015-10-18T07:21:04.315Z</time>
      </trkpt>
      <trkpt lat="45.62104" lon="4.74515">
        <ele>285</ele>
        <time>2015-10-18T07:21:05.343Z</time>
      </trkpt>
      <trkpt lat="45.621" lon="4.74511">
        <ele>285</ele>
        <time>2015-10-18T07:21:06.316Z</time>
      </trkpt>
      <trkpt lat="45.62095" lon="4.74506">
        <ele>285</ele>
        <time>2015-10-18T07:21:07.349Z</time>
      </trkpt>
      <trkpt lat="45.62091" lon="4.74502">
        <ele>285</ele>
        <time>2015-10-18T07:21:08.314Z</time>
      </trkpt>
      <trkpt lat="45.62086" lon="4.745">
        <ele>285</ele>
        <time>2015-10-18T07:21:09.342Z</time>
      </trkpt>
      <trkpt lat="45.62081" lon="4.745">
        <ele>285</ele>
        <time>2015-10-18T07:21:10.314Z</time>
      </trkpt>
      <trkpt lat="45.62076" lon="4.74498">
        <ele>285</ele>
        <time>2015-10-18T07:21:11.345Z</time>
      </trkpt>
      <trkpt lat="45.62072" lon="4.74496">
        <ele>285</ele>
        <time>2015-10-18T07:21:12.320Z</time>
      </trkpt>
      <trkpt lat="45.62067" lon="4.74496">
        <ele>284</ele>
        <time>2015-10-18T07:21:13.373Z</time>
      </trkpt>
      <trkpt lat="45.62062" lon="4.74494">
        <ele>284</ele>
        <time>2015-10-18T07:21:14.320Z</time>
      </trkpt>
      <trkpt lat="45.62058" lon="4.74491">
        <ele>284</ele>
        <time>2015-10-18T07:21:15.336Z</time>
      </trkpt>
      <trkpt lat="45.62052" lon="4.74491">
        <ele>284</ele>
        <time>2015-10-18T07:21:16.309Z</time>
      </trkpt>
      <trkpt lat="45.62047" lon="4.74491">
        <ele>284</ele>
        <time>2015-10-18T07:21:17.329Z</time>
      </trkpt>
      <trkpt lat="45.62042" lon="4.74489">
        <ele>284</ele>
        <time>2015-10-18T07:21:18.323Z</time>
      </trkpt>
      <trkpt lat="45.62036" lon="4.74489">
        <ele>284</ele>
        <time>2015-10-18T07:21:19.345Z</time>
      </trkpt>
      <trkpt lat="45.62031" lon="4.74489">
        <ele>284</ele>
        <time>2015-10-18T07:21:20.308Z</time>
      </trkpt>
      <trkpt lat="45.62023" lon="4.74489">
        <ele>284</ele>
        <time>2015-10-18T07:21:22.357Z</time>
      </trkpt>
      <trkpt lat="45.62019" lon="4.74489">
        <ele>284</ele>
        <time>2015-10-18T07:21:23.320Z</time>
      </trkpt>
      <trkpt lat="45.62015" lon="4.74491">
        <ele>284</ele>
        <time>2015-10-18T07:21:24.332Z</time>
      </trkpt>
      <trkpt lat="45.62009" lon="4.74491">
        <ele>284</ele>
        <time>2015-10-18T07:21:25.318Z</time>
      </trkpt>
      <trkpt lat="45.62004" lon="4.74494">
        <ele>284</ele>
        <time>2015-10-18T07:21:26.337Z</time>
      </trkpt>
      <trkpt lat="45.62" lon="4.74496">
        <ele>284</ele>
        <time>2015-10-18T07:21:27.317Z</time>
      </trkpt>
      <trkpt lat="45.61994" lon="4.74496">
        <ele>284</ele>
        <time>2015-10-18T07:21:28.355Z</time>
      </trkpt>
      <trkpt lat="45.6199" lon="4.74498">
        <ele>284</ele>
        <time>2015-10-18T07:21:29.304Z</time>
      </trkpt>
      <trkpt lat="45.61983" lon="4.74502">
        <ele>284</ele>
        <time>2015-10-18T07:21:31.342Z</time>
      </trkpt>
      <trkpt lat="45.61978" lon="4.74504">
        <ele>285</ele>
        <time>2015-10-18T07:21:32.304Z</time>
      </trkpt>
      <trkpt lat="45.61971" lon="4.74509">
        <ele>285</ele>
        <time>2015-10-18T07:21:34.337Z</time>
      </trkpt>
      <trkpt lat="45.61967" lon="4.74511">
        <ele>285</ele>
        <time>2015-10-18T07:21:35.305Z</time>
      </trkpt>
      <trkpt lat="45.61962" lon="4.74513">
        <ele>285</ele>
        <time>2015-10-18T07:21:36.348Z</time>
      </trkpt>
      <trkpt lat="45.61958" lon="4.74515">
        <ele>285</ele>
        <time>2015-10-18T07:21:37.319Z</time>
      </trkpt>
      <trkpt lat="45.61952" lon="4.74515">
        <ele>285</ele>
        <time>2015-10-18T07:21:39.360Z</time>
      </trkpt>
      <trkpt lat="45.61947" lon="4.74511">
        <ele>285</ele>
        <time>2015-10-18T07:21:40.307Z</time>
      </trkpt>
      <trkpt lat="45.61944" lon="4.74502">
        <ele>285</ele>
        <time>2015-10-18T07:21:41.352Z</time>
      </trkpt>
      <trkpt lat="45.61942" lon="4.74496">
        <ele>285</ele>
        <time>2015-10-18T07:21:42.315Z</time>
      </trkpt>
      <trkpt lat="45.61941" lon="4.74489">
        <ele>285</ele>
        <time>2015-10-18T07:21:43.330Z</time>
      </trkpt>
      <trkpt lat="45.6194" lon="4.74483">
        <ele>285</ele>
        <time>2015-10-18T07:21:44.336Z</time>
      </trkpt>
      <trkpt lat="45.61939" lon="4.74478">
        <ele>285</ele>
        <time>2015-10-18T07:21:45.356Z</time>
      </trkpt>
      <trkpt lat="45.61936" lon="4.7447">
        <ele>285</ele>
        <time>2015-10-18T07:21:46.317Z</time>
      </trkpt>
      <trkpt lat="45.61935" lon="4.74463">
        <ele>285</ele>
        <time>2015-10-18T07:21:47.344Z</time>
      </trkpt>
      <trkpt lat="45.61934" lon="4.74455">
        <ele>285</ele>
        <time>2015-10-18T07:21:48.313Z</time>
      </trkpt>
      <trkpt lat="45.61933" lon="4.74448">
        <ele>285</ele>
        <time>2015-10-18T07:21:49.353Z</time>
      </trkpt>
      <trkpt lat="45.61932" lon="4.74442">
        <ele>285</ele>
        <time>2015-10-18T07:21:50.322Z</time>
      </trkpt>
      <trkpt lat="45.61931" lon="4.74436">
        <ele>285</ele>
        <time>2015-10-18T07:21:51.350Z</time>
      </trkpt>
      <trkpt lat="45.6193" lon="4.74429">
        <ele>285</ele>
        <time>2015-10-18T07:21:52.316Z</time>
      </trkpt>
      <trkpt lat="45.61932" lon="4.74423">
        <ele>285</ele>
        <time>2015-10-18T07:21:53.364Z</time>
      </trkpt>
      <trkpt lat="45.61936" lon="4.74416">
        <ele>285</ele>
        <time>2015-10-18T07:21:54.320Z</time>
      </trkpt>
      <trkpt lat="45.6194" lon="4.74412">
        <ele>285</ele>
        <time>2015-10-18T07:21:55.346Z</time>
      </trkpt>
      <trkpt lat="45.61943" lon="4.74406">
        <ele>285</ele>
        <time>2015-10-18T07:21:56.317Z</time>
      </trkpt>
      <trkpt lat="45.61947" lon="4.74399">
        <ele>285</ele>
        <time>2015-10-18T07:21:57.353Z</time>
      </trkpt>
      <trkpt lat="45.61949" lon="4.74395">
        <ele>285</ele>
        <time>2015-10-18T07:21:58.317Z</time>
      </trkpt>
      <trkpt lat="45.61953" lon="4.74388">
        <ele>285</ele>
        <time>2015-10-18T07:21:59.338Z</time>
      </trkpt>
      <trkpt lat="45.61956" lon="4.74384">
        <ele>285</ele>
        <time>2015-10-18T07:22:00.314Z</time>
      </trkpt>
      <trkpt lat="45.61959" lon="4.74378">
        <ele>285</ele>
        <time>2015-10-18T07:22:01.352Z</time>
      </trkpt>
      <trkpt lat="45.61962" lon="4.74373">
        <ele>285</ele>
        <time>2015-10-18T07:22:02.316Z</time>
      </trkpt>
      <trkpt lat="45.61964" lon="4.74367">
        <ele>285</ele>
        <time>2015-10-18T07:22:03.351Z</time>
      </trkpt>
      <trkpt lat="45.61967" lon="4.7436">
        <ele>285</ele>
        <time>2015-10-18T07:22:04.314Z</time>
      </trkpt>
      <trkpt lat="45.61968" lon="4.74352">
        <ele>285</ele>
        <time>2015-10-18T07:22:05.329Z</time>
      </trkpt>
      <trkpt lat="45.61968" lon="4.74345">
        <ele>285</ele>
        <time>2015-10-18T07:22:06.318Z</time>
      </trkpt>
      <trkpt lat="45.61968" lon="4.74337">
        <ele>286</ele>
        <time>2015-10-18T07:22:07.375Z</time>
      </trkpt>
      <trkpt lat="45.61967" lon="4.7433">
        <ele>287</ele>
        <time>2015-10-18T07:22:08.317Z</time>
      </trkpt>
      <trkpt lat="45.61967" lon="4.74322">
        <ele>287</ele>
        <time>2015-10-18T07:22:09.351Z</time>
      </trkpt>
      <trkpt lat="45.61965" lon="4.74315">
        <ele>287</ele>
        <time>2015-10-18T07:22:10.334Z</time>
      </trkpt>
      <trkpt lat="45.61963" lon="4.74307">
        <ele>287</ele>
        <time>2015-10-18T07:22:11.342Z</time>
      </trkpt>
      <trkpt lat="45.61963" lon="4.743">
        <ele>287</ele>
        <time>2015-10-18T07:22:12.327Z</time>
      </trkpt>
      <trkpt lat="45.61963" lon="4.74288">
        <ele>288</ele>
        <time>2015-10-18T07:22:14.336Z</time>
      </trkpt>
      <trkpt lat="45.61962" lon="4.74281">
        <ele>288</ele>
        <time>2015-10-18T07:22:15.315Z</time>
      </trkpt>
      <trkpt lat="45.61961" lon="4.74275">
        <ele>288</ele>
        <time>2015-10-18T07:22:16.359Z</time>
      </trkpt>
      <trkpt lat="45.6196" lon="4.74268">
        <ele>288</ele>
        <time>2015-10-18T07:22:17.324Z</time>
      </trkpt>
      <trkpt lat="45.61959" lon="4.74262">
        <ele>288</ele>
        <time>2015-10-18T07:22:18.365Z</time>
      </trkpt>
      <trkpt lat="45.61959" lon="4.74255">
        <ele>288</ele>
        <time>2015-10-18T07:22:19.314Z</time>
      </trkpt>
      <trkpt lat="45.61959" lon="4.74247">
        <ele>290</ele>
        <time>2015-10-18T07:22:20.359Z</time>
      </trkpt>
      <trkpt lat="45.6196" lon="4.7424">
        <ele>290</ele>
        <time>2015-10-18T07:22:21.319Z</time>
      </trkpt>
      <trkpt lat="45.61963" lon="4.74232">
        <ele>290</ele>
        <time>2015-10-18T07:22:23.364Z</time>
      </trkpt>
      <trkpt lat="45.61965" lon="4.74225">
        <ele>290</ele>
        <time>2015-10-18T07:22:24.329Z</time>
      </trkpt>
      <trkpt lat="45.61971" lon="4.74217">
        <ele>290</ele>
        <time>2015-10-18T07:22:26.346Z</time>
      </trkpt>
      <trkpt lat="45.61974" lon="4.74212">
        <ele>290</ele>
        <time>2015-10-18T07:22:27.318Z</time>
      </trkpt>
      <trkpt lat="45.61982" lon="4.74206">
        <ele>290</ele>
        <time>2015-10-18T07:22:29.379Z</time>
      </trkpt>
      <trkpt lat="45.61986" lon="4.74202">
        <ele>290</ele>
        <time>2015-10-18T07:22:30.320Z</time>
      </trkpt>
      <trkpt lat="45.61992" lon="4.74193">
        <ele>291</ele>
        <time>2015-10-18T07:22:32.345Z</time>
      </trkpt>
      <trkpt lat="45.61996" lon="4.74191">
        <ele>291</ele>
        <time>2015-10-18T07:22:33.324Z</time>
      </trkpt>
      <trkpt lat="45.61999" lon="4.74187">
        <ele>291</ele>
        <time>2015-10-18T07:22:34.338Z</time>
      </trkpt>
      <trkpt lat="45.62003" lon="4.74182">
        <ele>289</ele>
        <time>2015-10-18T07:22:35.323Z</time>
      </trkpt>
      <trkpt lat="45.62008" lon="4.74174">
        <ele>290</ele>
        <time>2015-10-18T07:22:37.345Z</time>
      </trkpt>
      <trkpt lat="45.62012" lon="4.74169">
        <ele>289</ele>
        <time>2015-10-18T07:22:38.316Z</time>
      </trkpt>
      <trkpt lat="45.62016" lon="4.74159">
        <ele>290</ele>
        <time>2015-10-18T07:22:40.370Z</time>
      </trkpt>
      <trkpt lat="45.62018" lon="4.74152">
        <ele>290</ele>
        <time>2015-10-18T07:22:41.321Z</time>
      </trkpt>
      <trkpt lat="45.62021" lon="4.74146">
        <ele>290</ele>
        <time>2015-10-18T07:22:42.357Z</time>
      </trkpt>
      <trkpt lat="45.62023" lon="4.74142">
        <ele>290</ele>
        <time>2015-10-18T07:22:43.321Z</time>
      </trkpt>
      <trkpt lat="45.62027" lon="4.74135">
        <ele>290</ele>
        <time>2015-10-18T07:22:44.342Z</time>
      </trkpt>
      <trkpt lat="45.62029" lon="4.74131">
        <ele>290</ele>
        <time>2015-10-18T07:22:45.317Z</time>
      </trkpt>
      <trkpt lat="45.62033" lon="4.7412">
        <ele>290</ele>
        <time>2015-10-18T07:22:47.346Z</time>
      </trkpt>
      <trkpt lat="45.62035" lon="4.74116">
        <ele>290</ele>
        <time>2015-10-18T07:22:48.322Z</time>
      </trkpt>
      <trkpt lat="45.62039" lon="4.74107">
        <ele>290</ele>
        <time>2015-10-18T07:22:50.359Z</time>
      </trkpt>
      <trkpt lat="45.62044" lon="4.74101">
        <ele>290</ele>
        <time>2015-10-18T07:22:51.315Z</time>
      </trkpt>
      <trkpt lat="45.62047" lon="4.74097">
        <ele>289</ele>
        <time>2015-10-18T07:22:52.343Z</time>
      </trkpt>
      <trkpt lat="45.62051" lon="4.7409">
        <ele>289</ele>
        <time>2015-10-18T07:22:53.319Z</time>
      </trkpt>
      <trkpt lat="45.62057" lon="4.74088">
        <ele>289</ele>
        <time>2015-10-18T07:22:54.349Z</time>
      </trkpt>
      <trkpt lat="45.62061" lon="4.74084">
        <ele>289</ele>
        <time>2015-10-18T07:22:55.323Z</time>
      </trkpt>
      <trkpt lat="45.62065" lon="4.74077">
        <ele>289</ele>
        <time>2015-10-18T07:22:56.353Z</time>
      </trkpt>
      <trkpt lat="45.6207" lon="4.74071">
        <ele>289</ele>
        <time>2015-10-18T07:22:57.318Z</time>
      </trkpt>
      <trkpt lat="45.62073" lon="4.74064">
        <ele>289</ele>
        <time>2015-10-18T07:22:58.337Z</time>
      </trkpt>
      <trkpt lat="45.62077" lon="4.74056">
        <ele>289</ele>
        <time>2015-10-18T07:22:59.320Z</time>
      </trkpt>
      <trkpt lat="45.62079" lon="4.74049">
        <ele>290</ele>
        <time>2015-10-18T07:23:00.348Z</time>
      </trkpt>
      <trkpt lat="45.62082" lon="4.74043">
        <ele>290</ele>
        <time>2015-10-18T07:23:01.321Z</time>
      </trkpt>
      <trkpt lat="45.62086" lon="4.74034">
        <ele>288</ele>
        <time>2015-10-18T07:23:02.352Z</time>
      </trkpt>
      <trkpt lat="45.62089" lon="4.74028">
        <ele>288</ele>
        <time>2015-10-18T07:23:03.315Z</time>
      </trkpt>
      <trkpt lat="45.62093" lon="4.74019">
        <ele>288</ele>
        <time>2015-10-18T07:23:04.346Z</time>
      </trkpt>
      <trkpt lat="45.62095" lon="4.74013">
        <ele>288</ele>
        <time>2015-10-18T07:23:05.323Z</time>
      </trkpt>
      <trkpt lat="45.62099" lon="4.74004">
        <ele>288</ele>
        <time>2015-10-18T07:23:06.351Z</time>
      </trkpt>
      <trkpt lat="45.62101" lon="4.73998">
        <ele>288</ele>
        <time>2015-10-18T07:23:07.330Z</time>
      </trkpt>
      <trkpt lat="45.62103" lon="4.73991">
        <ele>288</ele>
        <time>2015-10-18T07:23:08.343Z</time>
      </trkpt>
      <trkpt lat="45.62106" lon="4.73985">
        <ele>288</ele>
        <time>2015-10-18T07:23:09.317Z</time>
      </trkpt>
      <trkpt lat="45.62108" lon="4.73976">
        <ele>288</ele>
        <time>2015-10-18T07:23:10.355Z</time>
      </trkpt>
      <trkpt lat="45.6211" lon="4.7397">
        <ele>288</ele>
        <time>2015-10-18T07:23:11.314Z</time>
      </trkpt>
      <trkpt lat="45.62112" lon="4.73963">
        <ele>288</ele>
        <time>2015-10-18T07:23:12.344Z</time>
      </trkpt>
      <trkpt lat="45.62115" lon="4.73957">
        <ele>288</ele>
        <time>2015-10-18T07:23:13.322Z</time>
      </trkpt>
      <trkpt lat="45.62117" lon="4.73951">
        <ele>288</ele>
        <time>2015-10-18T07:23:14.351Z</time>
      </trkpt>
      <trkpt lat="45.62119" lon="4.73944">
        <ele>288</ele>
        <time>2015-10-18T07:23:15.319Z</time>
      </trkpt>
      <trkpt lat="45.62121" lon="4.73938">
        <ele>288</ele>
        <time>2015-10-18T07:23:16.349Z</time>
      </trkpt>
      <trkpt lat="45.62123" lon="4.73931">
        <ele>288</ele>
        <time>2015-10-18T07:23:17.318Z</time>
      </trkpt>
      <trkpt lat="45.62125" lon="4.73925">
        <ele>288</ele>
        <time>2015-10-18T07:23:18.356Z</time>
      </trkpt>
      <trkpt lat="45.62127" lon="4.73918">
        <ele>288</ele>
        <time>2015-10-18T07:23:19.314Z</time>
      </trkpt>
      <trkpt lat="45.62131" lon="4.73912">
        <ele>289</ele>
        <time>2015-10-18T07:23:20.352Z</time>
      </trkpt>
      <trkpt lat="45.62133" lon="4.73908">
        <ele>289</ele>
        <time>2015-10-18T07:23:21.313Z</time>
      </trkpt>
      <trkpt lat="45.62135" lon="4.73901">
        <ele>289</ele>
        <time>2015-10-18T07:23:22.354Z</time>
      </trkpt>
      <trkpt lat="45.62137" lon="4.73895">
        <ele>289</ele>
        <time>2015-10-18T07:23:23.321Z</time>
      </trkpt>
      <trkpt lat="45.62142" lon="4.73886">
        <ele>289</ele>
        <time>2015-10-18T07:23:25.344Z</time>
      </trkpt>
      <trkpt lat="45.62145" lon="4.7388">
        <ele>289</ele>
        <time>2015-10-18T07:23:26.321Z</time>
      </trkpt>
      <trkpt lat="45.62145" lon="4.73869">
        <ele>289</ele>
        <time>2015-10-18T07:23:28.342Z</time>
      </trkpt>
      <trkpt lat="45.62142" lon="4.73865">
        <ele>289</ele>
        <time>2015-10-18T07:23:29.316Z</time>
      </trkpt>
      <trkpt lat="45.62135" lon="4.73863">
        <ele>289</ele>
        <time>2015-10-18T07:23:31.353Z</time>
      </trkpt>
      <trkpt lat="45.6213" lon="4.73863">
        <ele>289</ele>
        <time>2015-10-18T07:23:32.315Z</time>
      </trkpt>
      <trkpt lat="45.62124" lon="4.73863">
        <ele>289</ele>
        <time>2015-10-18T07:23:33.344Z</time>
      </trkpt>
      <trkpt lat="45.6212" lon="4.73863">
        <ele>289</ele>
        <time>2015-10-18T07:23:34.318Z</time>
      </trkpt>
      <trkpt lat="45.62116" lon="4.73863">
        <ele>289</ele>
        <time>2015-10-18T07:23:35.347Z</time>
      </trkpt>
      <trkpt lat="45.6211" lon="4.73861">
        <ele>289</ele>
        <time>2015-10-18T07:23:36.319Z</time>
      </trkpt>
      <trkpt lat="45.62103" lon="4.73861">
        <ele>289</ele>
        <time>2015-10-18T07:23:38.352Z</time>
      </trkpt>
      <trkpt lat="45.62099" lon="4.73858">
        <ele>289</ele>
        <time>2015-10-18T07:23:39.316Z</time>
      </trkpt>
      <trkpt lat="45.62093" lon="4.73858">
        <ele>290</ele>
        <time>2015-10-18T07:23:40.354Z</time>
      </trkpt>
      <trkpt lat="45.62089" lon="4.73858">
        <ele>290</ele>
        <time>2015-10-18T07:23:41.311Z</time>
      </trkpt>
      <trkpt lat="45.62082" lon="4.73854">
        <ele>290</ele>
        <time>2015-10-18T07:23:43.350Z</time>
      </trkpt>
      <trkpt lat="45.62079" lon="4.73852">
        <ele>290</ele>
        <time>2015-10-18T07:23:44.323Z</time>
      </trkpt>
      <trkpt lat="45.62075" lon="4.7385">
        <ele>290</ele>
        <time>2015-10-18T07:23:45.367Z</time>
      </trkpt>
      <trkpt lat="45.62071" lon="4.73848">
        <ele>290</ele>
        <time>2015-10-18T07:23:46.321Z</time>
      </trkpt>
      <trkpt lat="45.62063" lon="4.73843">
        <ele>290</ele>
        <time>2015-10-18T07:23:48.349Z</time>
      </trkpt>
      <trkpt lat="45.62059" lon="4.73839">
        <ele>290</ele>
        <time>2015-10-18T07:23:49.314Z</time>
      </trkpt>
      <trkpt lat="45.62052" lon="4.73833">
        <ele>290</ele>
        <time>2015-10-18T07:23:51.357Z</time>
      </trkpt>
      <trkpt lat="45.62049" lon="4.73828">
        <ele>290</ele>
        <time>2015-10-18T07:23:52.319Z</time>
      </trkpt>
      <trkpt lat="45.62043" lon="4.73822">
        <ele>290</ele>
        <time>2015-10-18T07:23:54.352Z</time>
      </trkpt>
      <trkpt lat="45.62039" lon="4.73818">
        <ele>290</ele>
        <time>2015-10-18T07:23:55.318Z</time>
      </trkpt>
      <trkpt lat="45.62033" lon="4.73811">
        <ele>290</ele>
        <time>2015-10-18T07:23:57.368Z</time>
      </trkpt>
      <trkpt lat="45.6203" lon="4.73807">
        <ele>290</ele>
        <time>2015-10-18T07:23:58.313Z</time>
      </trkpt>
      <trkpt lat="45.62026" lon="4.73803">
        <ele>290</ele>
        <time>2015-10-18T07:23:59.356Z</time>
      </trkpt>
      <trkpt lat="45.62022" lon="4.73798">
        <ele>290</ele>
        <time>2015-10-18T07:24:00.315Z</time>
      </trkpt>
      <trkpt lat="45.62015" lon="4.73792">
        <ele>290</ele>
        <time>2015-10-18T07:24:02.357Z</time>
      </trkpt>
      <trkpt lat="45.62012" lon="4.7379">
        <ele>290</ele>
        <time>2015-10-18T07:24:03.316Z</time>
      </trkpt>
      <trkpt lat="45.62007" lon="4.73785">
        <ele>291</ele>
        <time>2015-10-18T07:24:04.347Z</time>
      </trkpt>
      <trkpt lat="45.62003" lon="4.73783">
        <ele>291</ele>
        <time>2015-10-18T07:24:05.311Z</time>
      </trkpt>
      <trkpt lat="45.61996" lon="4.73777">
        <ele>292</ele>
        <time>2015-10-18T07:24:07.377Z</time>
      </trkpt>
      <trkpt lat="45.61991" lon="4.73775">
        <ele>292</ele>
        <time>2015-10-18T07:24:08.313Z</time>
      </trkpt>
      <trkpt lat="45.61986" lon="4.73773">
        <ele>292</ele>
        <time>2015-10-18T07:24:09.351Z</time>
      </trkpt>
      <trkpt lat="45.6198" lon="4.7377">
        <ele>292</ele>
        <time>2015-10-18T07:24:10.318Z</time>
      </trkpt>
      <trkpt lat="45.61972" lon="4.73768">
        <ele>293</ele>
        <time>2015-10-18T07:24:12.347Z</time>
      </trkpt>
      <trkpt lat="45.61968" lon="4.73766">
        <ele>293</ele>
        <time>2015-10-18T07:24:13.316Z</time>
      </trkpt>
      <trkpt lat="45.61959" lon="4.73764">
        <ele>293</ele>
        <time>2015-10-18T07:24:15.346Z</time>
      </trkpt>
      <trkpt lat="45.61955" lon="4.73764">
        <ele>293</ele>
        <time>2015-10-18T07:24:16.314Z</time>
      </trkpt>
      <trkpt lat="45.61949" lon="4.73764">
        <ele>293</ele>
        <time>2015-10-18T07:24:17.341Z</time>
      </trkpt>
      <trkpt lat="45.61944" lon="4.73766">
        <ele>293</ele>
        <time>2015-10-18T07:24:18.310Z</time>
      </trkpt>
      <trkpt lat="45.61939" lon="4.73768">
        <ele>293</ele>
        <time>2015-10-18T07:24:19.338Z</time>
      </trkpt>
      <trkpt lat="45.61933" lon="4.73768">
        <ele>293</ele>
        <time>2015-10-18T07:24:20.311Z</time>
      </trkpt>
      <trkpt lat="45.61926" lon="4.73768">
        <ele>294</ele>
        <time>2015-10-18T07:24:22.344Z</time>
      </trkpt>
      <trkpt lat="45.61919" lon="4.7377">
        <ele>294</ele>
        <time>2015-10-18T07:24:23.309Z</time>
      </trkpt>
      <trkpt lat="45.61914" lon="4.7377">
        <ele>295</ele>
        <time>2015-10-18T07:24:24.333Z</time>
      </trkpt>
      <trkpt lat="45.61909" lon="4.73768">
        <ele>295</ele>
        <time>2015-10-18T07:24:25.310Z</time>
      </trkpt>
      <trkpt lat="45.619" lon="4.73766">
        <ele>295</ele>
        <time>2015-10-18T07:24:27.354Z</time>
      </trkpt>
      <trkpt lat="45.61894" lon="4.73766">
        <ele>295</ele>
        <time>2015-10-18T07:24:28.311Z</time>
      </trkpt>
      <trkpt lat="45.61885" lon="4.73766">
        <ele>295</ele>
        <time>2015-10-18T07:24:30.339Z</time>
      </trkpt>
      <trkpt lat="45.61881" lon="4.73766">
        <ele>295</ele>
        <time>2015-10-18T07:24:31.302Z</time>
      </trkpt>
      <trkpt lat="45.61872" lon="4.73768">
        <ele>295</ele>
        <time>2015-10-18T07:24:33.341Z</time>
      </trkpt>
      <trkpt lat="45.61868" lon="4.73768">
        <ele>295</ele>
        <time>2015-10-18T07:24:34.314Z</time>
      </trkpt>
      <trkpt lat="45.61859" lon="4.7377">
        <ele>296</ele>
        <time>2015-10-18T07:24:36.346Z</time>
      </trkpt>
      <trkpt lat="45.61856" lon="4.73773">
        <ele>296</ele>
        <time>2015-10-18T07:24:37.310Z</time>
      </trkpt>
      <trkpt lat="45.61849" lon="4.73773">
        <ele>296</ele>
        <time>2015-10-18T07:24:39.346Z</time>
      </trkpt>
      <trkpt lat="45.61843" lon="4.73773">
        <ele>296</ele>
        <time>2015-10-18T07:24:40.305Z</time>
      </trkpt>
      <trkpt lat="45.61835" lon="4.73775">
        <ele>296</ele>
        <time>2015-10-18T07:24:42.344Z</time>
      </trkpt>
      <trkpt lat="45.61829" lon="4.73773">
        <ele>296</ele>
        <time>2015-10-18T07:24:43.314Z</time>
      </trkpt>
      <trkpt lat="45.61824" lon="4.7377">
        <ele>295</ele>
        <time>2015-10-18T07:24:44.482Z</time>
      </trkpt>
      <trkpt lat="45.6182" lon="4.73768">
        <ele>295</ele>
        <time>2015-10-18T07:24:45.313Z</time>
      </trkpt>
      <trkpt lat="45.61813" lon="4.73764">
        <ele>295</ele>
        <time>2015-10-18T07:24:46.346Z</time>
      </trkpt>
      <trkpt lat="45.61808" lon="4.7376">
        <ele>295</ele>
        <time>2015-10-18T07:24:47.310Z</time>
      </trkpt>
      <trkpt lat="45.61803" lon="4.73755">
        <ele>295</ele>
        <time>2015-10-18T07:24:48.350Z</time>
      </trkpt>
      <trkpt lat="45.61799" lon="4.73753">
        <ele>295</ele>
        <time>2015-10-18T07:24:49.312Z</time>
      </trkpt>
      <trkpt lat="45.61794" lon="4.73749">
        <ele>293</ele>
        <time>2015-10-18T07:24:50.355Z</time>
      </trkpt>
      <trkpt lat="45.61788" lon="4.73747">
        <ele>293</ele>
        <time>2015-10-18T07:24:51.316Z</time>
      </trkpt>
      <trkpt lat="45.61784" lon="4.73745">
        <ele>293</ele>
        <time>2015-10-18T07:24:52.355Z</time>
      </trkpt>
      <trkpt lat="45.61779" lon="4.73742">
        <ele>293</ele>
        <time>2015-10-18T07:24:53.322Z</time>
      </trkpt>
      <trkpt lat="45.61774" lon="4.7374">
        <ele>293</ele>
        <time>2015-10-18T07:24:54.341Z</time>
      </trkpt>
      <trkpt lat="45.61769" lon="4.7374">
        <ele>293</ele>
        <time>2015-10-18T07:24:55.342Z</time>
      </trkpt>
      <trkpt lat="45.61765" lon="4.73738">
        <ele>293</ele>
        <time>2015-10-18T07:24:56.385Z</time>
      </trkpt>
      <trkpt lat="45.61759" lon="4.73736">
        <ele>293</ele>
        <time>2015-10-18T07:24:57.321Z</time>
      </trkpt>
      <trkpt lat="45.61754" lon="4.73734">
        <ele>293</ele>
        <time>2015-10-18T07:24:58.363Z</time>
      </trkpt>
      <trkpt lat="45.61748" lon="4.7373">
        <ele>292</ele>
        <time>2015-10-18T07:24:59.317Z</time>
      </trkpt>
      <trkpt lat="45.61742" lon="4.73727">
        <ele>292</ele>
        <time>2015-10-18T07:25:00.363Z</time>
      </trkpt>
      <trkpt lat="45.61737" lon="4.73725">
        <ele>292</ele>
        <time>2015-10-18T07:25:01.311Z</time>
      </trkpt>
      <trkpt lat="45.61729" lon="4.73723">
        <ele>292</ele>
        <time>2015-10-18T07:25:03.364Z</time>
      </trkpt>
      <trkpt lat="45.61727" lon="4.73721">
        <ele>292</ele>
        <time>2015-10-18T07:25:04.316Z</time>
      </trkpt>
      <trkpt lat="45.61728" lon="4.7371">
        <ele>292</ele>
        <time>2015-10-18T07:25:06.350Z</time>
      </trkpt>
      <trkpt lat="45.61729" lon="4.73706">
        <ele>292</ele>
        <time>2015-10-18T07:25:07.307Z</time>
      </trkpt>
      <trkpt lat="45.61734" lon="4.73697">
        <ele>292</ele>
        <time>2015-10-18T07:25:09.352Z</time>
      </trkpt>
      <trkpt lat="45.61736" lon="4.73691">
        <ele>292</ele>
        <time>2015-10-18T07:25:10.313Z</time>
      </trkpt>
      <trkpt lat="45.61737" lon="4.73685">
        <ele>292</ele>
        <time>2015-10-18T07:25:11.366Z</time>
      </trkpt>
      <trkpt lat="45.61738" lon="4.73678">
        <ele>292</ele>
        <time>2015-10-18T07:25:12.320Z</time>
      </trkpt>
      <trkpt lat="45.6174" lon="4.73672">
        <ele>292</ele>
        <time>2015-10-18T07:25:13.350Z</time>
      </trkpt>
      <trkpt lat="45.61742" lon="4.73663">
        <ele>292</ele>
        <time>2015-10-18T07:25:14.305Z</time>
      </trkpt>
      <trkpt lat="45.61743" lon="4.73657">
        <ele>292</ele>
        <time>2015-10-18T07:25:15.332Z</time>
      </trkpt>
      <trkpt lat="45.61744" lon="4.73648">
        <ele>291</ele>
        <time>2015-10-18T07:25:16.302Z</time>
      </trkpt>
      <trkpt lat="45.61744" lon="4.73642">
        <ele>291</ele>
        <time>2015-10-18T07:25:17.338Z</time>
      </trkpt>
      <trkpt lat="45.61746" lon="4.73635">
        <ele>291</ele>
        <time>2015-10-18T07:25:18.316Z</time>
      </trkpt>
      <trkpt lat="45.61747" lon="4.73629">
        <ele>291</ele>
        <time>2015-10-18T07:25:19.354Z</time>
      </trkpt>
      <trkpt lat="45.61749" lon="4.7362">
        <ele>291</ele>
        <time>2015-10-18T07:25:20.319Z</time>
      </trkpt>
      <trkpt lat="45.6175" lon="4.73614">
        <ele>291</ele>
        <time>2015-10-18T07:25:21.353Z</time>
      </trkpt>
      <trkpt lat="45.61751" lon="4.73607">
        <ele>292</ele>
        <time>2015-10-18T07:25:22.319Z</time>
      </trkpt>
      <trkpt lat="45.61753" lon="4.73601">
        <ele>292</ele>
        <time>2015-10-18T07:25:23.354Z</time>
      </trkpt>
      <trkpt lat="45.61755" lon="4.73594">
        <ele>292</ele>
        <time>2015-10-18T07:25:24.321Z</time>
      </trkpt>
      <trkpt lat="45.61762" lon="4.73586">
        <ele>292</ele>
        <time>2015-10-18T07:25:26.373Z</time>
      </trkpt>
      <trkpt lat="45.61766" lon="4.73584">
        <ele>292</ele>
        <time>2015-10-18T07:25:27.323Z</time>
      </trkpt>
      <trkpt lat="45.61772" lon="4.73586">
        <ele>292</ele>
        <time>2015-10-18T07:25:28.352Z</time>
      </trkpt>
      <trkpt lat="45.61779" lon="4.73586">
        <ele>292</ele>
        <time>2015-10-18T07:25:29.321Z</time>
      </trkpt>
      <trkpt lat="45.61784" lon="4.73586">
        <ele>292</ele>
        <time>2015-10-18T07:25:30.358Z</time>
      </trkpt>
      <trkpt lat="45.6179" lon="4.73586">
        <ele>292</ele>
        <time>2015-10-18T07:25:31.322Z</time>
      </trkpt>
      <trkpt lat="45.61795" lon="4.73584">
        <ele>292</ele>
        <time>2015-10-18T07:25:32.344Z</time>
      </trkpt>
      <trkpt lat="45.618" lon="4.73584">
        <ele>292</ele>
        <time>2015-10-18T07:25:33.315Z</time>
      </trkpt>
      <trkpt lat="45.61806" lon="4.73584">
        <ele>292</ele>
        <time>2015-10-18T07:25:34.355Z</time>
      </trkpt>
      <trkpt lat="45.61812" lon="4.73582">
        <ele>292</ele>
        <time>2015-10-18T07:25:35.307Z</time>
      </trkpt>
      <trkpt lat="45.61816" lon="4.73579">
        <ele>292</ele>
        <time>2015-10-18T07:25:36.343Z</time>
      </trkpt>
      <trkpt lat="45.61822" lon="4.73577">
        <ele>292</ele>
        <time>2015-10-18T07:25:37.319Z</time>
      </trkpt>
      <trkpt lat="45.61824" lon="4.73573">
        <ele>292</ele>
        <time>2015-10-18T07:25:38.368Z</time>
      </trkpt>
      <trkpt lat="45.61825" lon="4.73564">
        <ele>292</ele>
        <time>2015-10-18T07:25:39.317Z</time>
      </trkpt>
      <trkpt lat="45.61826" lon="4.73558">
        <ele>292</ele>
        <time>2015-10-18T07:25:40.371Z</time>
      </trkpt>
      <trkpt lat="45.61828" lon="4.73549">
        <ele>292</ele>
        <time>2015-10-18T07:25:41.308Z</time>
      </trkpt>
      <trkpt lat="45.6183" lon="4.73543">
        <ele>292</ele>
        <time>2015-10-18T07:25:42.336Z</time>
      </trkpt>
      <trkpt lat="45.61832" lon="4.73534">
        <ele>292</ele>
        <time>2015-10-18T07:25:43.312Z</time>
      </trkpt>
      <trkpt lat="45.61834" lon="4.73528">
        <ele>291</ele>
        <time>2015-10-18T07:25:44.337Z</time>
      </trkpt>
      <trkpt lat="45.61836" lon="4.73519">
        <ele>291</ele>
        <time>2015-10-18T07:25:45.311Z</time>
      </trkpt>
      <trkpt lat="45.61838" lon="4.73513">
        <ele>291</ele>
        <time>2015-10-18T07:25:46.344Z</time>
      </trkpt>
      <trkpt lat="45.61839" lon="4.73506">
        <ele>291</ele>
        <time>2015-10-18T07:25:47.309Z</time>
      </trkpt>
      <trkpt lat="45.61841" lon="4.73498">
        <ele>291</ele>
        <time>2015-10-18T07:25:48.331Z</time>
      </trkpt>
      <trkpt lat="45.61842" lon="4.73491">
        <ele>291</ele>
        <time>2015-10-18T07:25:49.310Z</time>
      </trkpt>
      <trkpt lat="45.61845" lon="4.73483">
        <ele>291</ele>
        <time>2015-10-18T07:25:50.337Z</time>
      </trkpt>
      <trkpt lat="45.61847" lon="4.73476">
        <ele>291</ele>
        <time>2015-10-18T07:25:51.298Z</time>
      </trkpt>
      <trkpt lat="45.61849" lon="4.7347">
        <ele>291</ele>
        <time>2015-10-18T07:25:52.335Z</time>
      </trkpt>
      <trkpt lat="45.61851" lon="4.73461">
        <ele>291</ele>
        <time>2015-10-18T07:25:53.305Z</time>
      </trkpt>
      <trkpt lat="45.61854" lon="4.73455">
        <ele>291</ele>
        <time>2015-10-18T07:25:54.334Z</time>
      </trkpt>
      <trkpt lat="45.61855" lon="4.73446">
        <ele>291</ele>
        <time>2015-10-18T07:25:55.302Z</time>
      </trkpt>
      <trkpt lat="45.61857" lon="4.7344">
        <ele>291</ele>
        <time>2015-10-18T07:25:56.348Z</time>
      </trkpt>
      <trkpt lat="45.61859" lon="4.73431">
        <ele>291</ele>
        <time>2015-10-18T07:25:57.312Z</time>
      </trkpt>
      <trkpt lat="45.61861" lon="4.73423">
        <ele>291</ele>
        <time>2015-10-18T07:25:58.357Z</time>
      </trkpt>
      <trkpt lat="45.61864" lon="4.73414">
        <ele>291</ele>
        <time>2015-10-18T07:25:59.298Z</time>
      </trkpt>
      <trkpt lat="45.61866" lon="4.73408">
        <ele>291</ele>
        <time>2015-10-18T07:26:00.343Z</time>
      </trkpt>
      <trkpt lat="45.61867" lon="4.73401">
        <ele>291</ele>
        <time>2015-10-18T07:26:01.313Z</time>
      </trkpt>
      <trkpt lat="45.61868" lon="4.73393">
        <ele>291</ele>
        <time>2015-10-18T07:26:02.333Z</time>
      </trkpt>
      <trkpt lat="45.6187" lon="4.73386">
        <ele>291</ele>
        <time>2015-10-18T07:26:03.305Z</time>
      </trkpt>
      <trkpt lat="45.6187" lon="4.7338">
        <ele>291</ele>
        <time>2015-10-18T07:26:04.338Z</time>
      </trkpt>
      <trkpt lat="45.61872" lon="4.73373">
        <ele>291</ele>
        <time>2015-10-18T07:26:05.305Z</time>
      </trkpt>
      <trkpt lat="45.61873" lon="4.73365">
        <ele>291</ele>
        <time>2015-10-18T07:26:06.338Z</time>
      </trkpt>
      <trkpt lat="45.61874" lon="4.73358">
        <ele>291</ele>
        <time>2015-10-18T07:26:07.311Z</time>
      </trkpt>
      <trkpt lat="45.61875" lon="4.73352">
        <ele>290</ele>
        <time>2015-10-18T07:26:08.365Z</time>
      </trkpt>
      <trkpt lat="45.61877" lon="4.73346">
        <ele>290</ele>
        <time>2015-10-18T07:26:09.312Z</time>
      </trkpt>
      <trkpt lat="45.61879" lon="4.73339">
        <ele>290</ele>
        <time>2015-10-18T07:26:10.338Z</time>
      </trkpt>
      <trkpt lat="45.6188" lon="4.73333">
        <ele>290</ele>
        <time>2015-10-18T07:26:11.311Z</time>
      </trkpt>
      <trkpt lat="45.61881" lon="4.73324">
        <ele>290</ele>
        <time>2015-10-18T07:26:12.324Z</time>
      </trkpt>
      <trkpt lat="45.61882" lon="4.73318">
        <ele>290</ele>
        <time>2015-10-18T07:26:13.315Z</time>
      </trkpt>
      <trkpt lat="45.61884" lon="4.73311">
        <ele>290</ele>
        <time>2015-10-18T07:26:14.349Z</time>
      </trkpt>
      <trkpt lat="45.61884" lon="4.73303">
        <ele>290</ele>
        <time>2015-10-18T07:26:15.313Z</time>
      </trkpt>
      <trkpt lat="45.61886" lon="4.73296">
        <ele>290</ele>
        <time>2015-10-18T07:26:16.353Z</time>
      </trkpt>
      <trkpt lat="45.61888" lon="4.7329">
        <ele>290</ele>
        <time>2015-10-18T07:26:17.311Z</time>
      </trkpt>
      <trkpt lat="45.61888" lon="4.73283">
        <ele>291</ele>
        <time>2015-10-18T07:26:18.333Z</time>
      </trkpt>
      <trkpt lat="45.6189" lon="4.73275">
        <ele>291</ele>
        <time>2015-10-18T07:26:19.308Z</time>
      </trkpt>
      <trkpt lat="45.61891" lon="4.73268">
        <ele>291</ele>
        <time>2015-10-18T07:26:20.349Z</time>
      </trkpt>
      <trkpt lat="45.61893" lon="4.73262">
        <ele>291</ele>
        <time>2015-10-18T07:26:21.312Z</time>
      </trkpt>
      <trkpt lat="45.61895" lon="4.73253">
        <ele>290</ele>
        <time>2015-10-18T07:26:22.345Z</time>
      </trkpt>
      <trkpt lat="45.61898" lon="4.73247">
        <ele>291</ele>
        <time>2015-10-18T07:26:23.307Z</time>
      </trkpt>
      <trkpt lat="45.619" lon="4.7324">
        <ele>291</ele>
        <time>2015-10-18T07:26:24.338Z</time>
      </trkpt>
      <trkpt lat="45.61901" lon="4.73232">
        <ele>291</ele>
        <time>2015-10-18T07:26:25.310Z</time>
      </trkpt>
      <trkpt lat="45.61904" lon="4.73225">
        <ele>291</ele>
        <time>2015-10-18T07:26:26.336Z</time>
      </trkpt>
      <trkpt lat="45.61906" lon="4.73219">
        <ele>291</ele>
        <time>2015-10-18T07:26:27.310Z</time>
      </trkpt>
      <trkpt lat="45.61909" lon="4.73212">
        <ele>291</ele>
        <time>2015-10-18T07:26:28.337Z</time>
      </trkpt>
      <trkpt lat="45.61911" lon="4.73206">
        <ele>291</ele>
        <time>2015-10-18T07:26:29.315Z</time>
      </trkpt>
      <trkpt lat="45.61913" lon="4.732">
        <ele>291</ele>
        <time>2015-10-18T07:26:30.370Z</time>
      </trkpt>
      <trkpt lat="45.61915" lon="4.73193">
        <ele>291</ele>
        <time>2015-10-18T07:26:31.322Z</time>
      </trkpt>
      <trkpt lat="45.61918" lon="4.73187">
        <ele>291</ele>
        <time>2015-10-18T07:26:32.352Z</time>
      </trkpt>
      <trkpt lat="45.6192" lon="4.7318">
        <ele>291</ele>
        <time>2015-10-18T07:26:33.308Z</time>
      </trkpt>
      <trkpt lat="45.61923" lon="4.73174">
        <ele>291</ele>
        <time>2015-10-18T07:26:34.345Z</time>
      </trkpt>
      <trkpt lat="45.61925" lon="4.73167">
        <ele>291</ele>
        <time>2015-10-18T07:26:35.315Z</time>
      </trkpt>
      <trkpt lat="45.61927" lon="4.73161">
        <ele>291</ele>
        <time>2015-10-18T07:26:36.327Z</time>
      </trkpt>
      <trkpt lat="45.61929" lon="4.73152">
        <ele>291</ele>
        <time>2015-10-18T07:26:37.305Z</time>
      </trkpt>
      <trkpt lat="45.6193" lon="4.73146">
        <ele>291</ele>
        <time>2015-10-18T07:26:38.341Z</time>
      </trkpt>
      <trkpt lat="45.61932" lon="4.7314">
        <ele>291</ele>
        <time>2015-10-18T07:26:39.305Z</time>
      </trkpt>
      <trkpt lat="45.61933" lon="4.73133">
        <ele>291</ele>
        <time>2015-10-18T07:26:40.318Z</time>
      </trkpt>
      <trkpt lat="45.61935" lon="4.73127">
        <ele>291</ele>
        <time>2015-10-18T07:26:41.302Z</time>
      </trkpt>
      <trkpt lat="45.61936" lon="4.73118">
        <ele>291</ele>
        <time>2015-10-18T07:26:42.326Z</time>
      </trkpt>
      <trkpt lat="45.61939" lon="4.73112">
        <ele>291</ele>
        <time>2015-10-18T07:26:43.305Z</time>
      </trkpt>
      <trkpt lat="45.61941" lon="4.73105">
        <ele>291</ele>
        <time>2015-10-18T07:26:44.354Z</time>
      </trkpt>
      <trkpt lat="45.61943" lon="4.73099">
        <ele>291</ele>
        <time>2015-10-18T07:26:45.310Z</time>
      </trkpt>
      <trkpt lat="45.61946" lon="4.7309">
        <ele>291</ele>
        <time>2015-10-18T07:26:47.409Z</time>
      </trkpt>
      <trkpt lat="45.61948" lon="4.73086">
        <ele>291</ele>
        <time>2015-10-18T07:26:48.320Z</time>
      </trkpt>
      <trkpt lat="45.61956" lon="4.73084">
        <ele>291</ele>
        <time>2015-10-18T07:26:50.342Z</time>
      </trkpt>
      <trkpt lat="45.6196" lon="4.73084">
        <ele>290</ele>
        <time>2015-10-18T07:26:51.307Z</time>
      </trkpt>
      <trkpt lat="45.61965" lon="4.73084">
        <ele>290</ele>
        <time>2015-10-18T07:26:52.350Z</time>
      </trkpt>
      <trkpt lat="45.61971" lon="4.73084">
        <ele>290</ele>
        <time>2015-10-18T07:26:53.313Z</time>
      </trkpt>
      <trkpt lat="45.61976" lon="4.73082">
        <ele>289</ele>
        <time>2015-10-18T07:26:54.353Z</time>
      </trkpt>
      <trkpt lat="45.61982" lon="4.73082">
        <ele>289</ele>
        <time>2015-10-18T07:26:55.313Z</time>
      </trkpt>
      <trkpt lat="45.61986" lon="4.73077">
        <ele>289</ele>
        <time>2015-10-18T07:26:56.347Z</time>
      </trkpt>
      <trkpt lat="45.6199" lon="4.73075">
        <ele>289</ele>
        <time>2015-10-18T07:26:57.313Z</time>
      </trkpt>
      <trkpt lat="45.61994" lon="4.73071">
        <ele>289</ele>
        <time>2015-10-18T07:26:58.336Z</time>
      </trkpt>
      <trkpt lat="45.61999" lon="4.73069">
        <ele>289</ele>
        <time>2015-10-18T07:26:59.321Z</time>
      </trkpt>
      <trkpt lat="45.62002" lon="4.73064">
        <ele>289</ele>
        <time>2015-10-18T07:27:00.349Z</time>
      </trkpt>
      <trkpt lat="45.62006" lon="4.73058">
        <ele>289</ele>
        <time>2015-10-18T07:27:01.310Z</time>
      </trkpt>
      <trkpt lat="45.62012" lon="4.73054">
        <ele>289</ele>
        <time>2015-10-18T07:27:02.349Z</time>
      </trkpt>
      <trkpt lat="45.62016" lon="4.73049">
        <ele>289</ele>
        <time>2015-10-18T07:27:03.339Z</time>
      </trkpt>
      <trkpt lat="45.62019" lon="4.73045">
        <ele>289</ele>
        <time>2015-10-18T07:27:04.334Z</time>
      </trkpt>
      <trkpt lat="45.62023" lon="4.73041">
        <ele>289</ele>
        <time>2015-10-18T07:27:05.317Z</time>
      </trkpt>
      <trkpt lat="45.6203" lon="4.73032">
        <ele>290</ele>
        <time>2015-10-18T07:27:07.348Z</time>
      </trkpt>
      <trkpt lat="45.62034" lon="4.73028">
        <ele>290</ele>
        <time>2015-10-18T07:27:08.332Z</time>
      </trkpt>
      <trkpt lat="45.62039" lon="4.73024">
        <ele>290</ele>
        <time>2015-10-18T07:27:09.338Z</time>
      </trkpt>
      <trkpt lat="45.62044" lon="4.73019">
        <ele>290</ele>
        <time>2015-10-18T07:27:10.317Z</time>
      </trkpt>
      <trkpt lat="45.62048" lon="4.73015">
        <ele>290</ele>
        <time>2015-10-18T07:27:11.345Z</time>
      </trkpt>
      <trkpt lat="45.62051" lon="4.73011">
        <ele>290</ele>
        <time>2015-10-18T07:27:12.313Z</time>
      </trkpt>
      <trkpt lat="45.62056" lon="4.73004">
        <ele>291</ele>
        <time>2015-10-18T07:27:13.332Z</time>
      </trkpt>
      <trkpt lat="45.62059" lon="4.73002">
        <ele>291</ele>
        <time>2015-10-18T07:27:14.320Z</time>
      </trkpt>
      <trkpt lat="45.62063" lon="4.72998">
        <ele>292</ele>
        <time>2015-10-18T07:27:15.335Z</time>
      </trkpt>
      <trkpt lat="45.62066" lon="4.72994">
        <ele>292</ele>
        <time>2015-10-18T07:27:16.317Z</time>
      </trkpt>
      <trkpt lat="45.62074" lon="4.72987">
        <ele>292</ele>
        <time>2015-10-18T07:27:18.340Z</time>
      </trkpt>
      <trkpt lat="45.62078" lon="4.72985">
        <ele>292</ele>
        <time>2015-10-18T07:27:19.313Z</time>
      </trkpt>
      <trkpt lat="45.62081" lon="4.72983">
        <ele>292</ele>
        <time>2015-10-18T07:27:20.348Z</time>
      </trkpt>
      <trkpt lat="45.62087" lon="4.72981">
        <ele>293</ele>
        <time>2015-10-18T07:27:21.320Z</time>
      </trkpt>
      <trkpt lat="45.62095" lon="4.72979">
        <ele>293</ele>
        <time>2015-10-18T07:27:23.339Z</time>
      </trkpt>
      <trkpt lat="45.621" lon="4.72976">
        <ele>293</ele>
        <time>2015-10-18T07:27:24.316Z</time>
      </trkpt>
      <trkpt lat="45.62106" lon="4.7297">
        <ele>293</ele>
        <time>2015-10-18T07:27:26.349Z</time>
      </trkpt>
      <trkpt lat="45.62108" lon="4.72968">
        <ele>293</ele>
        <time>2015-10-18T07:27:27.310Z</time>
      </trkpt>
      <trkpt lat="45.62114" lon="4.72961">
        <ele>293</ele>
        <time>2015-10-18T07:27:29.341Z</time>
      </trkpt>
      <trkpt lat="45.62118" lon="4.72957">
        <ele>293</ele>
        <time>2015-10-18T07:27:30.310Z</time>
      </trkpt>
      <trkpt lat="45.62122" lon="4.72955">
        <ele>293</ele>
        <time>2015-10-18T07:27:31.343Z</time>
      </trkpt>
      <trkpt lat="45.62126" lon="4.72953">
        <ele>293</ele>
        <time>2015-10-18T07:27:32.313Z</time>
      </trkpt>
      <trkpt lat="45.62134" lon="4.72951">
        <ele>293</ele>
        <time>2015-10-18T07:27:34.344Z</time>
      </trkpt>
      <trkpt lat="45.62138" lon="4.72951">
        <ele>293</ele>
        <time>2015-10-18T07:27:35.308Z</time>
      </trkpt>
      <trkpt lat="45.62142" lon="4.72951">
        <ele>293</ele>
        <time>2015-10-18T07:27:36.361Z</time>
      </trkpt>
      <trkpt lat="45.62148" lon="4.72951">
        <ele>293</ele>
        <time>2015-10-18T07:27:37.319Z</time>
      </trkpt>
      <trkpt lat="45.62153" lon="4.72951">
        <ele>293</ele>
        <time>2015-10-18T07:27:38.346Z</time>
      </trkpt>
      <trkpt lat="45.62159" lon="4.72951">
        <ele>293</ele>
        <time>2015-10-18T07:27:39.312Z</time>
      </trkpt>
      <trkpt lat="45.62163" lon="4.72951">
        <ele>293</ele>
        <time>2015-10-18T07:27:40.339Z</time>
      </trkpt>
      <trkpt lat="45.62168" lon="4.72951">
        <ele>293</ele>
        <time>2015-10-18T07:27:41.309Z</time>
      </trkpt>
      <trkpt lat="45.62176" lon="4.72944">
        <ele>293</ele>
        <time>2015-10-18T07:27:43.343Z</time>
      </trkpt>
      <trkpt lat="45.62177" lon="4.72938">
        <ele>293</ele>
        <time>2015-10-18T07:27:44.294Z</time>
      </trkpt>
      <trkpt lat="45.62177" lon="4.72931">
        <ele>293</ele>
        <time>2015-10-18T07:27:45.341Z</time>
      </trkpt>
      <trkpt lat="45.62175" lon="4.72923">
        <ele>293</ele>
        <time>2015-10-18T07:27:46.298Z</time>
      </trkpt>
      <trkpt lat="45.62171" lon="4.72916">
        <ele>293</ele>
        <time>2015-10-18T07:27:47.341Z</time>
      </trkpt>
      <trkpt lat="45.62169" lon="4.7291">
        <ele>293</ele>
        <time>2015-10-18T07:27:48.302Z</time>
      </trkpt>
      <trkpt lat="45.62168" lon="4.72903">
        <ele>293</ele>
        <time>2015-10-18T07:27:49.333Z</time>
      </trkpt>
      <trkpt lat="45.62165" lon="4.72895">
        <ele>293</ele>
        <time>2015-10-18T07:27:50.304Z</time>
      </trkpt>
      <trkpt lat="45.62164" lon="4.72888">
        <ele>293</ele>
        <time>2015-10-18T07:27:51.342Z</time>
      </trkpt>
      <trkpt lat="45.62162" lon="4.7288">
        <ele>293</ele>
        <time>2015-10-18T07:27:52.299Z</time>
      </trkpt>
      <trkpt lat="45.62161" lon="4.72873">
        <ele>292</ele>
        <time>2015-10-18T07:27:53.338Z</time>
      </trkpt>
      <trkpt lat="45.62161" lon="4.72867">
        <ele>292</ele>
        <time>2015-10-18T07:27:54.298Z</time>
      </trkpt>
      <trkpt lat="45.62161" lon="4.72861">
        <ele>292</ele>
        <time>2015-10-18T07:27:55.343Z</time>
      </trkpt>
      <trkpt lat="45.6216" lon="4.72854">
        <ele>292</ele>
        <time>2015-10-18T07:27:56.299Z</time>
      </trkpt>
      <trkpt lat="45.6216" lon="4.72843">
        <ele>292</ele>
        <time>2015-10-18T07:27:58.342Z</time>
      </trkpt>
      <trkpt lat="45.62159" lon="4.72837">
        <ele>292</ele>
        <time>2015-10-18T07:27:59.300Z</time>
      </trkpt>
      <trkpt lat="45.62159" lon="4.72826">
        <ele>292</ele>
        <time>2015-10-18T07:28:01.330Z</time>
      </trkpt>
      <trkpt lat="45.62159" lon="4.7282">
        <ele>292</ele>
        <time>2015-10-18T07:28:02.314Z</time>
      </trkpt>
      <trkpt lat="45.62159" lon="4.72809">
        <ele>292</ele>
        <time>2015-10-18T07:28:04.350Z</time>
      </trkpt>
      <trkpt lat="45.62159" lon="4.728">
        <ele>292</ele>
        <time>2015-10-18T07:28:05.313Z</time>
      </trkpt>
      <trkpt lat="45.62159" lon="4.72792">
        <ele>292</ele>
        <time>2015-10-18T07:28:06.345Z</time>
      </trkpt>
      <trkpt lat="45.62158" lon="4.72785">
        <ele>292</ele>
        <time>2015-10-18T07:28:07.312Z</time>
      </trkpt>
      <trkpt lat="45.62158" lon="4.72779">
        <ele>292</ele>
        <time>2015-10-18T07:28:08.347Z</time>
      </trkpt>
      <trkpt lat="45.62158" lon="4.7277">
        <ele>292</ele>
        <time>2015-10-18T07:28:09.316Z</time>
      </trkpt>
      <trkpt lat="45.62158" lon="4.72764">
        <ele>292</ele>
        <time>2015-10-18T07:28:10.335Z</time>
      </trkpt>
      <trkpt lat="45.62158" lon="4.72758">
        <ele>292</ele>
        <time>2015-10-18T07:28:11.321Z</time>
      </trkpt>
      <trkpt lat="45.62158" lon="4.72745">
        <ele>292</ele>
        <time>2015-10-18T07:28:13.353Z</time>
      </trkpt>
      <trkpt lat="45.62156" lon="4.72738">
        <ele>292</ele>
        <time>2015-10-18T07:28:14.304Z</time>
      </trkpt>
      <trkpt lat="45.62156" lon="4.72725">
        <ele>292</ele>
        <time>2015-10-18T07:28:16.319Z</time>
      </trkpt>
      <trkpt lat="45.62158" lon="4.72721">
        <ele>292</ele>
        <time>2015-10-18T07:28:17.301Z</time>
      </trkpt>
      <trkpt lat="45.62164" lon="4.72715">
        <ele>292</ele>
        <time>2015-10-18T07:28:19.346Z</time>
      </trkpt>
      <trkpt lat="45.62167" lon="4.72713">
        <ele>293</ele>
        <time>2015-10-18T07:28:20.312Z</time>
      </trkpt>
      <trkpt lat="45.62175" lon="4.72708">
        <ele>293</ele>
        <time>2015-10-18T07:28:22.335Z</time>
      </trkpt>
      <trkpt lat="45.62178" lon="4.72706">
        <ele>293</ele>
        <time>2015-10-18T07:28:23.334Z</time>
      </trkpt>
      <trkpt lat="45.62183" lon="4.72697">
        <ele>293</ele>
        <time>2015-10-18T07:28:25.367Z</time>
      </trkpt>
      <trkpt lat="45.62185" lon="4.72693">
        <ele>293</ele>
        <time>2015-10-18T07:28:26.309Z</time>
      </trkpt>
      <trkpt lat="45.62189" lon="4.72689">
        <ele>293</ele>
        <time>2015-10-18T07:28:27.346Z</time>
      </trkpt>
      <trkpt lat="45.62192" lon="4.72682">
        <ele>293</ele>
        <time>2015-10-18T07:28:28.313Z</time>
      </trkpt>
      <trkpt lat="45.62197" lon="4.72674">
        <ele>293</ele>
        <time>2015-10-18T07:28:30.348Z</time>
      </trkpt>
      <trkpt lat="45.62201" lon="4.7267">
        <ele>293</ele>
        <time>2015-10-18T07:28:31.303Z</time>
      </trkpt>
      <trkpt lat="45.62206" lon="4.72665">
        <ele>293</ele>
        <time>2015-10-18T07:28:32.349Z</time>
      </trkpt>
      <trkpt lat="45.6221" lon="4.72661">
        <ele>293</ele>
        <time>2015-10-18T07:28:33.313Z</time>
      </trkpt>
      <trkpt lat="45.62214" lon="4.72659">
        <ele>293</ele>
        <time>2015-10-18T07:28:34.352Z</time>
      </trkpt>
      <trkpt lat="45.62219" lon="4.72655">
        <ele>293</ele>
        <time>2015-10-18T07:28:35.315Z</time>
      </trkpt>
      <trkpt lat="45.62226" lon="4.72648">
        <ele>293</ele>
        <time>2015-10-18T07:28:37.352Z</time>
      </trkpt>
      <trkpt lat="45.6223" lon="4.72646">
        <ele>293</ele>
        <time>2015-10-18T07:28:38.314Z</time>
      </trkpt>
      <trkpt lat="45.62237" lon="4.7264">
        <ele>293</ele>
        <time>2015-10-18T07:28:40.363Z</time>
      </trkpt>
      <trkpt lat="45.62241" lon="4.72637">
        <ele>293</ele>
        <time>2015-10-18T07:28:41.315Z</time>
      </trkpt>
      <trkpt lat="45.62245" lon="4.72635">
        <ele>293</ele>
        <time>2015-10-18T07:28:42.360Z</time>
      </trkpt>
      <trkpt lat="45.6225" lon="4.72633">
        <ele>293</ele>
        <time>2015-10-18T07:28:43.313Z</time>
      </trkpt>
      <trkpt lat="45.62257" lon="4.72627">
        <ele>293</ele>
        <time>2015-10-18T07:28:45.357Z</time>
      </trkpt>
      <trkpt lat="45.62262" lon="4.72622">
        <ele>293</ele>
        <time>2015-10-18T07:28:46.318Z</time>
      </trkpt>
      <trkpt lat="45.62266" lon="4.7262">
        <ele>293</ele>
        <time>2015-10-18T07:28:47.365Z</time>
      </trkpt>
      <trkpt lat="45.6227" lon="4.72618">
        <ele>293</ele>
        <time>2015-10-18T07:28:48.310Z</time>
      </trkpt>
      <trkpt lat="45.62274" lon="4.72614">
        <ele>293</ele>
        <time>2015-10-18T07:28:49.348Z</time>
      </trkpt>
      <trkpt lat="45.62279" lon="4.72612">
        <ele>293</ele>
        <time>2015-10-18T07:28:50.329Z</time>
      </trkpt>
      <trkpt lat="45.62283" lon="4.7261">
        <ele>293</ele>
        <time>2015-10-18T07:28:51.355Z</time>
      </trkpt>
      <trkpt lat="45.62287" lon="4.72607">
        <ele>293</ele>
        <time>2015-10-18T07:28:52.314Z</time>
      </trkpt>
      <trkpt lat="45.62292" lon="4.72603">
        <ele>293</ele>
        <time>2015-10-18T07:28:53.366Z</time>
      </trkpt>
      <trkpt lat="45.62296" lon="4.72601">
        <ele>293</ele>
        <time>2015-10-18T07:28:54.320Z</time>
      </trkpt>
      <trkpt lat="45.62303" lon="4.72594">
        <ele>293</ele>
        <time>2015-10-18T07:28:56.356Z</time>
      </trkpt>
      <trkpt lat="45.62308" lon="4.72592">
        <ele>292</ele>
        <time>2015-10-18T07:28:57.312Z</time>
      </trkpt>
      <trkpt lat="45.62311" lon="4.72588">
        <ele>292</ele>
        <time>2015-10-18T07:28:58.350Z</time>
      </trkpt>
      <trkpt lat="45.62315" lon="4.72584">
        <ele>292</ele>
        <time>2015-10-18T07:28:59.317Z</time>
      </trkpt>
      <trkpt lat="45.6232" lon="4.72582">
        <ele>292</ele>
        <time>2015-10-18T07:29:00.370Z</time>
      </trkpt>
      <trkpt lat="45.62324" lon="4.72579">
        <ele>292</ele>
        <time>2015-10-18T07:29:01.312Z</time>
      </trkpt>
      <trkpt lat="45.62328" lon="4.72575">
        <ele>292</ele>
        <time>2015-10-18T07:29:02.329Z</time>
      </trkpt>
      <trkpt lat="45.62332" lon="4.72573">
        <ele>292</ele>
        <time>2015-10-18T07:29:03.312Z</time>
      </trkpt>
      <trkpt lat="45.62338" lon="4.72567">
        <ele>293</ele>
        <time>2015-10-18T07:29:05.347Z</time>
      </trkpt>
      <trkpt lat="45.62341" lon="4.72564">
        <ele>293</ele>
        <time>2015-10-18T07:29:06.317Z</time>
      </trkpt>
      <trkpt lat="45.62348" lon="4.72558">
        <ele>293</ele>
        <time>2015-10-18T07:29:09.322Z</time>
      </trkpt>
      <trkpt lat="45.62353" lon="4.72556">
        <ele>293</ele>
        <time>2015-10-18T07:29:10.304Z</time>
      </trkpt>
      <trkpt lat="45.6236" lon="4.72549">
        <ele>293</ele>
        <time>2015-10-18T07:29:12.340Z</time>
      </trkpt>
      <trkpt lat="45.62365" lon="4.72545">
        <ele>293</ele>
        <time>2015-10-18T07:29:13.312Z</time>
      </trkpt>
      <trkpt lat="45.62372" lon="4.72539">
        <ele>294</ele>
        <time>2015-10-18T07:29:15.351Z</time>
      </trkpt>
      <trkpt lat="45.62375" lon="4.72537">
        <ele>294</ele>
        <time>2015-10-18T07:29:16.312Z</time>
      </trkpt>
      <trkpt lat="45.62382" lon="4.72528">
        <ele>294</ele>
        <time>2015-10-18T07:29:18.345Z</time>
      </trkpt>
      <trkpt lat="45.62385" lon="4.72524">
        <ele>294</ele>
        <time>2015-10-18T07:29:19.311Z</time>
      </trkpt>
      <trkpt lat="45.6239" lon="4.72517">
        <ele>294</ele>
        <time>2015-10-18T07:29:21.345Z</time>
      </trkpt>
      <trkpt lat="45.62394" lon="4.72513">
        <ele>295</ele>
        <time>2015-10-18T07:29:22.312Z</time>
      </trkpt>
      <trkpt lat="45.62399" lon="4.72507">
        <ele>295</ele>
        <time>2015-10-18T07:29:24.338Z</time>
      </trkpt>
      <trkpt lat="45.62402" lon="4.72504">
        <ele>295</ele>
        <time>2015-10-18T07:29:25.314Z</time>
      </trkpt>
      <trkpt lat="45.62409" lon="4.72498">
        <ele>297</ele>
        <time>2015-10-18T07:29:27.352Z</time>
      </trkpt>
      <trkpt lat="45.62412" lon="4.72496">
        <ele>297</ele>
        <time>2015-10-18T07:29:28.311Z</time>
      </trkpt>
      <trkpt lat="45.62416" lon="4.72494">
        <ele>297</ele>
        <time>2015-10-18T07:29:29.333Z</time>
      </trkpt>
      <trkpt lat="45.6242" lon="4.72492">
        <ele>297</ele>
        <time>2015-10-18T07:29:30.314Z</time>
      </trkpt>
      <trkpt lat="45.62428" lon="4.72485">
        <ele>297</ele>
        <time>2015-10-18T07:29:32.359Z</time>
      </trkpt>
      <trkpt lat="45.62431" lon="4.72483">
        <ele>297</ele>
        <time>2015-10-18T07:29:33.309Z</time>
      </trkpt>
      <trkpt lat="45.62434" lon="4.72481">
        <ele>297</ele>
        <time>2015-10-18T07:29:34.357Z</time>
      </trkpt>
      <trkpt lat="45.6244" lon="4.72476">
        <ele>298</ele>
        <time>2015-10-18T07:29:35.314Z</time>
      </trkpt>
      <trkpt lat="45.62446" lon="4.7247">
        <ele>298</ele>
        <time>2015-10-18T07:29:37.352Z</time>
      </trkpt>
      <trkpt lat="45.62449" lon="4.72464">
        <ele>298</ele>
        <time>2015-10-18T07:29:38.311Z</time>
      </trkpt>
      <trkpt lat="45.62456" lon="4.72455">
        <ele>298</ele>
        <time>2015-10-18T07:29:40.351Z</time>
      </trkpt>
      <trkpt lat="45.62458" lon="4.72451">
        <ele>298</ele>
        <time>2015-10-18T07:29:41.327Z</time>
      </trkpt>
      <trkpt lat="45.62463" lon="4.72442">
        <ele>298</ele>
        <time>2015-10-18T07:29:43.361Z</time>
      </trkpt>
      <trkpt lat="45.62468" lon="4.7244">
        <ele>298</ele>
        <time>2015-10-18T07:29:44.341Z</time>
      </trkpt>
      <trkpt lat="45.62474" lon="4.72434">
        <ele>298</ele>
        <time>2015-10-18T07:29:46.352Z</time>
      </trkpt>
      <trkpt lat="45.62478" lon="4.72429">
        <ele>298</ele>
        <time>2015-10-18T07:29:47.305Z</time>
      </trkpt>
      <trkpt lat="45.62485" lon="4.72421">
        <ele>298</ele>
        <time>2015-10-18T07:29:49.332Z</time>
      </trkpt>
      <trkpt lat="45.62489" lon="4.72419">
        <ele>299</ele>
        <time>2015-10-18T07:29:50.320Z</time>
      </trkpt>
      <trkpt lat="45.62494" lon="4.72412">
        <ele>299</ele>
        <time>2015-10-18T07:29:52.368Z</time>
      </trkpt>
      <trkpt lat="45.62498" lon="4.72408">
        <ele>299</ele>
        <time>2015-10-18T07:29:53.317Z</time>
      </trkpt>
      <trkpt lat="45.62504" lon="4.72399">
        <ele>300</ele>
        <time>2015-10-18T07:29:55.335Z</time>
      </trkpt>
      <trkpt lat="45.62505" lon="4.72397">
        <ele>300</ele>
        <time>2015-10-18T07:29:56.312Z</time>
      </trkpt>
      <trkpt lat="45.62508" lon="4.72386">
        <ele>300</ele>
        <time>2015-10-18T07:29:58.338Z</time>
      </trkpt>
      <trkpt lat="45.62509" lon="4.72382">
        <ele>300</ele>
        <time>2015-10-18T07:29:59.305Z</time>
      </trkpt>
      <trkpt lat="45.62508" lon="4.72373">
        <ele>300</ele>
        <time>2015-10-18T07:30:00.341Z</time>
      </trkpt>
      <trkpt lat="45.62508" lon="4.72369">
        <ele>300</ele>
        <time>2015-10-18T07:30:01.302Z</time>
      </trkpt>
      <trkpt lat="45.62505" lon="4.72358">
        <ele>300</ele>
        <time>2015-10-18T07:30:03.354Z</time>
      </trkpt>
      <trkpt lat="45.62502" lon="4.72356">
        <ele>300</ele>
        <time>2015-10-18T07:30:04.299Z</time>
      </trkpt>
      <trkpt lat="45.62498" lon="4.72346">
        <ele>300</ele>
        <time>2015-10-18T07:30:06.340Z</time>
      </trkpt>
      <trkpt lat="45.62497" lon="4.72339">
        <ele>300</ele>
        <time>2015-10-18T07:30:07.299Z</time>
      </trkpt>
      <trkpt lat="45.62492" lon="4.72328">
        <ele>301</ele>
        <time>2015-10-18T07:30:09.340Z</time>
      </trkpt>
      <trkpt lat="45.62491" lon="4.72324">
        <ele>301</ele>
        <time>2015-10-18T07:30:10.297Z</time>
      </trkpt>
      <trkpt lat="45.6249" lon="4.72313">
        <ele>301</ele>
        <time>2015-10-18T07:30:12.340Z</time>
      </trkpt>
      <trkpt lat="45.62489" lon="4.72309">
        <ele>301</ele>
        <time>2015-10-18T07:30:13.309Z</time>
      </trkpt>
      <trkpt lat="45.62488" lon="4.72303">
        <ele>301</ele>
        <time>2015-10-18T07:30:14.356Z</time>
      </trkpt>
      <trkpt lat="45.62488" lon="4.72296">
        <ele>301</ele>
        <time>2015-10-18T07:30:15.316Z</time>
      </trkpt>
      <trkpt lat="45.62487" lon="4.72286">
        <ele>301</ele>
        <time>2015-10-18T07:30:17.349Z</time>
      </trkpt>
      <trkpt lat="45.62487" lon="4.72281">
        <ele>301</ele>
        <time>2015-10-18T07:30:18.313Z</time>
      </trkpt>
      <trkpt lat="45.62486" lon="4.7227">
        <ele>302</ele>
        <time>2015-10-18T07:30:20.358Z</time>
      </trkpt>
      <trkpt lat="45.62486" lon="4.72266">
        <ele>302</ele>
        <time>2015-10-18T07:30:21.310Z</time>
      </trkpt>
      <trkpt lat="45.62488" lon="4.72258">
        <ele>302</ele>
        <time>2015-10-18T07:30:23.367Z</time>
      </trkpt>
      <trkpt lat="45.62489" lon="4.72249">
        <ele>304</ele>
        <time>2015-10-18T07:30:24.311Z</time>
      </trkpt>
      <trkpt lat="45.6249" lon="4.72238">
        <ele>304</ele>
        <time>2015-10-18T07:30:26.341Z</time>
      </trkpt>
      <trkpt lat="45.62492" lon="4.72234">
        <ele>303</ele>
        <time>2015-10-18T07:30:27.302Z</time>
      </trkpt>
      <trkpt lat="45.62493" lon="4.72225">
        <ele>303</ele>
        <time>2015-10-18T07:30:29.367Z</time>
      </trkpt>
      <trkpt lat="45.62494" lon="4.72221">
        <ele>303</ele>
        <time>2015-10-18T07:30:30.320Z</time>
      </trkpt>
      <trkpt lat="45.62497" lon="4.7221">
        <ele>304</ele>
        <time>2015-10-18T07:30:32.338Z</time>
      </trkpt>
      <trkpt lat="45.62498" lon="4.72206">
        <ele>304</ele>
        <time>2015-10-18T07:30:33.309Z</time>
      </trkpt>
      <trkpt lat="45.62501" lon="4.72195">
        <ele>306</ele>
        <time>2015-10-18T07:30:36.345Z</time>
      </trkpt>
      <trkpt lat="45.62503" lon="4.72191">
        <ele>306</ele>
        <time>2015-10-18T07:30:37.306Z</time>
      </trkpt>
      <trkpt lat="45.62501" lon="4.7218">
        <ele>306</ele>
        <time>2015-10-18T07:30:41.349Z</time>
      </trkpt>
      <trkpt lat="45.62498" lon="4.72178">
        <ele>304</ele>
        <time>2015-10-18T07:30:42.326Z</time>
      </trkpt>
      <trkpt lat="45.62489" lon="4.72176">
        <ele>304</ele>
        <time>2015-10-18T07:30:44.348Z</time>
      </trkpt>
      <trkpt lat="45.62485" lon="4.72176">
        <ele>304</ele>
        <time>2015-10-18T07:30:45.328Z</time>
      </trkpt>
      <trkpt lat="45.62476" lon="4.72174">
        <ele>304</ele>
        <time>2015-10-18T07:30:47.360Z</time>
      </trkpt>
      <trkpt lat="45.62471" lon="4.72172">
        <ele>304</ele>
        <time>2015-10-18T07:30:48.306Z</time>
      </trkpt>
      <trkpt lat="45.62464" lon="4.72172">
        <ele>303</ele>
        <time>2015-10-18T07:30:49.346Z</time>
      </trkpt>
      <trkpt lat="45.62459" lon="4.72172">
        <ele>303</ele>
        <time>2015-10-18T07:30:50.307Z</time>
      </trkpt>
      <trkpt lat="45.62454" lon="4.72172">
        <ele>303</ele>
        <time>2015-10-18T07:30:51.346Z</time>
      </trkpt>
      <trkpt lat="45.62447" lon="4.72172">
        <ele>303</ele>
        <time>2015-10-18T07:30:52.318Z</time>
      </trkpt>
      <trkpt lat="45.62442" lon="4.72172">
        <ele>303</ele>
        <time>2015-10-18T07:30:53.338Z</time>
      </trkpt>
      <trkpt lat="45.62436" lon="4.72172">
        <ele>303</ele>
        <time>2015-10-18T07:30:54.312Z</time>
      </trkpt>
      <trkpt lat="45.6243" lon="4.7217">
        <ele>303</ele>
        <time>2015-10-18T07:30:55.342Z</time>
      </trkpt>
      <trkpt lat="45.62425" lon="4.72167">
        <ele>303</ele>
        <time>2015-10-18T07:30:56.315Z</time>
      </trkpt>
      <trkpt lat="45.62419" lon="4.72165">
        <ele>303</ele>
        <time>2015-10-18T07:30:57.364Z</time>
      </trkpt>
      <trkpt lat="45.62414" lon="4.72163">
        <ele>303</ele>
        <time>2015-10-18T07:30:58.305Z</time>
      </trkpt>
      <trkpt lat="45.6241" lon="4.72161">
        <ele>303</ele>
        <time>2015-10-18T07:30:59.348Z</time>
      </trkpt>
      <trkpt lat="45.62404" lon="4.72159">
        <ele>303</ele>
        <time>2015-10-18T07:31:00.318Z</time>
      </trkpt>
      <trkpt lat="45.624" lon="4.72155">
        <ele>303</ele>
        <time>2015-10-18T07:31:01.345Z</time>
      </trkpt>
      <trkpt lat="45.62396" lon="4.72152">
        <ele>303</ele>
        <time>2015-10-18T07:31:02.313Z</time>
      </trkpt>
      <trkpt lat="45.62391" lon="4.7215">
        <ele>302</ele>
        <time>2015-10-18T07:31:03.348Z</time>
      </trkpt>
      <trkpt lat="45.62386" lon="4.72148">
        <ele>302</ele>
        <time>2015-10-18T07:31:04.310Z</time>
      </trkpt>
      <trkpt lat="45.62379" lon="4.72144">
        <ele>302</ele>
        <time>2015-10-18T07:31:06.352Z</time>
      </trkpt>
      <trkpt lat="45.62374" lon="4.7214">
        <ele>302</ele>
        <time>2015-10-18T07:31:07.312Z</time>
      </trkpt>
      <trkpt lat="45.62369" lon="4.72137">
        <ele>302</ele>
        <time>2015-10-18T07:31:08.360Z</time>
      </trkpt>
      <trkpt lat="45.62364" lon="4.72133">
        <ele>302</ele>
        <time>2015-10-18T07:31:09.315Z</time>
      </trkpt>
      <trkpt lat="45.62358" lon="4.72131">
        <ele>302</ele>
        <time>2015-10-18T07:31:10.349Z</time>
      </trkpt>
      <trkpt lat="45.62354" lon="4.72129">
        <ele>302</ele>
        <time>2015-10-18T07:31:11.314Z</time>
      </trkpt>
      <trkpt lat="45.6235" lon="4.72125">
        <ele>302</ele>
        <time>2015-10-18T07:31:12.349Z</time>
      </trkpt>
      <trkpt lat="45.62345" lon="4.72122">
        <ele>302</ele>
        <time>2015-10-18T07:31:13.311Z</time>
      </trkpt>
      <trkpt lat="45.62338" lon="4.72118">
        <ele>302</ele>
        <time>2015-10-18T07:31:15.347Z</time>
      </trkpt>
      <trkpt lat="45.62333" lon="4.72116">
        <ele>302</ele>
        <time>2015-10-18T07:31:16.310Z</time>
      </trkpt>
      <trkpt lat="45.62326" lon="4.72112">
        <ele>301</ele>
        <time>2015-10-18T07:31:18.350Z</time>
      </trkpt>
      <trkpt lat="45.62323" lon="4.7211">
        <ele>301</ele>
        <time>2015-10-18T07:31:19.309Z</time>
      </trkpt>
      <trkpt lat="45.62314" lon="4.72107">
        <ele>301</ele>
        <time>2015-10-18T07:31:22.346Z</time>
      </trkpt>
      <trkpt lat="45.62311" lon="4.72107">
        <ele>301</ele>
        <time>2015-10-18T07:31:23.331Z</time>
      </trkpt>
      <trkpt lat="45.62302" lon="4.72107">
        <ele>301</ele>
        <time>2015-10-18T07:31:25.342Z</time>
      </trkpt>
      <trkpt lat="45.62298" lon="4.72107">
        <ele>301</ele>
        <time>2015-10-18T07:31:26.312Z</time>
      </trkpt>
      <trkpt lat="45.62289" lon="4.7211">
        <ele>301</ele>
        <time>2015-10-18T07:31:28.343Z</time>
      </trkpt>
      <trkpt lat="45.62286" lon="4.7211">
        <ele>301</ele>
        <time>2015-10-18T07:31:29.318Z</time>
      </trkpt>
      <trkpt lat="45.6228" lon="4.72112">
        <ele>301</ele>
        <time>2015-10-18T07:31:31.352Z</time>
      </trkpt>
      <trkpt lat="45.62277" lon="4.72112">
        <ele>301</ele>
        <time>2015-10-18T07:31:32.307Z</time>
      </trkpt>
      <trkpt lat="45.62269" lon="4.72114">
        <ele>301</ele>
        <time>2015-10-18T07:31:34.349Z</time>
      </trkpt>
      <trkpt lat="45.62264" lon="4.72114">
        <ele>301</ele>
        <time>2015-10-18T07:31:35.310Z</time>
      </trkpt>
      <trkpt lat="45.62256" lon="4.72116">
        <ele>301</ele>
        <time>2015-10-18T07:31:37.347Z</time>
      </trkpt>
      <trkpt lat="45.62252" lon="4.72116">
        <ele>301</ele>
        <time>2015-10-18T07:31:38.306Z</time>
      </trkpt>
      <trkpt lat="45.62244" lon="4.72118">
        <ele>300</ele>
        <time>2015-10-18T07:31:40.341Z</time>
      </trkpt>
      <trkpt lat="45.62241" lon="4.7212">
        <ele>300</ele>
        <time>2015-10-18T07:31:41.306Z</time>
      </trkpt>
      <trkpt lat="45.62234" lon="4.72122">
        <ele>300</ele>
        <time>2015-10-18T07:31:43.337Z</time>
      </trkpt>
      <trkpt lat="45.62229" lon="4.72122">
        <ele>300</ele>
        <time>2015-10-18T07:31:44.308Z</time>
      </trkpt>
      <trkpt lat="45.62223" lon="4.72122">
        <ele>300</ele>
        <time>2015-10-18T07:31:46.349Z</time>
      </trkpt>
      <trkpt lat="45.62217" lon="4.72125">
        <ele>300</ele>
        <time>2015-10-18T07:31:47.310Z</time>
      </trkpt>
      <trkpt lat="45.62208" lon="4.72127">
        <ele>300</ele>
        <time>2015-10-18T07:31:49.360Z</time>
      </trkpt>
      <trkpt lat="45.62205" lon="4.72131">
        <ele>300</ele>
        <time>2015-10-18T07:31:50.323Z</time>
      </trkpt>
      <trkpt lat="45.622" lon="4.72133">
        <ele>300</ele>
        <time>2015-10-18T07:31:51.347Z</time>
      </trkpt>
      <trkpt lat="45.62196" lon="4.72135">
        <ele>300</ele>
        <time>2015-10-18T07:31:52.293Z</time>
      </trkpt>
      <trkpt lat="45.62192" lon="4.72137">
        <ele>300</ele>
        <time>2015-10-18T07:31:53.349Z</time>
      </trkpt>
      <trkpt lat="45.62188" lon="4.7214">
        <ele>300</ele>
        <time>2015-10-18T07:31:54.290Z</time>
      </trkpt>
      <trkpt lat="45.6218" lon="4.72146">
        <ele>299</ele>
        <time>2015-10-18T07:31:56.346Z</time>
      </trkpt>
      <trkpt lat="45.62176" lon="4.72148">
        <ele>299</ele>
        <time>2015-10-18T07:31:57.318Z</time>
      </trkpt>
      <trkpt lat="45.62168" lon="4.72155">
        <ele>299</ele>
        <time>2015-10-18T07:31:59.352Z</time>
      </trkpt>
      <trkpt lat="45.62164" lon="4.72159">
        <ele>299</ele>
        <time>2015-10-18T07:32:00.309Z</time>
      </trkpt>
      <trkpt lat="45.62156" lon="4.72165">
        <ele>299</ele>
        <time>2015-10-18T07:32:02.333Z</time>
      </trkpt>
      <trkpt lat="45.62152" lon="4.72167">
        <ele>298</ele>
        <time>2015-10-18T07:32:03.304Z</time>
      </trkpt>
      <trkpt lat="45.62147" lon="4.7217">
        <ele>298</ele>
        <time>2015-10-18T07:32:04.333Z</time>
      </trkpt>
      <trkpt lat="45.62144" lon="4.72174">
        <ele>298</ele>
        <time>2015-10-18T07:32:05.309Z</time>
      </trkpt>
      <trkpt lat="45.62138" lon="4.72176">
        <ele>298</ele>
        <time>2015-10-18T07:32:06.321Z</time>
      </trkpt>
      <trkpt lat="45.62135" lon="4.72178">
        <ele>298</ele>
        <time>2015-10-18T07:32:07.301Z</time>
      </trkpt>
      <trkpt lat="45.62131" lon="4.7218">
        <ele>298</ele>
        <time>2015-10-18T07:32:08.336Z</time>
      </trkpt>
      <trkpt lat="45.62125" lon="4.72183">
        <ele>298</ele>
        <time>2015-10-18T07:32:09.310Z</time>
      </trkpt>
      <trkpt lat="45.62121" lon="4.72185">
        <ele>298</ele>
        <time>2015-10-18T07:32:10.326Z</time>
      </trkpt>
      <trkpt lat="45.62117" lon="4.72189">
        <ele>298</ele>
        <time>2015-10-18T07:32:11.291Z</time>
      </trkpt>
      <trkpt lat="45.62112" lon="4.72191">
        <ele>298</ele>
        <time>2015-10-18T07:32:12.323Z</time>
      </trkpt>
      <trkpt lat="45.62107" lon="4.72193">
        <ele>298</ele>
        <time>2015-10-18T07:32:13.303Z</time>
      </trkpt>
      <trkpt lat="45.62102" lon="4.72195">
        <ele>298</ele>
        <time>2015-10-18T07:32:14.341Z</time>
      </trkpt>
      <trkpt lat="45.62096" lon="4.72195">
        <ele>298</ele>
        <time>2015-10-18T07:32:15.303Z</time>
      </trkpt>
      <trkpt lat="45.62091" lon="4.72198">
        <ele>298</ele>
        <time>2015-10-18T07:32:16.344Z</time>
      </trkpt>
      <trkpt lat="45.62087" lon="4.72198">
        <ele>298</ele>
        <time>2015-10-18T07:32:17.300Z</time>
      </trkpt>
      <trkpt lat="45.62082" lon="4.722">
        <ele>299</ele>
        <time>2015-10-18T07:32:18.338Z</time>
      </trkpt>
      <trkpt lat="45.62078" lon="4.72204">
        <ele>298</ele>
        <time>2015-10-18T07:32:19.291Z</time>
      </trkpt>
      <trkpt lat="45.62073" lon="4.72206">
        <ele>298</ele>
        <time>2015-10-18T07:32:20.321Z</time>
      </trkpt>
      <trkpt lat="45.62068" lon="4.72208">
        <ele>298</ele>
        <time>2015-10-18T07:32:21.316Z</time>
      </trkpt>
      <trkpt lat="45.62063" lon="4.72213">
        <ele>298</ele>
        <time>2015-10-18T07:32:22.350Z</time>
      </trkpt>
      <trkpt lat="45.62059" lon="4.72215">
        <ele>298</ele>
        <time>2015-10-18T07:32:23.323Z</time>
      </trkpt>
      <trkpt lat="45.62053" lon="4.72217">
        <ele>297</ele>
        <time>2015-10-18T07:32:24.349Z</time>
      </trkpt>
      <trkpt lat="45.62049" lon="4.72219">
        <ele>297</ele>
        <time>2015-10-18T07:32:25.341Z</time>
      </trkpt>
      <trkpt lat="45.62045" lon="4.72221">
        <ele>297</ele>
        <time>2015-10-18T07:32:26.346Z</time>
      </trkpt>
      <trkpt lat="45.62039" lon="4.72225">
        <ele>297</ele>
        <time>2015-10-18T07:32:27.311Z</time>
      </trkpt>
      <trkpt lat="45.62035" lon="4.72228">
        <ele>297</ele>
        <time>2015-10-18T07:32:28.349Z</time>
      </trkpt>
      <trkpt lat="45.62031" lon="4.7223">
        <ele>297</ele>
        <time>2015-10-18T07:32:29.317Z</time>
      </trkpt>
      <trkpt lat="45.62027" lon="4.72234">
        <ele>297</ele>
        <time>2015-10-18T07:32:30.340Z</time>
      </trkpt>
      <trkpt lat="45.62022" lon="4.72236">
        <ele>297</ele>
        <time>2015-10-18T07:32:31.299Z</time>
      </trkpt>
      <trkpt lat="45.62018" lon="4.72238">
        <ele>297</ele>
        <time>2015-10-18T07:32:32.331Z</time>
      </trkpt>
      <trkpt lat="45.62014" lon="4.7224">
        <ele>296</ele>
        <time>2015-10-18T07:32:33.295Z</time>
      </trkpt>
      <trkpt lat="45.62007" lon="4.72243">
        <ele>296</ele>
        <time>2015-10-18T07:32:34.334Z</time>
      </trkpt>
      <trkpt lat="45.62002" lon="4.72243">
        <ele>296</ele>
        <time>2015-10-18T07:32:35.299Z</time>
      </trkpt>
      <trkpt lat="45.61997" lon="4.72245">
        <ele>296</ele>
        <time>2015-10-18T07:32:36.340Z</time>
      </trkpt>
      <trkpt lat="45.61991" lon="4.72245">
        <ele>296</ele>
        <time>2015-10-18T07:32:37.292Z</time>
      </trkpt>
      <trkpt lat="45.61983" lon="4.72247">
        <ele>297</ele>
        <time>2015-10-18T07:32:39.329Z</time>
      </trkpt>
      <trkpt lat="45.61977" lon="4.72249">
        <ele>297</ele>
        <time>2015-10-18T07:32:40.302Z</time>
      </trkpt>
      <trkpt lat="45.6197" lon="4.72255">
        <ele>294</ele>
        <time>2015-10-18T07:32:42.338Z</time>
      </trkpt>
      <trkpt lat="45.61965" lon="4.7226">
        <ele>294</ele>
        <time>2015-10-18T07:32:43.314Z</time>
      </trkpt>
      <trkpt lat="45.61961" lon="4.72262">
        <ele>294</ele>
        <time>2015-10-18T07:32:44.319Z</time>
      </trkpt>
      <trkpt lat="45.61956" lon="4.72264">
        <ele>294</ele>
        <time>2015-10-18T07:32:45.303Z</time>
      </trkpt>
      <trkpt lat="45.6195" lon="4.72264">
        <ele>294</ele>
        <time>2015-10-18T07:32:46.342Z</time>
      </trkpt>
      <trkpt lat="45.61946" lon="4.72268">
        <ele>294</ele>
        <time>2015-10-18T07:32:47.336Z</time>
      </trkpt>
      <trkpt lat="45.61942" lon="4.7227">
        <ele>294</ele>
        <time>2015-10-18T07:32:48.336Z</time>
      </trkpt>
      <trkpt lat="45.61938" lon="4.72273">
        <ele>294</ele>
        <time>2015-10-18T07:32:49.296Z</time>
      </trkpt>
      <trkpt lat="45.61931" lon="4.72275">
        <ele>294</ele>
        <time>2015-10-18T07:32:50.330Z</time>
      </trkpt>
      <trkpt lat="45.61927" lon="4.72277">
        <ele>294</ele>
        <time>2015-10-18T07:32:51.302Z</time>
      </trkpt>
      <trkpt lat="45.61923" lon="4.72277">
        <ele>294</ele>
        <time>2015-10-18T07:32:52.332Z</time>
      </trkpt>
      <trkpt lat="45.61917" lon="4.72279">
        <ele>294</ele>
        <time>2015-10-18T07:32:53.294Z</time>
      </trkpt>
      <trkpt lat="45.61913" lon="4.72281">
        <ele>294</ele>
        <time>2015-10-18T07:32:54.343Z</time>
      </trkpt>
      <trkpt lat="45.61908" lon="4.72281">
        <ele>294</ele>
        <time>2015-10-18T07:32:55.302Z</time>
      </trkpt>
      <trkpt lat="45.61903" lon="4.72283">
        <ele>294</ele>
        <time>2015-10-18T07:32:56.333Z</time>
      </trkpt>
      <trkpt lat="45.61899" lon="4.72286">
        <ele>294</ele>
        <time>2015-10-18T07:32:57.318Z</time>
      </trkpt>
      <trkpt lat="45.61894" lon="4.72288">
        <ele>294</ele>
        <time>2015-10-18T07:32:58.342Z</time>
      </trkpt>
      <trkpt lat="45.61889" lon="4.7229">
        <ele>294</ele>
        <time>2015-10-18T07:32:59.296Z</time>
      </trkpt>
      <trkpt lat="45.61884" lon="4.72292">
        <ele>294</ele>
        <time>2015-10-18T07:33:00.338Z</time>
      </trkpt>
      <trkpt lat="45.6188" lon="4.72294">
        <ele>294</ele>
        <time>2015-10-18T07:33:01.313Z</time>
      </trkpt>
      <trkpt lat="45.61872" lon="4.72298">
        <ele>294</ele>
        <time>2015-10-18T07:33:03.342Z</time>
      </trkpt>
      <trkpt lat="45.61868" lon="4.72301">
        <ele>294</ele>
        <time>2015-10-18T07:33:04.299Z</time>
      </trkpt>
      <trkpt lat="45.6186" lon="4.72303">
        <ele>294</ele>
        <time>2015-10-18T07:33:06.326Z</time>
      </trkpt>
      <trkpt lat="45.61856" lon="4.72303">
        <ele>294</ele>
        <time>2015-10-18T07:33:07.300Z</time>
      </trkpt>
      <trkpt lat="45.61851" lon="4.72303">
        <ele>294</ele>
        <time>2015-10-18T07:33:08.338Z</time>
      </trkpt>
      <trkpt lat="45.61846" lon="4.72305">
        <ele>294</ele>
        <time>2015-10-18T07:33:09.340Z</time>
      </trkpt>
      <trkpt lat="45.61839" lon="4.72305">
        <ele>294</ele>
        <time>2015-10-18T07:33:11.340Z</time>
      </trkpt>
      <trkpt lat="45.61835" lon="4.72305">
        <ele>294</ele>
        <time>2015-10-18T07:33:12.315Z</time>
      </trkpt>
      <trkpt lat="45.61827" lon="4.72305">
        <ele>295</ele>
        <time>2015-10-18T07:33:14.343Z</time>
      </trkpt>
      <trkpt lat="45.61824" lon="4.72305">
        <ele>295</ele>
        <time>2015-10-18T07:33:15.309Z</time>
      </trkpt>
      <trkpt lat="45.61815" lon="4.72305">
        <ele>295</ele>
        <time>2015-10-18T07:33:17.342Z</time>
      </trkpt>
      <trkpt lat="45.61811" lon="4.72305">
        <ele>295</ele>
        <time>2015-10-18T07:33:18.315Z</time>
      </trkpt>
      <trkpt lat="45.61805" lon="4.72305">
        <ele>295</ele>
        <time>2015-10-18T07:33:19.348Z</time>
      </trkpt>
      <trkpt lat="45.618" lon="4.72305">
        <ele>295</ele>
        <time>2015-10-18T07:33:20.313Z</time>
      </trkpt>
      <trkpt lat="45.61792" lon="4.72307">
        <ele>295</ele>
        <time>2015-10-18T07:33:22.355Z</time>
      </trkpt>
      <trkpt lat="45.61787" lon="4.72307">
        <ele>295</ele>
        <time>2015-10-18T07:33:23.321Z</time>
      </trkpt>
      <trkpt lat="45.61783" lon="4.72307">
        <ele>295</ele>
        <time>2015-10-18T07:33:24.350Z</time>
      </trkpt>
      <trkpt lat="45.61778" lon="4.72307">
        <ele>295</ele>
        <time>2015-10-18T07:33:25.318Z</time>
      </trkpt>
      <trkpt lat="45.61773" lon="4.72305">
        <ele>295</ele>
        <time>2015-10-18T07:33:26.353Z</time>
      </trkpt>
      <trkpt lat="45.61768" lon="4.72307">
        <ele>295</ele>
        <time>2015-10-18T07:33:27.299Z</time>
      </trkpt>
      <trkpt lat="45.61759" lon="4.72309">
        <ele>295</ele>
        <time>2015-10-18T07:33:29.333Z</time>
      </trkpt>
      <trkpt lat="45.61756" lon="4.72311">
        <ele>295</ele>
        <time>2015-10-18T07:33:30.316Z</time>
      </trkpt>
      <trkpt lat="45.61757" lon="4.72322">
        <ele>295</ele>
        <time>2015-10-18T07:33:32.359Z</time>
      </trkpt>
      <trkpt lat="45.61759" lon="4.72328">
        <ele>294</ele>
        <time>2015-10-18T07:33:33.309Z</time>
      </trkpt>
      <trkpt lat="45.61762" lon="4.72335">
        <ele>293</ele>
        <time>2015-10-18T07:33:34.342Z</time>
      </trkpt>
      <trkpt lat="45.61765" lon="4.72341">
        <ele>293</ele>
        <time>2015-10-18T07:33:35.309Z</time>
      </trkpt>
      <trkpt lat="45.61765" lon="4.72348">
        <ele>293</ele>
        <time>2015-10-18T07:33:36.357Z</time>
      </trkpt>
      <trkpt lat="45.61766" lon="4.72356">
        <ele>293</ele>
        <time>2015-10-18T07:33:37.313Z</time>
      </trkpt>
      <trkpt lat="45.61766" lon="4.72363">
        <ele>292</ele>
        <time>2015-10-18T07:33:38.356Z</time>
      </trkpt>
      <trkpt lat="45.61765" lon="4.72371">
        <ele>292</ele>
        <time>2015-10-18T07:33:39.312Z</time>
      </trkpt>
      <trkpt lat="45.61765" lon="4.7238">
        <ele>292</ele>
        <time>2015-10-18T07:33:40.344Z</time>
      </trkpt>
      <trkpt lat="45.61764" lon="4.72389">
        <ele>292</ele>
        <time>2015-10-18T07:33:41.310Z</time>
      </trkpt>
      <trkpt lat="45.61764" lon="4.72399">
        <ele>292</ele>
        <time>2015-10-18T07:33:42.352Z</time>
      </trkpt>
      <trkpt lat="45.61765" lon="4.72408">
        <ele>291</ele>
        <time>2015-10-18T07:33:43.316Z</time>
      </trkpt>
      <trkpt lat="45.61765" lon="4.72419">
        <ele>290</ele>
        <time>2015-10-18T07:33:44.346Z</time>
      </trkpt>
      <trkpt lat="45.61764" lon="4.72427">
        <ele>290</ele>
        <time>2015-10-18T07:33:45.317Z</time>
      </trkpt>
      <trkpt lat="45.61762" lon="4.72436">
        <ele>290</ele>
        <time>2015-10-18T07:33:46.334Z</time>
      </trkpt>
      <trkpt lat="45.61759" lon="4.72444">
        <ele>290</ele>
        <time>2015-10-18T07:33:47.321Z</time>
      </trkpt>
      <trkpt lat="45.61758" lon="4.72453">
        <ele>289</ele>
        <time>2015-10-18T07:33:48.337Z</time>
      </trkpt>
      <trkpt lat="45.61758" lon="4.72459">
        <ele>289</ele>
        <time>2015-10-18T07:33:49.310Z</time>
      </trkpt>
      <trkpt lat="45.61757" lon="4.72466">
        <ele>289</ele>
        <time>2015-10-18T07:33:50.334Z</time>
      </trkpt>
      <trkpt lat="45.61757" lon="4.72472">
        <ele>289</ele>
        <time>2015-10-18T07:33:51.314Z</time>
      </trkpt>
      <trkpt lat="45.61757" lon="4.72481">
        <ele>289</ele>
        <time>2015-10-18T07:33:52.352Z</time>
      </trkpt>
      <trkpt lat="45.61756" lon="4.72487">
        <ele>289</ele>
        <time>2015-10-18T07:33:53.322Z</time>
      </trkpt>
      <trkpt lat="45.61754" lon="4.72494">
        <ele>288</ele>
        <time>2015-10-18T07:33:54.348Z</time>
      </trkpt>
      <trkpt lat="45.61753" lon="4.725">
        <ele>288</ele>
        <time>2015-10-18T07:33:55.327Z</time>
      </trkpt>
      <trkpt lat="45.61752" lon="4.72509">
        <ele>288</ele>
        <time>2015-10-18T07:33:56.348Z</time>
      </trkpt>
      <trkpt lat="45.61752" lon="4.72515">
        <ele>288</ele>
        <time>2015-10-18T07:33:57.311Z</time>
      </trkpt>
      <trkpt lat="45.61751" lon="4.72522">
        <ele>287</ele>
        <time>2015-10-18T07:33:58.344Z</time>
      </trkpt>
      <trkpt lat="45.61751" lon="4.72528">
        <ele>287</ele>
        <time>2015-10-18T07:33:59.315Z</time>
      </trkpt>
      <trkpt lat="45.61751" lon="4.72534">
        <ele>287</ele>
        <time>2015-10-18T07:34:00.346Z</time>
      </trkpt>
      <trkpt lat="45.61751" lon="4.72541">
        <ele>287</ele>
        <time>2015-10-18T07:34:01.313Z</time>
      </trkpt>
      <trkpt lat="45.61751" lon="4.72547">
        <ele>287</ele>
        <time>2015-10-18T07:34:02.346Z</time>
      </trkpt>
      <trkpt lat="45.6175" lon="4.72556">
        <ele>287</ele>
        <time>2015-10-18T07:34:03.313Z</time>
      </trkpt>
      <trkpt lat="45.61749" lon="4.72562">
        <ele>287</ele>
        <time>2015-10-18T07:34:04.343Z</time>
      </trkpt>
      <trkpt lat="45.61749" lon="4.72569">
        <ele>287</ele>
        <time>2015-10-18T07:34:05.309Z</time>
      </trkpt>
      <trkpt lat="45.61748" lon="4.72575">
        <ele>287</ele>
        <time>2015-10-18T07:34:06.350Z</time>
      </trkpt>
      <trkpt lat="45.61748" lon="4.72582">
        <ele>286</ele>
        <time>2015-10-18T07:34:07.316Z</time>
      </trkpt>
      <trkpt lat="45.61747" lon="4.72592">
        <ele>286</ele>
        <time>2015-10-18T07:34:09.333Z</time>
      </trkpt>
      <trkpt lat="45.61747" lon="4.72599">
        <ele>286</ele>
        <time>2015-10-18T07:34:10.311Z</time>
      </trkpt>
      <trkpt lat="45.61754" lon="4.72605">
        <ele>286</ele>
        <time>2015-10-18T07:34:13.349Z</time>
      </trkpt>
      <trkpt lat="45.61758" lon="4.72607">
        <ele>286</ele>
        <time>2015-10-18T07:34:14.345Z</time>
      </trkpt>
      <trkpt lat="45.61767" lon="4.7261">
        <ele>286</ele>
        <time>2015-10-18T07:34:16.347Z</time>
      </trkpt>
      <trkpt lat="45.61772" lon="4.72612">
        <ele>286</ele>
        <time>2015-10-18T07:34:17.305Z</time>
      </trkpt>
      <trkpt lat="45.61778" lon="4.72614">
        <ele>286</ele>
        <time>2015-10-18T07:34:18.340Z</time>
      </trkpt>
      <trkpt lat="45.61782" lon="4.72614">
        <ele>286</ele>
        <time>2015-10-18T07:34:19.309Z</time>
      </trkpt>
      <trkpt lat="45.61787" lon="4.72616">
        <ele>286</ele>
        <time>2015-10-18T07:34:20.331Z</time>
      </trkpt>
      <trkpt lat="45.61793" lon="4.72618">
        <ele>286</ele>
        <time>2015-10-18T07:34:21.313Z</time>
      </trkpt>
      <trkpt lat="45.61801" lon="4.7262">
        <ele>286</ele>
        <time>2015-10-18T07:34:23.450Z</time>
      </trkpt>
      <trkpt lat="45.61806" lon="4.72622">
        <ele>286</ele>
        <time>2015-10-18T07:34:24.307Z</time>
      </trkpt>
      <trkpt lat="45.61811" lon="4.72625">
        <ele>286</ele>
        <time>2015-10-18T07:34:25.364Z</time>
      </trkpt>
      <trkpt lat="45.61816" lon="4.72627">
        <ele>286</ele>
        <time>2015-10-18T07:34:26.320Z</time>
      </trkpt>
      <trkpt lat="45.61821" lon="4.72629">
        <ele>286</ele>
        <time>2015-10-18T07:34:27.334Z</time>
      </trkpt>
      <trkpt lat="45.61826" lon="4.72631">
        <ele>286</ele>
        <time>2015-10-18T07:34:28.312Z</time>
      </trkpt>
      <trkpt lat="45.6183" lon="4.72631">
        <ele>286</ele>
        <time>2015-10-18T07:34:29.337Z</time>
      </trkpt>
      <trkpt lat="45.61836" lon="4.72635">
        <ele>287</ele>
        <time>2015-10-18T07:34:30.313Z</time>
      </trkpt>
      <trkpt lat="45.61841" lon="4.72635">
        <ele>287</ele>
        <time>2015-10-18T07:34:31.339Z</time>
      </trkpt>
      <trkpt lat="45.61845" lon="4.72637">
        <ele>287</ele>
        <time>2015-10-18T07:34:32.311Z</time>
      </trkpt>
      <trkpt lat="45.61851" lon="4.7264">
        <ele>287</ele>
        <time>2015-10-18T07:34:33.331Z</time>
      </trkpt>
      <trkpt lat="45.61855" lon="4.72642">
        <ele>287</ele>
        <time>2015-10-18T07:34:34.303Z</time>
      </trkpt>
      <trkpt lat="45.6186" lon="4.72642">
        <ele>287</ele>
        <time>2015-10-18T07:34:35.427Z</time>
      </trkpt>
      <trkpt lat="45.61865" lon="4.72644">
        <ele>287</ele>
        <time>2015-10-18T07:34:36.303Z</time>
      </trkpt>
      <trkpt lat="45.61869" lon="4.72646">
        <ele>287</ele>
        <time>2015-10-18T07:34:37.327Z</time>
      </trkpt>
      <trkpt lat="45.61873" lon="4.72648">
        <ele>287</ele>
        <time>2015-10-18T07:34:38.310Z</time>
      </trkpt>
      <trkpt lat="45.61882" lon="4.7265">
        <ele>287</ele>
        <time>2015-10-18T07:34:40.334Z</time>
      </trkpt>
      <trkpt lat="45.61886" lon="4.72652">
        <ele>287</ele>
        <time>2015-10-18T07:34:41.314Z</time>
      </trkpt>
      <trkpt lat="45.61893" lon="4.72659">
        <ele>288</ele>
        <time>2015-10-18T07:34:43.337Z</time>
      </trkpt>
      <trkpt lat="45.61895" lon="4.72663">
        <ele>288</ele>
        <time>2015-10-18T07:34:44.312Z</time>
      </trkpt>
      <trkpt lat="45.61896" lon="4.7267">
        <ele>288</ele>
        <time>2015-10-18T07:34:45.345Z</time>
      </trkpt>
      <trkpt lat="45.61895" lon="4.72676">
        <ele>288</ele>
        <time>2015-10-18T07:34:46.315Z</time>
      </trkpt>
      <trkpt lat="45.61895" lon="4.72682">
        <ele>288</ele>
        <time>2015-10-18T07:34:47.350Z</time>
      </trkpt>
      <trkpt lat="45.61894" lon="4.72689">
        <ele>288</ele>
        <time>2015-10-18T07:34:48.303Z</time>
      </trkpt>
      <trkpt lat="45.61893" lon="4.72697">
        <ele>288</ele>
        <time>2015-10-18T07:34:49.324Z</time>
      </trkpt>
      <trkpt lat="45.61893" lon="4.72704">
        <ele>288</ele>
        <time>2015-10-18T07:34:50.306Z</time>
      </trkpt>
      <trkpt lat="45.61893" lon="4.72713">
        <ele>288</ele>
        <time>2015-10-18T07:34:51.340Z</time>
      </trkpt>
      <trkpt lat="45.61893" lon="4.72719">
        <ele>289</ele>
        <time>2015-10-18T07:34:52.327Z</time>
      </trkpt>
      <trkpt lat="45.61893" lon="4.72728">
        <ele>289</ele>
        <time>2015-10-18T07:34:53.351Z</time>
      </trkpt>
      <trkpt lat="45.61891" lon="4.72734">
        <ele>289</ele>
        <time>2015-10-18T07:34:54.317Z</time>
      </trkpt>
      <trkpt lat="45.6189" lon="4.72743">
        <ele>289</ele>
        <time>2015-10-18T07:34:55.351Z</time>
      </trkpt>
      <trkpt lat="45.6189" lon="4.72749">
        <ele>289</ele>
        <time>2015-10-18T07:34:56.306Z</time>
      </trkpt>
      <trkpt lat="45.61889" lon="4.72758">
        <ele>289</ele>
        <time>2015-10-18T07:34:57.337Z</time>
      </trkpt>
      <trkpt lat="45.61888" lon="4.72766">
        <ele>289</ele>
        <time>2015-10-18T07:34:58.329Z</time>
      </trkpt>
      <trkpt lat="45.61888" lon="4.72773">
        <ele>289</ele>
        <time>2015-10-18T07:34:59.337Z</time>
      </trkpt>
      <trkpt lat="45.61888" lon="4.72781">
        <ele>289</ele>
        <time>2015-10-18T07:35:00.309Z</time>
      </trkpt>
      <trkpt lat="45.61887" lon="4.7279">
        <ele>289</ele>
        <time>2015-10-18T07:35:01.347Z</time>
      </trkpt>
      <trkpt lat="45.61888" lon="4.72796">
        <ele>289</ele>
        <time>2015-10-18T07:35:02.312Z</time>
      </trkpt>
      <trkpt lat="45.61888" lon="4.72805">
        <ele>289</ele>
        <time>2015-10-18T07:35:03.340Z</time>
      </trkpt>
      <trkpt lat="45.61887" lon="4.72813">
        <ele>289</ele>
        <time>2015-10-18T07:35:04.318Z</time>
      </trkpt>
      <trkpt lat="45.61887" lon="4.72822">
        <ele>289</ele>
        <time>2015-10-18T07:35:05.341Z</time>
      </trkpt>
      <trkpt lat="45.61887" lon="4.72831">
        <ele>289</ele>
        <time>2015-10-18T07:35:06.311Z</time>
      </trkpt>
      <trkpt lat="45.61886" lon="4.72837">
        <ele>288</ele>
        <time>2015-10-18T07:35:07.349Z</time>
      </trkpt>
      <trkpt lat="45.61887" lon="4.72846">
        <ele>288</ele>
        <time>2015-10-18T07:35:08.312Z</time>
      </trkpt>
      <trkpt lat="45.61887" lon="4.72854">
        <ele>288</ele>
        <time>2015-10-18T07:35:09.470Z</time>
      </trkpt>
      <trkpt lat="45.61886" lon="4.72861">
        <ele>288</ele>
        <time>2015-10-18T07:35:10.309Z</time>
      </trkpt>
      <trkpt lat="45.61884" lon="4.72869">
        <ele>288</ele>
        <time>2015-10-18T07:35:11.328Z</time>
      </trkpt>
      <trkpt lat="45.61883" lon="4.72876">
        <ele>288</ele>
        <time>2015-10-18T07:35:12.313Z</time>
      </trkpt>
      <trkpt lat="45.61883" lon="4.72884">
        <ele>288</ele>
        <time>2015-10-18T07:35:13.335Z</time>
      </trkpt>
      <trkpt lat="45.61881" lon="4.72893">
        <ele>287</ele>
        <time>2015-10-18T07:35:14.317Z</time>
      </trkpt>
      <trkpt lat="45.6188" lon="4.72899">
        <ele>287</ele>
        <time>2015-10-18T07:35:15.351Z</time>
      </trkpt>
      <trkpt lat="45.61879" lon="4.72908">
        <ele>287</ele>
        <time>2015-10-18T07:35:16.313Z</time>
      </trkpt>
      <trkpt lat="45.61877" lon="4.72914">
        <ele>287</ele>
        <time>2015-10-18T07:35:17.347Z</time>
      </trkpt>
      <trkpt lat="45.61876" lon="4.72923">
        <ele>287</ele>
        <time>2015-10-18T07:35:18.310Z</time>
      </trkpt>
      <trkpt lat="45.61875" lon="4.72931">
        <ele>287</ele>
        <time>2015-10-18T07:35:19.331Z</time>
      </trkpt>
      <trkpt lat="45.61874" lon="4.7294">
        <ele>287</ele>
        <time>2015-10-18T07:35:20.312Z</time>
      </trkpt>
      <trkpt lat="45.61873" lon="4.72946">
        <ele>287</ele>
        <time>2015-10-18T07:35:21.332Z</time>
      </trkpt>
      <trkpt lat="45.61872" lon="4.72955">
        <ele>287</ele>
        <time>2015-10-18T07:35:22.312Z</time>
      </trkpt>
      <trkpt lat="45.6187" lon="4.72964">
        <ele>287</ele>
        <time>2015-10-18T07:35:23.358Z</time>
      </trkpt>
      <trkpt lat="45.61869" lon="4.7297">
        <ele>287</ele>
        <time>2015-10-18T07:35:24.311Z</time>
      </trkpt>
      <trkpt lat="45.61867" lon="4.72976">
        <ele>287</ele>
        <time>2015-10-18T07:35:25.346Z</time>
      </trkpt>
      <trkpt lat="45.61866" lon="4.72983">
        <ele>287</ele>
        <time>2015-10-18T07:35:26.317Z</time>
      </trkpt>
      <trkpt lat="45.61865" lon="4.72991">
        <ele>287</ele>
        <time>2015-10-18T07:35:27.348Z</time>
      </trkpt>
      <trkpt lat="45.61864" lon="4.72998">
        <ele>287</ele>
        <time>2015-10-18T07:35:28.314Z</time>
      </trkpt>
      <trkpt lat="45.61862" lon="4.73004">
        <ele>289</ele>
        <time>2015-10-18T07:35:29.421Z</time>
      </trkpt>
      <trkpt lat="45.61862" lon="4.73011">
        <ele>289</ele>
        <time>2015-10-18T07:35:30.320Z</time>
      </trkpt>
      <trkpt lat="45.61861" lon="4.73017">
        <ele>289</ele>
        <time>2015-10-18T07:35:31.342Z</time>
      </trkpt>
      <trkpt lat="45.61861" lon="4.73024">
        <ele>289</ele>
        <time>2015-10-18T07:35:32.299Z</time>
      </trkpt>
      <trkpt lat="45.6186" lon="4.73034">
        <ele>289</ele>
        <time>2015-10-18T07:35:34.336Z</time>
      </trkpt>
      <trkpt lat="45.61859" lon="4.73039">
        <ele>290</ele>
        <time>2015-10-18T07:35:35.302Z</time>
      </trkpt>
      <trkpt lat="45.61858" lon="4.73047">
        <ele>290</ele>
        <time>2015-10-18T07:35:37.338Z</time>
      </trkpt>
      <trkpt lat="45.61858" lon="4.73052">
        <ele>290</ele>
        <time>2015-10-18T07:35:38.311Z</time>
      </trkpt>
      <trkpt lat="45.61857" lon="4.73062">
        <ele>290</ele>
        <time>2015-10-18T07:35:40.344Z</time>
      </trkpt>
      <trkpt lat="45.61856" lon="4.73067">
        <ele>290</ele>
        <time>2015-10-18T07:35:41.318Z</time>
      </trkpt>
      <trkpt lat="45.61855" lon="4.73073">
        <ele>290</ele>
        <time>2015-10-18T07:35:42.338Z</time>
      </trkpt>
      <trkpt lat="45.61855" lon="4.73079">
        <ele>290</ele>
        <time>2015-10-18T07:35:43.309Z</time>
      </trkpt>
      <trkpt lat="45.61854" lon="4.73086">
        <ele>291</ele>
        <time>2015-10-18T07:35:44.342Z</time>
      </trkpt>
      <trkpt lat="45.61854" lon="4.73092">
        <ele>291</ele>
        <time>2015-10-18T07:35:45.313Z</time>
      </trkpt>
      <trkpt lat="45.61853" lon="4.73099">
        <ele>291</ele>
        <time>2015-10-18T07:35:46.337Z</time>
      </trkpt>
      <trkpt lat="45.61852" lon="4.73105">
        <ele>291</ele>
        <time>2015-10-18T07:35:47.317Z</time>
      </trkpt>
      <trkpt lat="45.6185" lon="4.73116">
        <ele>291</ele>
        <time>2015-10-18T07:35:49.328Z</time>
      </trkpt>
      <trkpt lat="45.61847" lon="4.7312">
        <ele>291</ele>
        <time>2015-10-18T07:35:50.306Z</time>
      </trkpt>
      <trkpt lat="45.61841" lon="4.73125">
        <ele>291</ele>
        <time>2015-10-18T07:35:52.344Z</time>
      </trkpt>
      <trkpt lat="45.61838" lon="4.73127">
        <ele>292</ele>
        <time>2015-10-18T07:35:53.303Z</time>
      </trkpt>
      <trkpt lat="45.6183" lon="4.73131">
        <ele>293</ele>
        <time>2015-10-18T07:35:55.348Z</time>
      </trkpt>
      <trkpt lat="45.61826" lon="4.73135">
        <ele>293</ele>
        <time>2015-10-18T07:35:56.322Z</time>
      </trkpt>
      <trkpt lat="45.61822" lon="4.73137">
        <ele>293</ele>
        <time>2015-10-18T07:35:57.328Z</time>
      </trkpt>
      <trkpt lat="45.61817" lon="4.7314">
        <ele>293</ele>
        <time>2015-10-18T07:35:58.306Z</time>
      </trkpt>
      <trkpt lat="45.6181" lon="4.73146">
        <ele>293</ele>
        <time>2015-10-18T07:36:00.351Z</time>
      </trkpt>
      <trkpt lat="45.61807" lon="4.73148">
        <ele>293</ele>
        <time>2015-10-18T07:36:01.310Z</time>
      </trkpt>
      <trkpt lat="45.61799" lon="4.73152">
        <ele>293</ele>
        <time>2015-10-18T07:36:03.348Z</time>
      </trkpt>
      <trkpt lat="45.61796" lon="4.73157">
        <ele>293</ele>
        <time>2015-10-18T07:36:04.311Z</time>
      </trkpt>
      <trkpt lat="45.6179" lon="4.73163">
        <ele>294</ele>
        <time>2015-10-18T07:36:06.324Z</time>
      </trkpt>
      <trkpt lat="45.61785" lon="4.73167">
        <ele>295</ele>
        <time>2015-10-18T07:36:07.300Z</time>
      </trkpt>
      <trkpt lat="45.61779" lon="4.73174">
        <ele>295</ele>
        <time>2015-10-18T07:36:09.338Z</time>
      </trkpt>
      <trkpt lat="45.61776" lon="4.73176">
        <ele>295</ele>
        <time>2015-10-18T07:36:10.339Z</time>
      </trkpt>
      <trkpt lat="45.61768" lon="4.7318">
        <ele>295</ele>
        <time>2015-10-18T07:36:12.349Z</time>
      </trkpt>
      <trkpt lat="45.61764" lon="4.73182">
        <ele>295</ele>
        <time>2015-10-18T07:36:13.310Z</time>
      </trkpt>
      <trkpt lat="45.61757" lon="4.73187">
        <ele>295</ele>
        <time>2015-10-18T07:36:15.344Z</time>
      </trkpt>
      <trkpt lat="45.61754" lon="4.73187">
        <ele>296</ele>
        <time>2015-10-18T07:36:16.314Z</time>
      </trkpt>
      <trkpt lat="45.61749" lon="4.73189">
        <ele>296</ele>
        <time>2015-10-18T07:36:17.325Z</time>
      </trkpt>
      <trkpt lat="45.61743" lon="4.73189">
        <ele>296</ele>
        <time>2015-10-18T07:36:18.302Z</time>
      </trkpt>
      <trkpt lat="45.61736" lon="4.73193">
        <ele>296</ele>
        <time>2015-10-18T07:36:20.346Z</time>
      </trkpt>
      <trkpt lat="45.61732" lon="4.73193">
        <ele>296</ele>
        <time>2015-10-18T07:36:21.328Z</time>
      </trkpt>
      <trkpt lat="45.61724" lon="4.73193">
        <ele>296</ele>
        <time>2015-10-18T07:36:23.369Z</time>
      </trkpt>
      <trkpt lat="45.61719" lon="4.73193">
        <ele>296</ele>
        <time>2015-10-18T07:36:24.306Z</time>
      </trkpt>
      <trkpt lat="45.6171" lon="4.73195">
        <ele>296</ele>
        <time>2015-10-18T07:36:26.346Z</time>
      </trkpt>
      <trkpt lat="45.61706" lon="4.73197">
        <ele>296</ele>
        <time>2015-10-18T07:36:27.299Z</time>
      </trkpt>
      <trkpt lat="45.61697" lon="4.73197">
        <ele>296</ele>
        <time>2015-10-18T07:36:29.347Z</time>
      </trkpt>
      <trkpt lat="45.61693" lon="4.73197">
        <ele>296</ele>
        <time>2015-10-18T07:36:30.318Z</time>
      </trkpt>
      <trkpt lat="45.61684" lon="4.732">
        <ele>296</ele>
        <time>2015-10-18T07:36:32.346Z</time>
      </trkpt>
      <trkpt lat="45.6168" lon="4.73202">
        <ele>296</ele>
        <time>2015-10-18T07:36:33.301Z</time>
      </trkpt>
      <trkpt lat="45.61673" lon="4.73204">
        <ele>296</ele>
        <time>2015-10-18T07:36:36.341Z</time>
      </trkpt>
      <trkpt lat="45.6167" lon="4.73204">
        <ele>296</ele>
        <time>2015-10-18T07:36:37.308Z</time>
      </trkpt>
      <trkpt lat="45.61664" lon="4.73206">
        <ele>294</ele>
        <time>2015-10-18T07:36:39.336Z</time>
      </trkpt>
      <trkpt lat="45.6166" lon="4.73208">
        <ele>294</ele>
        <time>2015-10-18T07:36:40.313Z</time>
      </trkpt>
      <trkpt lat="45.61652" lon="4.73215">
        <ele>294</ele>
        <time>2015-10-18T07:36:43.338Z</time>
      </trkpt>
      <trkpt lat="45.61651" lon="4.73219">
        <ele>294</ele>
        <time>2015-10-18T07:36:44.322Z</time>
      </trkpt>
      <trkpt lat="45.6165" lon="4.73225">
        <ele>294</ele>
        <time>2015-10-18T07:36:45.398Z</time>
      </trkpt>
      <trkpt lat="45.61651" lon="4.73232">
        <ele>294</ele>
        <time>2015-10-18T07:36:46.303Z</time>
      </trkpt>
      <trkpt lat="45.61652" lon="4.73238">
        <ele>294</ele>
        <time>2015-10-18T07:36:47.329Z</time>
      </trkpt>
      <trkpt lat="45.61652" lon="4.73245">
        <ele>294</ele>
        <time>2015-10-18T07:36:48.308Z</time>
      </trkpt>
      <trkpt lat="45.61654" lon="4.73251">
        <ele>294</ele>
        <time>2015-10-18T07:36:49.331Z</time>
      </trkpt>
      <trkpt lat="45.61654" lon="4.7326">
        <ele>294</ele>
        <time>2015-10-18T07:36:50.307Z</time>
      </trkpt>
      <trkpt lat="45.61656" lon="4.73266">
        <ele>293</ele>
        <time>2015-10-18T07:36:51.330Z</time>
      </trkpt>
      <trkpt lat="45.61658" lon="4.73275">
        <ele>293</ele>
        <time>2015-10-18T07:36:52.302Z</time>
      </trkpt>
      <trkpt lat="45.6166" lon="4.73281">
        <ele>293</ele>
        <time>2015-10-18T07:36:53.341Z</time>
      </trkpt>
      <trkpt lat="45.61661" lon="4.73288">
        <ele>293</ele>
        <time>2015-10-18T07:36:54.300Z</time>
      </trkpt>
      <trkpt lat="45.61662" lon="4.73296">
        <ele>293</ele>
        <time>2015-10-18T07:36:55.323Z</time>
      </trkpt>
      <trkpt lat="45.61663" lon="4.73303">
        <ele>293</ele>
        <time>2015-10-18T07:36:56.300Z</time>
      </trkpt>
      <trkpt lat="45.61665" lon="4.73313">
        <ele>293</ele>
        <time>2015-10-18T07:36:58.334Z</time>
      </trkpt>
      <trkpt lat="45.61666" lon="4.73318">
        <ele>294</ele>
        <time>2015-10-18T07:36:59.306Z</time>
      </trkpt>
      <trkpt lat="45.61667" lon="4.73324">
        <ele>295</ele>
        <time>2015-10-18T07:37:00.342Z</time>
      </trkpt>
      <trkpt lat="45.61668" lon="4.7333">
        <ele>295</ele>
        <time>2015-10-18T07:37:01.296Z</time>
      </trkpt>
      <trkpt lat="45.61669" lon="4.73341">
        <ele>295</ele>
        <time>2015-10-18T07:37:03.351Z</time>
      </trkpt>
      <trkpt lat="45.6167" lon="4.7335">
        <ele>295</ele>
        <time>2015-10-18T07:37:04.298Z</time>
      </trkpt>
      <trkpt lat="45.61673" lon="4.73361">
        <ele>295</ele>
        <time>2015-10-18T07:37:06.316Z</time>
      </trkpt>
      <trkpt lat="45.61675" lon="4.73367">
        <ele>295</ele>
        <time>2015-10-18T07:37:07.287Z</time>
      </trkpt>
      <trkpt lat="45.61676" lon="4.73378">
        <ele>295</ele>
        <time>2015-10-18T07:37:09.333Z</time>
      </trkpt>
      <trkpt lat="45.61675" lon="4.73382">
        <ele>295</ele>
        <time>2015-10-18T07:37:10.299Z</time>
      </trkpt>
      <trkpt lat="45.61676" lon="4.73388">
        <ele>295</ele>
        <time>2015-10-18T07:37:12.343Z</time>
      </trkpt>
      <trkpt lat="45.61677" lon="4.73395">
        <ele>295</ele>
        <time>2015-10-18T07:37:13.298Z</time>
      </trkpt>
      <trkpt lat="45.61677" lon="4.73403">
        <ele>295</ele>
        <time>2015-10-18T07:37:15.340Z</time>
      </trkpt>
      <trkpt lat="45.61678" lon="4.7341">
        <ele>295</ele>
        <time>2015-10-18T07:37:16.311Z</time>
      </trkpt>
      <trkpt lat="45.61679" lon="4.73416">
        <ele>295</ele>
        <time>2015-10-18T07:37:17.328Z</time>
      </trkpt>
      <trkpt lat="45.6168" lon="4.73423">
        <ele>295</ele>
        <time>2015-10-18T07:37:18.310Z</time>
      </trkpt>
      <trkpt lat="45.61681" lon="4.73433">
        <ele>295</ele>
        <time>2015-10-18T07:37:20.337Z</time>
      </trkpt>
      <trkpt lat="45.61682" lon="4.7344">
        <ele>295</ele>
        <time>2015-10-18T07:37:21.311Z</time>
      </trkpt>
      <trkpt lat="45.61684" lon="4.73451">
        <ele>295</ele>
        <time>2015-10-18T07:37:23.363Z</time>
      </trkpt>
      <trkpt lat="45.61684" lon="4.73455">
        <ele>295</ele>
        <time>2015-10-18T07:37:24.322Z</time>
      </trkpt>
      <trkpt lat="45.61685" lon="4.73461">
        <ele>294</ele>
        <time>2015-10-18T07:37:25.349Z</time>
      </trkpt>
      <trkpt lat="45.61687" lon="4.73468">
        <ele>294</ele>
        <time>2015-10-18T07:37:26.315Z</time>
      </trkpt>
      <trkpt lat="45.61687" lon="4.73476">
        <ele>294</ele>
        <time>2015-10-18T07:37:28.354Z</time>
      </trkpt>
      <trkpt lat="45.61687" lon="4.73483">
        <ele>294</ele>
        <time>2015-10-18T07:37:29.327Z</time>
      </trkpt>
      <trkpt lat="45.61685" lon="4.73494">
        <ele>294</ele>
        <time>2015-10-18T07:37:31.352Z</time>
      </trkpt>
      <trkpt lat="45.61685" lon="4.735">
        <ele>293</ele>
        <time>2015-10-18T07:37:32.311Z</time>
      </trkpt>
      <trkpt lat="45.61685" lon="4.73506">
        <ele>293</ele>
        <time>2015-10-18T07:37:33.354Z</time>
      </trkpt>
      <trkpt lat="45.61685" lon="4.73513">
        <ele>293</ele>
        <time>2015-10-18T07:37:34.330Z</time>
      </trkpt>
      <trkpt lat="45.61685" lon="4.73521">
        <ele>293</ele>
        <time>2015-10-18T07:37:35.334Z</time>
      </trkpt>
      <trkpt lat="45.61685" lon="4.7353">
        <ele>292</ele>
        <time>2015-10-18T07:37:36.310Z</time>
      </trkpt>
      <trkpt lat="45.61685" lon="4.73536">
        <ele>292</ele>
        <time>2015-10-18T07:37:37.336Z</time>
      </trkpt>
      <trkpt lat="45.61685" lon="4.73545">
        <ele>292</ele>
        <time>2015-10-18T07:37:38.321Z</time>
      </trkpt>
      <trkpt lat="45.61687" lon="4.73554">
        <ele>292</ele>
        <time>2015-10-18T07:37:39.339Z</time>
      </trkpt>
      <trkpt lat="45.61685" lon="4.7356">
        <ele>292</ele>
        <time>2015-10-18T07:37:40.312Z</time>
      </trkpt>
      <trkpt lat="45.61687" lon="4.73569">
        <ele>291</ele>
        <time>2015-10-18T07:37:41.340Z</time>
      </trkpt>
      <trkpt lat="45.61685" lon="4.73575">
        <ele>291</ele>
        <time>2015-10-18T07:37:42.320Z</time>
      </trkpt>
      <trkpt lat="45.61685" lon="4.73582">
        <ele>291</ele>
        <time>2015-10-18T07:37:43.340Z</time>
      </trkpt>
      <trkpt lat="45.61685" lon="4.73588">
        <ele>290</ele>
        <time>2015-10-18T07:37:44.308Z</time>
      </trkpt>
      <trkpt lat="45.61685" lon="4.73594">
        <ele>290</ele>
        <time>2015-10-18T07:37:45.340Z</time>
      </trkpt>
      <trkpt lat="45.61685" lon="4.73601">
        <ele>290</ele>
        <time>2015-10-18T07:37:46.301Z</time>
      </trkpt>
      <trkpt lat="45.61684" lon="4.73607">
        <ele>290</ele>
        <time>2015-10-18T07:37:47.361Z</time>
      </trkpt>
      <trkpt lat="45.61684" lon="4.73614">
        <ele>290</ele>
        <time>2015-10-18T07:37:48.305Z</time>
      </trkpt>
      <trkpt lat="45.61684" lon="4.73624">
        <ele>290</ele>
        <time>2015-10-18T07:37:50.332Z</time>
      </trkpt>
      <trkpt lat="45.61685" lon="4.73631">
        <ele>290</ele>
        <time>2015-10-18T07:37:51.314Z</time>
      </trkpt>
      <trkpt lat="45.61685" lon="4.73642">
        <ele>290</ele>
        <time>2015-10-18T07:37:53.350Z</time>
      </trkpt>
      <trkpt lat="45.61685" lon="4.73648">
        <ele>290</ele>
        <time>2015-10-18T07:37:54.310Z</time>
      </trkpt>
      <trkpt lat="45.61685" lon="4.73652">
        <ele>290</ele>
        <time>2015-10-18T07:37:55.329Z</time>
      </trkpt>
      <trkpt lat="45.61685" lon="4.73661">
        <ele>290</ele>
        <time>2015-10-18T07:37:56.311Z</time>
      </trkpt>
      <trkpt lat="45.61685" lon="4.73672">
        <ele>290</ele>
        <time>2015-10-18T07:37:58.337Z</time>
      </trkpt>
      <trkpt lat="45.61684" lon="4.73676">
        <ele>290</ele>
        <time>2015-10-18T07:37:59.308Z</time>
      </trkpt>
      <trkpt lat="45.61684" lon="4.73687">
        <ele>291</ele>
        <time>2015-10-18T07:38:01.346Z</time>
      </trkpt>
      <trkpt lat="45.61685" lon="4.73691">
        <ele>291</ele>
        <time>2015-10-18T07:38:02.309Z</time>
      </trkpt>
      <trkpt lat="45.61692" lon="4.737">
        <ele>291</ele>
        <time>2015-10-18T07:38:05.347Z</time>
      </trkpt>
      <trkpt lat="45.61694" lon="4.737">
        <ele>291</ele>
        <time>2015-10-18T07:38:06.311Z</time>
      </trkpt>
      <trkpt lat="45.61702" lon="4.73704">
        <ele>291</ele>
        <time>2015-10-18T07:38:08.344Z</time>
      </trkpt>
      <trkpt lat="45.61705" lon="4.73704">
        <ele>291</ele>
        <time>2015-10-18T07:38:09.312Z</time>
      </trkpt>
      <trkpt lat="45.61712" lon="4.7371">
        <ele>291</ele>
        <time>2015-10-18T07:38:11.343Z</time>
      </trkpt>
      <trkpt lat="45.61715" lon="4.73712">
        <ele>291</ele>
        <time>2015-10-18T07:38:12.313Z</time>
      </trkpt>
      <trkpt lat="45.61722" lon="4.73719">
        <ele>292</ele>
        <time>2015-10-18T07:38:14.398Z</time>
      </trkpt>
      <trkpt lat="45.61724" lon="4.73721">
        <ele>292</ele>
        <time>2015-10-18T07:38:15.316Z</time>
      </trkpt>
      <trkpt lat="45.61729" lon="4.73725">
        <ele>292</ele>
        <time>2015-10-18T07:38:17.348Z</time>
      </trkpt>
      <trkpt lat="45.61733" lon="4.73725">
        <ele>292</ele>
        <time>2015-10-18T07:38:18.308Z</time>
      </trkpt>
      <trkpt lat="45.61739" lon="4.73727">
        <ele>292</ele>
        <time>2015-10-18T07:38:21.326Z</time>
      </trkpt>
      <trkpt lat="45.61742" lon="4.7373">
        <ele>292</ele>
        <time>2015-10-18T07:38:22.307Z</time>
      </trkpt>
      <trkpt lat="45.61751" lon="4.73732">
        <ele>293</ele>
        <time>2015-10-18T07:38:25.342Z</time>
      </trkpt>
      <trkpt lat="45.61754" lon="4.73734">
        <ele>293</ele>
        <time>2015-10-18T07:38:26.308Z</time>
      </trkpt>
      <trkpt lat="45.61762" lon="4.73736">
        <ele>293</ele>
        <time>2015-10-18T07:38:28.340Z</time>
      </trkpt>
      <trkpt lat="45.61766" lon="4.73736">
        <ele>293</ele>
        <time>2015-10-18T07:38:29.319Z</time>
      </trkpt>
      <trkpt lat="45.61773" lon="4.7374">
        <ele>293</ele>
        <time>2015-10-18T07:38:31.352Z</time>
      </trkpt>
      <trkpt lat="45.61778" lon="4.73742">
        <ele>293</ele>
        <time>2015-10-18T07:38:32.302Z</time>
      </trkpt>
      <trkpt lat="45.61784" lon="4.73747">
        <ele>293</ele>
        <time>2015-10-18T07:38:34.347Z</time>
      </trkpt>
      <trkpt lat="45.61788" lon="4.73749">
        <ele>293</ele>
        <time>2015-10-18T07:38:35.319Z</time>
      </trkpt>
      <trkpt lat="45.61797" lon="4.73751">
        <ele>295</ele>
        <time>2015-10-18T07:38:37.344Z</time>
      </trkpt>
      <trkpt lat="45.61801" lon="4.73753">
        <ele>295</ele>
        <time>2015-10-18T07:38:38.310Z</time>
      </trkpt>
      <trkpt lat="45.61809" lon="4.7376">
        <ele>295</ele>
        <time>2015-10-18T07:38:40.343Z</time>
      </trkpt>
      <trkpt lat="45.61813" lon="4.73762">
        <ele>295</ele>
        <time>2015-10-18T07:38:41.324Z</time>
      </trkpt>
      <trkpt lat="45.61821" lon="4.73766">
        <ele>295</ele>
        <time>2015-10-18T07:38:43.344Z</time>
      </trkpt>
      <trkpt lat="45.61825" lon="4.73768">
        <ele>295</ele>
        <time>2015-10-18T07:38:44.307Z</time>
      </trkpt>
      <trkpt lat="45.61832" lon="4.73773">
        <ele>296</ele>
        <time>2015-10-18T07:38:46.353Z</time>
      </trkpt>
      <trkpt lat="45.61837" lon="4.73775">
        <ele>296</ele>
        <time>2015-10-18T07:38:47.305Z</time>
      </trkpt>
      <trkpt lat="45.61841" lon="4.73775">
        <ele>296</ele>
        <time>2015-10-18T07:38:48.342Z</time>
      </trkpt>
      <trkpt lat="45.61846" lon="4.73777">
        <ele>296</ele>
        <time>2015-10-18T07:38:49.305Z</time>
      </trkpt>
      <trkpt lat="45.61855" lon="4.73777">
        <ele>296</ele>
        <time>2015-10-18T07:38:51.391Z</time>
      </trkpt>
      <trkpt lat="45.61859" lon="4.73775">
        <ele>296</ele>
        <time>2015-10-18T07:38:52.309Z</time>
      </trkpt>
      <trkpt lat="45.61868" lon="4.73773">
        <ele>296</ele>
        <time>2015-10-18T07:38:54.336Z</time>
      </trkpt>
      <trkpt lat="45.61873" lon="4.73773">
        <ele>295</ele>
        <time>2015-10-18T07:38:55.304Z</time>
      </trkpt>
      <trkpt lat="45.61879" lon="4.7377">
        <ele>295</ele>
        <time>2015-10-18T07:38:56.352Z</time>
      </trkpt>
      <trkpt lat="45.61885" lon="4.7377">
        <ele>295</ele>
        <time>2015-10-18T07:38:57.309Z</time>
      </trkpt>
      <trkpt lat="45.6189" lon="4.73768">
        <ele>295</ele>
        <time>2015-10-18T07:38:58.332Z</time>
      </trkpt>
      <trkpt lat="45.61897" lon="4.73768">
        <ele>295</ele>
        <time>2015-10-18T07:38:59.322Z</time>
      </trkpt>
      <trkpt lat="45.61902" lon="4.73768">
        <ele>295</ele>
        <time>2015-10-18T07:39:00.438Z</time>
      </trkpt>
      <trkpt lat="45.6191" lon="4.73768">
        <ele>295</ele>
        <time>2015-10-18T07:39:01.306Z</time>
      </trkpt>
      <trkpt lat="45.61916" lon="4.73768">
        <ele>295</ele>
        <time>2015-10-18T07:39:02.344Z</time>
      </trkpt>
      <trkpt lat="45.61923" lon="4.73768">
        <ele>294</ele>
        <time>2015-10-18T07:39:03.305Z</time>
      </trkpt>
      <trkpt lat="45.61929" lon="4.73768">
        <ele>294</ele>
        <time>2015-10-18T07:39:04.331Z</time>
      </trkpt>
      <trkpt lat="45.61935" lon="4.73768">
        <ele>293</ele>
        <time>2015-10-18T07:39:05.315Z</time>
      </trkpt>
      <trkpt lat="45.61942" lon="4.73766">
        <ele>293</ele>
        <time>2015-10-18T07:39:06.344Z</time>
      </trkpt>
      <trkpt lat="45.61948" lon="4.73766">
        <ele>293</ele>
        <time>2015-10-18T07:39:07.308Z</time>
      </trkpt>
      <trkpt lat="45.61954" lon="4.73764">
        <ele>293</ele>
        <time>2015-10-18T07:39:08.330Z</time>
      </trkpt>
      <trkpt lat="45.6196" lon="4.73766">
        <ele>293</ele>
        <time>2015-10-18T07:39:09.310Z</time>
      </trkpt>
      <trkpt lat="45.61965" lon="4.73764">
        <ele>293</ele>
        <time>2015-10-18T07:39:10.352Z</time>
      </trkpt>
      <trkpt lat="45.61972" lon="4.73766">
        <ele>292</ele>
        <time>2015-10-18T07:39:11.306Z</time>
      </trkpt>
      <trkpt lat="45.61978" lon="4.73768">
        <ele>292</ele>
        <time>2015-10-18T07:39:12.445Z</time>
      </trkpt>
      <trkpt lat="45.61985" lon="4.7377">
        <ele>292</ele>
        <time>2015-10-18T07:39:13.304Z</time>
      </trkpt>
      <trkpt lat="45.61991" lon="4.73775">
        <ele>292</ele>
        <time>2015-10-18T07:39:14.348Z</time>
      </trkpt>
      <trkpt lat="45.61997" lon="4.73777">
        <ele>292</ele>
        <time>2015-10-18T07:39:15.306Z</time>
      </trkpt>
      <trkpt lat="45.62002" lon="4.73781">
        <ele>291</ele>
        <time>2015-10-18T07:39:16.337Z</time>
      </trkpt>
      <trkpt lat="45.62007" lon="4.73785">
        <ele>291</ele>
        <time>2015-10-18T07:39:17.303Z</time>
      </trkpt>
      <trkpt lat="45.62013" lon="4.7379">
        <ele>290</ele>
        <time>2015-10-18T07:39:18.350Z</time>
      </trkpt>
      <trkpt lat="45.62017" lon="4.73794">
        <ele>290</ele>
        <time>2015-10-18T07:39:19.308Z</time>
      </trkpt>
      <trkpt lat="45.62021" lon="4.73798">
        <ele>290</ele>
        <time>2015-10-18T07:39:20.327Z</time>
      </trkpt>
      <trkpt lat="45.62027" lon="4.73805">
        <ele>290</ele>
        <time>2015-10-18T07:39:21.310Z</time>
      </trkpt>
      <trkpt lat="45.62032" lon="4.73809">
        <ele>290</ele>
        <time>2015-10-18T07:39:22.333Z</time>
      </trkpt>
      <trkpt lat="45.62036" lon="4.73815">
        <ele>290</ele>
        <time>2015-10-18T07:39:23.338Z</time>
      </trkpt>
      <trkpt lat="45.62043" lon="4.7382">
        <ele>290</ele>
        <time>2015-10-18T07:39:24.371Z</time>
      </trkpt>
      <trkpt lat="45.62047" lon="4.73826">
        <ele>290</ele>
        <time>2015-10-18T07:39:25.307Z</time>
      </trkpt>
      <trkpt lat="45.62051" lon="4.7383">
        <ele>290</ele>
        <time>2015-10-18T07:39:26.345Z</time>
      </trkpt>
      <trkpt lat="45.62056" lon="4.73837">
        <ele>290</ele>
        <time>2015-10-18T07:39:27.304Z</time>
      </trkpt>
      <trkpt lat="45.6206" lon="4.73841">
        <ele>290</ele>
        <time>2015-10-18T07:39:28.334Z</time>
      </trkpt>
      <trkpt lat="45.62064" lon="4.73845">
        <ele>290</ele>
        <time>2015-10-18T07:39:29.305Z</time>
      </trkpt>
      <trkpt lat="45.62071" lon="4.7385">
        <ele>290</ele>
        <time>2015-10-18T07:39:30.339Z</time>
      </trkpt>
      <trkpt lat="45.62077" lon="4.73854">
        <ele>290</ele>
        <time>2015-10-18T07:39:31.308Z</time>
      </trkpt>
      <trkpt lat="45.62083" lon="4.73858">
        <ele>290</ele>
        <time>2015-10-18T07:39:32.474Z</time>
      </trkpt>
      <trkpt lat="45.6209" lon="4.73858">
        <ele>290</ele>
        <time>2015-10-18T07:39:33.309Z</time>
      </trkpt>
      <trkpt lat="45.62095" lon="4.73861">
        <ele>289</ele>
        <time>2015-10-18T07:39:34.343Z</time>
      </trkpt>
      <trkpt lat="45.62103" lon="4.73863">
        <ele>289</ele>
        <time>2015-10-18T07:39:35.305Z</time>
      </trkpt>
      <trkpt lat="45.62109" lon="4.73863">
        <ele>289</ele>
        <time>2015-10-18T07:39:36.407Z</time>
      </trkpt>
      <trkpt lat="45.62116" lon="4.73865">
        <ele>289</ele>
        <time>2015-10-18T07:39:37.320Z</time>
      </trkpt>
      <trkpt lat="45.62122" lon="4.73865">
        <ele>289</ele>
        <time>2015-10-18T07:39:38.341Z</time>
      </trkpt>
      <trkpt lat="45.6213" lon="4.73867">
        <ele>289</ele>
        <time>2015-10-18T07:39:39.314Z</time>
      </trkpt>
      <trkpt lat="45.62138" lon="4.73867">
        <ele>289</ele>
        <time>2015-10-18T07:39:40.332Z</time>
      </trkpt>
      <trkpt lat="45.62145" lon="4.73867">
        <ele>289</ele>
        <time>2015-10-18T07:39:41.311Z</time>
      </trkpt>
      <trkpt lat="45.62151" lon="4.73867">
        <ele>289</ele>
        <time>2015-10-18T07:39:42.343Z</time>
      </trkpt>
      <trkpt lat="45.62158" lon="4.73867">
        <ele>289</ele>
        <time>2015-10-18T07:39:43.305Z</time>
      </trkpt>
      <trkpt lat="45.62163" lon="4.73867">
        <ele>289</ele>
        <time>2015-10-18T07:39:44.331Z</time>
      </trkpt>
      <trkpt lat="45.62169" lon="4.73867">
        <ele>289</ele>
        <time>2015-10-18T07:39:45.305Z</time>
      </trkpt>
      <trkpt lat="45.62176" lon="4.73869">
        <ele>288</ele>
        <time>2015-10-18T07:39:46.353Z</time>
      </trkpt>
      <trkpt lat="45.62182" lon="4.73869">
        <ele>288</ele>
        <time>2015-10-18T07:39:47.307Z</time>
      </trkpt>
      <trkpt lat="45.62189" lon="4.73873">
        <ele>288</ele>
        <time>2015-10-18T07:39:48.345Z</time>
      </trkpt>
      <trkpt lat="45.62195" lon="4.73878">
        <ele>288</ele>
        <time>2015-10-18T07:39:49.308Z</time>
      </trkpt>
      <trkpt lat="45.622" lon="4.7388">
        <ele>288</ele>
        <time>2015-10-18T07:39:50.341Z</time>
      </trkpt>
      <trkpt lat="45.62207" lon="4.73884">
        <ele>288</ele>
        <time>2015-10-18T07:39:51.310Z</time>
      </trkpt>
      <trkpt lat="45.62213" lon="4.73888">
        <ele>288</ele>
        <time>2015-10-18T07:39:52.343Z</time>
      </trkpt>
      <trkpt lat="45.6222" lon="4.73891">
        <ele>288</ele>
        <time>2015-10-18T07:39:53.309Z</time>
      </trkpt>
      <trkpt lat="45.62225" lon="4.73893">
        <ele>288</ele>
        <time>2015-10-18T07:39:54.344Z</time>
      </trkpt>
      <trkpt lat="45.62232" lon="4.73893">
        <ele>288</ele>
        <time>2015-10-18T07:39:55.310Z</time>
      </trkpt>
      <trkpt lat="45.62238" lon="4.73893">
        <ele>288</ele>
        <time>2015-10-18T07:39:56.341Z</time>
      </trkpt>
      <trkpt lat="45.62244" lon="4.73893">
        <ele>288</ele>
        <time>2015-10-18T07:39:57.310Z</time>
      </trkpt>
      <trkpt lat="45.62252" lon="4.73893">
        <ele>287</ele>
        <time>2015-10-18T07:39:58.346Z</time>
      </trkpt>
      <trkpt lat="45.62258" lon="4.73893">
        <ele>287</ele>
        <time>2015-10-18T07:39:59.313Z</time>
      </trkpt>
      <trkpt lat="45.62264" lon="4.73893">
        <ele>287</ele>
        <time>2015-10-18T07:40:00.346Z</time>
      </trkpt>
      <trkpt lat="45.6227" lon="4.73893">
        <ele>287</ele>
        <time>2015-10-18T07:40:01.310Z</time>
      </trkpt>
      <trkpt lat="45.62277" lon="4.73893">
        <ele>287</ele>
        <time>2015-10-18T07:40:02.347Z</time>
      </trkpt>
      <trkpt lat="45.62283" lon="4.73893">
        <ele>287</ele>
        <time>2015-10-18T07:40:03.308Z</time>
      </trkpt>
      <trkpt lat="45.62289" lon="4.73893">
        <ele>287</ele>
        <time>2015-10-18T07:40:04.341Z</time>
      </trkpt>
      <trkpt lat="45.62296" lon="4.73891">
        <ele>286</ele>
        <time>2015-10-18T07:40:05.322Z</time>
      </trkpt>
      <trkpt lat="45.62302" lon="4.73891">
        <ele>286</ele>
        <time>2015-10-18T07:40:06.336Z</time>
      </trkpt>
      <trkpt lat="45.62309" lon="4.73891">
        <ele>286</ele>
        <time>2015-10-18T07:40:07.306Z</time>
      </trkpt>
      <trkpt lat="45.62315" lon="4.73888">
        <ele>286</ele>
        <time>2015-10-18T07:40:08.343Z</time>
      </trkpt>
      <trkpt lat="45.62322" lon="4.73888">
        <ele>286</ele>
        <time>2015-10-18T07:40:09.302Z</time>
      </trkpt>
      <trkpt lat="45.62328" lon="4.73886">
        <ele>286</ele>
        <time>2015-10-18T07:40:10.327Z</time>
      </trkpt>
      <trkpt lat="45.62333" lon="4.73886">
        <ele>286</ele>
        <time>2015-10-18T07:40:11.308Z</time>
      </trkpt>
      <trkpt lat="45.6234" lon="4.73886">
        <ele>286</ele>
        <time>2015-10-18T07:40:12.334Z</time>
      </trkpt>
      <trkpt lat="45.62346" lon="4.73884">
        <ele>286</ele>
        <time>2015-10-18T07:40:13.313Z</time>
      </trkpt>
      <trkpt lat="45.62354" lon="4.73884">
        <ele>286</ele>
        <time>2015-10-18T07:40:14.338Z</time>
      </trkpt>
      <trkpt lat="45.62359" lon="4.73884">
        <ele>286</ele>
        <time>2015-10-18T07:40:15.304Z</time>
      </trkpt>
      <trkpt lat="45.62366" lon="4.73882">
        <ele>286</ele>
        <time>2015-10-18T07:40:16.335Z</time>
      </trkpt>
      <trkpt lat="45.62372" lon="4.73882">
        <ele>285</ele>
        <time>2015-10-18T07:40:17.315Z</time>
      </trkpt>
      <trkpt lat="45.62379" lon="4.73882">
        <ele>285</ele>
        <time>2015-10-18T07:40:18.345Z</time>
      </trkpt>
      <trkpt lat="45.62385" lon="4.73882">
        <ele>285</ele>
        <time>2015-10-18T07:40:19.308Z</time>
      </trkpt>
      <trkpt lat="45.62391" lon="4.7388">
        <ele>285</ele>
        <time>2015-10-18T07:40:20.336Z</time>
      </trkpt>
      <trkpt lat="45.62397" lon="4.7388">
        <ele>285</ele>
        <time>2015-10-18T07:40:21.302Z</time>
      </trkpt>
      <trkpt lat="45.62403" lon="4.7388">
        <ele>285</ele>
        <time>2015-10-18T07:40:22.382Z</time>
      </trkpt>
      <trkpt lat="45.6241" lon="4.73882">
        <ele>285</ele>
        <time>2015-10-18T07:40:23.333Z</time>
      </trkpt>
      <trkpt lat="45.62414" lon="4.73884">
        <ele>285</ele>
        <time>2015-10-18T07:40:24.360Z</time>
      </trkpt>
      <trkpt lat="45.62419" lon="4.73888">
        <ele>285</ele>
        <time>2015-10-18T07:40:25.303Z</time>
      </trkpt>
      <trkpt lat="45.62424" lon="4.73895">
        <ele>285</ele>
        <time>2015-10-18T07:40:26.337Z</time>
      </trkpt>
      <trkpt lat="45.62429" lon="4.73899">
        <ele>285</ele>
        <time>2015-10-18T07:40:27.303Z</time>
      </trkpt>
      <trkpt lat="45.62434" lon="4.73906">
        <ele>285</ele>
        <time>2015-10-18T07:40:28.335Z</time>
      </trkpt>
      <trkpt lat="45.62439" lon="4.7391">
        <ele>285</ele>
        <time>2015-10-18T07:40:29.310Z</time>
      </trkpt>
      <trkpt lat="45.62443" lon="4.73914">
        <ele>286</ele>
        <time>2015-10-18T07:40:30.322Z</time>
      </trkpt>
      <trkpt lat="45.62447" lon="4.73918">
        <ele>285</ele>
        <time>2015-10-18T07:40:31.306Z</time>
      </trkpt>
      <trkpt lat="45.62451" lon="4.73923">
        <ele>286</ele>
        <time>2015-10-18T07:40:32.329Z</time>
      </trkpt>
      <trkpt lat="45.62457" lon="4.73929">
        <ele>286</ele>
        <time>2015-10-18T07:40:33.312Z</time>
      </trkpt>
      <trkpt lat="45.62461" lon="4.73933">
        <ele>286</ele>
        <time>2015-10-18T07:40:34.343Z</time>
      </trkpt>
      <trkpt lat="45.62465" lon="4.73938">
        <ele>286</ele>
        <time>2015-10-18T07:40:35.303Z</time>
      </trkpt>
      <trkpt lat="45.6247" lon="4.73942">
        <ele>286</ele>
        <time>2015-10-18T07:40:36.331Z</time>
      </trkpt>
      <trkpt lat="45.62473" lon="4.73946">
        <ele>286</ele>
        <time>2015-10-18T07:40:37.298Z</time>
      </trkpt>
      <trkpt lat="45.62477" lon="4.73953">
        <ele>286</ele>
        <time>2015-10-18T07:40:38.321Z</time>
      </trkpt>
      <trkpt lat="45.6248" lon="4.73957">
        <ele>286</ele>
        <time>2015-10-18T07:40:39.299Z</time>
      </trkpt>
      <trkpt lat="45.62484" lon="4.73961">
        <ele>286</ele>
        <time>2015-10-18T07:40:40.349Z</time>
      </trkpt>
      <trkpt lat="45.62487" lon="4.73968">
        <ele>287</ele>
        <time>2015-10-18T07:40:41.303Z</time>
      </trkpt>
      <trkpt lat="45.62489" lon="4.73972">
        <ele>287</ele>
        <time>2015-10-18T07:40:42.336Z</time>
      </trkpt>
      <trkpt lat="45.62492" lon="4.73979">
        <ele>287</ele>
        <time>2015-10-18T07:40:43.302Z</time>
      </trkpt>
      <trkpt lat="45.62495" lon="4.73983">
        <ele>287</ele>
        <time>2015-10-18T07:40:44.342Z</time>
      </trkpt>
      <trkpt lat="45.62498" lon="4.73989">
        <ele>287</ele>
        <time>2015-10-18T07:40:45.306Z</time>
      </trkpt>
      <trkpt lat="45.62501" lon="4.73996">
        <ele>288</ele>
        <time>2015-10-18T07:40:46.328Z</time>
      </trkpt>
      <trkpt lat="45.62504" lon="4.74">
        <ele>288</ele>
        <time>2015-10-18T07:40:47.304Z</time>
      </trkpt>
      <trkpt lat="45.62508" lon="4.74011">
        <ele>289</ele>
        <time>2015-10-18T07:40:49.336Z</time>
      </trkpt>
      <trkpt lat="45.62512" lon="4.74015">
        <ele>289</ele>
        <time>2015-10-18T07:40:50.299Z</time>
      </trkpt>
      <trkpt lat="45.62515" lon="4.74021">
        <ele>289</ele>
        <time>2015-10-18T07:40:51.345Z</time>
      </trkpt>
      <trkpt lat="45.62517" lon="4.74026">
        <ele>289</ele>
        <time>2015-10-18T07:40:52.302Z</time>
      </trkpt>
      <trkpt lat="45.6252" lon="4.74032">
        <ele>289</ele>
        <time>2015-10-18T07:40:53.342Z</time>
      </trkpt>
      <trkpt lat="45.62522" lon="4.74036">
        <ele>289</ele>
        <time>2015-10-18T07:40:54.310Z</time>
      </trkpt>
      <trkpt lat="45.62524" lon="4.74041">
        <ele>289</ele>
        <time>2015-10-18T07:40:55.344Z</time>
      </trkpt>
      <trkpt lat="45.62528" lon="4.74047">
        <ele>290</ele>
        <time>2015-10-18T07:40:56.303Z</time>
      </trkpt>
      <trkpt lat="45.62531" lon="4.74051">
        <ele>290</ele>
        <time>2015-10-18T07:40:57.338Z</time>
      </trkpt>
      <trkpt lat="45.62535" lon="4.74056">
        <ele>290</ele>
        <time>2015-10-18T07:40:58.318Z</time>
      </trkpt>
      <trkpt lat="45.62542" lon="4.74064">
        <ele>290</ele>
        <time>2015-10-18T07:41:00.338Z</time>
      </trkpt>
      <trkpt lat="45.62545" lon="4.74069">
        <ele>290</ele>
        <time>2015-10-18T07:41:01.294Z</time>
      </trkpt>
      <trkpt lat="45.62548" lon="4.74075">
        <ele>290</ele>
        <time>2015-10-18T07:41:02.324Z</time>
      </trkpt>
      <trkpt lat="45.6255" lon="4.74079">
        <ele>290</ele>
        <time>2015-10-18T07:41:03.283Z</time>
      </trkpt>
      <trkpt lat="45.62553" lon="4.74088">
        <ele>291</ele>
        <time>2015-10-18T07:41:05.331Z</time>
      </trkpt>
      <trkpt lat="45.62557" lon="4.74094">
        <ele>291</ele>
        <time>2015-10-18T07:41:06.302Z</time>
      </trkpt>
      <trkpt lat="45.6256" lon="4.74101">
        <ele>291</ele>
        <time>2015-10-18T07:41:07.334Z</time>
      </trkpt>
      <trkpt lat="45.62562" lon="4.74105">
        <ele>291</ele>
        <time>2015-10-18T07:41:08.290Z</time>
      </trkpt>
      <trkpt lat="45.62565" lon="4.74109">
        <ele>291</ele>
        <time>2015-10-18T07:41:09.324Z</time>
      </trkpt>
      <trkpt lat="45.62567" lon="4.74116">
        <ele>291</ele>
        <time>2015-10-18T07:41:10.301Z</time>
      </trkpt>
      <trkpt lat="45.62571" lon="4.7412">
        <ele>291</ele>
        <time>2015-10-18T07:41:11.329Z</time>
      </trkpt>
      <trkpt lat="45.62573" lon="4.74127">
        <ele>291</ele>
        <time>2015-10-18T07:41:12.327Z</time>
      </trkpt>
      <trkpt lat="45.62576" lon="4.74131">
        <ele>291</ele>
        <time>2015-10-18T07:41:13.344Z</time>
      </trkpt>
      <trkpt lat="45.62579" lon="4.74137">
        <ele>291</ele>
        <time>2015-10-18T07:41:14.323Z</time>
      </trkpt>
      <trkpt lat="45.62583" lon="4.74148">
        <ele>293</ele>
        <time>2015-10-18T07:41:16.349Z</time>
      </trkpt>
      <trkpt lat="45.62586" lon="4.74152">
        <ele>293</ele>
        <time>2015-10-18T07:41:17.309Z</time>
      </trkpt>
      <trkpt lat="45.6259" lon="4.74163">
        <ele>293</ele>
        <time>2015-10-18T07:41:19.344Z</time>
      </trkpt>
      <trkpt lat="45.62592" lon="4.74172">
        <ele>293</ele>
        <time>2015-10-18T07:41:20.312Z</time>
      </trkpt>
      <trkpt lat="45.62594" lon="4.74178">
        <ele>293</ele>
        <time>2015-10-18T07:41:21.333Z</time>
      </trkpt>
      <trkpt lat="45.62597" lon="4.74185">
        <ele>293</ele>
        <time>2015-10-18T07:41:22.301Z</time>
      </trkpt>
      <trkpt lat="45.62602" lon="4.74195">
        <ele>294</ele>
        <time>2015-10-18T07:41:24.328Z</time>
      </trkpt>
      <trkpt lat="45.62603" lon="4.74202">
        <ele>294</ele>
        <time>2015-10-18T07:41:25.310Z</time>
      </trkpt>
      <trkpt lat="45.62607" lon="4.74212">
        <ele>294</ele>
        <time>2015-10-18T07:41:27.322Z</time>
      </trkpt>
      <trkpt lat="45.62608" lon="4.74219">
        <ele>294</ele>
        <time>2015-10-18T07:41:28.307Z</time>
      </trkpt>
      <trkpt lat="45.6261" lon="4.74225">
        <ele>294</ele>
        <time>2015-10-18T07:41:29.351Z</time>
      </trkpt>
      <trkpt lat="45.6261" lon="4.74232">
        <ele>294</ele>
        <time>2015-10-18T07:41:30.301Z</time>
      </trkpt>
      <trkpt lat="45.62611" lon="4.74238">
        <ele>293</ele>
        <time>2015-10-18T07:41:31.328Z</time>
      </trkpt>
      <trkpt lat="45.62613" lon="4.74247">
        <ele>294</ele>
        <time>2015-10-18T07:41:32.299Z</time>
      </trkpt>
      <trkpt lat="45.62617" lon="4.74257">
        <ele>294</ele>
        <time>2015-10-18T07:41:34.341Z</time>
      </trkpt>
      <trkpt lat="45.62619" lon="4.74262">
        <ele>294</ele>
        <time>2015-10-18T07:41:35.308Z</time>
      </trkpt>
      <trkpt lat="45.62621" lon="4.74268">
        <ele>294</ele>
        <time>2015-10-18T07:41:36.329Z</time>
      </trkpt>
      <trkpt lat="45.62622" lon="4.74275">
        <ele>294</ele>
        <time>2015-10-18T07:41:37.306Z</time>
      </trkpt>
      <trkpt lat="45.62625" lon="4.74285">
        <ele>295</ele>
        <time>2015-10-18T07:41:39.329Z</time>
      </trkpt>
      <trkpt lat="45.62626" lon="4.7429">
        <ele>295</ele>
        <time>2015-10-18T07:41:40.306Z</time>
      </trkpt>
      <trkpt lat="45.6263" lon="4.74298">
        <ele>295</ele>
        <time>2015-10-18T07:41:42.328Z</time>
      </trkpt>
      <trkpt lat="45.62631" lon="4.74303">
        <ele>295</ele>
        <time>2015-10-18T07:41:43.304Z</time>
      </trkpt>
      <trkpt lat="45.62635" lon="4.74313">
        <ele>295</ele>
        <time>2015-10-18T07:41:47.332Z</time>
      </trkpt>
      <trkpt lat="45.62637" lon="4.74318">
        <ele>295</ele>
        <time>2015-10-18T07:41:48.304Z</time>
      </trkpt>
      <trkpt lat="45.62639" lon="4.74328">
        <ele>296</ele>
        <time>2015-10-18T07:41:51.337Z</time>
      </trkpt>
      <trkpt lat="45.6264" lon="4.74333">
        <ele>296</ele>
        <time>2015-10-18T07:41:52.299Z</time>
      </trkpt>
      <trkpt lat="45.62642" lon="4.74341">
        <ele>297</ele>
        <time>2015-10-18T07:41:54.330Z</time>
      </trkpt>
      <trkpt lat="45.62642" lon="4.74345">
        <ele>297</ele>
        <time>2015-10-18T07:41:55.302Z</time>
      </trkpt>
      <trkpt lat="45.62647" lon="4.74356">
        <ele>297</ele>
        <time>2015-10-18T07:41:58.341Z</time>
      </trkpt>
      <trkpt lat="45.62649" lon="4.7436">
        <ele>297</ele>
        <time>2015-10-18T07:41:59.301Z</time>
      </trkpt>
      <trkpt lat="45.62651" lon="4.74369">
        <ele>297</ele>
        <time>2015-10-18T07:42:01.342Z</time>
      </trkpt>
      <trkpt lat="45.62652" lon="4.74373">
        <ele>297</ele>
        <time>2015-10-18T07:42:02.312Z</time>
      </trkpt>
      <trkpt lat="45.62656" lon="4.74382">
        <ele>297</ele>
        <time>2015-10-18T07:42:05.328Z</time>
      </trkpt>
      <trkpt lat="45.62659" lon="4.74386">
        <ele>298</ele>
        <time>2015-10-18T07:42:06.303Z</time>
      </trkpt>
      <trkpt lat="45.62664" lon="4.74395">
        <ele>298</ele>
        <time>2015-10-18T07:42:09.336Z</time>
      </trkpt>
      <trkpt lat="45.62666" lon="4.74397">
        <ele>299</ele>
        <time>2015-10-18T07:42:10.318Z</time>
      </trkpt>
      <trkpt lat="45.62672" lon="4.74406">
        <ele>301</ele>
        <time>2015-10-18T07:42:14.340Z</time>
      </trkpt>
      <trkpt lat="45.62674" lon="4.7441">
        <ele>301</ele>
        <time>2015-10-18T07:42:15.302Z</time>
      </trkpt>
      <trkpt lat="45.62677" lon="4.74421">
        <ele>303</ele>
        <time>2015-10-18T07:42:19.346Z</time>
      </trkpt>
      <trkpt lat="45.62679" lon="4.74425">
        <ele>304</ele>
        <time>2015-10-18T07:42:20.304Z</time>
      </trkpt>
      <trkpt lat="45.62682" lon="4.74433">
        <ele>305</ele>
        <time>2015-10-18T07:42:23.379Z</time>
      </trkpt>
      <trkpt lat="45.62684" lon="4.74436">
        <ele>305</ele>
        <time>2015-10-18T07:42:24.314Z</time>
      </trkpt>
      <trkpt lat="45.62689" lon="4.74446">
        <ele>306</ele>
        <time>2015-10-18T07:42:27.348Z</time>
      </trkpt>
      <trkpt lat="45.6269" lon="4.74448">
        <ele>307</ele>
        <time>2015-10-18T07:42:28.306Z</time>
      </trkpt>
      <trkpt lat="45.62693" lon="4.74459">
        <ele>307</ele>
        <time>2015-10-18T07:42:32.335Z</time>
      </trkpt>
      <trkpt lat="45.62695" lon="4.74461">
        <ele>307</ele>
        <time>2015-10-18T07:42:33.306Z</time>
      </trkpt>
      <trkpt lat="45.62699" lon="4.74468">
        <ele>308</ele>
        <time>2015-10-18T07:42:36.339Z</time>
      </trkpt>
      <trkpt lat="45.62701" lon="4.74472">
        <ele>308</ele>
        <time>2015-10-18T07:42:37.338Z</time>
      </trkpt>
      <trkpt lat="45.62709" lon="4.74478">
        <ele>309</ele>
        <time>2015-10-18T07:42:42.325Z</time>
      </trkpt>
      <trkpt lat="45.62711" lon="4.74481">
        <ele>309</ele>
        <time>2015-10-18T07:42:43.299Z</time>
      </trkpt>
      <trkpt lat="45.6272" lon="4.74483">
        <ele>310</ele>
        <time>2015-10-18T07:42:48.340Z</time>
      </trkpt>
      <trkpt lat="45.62721" lon="4.74485">
        <ele>310</ele>
        <time>2015-10-18T07:42:49.293Z</time>
      </trkpt>
      <trkpt lat="45.62728" lon="4.74489">
        <ele>311</ele>
        <time>2015-10-18T07:42:53.327Z</time>
      </trkpt>
      <trkpt lat="45.62729" lon="4.74489">
        <ele>311</ele>
        <time>2015-10-18T07:42:54.310Z</time>
      </trkpt>
      <trkpt lat="45.62737" lon="4.74487">
        <ele>312</ele>
        <time>2015-10-18T07:42:58.329Z</time>
      </trkpt>
      <trkpt lat="45.62739" lon="4.74487">
        <ele>312</ele>
        <time>2015-10-18T07:42:59.293Z</time>
      </trkpt>
      <trkpt lat="45.62747" lon="4.74485">
        <ele>313</ele>
        <time>2015-10-18T07:43:05.337Z</time>
      </trkpt>
      <trkpt lat="45.62749" lon="4.74483">
        <ele>313</ele>
        <time>2015-10-18T07:43:06.298Z</time>
      </trkpt>
      <trkpt lat="45.62753" lon="4.74494">
        <ele>316</ele>
        <time>2015-10-18T07:44:17.340Z</time>
      </trkpt>
      <trkpt lat="45.62753" lon="4.74496">
        <ele>316</ele>
        <time>2015-10-18T07:44:18.316Z</time>
      </trkpt>
      <trkpt lat="45.62758" lon="4.74504">
        <ele>319</ele>
        <time>2015-10-18T07:44:24.331Z</time>
      </trkpt>
      <trkpt lat="45.62759" lon="4.74506">
        <ele>319</ele>
        <time>2015-10-18T07:44:25.292Z</time>
      </trkpt>
      <trkpt lat="45.62764" lon="4.74517">
        <ele>320</ele>
        <time>2015-10-18T07:44:31.333Z</time>
      </trkpt>
      <trkpt lat="45.62765" lon="4.74519">
        <ele>320</ele>
        <time>2015-10-18T07:44:32.317Z</time>
      </trkpt>
      <trkpt lat="45.62768" lon="4.7453">
        <ele>321</ele>
        <time>2015-10-18T07:44:37.336Z</time>
      </trkpt>
      <trkpt lat="45.62769" lon="4.74532">
        <ele>321</ele>
        <time>2015-10-18T07:44:38.314Z</time>
      </trkpt>
      <trkpt lat="45.62773" lon="4.74543">
        <ele>322</ele>
        <time>2015-10-18T07:44:43.342Z</time>
      </trkpt>
      <trkpt lat="45.62774" lon="4.74545">
        <ele>322</ele>
        <time>2015-10-18T07:44:44.306Z</time>
      </trkpt>
      <trkpt lat="45.62778" lon="4.74556">
        <ele>323</ele>
        <time>2015-10-18T07:44:49.348Z</time>
      </trkpt>
      <trkpt lat="45.62779" lon="4.74558">
        <ele>323</ele>
        <time>2015-10-18T07:44:50.318Z</time>
      </trkpt>
      <trkpt lat="45.62783" lon="4.74569">
        <ele>323</ele>
        <time>2015-10-18T07:44:55.338Z</time>
      </trkpt>
      <trkpt lat="45.62784" lon="4.74571">
        <ele>323</ele>
        <time>2015-10-18T07:44:56.307Z</time>
      </trkpt>
      <trkpt lat="45.62785" lon="4.74581">
        <ele>323</ele>
        <time>2015-10-18T07:45:01.334Z</time>
      </trkpt>
      <trkpt lat="45.62786" lon="4.74584">
        <ele>327</ele>
        <time>2015-10-18T07:45:02.302Z</time>
      </trkpt>
      <trkpt lat="45.62794" lon="4.74584">
        <ele>327</ele>
        <time>2015-10-18T07:45:09.325Z</time>
      </trkpt>
      <trkpt lat="45.62796" lon="4.74581">
        <ele>324</ele>
        <time>2015-10-18T07:45:10.306Z</time>
      </trkpt>
      <trkpt lat="45.62802" lon="4.74573">
        <ele>324</ele>
        <time>2015-10-18T07:45:13.321Z</time>
      </trkpt>
      <trkpt lat="45.62807" lon="4.74571">
        <ele>324</ele>
        <time>2015-10-18T07:45:14.294Z</time>
      </trkpt>
      <trkpt lat="45.62811" lon="4.74569">
        <ele>324</ele>
        <time>2015-10-18T07:45:15.335Z</time>
      </trkpt>
      <trkpt lat="45.62816" lon="4.74566">
        <ele>324</ele>
        <time>2015-10-18T07:45:16.291Z</time>
      </trkpt>
      <trkpt lat="45.62825" lon="4.74566">
        <ele>325</ele>
        <time>2015-10-18T07:45:18.334Z</time>
      </trkpt>
      <trkpt lat="45.62829" lon="4.74566">
        <ele>325</ele>
        <time>2015-10-18T07:45:19.311Z</time>
      </trkpt>
      <trkpt lat="45.62836" lon="4.74569">
        <ele>325</ele>
        <time>2015-10-18T07:45:21.322Z</time>
      </trkpt>
      <trkpt lat="45.62839" lon="4.74571">
        <ele>325</ele>
        <time>2015-10-18T07:45:22.303Z</time>
      </trkpt>
      <trkpt lat="45.62844" lon="4.74573">
        <ele>325</ele>
        <time>2015-10-18T07:45:24.340Z</time>
      </trkpt>
      <trkpt lat="45.62848" lon="4.74573">
        <ele>324</ele>
        <time>2015-10-18T07:45:25.303Z</time>
      </trkpt>
      <trkpt lat="45.62855" lon="4.74575">
        <ele>323</ele>
        <time>2015-10-18T07:45:27.361Z</time>
      </trkpt>
      <trkpt lat="45.62859" lon="4.74577">
        <ele>323</ele>
        <time>2015-10-18T07:45:28.309Z</time>
      </trkpt>
      <trkpt lat="45.62866" lon="4.74581">
        <ele>323</ele>
        <time>2015-10-18T07:45:30.340Z</time>
      </trkpt>
      <trkpt lat="45.62869" lon="4.74584">
        <ele>326</ele>
        <time>2015-10-18T07:45:31.300Z</time>
      </trkpt>
      <trkpt lat="45.62869" lon="4.74594">
        <ele>326</ele>
        <time>2015-10-18T07:45:37.337Z</time>
      </trkpt>
      <trkpt lat="45.62868" lon="4.74597">
        <ele>326</ele>
        <time>2015-10-18T07:45:38.299Z</time>
      </trkpt>
      <trkpt lat="45.62863" lon="4.74607">
        <ele>327</ele>
        <time>2015-10-18T07:45:44.344Z</time>
      </trkpt>
      <trkpt lat="45.62862" lon="4.74612">
        <ele>327</ele>
        <time>2015-10-18T07:45:45.300Z</time>
      </trkpt>
      <trkpt lat="45.62862" lon="4.74622">
        <ele>327</ele>
        <time>2015-10-18T07:45:50.340Z</time>
      </trkpt>
      <trkpt lat="45.62861" lon="4.74624">
        <ele>327</ele>
        <time>2015-10-18T07:45:51.301Z</time>
      </trkpt>
      <trkpt lat="45.62858" lon="4.74633">
        <ele>328</ele>
        <time>2015-10-18T07:45:55.331Z</time>
      </trkpt>
      <trkpt lat="45.62859" lon="4.74637">
        <ele>328</ele>
        <time>2015-10-18T07:45:56.292Z</time>
      </trkpt>
      <trkpt lat="45.62856" lon="4.74646">
        <ele>328</ele>
        <time>2015-10-18T07:46:03.352Z</time>
      </trkpt>
      <trkpt lat="45.62854" lon="4.74648">
        <ele>329</ele>
        <time>2015-10-18T07:46:04.300Z</time>
      </trkpt>
      <trkpt lat="45.62846" lon="4.7465">
        <ele>329</ele>
        <time>2015-10-18T07:46:08.345Z</time>
      </trkpt>
      <trkpt lat="45.62844" lon="4.7465">
        <ele>329</ele>
        <time>2015-10-18T07:46:09.372Z</time>
      </trkpt>
      <trkpt lat="45.62839" lon="4.74652">
        <ele>330</ele>
        <time>2015-10-18T07:46:11.325Z</time>
      </trkpt>
      <trkpt lat="45.62835" lon="4.74652">
        <ele>330</ele>
        <time>2015-10-18T07:46:12.286Z</time>
      </trkpt>
      <trkpt lat="45.62828" lon="4.74657">
        <ele>331</ele>
        <time>2015-10-18T07:46:15.303Z</time>
      </trkpt>
      <trkpt lat="45.62827" lon="4.74661">
        <ele>332</ele>
        <time>2015-10-18T07:46:16.281Z</time>
      </trkpt>
      <trkpt lat="45.62825" lon="4.74672">
        <ele>332</ele>
        <time>2015-10-18T07:46:18.427Z</time>
      </trkpt>
      <trkpt lat="45.62825" lon="4.74676">
        <ele>332</ele>
        <time>2015-10-18T07:46:19.396Z</time>
      </trkpt>
      <trkpt lat="45.62825" lon="4.74687">
        <ele>332</ele>
        <time>2015-10-18T07:46:21.590Z</time>
      </trkpt>
      <trkpt lat="45.62825" lon="4.74691">
        <ele>332</ele>
        <time>2015-10-18T07:46:22.404Z</time>
      </trkpt>
      <trkpt lat="45.62827" lon="4.74702">
        <ele>332</ele>
        <time>2015-10-18T07:46:24.411Z</time>
      </trkpt>
      <trkpt lat="45.62827" lon="4.74706">
        <ele>332</ele>
        <time>2015-10-18T07:46:25.397Z</time>
      </trkpt>
      <trkpt lat="45.62823" lon="4.74717">
        <ele>332</ele>
        <time>2015-10-18T07:46:29.409Z</time>
      </trkpt>
      <trkpt lat="45.62824" lon="4.74721">
        <ele>332</ele>
        <time>2015-10-18T07:46:30.393Z</time>
      </trkpt>
      <trkpt lat="45.62824" lon="4.74732">
        <ele>332</ele>
        <time>2015-10-18T07:46:32.417Z</time>
      </trkpt>
      <trkpt lat="45.62825" lon="4.74736">
        <ele>332</ele>
        <time>2015-10-18T07:46:33.411Z</time>
      </trkpt>
      <trkpt lat="45.62826" lon="4.74747">
        <ele>332</ele>
        <time>2015-10-18T07:46:35.485Z</time>
      </trkpt>
      <trkpt lat="45.62826" lon="4.74749">
        <ele>332</ele>
        <time>2015-10-18T07:46:36.392Z</time>
      </trkpt>
      <trkpt lat="45.62832" lon="4.74757">
        <ele>331</ele>
        <time>2015-10-18T07:46:39.392Z</time>
      </trkpt>
      <trkpt lat="45.62839" lon="4.74753">
        <ele>330</ele>
        <time>2015-10-18T07:46:40.386Z</time>
      </trkpt>
      <trkpt lat="45.62844" lon="4.74753">
        <ele>329</ele>
        <time>2015-10-18T07:46:41.399Z</time>
      </trkpt>
      <trkpt lat="45.6285" lon="4.74755">
        <ele>327</ele>
        <time>2015-10-18T07:46:42.408Z</time>
      </trkpt>
      <trkpt lat="45.6285" lon="4.74755">
        <ele>327</ele>
        <time>2015-10-18T07:46:42.421Z</time>
      </trkpt>
      <trkpt lat="45.62858" lon="4.74766">
        <ele>325</ele>
        <time>2015-10-18T07:46:43.403Z</time>
      </trkpt>
      <trkpt lat="45.62863" lon="4.74772">
        <ele>324</ele>
        <time>2015-10-18T07:46:44.422Z</time>
      </trkpt>
      <trkpt lat="45.62869" lon="4.74779">
        <ele>323</ele>
        <time>2015-10-18T07:46:45.422Z</time>
      </trkpt>
      <trkpt lat="45.62873" lon="4.74785">
        <ele>323</ele>
        <time>2015-10-18T07:46:46.428Z</time>
      </trkpt>
      <trkpt lat="45.62876" lon="4.74787">
        <ele>322</ele>
        <time>2015-10-18T07:46:47.409Z</time>
      </trkpt>
      <trkpt lat="45.62885" lon="4.74787">
        <ele>322</ele>
        <time>2015-10-18T07:46:49.420Z</time>
      </trkpt>
      <trkpt lat="45.6289" lon="4.74785">
        <ele>322</ele>
        <time>2015-10-18T07:46:50.395Z</time>
      </trkpt>
      <trkpt lat="45.62896" lon="4.74781">
        <ele>321</ele>
        <time>2015-10-18T07:46:51.415Z</time>
      </trkpt>
      <trkpt lat="45.62901" lon="4.74775">
        <ele>322</ele>
        <time>2015-10-18T07:46:52.411Z</time>
      </trkpt>
      <trkpt lat="45.62907" lon="4.7477">
        <ele>321</ele>
        <time>2015-10-18T07:46:53.422Z</time>
      </trkpt>
      <trkpt lat="45.62913" lon="4.74764">
        <ele>321</ele>
        <time>2015-10-18T07:46:54.500Z</time>
      </trkpt>
      <trkpt lat="45.62916" lon="4.74757">
        <ele>321</ele>
        <time>2015-10-18T07:46:55.445Z</time>
      </trkpt>
      <trkpt lat="45.62919" lon="4.74751">
        <ele>320</ele>
        <time>2015-10-18T07:46:56.416Z</time>
      </trkpt>
      <trkpt lat="45.62921" lon="4.74745">
        <ele>320</ele>
        <time>2015-10-18T07:46:57.431Z</time>
      </trkpt>
      <trkpt lat="45.62921" lon="4.74738">
        <ele>320</ele>
        <time>2015-10-18T07:46:58.422Z</time>
      </trkpt>
      <trkpt lat="45.62921" lon="4.74732">
        <ele>319</ele>
        <time>2015-10-18T07:46:59.427Z</time>
      </trkpt>
      <trkpt lat="45.62922" lon="4.74725">
        <ele>319</ele>
        <time>2015-10-18T07:47:00.425Z</time>
      </trkpt>
      <trkpt lat="45.62922" lon="4.74717">
        <ele>319</ele>
        <time>2015-10-18T07:47:02.434Z</time>
      </trkpt>
      <trkpt lat="45.62924" lon="4.74712">
        <ele>319</ele>
        <time>2015-10-18T07:47:03.430Z</time>
      </trkpt>
      <trkpt lat="45.62924" lon="4.74702">
        <ele>319</ele>
        <time>2015-10-18T07:47:05.437Z</time>
      </trkpt>
      <trkpt lat="45.62924" lon="4.74697">
        <ele>320</ele>
        <time>2015-10-18T07:47:06.411Z</time>
      </trkpt>
      <trkpt lat="45.62925" lon="4.74687">
        <ele>321</ele>
        <time>2015-10-18T07:47:08.445Z</time>
      </trkpt>
      <trkpt lat="45.62925" lon="4.74682">
        <ele>321</ele>
        <time>2015-10-18T07:47:09.417Z</time>
      </trkpt>
      <trkpt lat="45.62926" lon="4.74674">
        <ele>322</ele>
        <time>2015-10-18T07:47:11.438Z</time>
      </trkpt>
      <trkpt lat="45.62927" lon="4.74667">
        <ele>322</ele>
        <time>2015-10-18T07:47:12.419Z</time>
      </trkpt>
      <trkpt lat="45.62927" lon="4.74657">
        <ele>322</ele>
        <time>2015-10-18T07:47:14.450Z</time>
      </trkpt>
      <trkpt lat="45.62927" lon="4.74648">
        <ele>321</ele>
        <time>2015-10-18T07:47:15.423Z</time>
      </trkpt>
      <trkpt lat="45.62927" lon="4.74642">
        <ele>320</ele>
        <time>2015-10-18T07:47:16.459Z</time>
      </trkpt>
      <trkpt lat="45.62926" lon="4.74635">
        <ele>320</ele>
        <time>2015-10-18T07:47:17.423Z</time>
      </trkpt>
      <trkpt lat="45.62924" lon="4.74624">
        <ele>319</ele>
        <time>2015-10-18T07:47:19.506Z</time>
      </trkpt>
      <trkpt lat="45.62924" lon="4.74618">
        <ele>319</ele>
        <time>2015-10-18T07:47:20.422Z</time>
      </trkpt>
      <trkpt lat="45.62921" lon="4.74607">
        <ele>319</ele>
        <time>2015-10-18T07:47:22.444Z</time>
      </trkpt>
      <trkpt lat="45.62919" lon="4.74601">
        <ele>319</ele>
        <time>2015-10-18T07:47:23.425Z</time>
      </trkpt>
      <trkpt lat="45.62917" lon="4.7459">
        <ele>319</ele>
        <time>2015-10-18T07:47:25.461Z</time>
      </trkpt>
      <trkpt lat="45.62915" lon="4.74584">
        <ele>320</ele>
        <time>2015-10-18T07:47:26.414Z</time>
      </trkpt>
      <trkpt lat="45.62913" lon="4.74573">
        <ele>320</ele>
        <time>2015-10-18T07:47:28.443Z</time>
      </trkpt>
      <trkpt lat="45.62911" lon="4.74566">
        <ele>320</ele>
        <time>2015-10-18T07:47:29.424Z</time>
      </trkpt>
      <trkpt lat="45.62909" lon="4.74558">
        <ele>320</ele>
        <time>2015-10-18T07:47:31.446Z</time>
      </trkpt>
      <trkpt lat="45.62907" lon="4.74554">
        <ele>320</ele>
        <time>2015-10-18T07:47:32.405Z</time>
      </trkpt>
      <trkpt lat="45.62901" lon="4.74545">
        <ele>320</ele>
        <time>2015-10-18T07:47:35.458Z</time>
      </trkpt>
      <trkpt lat="45.62901" lon="4.74541">
        <ele>319</ele>
        <time>2015-10-18T07:47:36.431Z</time>
      </trkpt>
      <trkpt lat="45.62907" lon="4.74532">
        <ele>319</ele>
        <time>2015-10-18T07:47:38.459Z</time>
      </trkpt>
      <trkpt lat="45.62911" lon="4.74528">
        <ele>318</ele>
        <time>2015-10-18T07:47:39.420Z</time>
      </trkpt>
      <trkpt lat="45.62917" lon="4.74521">
        <ele>314</ele>
        <time>2015-10-18T07:47:42.446Z</time>
      </trkpt>
      <trkpt lat="45.62919" lon="4.74515">
        <ele>314</ele>
        <time>2015-10-18T07:47:43.401Z</time>
      </trkpt>
      <trkpt lat="45.62922" lon="4.74509">
        <ele>314</ele>
        <time>2015-10-18T07:47:44.452Z</time>
      </trkpt>
      <trkpt lat="45.62926" lon="4.74502">
        <ele>314</ele>
        <time>2015-10-18T07:47:45.421Z</time>
      </trkpt>
      <trkpt lat="45.62931" lon="4.74496">
        <ele>311</ele>
        <time>2015-10-18T07:47:46.448Z</time>
      </trkpt>
      <trkpt lat="45.62936" lon="4.74487">
        <ele>310</ele>
        <time>2015-10-18T07:47:47.423Z</time>
      </trkpt>
      <trkpt lat="45.62943" lon="4.74478">
        <ele>309</ele>
        <time>2015-10-18T07:47:48.446Z</time>
      </trkpt>
      <trkpt lat="45.6295" lon="4.7447">
        <ele>308</ele>
        <time>2015-10-18T07:47:49.410Z</time>
      </trkpt>
      <trkpt lat="45.6295" lon="4.7447">
        <ele>308</ele>
        <time>2015-10-18T07:47:49.447Z</time>
      </trkpt>
      <trkpt lat="45.62958" lon="4.74459">
        <ele>307</ele>
        <time>2015-10-18T07:47:50.410Z</time>
      </trkpt>
      <trkpt lat="45.62958" lon="4.74459">
        <ele>307</ele>
        <time>2015-10-18T07:47:50.431Z</time>
      </trkpt>
      <trkpt lat="45.62964" lon="4.74448">
        <ele>307</ele>
        <time>2015-10-18T07:47:51.405Z</time>
      </trkpt>
      <trkpt lat="45.62964" lon="4.74448">
        <ele>307</ele>
        <time>2015-10-18T07:47:51.432Z</time>
      </trkpt>
      <trkpt lat="45.62972" lon="4.74438">
        <ele>306</ele>
        <time>2015-10-18T07:47:52.413Z</time>
      </trkpt>
      <trkpt lat="45.62972" lon="4.74438">
        <ele>306</ele>
        <time>2015-10-18T07:47:52.448Z</time>
      </trkpt>
      <trkpt lat="45.62978" lon="4.74427">
        <ele>305</ele>
        <time>2015-10-18T07:47:53.408Z</time>
      </trkpt>
      <trkpt lat="45.62978" lon="4.74427">
        <ele>305</ele>
        <time>2015-10-18T07:47:53.554Z</time>
      </trkpt>
      <trkpt lat="45.62986" lon="4.74414">
        <ele>302</ele>
        <time>2015-10-18T07:47:54.403Z</time>
      </trkpt>
      <trkpt lat="45.62986" lon="4.74414">
        <ele>302</ele>
        <time>2015-10-18T07:47:54.433Z</time>
      </trkpt>
      <trkpt lat="45.62992" lon="4.74403">
        <ele>302</ele>
        <time>2015-10-18T07:47:55.423Z</time>
      </trkpt>
      <trkpt lat="45.62992" lon="4.74403">
        <ele>302</ele>
        <time>2015-10-18T07:47:55.463Z</time>
      </trkpt>
      <trkpt lat="45.62999" lon="4.74393">
        <ele>301</ele>
        <time>2015-10-18T07:47:56.395Z</time>
      </trkpt>
      <trkpt lat="45.62999" lon="4.74393">
        <ele>301</ele>
        <time>2015-10-18T07:47:56.442Z</time>
      </trkpt>
      <trkpt lat="45.63004" lon="4.74382">
        <ele>297</ele>
        <time>2015-10-18T07:47:57.409Z</time>
      </trkpt>
      <trkpt lat="45.63008" lon="4.74375">
        <ele>297</ele>
        <time>2015-10-18T07:47:58.456Z</time>
      </trkpt>
      <trkpt lat="45.63012" lon="4.74367">
        <ele>296</ele>
        <time>2015-10-18T07:47:59.405Z</time>
      </trkpt>
      <trkpt lat="45.63016" lon="4.74358">
        <ele>296</ele>
        <time>2015-10-18T07:48:00.447Z</time>
      </trkpt>
      <trkpt lat="45.63021" lon="4.74352">
        <ele>296</ele>
        <time>2015-10-18T07:48:01.404Z</time>
      </trkpt>
      <trkpt lat="45.63028" lon="4.74348">
        <ele>296</ele>
        <time>2015-10-18T07:48:02.434Z</time>
      </trkpt>
      <trkpt lat="45.63034" lon="4.74341">
        <ele>295</ele>
        <time>2015-10-18T07:48:03.420Z</time>
      </trkpt>
      <trkpt lat="45.6304" lon="4.74335">
        <ele>294</ele>
        <time>2015-10-18T07:48:04.453Z</time>
      </trkpt>
      <trkpt lat="45.63048" lon="4.74328">
        <ele>291</ele>
        <time>2015-10-18T07:48:05.418Z</time>
      </trkpt>
      <trkpt lat="45.63054" lon="4.74324">
        <ele>291</ele>
        <time>2015-10-18T07:48:06.445Z</time>
      </trkpt>
      <trkpt lat="45.63063" lon="4.74324">
        <ele>290</ele>
        <time>2015-10-18T07:48:07.401Z</time>
      </trkpt>
      <trkpt lat="45.63067" lon="4.74328">
        <ele>289</ele>
        <time>2015-10-18T07:48:08.419Z</time>
      </trkpt>
      <trkpt lat="45.63071" lon="4.74335">
        <ele>290</ele>
        <time>2015-10-18T07:48:09.404Z</time>
      </trkpt>
      <trkpt lat="45.63073" lon="4.74341">
        <ele>290</ele>
        <time>2015-10-18T07:48:10.428Z</time>
      </trkpt>
      <trkpt lat="45.63075" lon="4.7435">
        <ele>291</ele>
        <time>2015-10-18T07:48:11.411Z</time>
      </trkpt>
      <trkpt lat="45.63078" lon="4.74356">
        <ele>292</ele>
        <time>2015-10-18T07:48:12.432Z</time>
      </trkpt>
      <trkpt lat="45.6308" lon="4.74363">
        <ele>293</ele>
        <time>2015-10-18T07:48:13.411Z</time>
      </trkpt>
      <trkpt lat="45.63082" lon="4.74367">
        <ele>293</ele>
        <time>2015-10-18T07:48:14.427Z</time>
      </trkpt>
      <trkpt lat="45.63086" lon="4.74375">
        <ele>289</ele>
        <time>2015-10-18T07:48:15.430Z</time>
      </trkpt>
      <trkpt lat="45.63089" lon="4.7438">
        <ele>289</ele>
        <time>2015-10-18T07:48:16.473Z</time>
      </trkpt>
      <trkpt lat="45.63092" lon="4.74386">
        <ele>289</ele>
        <time>2015-10-18T07:48:17.425Z</time>
      </trkpt>
      <trkpt lat="45.63095" lon="4.74391">
        <ele>290</ele>
        <time>2015-10-18T07:48:18.427Z</time>
      </trkpt>
      <trkpt lat="45.63098" lon="4.74397">
        <ele>290</ele>
        <time>2015-10-18T07:48:19.394Z</time>
      </trkpt>
      <trkpt lat="45.63103" lon="4.74401">
        <ele>290</ele>
        <time>2015-10-18T07:48:20.420Z</time>
      </trkpt>
      <trkpt lat="45.63106" lon="4.74406">
        <ele>290</ele>
        <time>2015-10-18T07:48:21.396Z</time>
      </trkpt>
      <trkpt lat="45.63109" lon="4.74412">
        <ele>290</ele>
        <time>2015-10-18T07:48:22.453Z</time>
      </trkpt>
      <trkpt lat="45.63111" lon="4.74416">
        <ele>290</ele>
        <time>2015-10-18T07:48:23.414Z</time>
      </trkpt>
      <trkpt lat="45.63115" lon="4.74421">
        <ele>293</ele>
        <time>2015-10-18T07:48:24.437Z</time>
      </trkpt>
      <trkpt lat="45.63118" lon="4.74427">
        <ele>293</ele>
        <time>2015-10-18T07:48:25.412Z</time>
      </trkpt>
      <trkpt lat="45.63122" lon="4.74436">
        <ele>293</ele>
        <time>2015-10-18T07:48:27.436Z</time>
      </trkpt>
      <trkpt lat="45.63124" lon="4.7444">
        <ele>293</ele>
        <time>2015-10-18T07:48:28.408Z</time>
      </trkpt>
      <trkpt lat="45.6313" lon="4.74448">
        <ele>292</ele>
        <time>2015-10-18T07:48:30.431Z</time>
      </trkpt>
      <trkpt lat="45.63131" lon="4.74453">
        <ele>292</ele>
        <time>2015-10-18T07:48:31.424Z</time>
      </trkpt>
      <trkpt lat="45.63134" lon="4.74461">
        <ele>292</ele>
        <time>2015-10-18T07:48:33.457Z</time>
      </trkpt>
      <trkpt lat="45.63136" lon="4.74468">
        <ele>292</ele>
        <time>2015-10-18T07:48:34.419Z</time>
      </trkpt>
      <trkpt lat="45.63139" lon="4.74476">
        <ele>292</ele>
        <time>2015-10-18T07:48:36.449Z</time>
      </trkpt>
      <trkpt lat="45.63141" lon="4.74481">
        <ele>292</ele>
        <time>2015-10-18T07:48:37.411Z</time>
      </trkpt>
      <trkpt lat="45.63149" lon="4.74485">
        <ele>292</ele>
        <time>2015-10-18T07:48:40.446Z</time>
      </trkpt>
      <trkpt lat="45.63151" lon="4.74483">
        <ele>292</ele>
        <time>2015-10-18T07:48:41.418Z</time>
      </trkpt>
      <trkpt lat="45.63157" lon="4.74481">
        <ele>292</ele>
        <time>2015-10-18T07:48:43.457Z</time>
      </trkpt>
      <trkpt lat="45.63161" lon="4.74481">
        <ele>292</ele>
        <time>2015-10-18T07:48:44.423Z</time>
      </trkpt>
      <trkpt lat="45.63168" lon="4.74474">
        <ele>287</ele>
        <time>2015-10-18T07:48:46.445Z</time>
      </trkpt>
      <trkpt lat="45.63171" lon="4.74472">
        <ele>287</ele>
        <time>2015-10-18T07:48:47.415Z</time>
      </trkpt>
      <trkpt lat="45.6318" lon="4.7447">
        <ele>287</ele>
        <time>2015-10-18T07:48:50.433Z</time>
      </trkpt>
      <trkpt lat="45.63183" lon="4.7447">
        <ele>286</ele>
        <time>2015-10-18T07:48:51.421Z</time>
      </trkpt>
      <trkpt lat="45.63191" lon="4.74468">
        <ele>286</ele>
        <time>2015-10-18T07:48:53.450Z</time>
      </trkpt>
      <trkpt lat="45.63193" lon="4.74468">
        <ele>286</ele>
        <time>2015-10-18T07:48:54.422Z</time>
      </trkpt>
      <trkpt lat="45.63201" lon="4.74466">
        <ele>285</ele>
        <time>2015-10-18T07:48:56.453Z</time>
      </trkpt>
      <trkpt lat="45.63206" lon="4.74466">
        <ele>285</ele>
        <time>2015-10-18T07:48:57.410Z</time>
      </trkpt>
      <trkpt lat="45.6321" lon="4.74463">
        <ele>285</ele>
        <time>2015-10-18T07:48:58.432Z</time>
      </trkpt>
      <trkpt lat="45.63214" lon="4.74461">
        <ele>284</ele>
        <time>2015-10-18T07:48:59.397Z</time>
      </trkpt>
      <trkpt lat="45.6322" lon="4.74461">
        <ele>284</ele>
        <time>2015-10-18T07:49:00.434Z</time>
      </trkpt>
      <trkpt lat="45.63224" lon="4.74457">
        <ele>284</ele>
        <time>2015-10-18T07:49:01.396Z</time>
      </trkpt>
      <trkpt lat="45.6323" lon="4.74448">
        <ele>284</ele>
        <time>2015-10-18T07:49:03.449Z</time>
      </trkpt>
      <trkpt lat="45.63235" lon="4.74448">
        <ele>283</ele>
        <time>2015-10-18T07:49:04.416Z</time>
      </trkpt>
      <trkpt lat="45.6324" lon="4.74446">
        <ele>283</ele>
        <time>2015-10-18T07:49:05.441Z</time>
      </trkpt>
      <trkpt lat="45.63245" lon="4.74444">
        <ele>283</ele>
        <time>2015-10-18T07:49:06.437Z</time>
      </trkpt>
      <trkpt lat="45.63251" lon="4.7444">
        <ele>278</ele>
        <time>2015-10-18T07:49:07.436Z</time>
      </trkpt>
      <trkpt lat="45.63258" lon="4.74438">
        <ele>278</ele>
        <time>2015-10-18T07:49:08.415Z</time>
      </trkpt>
      <trkpt lat="45.63267" lon="4.74438">
        <ele>277</ele>
        <time>2015-10-18T07:49:09.434Z</time>
      </trkpt>
      <trkpt lat="45.63274" lon="4.7444">
        <ele>276</ele>
        <time>2015-10-18T07:49:10.408Z</time>
      </trkpt>
      <trkpt lat="45.63274" lon="4.7444">
        <ele>276</ele>
        <time>2015-10-18T07:49:10.432Z</time>
      </trkpt>
      <trkpt lat="45.63284" lon="4.74442">
        <ele>276</ele>
        <time>2015-10-18T07:49:11.405Z</time>
      </trkpt>
      <trkpt lat="45.63284" lon="4.74442">
        <ele>276</ele>
        <time>2015-10-18T07:49:11.445Z</time>
      </trkpt>
      <trkpt lat="45.63294" lon="4.74444">
        <ele>275</ele>
        <time>2015-10-18T07:49:12.403Z</time>
      </trkpt>
      <trkpt lat="45.63294" lon="4.74444">
        <ele>275</ele>
        <time>2015-10-18T07:49:12.436Z</time>
      </trkpt>
      <trkpt lat="45.63303" lon="4.74446">
        <ele>274</ele>
        <time>2015-10-18T07:49:13.393Z</time>
      </trkpt>
      <trkpt lat="45.63303" lon="4.74446">
        <ele>274</ele>
        <time>2015-10-18T07:49:13.538Z</time>
      </trkpt>
      <trkpt lat="45.63313" lon="4.74446">
        <ele>274</ele>
        <time>2015-10-18T07:49:14.395Z</time>
      </trkpt>
      <trkpt lat="45.63319" lon="4.74446">
        <ele>273</ele>
        <time>2015-10-18T07:49:15.423Z</time>
      </trkpt>
      <trkpt lat="45.63324" lon="4.74442">
        <ele>273</ele>
        <time>2015-10-18T07:49:16.381Z</time>
      </trkpt>
      <trkpt lat="45.63327" lon="4.74436">
        <ele>273</ele>
        <time>2015-10-18T07:49:17.435Z</time>
      </trkpt>
      <trkpt lat="45.63328" lon="4.74429">
        <ele>272</ele>
        <time>2015-10-18T07:49:18.405Z</time>
      </trkpt>
      <trkpt lat="45.63329" lon="4.74421">
        <ele>271</ele>
        <time>2015-10-18T07:49:19.443Z</time>
      </trkpt>
      <trkpt lat="45.63327" lon="4.74414">
        <ele>271</ele>
        <time>2015-10-18T07:49:20.411Z</time>
      </trkpt>
      <trkpt lat="45.63326" lon="4.74408">
        <ele>271</ele>
        <time>2015-10-18T07:49:21.442Z</time>
      </trkpt>
      <trkpt lat="45.63326" lon="4.74399">
        <ele>272</ele>
        <time>2015-10-18T07:49:22.403Z</time>
      </trkpt>
      <trkpt lat="45.63325" lon="4.74393">
        <ele>272</ele>
        <time>2015-10-18T07:49:23.454Z</time>
      </trkpt>
      <trkpt lat="45.63325" lon="4.74384">
        <ele>272</ele>
        <time>2015-10-18T07:49:24.407Z</time>
      </trkpt>
      <trkpt lat="45.63325" lon="4.74375">
        <ele>272</ele>
        <time>2015-10-18T07:49:25.423Z</time>
      </trkpt>
      <trkpt lat="45.63324" lon="4.74369">
        <ele>272</ele>
        <time>2015-10-18T07:49:26.406Z</time>
      </trkpt>
      <trkpt lat="45.63323" lon="4.7436">
        <ele>272</ele>
        <time>2015-10-18T07:49:28.432Z</time>
      </trkpt>
      <trkpt lat="45.63318" lon="4.74356">
        <ele>272</ele>
        <time>2015-10-18T07:49:29.408Z</time>
      </trkpt>
      <trkpt lat="45.63315" lon="4.7435">
        <ele>272</ele>
        <time>2015-10-18T07:49:30.430Z</time>
      </trkpt>
      <trkpt lat="45.63313" lon="4.74343">
        <ele>272</ele>
        <time>2015-10-18T07:49:31.403Z</time>
      </trkpt>
      <trkpt lat="45.63311" lon="4.74335">
        <ele>272</ele>
        <time>2015-10-18T07:49:32.442Z</time>
      </trkpt>
      <trkpt lat="45.63311" lon="4.74328">
        <ele>272</ele>
        <time>2015-10-18T07:49:33.437Z</time>
      </trkpt>
      <trkpt lat="45.63317" lon="4.74324">
        <ele>271</ele>
        <time>2015-10-18T07:49:37.445Z</time>
      </trkpt>
      <trkpt lat="45.63321" lon="4.74326">
        <ele>271</ele>
        <time>2015-10-18T07:49:38.410Z</time>
      </trkpt>
      <trkpt lat="45.63324" lon="4.7433">
        <ele>271</ele>
        <time>2015-10-18T07:49:39.432Z</time>
      </trkpt>
      <trkpt lat="45.63328" lon="4.74335">
        <ele>270</ele>
        <time>2015-10-18T07:49:40.401Z</time>
      </trkpt>
      <trkpt lat="45.63333" lon="4.74339">
        <ele>270</ele>
        <time>2015-10-18T07:49:41.426Z</time>
      </trkpt>
      <trkpt lat="45.63339" lon="4.74343">
        <ele>268</ele>
        <time>2015-10-18T07:49:42.408Z</time>
      </trkpt>
      <trkpt lat="45.63343" lon="4.74345">
        <ele>268</ele>
        <time>2015-10-18T07:49:43.433Z</time>
      </trkpt>
      <trkpt lat="45.63347" lon="4.7435">
        <ele>268</ele>
        <time>2015-10-18T07:49:44.399Z</time>
      </trkpt>
      <trkpt lat="45.63354" lon="4.74356">
        <ele>268</ele>
        <time>2015-10-18T07:49:45.439Z</time>
      </trkpt>
      <trkpt lat="45.63359" lon="4.7436">
        <ele>267</ele>
        <time>2015-10-18T07:49:46.402Z</time>
      </trkpt>
      <trkpt lat="45.63366" lon="4.74365">
        <ele>267</ele>
        <time>2015-10-18T07:50:03.450Z</time>
      </trkpt>
      <trkpt lat="45.63368" lon="4.74367">
        <ele>267</ele>
        <time>2015-10-18T07:50:04.405Z</time>
      </trkpt>
      <trkpt lat="45.63373" lon="4.74375">
        <ele>267</ele>
        <time>2015-10-18T07:50:06.442Z</time>
      </trkpt>
      <trkpt lat="45.63374" lon="4.74378">
        <ele>267</ele>
        <time>2015-10-18T07:50:07.430Z</time>
      </trkpt>
      <trkpt lat="45.63383" lon="4.74378">
        <ele>266</ele>
        <time>2015-10-18T07:50:20.447Z</time>
      </trkpt>
      <trkpt lat="45.63384" lon="4.7438">
        <ele>266</ele>
        <time>2015-10-18T07:50:21.401Z</time>
      </trkpt>
      <trkpt lat="45.63384" lon="4.74391">
        <ele>266</ele>
        <time>2015-10-18T07:50:23.418Z</time>
      </trkpt>
      <trkpt lat="45.63382" lon="4.74393">
        <ele>266</ele>
        <time>2015-10-18T07:50:24.434Z</time>
      </trkpt>
      <trkpt lat="45.63383" lon="4.74403">
        <ele>265</ele>
        <time>2015-10-18T07:50:34.422Z</time>
      </trkpt>
      <trkpt lat="45.63385" lon="4.74408">
        <ele>265</ele>
        <time>2015-10-18T07:50:35.410Z</time>
      </trkpt>
      <trkpt lat="45.63391" lon="4.74416">
        <ele>264</ele>
        <time>2015-10-18T07:50:37.421Z</time>
      </trkpt>
      <trkpt lat="45.63393" lon="4.74421">
        <ele>262</ele>
        <time>2015-10-18T07:50:38.380Z</time>
      </trkpt>
      <trkpt lat="45.63393" lon="4.74421">
        <ele>262</ele>
        <time>2015-10-18T07:50:38.416Z</time>
      </trkpt>
      <trkpt lat="45.63399" lon="4.74431">
        <ele>261</ele>
        <time>2015-10-18T07:50:39.420Z</time>
      </trkpt>
      <trkpt lat="45.63403" lon="4.7444">
        <ele>261</ele>
        <time>2015-10-18T07:50:40.458Z</time>
      </trkpt>
      <trkpt lat="45.63406" lon="4.74448">
        <ele>261</ele>
        <time>2015-10-18T07:50:41.407Z</time>
      </trkpt>
      <trkpt lat="45.63411" lon="4.74457">
        <ele>260</ele>
        <time>2015-10-18T07:50:42.429Z</time>
      </trkpt>
      <trkpt lat="45.63414" lon="4.74466">
        <ele>260</ele>
        <time>2015-10-18T07:50:43.389Z</time>
      </trkpt>
      <trkpt lat="45.63416" lon="4.74472">
        <ele>259</ele>
        <time>2015-10-18T07:50:44.413Z</time>
      </trkpt>
      <trkpt lat="45.63419" lon="4.74481">
        <ele>258</ele>
        <time>2015-10-18T07:50:45.386Z</time>
      </trkpt>
      <trkpt lat="45.63422" lon="4.74489">
        <ele>256</ele>
        <time>2015-10-18T07:50:46.414Z</time>
      </trkpt>
      <trkpt lat="45.63427" lon="4.74498">
        <ele>256</ele>
        <time>2015-10-18T07:50:47.406Z</time>
      </trkpt>
      <trkpt lat="45.63431" lon="4.74506">
        <ele>253</ele>
        <time>2015-10-18T07:50:48.418Z</time>
      </trkpt>
      <trkpt lat="45.63434" lon="4.74513">
        <ele>253</ele>
        <time>2015-10-18T07:50:49.431Z</time>
      </trkpt>
      <trkpt lat="45.63437" lon="4.74517">
        <ele>254</ele>
        <time>2015-10-18T07:50:50.431Z</time>
      </trkpt>
      <trkpt lat="45.6344" lon="4.74526">
        <ele>254</ele>
        <time>2015-10-18T07:50:51.387Z</time>
      </trkpt>
      <trkpt lat="45.63441" lon="4.74532">
        <ele>253</ele>
        <time>2015-10-18T07:50:52.427Z</time>
      </trkpt>
      <trkpt lat="45.63445" lon="4.74541">
        <ele>253</ele>
        <time>2015-10-18T07:50:53.393Z</time>
      </trkpt>
      <trkpt lat="45.63448" lon="4.74547">
        <ele>253</ele>
        <time>2015-10-18T07:50:54.415Z</time>
      </trkpt>
      <trkpt lat="45.63451" lon="4.74556">
        <ele>253</ele>
        <time>2015-10-18T07:50:55.391Z</time>
      </trkpt>
      <trkpt lat="45.63455" lon="4.7456">
        <ele>253</ele>
        <time>2015-10-18T07:50:56.428Z</time>
      </trkpt>
      <trkpt lat="45.63457" lon="4.74566">
        <ele>252</ele>
        <time>2015-10-18T07:50:57.402Z</time>
      </trkpt>
      <trkpt lat="45.6346" lon="4.74575">
        <ele>252</ele>
        <time>2015-10-18T07:50:58.427Z</time>
      </trkpt>
      <trkpt lat="45.63463" lon="4.74581">
        <ele>252</ele>
        <time>2015-10-18T07:50:59.421Z</time>
      </trkpt>
      <trkpt lat="45.63469" lon="4.74588">
        <ele>248</ele>
        <time>2015-10-18T07:51:00.444Z</time>
      </trkpt>
      <trkpt lat="45.63474" lon="4.74599">
        <ele>248</ele>
        <time>2015-10-18T07:51:01.392Z</time>
      </trkpt>
      <trkpt lat="45.63474" lon="4.74599">
        <ele>248</ele>
        <time>2015-10-18T07:51:01.416Z</time>
      </trkpt>
      <trkpt lat="45.63484" lon="4.74614">
        <ele>247</ele>
        <time>2015-10-18T07:51:02.405Z</time>
      </trkpt>
      <trkpt lat="45.63484" lon="4.74614">
        <ele>247</ele>
        <time>2015-10-18T07:51:02.424Z</time>
      </trkpt>
      <trkpt lat="45.63491" lon="4.74627">
        <ele>246</ele>
        <time>2015-10-18T07:51:03.398Z</time>
      </trkpt>
      <trkpt lat="45.63496" lon="4.74635">
        <ele>246</ele>
        <time>2015-10-18T07:51:04.424Z</time>
      </trkpt>
      <trkpt lat="45.63502" lon="4.74648">
        <ele>248</ele>
        <time>2015-10-18T07:51:05.397Z</time>
      </trkpt>
      <trkpt lat="45.63502" lon="4.74648">
        <ele>248</ele>
        <time>2015-10-18T07:51:05.434Z</time>
      </trkpt>
      <trkpt lat="45.63507" lon="4.74661">
        <ele>245</ele>
        <time>2015-10-18T07:51:06.392Z</time>
      </trkpt>
      <trkpt lat="45.63509" lon="4.74669">
        <ele>243</ele>
        <time>2015-10-18T07:51:07.420Z</time>
      </trkpt>
      <trkpt lat="45.63511" lon="4.74678">
        <ele>243</ele>
        <time>2015-10-18T07:51:08.393Z</time>
      </trkpt>
      <trkpt lat="45.63513" lon="4.74687">
        <ele>243</ele>
        <time>2015-10-18T07:51:09.424Z</time>
      </trkpt>
      <trkpt lat="45.63516" lon="4.74695">
        <ele>244</ele>
        <time>2015-10-18T07:51:10.393Z</time>
      </trkpt>
      <trkpt lat="45.63519" lon="4.74704">
        <ele>244</ele>
        <time>2015-10-18T07:51:11.408Z</time>
      </trkpt>
      <trkpt lat="45.63524" lon="4.7471">
        <ele>244</ele>
        <time>2015-10-18T07:51:12.397Z</time>
      </trkpt>
      <trkpt lat="45.63529" lon="4.74721">
        <ele>243</ele>
        <time>2015-10-18T07:51:13.411Z</time>
      </trkpt>
      <trkpt lat="45.63531" lon="4.7473">
        <ele>243</ele>
        <time>2015-10-18T07:51:14.396Z</time>
      </trkpt>
      <trkpt lat="45.63531" lon="4.7473">
        <ele>243</ele>
        <time>2015-10-18T07:51:14.406Z</time>
      </trkpt>
      <trkpt lat="45.63534" lon="4.74742">
        <ele>242</ele>
        <time>2015-10-18T07:51:15.403Z</time>
      </trkpt>
      <trkpt lat="45.63534" lon="4.74742">
        <ele>242</ele>
        <time>2015-10-18T07:51:15.418Z</time>
      </trkpt>
      <trkpt lat="45.63537" lon="4.74755">
        <ele>238</ele>
        <time>2015-10-18T07:51:16.388Z</time>
      </trkpt>
      <trkpt lat="45.63539" lon="4.74766">
        <ele>238</ele>
        <time>2015-10-18T07:51:17.440Z</time>
      </trkpt>
      <trkpt lat="45.63545" lon="4.74777">
        <ele>237</ele>
        <time>2015-10-18T07:51:18.407Z</time>
      </trkpt>
      <trkpt lat="45.6355" lon="4.74785">
        <ele>237</ele>
        <time>2015-10-18T07:51:19.429Z</time>
      </trkpt>
      <trkpt lat="45.63553" lon="4.74792">
        <ele>237</ele>
        <time>2015-10-18T07:51:20.393Z</time>
      </trkpt>
      <trkpt lat="45.63559" lon="4.74798">
        <ele>236</ele>
        <time>2015-10-18T07:51:21.455Z</time>
      </trkpt>
      <trkpt lat="45.63563" lon="4.74802">
        <ele>236</ele>
        <time>2015-10-18T07:51:22.398Z</time>
      </trkpt>
      <trkpt lat="45.63567" lon="4.74807">
        <ele>236</ele>
        <time>2015-10-18T07:51:23.429Z</time>
      </trkpt>
      <trkpt lat="45.63572" lon="4.74813">
        <ele>235</ele>
        <time>2015-10-18T07:51:24.400Z</time>
      </trkpt>
      <trkpt lat="45.63576" lon="4.7482">
        <ele>234</ele>
        <time>2015-10-18T07:51:25.444Z</time>
      </trkpt>
      <trkpt lat="45.63579" lon="4.74824">
        <ele>233</ele>
        <time>2015-10-18T07:51:26.389Z</time>
      </trkpt>
      <trkpt lat="45.63582" lon="4.74833">
        <ele>230</ele>
        <time>2015-10-18T07:51:27.419Z</time>
      </trkpt>
      <trkpt lat="45.63581" lon="4.74841">
        <ele>230</ele>
        <time>2015-10-18T07:51:28.398Z</time>
      </trkpt>
      <trkpt lat="45.63579" lon="4.7485">
        <ele>230</ele>
        <time>2015-10-18T07:51:29.428Z</time>
      </trkpt>
      <trkpt lat="45.63579" lon="4.74858">
        <ele>230</ele>
        <time>2015-10-18T07:51:30.390Z</time>
      </trkpt>
      <trkpt lat="45.63577" lon="4.74867">
        <ele>229</ele>
        <time>2015-10-18T07:51:31.467Z</time>
      </trkpt>
      <trkpt lat="45.63577" lon="4.74875">
        <ele>229</ele>
        <time>2015-10-18T07:51:32.383Z</time>
      </trkpt>
      <trkpt lat="45.63579" lon="4.74886">
        <ele>227</ele>
        <time>2015-10-18T07:51:33.445Z</time>
      </trkpt>
      <trkpt lat="45.6358" lon="4.74897">
        <ele>226</ele>
        <time>2015-10-18T07:51:34.399Z</time>
      </trkpt>
      <trkpt lat="45.63582" lon="4.74905">
        <ele>224</ele>
        <time>2015-10-18T07:51:35.417Z</time>
      </trkpt>
      <trkpt lat="45.63586" lon="4.74912">
        <ele>223</ele>
        <time>2015-10-18T07:51:36.403Z</time>
      </trkpt>
      <trkpt lat="45.6359" lon="4.74921">
        <ele>221</ele>
        <time>2015-10-18T07:51:37.430Z</time>
      </trkpt>
      <trkpt lat="45.63594" lon="4.74927">
        <ele>222</ele>
        <time>2015-10-18T07:51:38.401Z</time>
      </trkpt>
      <trkpt lat="45.63599" lon="4.74936">
        <ele>222</ele>
        <time>2015-10-18T07:51:39.445Z</time>
      </trkpt>
      <trkpt lat="45.63604" lon="4.74942">
        <ele>222</ele>
        <time>2015-10-18T07:51:40.419Z</time>
      </trkpt>
      <trkpt lat="45.6361" lon="4.74951">
        <ele>222</ele>
        <time>2015-10-18T07:51:41.433Z</time>
      </trkpt>
      <trkpt lat="45.63616" lon="4.74959">
        <ele>222</ele>
        <time>2015-10-18T07:51:42.399Z</time>
      </trkpt>
      <trkpt lat="45.63621" lon="4.74963">
        <ele>222</ele>
        <time>2015-10-18T07:51:43.534Z</time>
      </trkpt>
      <trkpt lat="45.63626" lon="4.74966">
        <ele>222</ele>
        <time>2015-10-18T07:51:44.401Z</time>
      </trkpt>
      <trkpt lat="45.63632" lon="4.74968">
        <ele>222</ele>
        <time>2015-10-18T07:51:45.424Z</time>
      </trkpt>
      <trkpt lat="45.63637" lon="4.74972">
        <ele>222</ele>
        <time>2015-10-18T07:51:46.396Z</time>
      </trkpt>
      <trkpt lat="45.63641" lon="4.74978">
        <ele>222</ele>
        <time>2015-10-18T07:51:47.427Z</time>
      </trkpt>
      <trkpt lat="45.63645" lon="4.74987">
        <ele>222</ele>
        <time>2015-10-18T07:51:48.394Z</time>
      </trkpt>
      <trkpt lat="45.6365" lon="4.74996">
        <ele>221</ele>
        <time>2015-10-18T07:51:49.433Z</time>
      </trkpt>
      <trkpt lat="45.63654" lon="4.75004">
        <ele>217</ele>
        <time>2015-10-18T07:51:50.395Z</time>
      </trkpt>
      <trkpt lat="45.6366" lon="4.75011">
        <ele>217</ele>
        <time>2015-10-18T07:51:51.423Z</time>
      </trkpt>
      <trkpt lat="45.63665" lon="4.75017">
        <ele>217</ele>
        <time>2015-10-18T07:51:52.403Z</time>
      </trkpt>
      <trkpt lat="45.63671" lon="4.75026">
        <ele>218</ele>
        <time>2015-10-18T07:51:53.442Z</time>
      </trkpt>
      <trkpt lat="45.63676" lon="4.75034">
        <ele>217</ele>
        <time>2015-10-18T07:51:54.409Z</time>
      </trkpt>
      <trkpt lat="45.6368" lon="4.75045">
        <ele>216</ele>
        <time>2015-10-18T07:51:55.542Z</time>
      </trkpt>
      <trkpt lat="45.63682" lon="4.75054">
        <ele>215</ele>
        <time>2015-10-18T07:51:56.405Z</time>
      </trkpt>
      <trkpt lat="45.63685" lon="4.75064">
        <ele>214</ele>
        <time>2015-10-18T07:51:57.432Z</time>
      </trkpt>
      <trkpt lat="45.63687" lon="4.75069">
        <ele>214</ele>
        <time>2015-10-18T07:51:58.399Z</time>
      </trkpt>
      <trkpt lat="45.6369" lon="4.75075">
        <ele>214</ele>
        <time>2015-10-18T07:51:59.446Z</time>
      </trkpt>
      <trkpt lat="45.63695" lon="4.75084">
        <ele>207</ele>
        <time>2015-10-18T07:52:00.405Z</time>
      </trkpt>
      <trkpt lat="45.63695" lon="4.75084">
        <ele>207</ele>
        <time>2015-10-18T07:52:00.429Z</time>
      </trkpt>
      <trkpt lat="45.63704" lon="4.75092">
        <ele>207</ele>
        <time>2015-10-18T07:52:01.395Z</time>
      </trkpt>
      <trkpt lat="45.63704" lon="4.75092">
        <ele>207</ele>
        <time>2015-10-18T07:52:01.426Z</time>
      </trkpt>
      <trkpt lat="45.63714" lon="4.75101">
        <ele>207</ele>
        <time>2015-10-18T07:52:02.403Z</time>
      </trkpt>
      <trkpt lat="45.63721" lon="4.75105">
        <ele>207</ele>
        <time>2015-10-18T07:52:03.438Z</time>
      </trkpt>
      <trkpt lat="45.63727" lon="4.75109">
        <ele>207</ele>
        <time>2015-10-18T07:52:04.398Z</time>
      </trkpt>
      <trkpt lat="45.63735" lon="4.75116">
        <ele>207</ele>
        <time>2015-10-18T07:52:07.465Z</time>
      </trkpt>
      <trkpt lat="45.63736" lon="4.75122">
        <ele>206</ele>
        <time>2015-10-18T07:52:08.415Z</time>
      </trkpt>
      <trkpt lat="45.63735" lon="4.75129">
        <ele>206</ele>
        <time>2015-10-18T07:52:09.446Z</time>
      </trkpt>
      <trkpt lat="45.63734" lon="4.75137">
        <ele>205</ele>
        <time>2015-10-18T07:52:10.399Z</time>
      </trkpt>
      <trkpt lat="45.63737" lon="4.75146">
        <ele>205</ele>
        <time>2015-10-18T07:52:12.425Z</time>
      </trkpt>
      <trkpt lat="45.63742" lon="4.75148">
        <ele>204</ele>
        <time>2015-10-18T07:52:13.420Z</time>
      </trkpt>
      <trkpt lat="45.63751" lon="4.75146">
        <ele>204</ele>
        <time>2015-10-18T07:52:15.456Z</time>
      </trkpt>
      <trkpt lat="45.63756" lon="4.75146">
        <ele>204</ele>
        <time>2015-10-18T07:52:16.425Z</time>
      </trkpt>
      <trkpt lat="45.63761" lon="4.75146">
        <ele>205</ele>
        <time>2015-10-18T07:52:17.445Z</time>
      </trkpt>
      <trkpt lat="45.63767" lon="4.75146">
        <ele>205</ele>
        <time>2015-10-18T07:52:18.415Z</time>
      </trkpt>
      <trkpt lat="45.63772" lon="4.75146">
        <ele>205</ele>
        <time>2015-10-18T07:52:19.445Z</time>
      </trkpt>
      <trkpt lat="45.63779" lon="4.75146">
        <ele>205</ele>
        <time>2015-10-18T07:52:20.410Z</time>
      </trkpt>
      <trkpt lat="45.63784" lon="4.75146">
        <ele>205</ele>
        <time>2015-10-18T07:52:21.452Z</time>
      </trkpt>
      <trkpt lat="45.63789" lon="4.75146">
        <ele>205</ele>
        <time>2015-10-18T07:52:22.407Z</time>
      </trkpt>
      <trkpt lat="45.63795" lon="4.75146">
        <ele>205</ele>
        <time>2015-10-18T07:52:23.443Z</time>
      </trkpt>
      <trkpt lat="45.638" lon="4.75146">
        <ele>205</ele>
        <time>2015-10-18T07:52:24.406Z</time>
      </trkpt>
      <trkpt lat="45.63804" lon="4.75144">
        <ele>205</ele>
        <time>2015-10-18T07:52:25.440Z</time>
      </trkpt>
      <trkpt lat="45.6381" lon="4.75144">
        <ele>205</ele>
        <time>2015-10-18T07:52:26.405Z</time>
      </trkpt>
      <trkpt lat="45.63814" lon="4.75144">
        <ele>205</ele>
        <time>2015-10-18T07:52:27.435Z</time>
      </trkpt>
      <trkpt lat="45.63819" lon="4.75144">
        <ele>205</ele>
        <time>2015-10-18T07:52:28.406Z</time>
      </trkpt>
      <trkpt lat="45.63825" lon="4.75146">
        <ele>205</ele>
        <time>2015-10-18T07:52:29.438Z</time>
      </trkpt>
      <trkpt lat="45.63829" lon="4.75146">
        <ele>205</ele>
        <time>2015-10-18T07:52:30.403Z</time>
      </trkpt>
      <trkpt lat="45.63834" lon="4.75146">
        <ele>205</ele>
        <time>2015-10-18T07:52:31.443Z</time>
      </trkpt>
      <trkpt lat="45.6384" lon="4.75146">
        <ele>205</ele>
        <time>2015-10-18T07:52:32.401Z</time>
      </trkpt>
      <trkpt lat="45.63845" lon="4.75146">
        <ele>205</ele>
        <time>2015-10-18T07:52:33.429Z</time>
      </trkpt>
      <trkpt lat="45.63851" lon="4.75148">
        <ele>205</ele>
        <time>2015-10-18T07:52:34.401Z</time>
      </trkpt>
      <trkpt lat="45.63855" lon="4.75146">
        <ele>205</ele>
        <time>2015-10-18T07:52:35.427Z</time>
      </trkpt>
      <trkpt lat="45.6386" lon="4.75146">
        <ele>205</ele>
        <time>2015-10-18T07:52:36.428Z</time>
      </trkpt>
      <trkpt lat="45.63866" lon="4.75146">
        <ele>205</ele>
        <time>2015-10-18T07:52:37.434Z</time>
      </trkpt>
      <trkpt lat="45.63871" lon="4.75148">
        <ele>205</ele>
        <time>2015-10-18T07:52:38.401Z</time>
      </trkpt>
      <trkpt lat="45.63876" lon="4.75148">
        <ele>205</ele>
        <time>2015-10-18T07:52:39.438Z</time>
      </trkpt>
      <trkpt lat="45.63881" lon="4.7515">
        <ele>205</ele>
        <time>2015-10-18T07:52:40.401Z</time>
      </trkpt>
      <trkpt lat="45.63887" lon="4.7515">
        <ele>205</ele>
        <time>2015-10-18T07:52:41.547Z</time>
      </trkpt>
      <trkpt lat="45.63891" lon="4.7515">
        <ele>205</ele>
        <time>2015-10-18T07:52:42.406Z</time>
      </trkpt>
      <trkpt lat="45.63898" lon="4.75152">
        <ele>204</ele>
        <time>2015-10-18T07:52:43.446Z</time>
      </trkpt>
      <trkpt lat="45.63903" lon="4.75152">
        <ele>204</ele>
        <time>2015-10-18T07:52:44.407Z</time>
      </trkpt>
      <trkpt lat="45.63908" lon="4.75152">
        <ele>204</ele>
        <time>2015-10-18T07:52:45.436Z</time>
      </trkpt>
      <trkpt lat="45.63915" lon="4.75152">
        <ele>204</ele>
        <time>2015-10-18T07:52:46.408Z</time>
      </trkpt>
      <trkpt lat="45.63921" lon="4.75152">
        <ele>204</ele>
        <time>2015-10-18T07:52:47.425Z</time>
      </trkpt>
      <trkpt lat="45.63927" lon="4.75152">
        <ele>204</ele>
        <time>2015-10-18T07:52:48.404Z</time>
      </trkpt>
      <trkpt lat="45.63932" lon="4.75154">
        <ele>204</ele>
        <time>2015-10-18T07:52:49.437Z</time>
      </trkpt>
      <trkpt lat="45.63937" lon="4.75154">
        <ele>205</ele>
        <time>2015-10-18T07:52:50.408Z</time>
      </trkpt>
      <trkpt lat="45.63943" lon="4.75154">
        <ele>205</ele>
        <time>2015-10-18T07:52:51.425Z</time>
      </trkpt>
      <trkpt lat="45.63948" lon="4.75154">
        <ele>205</ele>
        <time>2015-10-18T07:52:52.409Z</time>
      </trkpt>
      <trkpt lat="45.63952" lon="4.75157">
        <ele>205</ele>
        <time>2015-10-18T07:52:53.434Z</time>
      </trkpt>
      <trkpt lat="45.63958" lon="4.75157">
        <ele>205</ele>
        <time>2015-10-18T07:52:54.404Z</time>
      </trkpt>
      <trkpt lat="45.63966" lon="4.75157">
        <ele>205</ele>
        <time>2015-10-18T07:52:56.426Z</time>
      </trkpt>
      <trkpt lat="45.63972" lon="4.75159">
        <ele>205</ele>
        <time>2015-10-18T07:52:57.408Z</time>
      </trkpt>
      <trkpt lat="45.63977" lon="4.75159">
        <ele>205</ele>
        <time>2015-10-18T07:52:58.442Z</time>
      </trkpt>
      <trkpt lat="45.63981" lon="4.75157">
        <ele>205</ele>
        <time>2015-10-18T07:52:59.404Z</time>
      </trkpt>
      <trkpt lat="45.6399" lon="4.75157">
        <ele>204</ele>
        <time>2015-10-18T07:53:01.435Z</time>
      </trkpt>
      <trkpt lat="45.63994" lon="4.75157">
        <ele>204</ele>
        <time>2015-10-18T07:53:02.408Z</time>
      </trkpt>
      <trkpt lat="45.64002" lon="4.75157">
        <ele>204</ele>
        <time>2015-10-18T07:53:05.549Z</time>
      </trkpt>
      <trkpt lat="45.64004" lon="4.75157">
        <ele>204</ele>
        <time>2015-10-18T07:53:06.400Z</time>
      </trkpt>
      <trkpt lat="45.64007" lon="4.75146">
        <ele>206</ele>
        <time>2015-10-18T07:53:11.421Z</time>
      </trkpt>
      <trkpt lat="45.64004" lon="4.75144">
        <ele>206</ele>
        <time>2015-10-18T07:53:12.391Z</time>
      </trkpt>
      <trkpt lat="45.63999" lon="4.75135">
        <ele>206</ele>
        <time>2015-10-18T07:53:17.445Z</time>
      </trkpt>
      <trkpt lat="45.63996" lon="4.75133">
        <ele>206</ele>
        <time>2015-10-18T07:53:18.405Z</time>
      </trkpt>
      <trkpt lat="45.63993" lon="4.75122">
        <ele>207</ele>
        <time>2015-10-18T07:53:23.433Z</time>
      </trkpt>
      <trkpt lat="45.63993" lon="4.7512">
        <ele>207</ele>
        <time>2015-10-18T07:53:24.406Z</time>
      </trkpt>
      <trkpt lat="45.63993" lon="4.75109">
        <ele>209</ele>
        <time>2015-10-18T07:53:31.427Z</time>
      </trkpt>
      <trkpt lat="45.63992" lon="4.75107">
        <ele>209</ele>
        <time>2015-10-18T07:53:32.400Z</time>
      </trkpt>
      <trkpt lat="45.6399" lon="4.75096">
        <ele>210</ele>
        <time>2015-10-18T07:53:37.428Z</time>
      </trkpt>
      <trkpt lat="45.63988" lon="4.75094">
        <ele>210</ele>
        <time>2015-10-18T07:53:38.406Z</time>
      </trkpt>
      <trkpt lat="45.63984" lon="4.75086">
        <ele>210</ele>
        <time>2015-10-18T07:53:42.445Z</time>
      </trkpt>
      <trkpt lat="45.63982" lon="4.75081">
        <ele>215</ele>
        <time>2015-10-18T07:53:43.404Z</time>
      </trkpt>
      <trkpt lat="45.63988" lon="4.75073">
        <ele>215</ele>
        <time>2015-10-18T07:53:54.437Z</time>
      </trkpt>
      <trkpt lat="45.63989" lon="4.75071">
        <ele>215</ele>
        <time>2015-10-18T07:53:55.405Z</time>
      </trkpt>
      <trkpt lat="45.63993" lon="4.7506">
        <ele>216</ele>
        <time>2015-10-18T07:54:01.450Z</time>
      </trkpt>
      <trkpt lat="45.63994" lon="4.75058">
        <ele>216</ele>
        <time>2015-10-18T07:54:02.409Z</time>
      </trkpt>
      <trkpt lat="45.63995" lon="4.75047">
        <ele>217</ele>
        <time>2015-10-18T07:54:08.434Z</time>
      </trkpt>
      <trkpt lat="45.63995" lon="4.75045">
        <ele>217</ele>
        <time>2015-10-18T07:54:09.403Z</time>
      </trkpt>
      <trkpt lat="45.63995" lon="4.75032">
        <ele>218</ele>
        <time>2015-10-18T07:54:15.463Z</time>
      </trkpt>
      <trkpt lat="45.63996" lon="4.75032">
        <ele>218</ele>
        <time>2015-10-18T07:54:16.401Z</time>
      </trkpt>
      <trkpt lat="45.64004" lon="4.75026">
        <ele>220</ele>
        <time>2015-10-18T07:54:31.436Z</time>
      </trkpt>
      <trkpt lat="45.64005" lon="4.75026">
        <ele>220</ele>
        <time>2015-10-18T07:54:32.394Z</time>
      </trkpt>
      <trkpt lat="45.64014" lon="4.75026">
        <ele>220</ele>
        <time>2015-10-18T07:54:53.433Z</time>
      </trkpt>
      <trkpt lat="45.64015" lon="4.75026">
        <ele>220</ele>
        <time>2015-10-18T07:54:54.394Z</time>
      </trkpt>
      <trkpt lat="45.64022" lon="4.75032">
        <ele>220</ele>
        <time>2015-10-18T07:55:04.435Z</time>
      </trkpt>
      <trkpt lat="45.64023" lon="4.75032">
        <ele>220</ele>
        <time>2015-10-18T07:55:05.388Z</time>
      </trkpt>
      <trkpt lat="45.64032" lon="4.75032">
        <ele>220</ele>
        <time>2015-10-18T07:55:14.481Z</time>
      </trkpt>
      <trkpt lat="45.64033" lon="4.75032">
        <ele>220</ele>
        <time>2015-10-18T07:55:15.389Z</time>
      </trkpt>
      <trkpt lat="45.6404" lon="4.75026">
        <ele>220</ele>
        <time>2015-10-18T07:55:31.424Z</time>
      </trkpt>
      <trkpt lat="45.64041" lon="4.75024">
        <ele>221</ele>
        <time>2015-10-18T07:55:32.393Z</time>
      </trkpt>
      <trkpt lat="45.64046" lon="4.75013">
        <ele>221</ele>
        <time>2015-10-18T07:55:51.442Z</time>
      </trkpt>
      <trkpt lat="45.64047" lon="4.75013">
        <ele>222</ele>
        <time>2015-10-18T07:55:52.389Z</time>
      </trkpt>
      <trkpt lat="45.64052" lon="4.75006">
        <ele>222</ele>
        <time>2015-10-18T07:55:58.435Z</time>
      </trkpt>
      <trkpt lat="45.64054" lon="4.75004">
        <ele>223</ele>
        <time>2015-10-18T07:55:59.396Z</time>
      </trkpt>
      <trkpt lat="45.64061" lon="4.74996">
        <ele>229</ele>
        <time>2015-10-18T07:56:09.438Z</time>
      </trkpt>
      <trkpt lat="45.64062" lon="4.74993">
        <ele>229</ele>
        <time>2015-10-18T07:56:10.410Z</time>
      </trkpt>
      <trkpt lat="45.64067" lon="4.74985">
        <ele>229</ele>
        <time>2015-10-18T07:56:25.428Z</time>
      </trkpt>
      <trkpt lat="45.64067" lon="4.74983">
        <ele>230</ele>
        <time>2015-10-18T07:56:26.393Z</time>
      </trkpt>
      <trkpt lat="45.64072" lon="4.74974">
        <ele>230</ele>
        <time>2015-10-18T07:56:41.434Z</time>
      </trkpt>
      <trkpt lat="45.64073" lon="4.74972">
        <ele>230</ele>
        <time>2015-10-18T07:56:42.405Z</time>
      </trkpt>
      <trkpt lat="45.64081" lon="4.74972">
        <ele>230</ele>
        <time>2015-10-18T07:56:47.427Z</time>
      </trkpt>
      <trkpt lat="45.64083" lon="4.74972">
        <ele>230</ele>
        <time>2015-10-18T07:56:48.387Z</time>
      </trkpt>
      <trkpt lat="45.64091" lon="4.74974">
        <ele>232</ele>
        <time>2015-10-18T07:56:52.478Z</time>
      </trkpt>
      <trkpt lat="45.64093" lon="4.74976">
        <ele>232</ele>
        <time>2015-10-18T07:56:53.390Z</time>
      </trkpt>
      <trkpt lat="45.64098" lon="4.74983">
        <ele>231</ele>
        <time>2015-10-18T07:56:56.429Z</time>
      </trkpt>
      <trkpt lat="45.64101" lon="4.74987">
        <ele>231</ele>
        <time>2015-10-18T07:56:57.387Z</time>
      </trkpt>
      <trkpt lat="45.64109" lon="4.74987">
        <ele>231</ele>
        <time>2015-10-18T07:57:04.425Z</time>
      </trkpt>
      <trkpt lat="45.6411" lon="4.74985">
        <ele>231</ele>
        <time>2015-10-18T07:57:05.390Z</time>
      </trkpt>
      <trkpt lat="45.64112" lon="4.74974">
        <ele>232</ele>
        <time>2015-10-18T07:57:12.425Z</time>
      </trkpt>
      <trkpt lat="45.64113" lon="4.74972">
        <ele>232</ele>
        <time>2015-10-18T07:57:13.390Z</time>
      </trkpt>
      <trkpt lat="45.64114" lon="4.74961">
        <ele>233</ele>
        <time>2015-10-18T07:57:17.539Z</time>
      </trkpt>
      <trkpt lat="45.64113" lon="4.74959">
        <ele>233</ele>
        <time>2015-10-18T07:57:18.385Z</time>
      </trkpt>
      <trkpt lat="45.64118" lon="4.74948">
        <ele>234</ele>
        <time>2015-10-18T07:57:25.424Z</time>
      </trkpt>
      <trkpt lat="45.64117" lon="4.74944">
        <ele>234</ele>
        <time>2015-10-18T07:57:26.391Z</time>
      </trkpt>
      <trkpt lat="45.64112" lon="4.74933">
        <ele>235</ele>
        <time>2015-10-18T07:57:34.412Z</time>
      </trkpt>
      <trkpt lat="45.64111" lon="4.74933">
        <ele>235</ele>
        <time>2015-10-18T07:57:35.388Z</time>
      </trkpt>
      <trkpt lat="45.64106" lon="4.74925">
        <ele>235</ele>
        <time>2015-10-18T07:57:40.423Z</time>
      </trkpt>
      <trkpt lat="45.64106" lon="4.74923">
        <ele>236</ele>
        <time>2015-10-18T07:57:41.389Z</time>
      </trkpt>
      <trkpt lat="45.64105" lon="4.74912">
        <ele>242</ele>
        <time>2015-10-18T07:57:47.425Z</time>
      </trkpt>
      <trkpt lat="45.64105" lon="4.7491">
        <ele>243</ele>
        <time>2015-10-18T07:57:48.389Z</time>
      </trkpt>
      <trkpt lat="45.64103" lon="4.74899">
        <ele>243</ele>
        <time>2015-10-18T07:57:55.427Z</time>
      </trkpt>
      <trkpt lat="45.64103" lon="4.74897">
        <ele>243</ele>
        <time>2015-10-18T07:57:56.385Z</time>
      </trkpt>
      <trkpt lat="45.64099" lon="4.74886">
        <ele>244</ele>
        <time>2015-10-18T07:58:02.437Z</time>
      </trkpt>
      <trkpt lat="45.64099" lon="4.74884">
        <ele>245</ele>
        <time>2015-10-18T07:58:03.404Z</time>
      </trkpt>
      <trkpt lat="45.64093" lon="4.74875">
        <ele>246</ele>
        <time>2015-10-18T07:58:16.425Z</time>
      </trkpt>
      <trkpt lat="45.64092" lon="4.74873">
        <ele>246</ele>
        <time>2015-10-18T07:58:17.386Z</time>
      </trkpt>
      <trkpt lat="45.64084" lon="4.74869">
        <ele>246</ele>
        <time>2015-10-18T07:58:45.441Z</time>
      </trkpt>
      <trkpt lat="45.64082" lon="4.74867">
        <ele>245</ele>
        <time>2015-10-18T07:58:46.393Z</time>
      </trkpt>
      <trkpt lat="45.64078" lon="4.74856">
        <ele>246</ele>
        <time>2015-10-18T07:58:50.430Z</time>
      </trkpt>
      <trkpt lat="45.64078" lon="4.74854">
        <ele>247</ele>
        <time>2015-10-18T07:58:51.386Z</time>
      </trkpt>
      <trkpt lat="45.6407" lon="4.74848">
        <ele>247</ele>
        <time>2015-10-18T07:58:58.423Z</time>
      </trkpt>
      <trkpt lat="45.64069" lon="4.74845">
        <ele>247</ele>
        <time>2015-10-18T07:58:59.389Z</time>
      </trkpt>
      <trkpt lat="45.64073" lon="4.74835">
        <ele>249</ele>
        <time>2015-10-18T07:59:09.431Z</time>
      </trkpt>
      <trkpt lat="45.64072" lon="4.74833">
        <ele>255</ele>
        <time>2015-10-18T07:59:10.386Z</time>
      </trkpt>
      <trkpt lat="45.6407" lon="4.74822">
        <ele>257</ele>
        <time>2015-10-18T07:59:20.421Z</time>
      </trkpt>
      <trkpt lat="45.64072" lon="4.7482">
        <ele>257</ele>
        <time>2015-10-18T07:59:21.402Z</time>
      </trkpt>
      <trkpt lat="45.64079" lon="4.74818">
        <ele>257</ele>
        <time>2015-10-18T07:59:47.425Z</time>
      </trkpt>
      <trkpt lat="45.64081" lon="4.74818">
        <ele>257</ele>
        <time>2015-10-18T07:59:48.384Z</time>
      </trkpt>
      <trkpt lat="45.6409" lon="4.74818">
        <ele>258</ele>
        <time>2015-10-18T07:59:54.422Z</time>
      </trkpt>
      <trkpt lat="45.64092" lon="4.74815">
        <ele>258</ele>
        <time>2015-10-18T07:59:55.391Z</time>
      </trkpt>
      <trkpt lat="45.64099" lon="4.74809">
        <ele>260</ele>
        <time>2015-10-18T08:00:03.419Z</time>
      </trkpt>
      <trkpt lat="45.64101" lon="4.74807">
        <ele>260</ele>
        <time>2015-10-18T08:00:04.386Z</time>
      </trkpt>
      <trkpt lat="45.64107" lon="4.74798">
        <ele>261</ele>
        <time>2015-10-18T08:00:19.431Z</time>
      </trkpt>
      <trkpt lat="45.64108" lon="4.74796">
        <ele>262</ele>
        <time>2015-10-18T08:00:20.386Z</time>
      </trkpt>
      <trkpt lat="45.6411" lon="4.74785">
        <ele>263</ele>
        <time>2015-10-18T08:01:00.440Z</time>
      </trkpt>
      <trkpt lat="45.64111" lon="4.74781">
        <ele>263</ele>
        <time>2015-10-18T08:01:01.403Z</time>
      </trkpt>
      <trkpt lat="45.6411" lon="4.7477">
        <ele>265</ele>
        <time>2015-10-18T08:01:15.428Z</time>
      </trkpt>
      <trkpt lat="45.64109" lon="4.74768">
        <ele>265</ele>
        <time>2015-10-18T08:01:16.383Z</time>
      </trkpt>
      <trkpt lat="45.64103" lon="4.7476">
        <ele>267</ele>
        <time>2015-10-18T08:01:32.418Z</time>
      </trkpt>
      <trkpt lat="45.64102" lon="4.74757">
        <ele>267</ele>
        <time>2015-10-18T08:01:33.398Z</time>
      </trkpt>
      <trkpt lat="45.64096" lon="4.74749">
        <ele>274</ele>
        <time>2015-10-18T08:01:43.417Z</time>
      </trkpt>
      <trkpt lat="45.64096" lon="4.74747">
        <ele>274</ele>
        <time>2015-10-18T08:01:44.377Z</time>
      </trkpt>
      <trkpt lat="45.64096" lon="4.74736">
        <ele>275</ele>
        <time>2015-10-18T08:01:54.445Z</time>
      </trkpt>
      <trkpt lat="45.64095" lon="4.74734">
        <ele>275</ele>
        <time>2015-10-18T08:01:55.392Z</time>
      </trkpt>
      <trkpt lat="45.64092" lon="4.74723">
        <ele>276</ele>
        <time>2015-10-18T08:02:03.439Z</time>
      </trkpt>
      <trkpt lat="45.64091" lon="4.74721">
        <ele>276</ele>
        <time>2015-10-18T08:02:04.389Z</time>
      </trkpt>
      <trkpt lat="45.64084" lon="4.74712">
        <ele>277</ele>
        <time>2015-10-18T08:02:16.423Z</time>
      </trkpt>
      <trkpt lat="45.64083" lon="4.74712">
        <ele>278</ele>
        <time>2015-10-18T08:02:17.385Z</time>
      </trkpt>
      <trkpt lat="45.64077" lon="4.74704">
        <ele>279</ele>
        <time>2015-10-18T08:02:23.544Z</time>
      </trkpt>
      <trkpt lat="45.64076" lon="4.74702">
        <ele>279</ele>
        <time>2015-10-18T08:02:24.392Z</time>
      </trkpt>
      <trkpt lat="45.64068" lon="4.74704">
        <ele>279</ele>
        <time>2015-10-18T08:02:32.448Z</time>
      </trkpt>
      <trkpt lat="45.64066" lon="4.74704">
        <ele>279</ele>
        <time>2015-10-18T08:02:33.389Z</time>
      </trkpt>
      <trkpt lat="45.64058" lon="4.74702">
        <ele>279</ele>
        <time>2015-10-18T08:02:39.428Z</time>
      </trkpt>
      <trkpt lat="45.64057" lon="4.74702">
        <ele>279</ele>
        <time>2015-10-18T08:02:40.391Z</time>
      </trkpt>
      <trkpt lat="45.64049" lon="4.74699">
        <ele>279</ele>
        <time>2015-10-18T08:02:48.431Z</time>
      </trkpt>
      <trkpt lat="45.64048" lon="4.74697">
        <ele>279</ele>
        <time>2015-10-18T08:02:49.385Z</time>
      </trkpt>
      <trkpt lat="45.64048" lon="4.74697">
        <ele>279</ele>
        <time>2015-10-18T08:02:49.419Z</time>
      </trkpt>
      <trkpt lat="45.64038" lon="4.74699">
        <ele>279</ele>
        <time>2015-10-18T08:02:50.385Z</time>
      </trkpt>
      <trkpt lat="45.6404" lon="4.74689">
        <ele>280</ele>
        <time>2015-10-18T08:03:00.419Z</time>
      </trkpt>
      <trkpt lat="45.64041" lon="4.74687">
        <ele>280</ele>
        <time>2015-10-18T08:03:01.387Z</time>
      </trkpt>
      <trkpt lat="45.64046" lon="4.74676">
        <ele>280</ele>
        <time>2015-10-18T08:03:26.434Z</time>
      </trkpt>
      <trkpt lat="45.64047" lon="4.74676">
        <ele>280</ele>
        <time>2015-10-18T08:03:27.390Z</time>
      </trkpt>
      <trkpt lat="45.64049" lon="4.74667">
        <ele>281</ele>
        <time>2015-10-18T08:03:57.428Z</time>
      </trkpt>
      <trkpt lat="45.64049" lon="4.74663">
        <ele>287</ele>
        <time>2015-10-18T08:03:58.387Z</time>
      </trkpt>
      <trkpt lat="45.64049" lon="4.74652">
        <ele>287</ele>
        <time>2015-10-18T08:04:04.424Z</time>
      </trkpt>
      <trkpt lat="45.6405" lon="4.7465">
        <ele>287</ele>
        <time>2015-10-18T08:04:05.385Z</time>
      </trkpt>
      <trkpt lat="45.64057" lon="4.74642">
        <ele>287</ele>
        <time>2015-10-18T08:04:13.425Z</time>
      </trkpt>
      <trkpt lat="45.64059" lon="4.74642">
        <ele>287</ele>
        <time>2015-10-18T08:04:14.401Z</time>
      </trkpt>
      <trkpt lat="45.64065" lon="4.74639">
        <ele>287</ele>
        <time>2015-10-18T08:04:16.421Z</time>
      </trkpt>
      <trkpt lat="45.64067" lon="4.74635">
        <ele>287</ele>
        <time>2015-10-18T08:04:17.397Z</time>
      </trkpt>
      <trkpt lat="45.6407" lon="4.74624">
        <ele>288</ele>
        <time>2015-10-18T08:04:23.408Z</time>
      </trkpt>
      <trkpt lat="45.64073" lon="4.74622">
        <ele>288</ele>
        <time>2015-10-18T08:04:24.387Z</time>
      </trkpt>
      <trkpt lat="45.6408" lon="4.74616">
        <ele>289</ele>
        <time>2015-10-18T08:04:29.433Z</time>
      </trkpt>
      <trkpt lat="45.64082" lon="4.74614">
        <ele>289</ele>
        <time>2015-10-18T08:04:30.437Z</time>
      </trkpt>
      <trkpt lat="45.64085" lon="4.74605">
        <ele>288</ele>
        <time>2015-10-18T08:04:37.425Z</time>
      </trkpt>
      <trkpt lat="45.64085" lon="4.74601">
        <ele>288</ele>
        <time>2015-10-18T08:04:38.385Z</time>
      </trkpt>
      <trkpt lat="45.64088" lon="4.7459">
        <ele>290</ele>
        <time>2015-10-18T08:04:43.444Z</time>
      </trkpt>
      <trkpt lat="45.64088" lon="4.74588">
        <ele>290</ele>
        <time>2015-10-18T08:04:44.394Z</time>
      </trkpt>
      <trkpt lat="45.6409" lon="4.74577">
        <ele>291</ele>
        <time>2015-10-18T08:04:49.444Z</time>
      </trkpt>
      <trkpt lat="45.64091" lon="4.74573">
        <ele>291</ele>
        <time>2015-10-18T08:04:50.391Z</time>
      </trkpt>
      <trkpt lat="45.64094" lon="4.74564">
        <ele>290</ele>
        <time>2015-10-18T08:04:53.415Z</time>
      </trkpt>
      <trkpt lat="45.64095" lon="4.7456">
        <ele>290</ele>
        <time>2015-10-18T08:04:54.390Z</time>
      </trkpt>
      <trkpt lat="45.64098" lon="4.74549">
        <ele>290</ele>
        <time>2015-10-18T08:04:57.422Z</time>
      </trkpt>
      <trkpt lat="45.64098" lon="4.74545">
        <ele>290</ele>
        <time>2015-10-18T08:04:58.404Z</time>
      </trkpt>
      <trkpt lat="45.64098" lon="4.74534">
        <ele>291</ele>
        <time>2015-10-18T08:05:01.424Z</time>
      </trkpt>
      <trkpt lat="45.64098" lon="4.74532">
        <ele>291</ele>
        <time>2015-10-18T08:05:02.391Z</time>
      </trkpt>
      <trkpt lat="45.64092" lon="4.74524">
        <ele>291</ele>
        <time>2015-10-18T08:05:05.428Z</time>
      </trkpt>
      <trkpt lat="45.6409" lon="4.74521">
        <ele>292</ele>
        <time>2015-10-18T08:05:06.385Z</time>
      </trkpt>
      <trkpt lat="45.64095" lon="4.74513">
        <ele>292</ele>
        <time>2015-10-18T08:05:10.401Z</time>
      </trkpt>
      <trkpt lat="45.64096" lon="4.74511">
        <ele>292</ele>
        <time>2015-10-18T08:05:11.395Z</time>
      </trkpt>
      <trkpt lat="45.64101" lon="4.74502">
        <ele>292</ele>
        <time>2015-10-18T08:05:15.432Z</time>
      </trkpt>
      <trkpt lat="45.64102" lon="4.745">
        <ele>292</ele>
        <time>2015-10-18T08:05:16.384Z</time>
      </trkpt>
      <trkpt lat="45.64106" lon="4.74491">
        <ele>292</ele>
        <time>2015-10-18T08:05:21.429Z</time>
      </trkpt>
      <trkpt lat="45.64107" lon="4.74489">
        <ele>292</ele>
        <time>2015-10-18T08:05:22.391Z</time>
      </trkpt>
      <trkpt lat="45.64113" lon="4.74481">
        <ele>292</ele>
        <time>2015-10-18T08:05:27.422Z</time>
      </trkpt>
      <trkpt lat="45.64113" lon="4.74478">
        <ele>292</ele>
        <time>2015-10-18T08:05:28.401Z</time>
      </trkpt>
      <trkpt lat="45.64116" lon="4.7447">
        <ele>292</ele>
        <time>2015-10-18T08:05:31.430Z</time>
      </trkpt>
      <trkpt lat="45.64116" lon="4.74466">
        <ele>292</ele>
        <time>2015-10-18T08:05:32.388Z</time>
      </trkpt>
      <trkpt lat="45.64117" lon="4.74457">
        <ele>292</ele>
        <time>2015-10-18T08:05:35.427Z</time>
      </trkpt>
      <trkpt lat="45.64117" lon="4.74453">
        <ele>292</ele>
        <time>2015-10-18T08:05:36.389Z</time>
      </trkpt>
      <trkpt lat="45.64114" lon="4.74442">
        <ele>292</ele>
        <time>2015-10-18T08:05:40.428Z</time>
      </trkpt>
      <trkpt lat="45.64114" lon="4.7444">
        <ele>292</ele>
        <time>2015-10-18T08:05:41.401Z</time>
      </trkpt>
      <trkpt lat="45.64113" lon="4.74429">
        <ele>292</ele>
        <time>2015-10-18T08:05:44.427Z</time>
      </trkpt>
      <trkpt lat="45.64111" lon="4.74427">
        <ele>292</ele>
        <time>2015-10-18T08:05:45.407Z</time>
      </trkpt>
      <trkpt lat="45.64104" lon="4.74423">
        <ele>292</ele>
        <time>2015-10-18T08:05:48.428Z</time>
      </trkpt>
      <trkpt lat="45.64102" lon="4.74421">
        <ele>293</ele>
        <time>2015-10-18T08:05:49.390Z</time>
      </trkpt>
      <trkpt lat="45.64095" lon="4.74414">
        <ele>293</ele>
        <time>2015-10-18T08:05:52.401Z</time>
      </trkpt>
      <trkpt lat="45.64094" lon="4.74412">
        <ele>293</ele>
        <time>2015-10-18T08:05:53.387Z</time>
      </trkpt>
      <trkpt lat="45.64085" lon="4.7441">
        <ele>293</ele>
        <time>2015-10-18T08:05:57.422Z</time>
      </trkpt>
      <trkpt lat="45.64083" lon="4.74408">
        <ele>294</ele>
        <time>2015-10-18T08:05:58.382Z</time>
      </trkpt>
      <trkpt lat="45.64077" lon="4.74403">
        <ele>293</ele>
        <time>2015-10-18T08:06:01.429Z</time>
      </trkpt>
      <trkpt lat="45.64075" lon="4.74403">
        <ele>293</ele>
        <time>2015-10-18T08:06:02.382Z</time>
      </trkpt>
      <trkpt lat="45.64068" lon="4.74401">
        <ele>293</ele>
        <time>2015-10-18T08:06:05.423Z</time>
      </trkpt>
      <trkpt lat="45.64065" lon="4.74399">
        <ele>293</ele>
        <time>2015-10-18T08:06:06.390Z</time>
      </trkpt>
      <trkpt lat="45.64058" lon="4.74393">
        <ele>293</ele>
        <time>2015-10-18T08:06:09.446Z</time>
      </trkpt>
      <trkpt lat="45.64055" lon="4.74391">
        <ele>293</ele>
        <time>2015-10-18T08:06:10.392Z</time>
      </trkpt>
      <trkpt lat="45.64049" lon="4.74386">
        <ele>293</ele>
        <time>2015-10-18T08:06:12.411Z</time>
      </trkpt>
      <trkpt lat="45.64047" lon="4.74386">
        <ele>293</ele>
        <time>2015-10-18T08:06:13.413Z</time>
      </trkpt>
      <trkpt lat="45.64041" lon="4.74382">
        <ele>293</ele>
        <time>2015-10-18T08:06:15.412Z</time>
      </trkpt>
      <trkpt lat="45.64038" lon="4.74375">
        <ele>293</ele>
        <time>2015-10-18T08:06:16.408Z</time>
      </trkpt>
      <trkpt lat="45.64038" lon="4.74367">
        <ele>293</ele>
        <time>2015-10-18T08:06:17.410Z</time>
      </trkpt>
      <trkpt lat="45.64039" lon="4.7436">
        <ele>293</ele>
        <time>2015-10-18T08:06:18.385Z</time>
      </trkpt>
      <trkpt lat="45.64038" lon="4.74352">
        <ele>293</ele>
        <time>2015-10-18T08:06:19.409Z</time>
      </trkpt>
      <trkpt lat="45.64034" lon="4.74345">
        <ele>292</ele>
        <time>2015-10-18T08:06:20.396Z</time>
      </trkpt>
      <trkpt lat="45.6403" lon="4.74339">
        <ele>292</ele>
        <time>2015-10-18T08:06:21.404Z</time>
      </trkpt>
      <trkpt lat="45.64025" lon="4.74333">
        <ele>291</ele>
        <time>2015-10-18T08:06:22.385Z</time>
      </trkpt>
      <trkpt lat="45.64022" lon="4.74326">
        <ele>291</ele>
        <time>2015-10-18T08:06:23.413Z</time>
      </trkpt>
      <trkpt lat="45.64017" lon="4.74322">
        <ele>291</ele>
        <time>2015-10-18T08:06:24.386Z</time>
      </trkpt>
      <trkpt lat="45.64013" lon="4.7432">
        <ele>291</ele>
        <time>2015-10-18T08:06:25.419Z</time>
      </trkpt>
      <trkpt lat="45.64007" lon="4.74318">
        <ele>291</ele>
        <time>2015-10-18T08:06:26.392Z</time>
      </trkpt>
      <trkpt lat="45.64001" lon="4.74315">
        <ele>291</ele>
        <time>2015-10-18T08:06:27.415Z</time>
      </trkpt>
      <trkpt lat="45.63995" lon="4.74311">
        <ele>290</ele>
        <time>2015-10-18T08:06:28.386Z</time>
      </trkpt>
      <trkpt lat="45.6399" lon="4.74307">
        <ele>290</ele>
        <time>2015-10-18T08:06:29.430Z</time>
      </trkpt>
      <trkpt lat="45.63986" lon="4.74303">
        <ele>290</ele>
        <time>2015-10-18T08:06:30.390Z</time>
      </trkpt>
      <trkpt lat="45.6398" lon="4.74296">
        <ele>290</ele>
        <time>2015-10-18T08:06:32.415Z</time>
      </trkpt>
      <trkpt lat="45.6398" lon="4.74292">
        <ele>290</ele>
        <time>2015-10-18T08:06:33.389Z</time>
      </trkpt>
      <trkpt lat="45.63986" lon="4.74283">
        <ele>290</ele>
        <time>2015-10-18T08:06:56.416Z</time>
      </trkpt>
      <trkpt lat="45.63988" lon="4.74283">
        <ele>290</ele>
        <time>2015-10-18T08:06:57.389Z</time>
      </trkpt>
      <trkpt lat="45.63994" lon="4.74275">
        <ele>290</ele>
        <time>2015-10-18T08:07:00.411Z</time>
      </trkpt>
      <trkpt lat="45.63996" lon="4.74272">
        <ele>290</ele>
        <time>2015-10-18T08:07:01.387Z</time>
      </trkpt>
      <trkpt lat="45.64002" lon="4.74264">
        <ele>290</ele>
        <time>2015-10-18T08:07:04.415Z</time>
      </trkpt>
      <trkpt lat="45.64004" lon="4.74262">
        <ele>290</ele>
        <time>2015-10-18T08:07:05.386Z</time>
      </trkpt>
      <trkpt lat="45.64008" lon="4.74255">
        <ele>290</ele>
        <time>2015-10-18T08:07:07.406Z</time>
      </trkpt>
      <trkpt lat="45.6401" lon="4.74251">
        <ele>290</ele>
        <time>2015-10-18T08:07:08.391Z</time>
      </trkpt>
      <trkpt lat="45.64016" lon="4.74242">
        <ele>289</ele>
        <time>2015-10-18T08:07:10.418Z</time>
      </trkpt>
      <trkpt lat="45.64018" lon="4.74238">
        <ele>289</ele>
        <time>2015-10-18T08:07:11.386Z</time>
      </trkpt>
      <trkpt lat="45.64021" lon="4.74234">
        <ele>289</ele>
        <time>2015-10-18T08:07:12.409Z</time>
      </trkpt>
      <trkpt lat="45.64024" lon="4.74227">
        <ele>289</ele>
        <time>2015-10-18T08:07:13.388Z</time>
      </trkpt>
      <trkpt lat="45.6403" lon="4.74219">
        <ele>289</ele>
        <time>2015-10-18T08:07:15.437Z</time>
      </trkpt>
      <trkpt lat="45.64033" lon="4.74215">
        <ele>289</ele>
        <time>2015-10-18T08:07:16.388Z</time>
      </trkpt>
      <trkpt lat="45.64035" lon="4.74206">
        <ele>289</ele>
        <time>2015-10-18T08:07:18.438Z</time>
      </trkpt>
      <trkpt lat="45.64038" lon="4.74202">
        <ele>289</ele>
        <time>2015-10-18T08:07:19.409Z</time>
      </trkpt>
      <trkpt lat="45.64045" lon="4.74193">
        <ele>289</ele>
        <time>2015-10-18T08:07:21.423Z</time>
      </trkpt>
      <trkpt lat="45.64048" lon="4.74189">
        <ele>288</ele>
        <time>2015-10-18T08:07:22.391Z</time>
      </trkpt>
      <trkpt lat="45.64054" lon="4.7418">
        <ele>288</ele>
        <time>2015-10-18T08:07:24.422Z</time>
      </trkpt>
      <trkpt lat="45.64055" lon="4.74176">
        <ele>288</ele>
        <time>2015-10-18T08:07:25.383Z</time>
      </trkpt>
      <trkpt lat="45.64058" lon="4.74169">
        <ele>288</ele>
        <time>2015-10-18T08:07:26.413Z</time>
      </trkpt>
      <trkpt lat="45.64062" lon="4.74165">
        <ele>287</ele>
        <time>2015-10-18T08:07:27.380Z</time>
      </trkpt>
      <trkpt lat="45.64068" lon="4.74157">
        <ele>287</ele>
        <time>2015-10-18T08:07:29.417Z</time>
      </trkpt>
      <trkpt lat="45.64073" lon="4.7415">
        <ele>287</ele>
        <time>2015-10-18T08:07:30.382Z</time>
      </trkpt>
      <trkpt lat="45.64077" lon="4.74146">
        <ele>287</ele>
        <time>2015-10-18T08:07:31.419Z</time>
      </trkpt>
      <trkpt lat="45.64081" lon="4.74142">
        <ele>286</ele>
        <time>2015-10-18T08:07:32.383Z</time>
      </trkpt>
      <trkpt lat="45.64085" lon="4.74135">
        <ele>284</ele>
        <time>2015-10-18T08:07:33.411Z</time>
      </trkpt>
      <trkpt lat="45.6409" lon="4.74129">
        <ele>284</ele>
        <time>2015-10-18T08:07:34.391Z</time>
      </trkpt>
      <trkpt lat="45.64094" lon="4.74124">
        <ele>284</ele>
        <time>2015-10-18T08:07:35.414Z</time>
      </trkpt>
      <trkpt lat="45.64099" lon="4.74118">
        <ele>284</ele>
        <time>2015-10-18T08:07:36.381Z</time>
      </trkpt>
      <trkpt lat="45.64103" lon="4.74112">
        <ele>284</ele>
        <time>2015-10-18T08:07:37.414Z</time>
      </trkpt>
      <trkpt lat="45.64105" lon="4.74103">
        <ele>283</ele>
        <time>2015-10-18T08:07:38.384Z</time>
      </trkpt>
      <trkpt lat="45.64109" lon="4.74097">
        <ele>283</ele>
        <time>2015-10-18T08:07:39.430Z</time>
      </trkpt>
      <trkpt lat="45.64114" lon="4.7409">
        <ele>283</ele>
        <time>2015-10-18T08:07:40.381Z</time>
      </trkpt>
      <trkpt lat="45.64119" lon="4.74086">
        <ele>283</ele>
        <time>2015-10-18T08:07:41.413Z</time>
      </trkpt>
      <trkpt lat="45.64123" lon="4.74082">
        <ele>283</ele>
        <time>2015-10-18T08:07:42.382Z</time>
      </trkpt>
      <trkpt lat="45.64129" lon="4.74082">
        <ele>282</ele>
        <time>2015-10-18T08:07:44.429Z</time>
      </trkpt>
      <trkpt lat="45.64133" lon="4.74082">
        <ele>282</ele>
        <time>2015-10-18T08:07:45.391Z</time>
      </trkpt>
      <trkpt lat="45.6414" lon="4.74086">
        <ele>282</ele>
        <time>2015-10-18T08:07:47.427Z</time>
      </trkpt>
      <trkpt lat="45.64143" lon="4.7409">
        <ele>282</ele>
        <time>2015-10-18T08:07:48.397Z</time>
      </trkpt>
      <trkpt lat="45.64148" lon="4.74092">
        <ele>282</ele>
        <time>2015-10-18T08:07:49.422Z</time>
      </trkpt>
      <trkpt lat="45.64151" lon="4.74099">
        <ele>282</ele>
        <time>2015-10-18T08:07:50.386Z</time>
      </trkpt>
      <trkpt lat="45.64156" lon="4.74105">
        <ele>282</ele>
        <time>2015-10-18T08:07:51.419Z</time>
      </trkpt>
      <trkpt lat="45.64162" lon="4.74109">
        <ele>282</ele>
        <time>2015-10-18T08:07:52.374Z</time>
      </trkpt>
      <trkpt lat="45.64167" lon="4.74114">
        <ele>278</ele>
        <time>2015-10-18T08:07:53.403Z</time>
      </trkpt>
      <trkpt lat="45.64171" lon="4.74116">
        <ele>278</ele>
        <time>2015-10-18T08:07:54.397Z</time>
      </trkpt>
      <trkpt lat="45.64177" lon="4.7412">
        <ele>278</ele>
        <time>2015-10-18T08:07:55.419Z</time>
      </trkpt>
      <trkpt lat="45.64182" lon="4.74118">
        <ele>278</ele>
        <time>2015-10-18T08:07:56.391Z</time>
      </trkpt>
      <trkpt lat="45.64186" lon="4.74114">
        <ele>278</ele>
        <time>2015-10-18T08:07:57.407Z</time>
      </trkpt>
      <trkpt lat="45.64187" lon="4.74103">
        <ele>278</ele>
        <time>2015-10-18T08:07:58.387Z</time>
      </trkpt>
      <trkpt lat="45.64185" lon="4.74094">
        <ele>278</ele>
        <time>2015-10-18T08:07:59.412Z</time>
      </trkpt>
      <trkpt lat="45.64185" lon="4.74088">
        <ele>278</ele>
        <time>2015-10-18T08:08:00.391Z</time>
      </trkpt>
      <trkpt lat="45.64185" lon="4.74082">
        <ele>279</ele>
        <time>2015-10-18T08:08:01.424Z</time>
      </trkpt>
      <trkpt lat="45.64184" lon="4.74075">
        <ele>279</ele>
        <time>2015-10-18T08:08:02.384Z</time>
      </trkpt>
      <trkpt lat="45.64184" lon="4.74066">
        <ele>279</ele>
        <time>2015-10-18T08:08:03.410Z</time>
      </trkpt>
      <trkpt lat="45.64184" lon="4.7406">
        <ele>279</ele>
        <time>2015-10-18T08:08:04.387Z</time>
      </trkpt>
      <trkpt lat="45.64183" lon="4.74049">
        <ele>279</ele>
        <time>2015-10-18T08:08:06.421Z</time>
      </trkpt>
      <trkpt lat="45.64183" lon="4.74043">
        <ele>279</ele>
        <time>2015-10-18T08:08:07.386Z</time>
      </trkpt>
      <trkpt lat="45.64183" lon="4.74032">
        <ele>279</ele>
        <time>2015-10-18T08:08:09.429Z</time>
      </trkpt>
      <trkpt lat="45.64182" lon="4.74026">
        <ele>279</ele>
        <time>2015-10-18T08:08:10.389Z</time>
      </trkpt>
      <trkpt lat="45.64181" lon="4.74017">
        <ele>280</ele>
        <time>2015-10-18T08:08:12.412Z</time>
      </trkpt>
      <trkpt lat="45.6418" lon="4.74011">
        <ele>280</ele>
        <time>2015-10-18T08:08:13.388Z</time>
      </trkpt>
      <trkpt lat="45.64177" lon="4.74">
        <ele>282</ele>
        <time>2015-10-18T08:08:15.444Z</time>
      </trkpt>
      <trkpt lat="45.64176" lon="4.73996">
        <ele>282</ele>
        <time>2015-10-18T08:08:16.392Z</time>
      </trkpt>
      <trkpt lat="45.64171" lon="4.73987">
        <ele>282</ele>
        <time>2015-10-18T08:08:18.416Z</time>
      </trkpt>
      <trkpt lat="45.64171" lon="4.73983">
        <ele>282</ele>
        <time>2015-10-18T08:08:19.392Z</time>
      </trkpt>
      <trkpt lat="45.64168" lon="4.73972">
        <ele>283</ele>
        <time>2015-10-18T08:08:21.439Z</time>
      </trkpt>
      <trkpt lat="45.64167" lon="4.73968">
        <ele>283</ele>
        <time>2015-10-18T08:08:22.384Z</time>
      </trkpt>
      <trkpt lat="45.64165" lon="4.73959">
        <ele>285</ele>
        <time>2015-10-18T08:08:24.423Z</time>
      </trkpt>
      <trkpt lat="45.64164" lon="4.73955">
        <ele>285</ele>
        <time>2015-10-18T08:08:25.390Z</time>
      </trkpt>
      <trkpt lat="45.64162" lon="4.73944">
        <ele>285</ele>
        <time>2015-10-18T08:08:27.430Z</time>
      </trkpt>
      <trkpt lat="45.6416" lon="4.7394">
        <ele>285</ele>
        <time>2015-10-18T08:08:28.391Z</time>
      </trkpt>
      <trkpt lat="45.64158" lon="4.73931">
        <ele>286</ele>
        <time>2015-10-18T08:08:30.428Z</time>
      </trkpt>
      <trkpt lat="45.64157" lon="4.73927">
        <ele>286</ele>
        <time>2015-10-18T08:08:31.386Z</time>
      </trkpt>
      <trkpt lat="45.64156" lon="4.73916">
        <ele>287</ele>
        <time>2015-10-18T08:08:34.430Z</time>
      </trkpt>
      <trkpt lat="45.64156" lon="4.73912">
        <ele>287</ele>
        <time>2015-10-18T08:08:35.389Z</time>
      </trkpt>
      <trkpt lat="45.64155" lon="4.73901">
        <ele>287</ele>
        <time>2015-10-18T08:08:38.441Z</time>
      </trkpt>
      <trkpt lat="45.64154" lon="4.73899">
        <ele>287</ele>
        <time>2015-10-18T08:08:39.406Z</time>
      </trkpt>
      <trkpt lat="45.64155" lon="4.73891">
        <ele>287</ele>
        <time>2015-10-18T08:08:41.421Z</time>
      </trkpt>
      <trkpt lat="45.64156" lon="4.73886">
        <ele>287</ele>
        <time>2015-10-18T08:08:42.400Z</time>
      </trkpt>
      <trkpt lat="45.64157" lon="4.73878">
        <ele>288</ele>
        <time>2015-10-18T08:08:44.420Z</time>
      </trkpt>
      <trkpt lat="45.64157" lon="4.73873">
        <ele>288</ele>
        <time>2015-10-18T08:08:45.388Z</time>
      </trkpt>
      <trkpt lat="45.64158" lon="4.73863">
        <ele>288</ele>
        <time>2015-10-18T08:08:48.427Z</time>
      </trkpt>
      <trkpt lat="45.6416" lon="4.73858">
        <ele>288</ele>
        <time>2015-10-18T08:08:49.408Z</time>
      </trkpt>
      <trkpt lat="45.64162" lon="4.7385">
        <ele>289</ele>
        <time>2015-10-18T08:08:52.428Z</time>
      </trkpt>
      <trkpt lat="45.64163" lon="4.73845">
        <ele>289</ele>
        <time>2015-10-18T08:08:53.396Z</time>
      </trkpt>
      <trkpt lat="45.64166" lon="4.73835">
        <ele>290</ele>
        <time>2015-10-18T08:08:56.418Z</time>
      </trkpt>
      <trkpt lat="45.64167" lon="4.7383">
        <ele>290</ele>
        <time>2015-10-18T08:08:57.404Z</time>
      </trkpt>
      <trkpt lat="45.6417" lon="4.7382">
        <ele>291</ele>
        <time>2015-10-18T08:09:00.418Z</time>
      </trkpt>
      <trkpt lat="45.6417" lon="4.73815">
        <ele>291</ele>
        <time>2015-10-18T08:09:01.387Z</time>
      </trkpt>
      <trkpt lat="45.64172" lon="4.73805">
        <ele>291</ele>
        <time>2015-10-18T08:09:04.424Z</time>
      </trkpt>
      <trkpt lat="45.64172" lon="4.73798">
        <ele>292</ele>
        <time>2015-10-18T08:09:05.395Z</time>
      </trkpt>
      <trkpt lat="45.64171" lon="4.73788">
        <ele>292</ele>
        <time>2015-10-18T08:09:08.419Z</time>
      </trkpt>
      <trkpt lat="45.64171" lon="4.73783">
        <ele>292</ele>
        <time>2015-10-18T08:09:09.403Z</time>
      </trkpt>
      <trkpt lat="45.64171" lon="4.73775">
        <ele>292</ele>
        <time>2015-10-18T08:09:12.419Z</time>
      </trkpt>
      <trkpt lat="45.6417" lon="4.7377">
        <ele>292</ele>
        <time>2015-10-18T08:09:13.393Z</time>
      </trkpt>
      <trkpt lat="45.6417" lon="4.73758">
        <ele>293</ele>
        <time>2015-10-18T08:09:17.424Z</time>
      </trkpt>
      <trkpt lat="45.64169" lon="4.73753">
        <ele>293</ele>
        <time>2015-10-18T08:09:18.400Z</time>
      </trkpt>
      <trkpt lat="45.64168" lon="4.73745">
        <ele>294</ele>
        <time>2015-10-18T08:09:21.416Z</time>
      </trkpt>
      <trkpt lat="45.64166" lon="4.7374">
        <ele>294</ele>
        <time>2015-10-18T08:09:22.379Z</time>
      </trkpt>
      <trkpt lat="45.64164" lon="4.7373">
        <ele>294</ele>
        <time>2015-10-18T08:09:25.420Z</time>
      </trkpt>
      <trkpt lat="45.64162" lon="4.73725">
        <ele>294</ele>
        <time>2015-10-18T08:09:26.394Z</time>
      </trkpt>
      <trkpt lat="45.64158" lon="4.73717">
        <ele>295</ele>
        <time>2015-10-18T08:09:29.429Z</time>
      </trkpt>
      <trkpt lat="45.64157" lon="4.73712">
        <ele>295</ele>
        <time>2015-10-18T08:09:30.398Z</time>
      </trkpt>
      <trkpt lat="45.64152" lon="4.73704">
        <ele>295</ele>
        <time>2015-10-18T08:09:33.425Z</time>
      </trkpt>
      <trkpt lat="45.6415" lon="4.737">
        <ele>295</ele>
        <time>2015-10-18T08:09:34.395Z</time>
      </trkpt>
      <trkpt lat="45.64146" lon="4.73689">
        <ele>295</ele>
        <time>2015-10-18T08:09:37.426Z</time>
      </trkpt>
      <trkpt lat="45.64143" lon="4.73687">
        <ele>295</ele>
        <time>2015-10-18T08:09:38.381Z</time>
      </trkpt>
      <trkpt lat="45.64139" lon="4.7368">
        <ele>295</ele>
        <time>2015-10-18T08:09:40.430Z</time>
      </trkpt>
      <trkpt lat="45.64138" lon="4.73676">
        <ele>296</ele>
        <time>2015-10-18T08:09:41.375Z</time>
      </trkpt>
      <trkpt lat="45.64132" lon="4.7367">
        <ele>295</ele>
        <time>2015-10-18T08:09:44.421Z</time>
      </trkpt>
      <trkpt lat="45.64131" lon="4.73665">
        <ele>298</ele>
        <time>2015-10-18T08:09:45.388Z</time>
      </trkpt>
      <trkpt lat="45.64125" lon="4.73659">
        <ele>298</ele>
        <time>2015-10-18T08:09:48.426Z</time>
      </trkpt>
      <trkpt lat="45.64123" lon="4.73655">
        <ele>298</ele>
        <time>2015-10-18T08:09:49.389Z</time>
      </trkpt>
      <trkpt lat="45.64119" lon="4.73646">
        <ele>298</ele>
        <time>2015-10-18T08:09:52.408Z</time>
      </trkpt>
      <trkpt lat="45.64118" lon="4.73642">
        <ele>298</ele>
        <time>2015-10-18T08:09:53.390Z</time>
      </trkpt>
      <trkpt lat="45.64114" lon="4.73631">
        <ele>299</ele>
        <time>2015-10-18T08:09:56.417Z</time>
      </trkpt>
      <trkpt lat="45.64114" lon="4.73627">
        <ele>299</ele>
        <time>2015-10-18T08:09:57.387Z</time>
      </trkpt>
      <trkpt lat="45.64113" lon="4.73618">
        <ele>299</ele>
        <time>2015-10-18T08:09:59.419Z</time>
      </trkpt>
      <trkpt lat="45.64112" lon="4.73614">
        <ele>299</ele>
        <time>2015-10-18T08:10:00.384Z</time>
      </trkpt>
      <trkpt lat="45.64112" lon="4.73603">
        <ele>299</ele>
        <time>2015-10-18T08:10:03.421Z</time>
      </trkpt>
      <trkpt lat="45.64112" lon="4.73599">
        <ele>299</ele>
        <time>2015-10-18T08:10:04.389Z</time>
      </trkpt>
      <trkpt lat="45.64113" lon="4.73588">
        <ele>300</ele>
        <time>2015-10-18T08:10:07.417Z</time>
      </trkpt>
      <trkpt lat="45.64112" lon="4.73584">
        <ele>300</ele>
        <time>2015-10-18T08:10:08.383Z</time>
      </trkpt>
      <trkpt lat="45.64113" lon="4.73575">
        <ele>302</ele>
        <time>2015-10-18T08:10:10.424Z</time>
      </trkpt>
      <trkpt lat="45.64114" lon="4.73571">
        <ele>302</ele>
        <time>2015-10-18T08:10:11.390Z</time>
      </trkpt>
      <trkpt lat="45.64116" lon="4.73562">
        <ele>303</ele>
        <time>2015-10-18T08:10:13.421Z</time>
      </trkpt>
      <trkpt lat="45.64116" lon="4.73558">
        <ele>303</ele>
        <time>2015-10-18T08:10:14.384Z</time>
      </trkpt>
      <trkpt lat="45.64117" lon="4.73547">
        <ele>303</ele>
        <time>2015-10-18T08:10:17.420Z</time>
      </trkpt>
      <trkpt lat="45.64117" lon="4.73543">
        <ele>303</ele>
        <time>2015-10-18T08:10:18.398Z</time>
      </trkpt>
      <trkpt lat="45.64117" lon="4.73532">
        <ele>303</ele>
        <time>2015-10-18T08:10:21.425Z</time>
      </trkpt>
      <trkpt lat="45.64118" lon="4.73528">
        <ele>304</ele>
        <time>2015-10-18T08:10:22.399Z</time>
      </trkpt>
      <trkpt lat="45.64117" lon="4.73519">
        <ele>304</ele>
        <time>2015-10-18T08:10:24.420Z</time>
      </trkpt>
      <trkpt lat="45.64118" lon="4.73515">
        <ele>304</ele>
        <time>2015-10-18T08:10:25.377Z</time>
      </trkpt>
      <trkpt lat="45.64117" lon="4.73504">
        <ele>304</ele>
        <time>2015-10-18T08:10:28.444Z</time>
      </trkpt>
      <trkpt lat="45.64117" lon="4.73502">
        <ele>304</ele>
        <time>2015-10-18T08:10:29.411Z</time>
      </trkpt>
      <trkpt lat="45.64117" lon="4.73491">
        <ele>307</ele>
        <time>2015-10-18T08:10:32.385Z</time>
      </trkpt>
      <trkpt lat="45.64117" lon="4.73485">
        <ele>307</ele>
        <time>2015-10-18T08:10:33.373Z</time>
      </trkpt>
      <trkpt lat="45.64114" lon="4.73476">
        <ele>307</ele>
        <time>2015-10-18T08:10:36.409Z</time>
      </trkpt>
      <trkpt lat="45.64113" lon="4.73472">
        <ele>307</ele>
        <time>2015-10-18T08:10:37.372Z</time>
      </trkpt>
      <trkpt lat="45.64112" lon="4.73461">
        <ele>308</ele>
        <time>2015-10-18T08:10:40.421Z</time>
      </trkpt>
      <trkpt lat="45.64111" lon="4.73459">
        <ele>308</ele>
        <time>2015-10-18T08:10:41.399Z</time>
      </trkpt>
      <trkpt lat="45.6411" lon="4.73451">
        <ele>308</ele>
        <time>2015-10-18T08:10:43.416Z</time>
      </trkpt>
      <trkpt lat="45.6411" lon="4.73446">
        <ele>308</ele>
        <time>2015-10-18T08:10:44.394Z</time>
      </trkpt>
      <trkpt lat="45.64109" lon="4.73436">
        <ele>308</ele>
        <time>2015-10-18T08:10:47.421Z</time>
      </trkpt>
      <trkpt lat="45.64109" lon="4.73431">
        <ele>308</ele>
        <time>2015-10-18T08:10:48.379Z</time>
      </trkpt>
      <trkpt lat="45.64107" lon="4.73423">
        <ele>308</ele>
        <time>2015-10-18T08:10:51.418Z</time>
      </trkpt>
      <trkpt lat="45.64106" lon="4.73418">
        <ele>308</ele>
        <time>2015-10-18T08:10:52.393Z</time>
      </trkpt>
      <trkpt lat="45.64106" lon="4.7341">
        <ele>311</ele>
        <time>2015-10-18T08:10:55.433Z</time>
      </trkpt>
      <trkpt lat="45.64105" lon="4.73406">
        <ele>311</ele>
        <time>2015-10-18T08:10:56.399Z</time>
      </trkpt>
      <trkpt lat="45.64105" lon="4.73397">
        <ele>311</ele>
        <time>2015-10-18T08:10:59.437Z</time>
      </trkpt>
      <trkpt lat="45.64104" lon="4.73393">
        <ele>312</ele>
        <time>2015-10-18T08:11:00.383Z</time>
      </trkpt>
      <trkpt lat="45.64103" lon="4.73382">
        <ele>312</ele>
        <time>2015-10-18T08:11:04.435Z</time>
      </trkpt>
      <trkpt lat="45.64104" lon="4.7338">
        <ele>312</ele>
        <time>2015-10-18T08:11:05.393Z</time>
      </trkpt>
      <trkpt lat="45.64104" lon="4.73371">
        <ele>313</ele>
        <time>2015-10-18T08:11:08.425Z</time>
      </trkpt>
      <trkpt lat="45.64104" lon="4.73367">
        <ele>313</ele>
        <time>2015-10-18T08:11:09.414Z</time>
      </trkpt>
      <trkpt lat="45.64104" lon="4.73354">
        <ele>313</ele>
        <time>2015-10-18T08:11:14.423Z</time>
      </trkpt>
      <trkpt lat="45.64104" lon="4.73352">
        <ele>313</ele>
        <time>2015-10-18T08:11:15.415Z</time>
      </trkpt>
      <trkpt lat="45.64099" lon="4.73341">
        <ele>314</ele>
        <time>2015-10-18T08:11:22.429Z</time>
      </trkpt>
      <trkpt lat="45.64098" lon="4.73341">
        <ele>314</ele>
        <time>2015-10-18T08:11:23.402Z</time>
      </trkpt>
      <trkpt lat="45.64091" lon="4.73339">
        <ele>314</ele>
        <time>2015-10-18T08:11:27.430Z</time>
      </trkpt>
      <trkpt lat="45.64088" lon="4.73335">
        <ele>315</ele>
        <time>2015-10-18T08:11:28.391Z</time>
      </trkpt>
      <trkpt lat="45.64079" lon="4.73333">
        <ele>315</ele>
        <time>2015-10-18T08:11:31.420Z</time>
      </trkpt>
      <trkpt lat="45.64077" lon="4.73333">
        <ele>315</ele>
        <time>2015-10-18T08:11:32.392Z</time>
      </trkpt>
      <trkpt lat="45.6407" lon="4.73328">
        <ele>316</ele>
        <time>2015-10-18T08:11:35.432Z</time>
      </trkpt>
      <trkpt lat="45.64067" lon="4.73328">
        <ele>316</ele>
        <time>2015-10-18T08:11:36.401Z</time>
      </trkpt>
      <trkpt lat="45.6406" lon="4.73324">
        <ele>316</ele>
        <time>2015-10-18T08:11:39.436Z</time>
      </trkpt>
      <trkpt lat="45.64058" lon="4.73322">
        <ele>316</ele>
        <time>2015-10-18T08:11:40.399Z</time>
      </trkpt>
      <trkpt lat="45.6405" lon="4.73318">
        <ele>316</ele>
        <time>2015-10-18T08:11:43.433Z</time>
      </trkpt>
      <trkpt lat="45.64048" lon="4.73315">
        <ele>316</ele>
        <time>2015-10-18T08:11:44.399Z</time>
      </trkpt>
      <trkpt lat="45.6404" lon="4.73311">
        <ele>316</ele>
        <time>2015-10-18T08:11:48.416Z</time>
      </trkpt>
      <trkpt lat="45.64038" lon="4.73309">
        <ele>316</ele>
        <time>2015-10-18T08:11:49.402Z</time>
      </trkpt>
      <trkpt lat="45.64033" lon="4.73307">
        <ele>316</ele>
        <time>2015-10-18T08:11:51.411Z</time>
      </trkpt>
      <trkpt lat="45.6403" lon="4.73305">
        <ele>316</ele>
        <time>2015-10-18T08:11:52.375Z</time>
      </trkpt>
      <trkpt lat="45.64023" lon="4.73303">
        <ele>316</ele>
        <time>2015-10-18T08:11:54.495Z</time>
      </trkpt>
      <trkpt lat="45.6402" lon="4.733">
        <ele>316</ele>
        <time>2015-10-18T08:11:55.380Z</time>
      </trkpt>
      <trkpt lat="45.64013" lon="4.73294">
        <ele>316</ele>
        <time>2015-10-18T08:11:58.429Z</time>
      </trkpt>
      <trkpt lat="45.6401" lon="4.73292">
        <ele>316</ele>
        <time>2015-10-18T08:11:59.407Z</time>
      </trkpt>
      <trkpt lat="45.64005" lon="4.73288">
        <ele>316</ele>
        <time>2015-10-18T08:12:01.433Z</time>
      </trkpt>
      <trkpt lat="45.64002" lon="4.73288">
        <ele>316</ele>
        <time>2015-10-18T08:12:02.396Z</time>
      </trkpt>
      <trkpt lat="45.63995" lon="4.73281">
        <ele>315</ele>
        <time>2015-10-18T08:12:05.421Z</time>
      </trkpt>
      <trkpt lat="45.63992" lon="4.73277">
        <ele>315</ele>
        <time>2015-10-18T08:12:06.395Z</time>
      </trkpt>
      <trkpt lat="45.63987" lon="4.73275">
        <ele>315</ele>
        <time>2015-10-18T08:12:08.426Z</time>
      </trkpt>
      <trkpt lat="45.63984" lon="4.73273">
        <ele>315</ele>
        <time>2015-10-18T08:12:09.394Z</time>
      </trkpt>
      <trkpt lat="45.63976" lon="4.7327">
        <ele>315</ele>
        <time>2015-10-18T08:12:11.456Z</time>
      </trkpt>
      <trkpt lat="45.63972" lon="4.73268">
        <ele>314</ele>
        <time>2015-10-18T08:12:12.394Z</time>
      </trkpt>
      <trkpt lat="45.63966" lon="4.7326">
        <ele>314</ele>
        <time>2015-10-18T08:12:14.524Z</time>
      </trkpt>
      <trkpt lat="45.63967" lon="4.73255">
        <ele>315</ele>
        <time>2015-10-18T08:12:15.394Z</time>
      </trkpt>
      <trkpt lat="45.6397" lon="4.73247">
        <ele>316</ele>
        <time>2015-10-18T08:12:17.434Z</time>
      </trkpt>
      <trkpt lat="45.63971" lon="4.73243">
        <ele>316</ele>
        <time>2015-10-18T08:12:18.399Z</time>
      </trkpt>
      <trkpt lat="45.63972" lon="4.73232">
        <ele>316</ele>
        <time>2015-10-18T08:12:20.430Z</time>
      </trkpt>
      <trkpt lat="45.63973" lon="4.73228">
        <ele>316</ele>
        <time>2015-10-18T08:12:21.399Z</time>
      </trkpt>
      <trkpt lat="45.63975" lon="4.73219">
        <ele>316</ele>
        <time>2015-10-18T08:12:23.430Z</time>
      </trkpt>
      <trkpt lat="45.63975" lon="4.73215">
        <ele>316</ele>
        <time>2015-10-18T08:12:24.396Z</time>
      </trkpt>
      <trkpt lat="45.63977" lon="4.73204">
        <ele>316</ele>
        <time>2015-10-18T08:12:27.436Z</time>
      </trkpt>
      <trkpt lat="45.63977" lon="4.732">
        <ele>316</ele>
        <time>2015-10-18T08:12:28.403Z</time>
      </trkpt>
      <trkpt lat="45.63978" lon="4.73191">
        <ele>317</ele>
        <time>2015-10-18T08:12:30.445Z</time>
      </trkpt>
      <trkpt lat="45.63979" lon="4.73187">
        <ele>317</ele>
        <time>2015-10-18T08:12:31.386Z</time>
      </trkpt>
      <trkpt lat="45.63982" lon="4.73178">
        <ele>317</ele>
        <time>2015-10-18T08:12:33.388Z</time>
      </trkpt>
      <trkpt lat="45.63984" lon="4.73174">
        <ele>317</ele>
        <time>2015-10-18T08:12:34.385Z</time>
      </trkpt>
      <trkpt lat="45.63985" lon="4.73165">
        <ele>318</ele>
        <time>2015-10-18T08:12:36.444Z</time>
      </trkpt>
      <trkpt lat="45.63986" lon="4.73161">
        <ele>318</ele>
        <time>2015-10-18T08:12:37.385Z</time>
      </trkpt>
      <trkpt lat="45.6399" lon="4.7315">
        <ele>318</ele>
        <time>2015-10-18T08:12:40.401Z</time>
      </trkpt>
      <trkpt lat="45.63992" lon="4.73146">
        <ele>318</ele>
        <time>2015-10-18T08:12:41.384Z</time>
      </trkpt>
      <trkpt lat="45.63996" lon="4.73135">
        <ele>318</ele>
        <time>2015-10-18T08:12:44.432Z</time>
      </trkpt>
      <trkpt lat="45.63998" lon="4.73131">
        <ele>318</ele>
        <time>2015-10-18T08:12:45.397Z</time>
      </trkpt>
      <trkpt lat="45.64002" lon="4.73125">
        <ele>321</ele>
        <time>2015-10-18T08:12:47.416Z</time>
      </trkpt>
      <trkpt lat="45.64004" lon="4.7312">
        <ele>321</ele>
        <time>2015-10-18T08:12:48.413Z</time>
      </trkpt>
      <trkpt lat="45.64008" lon="4.73109">
        <ele>321</ele>
        <time>2015-10-18T08:12:51.442Z</time>
      </trkpt>
      <trkpt lat="45.6401" lon="4.73105">
        <ele>321</ele>
        <time>2015-10-18T08:12:52.398Z</time>
      </trkpt>
      <trkpt lat="45.64015" lon="4.73094">
        <ele>321</ele>
        <time>2015-10-18T08:12:55.429Z</time>
      </trkpt>
      <trkpt lat="45.64017" lon="4.7309">
        <ele>321</ele>
        <time>2015-10-18T08:12:56.394Z</time>
      </trkpt>
      <trkpt lat="45.6402" lon="4.73079">
        <ele>323</ele>
        <time>2015-10-18T08:12:59.450Z</time>
      </trkpt>
      <trkpt lat="45.64021" lon="4.73075">
        <ele>323</ele>
        <time>2015-10-18T08:13:00.397Z</time>
      </trkpt>
      <trkpt lat="45.64025" lon="4.73064">
        <ele>324</ele>
        <time>2015-10-18T08:13:03.437Z</time>
      </trkpt>
      <trkpt lat="45.64028" lon="4.73062">
        <ele>324</ele>
        <time>2015-10-18T08:13:04.396Z</time>
      </trkpt>
      <trkpt lat="45.64032" lon="4.73052">
        <ele>325</ele>
        <time>2015-10-18T08:13:08.430Z</time>
      </trkpt>
      <trkpt lat="45.64033" lon="4.73049">
        <ele>325</ele>
        <time>2015-10-18T08:13:09.393Z</time>
      </trkpt>
      <trkpt lat="45.64037" lon="4.73041">
        <ele>325</ele>
        <time>2015-10-18T08:13:13.431Z</time>
      </trkpt>
      <trkpt lat="45.64038" lon="4.73039">
        <ele>325</ele>
        <time>2015-10-18T08:13:14.413Z</time>
      </trkpt>
      <trkpt lat="45.64043" lon="4.73028">
        <ele>326</ele>
        <time>2015-10-18T08:13:19.425Z</time>
      </trkpt>
      <trkpt lat="45.64044" lon="4.73026">
        <ele>326</ele>
        <time>2015-10-18T08:13:20.393Z</time>
      </trkpt>
      <trkpt lat="45.64048" lon="4.73017">
        <ele>326</ele>
        <time>2015-10-18T08:13:24.426Z</time>
      </trkpt>
      <trkpt lat="45.64049" lon="4.73013">
        <ele>326</ele>
        <time>2015-10-18T08:13:25.393Z</time>
      </trkpt>
      <trkpt lat="45.64053" lon="4.73004">
        <ele>327</ele>
        <time>2015-10-18T08:13:29.438Z</time>
      </trkpt>
      <trkpt lat="45.64054" lon="4.73002">
        <ele>327</ele>
        <time>2015-10-18T08:13:30.393Z</time>
      </trkpt>
      <trkpt lat="45.64059" lon="4.72991">
        <ele>330</ele>
        <time>2015-10-18T08:13:35.436Z</time>
      </trkpt>
      <trkpt lat="45.6406" lon="4.72989">
        <ele>330</ele>
        <time>2015-10-18T08:13:36.409Z</time>
      </trkpt>
      <trkpt lat="45.64064" lon="4.72979">
        <ele>330</ele>
        <time>2015-10-18T08:13:41.432Z</time>
      </trkpt>
      <trkpt lat="45.64064" lon="4.72976">
        <ele>330</ele>
        <time>2015-10-18T08:13:42.395Z</time>
      </trkpt>
      <trkpt lat="45.6407" lon="4.7297">
        <ele>331</ele>
        <time>2015-10-18T08:13:48.428Z</time>
      </trkpt>
      <trkpt lat="45.64072" lon="4.72968">
        <ele>331</ele>
        <time>2015-10-18T08:13:49.411Z</time>
      </trkpt>
      <trkpt lat="45.64076" lon="4.72957">
        <ele>331</ele>
        <time>2015-10-18T08:13:55.450Z</time>
      </trkpt>
      <trkpt lat="45.64077" lon="4.72955">
        <ele>331</ele>
        <time>2015-10-18T08:13:56.395Z</time>
      </trkpt>
      <trkpt lat="45.64078" lon="4.72944">
        <ele>332</ele>
        <time>2015-10-18T08:14:00.421Z</time>
      </trkpt>
      <trkpt lat="45.64079" lon="4.72942">
        <ele>332</ele>
        <time>2015-10-18T08:14:01.393Z</time>
      </trkpt>
      <trkpt lat="45.6408" lon="4.72931">
        <ele>333</ele>
        <time>2015-10-18T08:14:06.429Z</time>
      </trkpt>
      <trkpt lat="45.6408" lon="4.72929">
        <ele>334</ele>
        <time>2015-10-18T08:14:07.398Z</time>
      </trkpt>
      <trkpt lat="45.64078" lon="4.72919">
        <ele>335</ele>
        <time>2015-10-18T08:14:12.421Z</time>
      </trkpt>
      <trkpt lat="45.64077" lon="4.72914">
        <ele>336</ele>
        <time>2015-10-18T08:14:13.390Z</time>
      </trkpt>
      <trkpt lat="45.64073" lon="4.72903">
        <ele>336</ele>
        <time>2015-10-18T08:14:17.443Z</time>
      </trkpt>
      <trkpt lat="45.64072" lon="4.72901">
        <ele>336</ele>
        <time>2015-10-18T08:14:18.398Z</time>
      </trkpt>
      <trkpt lat="45.64069" lon="4.72891">
        <ele>336</ele>
        <time>2015-10-18T08:14:21.440Z</time>
      </trkpt>
      <trkpt lat="45.64068" lon="4.72888">
        <ele>336</ele>
        <time>2015-10-18T08:14:22.391Z</time>
      </trkpt>
      <trkpt lat="45.64065" lon="4.72882">
        <ele>336</ele>
        <time>2015-10-18T08:14:25.423Z</time>
      </trkpt>
      <trkpt lat="45.64063" lon="4.72876">
        <ele>336</ele>
        <time>2015-10-18T08:14:26.393Z</time>
      </trkpt>
      <trkpt lat="45.6406" lon="4.72865">
        <ele>337</ele>
        <time>2015-10-18T08:14:29.423Z</time>
      </trkpt>
      <trkpt lat="45.64059" lon="4.72861">
        <ele>337</ele>
        <time>2015-10-18T08:14:30.398Z</time>
      </trkpt>
      <trkpt lat="45.64054" lon="4.7285">
        <ele>337</ele>
        <time>2015-10-18T08:14:33.450Z</time>
      </trkpt>
      <trkpt lat="45.64053" lon="4.72846">
        <ele>337</ele>
        <time>2015-10-18T08:14:34.393Z</time>
      </trkpt>
      <trkpt lat="45.64062" lon="4.72843">
        <ele>338</ele>
        <time>2015-10-18T08:14:38.434Z</time>
      </trkpt>
      <trkpt lat="45.64064" lon="4.72841">
        <ele>338</ele>
        <time>2015-10-18T08:14:39.417Z</time>
      </trkpt>
      <trkpt lat="45.64072" lon="4.72837">
        <ele>339</ele>
        <time>2015-10-18T08:14:42.438Z</time>
      </trkpt>
      <trkpt lat="45.64073" lon="4.72835">
        <ele>339</ele>
        <time>2015-10-18T08:14:43.394Z</time>
      </trkpt>
      <trkpt lat="45.64078" lon="4.72831">
        <ele>341</ele>
        <time>2015-10-18T08:14:45.428Z</time>
      </trkpt>
      <trkpt lat="45.64081" lon="4.72831">
        <ele>341</ele>
        <time>2015-10-18T08:14:46.399Z</time>
      </trkpt>
      <trkpt lat="45.64089" lon="4.72824">
        <ele>342</ele>
        <time>2015-10-18T08:14:50.441Z</time>
      </trkpt>
      <trkpt lat="45.6409" lon="4.72822">
        <ele>342</ele>
        <time>2015-10-18T08:14:51.400Z</time>
      </trkpt>
      <trkpt lat="45.64097" lon="4.72816">
        <ele>342</ele>
        <time>2015-10-18T08:14:54.431Z</time>
      </trkpt>
      <trkpt lat="45.64098" lon="4.72813">
        <ele>342</ele>
        <time>2015-10-18T08:14:55.394Z</time>
      </trkpt>
      <trkpt lat="45.64104" lon="4.72807">
        <ele>342</ele>
        <time>2015-10-18T08:14:58.436Z</time>
      </trkpt>
      <trkpt lat="45.64106" lon="4.72803">
        <ele>342</ele>
        <time>2015-10-18T08:14:59.396Z</time>
      </trkpt>
      <trkpt lat="45.64111" lon="4.72796">
        <ele>343</ele>
        <time>2015-10-18T08:15:02.452Z</time>
      </trkpt>
      <trkpt lat="45.64113" lon="4.72794">
        <ele>343</ele>
        <time>2015-10-18T08:15:03.394Z</time>
      </trkpt>
      <trkpt lat="45.6412" lon="4.72792">
        <ele>343</ele>
        <time>2015-10-18T08:15:06.425Z</time>
      </trkpt>
      <trkpt lat="45.64122" lon="4.7279">
        <ele>343</ele>
        <time>2015-10-18T08:15:07.396Z</time>
      </trkpt>
      <trkpt lat="45.64128" lon="4.72783">
        <ele>343</ele>
        <time>2015-10-18T08:15:10.407Z</time>
      </trkpt>
      <trkpt lat="45.64131" lon="4.72781">
        <ele>343</ele>
        <time>2015-10-18T08:15:11.392Z</time>
      </trkpt>
      <trkpt lat="45.64137" lon="4.72775">
        <ele>343</ele>
        <time>2015-10-18T08:15:15.430Z</time>
      </trkpt>
      <trkpt lat="45.64138" lon="4.72773">
        <ele>343</ele>
        <time>2015-10-18T08:15:16.393Z</time>
      </trkpt>
      <trkpt lat="45.64144" lon="4.72768">
        <ele>343</ele>
        <time>2015-10-18T08:15:19.435Z</time>
      </trkpt>
      <trkpt lat="45.64147" lon="4.72766">
        <ele>343</ele>
        <time>2015-10-18T08:15:20.397Z</time>
      </trkpt>
      <trkpt lat="45.64154" lon="4.7276">
        <ele>343</ele>
        <time>2015-10-18T08:15:24.429Z</time>
      </trkpt>
      <trkpt lat="45.64156" lon="4.72755">
        <ele>344</ele>
        <time>2015-10-18T08:15:25.393Z</time>
      </trkpt>
      <trkpt lat="45.64162" lon="4.72747">
        <ele>344</ele>
        <time>2015-10-18T08:15:28.431Z</time>
      </trkpt>
      <trkpt lat="45.64162" lon="4.72745">
        <ele>344</ele>
        <time>2015-10-18T08:15:29.395Z</time>
      </trkpt>
      <trkpt lat="45.64162" lon="4.72736">
        <ele>344</ele>
        <time>2015-10-18T08:15:31.430Z</time>
      </trkpt>
      <trkpt lat="45.64161" lon="4.72732">
        <ele>344</ele>
        <time>2015-10-18T08:15:32.392Z</time>
      </trkpt>
      <trkpt lat="45.64161" lon="4.72723">
        <ele>344</ele>
        <time>2015-10-18T08:15:35.431Z</time>
      </trkpt>
      <trkpt lat="45.64161" lon="4.72717">
        <ele>344</ele>
        <time>2015-10-18T08:15:36.396Z</time>
      </trkpt>
      <trkpt lat="45.6416" lon="4.72706">
        <ele>344</ele>
        <time>2015-10-18T08:15:39.423Z</time>
      </trkpt>
      <trkpt lat="45.64158" lon="4.72704">
        <ele>344</ele>
        <time>2015-10-18T08:15:40.411Z</time>
      </trkpt>
      <trkpt lat="45.64157" lon="4.72693">
        <ele>344</ele>
        <time>2015-10-18T08:15:42.436Z</time>
      </trkpt>
      <trkpt lat="45.64156" lon="4.72689">
        <ele>344</ele>
        <time>2015-10-18T08:15:43.388Z</time>
      </trkpt>
      <trkpt lat="45.64154" lon="4.7268">
        <ele>344</ele>
        <time>2015-10-18T08:15:45.434Z</time>
      </trkpt>
      <trkpt lat="45.64154" lon="4.72676">
        <ele>344</ele>
        <time>2015-10-18T08:15:46.409Z</time>
      </trkpt>
      <trkpt lat="45.64153" lon="4.72667">
        <ele>344</ele>
        <time>2015-10-18T08:15:48.442Z</time>
      </trkpt>
      <trkpt lat="45.64153" lon="4.72663">
        <ele>344</ele>
        <time>2015-10-18T08:15:49.397Z</time>
      </trkpt>
      <trkpt lat="45.64151" lon="4.72652">
        <ele>344</ele>
        <time>2015-10-18T08:15:51.429Z</time>
      </trkpt>
      <trkpt lat="45.64151" lon="4.72648">
        <ele>344</ele>
        <time>2015-10-18T08:15:52.381Z</time>
      </trkpt>
      <trkpt lat="45.6415" lon="4.7264">
        <ele>344</ele>
        <time>2015-10-18T08:15:54.422Z</time>
      </trkpt>
      <trkpt lat="45.64149" lon="4.72635">
        <ele>344</ele>
        <time>2015-10-18T08:15:55.387Z</time>
      </trkpt>
      <trkpt lat="45.64147" lon="4.72627">
        <ele>345</ele>
        <time>2015-10-18T08:15:57.427Z</time>
      </trkpt>
      <trkpt lat="45.64147" lon="4.72622">
        <ele>345</ele>
        <time>2015-10-18T08:15:58.392Z</time>
      </trkpt>
      <trkpt lat="45.64146" lon="4.72612">
        <ele>345</ele>
        <time>2015-10-18T08:16:00.422Z</time>
      </trkpt>
      <trkpt lat="45.64146" lon="4.72607">
        <ele>344</ele>
        <time>2015-10-18T08:16:01.403Z</time>
      </trkpt>
      <trkpt lat="45.64144" lon="4.72597">
        <ele>344</ele>
        <time>2015-10-18T08:16:03.426Z</time>
      </trkpt>
      <trkpt lat="45.64143" lon="4.72592">
        <ele>344</ele>
        <time>2015-10-18T08:16:04.394Z</time>
      </trkpt>
      <trkpt lat="45.64143" lon="4.72584">
        <ele>344</ele>
        <time>2015-10-18T08:16:06.431Z</time>
      </trkpt>
      <trkpt lat="45.64142" lon="4.72579">
        <ele>344</ele>
        <time>2015-10-18T08:16:07.393Z</time>
      </trkpt>
      <trkpt lat="45.64141" lon="4.72569">
        <ele>344</ele>
        <time>2015-10-18T08:16:09.428Z</time>
      </trkpt>
      <trkpt lat="45.6414" lon="4.72562">
        <ele>344</ele>
        <time>2015-10-18T08:16:10.424Z</time>
      </trkpt>
      <trkpt lat="45.6414" lon="4.72556">
        <ele>344</ele>
        <time>2015-10-18T08:16:11.413Z</time>
      </trkpt>
      <trkpt lat="45.6414" lon="4.72549">
        <ele>344</ele>
        <time>2015-10-18T08:16:12.400Z</time>
      </trkpt>
      <trkpt lat="45.6414" lon="4.72543">
        <ele>344</ele>
        <time>2015-10-18T08:16:13.423Z</time>
      </trkpt>
      <trkpt lat="45.6414" lon="4.72534">
        <ele>344</ele>
        <time>2015-10-18T08:16:14.394Z</time>
      </trkpt>
      <trkpt lat="45.64142" lon="4.72528">
        <ele>344</ele>
        <time>2015-10-18T08:16:15.447Z</time>
      </trkpt>
      <trkpt lat="45.64143" lon="4.72522">
        <ele>344</ele>
        <time>2015-10-18T08:16:16.399Z</time>
      </trkpt>
      <trkpt lat="45.64146" lon="4.72515">
        <ele>344</ele>
        <time>2015-10-18T08:16:17.420Z</time>
      </trkpt>
      <trkpt lat="45.64147" lon="4.72507">
        <ele>343</ele>
        <time>2015-10-18T08:16:18.396Z</time>
      </trkpt>
      <trkpt lat="45.64148" lon="4.725">
        <ele>342</ele>
        <time>2015-10-18T08:16:19.435Z</time>
      </trkpt>
      <trkpt lat="45.64148" lon="4.72492">
        <ele>343</ele>
        <time>2015-10-18T08:16:20.399Z</time>
      </trkpt>
      <trkpt lat="45.64148" lon="4.72483">
        <ele>343</ele>
        <time>2015-10-18T08:16:21.452Z</time>
      </trkpt>
      <trkpt lat="45.64148" lon="4.72474">
        <ele>343</ele>
        <time>2015-10-18T08:16:22.398Z</time>
      </trkpt>
      <trkpt lat="45.64148" lon="4.72468">
        <ele>343</ele>
        <time>2015-10-18T08:16:23.416Z</time>
      </trkpt>
      <trkpt lat="45.64148" lon="4.72459">
        <ele>343</ele>
        <time>2015-10-18T08:16:24.409Z</time>
      </trkpt>
      <trkpt lat="45.64147" lon="4.72451">
        <ele>343</ele>
        <time>2015-10-18T08:16:25.434Z</time>
      </trkpt>
      <trkpt lat="45.64147" lon="4.72444">
        <ele>343</ele>
        <time>2015-10-18T08:16:26.398Z</time>
      </trkpt>
      <trkpt lat="45.64144" lon="4.72434">
        <ele>343</ele>
        <time>2015-10-18T08:16:28.441Z</time>
      </trkpt>
      <trkpt lat="45.64144" lon="4.72427">
        <ele>343</ele>
        <time>2015-10-18T08:16:29.399Z</time>
      </trkpt>
      <trkpt lat="45.64144" lon="4.72416">
        <ele>342</ele>
        <time>2015-10-18T08:16:31.420Z</time>
      </trkpt>
      <trkpt lat="45.64143" lon="4.7241">
        <ele>342</ele>
        <time>2015-10-18T08:16:32.392Z</time>
      </trkpt>
      <trkpt lat="45.64142" lon="4.72401">
        <ele>342</ele>
        <time>2015-10-18T08:16:34.443Z</time>
      </trkpt>
      <trkpt lat="45.64142" lon="4.72397">
        <ele>342</ele>
        <time>2015-10-18T08:16:35.413Z</time>
      </trkpt>
      <trkpt lat="45.6415" lon="4.72391">
        <ele>342</ele>
        <time>2015-10-18T08:16:39.436Z</time>
      </trkpt>
      <trkpt lat="45.64153" lon="4.72389">
        <ele>342</ele>
        <time>2015-10-18T08:16:40.404Z</time>
      </trkpt>
      <trkpt lat="45.64162" lon="4.72391">
        <ele>342</ele>
        <time>2015-10-18T08:16:43.426Z</time>
      </trkpt>
      <trkpt lat="45.64164" lon="4.72391">
        <ele>342</ele>
        <time>2015-10-18T08:16:44.412Z</time>
      </trkpt>
      <trkpt lat="45.64172" lon="4.72389">
        <ele>340</ele>
        <time>2015-10-18T08:16:48.448Z</time>
      </trkpt>
      <trkpt lat="45.64176" lon="4.72391">
        <ele>340</ele>
        <time>2015-10-18T08:16:49.398Z</time>
      </trkpt>
      <trkpt lat="45.64182" lon="4.72393">
        <ele>340</ele>
        <time>2015-10-18T08:16:52.489Z</time>
      </trkpt>
      <trkpt lat="45.64184" lon="4.72395">
        <ele>340</ele>
        <time>2015-10-18T08:16:53.394Z</time>
      </trkpt>
      <trkpt lat="45.64193" lon="4.72393">
        <ele>340</ele>
        <time>2015-10-18T08:16:57.395Z</time>
      </trkpt>
      <trkpt lat="45.64194" lon="4.72393">
        <ele>340</ele>
        <time>2015-10-18T08:16:58.394Z</time>
      </trkpt>
      <trkpt lat="45.64202" lon="4.72393">
        <ele>340</ele>
        <time>2015-10-18T08:17:08.403Z</time>
      </trkpt>
      <trkpt lat="45.64204" lon="4.72393">
        <ele>340</ele>
        <time>2015-10-18T08:17:09.394Z</time>
      </trkpt>
      <trkpt lat="45.64196" lon="4.72391">
        <ele>340</ele>
        <time>2015-10-18T08:17:16.404Z</time>
      </trkpt>
      <trkpt lat="45.64194" lon="4.72391">
        <ele>340</ele>
        <time>2015-10-18T08:17:17.372Z</time>
      </trkpt>
      <trkpt lat="45.64185" lon="4.72393">
        <ele>340</ele>
        <time>2015-10-18T08:17:25.427Z</time>
      </trkpt>
      <trkpt lat="45.64184" lon="4.72393">
        <ele>340</ele>
        <time>2015-10-18T08:17:26.391Z</time>
      </trkpt>
      <trkpt lat="45.64193" lon="4.72395">
        <ele>340</ele>
        <time>2015-10-18T08:17:46.425Z</time>
      </trkpt>
      <trkpt lat="45.64195" lon="4.72395">
        <ele>340</ele>
        <time>2015-10-18T08:17:47.390Z</time>
      </trkpt>
      <trkpt lat="45.64202" lon="4.72395">
        <ele>340</ele>
        <time>2015-10-18T08:17:52.431Z</time>
      </trkpt>
      <trkpt lat="45.64206" lon="4.72397">
        <ele>340</ele>
        <time>2015-10-18T08:17:53.392Z</time>
      </trkpt>
      <trkpt lat="45.64213" lon="4.72397">
        <ele>340</ele>
        <time>2015-10-18T08:17:56.434Z</time>
      </trkpt>
      <trkpt lat="45.64216" lon="4.72397">
        <ele>340</ele>
        <time>2015-10-18T08:17:57.396Z</time>
      </trkpt>
      <trkpt lat="45.64221" lon="4.72395">
        <ele>339</ele>
        <time>2015-10-18T08:17:58.435Z</time>
      </trkpt>
      <trkpt lat="45.64226" lon="4.72395">
        <ele>339</ele>
        <time>2015-10-18T08:17:59.393Z</time>
      </trkpt>
      <trkpt lat="45.64231" lon="4.72395">
        <ele>339</ele>
        <time>2015-10-18T08:18:00.433Z</time>
      </trkpt>
      <trkpt lat="45.64237" lon="4.72395">
        <ele>339</ele>
        <time>2015-10-18T08:18:01.387Z</time>
      </trkpt>
      <trkpt lat="45.64243" lon="4.72395">
        <ele>339</ele>
        <time>2015-10-18T08:18:02.417Z</time>
      </trkpt>
      <trkpt lat="45.6425" lon="4.72395">
        <ele>339</ele>
        <time>2015-10-18T08:18:03.400Z</time>
      </trkpt>
      <trkpt lat="45.64258" lon="4.72395">
        <ele>335</ele>
        <time>2015-10-18T08:18:04.442Z</time>
      </trkpt>
      <trkpt lat="45.64266" lon="4.72393">
        <ele>335</ele>
        <time>2015-10-18T08:18:05.396Z</time>
      </trkpt>
      <trkpt lat="45.64274" lon="4.72395">
        <ele>335</ele>
        <time>2015-10-18T08:18:06.419Z</time>
      </trkpt>
      <trkpt lat="45.64282" lon="4.72399">
        <ele>334</ele>
        <time>2015-10-18T08:18:07.376Z</time>
      </trkpt>
      <trkpt lat="45.64289" lon="4.72404">
        <ele>334</ele>
        <time>2015-10-18T08:18:08.401Z</time>
      </trkpt>
      <trkpt lat="45.64296" lon="4.72412">
        <ele>333</ele>
        <time>2015-10-18T08:18:09.374Z</time>
      </trkpt>
      <trkpt lat="45.64296" lon="4.72412">
        <ele>333</ele>
        <time>2015-10-18T08:18:09.406Z</time>
      </trkpt>
      <trkpt lat="45.643" lon="4.72425">
        <ele>330</ele>
        <time>2015-10-18T08:18:10.389Z</time>
      </trkpt>
      <trkpt lat="45.64304" lon="4.72434">
        <ele>330</ele>
        <time>2015-10-18T08:18:11.406Z</time>
      </trkpt>
      <trkpt lat="45.64306" lon="4.72438">
        <ele>329</ele>
        <time>2015-10-18T08:18:12.390Z</time>
      </trkpt>
      <trkpt lat="45.64304" lon="4.72449">
        <ele>329</ele>
        <time>2015-10-18T08:18:14.419Z</time>
      </trkpt>
      <trkpt lat="45.64304" lon="4.72453">
        <ele>329</ele>
        <time>2015-10-18T08:18:15.399Z</time>
      </trkpt>
      <trkpt lat="45.64304" lon="4.72464">
        <ele>329</ele>
        <time>2015-10-18T08:18:16.422Z</time>
      </trkpt>
      <trkpt lat="45.64305" lon="4.7247">
        <ele>328</ele>
        <time>2015-10-18T08:18:17.392Z</time>
      </trkpt>
      <trkpt lat="45.64308" lon="4.72481">
        <ele>328</ele>
        <time>2015-10-18T08:18:18.422Z</time>
      </trkpt>
      <trkpt lat="45.64309" lon="4.72492">
        <ele>327</ele>
        <time>2015-10-18T08:18:19.371Z</time>
      </trkpt>
      <trkpt lat="45.64309" lon="4.725">
        <ele>327</ele>
        <time>2015-10-18T08:18:20.402Z</time>
      </trkpt>
      <trkpt lat="45.64308" lon="4.72509">
        <ele>326</ele>
        <time>2015-10-18T08:18:21.360Z</time>
      </trkpt>
      <trkpt lat="45.64309" lon="4.72517">
        <ele>326</ele>
        <time>2015-10-18T08:18:22.410Z</time>
      </trkpt>
      <trkpt lat="45.6431" lon="4.72528">
        <ele>326</ele>
        <time>2015-10-18T08:18:23.382Z</time>
      </trkpt>
      <trkpt lat="45.64314" lon="4.72537">
        <ele>326</ele>
        <time>2015-10-18T08:18:24.410Z</time>
      </trkpt>
      <trkpt lat="45.6432" lon="4.72541">
        <ele>326</ele>
        <time>2015-10-18T08:18:25.374Z</time>
      </trkpt>
      <trkpt lat="45.64328" lon="4.72545">
        <ele>326</ele>
        <time>2015-10-18T08:18:26.427Z</time>
      </trkpt>
      <trkpt lat="45.64337" lon="4.72547">
        <ele>320</ele>
        <time>2015-10-18T08:18:27.384Z</time>
      </trkpt>
      <trkpt lat="45.64344" lon="4.72549">
        <ele>319</ele>
        <time>2015-10-18T08:18:28.425Z</time>
      </trkpt>
      <trkpt lat="45.64352" lon="4.72554">
        <ele>319</ele>
        <time>2015-10-18T08:18:29.391Z</time>
      </trkpt>
      <trkpt lat="45.64359" lon="4.72558">
        <ele>319</ele>
        <time>2015-10-18T08:18:30.424Z</time>
      </trkpt>
      <trkpt lat="45.64368" lon="4.72562">
        <ele>318</ele>
        <time>2015-10-18T08:18:31.397Z</time>
      </trkpt>
      <trkpt lat="45.64368" lon="4.72562">
        <ele>318</ele>
        <time>2015-10-18T08:18:31.426Z</time>
      </trkpt>
      <trkpt lat="45.64377" lon="4.72567">
        <ele>317</ele>
        <time>2015-10-18T08:18:32.390Z</time>
      </trkpt>
      <trkpt lat="45.64377" lon="4.72567">
        <ele>317</ele>
        <time>2015-10-18T08:18:32.430Z</time>
      </trkpt>
      <trkpt lat="45.64386" lon="4.72571">
        <ele>316</ele>
        <time>2015-10-18T08:18:33.391Z</time>
      </trkpt>
      <trkpt lat="45.64386" lon="4.72571">
        <ele>316</ele>
        <time>2015-10-18T08:18:33.421Z</time>
      </trkpt>
      <trkpt lat="45.64396" lon="4.72577">
        <ele>315</ele>
        <time>2015-10-18T08:18:34.392Z</time>
      </trkpt>
      <trkpt lat="45.64396" lon="4.72577">
        <ele>315</ele>
        <time>2015-10-18T08:18:34.419Z</time>
      </trkpt>
      <trkpt lat="45.64405" lon="4.72584">
        <ele>314</ele>
        <time>2015-10-18T08:18:35.389Z</time>
      </trkpt>
      <trkpt lat="45.64405" lon="4.72584">
        <ele>314</ele>
        <time>2015-10-18T08:18:35.416Z</time>
      </trkpt>
      <trkpt lat="45.64415" lon="4.7259">
        <ele>313</ele>
        <time>2015-10-18T08:18:36.391Z</time>
      </trkpt>
      <trkpt lat="45.64415" lon="4.7259">
        <ele>313</ele>
        <time>2015-10-18T08:18:36.423Z</time>
      </trkpt>
      <trkpt lat="45.64422" lon="4.72599">
        <ele>310</ele>
        <time>2015-10-18T08:18:37.391Z</time>
      </trkpt>
      <trkpt lat="45.64422" lon="4.72599">
        <ele>310</ele>
        <time>2015-10-18T08:18:37.416Z</time>
      </trkpt>
      <trkpt lat="45.64427" lon="4.72612">
        <ele>310</ele>
        <time>2015-10-18T08:18:38.393Z</time>
      </trkpt>
      <trkpt lat="45.64427" lon="4.72612">
        <ele>310</ele>
        <time>2015-10-18T08:18:38.429Z</time>
      </trkpt>
      <trkpt lat="45.64429" lon="4.72625">
        <ele>310</ele>
        <time>2015-10-18T08:18:39.390Z</time>
      </trkpt>
      <trkpt lat="45.64431" lon="4.72635">
        <ele>310</ele>
        <time>2015-10-18T08:18:40.392Z</time>
      </trkpt>
      <trkpt lat="45.64433" lon="4.72644">
        <ele>311</ele>
        <time>2015-10-18T08:18:41.379Z</time>
      </trkpt>
      <trkpt lat="45.6444" lon="4.72652">
        <ele>311</ele>
        <time>2015-10-18T08:18:44.432Z</time>
      </trkpt>
      <trkpt lat="45.64444" lon="4.72652">
        <ele>311</ele>
        <time>2015-10-18T08:18:45.386Z</time>
      </trkpt>
      <trkpt lat="45.64451" lon="4.72652">
        <ele>310</ele>
        <time>2015-10-18T08:18:46.396Z</time>
      </trkpt>
      <trkpt lat="45.64457" lon="4.72655">
        <ele>309</ele>
        <time>2015-10-18T08:18:47.388Z</time>
      </trkpt>
      <trkpt lat="45.64463" lon="4.72655">
        <ele>309</ele>
        <time>2015-10-18T08:18:48.419Z</time>
      </trkpt>
      <trkpt lat="45.64469" lon="4.72655">
        <ele>308</ele>
        <time>2015-10-18T08:18:49.381Z</time>
      </trkpt>
      <trkpt lat="45.64476" lon="4.72657">
        <ele>308</ele>
        <time>2015-10-18T08:18:50.418Z</time>
      </trkpt>
      <trkpt lat="45.64484" lon="4.72657">
        <ele>307</ele>
        <time>2015-10-18T08:18:51.394Z</time>
      </trkpt>
      <trkpt lat="45.64492" lon="4.72655">
        <ele>307</ele>
        <time>2015-10-18T08:18:52.407Z</time>
      </trkpt>
      <trkpt lat="45.64501" lon="4.72655">
        <ele>303</ele>
        <time>2015-10-18T08:18:53.396Z</time>
      </trkpt>
      <trkpt lat="45.64501" lon="4.72655">
        <ele>303</ele>
        <time>2015-10-18T08:18:53.447Z</time>
      </trkpt>
      <trkpt lat="45.6451" lon="4.72652">
        <ele>302</ele>
        <time>2015-10-18T08:18:54.389Z</time>
      </trkpt>
      <trkpt lat="45.6451" lon="4.72652">
        <ele>302</ele>
        <time>2015-10-18T08:18:54.423Z</time>
      </trkpt>
      <trkpt lat="45.6452" lon="4.7265">
        <ele>301</ele>
        <time>2015-10-18T08:18:55.398Z</time>
      </trkpt>
      <trkpt lat="45.6452" lon="4.7265">
        <ele>301</ele>
        <time>2015-10-18T08:18:55.432Z</time>
      </trkpt>
      <trkpt lat="45.6453" lon="4.7265">
        <ele>300</ele>
        <time>2015-10-18T08:18:56.391Z</time>
      </trkpt>
      <trkpt lat="45.64536" lon="4.7265">
        <ele>299</ele>
        <time>2015-10-18T08:18:57.426Z</time>
      </trkpt>
      <trkpt lat="45.64539" lon="4.7265">
        <ele>299</ele>
        <time>2015-10-18T08:18:58.398Z</time>
      </trkpt>
      <trkpt lat="45.6454" lon="4.7264">
        <ele>299</ele>
        <time>2015-10-18T08:19:01.419Z</time>
      </trkpt>
      <trkpt lat="45.64541" lon="4.72637">
        <ele>299</ele>
        <time>2015-10-18T08:19:02.378Z</time>
      </trkpt>
      <trkpt lat="45.64548" lon="4.72629">
        <ele>298</ele>
        <time>2015-10-18T08:19:07.431Z</time>
      </trkpt>
      <trkpt lat="45.64552" lon="4.72627">
        <ele>298</ele>
        <time>2015-10-18T08:19:08.383Z</time>
      </trkpt>
      <trkpt lat="45.64558" lon="4.72627">
        <ele>298</ele>
        <time>2015-10-18T08:19:09.415Z</time>
      </trkpt>
      <trkpt lat="45.64563" lon="4.72625">
        <ele>297</ele>
        <time>2015-10-18T08:19:10.401Z</time>
      </trkpt>
      <trkpt lat="45.64568" lon="4.72622">
        <ele>297</ele>
        <time>2015-10-18T08:19:11.418Z</time>
      </trkpt>
      <trkpt lat="45.64574" lon="4.72622">
        <ele>297</ele>
        <time>2015-10-18T08:19:12.385Z</time>
      </trkpt>
      <trkpt lat="45.64579" lon="4.7262">
        <ele>297</ele>
        <time>2015-10-18T08:19:13.396Z</time>
      </trkpt>
      <trkpt lat="45.64585" lon="4.72618">
        <ele>292</ele>
        <time>2015-10-18T08:19:14.381Z</time>
      </trkpt>
      <trkpt lat="45.64593" lon="4.72616">
        <ele>291</ele>
        <time>2015-10-18T08:19:15.522Z</time>
      </trkpt>
      <trkpt lat="45.64599" lon="4.72614">
        <ele>291</ele>
        <time>2015-10-18T08:19:16.395Z</time>
      </trkpt>
      <trkpt lat="45.64607" lon="4.7261">
        <ele>291</ele>
        <time>2015-10-18T08:19:17.419Z</time>
      </trkpt>
      <trkpt lat="45.64615" lon="4.72607">
        <ele>291</ele>
        <time>2015-10-18T08:19:18.392Z</time>
      </trkpt>
      <trkpt lat="45.64623" lon="4.72605">
        <ele>290</ele>
        <time>2015-10-18T08:19:19.427Z</time>
      </trkpt>
      <trkpt lat="45.64632" lon="4.72603">
        <ele>290</ele>
        <time>2015-10-18T08:19:20.396Z</time>
      </trkpt>
      <trkpt lat="45.64639" lon="4.72601">
        <ele>289</ele>
        <time>2015-10-18T08:19:21.423Z</time>
      </trkpt>
      <trkpt lat="45.64646" lon="4.72597">
        <ele>289</ele>
        <time>2015-10-18T08:19:22.391Z</time>
      </trkpt>
      <trkpt lat="45.64653" lon="4.72594">
        <ele>288</ele>
        <time>2015-10-18T08:19:23.416Z</time>
      </trkpt>
      <trkpt lat="45.64658" lon="4.72592">
        <ele>288</ele>
        <time>2015-10-18T08:19:24.386Z</time>
      </trkpt>
      <trkpt lat="45.64661" lon="4.72582">
        <ele>287</ele>
        <time>2015-10-18T08:19:27.536Z</time>
      </trkpt>
      <trkpt lat="45.64657" lon="4.72575">
        <ele>287</ele>
        <time>2015-10-18T08:19:28.389Z</time>
      </trkpt>
      <trkpt lat="45.64657" lon="4.72562">
        <ele>288</ele>
        <time>2015-10-18T08:19:30.414Z</time>
      </trkpt>
      <trkpt lat="45.64659" lon="4.72558">
        <ele>288</ele>
        <time>2015-10-18T08:19:31.379Z</time>
      </trkpt>
      <trkpt lat="45.64666" lon="4.72552">
        <ele>288</ele>
        <time>2015-10-18T08:19:34.416Z</time>
      </trkpt>
      <trkpt lat="45.64667" lon="4.72547">
        <ele>284</ele>
        <time>2015-10-18T08:19:35.393Z</time>
      </trkpt>
      <trkpt lat="45.64667" lon="4.72539">
        <ele>284</ele>
        <time>2015-10-18T08:19:37.444Z</time>
      </trkpt>
      <trkpt lat="45.64668" lon="4.72534">
        <ele>284</ele>
        <time>2015-10-18T08:19:38.392Z</time>
      </trkpt>
      <trkpt lat="45.6467" lon="4.72524">
        <ele>284</ele>
        <time>2015-10-18T08:19:41.425Z</time>
      </trkpt>
      <trkpt lat="45.64671" lon="4.72519">
        <ele>284</ele>
        <time>2015-10-18T08:19:42.392Z</time>
      </trkpt>
      <trkpt lat="45.64673" lon="4.72511">
        <ele>285</ele>
        <time>2015-10-18T08:19:44.421Z</time>
      </trkpt>
      <trkpt lat="45.64674" lon="4.72507">
        <ele>285</ele>
        <time>2015-10-18T08:19:45.389Z</time>
      </trkpt>
      <trkpt lat="45.6468" lon="4.72498">
        <ele>286</ele>
        <time>2015-10-18T08:19:47.424Z</time>
      </trkpt>
      <trkpt lat="45.64681" lon="4.72494">
        <ele>286</ele>
        <time>2015-10-18T08:19:48.391Z</time>
      </trkpt>
      <trkpt lat="45.64684" lon="4.72485">
        <ele>286</ele>
        <time>2015-10-18T08:19:50.423Z</time>
      </trkpt>
      <trkpt lat="45.64685" lon="4.72481">
        <ele>286</ele>
        <time>2015-10-18T08:19:51.398Z</time>
      </trkpt>
      <trkpt lat="45.6469" lon="4.72472">
        <ele>286</ele>
        <time>2015-10-18T08:19:53.400Z</time>
      </trkpt>
      <trkpt lat="45.64692" lon="4.72468">
        <ele>286</ele>
        <time>2015-10-18T08:19:54.388Z</time>
      </trkpt>
      <trkpt lat="45.64695" lon="4.72457">
        <ele>286</ele>
        <time>2015-10-18T08:19:57.427Z</time>
      </trkpt>
      <trkpt lat="45.64697" lon="4.72455">
        <ele>286</ele>
        <time>2015-10-18T08:19:58.389Z</time>
      </trkpt>
      <trkpt lat="45.64701" lon="4.72446">
        <ele>287</ele>
        <time>2015-10-18T08:20:01.409Z</time>
      </trkpt>
      <trkpt lat="45.64703" lon="4.72442">
        <ele>287</ele>
        <time>2015-10-18T08:20:02.389Z</time>
      </trkpt>
      <trkpt lat="45.6471" lon="4.72436">
        <ele>286</ele>
        <time>2015-10-18T08:20:05.545Z</time>
      </trkpt>
      <trkpt lat="45.64712" lon="4.72431">
        <ele>286</ele>
        <time>2015-10-18T08:20:06.390Z</time>
      </trkpt>
      <trkpt lat="45.64716" lon="4.72425">
        <ele>286</ele>
        <time>2015-10-18T08:20:09.411Z</time>
      </trkpt>
      <trkpt lat="45.64718" lon="4.72421">
        <ele>286</ele>
        <time>2015-10-18T08:20:10.431Z</time>
      </trkpt>
      <trkpt lat="45.64722" lon="4.72412">
        <ele>288</ele>
        <time>2015-10-18T08:20:12.420Z</time>
      </trkpt>
      <trkpt lat="45.64723" lon="4.72408">
        <ele>288</ele>
        <time>2015-10-18T08:20:13.390Z</time>
      </trkpt>
      <trkpt lat="45.64725" lon="4.72397">
        <ele>288</ele>
        <time>2015-10-18T08:20:15.555Z</time>
      </trkpt>
      <trkpt lat="45.64725" lon="4.72391">
        <ele>288</ele>
        <time>2015-10-18T08:20:16.386Z</time>
      </trkpt>
      <trkpt lat="45.64724" lon="4.7238">
        <ele>288</ele>
        <time>2015-10-18T08:20:18.428Z</time>
      </trkpt>
      <trkpt lat="45.64723" lon="4.72371">
        <ele>289</ele>
        <time>2015-10-18T08:20:19.405Z</time>
      </trkpt>
      <trkpt lat="45.64721" lon="4.72367">
        <ele>289</ele>
        <time>2015-10-18T08:20:20.411Z</time>
      </trkpt>
      <trkpt lat="45.64717" lon="4.72361">
        <ele>289</ele>
        <time>2015-10-18T08:20:21.388Z</time>
      </trkpt>
      <trkpt lat="45.64714" lon="4.7235">
        <ele>289</ele>
        <time>2015-10-18T08:20:23.417Z</time>
      </trkpt>
      <trkpt lat="45.64713" lon="4.72346">
        <ele>289</ele>
        <time>2015-10-18T08:20:24.387Z</time>
      </trkpt>
      <trkpt lat="45.64712" lon="4.72339">
        <ele>289</ele>
        <time>2015-10-18T08:20:25.430Z</time>
      </trkpt>
      <trkpt lat="45.64711" lon="4.72333">
        <ele>289</ele>
        <time>2015-10-18T08:20:26.395Z</time>
      </trkpt>
      <trkpt lat="45.64714" lon="4.72322">
        <ele>289</ele>
        <time>2015-10-18T08:20:28.428Z</time>
      </trkpt>
      <trkpt lat="45.64716" lon="4.72316">
        <ele>289</ele>
        <time>2015-10-18T08:20:29.389Z</time>
      </trkpt>
      <trkpt lat="45.64717" lon="4.72309">
        <ele>289</ele>
        <time>2015-10-18T08:20:30.425Z</time>
      </trkpt>
      <trkpt lat="45.6472" lon="4.72301">
        <ele>289</ele>
        <time>2015-10-18T08:20:31.389Z</time>
      </trkpt>
      <trkpt lat="45.64723" lon="4.72294">
        <ele>289</ele>
        <time>2015-10-18T08:20:32.429Z</time>
      </trkpt>
      <trkpt lat="45.64725" lon="4.7229">
        <ele>289</ele>
        <time>2015-10-18T08:20:33.393Z</time>
      </trkpt>
      <trkpt lat="45.64728" lon="4.72279">
        <ele>289</ele>
        <time>2015-10-18T08:20:35.417Z</time>
      </trkpt>
      <trkpt lat="45.64729" lon="4.72275">
        <ele>289</ele>
        <time>2015-10-18T08:20:36.396Z</time>
      </trkpt>
      <trkpt lat="45.64732" lon="4.72266">
        <ele>289</ele>
        <time>2015-10-18T08:20:38.418Z</time>
      </trkpt>
      <trkpt lat="45.64734" lon="4.7226">
        <ele>289</ele>
        <time>2015-10-18T08:20:39.405Z</time>
      </trkpt>
      <trkpt lat="45.64736" lon="4.72251">
        <ele>289</ele>
        <time>2015-10-18T08:20:41.424Z</time>
      </trkpt>
      <trkpt lat="45.64737" lon="4.72247">
        <ele>289</ele>
        <time>2015-10-18T08:20:42.392Z</time>
      </trkpt>
      <trkpt lat="45.64742" lon="4.72238">
        <ele>289</ele>
        <time>2015-10-18T08:20:45.431Z</time>
      </trkpt>
      <trkpt lat="45.64744" lon="4.72238">
        <ele>289</ele>
        <time>2015-10-18T08:20:46.392Z</time>
      </trkpt>
      <trkpt lat="45.64752" lon="4.7224">
        <ele>288</ele>
        <time>2015-10-18T08:20:48.433Z</time>
      </trkpt>
      <trkpt lat="45.64756" lon="4.72245">
        <ele>288</ele>
        <time>2015-10-18T08:20:49.392Z</time>
      </trkpt>
      <trkpt lat="45.64764" lon="4.72249">
        <ele>288</ele>
        <time>2015-10-18T08:20:51.422Z</time>
      </trkpt>
      <trkpt lat="45.64767" lon="4.72251">
        <ele>287</ele>
        <time>2015-10-18T08:20:52.391Z</time>
      </trkpt>
      <trkpt lat="45.64771" lon="4.72255">
        <ele>287</ele>
        <time>2015-10-18T08:20:53.423Z</time>
      </trkpt>
      <trkpt lat="45.64775" lon="4.72258">
        <ele>287</ele>
        <time>2015-10-18T08:20:54.391Z</time>
      </trkpt>
      <trkpt lat="45.64783" lon="4.72264">
        <ele>287</ele>
        <time>2015-10-18T08:20:56.429Z</time>
      </trkpt>
      <trkpt lat="45.64787" lon="4.72268">
        <ele>287</ele>
        <time>2015-10-18T08:20:57.396Z</time>
      </trkpt>
      <trkpt lat="45.64791" lon="4.72273">
        <ele>287</ele>
        <time>2015-10-18T08:20:58.424Z</time>
      </trkpt>
      <trkpt lat="45.64796" lon="4.72275">
        <ele>287</ele>
        <time>2015-10-18T08:20:59.402Z</time>
      </trkpt>
      <trkpt lat="45.648" lon="4.72279">
        <ele>287</ele>
        <time>2015-10-18T08:21:00.431Z</time>
      </trkpt>
      <trkpt lat="45.64805" lon="4.72279">
        <ele>287</ele>
        <time>2015-10-18T08:21:01.391Z</time>
      </trkpt>
      <trkpt lat="45.6481" lon="4.72283">
        <ele>287</ele>
        <time>2015-10-18T08:21:02.421Z</time>
      </trkpt>
      <trkpt lat="45.64814" lon="4.72286">
        <ele>287</ele>
        <time>2015-10-18T08:21:03.394Z</time>
      </trkpt>
      <trkpt lat="45.64818" lon="4.7229">
        <ele>287</ele>
        <time>2015-10-18T08:21:04.432Z</time>
      </trkpt>
      <trkpt lat="45.64823" lon="4.72292">
        <ele>287</ele>
        <time>2015-10-18T08:21:05.394Z</time>
      </trkpt>
      <trkpt lat="45.64827" lon="4.72296">
        <ele>287</ele>
        <time>2015-10-18T08:21:06.427Z</time>
      </trkpt>
      <trkpt lat="45.6483" lon="4.72301">
        <ele>287</ele>
        <time>2015-10-18T08:21:07.392Z</time>
      </trkpt>
      <trkpt lat="45.64837" lon="4.72305">
        <ele>287</ele>
        <time>2015-10-18T08:21:09.421Z</time>
      </trkpt>
      <trkpt lat="45.64841" lon="4.72309">
        <ele>287</ele>
        <time>2015-10-18T08:21:10.391Z</time>
      </trkpt>
      <trkpt lat="45.64848" lon="4.72316">
        <ele>287</ele>
        <time>2015-10-18T08:21:12.425Z</time>
      </trkpt>
      <trkpt lat="45.64852" lon="4.72318">
        <ele>287</ele>
        <time>2015-10-18T08:21:13.392Z</time>
      </trkpt>
      <trkpt lat="45.64859" lon="4.72324">
        <ele>287</ele>
        <time>2015-10-18T08:21:15.421Z</time>
      </trkpt>
      <trkpt lat="45.64863" lon="4.72328">
        <ele>287</ele>
        <time>2015-10-18T08:21:16.397Z</time>
      </trkpt>
      <trkpt lat="45.64871" lon="4.72335">
        <ele>286</ele>
        <time>2015-10-18T08:21:18.434Z</time>
      </trkpt>
      <trkpt lat="45.64874" lon="4.72339">
        <ele>286</ele>
        <time>2015-10-18T08:21:19.394Z</time>
      </trkpt>
      <trkpt lat="45.64878" lon="4.72343">
        <ele>286</ele>
        <time>2015-10-18T08:21:20.426Z</time>
      </trkpt>
      <trkpt lat="45.64882" lon="4.72348">
        <ele>286</ele>
        <time>2015-10-18T08:21:21.390Z</time>
      </trkpt>
      <trkpt lat="45.64885" lon="4.72352">
        <ele>286</ele>
        <time>2015-10-18T08:21:22.432Z</time>
      </trkpt>
      <trkpt lat="45.64887" lon="4.72358">
        <ele>286</ele>
        <time>2015-10-18T08:21:23.397Z</time>
      </trkpt>
      <trkpt lat="45.64891" lon="4.72363">
        <ele>286</ele>
        <time>2015-10-18T08:21:24.426Z</time>
      </trkpt>
      <trkpt lat="45.64894" lon="4.72367">
        <ele>286</ele>
        <time>2015-10-18T08:21:25.394Z</time>
      </trkpt>
      <trkpt lat="45.64901" lon="4.72376">
        <ele>286</ele>
        <time>2015-10-18T08:21:27.437Z</time>
      </trkpt>
      <trkpt lat="45.64904" lon="4.72382">
        <ele>286</ele>
        <time>2015-10-18T08:21:28.391Z</time>
      </trkpt>
      <trkpt lat="45.64908" lon="4.72386">
        <ele>286</ele>
        <time>2015-10-18T08:21:29.418Z</time>
      </trkpt>
      <trkpt lat="45.64912" lon="4.72393">
        <ele>285</ele>
        <time>2015-10-18T08:21:30.395Z</time>
      </trkpt>
      <trkpt lat="45.64918" lon="4.72401">
        <ele>285</ele>
        <time>2015-10-18T08:21:32.418Z</time>
      </trkpt>
      <trkpt lat="45.64921" lon="4.72406">
        <ele>285</ele>
        <time>2015-10-18T08:21:33.393Z</time>
      </trkpt>
      <trkpt lat="45.64928" lon="4.72414">
        <ele>285</ele>
        <time>2015-10-18T08:21:35.433Z</time>
      </trkpt>
      <trkpt lat="45.64932" lon="4.72419">
        <ele>285</ele>
        <time>2015-10-18T08:21:36.390Z</time>
      </trkpt>
      <trkpt lat="45.64936" lon="4.72423">
        <ele>284</ele>
        <time>2015-10-18T08:21:37.421Z</time>
      </trkpt>
      <trkpt lat="45.64941" lon="4.72427">
        <ele>284</ele>
        <time>2015-10-18T08:21:38.393Z</time>
      </trkpt>
      <trkpt lat="45.64945" lon="4.72429">
        <ele>284</ele>
        <time>2015-10-18T08:21:39.424Z</time>
      </trkpt>
      <trkpt lat="45.64949" lon="4.72434">
        <ele>284</ele>
        <time>2015-10-18T08:21:40.395Z</time>
      </trkpt>
      <trkpt lat="45.64955" lon="4.72438">
        <ele>284</ele>
        <time>2015-10-18T08:21:41.417Z</time>
      </trkpt>
      <trkpt lat="45.6496" lon="4.7244">
        <ele>284</ele>
        <time>2015-10-18T08:21:42.409Z</time>
      </trkpt>
      <trkpt lat="45.64966" lon="4.72442">
        <ele>284</ele>
        <time>2015-10-18T08:21:43.419Z</time>
      </trkpt>
      <trkpt lat="45.64973" lon="4.72444">
        <ele>284</ele>
        <time>2015-10-18T08:21:44.391Z</time>
      </trkpt>
      <trkpt lat="45.64977" lon="4.72449">
        <ele>284</ele>
        <time>2015-10-18T08:21:45.528Z</time>
      </trkpt>
      <trkpt lat="45.6498" lon="4.72453">
        <ele>284</ele>
        <time>2015-10-18T08:21:46.386Z</time>
      </trkpt>
      <trkpt lat="45.64982" lon="4.72459">
        <ele>284</ele>
        <time>2015-10-18T08:21:47.416Z</time>
      </trkpt>
      <trkpt lat="45.64983" lon="4.7247">
        <ele>284</ele>
        <time>2015-10-18T08:21:48.413Z</time>
      </trkpt>
      <trkpt lat="45.64983" lon="4.72479">
        <ele>284</ele>
        <time>2015-10-18T08:21:49.431Z</time>
      </trkpt>
      <trkpt lat="45.64982" lon="4.72485">
        <ele>284</ele>
        <time>2015-10-18T08:21:50.389Z</time>
      </trkpt>
      <trkpt lat="45.64982" lon="4.72494">
        <ele>284</ele>
        <time>2015-10-18T08:21:51.411Z</time>
      </trkpt>
      <trkpt lat="45.64982" lon="4.725">
        <ele>283</ele>
        <time>2015-10-18T08:21:52.382Z</time>
      </trkpt>
      <trkpt lat="45.64982" lon="4.72509">
        <ele>281</ele>
        <time>2015-10-18T08:21:53.422Z</time>
      </trkpt>
      <trkpt lat="45.64981" lon="4.72517">
        <ele>281</ele>
        <time>2015-10-18T08:21:54.383Z</time>
      </trkpt>
      <trkpt lat="45.6498" lon="4.72526">
        <ele>280</ele>
        <time>2015-10-18T08:21:55.416Z</time>
      </trkpt>
      <trkpt lat="45.64978" lon="4.72534">
        <ele>280</ele>
        <time>2015-10-18T08:21:56.398Z</time>
      </trkpt>
      <trkpt lat="45.64976" lon="4.72543">
        <ele>279</ele>
        <time>2015-10-18T08:21:57.432Z</time>
      </trkpt>
      <trkpt lat="45.64975" lon="4.72549">
        <ele>279</ele>
        <time>2015-10-18T08:21:58.383Z</time>
      </trkpt>
      <trkpt lat="45.64976" lon="4.72558">
        <ele>279</ele>
        <time>2015-10-18T08:21:59.423Z</time>
      </trkpt>
      <trkpt lat="45.64978" lon="4.72567">
        <ele>278</ele>
        <time>2015-10-18T08:22:00.370Z</time>
      </trkpt>
      <trkpt lat="45.6498" lon="4.72573">
        <ele>278</ele>
        <time>2015-10-18T08:22:01.402Z</time>
      </trkpt>
      <trkpt lat="45.64985" lon="4.72582">
        <ele>278</ele>
        <time>2015-10-18T08:22:02.388Z</time>
      </trkpt>
      <trkpt lat="45.64985" lon="4.72582">
        <ele>278</ele>
        <time>2015-10-18T08:22:02.415Z</time>
      </trkpt>
      <trkpt lat="45.64991" lon="4.72592">
        <ele>275</ele>
        <time>2015-10-18T08:22:03.388Z</time>
      </trkpt>
      <trkpt lat="45.64991" lon="4.72592">
        <ele>275</ele>
        <time>2015-10-18T08:22:03.427Z</time>
      </trkpt>
      <trkpt lat="45.64999" lon="4.72603">
        <ele>274</ele>
        <time>2015-10-18T08:22:04.389Z</time>
      </trkpt>
      <trkpt lat="45.65005" lon="4.72612">
        <ele>271</ele>
        <time>2015-10-18T08:22:05.431Z</time>
      </trkpt>
      <trkpt lat="45.65009" lon="4.7262">
        <ele>270</ele>
        <time>2015-10-18T08:22:06.388Z</time>
      </trkpt>
      <trkpt lat="45.65012" lon="4.72631">
        <ele>270</ele>
        <time>2015-10-18T08:22:07.430Z</time>
      </trkpt>
      <trkpt lat="45.65014" lon="4.7264">
        <ele>269</ele>
        <time>2015-10-18T08:22:08.388Z</time>
      </trkpt>
      <trkpt lat="45.65014" lon="4.7265">
        <ele>268</ele>
        <time>2015-10-18T08:22:09.411Z</time>
      </trkpt>
      <trkpt lat="45.65014" lon="4.72659">
        <ele>268</ele>
        <time>2015-10-18T08:22:10.394Z</time>
      </trkpt>
      <trkpt lat="45.65014" lon="4.72665">
        <ele>268</ele>
        <time>2015-10-18T08:22:11.434Z</time>
      </trkpt>
      <trkpt lat="45.65012" lon="4.72674">
        <ele>265</ele>
        <time>2015-10-18T08:22:12.393Z</time>
      </trkpt>
      <trkpt lat="45.65012" lon="4.72682">
        <ele>264</ele>
        <time>2015-10-18T08:22:13.422Z</time>
      </trkpt>
      <trkpt lat="45.65014" lon="4.72691">
        <ele>263</ele>
        <time>2015-10-18T08:22:14.382Z</time>
      </trkpt>
      <trkpt lat="45.65015" lon="4.72697">
        <ele>263</ele>
        <time>2015-10-18T08:22:15.432Z</time>
      </trkpt>
      <trkpt lat="45.65019" lon="4.72704">
        <ele>262</ele>
        <time>2015-10-18T08:22:16.387Z</time>
      </trkpt>
      <trkpt lat="45.65024" lon="4.72708">
        <ele>262</ele>
        <time>2015-10-18T08:22:17.422Z</time>
      </trkpt>
      <trkpt lat="45.6503" lon="4.7271">
        <ele>262</ele>
        <time>2015-10-18T08:22:18.389Z</time>
      </trkpt>
      <trkpt lat="45.65033" lon="4.72715">
        <ele>262</ele>
        <time>2015-10-18T08:22:19.428Z</time>
      </trkpt>
      <trkpt lat="45.65037" lon="4.72719">
        <ele>262</ele>
        <time>2015-10-18T08:22:20.394Z</time>
      </trkpt>
      <trkpt lat="45.65042" lon="4.72723">
        <ele>261</ele>
        <time>2015-10-18T08:22:21.419Z</time>
      </trkpt>
      <trkpt lat="45.65049" lon="4.72725">
        <ele>261</ele>
        <time>2015-10-18T08:22:22.387Z</time>
      </trkpt>
      <trkpt lat="45.65055" lon="4.7273">
        <ele>261</ele>
        <time>2015-10-18T08:22:23.422Z</time>
      </trkpt>
      <trkpt lat="45.65063" lon="4.72732">
        <ele>261</ele>
        <time>2015-10-18T08:22:24.398Z</time>
      </trkpt>
      <trkpt lat="45.6507" lon="4.72738">
        <ele>260</ele>
        <time>2015-10-18T08:22:25.415Z</time>
      </trkpt>
      <trkpt lat="45.65079" lon="4.72743">
        <ele>259</ele>
        <time>2015-10-18T08:22:26.385Z</time>
      </trkpt>
      <trkpt lat="45.65079" lon="4.72743">
        <ele>259</ele>
        <time>2015-10-18T08:22:26.422Z</time>
      </trkpt>
      <trkpt lat="45.65089" lon="4.72751">
        <ele>257</ele>
        <time>2015-10-18T08:22:27.387Z</time>
      </trkpt>
      <trkpt lat="45.65096" lon="4.72758">
        <ele>255</ele>
        <time>2015-10-18T08:22:28.407Z</time>
      </trkpt>
      <trkpt lat="45.65106" lon="4.72764">
        <ele>253</ele>
        <time>2015-10-18T08:22:29.394Z</time>
      </trkpt>
      <trkpt lat="45.65106" lon="4.72764">
        <ele>253</ele>
        <time>2015-10-18T08:22:29.432Z</time>
      </trkpt>
      <trkpt lat="45.65114" lon="4.72768">
        <ele>252</ele>
        <time>2015-10-18T08:22:30.394Z</time>
      </trkpt>
      <trkpt lat="45.65122" lon="4.72775">
        <ele>251</ele>
        <time>2015-10-18T08:22:31.409Z</time>
      </trkpt>
      <trkpt lat="45.65128" lon="4.72779">
        <ele>251</ele>
        <time>2015-10-18T08:22:32.387Z</time>
      </trkpt>
      <trkpt lat="45.65134" lon="4.72785">
        <ele>250</ele>
        <time>2015-10-18T08:22:33.414Z</time>
      </trkpt>
      <trkpt lat="45.6514" lon="4.72788">
        <ele>250</ele>
        <time>2015-10-18T08:22:34.394Z</time>
      </trkpt>
      <trkpt lat="45.65147" lon="4.72792">
        <ele>249</ele>
        <time>2015-10-18T08:22:35.423Z</time>
      </trkpt>
      <trkpt lat="45.65153" lon="4.72798">
        <ele>249</ele>
        <time>2015-10-18T08:22:36.392Z</time>
      </trkpt>
      <trkpt lat="45.65157" lon="4.72805">
        <ele>248</ele>
        <time>2015-10-18T08:22:37.418Z</time>
      </trkpt>
      <trkpt lat="45.65162" lon="4.72811">
        <ele>247</ele>
        <time>2015-10-18T08:22:38.396Z</time>
      </trkpt>
      <trkpt lat="45.65164" lon="4.72818">
        <ele>246</ele>
        <time>2015-10-18T08:22:39.424Z</time>
      </trkpt>
      <trkpt lat="45.65167" lon="4.72822">
        <ele>245</ele>
        <time>2015-10-18T08:22:40.392Z</time>
      </trkpt>
      <trkpt lat="45.65167" lon="4.72813">
        <ele>246</ele>
        <time>2015-10-18T08:22:48.423Z</time>
      </trkpt>
      <trkpt lat="45.65168" lon="4.72809">
        <ele>247</ele>
        <time>2015-10-18T08:22:49.395Z</time>
      </trkpt>
      <trkpt lat="45.65169" lon="4.72798">
        <ele>248</ele>
        <time>2015-10-18T08:22:52.417Z</time>
      </trkpt>
      <trkpt lat="45.65168" lon="4.72794">
        <ele>248</ele>
        <time>2015-10-18T08:22:53.378Z</time>
      </trkpt>
      <trkpt lat="45.65167" lon="4.72783">
        <ele>249</ele>
        <time>2015-10-18T08:22:56.413Z</time>
      </trkpt>
      <trkpt lat="45.65167" lon="4.72779">
        <ele>250</ele>
        <time>2015-10-18T08:22:57.382Z</time>
      </trkpt>
      <trkpt lat="45.65167" lon="4.7277">
        <ele>250</ele>
        <time>2015-10-18T08:23:00.415Z</time>
      </trkpt>
      <trkpt lat="45.65167" lon="4.72766">
        <ele>250</ele>
        <time>2015-10-18T08:23:01.389Z</time>
      </trkpt>
      <trkpt lat="45.65166" lon="4.72755">
        <ele>251</ele>
        <time>2015-10-18T08:23:05.410Z</time>
      </trkpt>
      <trkpt lat="45.65166" lon="4.72751">
        <ele>251</ele>
        <time>2015-10-18T08:23:06.384Z</time>
      </trkpt>
      <trkpt lat="45.65166" lon="4.7274">
        <ele>252</ele>
        <time>2015-10-18T08:23:09.411Z</time>
      </trkpt>
      <trkpt lat="45.65166" lon="4.72738">
        <ele>253</ele>
        <time>2015-10-18T08:23:10.379Z</time>
      </trkpt>
      <trkpt lat="45.65165" lon="4.72728">
        <ele>253</ele>
        <time>2015-10-18T08:23:13.410Z</time>
      </trkpt>
      <trkpt lat="45.65165" lon="4.72723">
        <ele>254</ele>
        <time>2015-10-18T08:23:14.375Z</time>
      </trkpt>
      <trkpt lat="45.65166" lon="4.72713">
        <ele>254</ele>
        <time>2015-10-18T08:23:17.413Z</time>
      </trkpt>
      <trkpt lat="45.65165" lon="4.72708">
        <ele>254</ele>
        <time>2015-10-18T08:23:18.383Z</time>
      </trkpt>
      <trkpt lat="45.65165" lon="4.727">
        <ele>254</ele>
        <time>2015-10-18T08:23:20.415Z</time>
      </trkpt>
      <trkpt lat="45.65166" lon="4.72695">
        <ele>254</ele>
        <time>2015-10-18T08:23:21.375Z</time>
      </trkpt>
      <trkpt lat="45.65165" lon="4.72687">
        <ele>253</ele>
        <time>2015-10-18T08:23:23.416Z</time>
      </trkpt>
      <trkpt lat="45.65164" lon="4.72682">
        <ele>253</ele>
        <time>2015-10-18T08:23:24.372Z</time>
      </trkpt>
      <trkpt lat="45.65162" lon="4.72672">
        <ele>252</ele>
        <time>2015-10-18T08:23:27.424Z</time>
      </trkpt>
      <trkpt lat="45.65162" lon="4.72667">
        <ele>251</ele>
        <time>2015-10-18T08:23:28.374Z</time>
      </trkpt>
      <trkpt lat="45.65159" lon="4.72657">
        <ele>253</ele>
        <time>2015-10-18T08:23:30.423Z</time>
      </trkpt>
      <trkpt lat="45.65159" lon="4.72655">
        <ele>254</ele>
        <time>2015-10-18T08:23:31.380Z</time>
      </trkpt>
      <trkpt lat="45.65157" lon="4.72644">
        <ele>255</ele>
        <time>2015-10-18T08:23:34.413Z</time>
      </trkpt>
      <trkpt lat="45.65156" lon="4.7264">
        <ele>255</ele>
        <time>2015-10-18T08:23:35.375Z</time>
      </trkpt>
      <trkpt lat="45.65155" lon="4.72629">
        <ele>256</ele>
        <time>2015-10-18T08:23:37.409Z</time>
      </trkpt>
      <trkpt lat="45.65155" lon="4.7262">
        <ele>256</ele>
        <time>2015-10-18T08:23:38.398Z</time>
      </trkpt>
      <trkpt lat="45.65156" lon="4.7261">
        <ele>256</ele>
        <time>2015-10-18T08:23:40.411Z</time>
      </trkpt>
      <trkpt lat="45.65156" lon="4.72603">
        <ele>256</ele>
        <time>2015-10-18T08:23:41.378Z</time>
      </trkpt>
      <trkpt lat="45.65156" lon="4.72592">
        <ele>255</ele>
        <time>2015-10-18T08:23:43.406Z</time>
      </trkpt>
      <trkpt lat="45.65155" lon="4.7259">
        <ele>255</ele>
        <time>2015-10-18T08:23:44.369Z</time>
      </trkpt>
      <trkpt lat="45.65153" lon="4.72579">
        <ele>256</ele>
        <time>2015-10-18T08:23:48.403Z</time>
      </trkpt>
      <trkpt lat="45.65154" lon="4.72575">
        <ele>257</ele>
        <time>2015-10-18T08:23:49.363Z</time>
      </trkpt>
      <trkpt lat="45.65155" lon="4.72564">
        <ele>258</ele>
        <time>2015-10-18T08:23:53.400Z</time>
      </trkpt>
      <trkpt lat="45.65155" lon="4.72562">
        <ele>258</ele>
        <time>2015-10-18T08:23:54.372Z</time>
      </trkpt>
      <trkpt lat="45.65159" lon="4.72552">
        <ele>259</ele>
        <time>2015-10-18T08:24:03.403Z</time>
      </trkpt>
      <trkpt lat="45.65159" lon="4.72547">
        <ele>259</ele>
        <time>2015-10-18T08:24:04.374Z</time>
      </trkpt>
      <trkpt lat="45.65167" lon="4.72543">
        <ele>260</ele>
        <time>2015-10-18T08:24:15.425Z</time>
      </trkpt>
      <trkpt lat="45.65168" lon="4.72543">
        <ele>260</ele>
        <time>2015-10-18T08:24:16.374Z</time>
      </trkpt>
      <trkpt lat="45.65173" lon="4.72534">
        <ele>261</ele>
        <time>2015-10-18T08:24:21.414Z</time>
      </trkpt>
      <trkpt lat="45.65174" lon="4.7253">
        <ele>261</ele>
        <time>2015-10-18T08:24:22.390Z</time>
      </trkpt>
      <trkpt lat="45.65178" lon="4.72519">
        <ele>261</ele>
        <time>2015-10-18T08:24:26.416Z</time>
      </trkpt>
      <trkpt lat="45.65179" lon="4.72517">
        <ele>261</ele>
        <time>2015-10-18T08:24:27.392Z</time>
      </trkpt>
      <trkpt lat="45.65179" lon="4.72507">
        <ele>261</ele>
        <time>2015-10-18T08:24:32.409Z</time>
      </trkpt>
      <trkpt lat="45.65179" lon="4.72504">
        <ele>260</ele>
        <time>2015-10-18T08:24:33.379Z</time>
      </trkpt>
      <trkpt lat="45.65182" lon="4.72494">
        <ele>262</ele>
        <time>2015-10-18T08:24:41.404Z</time>
      </trkpt>
      <trkpt lat="45.65183" lon="4.72492">
        <ele>262</ele>
        <time>2015-10-18T08:24:42.374Z</time>
      </trkpt>
      <trkpt lat="45.65184" lon="4.72481">
        <ele>263</ele>
        <time>2015-10-18T08:24:57.410Z</time>
      </trkpt>
      <trkpt lat="45.65185" lon="4.72476">
        <ele>263</ele>
        <time>2015-10-18T08:24:58.375Z</time>
      </trkpt>
      <trkpt lat="45.65189" lon="4.72466">
        <ele>264</ele>
        <time>2015-10-18T08:25:02.426Z</time>
      </trkpt>
      <trkpt lat="45.65189" lon="4.72464">
        <ele>264</ele>
        <time>2015-10-18T08:25:03.377Z</time>
      </trkpt>
      <trkpt lat="45.65193" lon="4.72455">
        <ele>264</ele>
        <time>2015-10-18T08:25:09.424Z</time>
      </trkpt>
      <trkpt lat="45.65194" lon="4.72449">
        <ele>264</ele>
        <time>2015-10-18T08:25:10.392Z</time>
      </trkpt>
      <trkpt lat="45.65198" lon="4.72438">
        <ele>264</ele>
        <time>2015-10-18T08:25:15.414Z</time>
      </trkpt>
      <trkpt lat="45.65199" lon="4.72434">
        <ele>264</ele>
        <time>2015-10-18T08:25:16.390Z</time>
      </trkpt>
      <trkpt lat="45.65203" lon="4.72425">
        <ele>265</ele>
        <time>2015-10-18T08:25:35.423Z</time>
      </trkpt>
      <trkpt lat="45.65205" lon="4.72423">
        <ele>265</ele>
        <time>2015-10-18T08:25:36.388Z</time>
      </trkpt>
      <trkpt lat="45.6521" lon="4.72416">
        <ele>265</ele>
        <time>2015-10-18T08:26:18.410Z</time>
      </trkpt>
      <trkpt lat="45.65212" lon="4.7241">
        <ele>265</ele>
        <time>2015-10-18T08:26:19.389Z</time>
      </trkpt>
      <trkpt lat="45.65216" lon="4.72404">
        <ele>266</ele>
        <time>2015-10-18T08:26:21.428Z</time>
      </trkpt>
      <trkpt lat="45.65218" lon="4.72399">
        <ele>266</ele>
        <time>2015-10-18T08:26:22.392Z</time>
      </trkpt>
      <trkpt lat="45.65223" lon="4.72389">
        <ele>266</ele>
        <time>2015-10-18T08:26:32.423Z</time>
      </trkpt>
      <trkpt lat="45.65224" lon="4.72389">
        <ele>266</ele>
        <time>2015-10-18T08:26:33.389Z</time>
      </trkpt>
      <trkpt lat="45.65228" lon="4.7238">
        <ele>266</ele>
        <time>2015-10-18T08:26:43.431Z</time>
      </trkpt>
      <trkpt lat="45.65229" lon="4.72378">
        <ele>267</ele>
        <time>2015-10-18T08:26:44.390Z</time>
      </trkpt>
      <trkpt lat="45.65232" lon="4.72367">
        <ele>267</ele>
        <time>2015-10-18T08:26:53.420Z</time>
      </trkpt>
      <trkpt lat="45.65235" lon="4.72367">
        <ele>267</ele>
        <time>2015-10-18T08:26:54.384Z</time>
      </trkpt>
      <trkpt lat="45.6524" lon="4.72358">
        <ele>268</ele>
        <time>2015-10-18T08:27:01.415Z</time>
      </trkpt>
      <trkpt lat="45.65241" lon="4.72356">
        <ele>268</ele>
        <time>2015-10-18T08:27:02.392Z</time>
      </trkpt>
      <trkpt lat="45.6525" lon="4.72354">
        <ele>268</ele>
        <time>2015-10-18T08:27:08.427Z</time>
      </trkpt>
      <trkpt lat="45.6525" lon="4.72352">
        <ele>269</ele>
        <time>2015-10-18T08:27:09.399Z</time>
      </trkpt>
      <trkpt lat="45.65258" lon="4.7235">
        <ele>276</ele>
        <time>2015-10-18T08:27:15.426Z</time>
      </trkpt>
      <trkpt lat="45.65259" lon="4.7235">
        <ele>276</ele>
        <time>2015-10-18T08:27:16.399Z</time>
      </trkpt>
      <trkpt lat="45.65267" lon="4.72346">
        <ele>277</ele>
        <time>2015-10-18T08:27:23.426Z</time>
      </trkpt>
      <trkpt lat="45.65268" lon="4.72346">
        <ele>277</ele>
        <time>2015-10-18T08:27:24.408Z</time>
      </trkpt>
      <trkpt lat="45.65276" lon="4.72343">
        <ele>278</ele>
        <time>2015-10-18T08:27:31.415Z</time>
      </trkpt>
      <trkpt lat="45.65277" lon="4.72343">
        <ele>278</ele>
        <time>2015-10-18T08:27:32.400Z</time>
      </trkpt>
      <trkpt lat="45.65286" lon="4.72346">
        <ele>280</ele>
        <time>2015-10-18T08:27:39.427Z</time>
      </trkpt>
      <trkpt lat="45.65287" lon="4.72346">
        <ele>280</ele>
        <time>2015-10-18T08:27:40.386Z</time>
      </trkpt>
      <trkpt lat="45.65296" lon="4.72346">
        <ele>281</ele>
        <time>2015-10-18T08:27:50.423Z</time>
      </trkpt>
      <trkpt lat="45.65298" lon="4.72343">
        <ele>282</ele>
        <time>2015-10-18T08:27:51.383Z</time>
      </trkpt>
      <trkpt lat="45.65306" lon="4.72343">
        <ele>283</ele>
        <time>2015-10-18T08:27:59.419Z</time>
      </trkpt>
      <trkpt lat="45.65307" lon="4.72343">
        <ele>283</ele>
        <time>2015-10-18T08:28:00.384Z</time>
      </trkpt>
      <trkpt lat="45.65316" lon="4.72343">
        <ele>285</ele>
        <time>2015-10-18T08:28:08.440Z</time>
      </trkpt>
      <trkpt lat="45.65317" lon="4.72343">
        <ele>285</ele>
        <time>2015-10-18T08:28:09.385Z</time>
      </trkpt>
      <trkpt lat="45.65326" lon="4.72346">
        <ele>286</ele>
        <time>2015-10-18T08:28:37.428Z</time>
      </trkpt>
      <trkpt lat="45.65327" lon="4.72346">
        <ele>286</ele>
        <time>2015-10-18T08:28:38.406Z</time>
      </trkpt>
      <trkpt lat="45.65334" lon="4.72348">
        <ele>292</ele>
        <time>2015-10-18T08:28:51.540Z</time>
      </trkpt>
      <trkpt lat="45.65336" lon="4.72348">
        <ele>292</ele>
        <time>2015-10-18T08:28:52.386Z</time>
      </trkpt>
      <trkpt lat="45.65345" lon="4.7235">
        <ele>293</ele>
        <time>2015-10-18T08:29:09.425Z</time>
      </trkpt>
      <trkpt lat="45.65346" lon="4.7235">
        <ele>293</ele>
        <time>2015-10-18T08:29:10.390Z</time>
      </trkpt>
      <trkpt lat="45.65355" lon="4.72348">
        <ele>294</ele>
        <time>2015-10-18T08:29:27.419Z</time>
      </trkpt>
      <trkpt lat="45.65357" lon="4.72348">
        <ele>294</ele>
        <time>2015-10-18T08:29:28.408Z</time>
      </trkpt>
      <trkpt lat="45.65365" lon="4.72348">
        <ele>294</ele>
        <time>2015-10-18T08:29:42.427Z</time>
      </trkpt>
      <trkpt lat="45.65367" lon="4.72346">
        <ele>295</ele>
        <time>2015-10-18T08:29:43.383Z</time>
      </trkpt>
      <trkpt lat="45.65374" lon="4.72339">
        <ele>295</ele>
        <time>2015-10-18T08:30:08.428Z</time>
      </trkpt>
      <trkpt lat="45.65375" lon="4.72337">
        <ele>295</ele>
        <time>2015-10-18T08:30:09.387Z</time>
      </trkpt>
      <trkpt lat="45.65383" lon="4.72331">
        <ele>298</ele>
        <time>2015-10-18T08:30:19.526Z</time>
      </trkpt>
      <trkpt lat="45.65384" lon="4.72331">
        <ele>298</ele>
        <time>2015-10-18T08:30:20.383Z</time>
      </trkpt>
      <trkpt lat="45.65391" lon="4.72324">
        <ele>299</ele>
        <time>2015-10-18T08:30:35.422Z</time>
      </trkpt>
      <trkpt lat="45.65392" lon="4.72322">
        <ele>299</ele>
        <time>2015-10-18T08:30:36.405Z</time>
      </trkpt>
      <trkpt lat="45.654" lon="4.72316">
        <ele>299</ele>
        <time>2015-10-18T08:30:46.426Z</time>
      </trkpt>
      <trkpt lat="45.65401" lon="4.72313">
        <ele>300</ele>
        <time>2015-10-18T08:30:47.384Z</time>
      </trkpt>
      <trkpt lat="45.65408" lon="4.72311">
        <ele>300</ele>
        <time>2015-10-18T08:30:54.424Z</time>
      </trkpt>
      <trkpt lat="45.65409" lon="4.72309">
        <ele>300</ele>
        <time>2015-10-18T08:30:55.384Z</time>
      </trkpt>
      <trkpt lat="45.65418" lon="4.72309">
        <ele>304</ele>
        <time>2015-10-18T08:31:02.424Z</time>
      </trkpt>
      <trkpt lat="45.65419" lon="4.72311">
        <ele>304</ele>
        <time>2015-10-18T08:31:03.404Z</time>
      </trkpt>
      <trkpt lat="45.65427" lon="4.72316">
        <ele>304</ele>
        <time>2015-10-18T08:31:08.425Z</time>
      </trkpt>
      <trkpt lat="45.65428" lon="4.72316">
        <ele>304</ele>
        <time>2015-10-18T08:31:09.389Z</time>
      </trkpt>
      <trkpt lat="45.65435" lon="4.72322">
        <ele>304</ele>
        <time>2015-10-18T08:31:13.418Z</time>
      </trkpt>
      <trkpt lat="45.65437" lon="4.72322">
        <ele>305</ele>
        <time>2015-10-18T08:31:14.382Z</time>
      </trkpt>
      <trkpt lat="45.65444" lon="4.72324">
        <ele>305</ele>
        <time>2015-10-18T08:31:21.407Z</time>
      </trkpt>
      <trkpt lat="45.65446" lon="4.72326">
        <ele>305</ele>
        <time>2015-10-18T08:31:22.395Z</time>
      </trkpt>
      <trkpt lat="45.65451" lon="4.72333">
        <ele>306</ele>
        <time>2015-10-18T08:31:26.426Z</time>
      </trkpt>
      <trkpt lat="45.65453" lon="4.72335">
        <ele>305</ele>
        <time>2015-10-18T08:31:27.396Z</time>
      </trkpt>
      <trkpt lat="45.6546" lon="4.72339">
        <ele>305</ele>
        <time>2015-10-18T08:31:30.420Z</time>
      </trkpt>
      <trkpt lat="45.65462" lon="4.72339">
        <ele>305</ele>
        <time>2015-10-18T08:31:31.379Z</time>
      </trkpt>
      <trkpt lat="45.65467" lon="4.72343">
        <ele>306</ele>
        <time>2015-10-18T08:31:33.419Z</time>
      </trkpt>
      <trkpt lat="45.65471" lon="4.72343">
        <ele>306</ele>
        <time>2015-10-18T08:31:34.389Z</time>
      </trkpt>
      <trkpt lat="45.65478" lon="4.72348">
        <ele>306</ele>
        <time>2015-10-18T08:31:38.436Z</time>
      </trkpt>
      <trkpt lat="45.6548" lon="4.7235">
        <ele>306</ele>
        <time>2015-10-18T08:31:39.397Z</time>
      </trkpt>
      <trkpt lat="45.65488" lon="4.72354">
        <ele>307</ele>
        <time>2015-10-18T08:31:43.424Z</time>
      </trkpt>
      <trkpt lat="45.6549" lon="4.72356">
        <ele>307</ele>
        <time>2015-10-18T08:31:44.380Z</time>
      </trkpt>
      <trkpt lat="45.65496" lon="4.72358">
        <ele>307</ele>
        <time>2015-10-18T08:31:46.423Z</time>
      </trkpt>
      <trkpt lat="45.655" lon="4.72358">
        <ele>307</ele>
        <time>2015-10-18T08:31:47.394Z</time>
      </trkpt>
      <trkpt lat="45.65507" lon="4.72356">
        <ele>308</ele>
        <time>2015-10-18T08:31:51.415Z</time>
      </trkpt>
      <trkpt lat="45.65509" lon="4.72354">
        <ele>308</ele>
        <time>2015-10-18T08:31:52.394Z</time>
      </trkpt>
      <trkpt lat="45.65516" lon="4.72348">
        <ele>308</ele>
        <time>2015-10-18T08:31:57.410Z</time>
      </trkpt>
      <trkpt lat="45.65517" lon="4.72346">
        <ele>308</ele>
        <time>2015-10-18T08:31:58.397Z</time>
      </trkpt>
      <trkpt lat="45.65517" lon="4.72335">
        <ele>309</ele>
        <time>2015-10-18T08:33:27.413Z</time>
      </trkpt>
      <trkpt lat="45.65516" lon="4.72333">
        <ele>310</ele>
        <time>2015-10-18T08:33:28.386Z</time>
      </trkpt>
      <trkpt lat="45.65513" lon="4.72322">
        <ele>310</ele>
        <time>2015-10-18T08:33:32.417Z</time>
      </trkpt>
      <trkpt lat="45.65513" lon="4.7232">
        <ele>310</ele>
        <time>2015-10-18T08:33:33.387Z</time>
      </trkpt>
      <trkpt lat="45.65516" lon="4.72309">
        <ele>310</ele>
        <time>2015-10-18T08:33:36.413Z</time>
      </trkpt>
      <trkpt lat="45.65517" lon="4.72307">
        <ele>310</ele>
        <time>2015-10-18T08:33:37.392Z</time>
      </trkpt>
      <trkpt lat="45.65517" lon="4.72294">
        <ele>310</ele>
        <time>2015-10-18T08:33:40.422Z</time>
      </trkpt>
      <trkpt lat="45.65517" lon="4.7229">
        <ele>310</ele>
        <time>2015-10-18T08:33:41.402Z</time>
      </trkpt>
      <trkpt lat="45.65517" lon="4.72281">
        <ele>310</ele>
        <time>2015-10-18T08:33:43.426Z</time>
      </trkpt>
      <trkpt lat="45.65516" lon="4.72277">
        <ele>310</ele>
        <time>2015-10-18T08:33:44.389Z</time>
      </trkpt>
      <trkpt lat="45.65515" lon="4.72268">
        <ele>310</ele>
        <time>2015-10-18T08:33:46.545Z</time>
      </trkpt>
      <trkpt lat="45.65515" lon="4.72264">
        <ele>310</ele>
        <time>2015-10-18T08:33:47.374Z</time>
      </trkpt>
      <trkpt lat="45.65515" lon="4.72253">
        <ele>310</ele>
        <time>2015-10-18T08:33:49.392Z</time>
      </trkpt>
      <trkpt lat="45.65513" lon="4.72247">
        <ele>311</ele>
        <time>2015-10-18T08:33:50.406Z</time>
      </trkpt>
      <trkpt lat="45.65513" lon="4.72234">
        <ele>310</ele>
        <time>2015-10-18T08:33:53.409Z</time>
      </trkpt>
      <trkpt lat="45.65513" lon="4.72228">
        <ele>310</ele>
        <time>2015-10-18T08:33:54.384Z</time>
      </trkpt>
      <trkpt lat="45.65513" lon="4.72217">
        <ele>310</ele>
        <time>2015-10-18T08:33:56.417Z</time>
      </trkpt>
      <trkpt lat="45.65512" lon="4.72213">
        <ele>310</ele>
        <time>2015-10-18T08:33:57.387Z</time>
      </trkpt>
      <trkpt lat="45.65512" lon="4.72204">
        <ele>310</ele>
        <time>2015-10-18T08:33:59.427Z</time>
      </trkpt>
      <trkpt lat="45.65512" lon="4.72198">
        <ele>310</ele>
        <time>2015-10-18T08:34:00.392Z</time>
      </trkpt>
      <trkpt lat="45.65512" lon="4.72189">
        <ele>310</ele>
        <time>2015-10-18T08:34:02.423Z</time>
      </trkpt>
      <trkpt lat="45.65512" lon="4.72185">
        <ele>310</ele>
        <time>2015-10-18T08:34:03.381Z</time>
      </trkpt>
      <trkpt lat="45.65512" lon="4.72174">
        <ele>310</ele>
        <time>2015-10-18T08:34:05.403Z</time>
      </trkpt>
      <trkpt lat="45.65512" lon="4.7217">
        <ele>310</ele>
        <time>2015-10-18T08:34:06.388Z</time>
      </trkpt>
      <trkpt lat="45.65511" lon="4.72161">
        <ele>310</ele>
        <time>2015-10-18T08:34:08.411Z</time>
      </trkpt>
      <trkpt lat="45.6551" lon="4.72157">
        <ele>310</ele>
        <time>2015-10-18T08:34:09.447Z</time>
      </trkpt>
      <trkpt lat="45.6551" lon="4.72146">
        <ele>310</ele>
        <time>2015-10-18T08:34:12.418Z</time>
      </trkpt>
      <trkpt lat="45.6551" lon="4.72142">
        <ele>310</ele>
        <time>2015-10-18T08:34:13.388Z</time>
      </trkpt>
      <trkpt lat="45.65513" lon="4.72131">
        <ele>309</ele>
        <time>2015-10-18T08:34:16.427Z</time>
      </trkpt>
      <trkpt lat="45.65515" lon="4.72127">
        <ele>309</ele>
        <time>2015-10-18T08:34:17.403Z</time>
      </trkpt>
      <trkpt lat="45.65517" lon="4.7212">
        <ele>309</ele>
        <time>2015-10-18T08:34:19.431Z</time>
      </trkpt>
      <trkpt lat="45.65518" lon="4.72114">
        <ele>309</ele>
        <time>2015-10-18T08:34:20.406Z</time>
      </trkpt>
      <trkpt lat="45.6552" lon="4.72103">
        <ele>309</ele>
        <time>2015-10-18T08:34:22.416Z</time>
      </trkpt>
      <trkpt lat="45.65521" lon="4.72097">
        <ele>309</ele>
        <time>2015-10-18T08:34:23.384Z</time>
      </trkpt>
      <trkpt lat="45.65522" lon="4.72086">
        <ele>309</ele>
        <time>2015-10-18T08:34:25.434Z</time>
      </trkpt>
      <trkpt lat="45.65521" lon="4.72082">
        <ele>309</ele>
        <time>2015-10-18T08:34:26.387Z</time>
      </trkpt>
      <trkpt lat="45.65522" lon="4.72071">
        <ele>309</ele>
        <time>2015-10-18T08:34:28.419Z</time>
      </trkpt>
      <trkpt lat="45.65522" lon="4.72067">
        <ele>309</ele>
        <time>2015-10-18T08:34:29.386Z</time>
      </trkpt>
      <trkpt lat="45.65521" lon="4.72058">
        <ele>309</ele>
        <time>2015-10-18T08:34:30.410Z</time>
      </trkpt>
      <trkpt lat="45.65521" lon="4.72052">
        <ele>309</ele>
        <time>2015-10-18T08:34:31.386Z</time>
      </trkpt>
      <trkpt lat="45.65522" lon="4.72041">
        <ele>309</ele>
        <time>2015-10-18T08:34:33.416Z</time>
      </trkpt>
      <trkpt lat="45.65522" lon="4.72034">
        <ele>309</ele>
        <time>2015-10-18T08:34:34.383Z</time>
      </trkpt>
      <trkpt lat="45.65523" lon="4.72024">
        <ele>309</ele>
        <time>2015-10-18T08:34:36.428Z</time>
      </trkpt>
      <trkpt lat="45.65525" lon="4.72015">
        <ele>309</ele>
        <time>2015-10-18T08:34:37.385Z</time>
      </trkpt>
      <trkpt lat="45.65531" lon="4.72007">
        <ele>309</ele>
        <time>2015-10-18T08:34:39.412Z</time>
      </trkpt>
      <trkpt lat="45.65533" lon="4.72">
        <ele>309</ele>
        <time>2015-10-18T08:34:40.399Z</time>
      </trkpt>
      <trkpt lat="45.65536" lon="4.71996">
        <ele>310</ele>
        <time>2015-10-18T08:34:41.411Z</time>
      </trkpt>
      <trkpt lat="45.65538" lon="4.71989">
        <ele>310</ele>
        <time>2015-10-18T08:34:42.384Z</time>
      </trkpt>
      <trkpt lat="45.65544" lon="4.71981">
        <ele>310</ele>
        <time>2015-10-18T08:34:44.402Z</time>
      </trkpt>
      <trkpt lat="45.65547" lon="4.71977">
        <ele>310</ele>
        <time>2015-10-18T08:34:45.387Z</time>
      </trkpt>
      <trkpt lat="45.65551" lon="4.71968">
        <ele>310</ele>
        <time>2015-10-18T08:34:47.415Z</time>
      </trkpt>
      <trkpt lat="45.65554" lon="4.71961">
        <ele>310</ele>
        <time>2015-10-18T08:34:48.385Z</time>
      </trkpt>
      <trkpt lat="45.65559" lon="4.71951">
        <ele>311</ele>
        <time>2015-10-18T08:34:50.421Z</time>
      </trkpt>
      <trkpt lat="45.65562" lon="4.71946">
        <ele>311</ele>
        <time>2015-10-18T08:34:51.386Z</time>
      </trkpt>
      <trkpt lat="45.65567" lon="4.71938">
        <ele>311</ele>
        <time>2015-10-18T08:34:53.438Z</time>
      </trkpt>
      <trkpt lat="45.65569" lon="4.71934">
        <ele>311</ele>
        <time>2015-10-18T08:34:54.391Z</time>
      </trkpt>
      <trkpt lat="45.6557" lon="4.71927">
        <ele>312</ele>
        <time>2015-10-18T08:34:55.418Z</time>
      </trkpt>
      <trkpt lat="45.65573" lon="4.71921">
        <ele>312</ele>
        <time>2015-10-18T08:34:56.385Z</time>
      </trkpt>
      <trkpt lat="45.65577" lon="4.7191">
        <ele>313</ele>
        <time>2015-10-18T08:34:58.410Z</time>
      </trkpt>
      <trkpt lat="45.65578" lon="4.71906">
        <ele>312</ele>
        <time>2015-10-18T08:34:59.389Z</time>
      </trkpt>
      <trkpt lat="45.6558" lon="4.71899">
        <ele>312</ele>
        <time>2015-10-18T08:35:00.429Z</time>
      </trkpt>
      <trkpt lat="45.65583" lon="4.71895">
        <ele>312</ele>
        <time>2015-10-18T08:35:01.386Z</time>
      </trkpt>
      <trkpt lat="45.65586" lon="4.71884">
        <ele>312</ele>
        <time>2015-10-18T08:35:03.428Z</time>
      </trkpt>
      <trkpt lat="45.65588" lon="4.7188">
        <ele>312</ele>
        <time>2015-10-18T08:35:04.385Z</time>
      </trkpt>
      <trkpt lat="45.65591" lon="4.71874">
        <ele>313</ele>
        <time>2015-10-18T08:35:05.422Z</time>
      </trkpt>
      <trkpt lat="45.65592" lon="4.71867">
        <ele>313</ele>
        <time>2015-10-18T08:35:06.407Z</time>
      </trkpt>
      <trkpt lat="45.65596" lon="4.71859">
        <ele>313</ele>
        <time>2015-10-18T08:35:08.425Z</time>
      </trkpt>
      <trkpt lat="45.65598" lon="4.71852">
        <ele>313</ele>
        <time>2015-10-18T08:35:09.395Z</time>
      </trkpt>
      <trkpt lat="45.65603" lon="4.71841">
        <ele>313</ele>
        <time>2015-10-18T08:35:11.423Z</time>
      </trkpt>
      <trkpt lat="45.65605" lon="4.71837">
        <ele>313</ele>
        <time>2015-10-18T08:35:12.388Z</time>
      </trkpt>
      <trkpt lat="45.65609" lon="4.71826">
        <ele>315</ele>
        <time>2015-10-18T08:35:14.428Z</time>
      </trkpt>
      <trkpt lat="45.65611" lon="4.71822">
        <ele>315</ele>
        <time>2015-10-18T08:35:15.418Z</time>
      </trkpt>
      <trkpt lat="45.65615" lon="4.71813">
        <ele>315</ele>
        <time>2015-10-18T08:35:17.426Z</time>
      </trkpt>
      <trkpt lat="45.65619" lon="4.71811">
        <ele>315</ele>
        <time>2015-10-18T08:35:18.392Z</time>
      </trkpt>
      <trkpt lat="45.6562" lon="4.71801">
        <ele>315</ele>
        <time>2015-10-18T08:35:20.412Z</time>
      </trkpt>
      <trkpt lat="45.65621" lon="4.71798">
        <ele>315</ele>
        <time>2015-10-18T08:35:21.409Z</time>
      </trkpt>
      <trkpt lat="45.65616" lon="4.71788">
        <ele>315</ele>
        <time>2015-10-18T08:35:24.416Z</time>
      </trkpt>
      <trkpt lat="45.65614" lon="4.71786">
        <ele>315</ele>
        <time>2015-10-18T08:35:25.384Z</time>
      </trkpt>
      <trkpt lat="45.65607" lon="4.71783">
        <ele>316</ele>
        <time>2015-10-18T08:35:27.415Z</time>
      </trkpt>
      <trkpt lat="45.65604" lon="4.71781">
        <ele>316</ele>
        <time>2015-10-18T08:35:28.382Z</time>
      </trkpt>
      <trkpt lat="45.65596" lon="4.71777">
        <ele>316</ele>
        <time>2015-10-18T08:35:30.419Z</time>
      </trkpt>
      <trkpt lat="45.65593" lon="4.71775">
        <ele>316</ele>
        <time>2015-10-18T08:35:31.398Z</time>
      </trkpt>
      <trkpt lat="45.65586" lon="4.71768">
        <ele>316</ele>
        <time>2015-10-18T08:35:33.417Z</time>
      </trkpt>
      <trkpt lat="45.65583" lon="4.71766">
        <ele>315</ele>
        <time>2015-10-18T08:35:34.386Z</time>
      </trkpt>
      <trkpt lat="45.65579" lon="4.71764">
        <ele>315</ele>
        <time>2015-10-18T08:35:35.408Z</time>
      </trkpt>
      <trkpt lat="45.65575" lon="4.7176">
        <ele>315</ele>
        <time>2015-10-18T08:35:36.377Z</time>
      </trkpt>
      <trkpt lat="45.65569" lon="4.71758">
        <ele>315</ele>
        <time>2015-10-18T08:35:37.437Z</time>
      </trkpt>
      <trkpt lat="45.65565" lon="4.71753">
        <ele>315</ele>
        <time>2015-10-18T08:35:38.383Z</time>
      </trkpt>
      <trkpt lat="45.65557" lon="4.71747">
        <ele>315</ele>
        <time>2015-10-18T08:35:40.422Z</time>
      </trkpt>
      <trkpt lat="45.65551" lon="4.71743">
        <ele>314</ele>
        <time>2015-10-18T08:35:41.385Z</time>
      </trkpt>
      <trkpt lat="45.65546" lon="4.71738">
        <ele>314</ele>
        <time>2015-10-18T08:35:42.404Z</time>
      </trkpt>
      <trkpt lat="45.6554" lon="4.71732">
        <ele>314</ele>
        <time>2015-10-18T08:35:43.370Z</time>
      </trkpt>
      <trkpt lat="45.65534" lon="4.71728">
        <ele>313</ele>
        <time>2015-10-18T08:35:44.404Z</time>
      </trkpt>
      <trkpt lat="45.65526" lon="4.71723">
        <ele>313</ele>
        <time>2015-10-18T08:35:45.386Z</time>
      </trkpt>
      <trkpt lat="45.65526" lon="4.71723">
        <ele>313</ele>
        <time>2015-10-18T08:35:45.407Z</time>
      </trkpt>
      <trkpt lat="45.65517" lon="4.71723">
        <ele>313</ele>
        <time>2015-10-18T08:35:46.389Z</time>
      </trkpt>
      <trkpt lat="45.65517" lon="4.71723">
        <ele>313</ele>
        <time>2015-10-18T08:35:46.410Z</time>
      </trkpt>
      <trkpt lat="45.65507" lon="4.71719">
        <ele>312</ele>
        <time>2015-10-18T08:35:47.372Z</time>
      </trkpt>
      <trkpt lat="45.655" lon="4.71717">
        <ele>308</ele>
        <time>2015-10-18T08:35:48.426Z</time>
      </trkpt>
      <trkpt lat="45.65492" lon="4.71715">
        <ele>308</ele>
        <time>2015-10-18T08:35:49.392Z</time>
      </trkpt>
      <trkpt lat="45.65492" lon="4.71715">
        <ele>308</ele>
        <time>2015-10-18T08:35:49.413Z</time>
      </trkpt>
      <trkpt lat="45.65482" lon="4.7171">
        <ele>307</ele>
        <time>2015-10-18T08:35:50.381Z</time>
      </trkpt>
      <trkpt lat="45.65475" lon="4.71704">
        <ele>307</ele>
        <time>2015-10-18T08:35:51.370Z</time>
      </trkpt>
      <trkpt lat="45.65467" lon="4.71698">
        <ele>307</ele>
        <time>2015-10-18T08:35:52.361Z</time>
      </trkpt>
      <trkpt lat="45.65461" lon="4.71693">
        <ele>307</ele>
        <time>2015-10-18T08:35:53.383Z</time>
      </trkpt>
      <trkpt lat="45.65457" lon="4.71687">
        <ele>307</ele>
        <time>2015-10-18T08:35:54.373Z</time>
      </trkpt>
      <trkpt lat="45.65453" lon="4.7168">
        <ele>307</ele>
        <time>2015-10-18T08:35:56.403Z</time>
      </trkpt>
      <trkpt lat="45.65454" lon="4.71674">
        <ele>307</ele>
        <time>2015-10-18T08:35:57.378Z</time>
      </trkpt>
      <trkpt lat="45.65459" lon="4.71665">
        <ele>309</ele>
        <time>2015-10-18T08:35:59.446Z</time>
      </trkpt>
      <trkpt lat="45.65461" lon="4.71661">
        <ele>309</ele>
        <time>2015-10-18T08:36:00.383Z</time>
      </trkpt>
      <trkpt lat="45.65465" lon="4.7165">
        <ele>309</ele>
        <time>2015-10-18T08:36:03.411Z</time>
      </trkpt>
      <trkpt lat="45.65467" lon="4.71646">
        <ele>309</ele>
        <time>2015-10-18T08:36:04.380Z</time>
      </trkpt>
      <trkpt lat="45.6547" lon="4.71635">
        <ele>309</ele>
        <time>2015-10-18T08:36:07.407Z</time>
      </trkpt>
      <trkpt lat="45.65471" lon="4.71631">
        <ele>309</ele>
        <time>2015-10-18T08:36:08.388Z</time>
      </trkpt>
      <trkpt lat="45.65474" lon="4.71622">
        <ele>310</ele>
        <time>2015-10-18T08:36:10.437Z</time>
      </trkpt>
      <trkpt lat="45.65477" lon="4.71618">
        <ele>310</ele>
        <time>2015-10-18T08:36:11.392Z</time>
      </trkpt>
      <trkpt lat="45.6548" lon="4.71607">
        <ele>310</ele>
        <time>2015-10-18T08:36:14.420Z</time>
      </trkpt>
      <trkpt lat="45.65482" lon="4.71603">
        <ele>310</ele>
        <time>2015-10-18T08:36:15.379Z</time>
      </trkpt>
      <trkpt lat="45.65483" lon="4.71595">
        <ele>310</ele>
        <time>2015-10-18T08:36:17.421Z</time>
      </trkpt>
      <trkpt lat="45.65483" lon="4.7159">
        <ele>310</ele>
        <time>2015-10-18T08:36:18.385Z</time>
      </trkpt>
      <trkpt lat="45.65486" lon="4.7158">
        <ele>311</ele>
        <time>2015-10-18T08:36:20.420Z</time>
      </trkpt>
      <trkpt lat="45.65488" lon="4.71575">
        <ele>311</ele>
        <time>2015-10-18T08:36:21.384Z</time>
      </trkpt>
      <trkpt lat="45.65491" lon="4.71567">
        <ele>310</ele>
        <time>2015-10-18T08:36:23.421Z</time>
      </trkpt>
      <trkpt lat="45.65492" lon="4.71562">
        <ele>310</ele>
        <time>2015-10-18T08:36:24.387Z</time>
      </trkpt>
      <trkpt lat="45.65494" lon="4.71554">
        <ele>310</ele>
        <time>2015-10-18T08:36:26.419Z</time>
      </trkpt>
      <trkpt lat="45.65493" lon="4.71545">
        <ele>310</ele>
        <time>2015-10-18T08:36:27.382Z</time>
      </trkpt>
      <trkpt lat="45.65493" lon="4.71534">
        <ele>310</ele>
        <time>2015-10-18T08:36:29.416Z</time>
      </trkpt>
      <trkpt lat="45.6549" lon="4.71532">
        <ele>310</ele>
        <time>2015-10-18T08:36:30.375Z</time>
      </trkpt>
      <trkpt lat="45.65483" lon="4.7153">
        <ele>310</ele>
        <time>2015-10-18T08:36:32.411Z</time>
      </trkpt>
      <trkpt lat="45.6548" lon="4.7153">
        <ele>310</ele>
        <time>2015-10-18T08:36:33.381Z</time>
      </trkpt>
      <trkpt lat="45.65472" lon="4.71532">
        <ele>310</ele>
        <time>2015-10-18T08:36:37.429Z</time>
      </trkpt>
      <trkpt lat="45.6547" lon="4.71534">
        <ele>310</ele>
        <time>2015-10-18T08:36:38.389Z</time>
      </trkpt>
      <trkpt lat="45.65462" lon="4.71539">
        <ele>310</ele>
        <time>2015-10-18T08:36:47.421Z</time>
      </trkpt>
      <trkpt lat="45.6546" lon="4.71539">
        <ele>310</ele>
        <time>2015-10-18T08:36:48.386Z</time>
      </trkpt>
      <trkpt lat="45.65451" lon="4.71537">
        <ele>310</ele>
        <time>2015-10-18T08:36:50.403Z</time>
      </trkpt>
      <trkpt lat="45.6545" lon="4.71537">
        <ele>310</ele>
        <time>2015-10-18T08:36:51.379Z</time>
      </trkpt>
      <trkpt lat="45.65444" lon="4.71543">
        <ele>310</ele>
        <time>2015-10-18T08:36:58.411Z</time>
      </trkpt>
      <trkpt lat="45.65442" lon="4.71543">
        <ele>310</ele>
        <time>2015-10-18T08:36:59.399Z</time>
      </trkpt>
      <trkpt lat="45.65434" lon="4.71547">
        <ele>310</ele>
        <time>2015-10-18T08:37:04.407Z</time>
      </trkpt>
      <trkpt lat="45.65433" lon="4.71547">
        <ele>310</ele>
        <time>2015-10-18T08:37:05.383Z</time>
      </trkpt>
      <trkpt lat="45.65427" lon="4.71554">
        <ele>310</ele>
        <time>2015-10-18T08:37:17.418Z</time>
      </trkpt>
      <trkpt lat="45.65426" lon="4.71556">
        <ele>310</ele>
        <time>2015-10-18T08:37:18.407Z</time>
      </trkpt>
      <trkpt lat="45.6542" lon="4.71562">
        <ele>310</ele>
        <time>2015-10-18T08:38:19.425Z</time>
      </trkpt>
      <trkpt lat="45.65419" lon="4.71567">
        <ele>309</ele>
        <time>2015-10-18T08:38:20.379Z</time>
      </trkpt>
      <trkpt lat="45.65415" lon="4.71577">
        <ele>308</ele>
        <time>2015-10-18T08:38:23.407Z</time>
      </trkpt>
      <trkpt lat="45.65414" lon="4.71582">
        <ele>309</ele>
        <time>2015-10-18T08:38:24.374Z</time>
      </trkpt>
      <trkpt lat="45.6541" lon="4.71592">
        <ele>308</ele>
        <time>2015-10-18T08:38:26.416Z</time>
      </trkpt>
      <trkpt lat="45.65409" lon="4.71597">
        <ele>308</ele>
        <time>2015-10-18T08:38:27.399Z</time>
      </trkpt>
      <trkpt lat="45.65407" lon="4.71607">
        <ele>307</ele>
        <time>2015-10-18T08:38:29.402Z</time>
      </trkpt>
      <trkpt lat="45.65405" lon="4.71612">
        <ele>307</ele>
        <time>2015-10-18T08:38:30.379Z</time>
      </trkpt>
      <trkpt lat="45.65401" lon="4.7162">
        <ele>307</ele>
        <time>2015-10-18T08:38:32.405Z</time>
      </trkpt>
      <trkpt lat="45.65399" lon="4.71625">
        <ele>307</ele>
        <time>2015-10-18T08:38:33.384Z</time>
      </trkpt>
      <trkpt lat="45.65392" lon="4.71631">
        <ele>307</ele>
        <time>2015-10-18T08:38:35.415Z</time>
      </trkpt>
      <trkpt lat="45.65388" lon="4.71633">
        <ele>307</ele>
        <time>2015-10-18T08:38:36.376Z</time>
      </trkpt>
      <trkpt lat="45.65379" lon="4.71635">
        <ele>306</ele>
        <time>2015-10-18T08:38:38.421Z</time>
      </trkpt>
      <trkpt lat="45.65376" lon="4.71637">
        <ele>306</ele>
        <time>2015-10-18T08:38:39.378Z</time>
      </trkpt>
      <trkpt lat="45.65371" lon="4.71635">
        <ele>306</ele>
        <time>2015-10-18T08:38:40.413Z</time>
      </trkpt>
      <trkpt lat="45.65367" lon="4.71637">
        <ele>306</ele>
        <time>2015-10-18T08:38:41.382Z</time>
      </trkpt>
      <trkpt lat="45.65359" lon="4.7164">
        <ele>306</ele>
        <time>2015-10-18T08:38:43.410Z</time>
      </trkpt>
      <trkpt lat="45.65356" lon="4.7164">
        <ele>306</ele>
        <time>2015-10-18T08:38:44.387Z</time>
      </trkpt>
      <trkpt lat="45.65348" lon="4.7164">
        <ele>306</ele>
        <time>2015-10-18T08:38:46.413Z</time>
      </trkpt>
      <trkpt lat="45.65345" lon="4.7164">
        <ele>306</ele>
        <time>2015-10-18T08:38:47.384Z</time>
      </trkpt>
      <trkpt lat="45.65338" lon="4.7164">
        <ele>306</ele>
        <time>2015-10-18T08:38:49.418Z</time>
      </trkpt>
      <trkpt lat="45.65334" lon="4.71637">
        <ele>306</ele>
        <time>2015-10-18T08:38:50.378Z</time>
      </trkpt>
      <trkpt lat="45.65328" lon="4.71633">
        <ele>305</ele>
        <time>2015-10-18T08:38:52.416Z</time>
      </trkpt>
      <trkpt lat="45.65326" lon="4.71631">
        <ele>305</ele>
        <time>2015-10-18T08:38:53.398Z</time>
      </trkpt>
      <trkpt lat="45.65318" lon="4.71629">
        <ele>305</ele>
        <time>2015-10-18T08:38:55.414Z</time>
      </trkpt>
      <trkpt lat="45.65315" lon="4.71627">
        <ele>305</ele>
        <time>2015-10-18T08:38:56.392Z</time>
      </trkpt>
      <trkpt lat="45.65309" lon="4.71622">
        <ele>304</ele>
        <time>2015-10-18T08:38:58.406Z</time>
      </trkpt>
      <trkpt lat="45.65306" lon="4.7162">
        <ele>304</ele>
        <time>2015-10-18T08:38:59.378Z</time>
      </trkpt>
      <trkpt lat="45.65299" lon="4.71614">
        <ele>304</ele>
        <time>2015-10-18T08:39:02.426Z</time>
      </trkpt>
      <trkpt lat="45.65297" lon="4.71612">
        <ele>304</ele>
        <time>2015-10-18T08:39:03.386Z</time>
      </trkpt>
      <trkpt lat="45.6529" lon="4.71607">
        <ele>304</ele>
        <time>2015-10-18T08:39:05.422Z</time>
      </trkpt>
      <trkpt lat="45.65287" lon="4.71605">
        <ele>304</ele>
        <time>2015-10-18T08:39:06.394Z</time>
      </trkpt>
      <trkpt lat="45.65281" lon="4.71601">
        <ele>304</ele>
        <time>2015-10-18T08:39:08.404Z</time>
      </trkpt>
      <trkpt lat="45.65276" lon="4.71599">
        <ele>303</ele>
        <time>2015-10-18T08:39:09.382Z</time>
      </trkpt>
      <trkpt lat="45.6527" lon="4.71595">
        <ele>303</ele>
        <time>2015-10-18T08:39:11.414Z</time>
      </trkpt>
      <trkpt lat="45.65266" lon="4.71592">
        <ele>303</ele>
        <time>2015-10-18T08:39:12.380Z</time>
      </trkpt>
      <trkpt lat="45.6526" lon="4.7159">
        <ele>302</ele>
        <time>2015-10-18T08:39:13.391Z</time>
      </trkpt>
      <trkpt lat="45.65255" lon="4.7159">
        <ele>302</ele>
        <time>2015-10-18T08:39:14.376Z</time>
      </trkpt>
      <trkpt lat="45.65251" lon="4.71595">
        <ele>302</ele>
        <time>2015-10-18T08:39:15.382Z</time>
      </trkpt>
      <trkpt lat="45.65247" lon="4.71599">
        <ele>300</ele>
        <time>2015-10-18T08:39:16.377Z</time>
      </trkpt>
      <trkpt lat="45.65241" lon="4.71607">
        <ele>300</ele>
        <time>2015-10-18T08:39:18.405Z</time>
      </trkpt>
      <trkpt lat="45.65238" lon="4.71612">
        <ele>300</ele>
        <time>2015-10-18T08:39:19.371Z</time>
      </trkpt>
      <trkpt lat="45.65232" lon="4.7162">
        <ele>300</ele>
        <time>2015-10-18T08:39:21.401Z</time>
      </trkpt>
      <trkpt lat="45.6523" lon="4.71627">
        <ele>300</ele>
        <time>2015-10-18T08:39:22.382Z</time>
      </trkpt>
      <trkpt lat="45.65224" lon="4.71635">
        <ele>300</ele>
        <time>2015-10-18T08:39:24.430Z</time>
      </trkpt>
      <trkpt lat="45.65221" lon="4.7164">
        <ele>300</ele>
        <time>2015-10-18T08:39:25.390Z</time>
      </trkpt>
      <trkpt lat="45.65217" lon="4.71644">
        <ele>300</ele>
        <time>2015-10-18T08:39:26.403Z</time>
      </trkpt>
      <trkpt lat="45.65212" lon="4.71648">
        <ele>300</ele>
        <time>2015-10-18T08:39:27.379Z</time>
      </trkpt>
      <trkpt lat="45.65208" lon="4.71653">
        <ele>300</ele>
        <time>2015-10-18T08:39:28.401Z</time>
      </trkpt>
      <trkpt lat="45.65202" lon="4.71655">
        <ele>300</ele>
        <time>2015-10-18T08:39:29.362Z</time>
      </trkpt>
      <trkpt lat="45.65198" lon="4.71659">
        <ele>300</ele>
        <time>2015-10-18T08:39:30.395Z</time>
      </trkpt>
      <trkpt lat="45.65194" lon="4.71661">
        <ele>299</ele>
        <time>2015-10-18T08:39:31.345Z</time>
      </trkpt>
      <trkpt lat="45.65189" lon="4.71665">
        <ele>299</ele>
        <time>2015-10-18T08:39:32.388Z</time>
      </trkpt>
      <trkpt lat="45.65184" lon="4.7167">
        <ele>302</ele>
        <time>2015-10-18T08:39:33.360Z</time>
      </trkpt>
      <trkpt lat="45.6518" lon="4.71674">
        <ele>301</ele>
        <time>2015-10-18T08:39:34.381Z</time>
      </trkpt>
      <trkpt lat="45.65176" lon="4.71678">
        <ele>301</ele>
        <time>2015-10-18T08:39:35.344Z</time>
      </trkpt>
      <trkpt lat="45.65169" lon="4.71683">
        <ele>301</ele>
        <time>2015-10-18T08:39:37.379Z</time>
      </trkpt>
      <trkpt lat="45.65165" lon="4.71685">
        <ele>300</ele>
        <time>2015-10-18T08:39:38.361Z</time>
      </trkpt>
      <trkpt lat="45.65157" lon="4.71687">
        <ele>301</ele>
        <time>2015-10-18T08:39:41.393Z</time>
      </trkpt>
      <trkpt lat="45.65155" lon="4.71689">
        <ele>301</ele>
        <time>2015-10-18T08:39:42.374Z</time>
      </trkpt>
      <trkpt lat="45.65159" lon="4.717">
        <ele>301</ele>
        <time>2015-10-18T08:39:48.405Z</time>
      </trkpt>
      <trkpt lat="45.65161" lon="4.717">
        <ele>301</ele>
        <time>2015-10-18T08:39:49.368Z</time>
      </trkpt>
      <trkpt lat="45.65165" lon="4.7171">
        <ele>302</ele>
        <time>2015-10-18T08:39:53.404Z</time>
      </trkpt>
      <trkpt lat="45.65166" lon="4.71713">
        <ele>302</ele>
        <time>2015-10-18T08:39:54.371Z</time>
      </trkpt>
      <trkpt lat="45.65171" lon="4.71719">
        <ele>304</ele>
        <time>2015-10-18T08:39:57.416Z</time>
      </trkpt>
      <trkpt lat="45.65173" lon="4.71721">
        <ele>304</ele>
        <time>2015-10-18T08:39:58.404Z</time>
      </trkpt>
      <trkpt lat="45.65179" lon="4.7173">
        <ele>305</ele>
        <time>2015-10-18T08:40:01.407Z</time>
      </trkpt>
      <trkpt lat="45.65181" lon="4.71734">
        <ele>305</ele>
        <time>2015-10-18T08:40:02.386Z</time>
      </trkpt>
      <trkpt lat="45.65185" lon="4.71743">
        <ele>305</ele>
        <time>2015-10-18T08:40:05.418Z</time>
      </trkpt>
      <trkpt lat="45.65187" lon="4.71745">
        <ele>305</ele>
        <time>2015-10-18T08:40:06.385Z</time>
      </trkpt>
      <trkpt lat="45.65192" lon="4.71751">
        <ele>306</ele>
        <time>2015-10-18T08:40:08.418Z</time>
      </trkpt>
      <trkpt lat="45.65194" lon="4.71756">
        <ele>306</ele>
        <time>2015-10-18T08:40:09.383Z</time>
      </trkpt>
      <trkpt lat="45.65199" lon="4.71764">
        <ele>306</ele>
        <time>2015-10-18T08:40:12.412Z</time>
      </trkpt>
      <trkpt lat="45.65201" lon="4.71768">
        <ele>306</ele>
        <time>2015-10-18T08:40:13.378Z</time>
      </trkpt>
      <trkpt lat="45.65205" lon="4.71775">
        <ele>306</ele>
        <time>2015-10-18T08:40:15.428Z</time>
      </trkpt>
      <trkpt lat="45.65207" lon="4.71781">
        <ele>306</ele>
        <time>2015-10-18T08:40:16.390Z</time>
      </trkpt>
      <trkpt lat="45.65212" lon="4.7179">
        <ele>305</ele>
        <time>2015-10-18T08:40:18.421Z</time>
      </trkpt>
      <trkpt lat="45.65215" lon="4.71796">
        <ele>305</ele>
        <time>2015-10-18T08:40:19.394Z</time>
      </trkpt>
      <trkpt lat="45.65218" lon="4.71803">
        <ele>305</ele>
        <time>2015-10-18T08:40:20.405Z</time>
      </trkpt>
      <trkpt lat="45.65222" lon="4.71807">
        <ele>305</ele>
        <time>2015-10-18T08:40:21.371Z</time>
      </trkpt>
      <trkpt lat="45.65226" lon="4.71818">
        <ele>305</ele>
        <time>2015-10-18T08:40:24.403Z</time>
      </trkpt>
      <trkpt lat="45.65226" lon="4.7182">
        <ele>305</ele>
        <time>2015-10-18T08:40:25.373Z</time>
      </trkpt>
      <trkpt lat="45.6522" lon="4.71826">
        <ele>305</ele>
        <time>2015-10-18T08:40:29.400Z</time>
      </trkpt>
      <trkpt lat="45.65216" lon="4.71828">
        <ele>305</ele>
        <time>2015-10-18T08:40:30.373Z</time>
      </trkpt>
      <trkpt lat="45.6521" lon="4.71833">
        <ele>305</ele>
        <time>2015-10-18T08:40:33.405Z</time>
      </trkpt>
      <trkpt lat="45.65207" lon="4.71833">
        <ele>306</ele>
        <time>2015-10-18T08:40:34.362Z</time>
      </trkpt>
      <trkpt lat="45.65199" lon="4.71839">
        <ele>305</ele>
        <time>2015-10-18T08:40:37.396Z</time>
      </trkpt>
      <trkpt lat="45.65196" lon="4.71839">
        <ele>305</ele>
        <time>2015-10-18T08:40:38.371Z</time>
      </trkpt>
      <trkpt lat="45.65189" lon="4.71843">
        <ele>305</ele>
        <time>2015-10-18T08:40:40.405Z</time>
      </trkpt>
      <trkpt lat="45.65186" lon="4.71846">
        <ele>305</ele>
        <time>2015-10-18T08:40:41.356Z</time>
      </trkpt>
      <trkpt lat="45.65179" lon="4.7185">
        <ele>306</ele>
        <time>2015-10-18T08:40:44.402Z</time>
      </trkpt>
      <trkpt lat="45.65176" lon="4.71852">
        <ele>306</ele>
        <time>2015-10-18T08:40:45.367Z</time>
      </trkpt>
      <trkpt lat="45.65169" lon="4.71856">
        <ele>305</ele>
        <time>2015-10-18T08:40:48.383Z</time>
      </trkpt>
      <trkpt lat="45.65166" lon="4.71859">
        <ele>307</ele>
        <time>2015-10-18T08:40:49.358Z</time>
      </trkpt>
      <trkpt lat="45.65161" lon="4.71861">
        <ele>307</ele>
        <time>2015-10-18T08:40:51.392Z</time>
      </trkpt>
      <trkpt lat="45.65157" lon="4.71863">
        <ele>307</ele>
        <time>2015-10-18T08:40:52.362Z</time>
      </trkpt>
      <trkpt lat="45.6515" lon="4.71867">
        <ele>306</ele>
        <time>2015-10-18T08:40:55.394Z</time>
      </trkpt>
      <trkpt lat="45.65148" lon="4.71867">
        <ele>306</ele>
        <time>2015-10-18T08:40:56.368Z</time>
      </trkpt>
      <trkpt lat="45.65141" lon="4.71871">
        <ele>306</ele>
        <time>2015-10-18T08:40:58.397Z</time>
      </trkpt>
      <trkpt lat="45.65138" lon="4.71874">
        <ele>306</ele>
        <time>2015-10-18T08:40:59.370Z</time>
      </trkpt>
      <trkpt lat="45.65132" lon="4.71876">
        <ele>306</ele>
        <time>2015-10-18T08:41:01.405Z</time>
      </trkpt>
      <trkpt lat="45.65127" lon="4.71876">
        <ele>306</ele>
        <time>2015-10-18T08:41:02.353Z</time>
      </trkpt>
      <trkpt lat="45.65124" lon="4.71878">
        <ele>306</ele>
        <time>2015-10-18T08:41:03.486Z</time>
      </trkpt>
      <trkpt lat="45.65119" lon="4.71882">
        <ele>306</ele>
        <time>2015-10-18T08:41:04.350Z</time>
      </trkpt>
      <trkpt lat="45.65114" lon="4.71884">
        <ele>306</ele>
        <time>2015-10-18T08:41:05.371Z</time>
      </trkpt>
      <trkpt lat="45.65109" lon="4.71884">
        <ele>306</ele>
        <time>2015-10-18T08:41:06.354Z</time>
      </trkpt>
      <trkpt lat="45.65104" lon="4.71886">
        <ele>306</ele>
        <time>2015-10-18T08:41:07.379Z</time>
      </trkpt>
      <trkpt lat="45.65097" lon="4.71889">
        <ele>306</ele>
        <time>2015-10-18T08:41:08.362Z</time>
      </trkpt>
      <trkpt lat="45.65092" lon="4.71891">
        <ele>306</ele>
        <time>2015-10-18T08:41:09.366Z</time>
      </trkpt>
      <trkpt lat="45.65085" lon="4.71891">
        <ele>306</ele>
        <time>2015-10-18T08:41:10.366Z</time>
      </trkpt>
      <trkpt lat="45.65079" lon="4.71891">
        <ele>303</ele>
        <time>2015-10-18T08:41:11.383Z</time>
      </trkpt>
      <trkpt lat="45.65074" lon="4.71889">
        <ele>303</ele>
        <time>2015-10-18T08:41:12.362Z</time>
      </trkpt>
      <trkpt lat="45.65067" lon="4.71889">
        <ele>303</ele>
        <time>2015-10-18T08:41:13.413Z</time>
      </trkpt>
      <trkpt lat="45.65061" lon="4.71889">
        <ele>302</ele>
        <time>2015-10-18T08:41:14.367Z</time>
      </trkpt>
      <trkpt lat="45.65053" lon="4.71889">
        <ele>302</ele>
        <time>2015-10-18T08:41:15.403Z</time>
      </trkpt>
      <trkpt lat="45.65047" lon="4.71889">
        <ele>302</ele>
        <time>2015-10-18T08:41:16.357Z</time>
      </trkpt>
      <trkpt lat="45.65038" lon="4.71889">
        <ele>301</ele>
        <time>2015-10-18T08:41:18.413Z</time>
      </trkpt>
      <trkpt lat="45.65036" lon="4.71889">
        <ele>301</ele>
        <time>2015-10-18T08:41:19.368Z</time>
      </trkpt>
      <trkpt lat="45.6503" lon="4.71891">
        <ele>300</ele>
        <time>2015-10-18T08:41:23.407Z</time>
      </trkpt>
      <trkpt lat="45.65027" lon="4.71893">
        <ele>300</ele>
        <time>2015-10-18T08:41:24.375Z</time>
      </trkpt>
      <trkpt lat="45.6502" lon="4.71897">
        <ele>299</ele>
        <time>2015-10-18T08:41:26.409Z</time>
      </trkpt>
      <trkpt lat="45.65017" lon="4.71895">
        <ele>299</ele>
        <time>2015-10-18T08:41:27.370Z</time>
      </trkpt>
      <trkpt lat="45.65009" lon="4.71895">
        <ele>299</ele>
        <time>2015-10-18T08:41:28.403Z</time>
      </trkpt>
      <trkpt lat="45.65003" lon="4.71895">
        <ele>299</ele>
        <time>2015-10-18T08:41:29.364Z</time>
      </trkpt>
      <trkpt lat="45.64995" lon="4.71897">
        <ele>292</ele>
        <time>2015-10-18T08:41:30.386Z</time>
      </trkpt>
      <trkpt lat="45.64988" lon="4.71897">
        <ele>292</ele>
        <time>2015-10-18T08:41:31.374Z</time>
      </trkpt>
      <trkpt lat="45.6498" lon="4.71897">
        <ele>291</ele>
        <time>2015-10-18T08:41:32.397Z</time>
      </trkpt>
      <trkpt lat="45.64973" lon="4.71897">
        <ele>291</ele>
        <time>2015-10-18T08:41:33.373Z</time>
      </trkpt>
      <trkpt lat="45.64965" lon="4.71891">
        <ele>290</ele>
        <time>2015-10-18T08:41:35.428Z</time>
      </trkpt>
      <trkpt lat="45.64963" lon="4.71886">
        <ele>290</ele>
        <time>2015-10-18T08:41:36.375Z</time>
      </trkpt>
      <trkpt lat="45.6496" lon="4.7188">
        <ele>290</ele>
        <time>2015-10-18T08:41:37.420Z</time>
      </trkpt>
      <trkpt lat="45.64958" lon="4.71874">
        <ele>289</ele>
        <time>2015-10-18T08:41:38.375Z</time>
      </trkpt>
      <trkpt lat="45.64952" lon="4.71865">
        <ele>289</ele>
        <time>2015-10-18T08:41:40.403Z</time>
      </trkpt>
      <trkpt lat="45.64952" lon="4.71859">
        <ele>289</ele>
        <time>2015-10-18T08:41:41.365Z</time>
      </trkpt>
      <trkpt lat="45.64951" lon="4.71852">
        <ele>289</ele>
        <time>2015-10-18T08:41:42.384Z</time>
      </trkpt>
      <trkpt lat="45.64949" lon="4.71846">
        <ele>289</ele>
        <time>2015-10-18T08:41:43.373Z</time>
      </trkpt>
      <trkpt lat="45.64947" lon="4.71839">
        <ele>288</ele>
        <time>2015-10-18T08:41:44.408Z</time>
      </trkpt>
      <trkpt lat="45.64944" lon="4.71833">
        <ele>289</ele>
        <time>2015-10-18T08:41:45.371Z</time>
      </trkpt>
      <trkpt lat="45.64941" lon="4.71824">
        <ele>289</ele>
        <time>2015-10-18T08:41:46.424Z</time>
      </trkpt>
      <trkpt lat="45.64939" lon="4.71818">
        <ele>289</ele>
        <time>2015-10-18T08:41:47.375Z</time>
      </trkpt>
      <trkpt lat="45.64937" lon="4.71809">
        <ele>289</ele>
        <time>2015-10-18T08:41:48.408Z</time>
      </trkpt>
      <trkpt lat="45.64936" lon="4.71803">
        <ele>290</ele>
        <time>2015-10-18T08:41:49.375Z</time>
      </trkpt>
      <trkpt lat="45.64938" lon="4.71796">
        <ele>290</ele>
        <time>2015-10-18T08:41:50.392Z</time>
      </trkpt>
      <trkpt lat="45.64938" lon="4.7179">
        <ele>290</ele>
        <time>2015-10-18T08:41:51.395Z</time>
      </trkpt>
      <trkpt lat="45.64943" lon="4.71786">
        <ele>291</ele>
        <time>2015-10-18T08:41:52.402Z</time>
      </trkpt>
      <trkpt lat="45.64947" lon="4.71783">
        <ele>291</ele>
        <time>2015-10-18T08:41:53.372Z</time>
      </trkpt>
      <trkpt lat="45.64953" lon="4.71777">
        <ele>291</ele>
        <time>2015-10-18T08:41:55.402Z</time>
      </trkpt>
      <trkpt lat="45.64957" lon="4.71773">
        <ele>291</ele>
        <time>2015-10-18T08:41:56.371Z</time>
      </trkpt>
      <trkpt lat="45.64961" lon="4.71768">
        <ele>291</ele>
        <time>2015-10-18T08:41:57.403Z</time>
      </trkpt>
      <trkpt lat="45.64965" lon="4.71766">
        <ele>291</ele>
        <time>2015-10-18T08:41:58.380Z</time>
      </trkpt>
      <trkpt lat="45.6497" lon="4.7176">
        <ele>291</ele>
        <time>2015-10-18T08:41:59.393Z</time>
      </trkpt>
      <trkpt lat="45.64972" lon="4.71756">
        <ele>291</ele>
        <time>2015-10-18T08:42:00.372Z</time>
      </trkpt>
      <trkpt lat="45.64976" lon="4.71751">
        <ele>291</ele>
        <time>2015-10-18T08:42:01.415Z</time>
      </trkpt>
      <trkpt lat="45.64979" lon="4.71747">
        <ele>293</ele>
        <time>2015-10-18T08:42:02.362Z</time>
      </trkpt>
      <trkpt lat="45.64985" lon="4.7174">
        <ele>293</ele>
        <time>2015-10-18T08:42:04.391Z</time>
      </trkpt>
      <trkpt lat="45.64988" lon="4.71736">
        <ele>293</ele>
        <time>2015-10-18T08:42:05.369Z</time>
      </trkpt>
      <trkpt lat="45.64991" lon="4.71732">
        <ele>294</ele>
        <time>2015-10-18T08:42:06.394Z</time>
      </trkpt>
      <trkpt lat="45.64995" lon="4.71728">
        <ele>294</ele>
        <time>2015-10-18T08:42:07.373Z</time>
      </trkpt>
      <trkpt lat="45.64999" lon="4.71721">
        <ele>294</ele>
        <time>2015-10-18T08:42:08.400Z</time>
      </trkpt>
      <trkpt lat="45.65002" lon="4.71717">
        <ele>295</ele>
        <time>2015-10-18T08:42:09.363Z</time>
      </trkpt>
      <trkpt lat="45.65008" lon="4.7171">
        <ele>296</ele>
        <time>2015-10-18T08:42:11.407Z</time>
      </trkpt>
      <trkpt lat="45.65011" lon="4.71706">
        <ele>296</ele>
        <time>2015-10-18T08:42:12.370Z</time>
      </trkpt>
      <trkpt lat="45.65014" lon="4.71702">
        <ele>296</ele>
        <time>2015-10-18T08:42:13.421Z</time>
      </trkpt>
      <trkpt lat="45.65019" lon="4.71698">
        <ele>296</ele>
        <time>2015-10-18T08:42:14.369Z</time>
      </trkpt>
      <trkpt lat="45.65024" lon="4.71691">
        <ele>296</ele>
        <time>2015-10-18T08:42:16.392Z</time>
      </trkpt>
      <trkpt lat="45.65029" lon="4.71689">
        <ele>296</ele>
        <time>2015-10-18T08:42:17.362Z</time>
      </trkpt>
      <trkpt lat="45.65036" lon="4.71685">
        <ele>296</ele>
        <time>2015-10-18T08:42:19.402Z</time>
      </trkpt>
      <trkpt lat="45.6504" lon="4.71683">
        <ele>297</ele>
        <time>2015-10-18T08:42:20.375Z</time>
      </trkpt>
      <trkpt lat="45.65047" lon="4.71676">
        <ele>297</ele>
        <time>2015-10-18T08:42:22.398Z</time>
      </trkpt>
      <trkpt lat="45.6505" lon="4.71672">
        <ele>297</ele>
        <time>2015-10-18T08:42:23.366Z</time>
      </trkpt>
      <trkpt lat="45.65058" lon="4.71665">
        <ele>297</ele>
        <time>2015-10-18T08:42:25.406Z</time>
      </trkpt>
      <trkpt lat="45.65062" lon="4.71663">
        <ele>297</ele>
        <time>2015-10-18T08:42:26.371Z</time>
      </trkpt>
      <trkpt lat="45.65067" lon="4.71661">
        <ele>297</ele>
        <time>2015-10-18T08:42:27.431Z</time>
      </trkpt>
      <trkpt lat="45.65073" lon="4.71657">
        <ele>297</ele>
        <time>2015-10-18T08:42:28.375Z</time>
      </trkpt>
      <trkpt lat="45.65079" lon="4.71655">
        <ele>297</ele>
        <time>2015-10-18T08:42:29.396Z</time>
      </trkpt>
      <trkpt lat="45.65084" lon="4.71655">
        <ele>296</ele>
        <time>2015-10-18T08:42:30.366Z</time>
      </trkpt>
      <trkpt lat="45.65089" lon="4.7165">
        <ele>296</ele>
        <time>2015-10-18T08:42:31.396Z</time>
      </trkpt>
      <trkpt lat="45.65092" lon="4.71646">
        <ele>296</ele>
        <time>2015-10-18T08:42:32.360Z</time>
      </trkpt>
      <trkpt lat="45.65092" lon="4.71635">
        <ele>296</ele>
        <time>2015-10-18T08:42:34.386Z</time>
      </trkpt>
      <trkpt lat="45.6509" lon="4.71631">
        <ele>296</ele>
        <time>2015-10-18T08:42:35.373Z</time>
      </trkpt>
      <trkpt lat="45.65083" lon="4.71625">
        <ele>298</ele>
        <time>2015-10-18T08:42:37.389Z</time>
      </trkpt>
      <trkpt lat="45.65079" lon="4.71625">
        <ele>298</ele>
        <time>2015-10-18T08:42:38.369Z</time>
      </trkpt>
      <trkpt lat="45.65075" lon="4.71625">
        <ele>298</ele>
        <time>2015-10-18T08:42:39.406Z</time>
      </trkpt>
      <trkpt lat="45.65069" lon="4.71627">
        <ele>298</ele>
        <time>2015-10-18T08:42:40.366Z</time>
      </trkpt>
      <trkpt lat="45.65062" lon="4.71629">
        <ele>298</ele>
        <time>2015-10-18T08:42:42.424Z</time>
      </trkpt>
      <trkpt lat="45.65056" lon="4.71629">
        <ele>298</ele>
        <time>2015-10-18T08:42:43.365Z</time>
      </trkpt>
      <trkpt lat="45.65052" lon="4.71631">
        <ele>298</ele>
        <time>2015-10-18T08:42:44.380Z</time>
      </trkpt>
      <trkpt lat="45.65048" lon="4.71633">
        <ele>298</ele>
        <time>2015-10-18T08:42:45.368Z</time>
      </trkpt>
      <trkpt lat="45.65042" lon="4.71635">
        <ele>298</ele>
        <time>2015-10-18T08:42:46.388Z</time>
      </trkpt>
      <trkpt lat="45.65038" lon="4.71637">
        <ele>298</ele>
        <time>2015-10-18T08:42:47.361Z</time>
      </trkpt>
      <trkpt lat="45.65034" lon="4.7164">
        <ele>298</ele>
        <time>2015-10-18T08:42:48.397Z</time>
      </trkpt>
      <trkpt lat="45.65029" lon="4.71642">
        <ele>298</ele>
        <time>2015-10-18T08:42:49.358Z</time>
      </trkpt>
      <trkpt lat="45.65023" lon="4.7165">
        <ele>298</ele>
        <time>2015-10-18T08:42:51.400Z</time>
      </trkpt>
      <trkpt lat="45.65021" lon="4.71655">
        <ele>298</ele>
        <time>2015-10-18T08:42:52.360Z</time>
      </trkpt>
      <trkpt lat="45.65017" lon="4.71657">
        <ele>298</ele>
        <time>2015-10-18T08:42:53.401Z</time>
      </trkpt>
      <trkpt lat="45.6501" lon="4.71661">
        <ele>297</ele>
        <time>2015-10-18T08:42:54.367Z</time>
      </trkpt>
      <trkpt lat="45.65006" lon="4.71665">
        <ele>297</ele>
        <time>2015-10-18T08:42:55.391Z</time>
      </trkpt>
      <trkpt lat="45.65001" lon="4.7167">
        <ele>296</ele>
        <time>2015-10-18T08:42:56.370Z</time>
      </trkpt>
      <trkpt lat="45.64996" lon="4.71674">
        <ele>296</ele>
        <time>2015-10-18T08:42:57.399Z</time>
      </trkpt>
      <trkpt lat="45.64992" lon="4.71676">
        <ele>296</ele>
        <time>2015-10-18T08:42:58.367Z</time>
      </trkpt>
      <trkpt lat="45.64987" lon="4.71685">
        <ele>296</ele>
        <time>2015-10-18T08:43:00.398Z</time>
      </trkpt>
      <trkpt lat="45.64983" lon="4.71687">
        <ele>296</ele>
        <time>2015-10-18T08:43:01.365Z</time>
      </trkpt>
      <trkpt lat="45.64979" lon="4.71691">
        <ele>296</ele>
        <time>2015-10-18T08:43:02.415Z</time>
      </trkpt>
      <trkpt lat="45.64976" lon="4.71695">
        <ele>296</ele>
        <time>2015-10-18T08:43:03.360Z</time>
      </trkpt>
      <trkpt lat="45.64976" lon="4.71702">
        <ele>296</ele>
        <time>2015-10-18T08:43:04.396Z</time>
      </trkpt>
      <trkpt lat="45.64974" lon="4.71708">
        <ele>295</ele>
        <time>2015-10-18T08:43:05.370Z</time>
      </trkpt>
      <trkpt lat="45.64968" lon="4.71713">
        <ele>295</ele>
        <time>2015-10-18T08:43:06.390Z</time>
      </trkpt>
      <trkpt lat="45.64965" lon="4.71717">
        <ele>295</ele>
        <time>2015-10-18T08:43:07.360Z</time>
      </trkpt>
      <trkpt lat="45.64963" lon="4.71723">
        <ele>295</ele>
        <time>2015-10-18T08:43:08.399Z</time>
      </trkpt>
      <trkpt lat="45.6496" lon="4.71728">
        <ele>295</ele>
        <time>2015-10-18T08:43:09.366Z</time>
      </trkpt>
      <trkpt lat="45.64955" lon="4.71732">
        <ele>295</ele>
        <time>2015-10-18T08:43:10.406Z</time>
      </trkpt>
      <trkpt lat="45.64949" lon="4.71738">
        <ele>294</ele>
        <time>2015-10-18T08:43:11.364Z</time>
      </trkpt>
      <trkpt lat="45.64945" lon="4.71743">
        <ele>294</ele>
        <time>2015-10-18T08:43:12.403Z</time>
      </trkpt>
      <trkpt lat="45.64938" lon="4.71747">
        <ele>294</ele>
        <time>2015-10-18T08:43:13.399Z</time>
      </trkpt>
      <trkpt lat="45.64938" lon="4.71747">
        <ele>294</ele>
        <time>2015-10-18T08:43:13.428Z</time>
      </trkpt>
      <trkpt lat="45.6493" lon="4.71751">
        <ele>291</ele>
        <time>2015-10-18T08:43:14.363Z</time>
      </trkpt>
      <trkpt lat="45.64923" lon="4.71753">
        <ele>292</ele>
        <time>2015-10-18T08:43:15.404Z</time>
      </trkpt>
      <trkpt lat="45.64919" lon="4.71756">
        <ele>292</ele>
        <time>2015-10-18T08:43:16.369Z</time>
      </trkpt>
      <trkpt lat="45.64914" lon="4.71758">
        <ele>290</ele>
        <time>2015-10-18T08:43:17.390Z</time>
      </trkpt>
      <trkpt lat="45.64909" lon="4.7176">
        <ele>290</ele>
        <time>2015-10-18T08:43:18.359Z</time>
      </trkpt>
      <trkpt lat="45.64905" lon="4.71764">
        <ele>289</ele>
        <time>2015-10-18T08:43:19.400Z</time>
      </trkpt>
      <trkpt lat="45.64901" lon="4.71766">
        <ele>288</ele>
        <time>2015-10-18T08:43:20.367Z</time>
      </trkpt>
      <trkpt lat="45.64894" lon="4.71771">
        <ele>288</ele>
        <time>2015-10-18T08:43:21.404Z</time>
      </trkpt>
      <trkpt lat="45.64889" lon="4.71773">
        <ele>288</ele>
        <time>2015-10-18T08:43:22.370Z</time>
      </trkpt>
      <trkpt lat="45.6488" lon="4.71773">
        <ele>287</ele>
        <time>2015-10-18T08:43:24.432Z</time>
      </trkpt>
      <trkpt lat="45.64877" lon="4.71771">
        <ele>287</ele>
        <time>2015-10-18T08:43:25.369Z</time>
      </trkpt>
      <trkpt lat="45.6487" lon="4.71764">
        <ele>287</ele>
        <time>2015-10-18T08:43:27.401Z</time>
      </trkpt>
      <trkpt lat="45.64867" lon="4.71764">
        <ele>287</ele>
        <time>2015-10-18T08:43:28.379Z</time>
      </trkpt>
      <trkpt lat="45.64861" lon="4.7176">
        <ele>287</ele>
        <time>2015-10-18T08:43:30.550Z</time>
      </trkpt>
      <trkpt lat="45.64858" lon="4.71758">
        <ele>287</ele>
        <time>2015-10-18T08:43:31.363Z</time>
      </trkpt>
      <trkpt lat="45.6485" lon="4.71758">
        <ele>287</ele>
        <time>2015-10-18T08:43:34.395Z</time>
      </trkpt>
      <trkpt lat="45.64848" lon="4.7176">
        <ele>287</ele>
        <time>2015-10-18T08:43:35.364Z</time>
      </trkpt>
      <trkpt lat="45.64842" lon="4.71766">
        <ele>287</ele>
        <time>2015-10-18T08:43:37.394Z</time>
      </trkpt>
      <trkpt lat="45.64838" lon="4.71768">
        <ele>287</ele>
        <time>2015-10-18T08:43:38.369Z</time>
      </trkpt>
      <trkpt lat="45.64832" lon="4.71773">
        <ele>286</ele>
        <time>2015-10-18T08:43:40.420Z</time>
      </trkpt>
      <trkpt lat="45.64829" lon="4.71775">
        <ele>286</ele>
        <time>2015-10-18T08:43:41.370Z</time>
      </trkpt>
      <trkpt lat="45.64821" lon="4.71773">
        <ele>286</ele>
        <time>2015-10-18T08:43:43.404Z</time>
      </trkpt>
      <trkpt lat="45.64819" lon="4.71771">
        <ele>286</ele>
        <time>2015-10-18T08:43:44.367Z</time>
      </trkpt>
      <trkpt lat="45.64813" lon="4.71762">
        <ele>287</ele>
        <time>2015-10-18T08:43:47.406Z</time>
      </trkpt>
      <trkpt lat="45.64811" lon="4.71762">
        <ele>287</ele>
        <time>2015-10-18T08:43:48.363Z</time>
      </trkpt>
      <trkpt lat="45.64804" lon="4.71756">
        <ele>287</ele>
        <time>2015-10-18T08:43:51.410Z</time>
      </trkpt>
      <trkpt lat="45.64801" lon="4.71756">
        <ele>286</ele>
        <time>2015-10-18T08:43:52.370Z</time>
      </trkpt>
      <trkpt lat="45.64795" lon="4.71751">
        <ele>286</ele>
        <time>2015-10-18T08:43:55.400Z</time>
      </trkpt>
      <trkpt lat="45.64791" lon="4.71749">
        <ele>290</ele>
        <time>2015-10-18T08:43:56.362Z</time>
      </trkpt>
      <trkpt lat="45.64785" lon="4.7174">
        <ele>290</ele>
        <time>2015-10-18T08:44:00.404Z</time>
      </trkpt>
      <trkpt lat="45.64783" lon="4.71738">
        <ele>290</ele>
        <time>2015-10-18T08:44:01.382Z</time>
      </trkpt>
      <trkpt lat="45.64777" lon="4.71734">
        <ele>290</ele>
        <time>2015-10-18T08:44:04.411Z</time>
      </trkpt>
      <trkpt lat="45.64774" lon="4.71732">
        <ele>290</ele>
        <time>2015-10-18T08:44:05.368Z</time>
      </trkpt>
      <trkpt lat="45.64767" lon="4.71728">
        <ele>290</ele>
        <time>2015-10-18T08:44:09.401Z</time>
      </trkpt>
      <trkpt lat="45.64764" lon="4.71725">
        <ele>290</ele>
        <time>2015-10-18T08:44:10.367Z</time>
      </trkpt>
      <trkpt lat="45.64756" lon="4.71719">
        <ele>291</ele>
        <time>2015-10-18T08:44:13.403Z</time>
      </trkpt>
      <trkpt lat="45.64754" lon="4.71717">
        <ele>291</ele>
        <time>2015-10-18T08:44:14.369Z</time>
      </trkpt>
      <trkpt lat="45.64747" lon="4.71713">
        <ele>290</ele>
        <time>2015-10-18T08:44:17.410Z</time>
      </trkpt>
      <trkpt lat="45.64745" lon="4.71713">
        <ele>290</ele>
        <time>2015-10-18T08:44:18.392Z</time>
      </trkpt>
      <trkpt lat="45.64738" lon="4.71708">
        <ele>290</ele>
        <time>2015-10-18T08:44:21.405Z</time>
      </trkpt>
      <trkpt lat="45.64735" lon="4.71706">
        <ele>290</ele>
        <time>2015-10-18T08:44:22.367Z</time>
      </trkpt>
      <trkpt lat="45.64728" lon="4.71704">
        <ele>291</ele>
        <time>2015-10-18T08:44:25.415Z</time>
      </trkpt>
      <trkpt lat="45.64725" lon="4.71702">
        <ele>291</ele>
        <time>2015-10-18T08:44:26.369Z</time>
      </trkpt>
      <trkpt lat="45.64718" lon="4.717">
        <ele>291</ele>
        <time>2015-10-18T08:44:29.401Z</time>
      </trkpt>
      <trkpt lat="45.64715" lon="4.717">
        <ele>291</ele>
        <time>2015-10-18T08:44:30.368Z</time>
      </trkpt>
      <trkpt lat="45.64709" lon="4.71695">
        <ele>291</ele>
        <time>2015-10-18T08:44:33.404Z</time>
      </trkpt>
      <trkpt lat="45.64707" lon="4.71695">
        <ele>291</ele>
        <time>2015-10-18T08:44:34.401Z</time>
      </trkpt>
      <trkpt lat="45.647" lon="4.71695">
        <ele>291</ele>
        <time>2015-10-18T08:44:35.404Z</time>
      </trkpt>
      <trkpt lat="45.64697" lon="4.71695">
        <ele>291</ele>
        <time>2015-10-18T08:44:36.392Z</time>
      </trkpt>
      <trkpt lat="45.64688" lon="4.71695">
        <ele>291</ele>
        <time>2015-10-18T08:44:39.396Z</time>
      </trkpt>
      <trkpt lat="45.64686" lon="4.71693">
        <ele>291</ele>
        <time>2015-10-18T08:44:40.375Z</time>
      </trkpt>
      <trkpt lat="45.64679" lon="4.71693">
        <ele>291</ele>
        <time>2015-10-18T08:44:43.393Z</time>
      </trkpt>
      <trkpt lat="45.64677" lon="4.71691">
        <ele>291</ele>
        <time>2015-10-18T08:44:44.380Z</time>
      </trkpt>
      <trkpt lat="45.6467" lon="4.71689">
        <ele>291</ele>
        <time>2015-10-18T08:44:46.399Z</time>
      </trkpt>
      <trkpt lat="45.64667" lon="4.71689">
        <ele>291</ele>
        <time>2015-10-18T08:44:47.374Z</time>
      </trkpt>
      <trkpt lat="45.64659" lon="4.71685">
        <ele>291</ele>
        <time>2015-10-18T08:44:50.403Z</time>
      </trkpt>
      <trkpt lat="45.64656" lon="4.71683">
        <ele>292</ele>
        <time>2015-10-18T08:44:51.386Z</time>
      </trkpt>
      <trkpt lat="45.64648" lon="4.71683">
        <ele>291</ele>
        <time>2015-10-18T08:44:54.389Z</time>
      </trkpt>
      <trkpt lat="45.64646" lon="4.71683">
        <ele>291</ele>
        <time>2015-10-18T08:44:55.381Z</time>
      </trkpt>
      <trkpt lat="45.64637" lon="4.71683">
        <ele>292</ele>
        <time>2015-10-18T08:44:58.396Z</time>
      </trkpt>
      <trkpt lat="45.64635" lon="4.71683">
        <ele>292</ele>
        <time>2015-10-18T08:44:59.362Z</time>
      </trkpt>
      <trkpt lat="45.64628" lon="4.71674">
        <ele>292</ele>
        <time>2015-10-18T08:45:04.413Z</time>
      </trkpt>
      <trkpt lat="45.64628" lon="4.7167">
        <ele>292</ele>
        <time>2015-10-18T08:45:05.375Z</time>
      </trkpt>
      <trkpt lat="45.64627" lon="4.71659">
        <ele>295</ele>
        <time>2015-10-18T08:45:09.412Z</time>
      </trkpt>
      <trkpt lat="45.64627" lon="4.71657">
        <ele>295</ele>
        <time>2015-10-18T08:45:10.370Z</time>
      </trkpt>
      <trkpt lat="45.64628" lon="4.71646">
        <ele>295</ele>
        <time>2015-10-18T08:45:14.401Z</time>
      </trkpt>
      <trkpt lat="45.64629" lon="4.71642">
        <ele>295</ele>
        <time>2015-10-18T08:45:15.383Z</time>
      </trkpt>
      <trkpt lat="45.64629" lon="4.71629">
        <ele>296</ele>
        <time>2015-10-18T08:45:20.406Z</time>
      </trkpt>
      <trkpt lat="45.64631" lon="4.71627">
        <ele>296</ele>
        <time>2015-10-18T08:45:21.379Z</time>
      </trkpt>
      <trkpt lat="45.64631" lon="4.71618">
        <ele>296</ele>
        <time>2015-10-18T08:45:24.413Z</time>
      </trkpt>
      <trkpt lat="45.64632" lon="4.71614">
        <ele>296</ele>
        <time>2015-10-18T08:45:25.374Z</time>
      </trkpt>
      <trkpt lat="45.64633" lon="4.71603">
        <ele>297</ele>
        <time>2015-10-18T08:45:29.411Z</time>
      </trkpt>
      <trkpt lat="45.64633" lon="4.71601">
        <ele>297</ele>
        <time>2015-10-18T08:45:30.372Z</time>
      </trkpt>
      <trkpt lat="45.64634" lon="4.7159">
        <ele>297</ele>
        <time>2015-10-18T08:45:34.408Z</time>
      </trkpt>
      <trkpt lat="45.64634" lon="4.71588">
        <ele>297</ele>
        <time>2015-10-18T08:45:35.373Z</time>
      </trkpt>
      <trkpt lat="45.64634" lon="4.71577">
        <ele>301</ele>
        <time>2015-10-18T08:45:39.422Z</time>
      </trkpt>
      <trkpt lat="45.64634" lon="4.71575">
        <ele>301</ele>
        <time>2015-10-18T08:45:40.385Z</time>
      </trkpt>
      <trkpt lat="45.64634" lon="4.71567">
        <ele>301</ele>
        <time>2015-10-18T08:45:43.407Z</time>
      </trkpt>
      <trkpt lat="45.64635" lon="4.71562">
        <ele>301</ele>
        <time>2015-10-18T08:45:44.372Z</time>
      </trkpt>
      <trkpt lat="45.64635" lon="4.7155">
        <ele>301</ele>
        <time>2015-10-18T08:45:49.399Z</time>
      </trkpt>
      <trkpt lat="45.64636" lon="4.71547">
        <ele>301</ele>
        <time>2015-10-18T08:45:50.370Z</time>
      </trkpt>
      <trkpt lat="45.64635" lon="4.71537">
        <ele>302</ele>
        <time>2015-10-18T08:45:54.379Z</time>
      </trkpt>
      <trkpt lat="45.64635" lon="4.71534">
        <ele>302</ele>
        <time>2015-10-18T08:45:55.371Z</time>
      </trkpt>
      <trkpt lat="45.64636" lon="4.71524">
        <ele>302</ele>
        <time>2015-10-18T08:45:59.375Z</time>
      </trkpt>
      <trkpt lat="45.64637" lon="4.71522">
        <ele>302</ele>
        <time>2015-10-18T08:46:00.373Z</time>
      </trkpt>
      <trkpt lat="45.64637" lon="4.71511">
        <ele>302</ele>
        <time>2015-10-18T08:46:03.373Z</time>
      </trkpt>
      <trkpt lat="45.64637" lon="4.71509">
        <ele>302</ele>
        <time>2015-10-18T08:46:04.375Z</time>
      </trkpt>
      <trkpt lat="45.64638" lon="4.71498">
        <ele>304</ele>
        <time>2015-10-18T08:46:07.375Z</time>
      </trkpt>
      <trkpt lat="45.64638" lon="4.71496">
        <ele>304</ele>
        <time>2015-10-18T08:46:08.363Z</time>
      </trkpt>
      <trkpt lat="45.64633" lon="4.71487">
        <ele>305</ele>
        <time>2015-10-18T08:46:12.378Z</time>
      </trkpt>
      <trkpt lat="45.64632" lon="4.71485">
        <ele>305</ele>
        <time>2015-10-18T08:46:13.363Z</time>
      </trkpt>
      <trkpt lat="45.64626" lon="4.71481">
        <ele>305</ele>
        <time>2015-10-18T08:46:16.401Z</time>
      </trkpt>
      <trkpt lat="45.64623" lon="4.71481">
        <ele>305</ele>
        <time>2015-10-18T08:46:17.354Z</time>
      </trkpt>
      <trkpt lat="45.64617" lon="4.71479">
        <ele>305</ele>
        <time>2015-10-18T08:46:20.444Z</time>
      </trkpt>
      <trkpt lat="45.64614" lon="4.71477">
        <ele>305</ele>
        <time>2015-10-18T08:46:21.356Z</time>
      </trkpt>
      <trkpt lat="45.64607" lon="4.71474">
        <ele>305</ele>
        <time>2015-10-18T08:46:25.396Z</time>
      </trkpt>
      <trkpt lat="45.64605" lon="4.71474">
        <ele>305</ele>
        <time>2015-10-18T08:46:26.359Z</time>
      </trkpt>
      <trkpt lat="45.64597" lon="4.71472">
        <ele>305</ele>
        <time>2015-10-18T08:46:29.368Z</time>
      </trkpt>
      <trkpt lat="45.64595" lon="4.7147">
        <ele>305</ele>
        <time>2015-10-18T08:46:30.351Z</time>
      </trkpt>
      <trkpt lat="45.64589" lon="4.71468">
        <ele>305</ele>
        <time>2015-10-18T08:46:34.388Z</time>
      </trkpt>
      <trkpt lat="45.64585" lon="4.71466">
        <ele>305</ele>
        <time>2015-10-18T08:46:35.366Z</time>
      </trkpt>
      <trkpt lat="45.64577" lon="4.71464">
        <ele>306</ele>
        <time>2015-10-18T08:46:39.394Z</time>
      </trkpt>
      <trkpt lat="45.64576" lon="4.71462">
        <ele>306</ele>
        <time>2015-10-18T08:46:40.365Z</time>
      </trkpt>
      <trkpt lat="45.64569" lon="4.71459">
        <ele>306</ele>
        <time>2015-10-18T08:46:44.411Z</time>
      </trkpt>
      <trkpt lat="45.64567" lon="4.71457">
        <ele>307</ele>
        <time>2015-10-18T08:46:45.371Z</time>
      </trkpt>
      <trkpt lat="45.64559" lon="4.71455">
        <ele>307</ele>
        <time>2015-10-18T08:46:49.411Z</time>
      </trkpt>
      <trkpt lat="45.64556" lon="4.71455">
        <ele>307</ele>
        <time>2015-10-18T08:46:50.402Z</time>
      </trkpt>
      <trkpt lat="45.6455" lon="4.71451">
        <ele>307</ele>
        <time>2015-10-18T08:46:54.444Z</time>
      </trkpt>
      <trkpt lat="45.64548" lon="4.71449">
        <ele>307</ele>
        <time>2015-10-18T08:46:55.398Z</time>
      </trkpt>
      <trkpt lat="45.64539" lon="4.71444">
        <ele>307</ele>
        <time>2015-10-18T08:46:59.409Z</time>
      </trkpt>
      <trkpt lat="45.64538" lon="4.71444">
        <ele>307</ele>
        <time>2015-10-18T08:47:00.387Z</time>
      </trkpt>
      <trkpt lat="45.64532" lon="4.71438">
        <ele>307</ele>
        <time>2015-10-18T08:47:04.435Z</time>
      </trkpt>
      <trkpt lat="45.64531" lon="4.71436">
        <ele>307</ele>
        <time>2015-10-18T08:47:05.411Z</time>
      </trkpt>
      <trkpt lat="45.6453" lon="4.71425">
        <ele>307</ele>
        <time>2015-10-18T08:47:10.444Z</time>
      </trkpt>
      <trkpt lat="45.64532" lon="4.71423">
        <ele>307</ele>
        <time>2015-10-18T08:47:11.395Z</time>
      </trkpt>
      <trkpt lat="45.64537" lon="4.71414">
        <ele>309</ele>
        <time>2015-10-18T08:47:15.429Z</time>
      </trkpt>
      <trkpt lat="45.64538" lon="4.71412">
        <ele>309</ele>
        <time>2015-10-18T08:47:16.392Z</time>
      </trkpt>
      <trkpt lat="45.64545" lon="4.71408">
        <ele>309</ele>
        <time>2015-10-18T08:47:19.411Z</time>
      </trkpt>
      <trkpt lat="45.64547" lon="4.71406">
        <ele>309</ele>
        <time>2015-10-18T08:47:20.384Z</time>
      </trkpt>
      <trkpt lat="45.64553" lon="4.71401">
        <ele>309</ele>
        <time>2015-10-18T08:47:24.431Z</time>
      </trkpt>
      <trkpt lat="45.64555" lon="4.71399">
        <ele>309</ele>
        <time>2015-10-18T08:47:25.389Z</time>
      </trkpt>
      <trkpt lat="45.64562" lon="4.71393">
        <ele>309</ele>
        <time>2015-10-18T08:47:29.547Z</time>
      </trkpt>
      <trkpt lat="45.64563" lon="4.71391">
        <ele>309</ele>
        <time>2015-10-18T08:47:30.388Z</time>
      </trkpt>
      <trkpt lat="45.64569" lon="4.71384">
        <ele>309</ele>
        <time>2015-10-18T08:47:34.441Z</time>
      </trkpt>
      <trkpt lat="45.64571" lon="4.71382">
        <ele>309</ele>
        <time>2015-10-18T08:47:35.388Z</time>
      </trkpt>
      <trkpt lat="45.64577" lon="4.71374">
        <ele>310</ele>
        <time>2015-10-18T08:47:39.530Z</time>
      </trkpt>
      <trkpt lat="45.64577" lon="4.71371">
        <ele>310</ele>
        <time>2015-10-18T08:47:40.379Z</time>
      </trkpt>
      <trkpt lat="45.64577" lon="4.71361">
        <ele>310</ele>
        <time>2015-10-18T08:47:44.413Z</time>
      </trkpt>
      <trkpt lat="45.64576" lon="4.71359">
        <ele>310</ele>
        <time>2015-10-18T08:47:45.390Z</time>
      </trkpt>
      <trkpt lat="45.64574" lon="4.71348">
        <ele>310</ele>
        <time>2015-10-18T08:47:49.407Z</time>
      </trkpt>
      <trkpt lat="45.64571" lon="4.71346">
        <ele>310</ele>
        <time>2015-10-18T08:47:50.380Z</time>
      </trkpt>
      <trkpt lat="45.64568" lon="4.71337">
        <ele>310</ele>
        <time>2015-10-18T08:47:54.404Z</time>
      </trkpt>
      <trkpt lat="45.64567" lon="4.71333">
        <ele>312</ele>
        <time>2015-10-18T08:47:55.368Z</time>
      </trkpt>
      <trkpt lat="45.64563" lon="4.71322">
        <ele>312</ele>
        <time>2015-10-18T08:47:59.409Z</time>
      </trkpt>
      <trkpt lat="45.64562" lon="4.71318">
        <ele>312</ele>
        <time>2015-10-18T08:48:00.401Z</time>
      </trkpt>
      <trkpt lat="45.64558" lon="4.71309">
        <ele>312</ele>
        <time>2015-10-18T08:48:04.414Z</time>
      </trkpt>
      <trkpt lat="45.64558" lon="4.71305">
        <ele>312</ele>
        <time>2015-10-18T08:48:05.364Z</time>
      </trkpt>
      <trkpt lat="45.64553" lon="4.71294">
        <ele>313</ele>
        <time>2015-10-18T08:48:09.411Z</time>
      </trkpt>
      <trkpt lat="45.64552" lon="4.71292">
        <ele>313</ele>
        <time>2015-10-18T08:48:10.377Z</time>
      </trkpt>
      <trkpt lat="45.64548" lon="4.71283">
        <ele>313</ele>
        <time>2015-10-18T08:48:14.420Z</time>
      </trkpt>
      <trkpt lat="45.64547" lon="4.71281">
        <ele>313</ele>
        <time>2015-10-18T08:48:15.390Z</time>
      </trkpt>
      <trkpt lat="45.64544" lon="4.71271">
        <ele>313</ele>
        <time>2015-10-18T08:48:19.416Z</time>
      </trkpt>
      <trkpt lat="45.64543" lon="4.71268">
        <ele>313</ele>
        <time>2015-10-18T08:48:20.389Z</time>
      </trkpt>
      <trkpt lat="45.64539" lon="4.71258">
        <ele>313</ele>
        <time>2015-10-18T08:48:24.434Z</time>
      </trkpt>
      <trkpt lat="45.64539" lon="4.71253">
        <ele>313</ele>
        <time>2015-10-18T08:48:25.402Z</time>
      </trkpt>
      <trkpt lat="45.64536" lon="4.71245">
        <ele>315</ele>
        <time>2015-10-18T08:48:29.428Z</time>
      </trkpt>
      <trkpt lat="45.64535" lon="4.71241">
        <ele>315</ele>
        <time>2015-10-18T08:48:30.394Z</time>
      </trkpt>
      <trkpt lat="45.64533" lon="4.71232">
        <ele>315</ele>
        <time>2015-10-18T08:48:34.417Z</time>
      </trkpt>
      <trkpt lat="45.64532" lon="4.71228">
        <ele>315</ele>
        <time>2015-10-18T08:48:35.392Z</time>
      </trkpt>
      <trkpt lat="45.64528" lon="4.71217">
        <ele>316</ele>
        <time>2015-10-18T08:48:39.433Z</time>
      </trkpt>
      <trkpt lat="45.64526" lon="4.71215">
        <ele>316</ele>
        <time>2015-10-18T08:48:40.391Z</time>
      </trkpt>
      <trkpt lat="45.64523" lon="4.71204">
        <ele>316</ele>
        <time>2015-10-18T08:48:44.428Z</time>
      </trkpt>
      <trkpt lat="45.64523" lon="4.712">
        <ele>316</ele>
        <time>2015-10-18T08:48:45.393Z</time>
      </trkpt>
      <trkpt lat="45.64518" lon="4.71191">
        <ele>316</ele>
        <time>2015-10-18T08:48:50.431Z</time>
      </trkpt>
      <trkpt lat="45.64517" lon="4.71189">
        <ele>317</ele>
        <time>2015-10-18T08:48:51.394Z</time>
      </trkpt>
      <trkpt lat="45.64512" lon="4.7118">
        <ele>317</ele>
        <time>2015-10-18T08:48:54.417Z</time>
      </trkpt>
      <trkpt lat="45.64511" lon="4.71178">
        <ele>317</ele>
        <time>2015-10-18T08:48:55.407Z</time>
      </trkpt>
      <trkpt lat="45.64506" lon="4.7117">
        <ele>318</ele>
        <time>2015-10-18T08:48:59.425Z</time>
      </trkpt>
      <trkpt lat="45.64505" lon="4.71168">
        <ele>318</ele>
        <time>2015-10-18T08:49:00.388Z</time>
      </trkpt>
      <trkpt lat="45.645" lon="4.71159">
        <ele>320</ele>
        <time>2015-10-18T08:49:04.426Z</time>
      </trkpt>
      <trkpt lat="45.64499" lon="4.71157">
        <ele>320</ele>
        <time>2015-10-18T08:49:05.382Z</time>
      </trkpt>
      <trkpt lat="45.64494" lon="4.71148">
        <ele>321</ele>
        <time>2015-10-18T08:49:09.418Z</time>
      </trkpt>
      <trkpt lat="45.64492" lon="4.71144">
        <ele>321</ele>
        <time>2015-10-18T08:49:10.410Z</time>
      </trkpt>
      <trkpt lat="45.64488" lon="4.71135">
        <ele>322</ele>
        <time>2015-10-18T08:49:14.431Z</time>
      </trkpt>
      <trkpt lat="45.64487" lon="4.71133">
        <ele>322</ele>
        <time>2015-10-18T08:49:15.388Z</time>
      </trkpt>
      <trkpt lat="45.64481" lon="4.71125">
        <ele>322</ele>
        <time>2015-10-18T08:49:19.421Z</time>
      </trkpt>
      <trkpt lat="45.6448" lon="4.71123">
        <ele>322</ele>
        <time>2015-10-18T08:49:20.408Z</time>
      </trkpt>
      <trkpt lat="45.64474" lon="4.71114">
        <ele>323</ele>
        <time>2015-10-18T08:49:26.413Z</time>
      </trkpt>
      <trkpt lat="45.64473" lon="4.71112">
        <ele>323</ele>
        <time>2015-10-18T08:49:27.394Z</time>
      </trkpt>
      <trkpt lat="45.64469" lon="4.7112">
        <ele>323</ele>
        <time>2015-10-18T08:50:19.429Z</time>
      </trkpt>
      <trkpt lat="45.64467" lon="4.71123">
        <ele>323</ele>
        <time>2015-10-18T08:50:20.397Z</time>
      </trkpt>
      <trkpt lat="45.64461" lon="4.71131">
        <ele>323</ele>
        <time>2015-10-18T08:50:39.423Z</time>
      </trkpt>
      <trkpt lat="45.6446" lon="4.71131">
        <ele>323</ele>
        <time>2015-10-18T08:50:40.402Z</time>
      </trkpt>
      <trkpt lat="45.64452" lon="4.71135">
        <ele>323</ele>
        <time>2015-10-18T08:52:34.417Z</time>
      </trkpt>
      <trkpt lat="45.64451" lon="4.71138">
        <ele>323</ele>
        <time>2015-10-18T08:52:35.394Z</time>
      </trkpt>
      <trkpt lat="45.64445" lon="4.71144">
        <ele>323</ele>
        <time>2015-10-18T08:52:39.423Z</time>
      </trkpt>
      <trkpt lat="45.64443" lon="4.71146">
        <ele>323</ele>
        <time>2015-10-18T08:52:40.390Z</time>
      </trkpt>
      <trkpt lat="45.64435" lon="4.71153">
        <ele>323</ele>
        <time>2015-10-18T08:52:43.428Z</time>
      </trkpt>
      <trkpt lat="45.64432" lon="4.71157">
        <ele>323</ele>
        <time>2015-10-18T08:52:44.388Z</time>
      </trkpt>
      <trkpt lat="45.64428" lon="4.71159">
        <ele>323</ele>
        <time>2015-10-18T08:52:45.425Z</time>
      </trkpt>
      <trkpt lat="45.64423" lon="4.71161">
        <ele>323</ele>
        <time>2015-10-18T08:52:46.384Z</time>
      </trkpt>
      <trkpt lat="45.64416" lon="4.71161">
        <ele>323</ele>
        <time>2015-10-18T08:52:48.406Z</time>
      </trkpt>
      <trkpt lat="45.64412" lon="4.71159">
        <ele>324</ele>
        <time>2015-10-18T08:52:49.375Z</time>
      </trkpt>
      <trkpt lat="45.64404" lon="4.71155">
        <ele>324</ele>
        <time>2015-10-18T08:52:51.438Z</time>
      </trkpt>
      <trkpt lat="45.64401" lon="4.7115">
        <ele>324</ele>
        <time>2015-10-18T08:52:52.387Z</time>
      </trkpt>
      <trkpt lat="45.64394" lon="4.71144">
        <ele>325</ele>
        <time>2015-10-18T08:52:54.419Z</time>
      </trkpt>
      <trkpt lat="45.64392" lon="4.7114">
        <ele>325</ele>
        <time>2015-10-18T08:52:55.387Z</time>
      </trkpt>
      <trkpt lat="45.64387" lon="4.71133">
        <ele>325</ele>
        <time>2015-10-18T08:52:57.425Z</time>
      </trkpt>
      <trkpt lat="45.64384" lon="4.71129">
        <ele>325</ele>
        <time>2015-10-18T08:52:58.389Z</time>
      </trkpt>
      <trkpt lat="45.64376" lon="4.71123">
        <ele>326</ele>
        <time>2015-10-18T08:53:01.420Z</time>
      </trkpt>
      <trkpt lat="45.64374" lon="4.7112">
        <ele>326</ele>
        <time>2015-10-18T08:53:02.391Z</time>
      </trkpt>
      <trkpt lat="45.64367" lon="4.71114">
        <ele>326</ele>
        <time>2015-10-18T08:53:05.423Z</time>
      </trkpt>
      <trkpt lat="45.64363" lon="4.71114">
        <ele>326</ele>
        <time>2015-10-18T08:53:06.392Z</time>
      </trkpt>
      <trkpt lat="45.64357" lon="4.71112">
        <ele>326</ele>
        <time>2015-10-18T08:53:08.420Z</time>
      </trkpt>
      <trkpt lat="45.64353" lon="4.71112">
        <ele>326</ele>
        <time>2015-10-18T08:53:09.382Z</time>
      </trkpt>
      <trkpt lat="45.64345" lon="4.7111">
        <ele>326</ele>
        <time>2015-10-18T08:53:11.427Z</time>
      </trkpt>
      <trkpt lat="45.64342" lon="4.7111">
        <ele>327</ele>
        <time>2015-10-18T08:53:12.397Z</time>
      </trkpt>
      <trkpt lat="45.64334" lon="4.7111">
        <ele>327</ele>
        <time>2015-10-18T08:53:15.414Z</time>
      </trkpt>
      <trkpt lat="45.6433" lon="4.71107">
        <ele>327</ele>
        <time>2015-10-18T08:53:16.384Z</time>
      </trkpt>
      <trkpt lat="45.64324" lon="4.71105">
        <ele>328</ele>
        <time>2015-10-18T08:53:18.417Z</time>
      </trkpt>
      <trkpt lat="45.6432" lon="4.71105">
        <ele>327</ele>
        <time>2015-10-18T08:53:19.385Z</time>
      </trkpt>
      <trkpt lat="45.64312" lon="4.71103">
        <ele>327</ele>
        <time>2015-10-18T08:53:22.396Z</time>
      </trkpt>
      <trkpt lat="45.64309" lon="4.71101">
        <ele>328</ele>
        <time>2015-10-18T08:53:23.387Z</time>
      </trkpt>
      <trkpt lat="45.64302" lon="4.71101">
        <ele>327</ele>
        <time>2015-10-18T08:53:25.412Z</time>
      </trkpt>
      <trkpt lat="45.64299" lon="4.71099">
        <ele>328</ele>
        <time>2015-10-18T08:53:26.376Z</time>
      </trkpt>
      <trkpt lat="45.64293" lon="4.71097">
        <ele>328</ele>
        <time>2015-10-18T08:53:28.387Z</time>
      </trkpt>
      <trkpt lat="45.64289" lon="4.71097">
        <ele>328</ele>
        <time>2015-10-18T08:53:29.378Z</time>
      </trkpt>
      <trkpt lat="45.64281" lon="4.71097">
        <ele>328</ele>
        <time>2015-10-18T08:53:32.419Z</time>
      </trkpt>
      <trkpt lat="45.64278" lon="4.71099">
        <ele>328</ele>
        <time>2015-10-18T08:53:33.389Z</time>
      </trkpt>
      <trkpt lat="45.6427" lon="4.71097">
        <ele>328</ele>
        <time>2015-10-18T08:53:36.419Z</time>
      </trkpt>
      <trkpt lat="45.64267" lon="4.71097">
        <ele>328</ele>
        <time>2015-10-18T08:53:37.408Z</time>
      </trkpt>
      <trkpt lat="45.64258" lon="4.71097">
        <ele>328</ele>
        <time>2015-10-18T08:53:39.428Z</time>
      </trkpt>
      <trkpt lat="45.64255" lon="4.71097">
        <ele>329</ele>
        <time>2015-10-18T08:53:40.386Z</time>
      </trkpt>
      <trkpt lat="45.64249" lon="4.71099">
        <ele>329</ele>
        <time>2015-10-18T08:53:42.428Z</time>
      </trkpt>
      <trkpt lat="45.64245" lon="4.71099">
        <ele>329</ele>
        <time>2015-10-18T08:53:43.394Z</time>
      </trkpt>
      <trkpt lat="45.64239" lon="4.71101">
        <ele>329</ele>
        <time>2015-10-18T08:53:45.434Z</time>
      </trkpt>
      <trkpt lat="45.64236" lon="4.71101">
        <ele>329</ele>
        <time>2015-10-18T08:53:46.389Z</time>
      </trkpt>
      <trkpt lat="45.64227" lon="4.71099">
        <ele>329</ele>
        <time>2015-10-18T08:53:49.425Z</time>
      </trkpt>
      <trkpt lat="45.64224" lon="4.71099">
        <ele>329</ele>
        <time>2015-10-18T08:53:50.409Z</time>
      </trkpt>
      <trkpt lat="45.64217" lon="4.71099">
        <ele>329</ele>
        <time>2015-10-18T08:53:52.423Z</time>
      </trkpt>
      <trkpt lat="45.64214" lon="4.71099">
        <ele>329</ele>
        <time>2015-10-18T08:53:53.388Z</time>
      </trkpt>
      <trkpt lat="45.64209" lon="4.71099">
        <ele>329</ele>
        <time>2015-10-18T08:53:55.412Z</time>
      </trkpt>
      <trkpt lat="45.64205" lon="4.71097">
        <ele>329</ele>
        <time>2015-10-18T08:53:56.373Z</time>
      </trkpt>
      <trkpt lat="45.64196" lon="4.71095">
        <ele>329</ele>
        <time>2015-10-18T08:53:59.430Z</time>
      </trkpt>
      <trkpt lat="45.64193" lon="4.71092">
        <ele>329</ele>
        <time>2015-10-18T08:54:00.373Z</time>
      </trkpt>
      <trkpt lat="45.64186" lon="4.7109">
        <ele>330</ele>
        <time>2015-10-18T08:54:02.418Z</time>
      </trkpt>
      <trkpt lat="45.64183" lon="4.71088">
        <ele>330</ele>
        <time>2015-10-18T08:54:03.385Z</time>
      </trkpt>
      <trkpt lat="45.64177" lon="4.71086">
        <ele>331</ele>
        <time>2015-10-18T08:54:05.409Z</time>
      </trkpt>
      <trkpt lat="45.64175" lon="4.71084">
        <ele>331</ele>
        <time>2015-10-18T08:54:06.390Z</time>
      </trkpt>
      <trkpt lat="45.64166" lon="4.71084">
        <ele>332</ele>
        <time>2015-10-18T08:54:09.419Z</time>
      </trkpt>
      <trkpt lat="45.64163" lon="4.71082">
        <ele>333</ele>
        <time>2015-10-18T08:54:10.406Z</time>
      </trkpt>
      <trkpt lat="45.64156" lon="4.71082">
        <ele>333</ele>
        <time>2015-10-18T08:54:12.417Z</time>
      </trkpt>
      <trkpt lat="45.64153" lon="4.71082">
        <ele>333</ele>
        <time>2015-10-18T08:54:13.395Z</time>
      </trkpt>
      <trkpt lat="45.64147" lon="4.71082">
        <ele>334</ele>
        <time>2015-10-18T08:54:15.412Z</time>
      </trkpt>
      <trkpt lat="45.64143" lon="4.71082">
        <ele>334</ele>
        <time>2015-10-18T08:54:16.388Z</time>
      </trkpt>
      <trkpt lat="45.64135" lon="4.7108">
        <ele>334</ele>
        <time>2015-10-18T08:54:19.420Z</time>
      </trkpt>
      <trkpt lat="45.64133" lon="4.71077">
        <ele>334</ele>
        <time>2015-10-18T08:54:20.391Z</time>
      </trkpt>
      <trkpt lat="45.64124" lon="4.71075">
        <ele>334</ele>
        <time>2015-10-18T08:54:23.408Z</time>
      </trkpt>
      <trkpt lat="45.64121" lon="4.71075">
        <ele>334</ele>
        <time>2015-10-18T08:54:24.414Z</time>
      </trkpt>
      <trkpt lat="45.64112" lon="4.71073">
        <ele>334</ele>
        <time>2015-10-18T08:54:27.425Z</time>
      </trkpt>
      <trkpt lat="45.6411" lon="4.71071">
        <ele>334</ele>
        <time>2015-10-18T08:54:28.385Z</time>
      </trkpt>
      <trkpt lat="45.64103" lon="4.71069">
        <ele>334</ele>
        <time>2015-10-18T08:54:31.413Z</time>
      </trkpt>
      <trkpt lat="45.64099" lon="4.71067">
        <ele>334</ele>
        <time>2015-10-18T08:54:32.391Z</time>
      </trkpt>
      <trkpt lat="45.64092" lon="4.71065">
        <ele>334</ele>
        <time>2015-10-18T08:54:34.430Z</time>
      </trkpt>
      <trkpt lat="45.64087" lon="4.71062">
        <ele>334</ele>
        <time>2015-10-18T08:54:35.392Z</time>
      </trkpt>
      <trkpt lat="45.64078" lon="4.7106">
        <ele>333</ele>
        <time>2015-10-18T08:54:37.414Z</time>
      </trkpt>
      <trkpt lat="45.64073" lon="4.7106">
        <ele>333</ele>
        <time>2015-10-18T08:54:38.391Z</time>
      </trkpt>
      <trkpt lat="45.64067" lon="4.71058">
        <ele>333</ele>
        <time>2015-10-18T08:54:39.416Z</time>
      </trkpt>
      <trkpt lat="45.64062" lon="4.71056">
        <ele>333</ele>
        <time>2015-10-18T08:54:40.388Z</time>
      </trkpt>
      <trkpt lat="45.64058" lon="4.71054">
        <ele>333</ele>
        <time>2015-10-18T08:54:41.408Z</time>
      </trkpt>
      <trkpt lat="45.64052" lon="4.71054">
        <ele>333</ele>
        <time>2015-10-18T08:54:42.391Z</time>
      </trkpt>
      <trkpt lat="45.64047" lon="4.71052">
        <ele>333</ele>
        <time>2015-10-18T08:54:43.421Z</time>
      </trkpt>
      <trkpt lat="45.64043" lon="4.7105">
        <ele>333</ele>
        <time>2015-10-18T08:54:44.393Z</time>
      </trkpt>
      <trkpt lat="45.64038" lon="4.71047">
        <ele>333</ele>
        <time>2015-10-18T08:54:45.409Z</time>
      </trkpt>
      <trkpt lat="45.64033" lon="4.71045">
        <ele>333</ele>
        <time>2015-10-18T08:54:46.374Z</time>
      </trkpt>
      <trkpt lat="45.64025" lon="4.71041">
        <ele>333</ele>
        <time>2015-10-18T08:54:48.418Z</time>
      </trkpt>
      <trkpt lat="45.64022" lon="4.71039">
        <ele>333</ele>
        <time>2015-10-18T08:54:49.378Z</time>
      </trkpt>
      <trkpt lat="45.64018" lon="4.71037">
        <ele>333</ele>
        <time>2015-10-18T08:54:50.389Z</time>
      </trkpt>
      <trkpt lat="45.64014" lon="4.71035">
        <ele>333</ele>
        <time>2015-10-18T08:54:51.376Z</time>
      </trkpt>
      <trkpt lat="45.64009" lon="4.71032">
        <ele>334</ele>
        <time>2015-10-18T08:54:52.393Z</time>
      </trkpt>
      <trkpt lat="45.64005" lon="4.7103">
        <ele>334</ele>
        <time>2015-10-18T08:54:53.375Z</time>
      </trkpt>
      <trkpt lat="45.63998" lon="4.71026">
        <ele>334</ele>
        <time>2015-10-18T08:54:55.423Z</time>
      </trkpt>
      <trkpt lat="45.63994" lon="4.71024">
        <ele>334</ele>
        <time>2015-10-18T08:54:56.394Z</time>
      </trkpt>
      <trkpt lat="45.63988" lon="4.7102">
        <ele>334</ele>
        <time>2015-10-18T08:54:58.419Z</time>
      </trkpt>
      <trkpt lat="45.63985" lon="4.71017">
        <ele>334</ele>
        <time>2015-10-18T08:54:59.386Z</time>
      </trkpt>
      <trkpt lat="45.63985" lon="4.71009">
        <ele>334</ele>
        <time>2015-10-18T08:55:02.414Z</time>
      </trkpt>
      <trkpt lat="45.63986" lon="4.71004">
        <ele>334</ele>
        <time>2015-10-18T08:55:03.374Z</time>
      </trkpt>
      <trkpt lat="45.63991" lon="4.70998">
        <ele>335</ele>
        <time>2015-10-18T08:55:06.422Z</time>
      </trkpt>
      <trkpt lat="45.63993" lon="4.70994">
        <ele>335</ele>
        <time>2015-10-18T08:55:07.385Z</time>
      </trkpt>
      <trkpt lat="45.63999" lon="4.70985">
        <ele>336</ele>
        <time>2015-10-18T08:55:10.407Z</time>
      </trkpt>
      <trkpt lat="45.64001" lon="4.70981">
        <ele>337</ele>
        <time>2015-10-18T08:55:11.385Z</time>
      </trkpt>
      <trkpt lat="45.64007" lon="4.70972">
        <ele>337</ele>
        <time>2015-10-18T08:55:15.406Z</time>
      </trkpt>
      <trkpt lat="45.64009" lon="4.7097">
        <ele>337</ele>
        <time>2015-10-18T08:55:16.377Z</time>
      </trkpt>
      <trkpt lat="45.64015" lon="4.70962">
        <ele>338</ele>
        <time>2015-10-18T08:55:21.401Z</time>
      </trkpt>
      <trkpt lat="45.64017" lon="4.70959">
        <ele>338</ele>
        <time>2015-10-18T08:55:22.377Z</time>
      </trkpt>
      <trkpt lat="45.64022" lon="4.70951">
        <ele>338</ele>
        <time>2015-10-18T08:55:26.426Z</time>
      </trkpt>
      <trkpt lat="45.64023" lon="4.70949">
        <ele>338</ele>
        <time>2015-10-18T08:55:27.388Z</time>
      </trkpt>
      <trkpt lat="45.64029" lon="4.70942">
        <ele>338</ele>
        <time>2015-10-18T08:55:30.418Z</time>
      </trkpt>
      <trkpt lat="45.64031" lon="4.7094">
        <ele>339</ele>
        <time>2015-10-18T08:55:31.372Z</time>
      </trkpt>
      <trkpt lat="45.64037" lon="4.70932">
        <ele>339</ele>
        <time>2015-10-18T08:55:36.415Z</time>
      </trkpt>
      <trkpt lat="45.64038" lon="4.70929">
        <ele>339</ele>
        <time>2015-10-18T08:55:37.362Z</time>
      </trkpt>
      <trkpt lat="45.64043" lon="4.70921">
        <ele>339</ele>
        <time>2015-10-18T08:55:41.415Z</time>
      </trkpt>
      <trkpt lat="45.64044" lon="4.70917">
        <ele>341</ele>
        <time>2015-10-18T08:55:42.380Z</time>
      </trkpt>
      <trkpt lat="45.6405" lon="4.7091">
        <ele>341</ele>
        <time>2015-10-18T08:55:46.408Z</time>
      </trkpt>
      <trkpt lat="45.64051" lon="4.70908">
        <ele>341</ele>
        <time>2015-10-18T08:55:47.378Z</time>
      </trkpt>
      <trkpt lat="45.64057" lon="4.70901">
        <ele>342</ele>
        <time>2015-10-18T08:55:50.397Z</time>
      </trkpt>
      <trkpt lat="45.64059" lon="4.70899">
        <ele>342</ele>
        <time>2015-10-18T08:55:51.381Z</time>
      </trkpt>
      <trkpt lat="45.64064" lon="4.70891">
        <ele>342</ele>
        <time>2015-10-18T08:55:56.413Z</time>
      </trkpt>
      <trkpt lat="45.64066" lon="4.70886">
        <ele>342</ele>
        <time>2015-10-18T08:55:57.384Z</time>
      </trkpt>
      <trkpt lat="45.64073" lon="4.70878">
        <ele>342</ele>
        <time>2015-10-18T08:56:01.399Z</time>
      </trkpt>
      <trkpt lat="45.64074" lon="4.70878">
        <ele>342</ele>
        <time>2015-10-18T08:56:02.374Z</time>
      </trkpt>
      <trkpt lat="45.6408" lon="4.70871">
        <ele>342</ele>
        <time>2015-10-18T08:56:06.411Z</time>
      </trkpt>
      <trkpt lat="45.64081" lon="4.70869">
        <ele>342</ele>
        <time>2015-10-18T08:56:07.408Z</time>
      </trkpt>
      <trkpt lat="45.64089" lon="4.70863">
        <ele>344</ele>
        <time>2015-10-18T08:56:11.421Z</time>
      </trkpt>
      <trkpt lat="45.64091" lon="4.70863">
        <ele>344</ele>
        <time>2015-10-18T08:56:12.377Z</time>
      </trkpt>
      <trkpt lat="45.64097" lon="4.70856">
        <ele>344</ele>
        <time>2015-10-18T08:56:16.415Z</time>
      </trkpt>
      <trkpt lat="45.64098" lon="4.70854">
        <ele>344</ele>
        <time>2015-10-18T08:56:17.391Z</time>
      </trkpt>
      <trkpt lat="45.64102" lon="4.70844">
        <ele>344</ele>
        <time>2015-10-18T08:56:20.419Z</time>
      </trkpt>
      <trkpt lat="45.64102" lon="4.70839">
        <ele>344</ele>
        <time>2015-10-18T08:56:21.378Z</time>
      </trkpt>
      <trkpt lat="45.64097" lon="4.70831">
        <ele>345</ele>
        <time>2015-10-18T08:56:24.407Z</time>
      </trkpt>
      <trkpt lat="45.64095" lon="4.70829">
        <ele>345</ele>
        <time>2015-10-18T08:56:25.384Z</time>
      </trkpt>
      <trkpt lat="45.64089" lon="4.70822">
        <ele>345</ele>
        <time>2015-10-18T08:56:29.418Z</time>
      </trkpt>
      <trkpt lat="45.64088" lon="4.70818">
        <ele>345</ele>
        <time>2015-10-18T08:56:30.405Z</time>
      </trkpt>
      <trkpt lat="45.64082" lon="4.70811">
        <ele>344</ele>
        <time>2015-10-18T08:56:32.424Z</time>
      </trkpt>
      <trkpt lat="45.6408" lon="4.70807">
        <ele>344</ele>
        <time>2015-10-18T08:56:33.390Z</time>
      </trkpt>
      <trkpt lat="45.64075" lon="4.70803">
        <ele>344</ele>
        <time>2015-10-18T08:56:35.420Z</time>
      </trkpt>
      <trkpt lat="45.64073" lon="4.70798">
        <ele>344</ele>
        <time>2015-10-18T08:56:36.389Z</time>
      </trkpt>
      <trkpt lat="45.64068" lon="4.70792">
        <ele>344</ele>
        <time>2015-10-18T08:56:38.427Z</time>
      </trkpt>
      <trkpt lat="45.64065" lon="4.7079">
        <ele>344</ele>
        <time>2015-10-18T08:56:39.392Z</time>
      </trkpt>
      <trkpt lat="45.6406" lon="4.70783">
        <ele>344</ele>
        <time>2015-10-18T08:56:41.433Z</time>
      </trkpt>
      <trkpt lat="45.64058" lon="4.70781">
        <ele>344</ele>
        <time>2015-10-18T08:56:42.400Z</time>
      </trkpt>
      <trkpt lat="45.64052" lon="4.70775">
        <ele>344</ele>
        <time>2015-10-18T08:56:44.416Z</time>
      </trkpt>
      <trkpt lat="45.64049" lon="4.70773">
        <ele>344</ele>
        <time>2015-10-18T08:56:45.380Z</time>
      </trkpt>
      <trkpt lat="45.64044" lon="4.70766">
        <ele>344</ele>
        <time>2015-10-18T08:56:47.414Z</time>
      </trkpt>
      <trkpt lat="45.64041" lon="4.70762">
        <ele>344</ele>
        <time>2015-10-18T08:56:48.384Z</time>
      </trkpt>
      <trkpt lat="45.64035" lon="4.70756">
        <ele>344</ele>
        <time>2015-10-18T08:56:50.436Z</time>
      </trkpt>
      <trkpt lat="45.64032" lon="4.70751">
        <ele>344</ele>
        <time>2015-10-18T08:56:51.383Z</time>
      </trkpt>
      <trkpt lat="45.64026" lon="4.70745">
        <ele>345</ele>
        <time>2015-10-18T08:56:53.423Z</time>
      </trkpt>
      <trkpt lat="45.64023" lon="4.70743">
        <ele>344</ele>
        <time>2015-10-18T08:56:54.409Z</time>
      </trkpt>
      <trkpt lat="45.64019" lon="4.70736">
        <ele>344</ele>
        <time>2015-10-18T08:56:56.416Z</time>
      </trkpt>
      <trkpt lat="45.64016" lon="4.70732">
        <ele>344</ele>
        <time>2015-10-18T08:56:57.383Z</time>
      </trkpt>
      <trkpt lat="45.6401" lon="4.70726">
        <ele>344</ele>
        <time>2015-10-18T08:56:59.417Z</time>
      </trkpt>
      <trkpt lat="45.64007" lon="4.70723">
        <ele>344</ele>
        <time>2015-10-18T08:57:00.385Z</time>
      </trkpt>
      <trkpt lat="45.64003" lon="4.70715">
        <ele>345</ele>
        <time>2015-10-18T08:57:02.423Z</time>
      </trkpt>
      <trkpt lat="45.64001" lon="4.70713">
        <ele>345</ele>
        <time>2015-10-18T08:57:03.389Z</time>
      </trkpt>
      <trkpt lat="45.63995" lon="4.70706">
        <ele>343</ele>
        <time>2015-10-18T08:57:05.417Z</time>
      </trkpt>
      <trkpt lat="45.63993" lon="4.70704">
        <ele>343</ele>
        <time>2015-10-18T08:57:06.384Z</time>
      </trkpt>
      <trkpt lat="45.63988" lon="4.70695">
        <ele>343</ele>
        <time>2015-10-18T08:57:08.425Z</time>
      </trkpt>
      <trkpt lat="45.63985" lon="4.70693">
        <ele>343</ele>
        <time>2015-10-18T08:57:09.386Z</time>
      </trkpt>
      <trkpt lat="45.63979" lon="4.70685">
        <ele>343</ele>
        <time>2015-10-18T08:57:12.447Z</time>
      </trkpt>
      <trkpt lat="45.63977" lon="4.7068">
        <ele>343</ele>
        <time>2015-10-18T08:57:13.389Z</time>
      </trkpt>
      <trkpt lat="45.63971" lon="4.70674">
        <ele>342</ele>
        <time>2015-10-18T08:57:17.412Z</time>
      </trkpt>
      <trkpt lat="45.63969" lon="4.70674">
        <ele>342</ele>
        <time>2015-10-18T08:57:18.407Z</time>
      </trkpt>
      <trkpt lat="45.63962" lon="4.70676">
        <ele>342</ele>
        <time>2015-10-18T08:57:23.441Z</time>
      </trkpt>
      <trkpt lat="45.6396" lon="4.70678">
        <ele>342</ele>
        <time>2015-10-18T08:57:24.387Z</time>
      </trkpt>
      <trkpt lat="45.63952" lon="4.70683">
        <ele>342</ele>
        <time>2015-10-18T08:57:34.424Z</time>
      </trkpt>
      <trkpt lat="45.63951" lon="4.70685">
        <ele>342</ele>
        <time>2015-10-18T08:57:35.407Z</time>
      </trkpt>
      <trkpt lat="45.63944" lon="4.70689">
        <ele>342</ele>
        <time>2015-10-18T09:14:46.395Z</time>
      </trkpt>
      <trkpt lat="45.63943" lon="4.70691">
        <ele>342</ele>
        <time>2015-10-18T09:14:47.363Z</time>
      </trkpt>
      <trkpt lat="45.63935" lon="4.70698">
        <ele>342</ele>
        <time>2015-10-18T09:14:51.403Z</time>
      </trkpt>
      <trkpt lat="45.63933" lon="4.70698">
        <ele>341</ele>
        <time>2015-10-18T09:14:52.365Z</time>
      </trkpt>
      <trkpt lat="45.63926" lon="4.70702">
        <ele>341</ele>
        <time>2015-10-18T09:14:55.382Z</time>
      </trkpt>
      <trkpt lat="45.63922" lon="4.70704">
        <ele>341</ele>
        <time>2015-10-18T09:14:56.362Z</time>
      </trkpt>
      <trkpt lat="45.63918" lon="4.70708">
        <ele>341</ele>
        <time>2015-10-18T09:14:58.401Z</time>
      </trkpt>
      <trkpt lat="45.63915" lon="4.70713">
        <ele>340</ele>
        <time>2015-10-18T09:14:59.369Z</time>
      </trkpt>
      <trkpt lat="45.63908" lon="4.70719">
        <ele>340</ele>
        <time>2015-10-18T09:15:01.402Z</time>
      </trkpt>
      <trkpt lat="45.63905" lon="4.70723">
        <ele>340</ele>
        <time>2015-10-18T09:15:02.363Z</time>
      </trkpt>
      <trkpt lat="45.63902" lon="4.70728">
        <ele>340</ele>
        <time>2015-10-18T09:15:03.394Z</time>
      </trkpt>
      <trkpt lat="45.63899" lon="4.70734">
        <ele>341</ele>
        <time>2015-10-18T09:15:04.357Z</time>
      </trkpt>
      <trkpt lat="45.63896" lon="4.70738">
        <ele>341</ele>
        <time>2015-10-18T09:15:05.401Z</time>
      </trkpt>
      <trkpt lat="45.63892" lon="4.70745">
        <ele>341</ele>
        <time>2015-10-18T09:15:06.379Z</time>
      </trkpt>
      <trkpt lat="45.63886" lon="4.70753">
        <ele>340</ele>
        <time>2015-10-18T09:15:08.399Z</time>
      </trkpt>
      <trkpt lat="45.63884" lon="4.7076">
        <ele>340</ele>
        <time>2015-10-18T09:15:09.363Z</time>
      </trkpt>
      <trkpt lat="45.63881" lon="4.70764">
        <ele>340</ele>
        <time>2015-10-18T09:15:10.380Z</time>
      </trkpt>
      <trkpt lat="45.63878" lon="4.70771">
        <ele>340</ele>
        <time>2015-10-18T09:15:11.363Z</time>
      </trkpt>
      <trkpt lat="45.63872" lon="4.70779">
        <ele>340</ele>
        <time>2015-10-18T09:15:13.408Z</time>
      </trkpt>
      <trkpt lat="45.63869" lon="4.70786">
        <ele>340</ele>
        <time>2015-10-18T09:15:14.360Z</time>
      </trkpt>
      <trkpt lat="45.63867" lon="4.7079">
        <ele>340</ele>
        <time>2015-10-18T09:15:15.403Z</time>
      </trkpt>
      <trkpt lat="45.63863" lon="4.70796">
        <ele>340</ele>
        <time>2015-10-18T09:15:16.361Z</time>
      </trkpt>
      <trkpt lat="45.63858" lon="4.70805">
        <ele>340</ele>
        <time>2015-10-18T09:15:18.418Z</time>
      </trkpt>
      <trkpt lat="45.63856" lon="4.70811">
        <ele>340</ele>
        <time>2015-10-18T09:15:19.371Z</time>
      </trkpt>
      <trkpt lat="45.63853" lon="4.70816">
        <ele>339</ele>
        <time>2015-10-18T09:15:20.394Z</time>
      </trkpt>
      <trkpt lat="45.63851" lon="4.70822">
        <ele>339</ele>
        <time>2015-10-18T09:15:21.366Z</time>
      </trkpt>
      <trkpt lat="45.63848" lon="4.70829">
        <ele>339</ele>
        <time>2015-10-18T09:15:22.404Z</time>
      </trkpt>
      <trkpt lat="45.63845" lon="4.70833">
        <ele>339</ele>
        <time>2015-10-18T09:15:23.363Z</time>
      </trkpt>
      <trkpt lat="45.63842" lon="4.70839">
        <ele>339</ele>
        <time>2015-10-18T09:15:24.391Z</time>
      </trkpt>
      <trkpt lat="45.63839" lon="4.70844">
        <ele>339</ele>
        <time>2015-10-18T09:15:25.363Z</time>
      </trkpt>
      <trkpt lat="45.63833" lon="4.70852">
        <ele>338</ele>
        <time>2015-10-18T09:15:27.392Z</time>
      </trkpt>
      <trkpt lat="45.63829" lon="4.70859">
        <ele>338</ele>
        <time>2015-10-18T09:15:28.364Z</time>
      </trkpt>
      <trkpt lat="45.63825" lon="4.70863">
        <ele>338</ele>
        <time>2015-10-18T09:15:29.393Z</time>
      </trkpt>
      <trkpt lat="45.63822" lon="4.70867">
        <ele>338</ele>
        <time>2015-10-18T09:15:30.363Z</time>
      </trkpt>
      <trkpt lat="45.63815" lon="4.70876">
        <ele>338</ele>
        <time>2015-10-18T09:15:32.396Z</time>
      </trkpt>
      <trkpt lat="45.63811" lon="4.70882">
        <ele>338</ele>
        <time>2015-10-18T09:15:33.360Z</time>
      </trkpt>
      <trkpt lat="45.63804" lon="4.70891">
        <ele>338</ele>
        <time>2015-10-18T09:15:35.406Z</time>
      </trkpt>
      <trkpt lat="45.63801" lon="4.70893">
        <ele>338</ele>
        <time>2015-10-18T09:15:36.358Z</time>
      </trkpt>
      <trkpt lat="45.63799" lon="4.70899">
        <ele>338</ele>
        <time>2015-10-18T09:15:37.393Z</time>
      </trkpt>
      <trkpt lat="45.63796" lon="4.70904">
        <ele>338</ele>
        <time>2015-10-18T09:15:38.362Z</time>
      </trkpt>
      <trkpt lat="45.63789" lon="4.70912">
        <ele>338</ele>
        <time>2015-10-18T09:15:40.404Z</time>
      </trkpt>
      <trkpt lat="45.63786" lon="4.70917">
        <ele>338</ele>
        <time>2015-10-18T09:15:41.361Z</time>
      </trkpt>
      <trkpt lat="45.63783" lon="4.70921">
        <ele>337</ele>
        <time>2015-10-18T09:15:42.397Z</time>
      </trkpt>
      <trkpt lat="45.6378" lon="4.70927">
        <ele>337</ele>
        <time>2015-10-18T09:15:43.368Z</time>
      </trkpt>
      <trkpt lat="45.63773" lon="4.70936">
        <ele>337</ele>
        <time>2015-10-18T09:15:45.393Z</time>
      </trkpt>
      <trkpt lat="45.6377" lon="4.7094">
        <ele>337</ele>
        <time>2015-10-18T09:15:46.367Z</time>
      </trkpt>
      <trkpt lat="45.63766" lon="4.70947">
        <ele>337</ele>
        <time>2015-10-18T09:15:47.387Z</time>
      </trkpt>
      <trkpt lat="45.63761" lon="4.70953">
        <ele>337</ele>
        <time>2015-10-18T09:15:48.366Z</time>
      </trkpt>
      <trkpt lat="45.63758" lon="4.70959">
        <ele>337</ele>
        <time>2015-10-18T09:15:49.397Z</time>
      </trkpt>
      <trkpt lat="45.63754" lon="4.70964">
        <ele>337</ele>
        <time>2015-10-18T09:15:50.363Z</time>
      </trkpt>
      <trkpt lat="45.63751" lon="4.7097">
        <ele>337</ele>
        <time>2015-10-18T09:15:51.402Z</time>
      </trkpt>
      <trkpt lat="45.63748" lon="4.70974">
        <ele>336</ele>
        <time>2015-10-18T09:15:52.362Z</time>
      </trkpt>
      <trkpt lat="45.63743" lon="4.70981">
        <ele>336</ele>
        <time>2015-10-18T09:15:53.389Z</time>
      </trkpt>
      <trkpt lat="45.6374" lon="4.70985">
        <ele>336</ele>
        <time>2015-10-18T09:15:54.365Z</time>
      </trkpt>
      <trkpt lat="45.63738" lon="4.70989">
        <ele>336</ele>
        <time>2015-10-18T09:15:55.398Z</time>
      </trkpt>
      <trkpt lat="45.63734" lon="4.70996">
        <ele>336</ele>
        <time>2015-10-18T09:15:56.355Z</time>
      </trkpt>
      <trkpt lat="45.6373" lon="4.71002">
        <ele>336</ele>
        <time>2015-10-18T09:15:57.394Z</time>
      </trkpt>
      <trkpt lat="45.63727" lon="4.71007">
        <ele>336</ele>
        <time>2015-10-18T09:15:58.365Z</time>
      </trkpt>
      <trkpt lat="45.63724" lon="4.71011">
        <ele>336</ele>
        <time>2015-10-18T09:15:59.383Z</time>
      </trkpt>
      <trkpt lat="45.6372" lon="4.71015">
        <ele>336</ele>
        <time>2015-10-18T09:16:00.371Z</time>
      </trkpt>
      <trkpt lat="45.63714" lon="4.71024">
        <ele>336</ele>
        <time>2015-10-18T09:16:02.390Z</time>
      </trkpt>
      <trkpt lat="45.63711" lon="4.7103">
        <ele>336</ele>
        <time>2015-10-18T09:16:03.365Z</time>
      </trkpt>
      <trkpt lat="45.63706" lon="4.71037">
        <ele>336</ele>
        <time>2015-10-18T09:16:05.394Z</time>
      </trkpt>
      <trkpt lat="45.63702" lon="4.71041">
        <ele>336</ele>
        <time>2015-10-18T09:16:06.381Z</time>
      </trkpt>
      <trkpt lat="45.63696" lon="4.71041">
        <ele>336</ele>
        <time>2015-10-18T09:16:08.388Z</time>
      </trkpt>
      <trkpt lat="45.63693" lon="4.71039">
        <ele>336</ele>
        <time>2015-10-18T09:16:09.362Z</time>
      </trkpt>
      <trkpt lat="45.6369" lon="4.7103">
        <ele>336</ele>
        <time>2015-10-18T09:16:11.397Z</time>
      </trkpt>
      <trkpt lat="45.63687" lon="4.71024">
        <ele>336</ele>
        <time>2015-10-18T09:16:12.363Z</time>
      </trkpt>
      <trkpt lat="45.63687" lon="4.71017">
        <ele>336</ele>
        <time>2015-10-18T09:16:13.395Z</time>
      </trkpt>
      <trkpt lat="45.63689" lon="4.71011">
        <ele>336</ele>
        <time>2015-10-18T09:16:14.362Z</time>
      </trkpt>
      <trkpt lat="45.63689" lon="4.71004">
        <ele>336</ele>
        <time>2015-10-18T09:16:15.391Z</time>
      </trkpt>
      <trkpt lat="45.63689" lon="4.70998">
        <ele>336</ele>
        <time>2015-10-18T09:16:16.349Z</time>
      </trkpt>
      <trkpt lat="45.6369" lon="4.70992">
        <ele>336</ele>
        <time>2015-10-18T09:16:17.384Z</time>
      </trkpt>
      <trkpt lat="45.6369" lon="4.70985">
        <ele>336</ele>
        <time>2015-10-18T09:16:18.353Z</time>
      </trkpt>
      <trkpt lat="45.63689" lon="4.70979">
        <ele>336</ele>
        <time>2015-10-18T09:16:19.395Z</time>
      </trkpt>
      <trkpt lat="45.63687" lon="4.7097">
        <ele>336</ele>
        <time>2015-10-18T09:16:20.362Z</time>
      </trkpt>
      <trkpt lat="45.63686" lon="4.70959">
        <ele>336</ele>
        <time>2015-10-18T09:16:22.375Z</time>
      </trkpt>
      <trkpt lat="45.63685" lon="4.70953">
        <ele>336</ele>
        <time>2015-10-18T09:16:23.354Z</time>
      </trkpt>
      <trkpt lat="45.63684" lon="4.70947">
        <ele>336</ele>
        <time>2015-10-18T09:16:24.397Z</time>
      </trkpt>
      <trkpt lat="45.63684" lon="4.7094">
        <ele>336</ele>
        <time>2015-10-18T09:16:25.366Z</time>
      </trkpt>
      <trkpt lat="45.63683" lon="4.70932">
        <ele>336</ele>
        <time>2015-10-18T09:16:26.503Z</time>
      </trkpt>
      <trkpt lat="45.63682" lon="4.70925">
        <ele>336</ele>
        <time>2015-10-18T09:16:27.355Z</time>
      </trkpt>
      <trkpt lat="45.63682" lon="4.70919">
        <ele>336</ele>
        <time>2015-10-18T09:16:28.386Z</time>
      </trkpt>
      <trkpt lat="45.63681" lon="4.70912">
        <ele>336</ele>
        <time>2015-10-18T09:16:29.358Z</time>
      </trkpt>
      <trkpt lat="45.6368" lon="4.70906">
        <ele>336</ele>
        <time>2015-10-18T09:16:30.392Z</time>
      </trkpt>
      <trkpt lat="45.63678" lon="4.70899">
        <ele>336</ele>
        <time>2015-10-18T09:16:31.364Z</time>
      </trkpt>
      <trkpt lat="45.63676" lon="4.70891">
        <ele>336</ele>
        <time>2015-10-18T09:16:32.382Z</time>
      </trkpt>
      <trkpt lat="45.63675" lon="4.70884">
        <ele>336</ele>
        <time>2015-10-18T09:16:33.350Z</time>
      </trkpt>
      <trkpt lat="45.63673" lon="4.70878">
        <ele>336</ele>
        <time>2015-10-18T09:16:34.401Z</time>
      </trkpt>
      <trkpt lat="45.63672" lon="4.70869">
        <ele>336</ele>
        <time>2015-10-18T09:16:35.363Z</time>
      </trkpt>
      <trkpt lat="45.63671" lon="4.70863">
        <ele>336</ele>
        <time>2015-10-18T09:16:36.381Z</time>
      </trkpt>
      <trkpt lat="45.63669" lon="4.70856">
        <ele>336</ele>
        <time>2015-10-18T09:16:37.360Z</time>
      </trkpt>
      <trkpt lat="45.63668" lon="4.7085">
        <ele>335</ele>
        <time>2015-10-18T09:16:38.369Z</time>
      </trkpt>
      <trkpt lat="45.63666" lon="4.70841">
        <ele>335</ele>
        <time>2015-10-18T09:16:39.361Z</time>
      </trkpt>
      <trkpt lat="45.63666" lon="4.70835">
        <ele>335</ele>
        <time>2015-10-18T09:16:40.401Z</time>
      </trkpt>
      <trkpt lat="45.63664" lon="4.70826">
        <ele>335</ele>
        <time>2015-10-18T09:16:41.361Z</time>
      </trkpt>
      <trkpt lat="45.63663" lon="4.7082">
        <ele>335</ele>
        <time>2015-10-18T09:16:42.388Z</time>
      </trkpt>
      <trkpt lat="45.63662" lon="4.70814">
        <ele>335</ele>
        <time>2015-10-18T09:16:43.361Z</time>
      </trkpt>
      <trkpt lat="45.6366" lon="4.70805">
        <ele>335</ele>
        <time>2015-10-18T09:16:44.394Z</time>
      </trkpt>
      <trkpt lat="45.63658" lon="4.70796">
        <ele>335</ele>
        <time>2015-10-18T09:16:45.365Z</time>
      </trkpt>
      <trkpt lat="45.63656" lon="4.70792">
        <ele>335</ele>
        <time>2015-10-18T09:16:46.399Z</time>
      </trkpt>
      <trkpt lat="45.63655" lon="4.70783">
        <ele>335</ele>
        <time>2015-10-18T09:16:47.360Z</time>
      </trkpt>
      <trkpt lat="45.63654" lon="4.70777">
        <ele>335</ele>
        <time>2015-10-18T09:16:48.391Z</time>
      </trkpt>
      <trkpt lat="45.63652" lon="4.70768">
        <ele>335</ele>
        <time>2015-10-18T09:16:49.361Z</time>
      </trkpt>
      <trkpt lat="45.63651" lon="4.70762">
        <ele>336</ele>
        <time>2015-10-18T09:16:50.388Z</time>
      </trkpt>
      <trkpt lat="45.6365" lon="4.70753">
        <ele>336</ele>
        <time>2015-10-18T09:16:51.362Z</time>
      </trkpt>
      <trkpt lat="45.63649" lon="4.70747">
        <ele>335</ele>
        <time>2015-10-18T09:16:52.392Z</time>
      </trkpt>
      <trkpt lat="45.63646" lon="4.70738">
        <ele>335</ele>
        <time>2015-10-18T09:16:53.358Z</time>
      </trkpt>
      <trkpt lat="45.63645" lon="4.70732">
        <ele>335</ele>
        <time>2015-10-18T09:16:54.392Z</time>
      </trkpt>
      <trkpt lat="45.63643" lon="4.70726">
        <ele>335</ele>
        <time>2015-10-18T09:16:55.360Z</time>
      </trkpt>
      <trkpt lat="45.63641" lon="4.70717">
        <ele>335</ele>
        <time>2015-10-18T09:16:56.388Z</time>
      </trkpt>
      <trkpt lat="45.6364" lon="4.70711">
        <ele>334</ele>
        <time>2015-10-18T09:16:57.354Z</time>
      </trkpt>
      <trkpt lat="45.63639" lon="4.70702">
        <ele>334</ele>
        <time>2015-10-18T09:16:58.384Z</time>
      </trkpt>
      <trkpt lat="45.63638" lon="4.70693">
        <ele>334</ele>
        <time>2015-10-18T09:16:59.359Z</time>
      </trkpt>
      <trkpt lat="45.63637" lon="4.70687">
        <ele>334</ele>
        <time>2015-10-18T09:17:00.398Z</time>
      </trkpt>
      <trkpt lat="45.63635" lon="4.7068">
        <ele>334</ele>
        <time>2015-10-18T09:17:01.363Z</time>
      </trkpt>
      <trkpt lat="45.63633" lon="4.70672">
        <ele>334</ele>
        <time>2015-10-18T09:17:02.390Z</time>
      </trkpt>
      <trkpt lat="45.63631" lon="4.70663">
        <ele>334</ele>
        <time>2015-10-18T09:17:03.362Z</time>
      </trkpt>
      <trkpt lat="45.6363" lon="4.70657">
        <ele>334</ele>
        <time>2015-10-18T09:17:04.393Z</time>
      </trkpt>
      <trkpt lat="45.63627" lon="4.7065">
        <ele>334</ele>
        <time>2015-10-18T09:17:05.360Z</time>
      </trkpt>
      <trkpt lat="45.63625" lon="4.70642">
        <ele>334</ele>
        <time>2015-10-18T09:17:06.388Z</time>
      </trkpt>
      <trkpt lat="45.63624" lon="4.70635">
        <ele>334</ele>
        <time>2015-10-18T09:17:07.360Z</time>
      </trkpt>
      <trkpt lat="45.63622" lon="4.70629">
        <ele>334</ele>
        <time>2015-10-18T09:17:08.397Z</time>
      </trkpt>
      <trkpt lat="45.6362" lon="4.70623">
        <ele>334</ele>
        <time>2015-10-18T09:17:09.362Z</time>
      </trkpt>
      <trkpt lat="45.63618" lon="4.70616">
        <ele>334</ele>
        <time>2015-10-18T09:17:10.401Z</time>
      </trkpt>
      <trkpt lat="45.63614" lon="4.70608">
        <ele>334</ele>
        <time>2015-10-18T09:17:11.361Z</time>
      </trkpt>
      <trkpt lat="45.63613" lon="4.70601">
        <ele>334</ele>
        <time>2015-10-18T09:17:12.391Z</time>
      </trkpt>
      <trkpt lat="45.63611" lon="4.70595">
        <ele>334</ele>
        <time>2015-10-18T09:17:13.359Z</time>
      </trkpt>
      <trkpt lat="45.63607" lon="4.70584">
        <ele>334</ele>
        <time>2015-10-18T09:17:15.401Z</time>
      </trkpt>
      <trkpt lat="45.63604" lon="4.70577">
        <ele>335</ele>
        <time>2015-10-18T09:17:16.360Z</time>
      </trkpt>
      <trkpt lat="45.63601" lon="4.70571">
        <ele>335</ele>
        <time>2015-10-18T09:17:17.377Z</time>
      </trkpt>
      <trkpt lat="45.63597" lon="4.70565">
        <ele>335</ele>
        <time>2015-10-18T09:17:18.391Z</time>
      </trkpt>
      <trkpt lat="45.63595" lon="4.70558">
        <ele>335</ele>
        <time>2015-10-18T09:17:19.402Z</time>
      </trkpt>
      <trkpt lat="45.63593" lon="4.70552">
        <ele>335</ele>
        <time>2015-10-18T09:17:20.375Z</time>
      </trkpt>
      <trkpt lat="45.63591" lon="4.70547">
        <ele>335</ele>
        <time>2015-10-18T09:17:21.392Z</time>
      </trkpt>
      <trkpt lat="45.63588" lon="4.70541">
        <ele>335</ele>
        <time>2015-10-18T09:17:22.362Z</time>
      </trkpt>
      <trkpt lat="45.63587" lon="4.70535">
        <ele>335</ele>
        <time>2015-10-18T09:17:23.387Z</time>
      </trkpt>
      <trkpt lat="45.63584" lon="4.70528">
        <ele>336</ele>
        <time>2015-10-18T09:17:24.362Z</time>
      </trkpt>
      <trkpt lat="45.63582" lon="4.70522">
        <ele>335</ele>
        <time>2015-10-18T09:17:25.392Z</time>
      </trkpt>
      <trkpt lat="45.6358" lon="4.70515">
        <ele>336</ele>
        <time>2015-10-18T09:17:26.363Z</time>
      </trkpt>
      <trkpt lat="45.63577" lon="4.70509">
        <ele>336</ele>
        <time>2015-10-18T09:17:27.377Z</time>
      </trkpt>
      <trkpt lat="45.63576" lon="4.70502">
        <ele>336</ele>
        <time>2015-10-18T09:17:28.362Z</time>
      </trkpt>
      <trkpt lat="45.63574" lon="4.70496">
        <ele>337</ele>
        <time>2015-10-18T09:17:29.387Z</time>
      </trkpt>
      <trkpt lat="45.63573" lon="4.7049">
        <ele>337</ele>
        <time>2015-10-18T09:17:30.361Z</time>
      </trkpt>
      <trkpt lat="45.6357" lon="4.70483">
        <ele>336</ele>
        <time>2015-10-18T09:17:31.388Z</time>
      </trkpt>
      <trkpt lat="45.63569" lon="4.70474">
        <ele>336</ele>
        <time>2015-10-18T09:17:32.365Z</time>
      </trkpt>
      <trkpt lat="45.63567" lon="4.70468">
        <ele>336</ele>
        <time>2015-10-18T09:17:33.392Z</time>
      </trkpt>
      <trkpt lat="45.63566" lon="4.70462">
        <ele>336</ele>
        <time>2015-10-18T09:17:34.361Z</time>
      </trkpt>
      <trkpt lat="45.63564" lon="4.70455">
        <ele>336</ele>
        <time>2015-10-18T09:17:35.393Z</time>
      </trkpt>
      <trkpt lat="45.63563" lon="4.70449">
        <ele>336</ele>
        <time>2015-10-18T09:17:36.369Z</time>
      </trkpt>
      <trkpt lat="45.63561" lon="4.70442">
        <ele>336</ele>
        <time>2015-10-18T09:17:37.395Z</time>
      </trkpt>
      <trkpt lat="45.6356" lon="4.70436">
        <ele>336</ele>
        <time>2015-10-18T09:17:38.365Z</time>
      </trkpt>
      <trkpt lat="45.63558" lon="4.70429">
        <ele>336</ele>
        <time>2015-10-18T09:17:39.388Z</time>
      </trkpt>
      <trkpt lat="45.63557" lon="4.70421">
        <ele>336</ele>
        <time>2015-10-18T09:17:40.370Z</time>
      </trkpt>
      <trkpt lat="45.63554" lon="4.70414">
        <ele>336</ele>
        <time>2015-10-18T09:17:41.392Z</time>
      </trkpt>
      <trkpt lat="45.63553" lon="4.70408">
        <ele>336</ele>
        <time>2015-10-18T09:17:42.365Z</time>
      </trkpt>
      <trkpt lat="45.63551" lon="4.70402">
        <ele>336</ele>
        <time>2015-10-18T09:17:43.396Z</time>
      </trkpt>
      <trkpt lat="45.6355" lon="4.70395">
        <ele>336</ele>
        <time>2015-10-18T09:17:44.362Z</time>
      </trkpt>
      <trkpt lat="45.63549" lon="4.70389">
        <ele>336</ele>
        <time>2015-10-18T09:17:45.385Z</time>
      </trkpt>
      <trkpt lat="45.63548" lon="4.70382">
        <ele>336</ele>
        <time>2015-10-18T09:17:46.361Z</time>
      </trkpt>
      <trkpt lat="45.63547" lon="4.70376">
        <ele>336</ele>
        <time>2015-10-18T09:17:47.499Z</time>
      </trkpt>
      <trkpt lat="45.63546" lon="4.70369">
        <ele>336</ele>
        <time>2015-10-18T09:17:48.362Z</time>
      </trkpt>
      <trkpt lat="45.63546" lon="4.70363">
        <ele>336</ele>
        <time>2015-10-18T09:17:49.391Z</time>
      </trkpt>
      <trkpt lat="45.63545" lon="4.70356">
        <ele>336</ele>
        <time>2015-10-18T09:17:50.363Z</time>
      </trkpt>
      <trkpt lat="45.63544" lon="4.7035">
        <ele>336</ele>
        <time>2015-10-18T09:17:51.396Z</time>
      </trkpt>
      <trkpt lat="45.63544" lon="4.70344">
        <ele>336</ele>
        <time>2015-10-18T09:17:52.368Z</time>
      </trkpt>
      <trkpt lat="45.63544" lon="4.70339">
        <ele>336</ele>
        <time>2015-10-18T09:17:53.371Z</time>
      </trkpt>
      <trkpt lat="45.63543" lon="4.70331">
        <ele>337</ele>
        <time>2015-10-18T09:17:54.359Z</time>
      </trkpt>
      <trkpt lat="45.63542" lon="4.70324">
        <ele>338</ele>
        <time>2015-10-18T09:17:55.399Z</time>
      </trkpt>
      <trkpt lat="45.6354" lon="4.70318">
        <ele>338</ele>
        <time>2015-10-18T09:17:56.359Z</time>
      </trkpt>
      <trkpt lat="45.63539" lon="4.70311">
        <ele>338</ele>
        <time>2015-10-18T09:17:57.386Z</time>
      </trkpt>
      <trkpt lat="45.63538" lon="4.70305">
        <ele>338</ele>
        <time>2015-10-18T09:17:58.351Z</time>
      </trkpt>
      <trkpt lat="45.63537" lon="4.70294">
        <ele>338</ele>
        <time>2015-10-18T09:18:00.355Z</time>
      </trkpt>
      <trkpt lat="45.63537" lon="4.70286">
        <ele>338</ele>
        <time>2015-10-18T09:18:01.346Z</time>
      </trkpt>
      <trkpt lat="45.63535" lon="4.70275">
        <ele>338</ele>
        <time>2015-10-18T09:18:03.540Z</time>
      </trkpt>
      <trkpt lat="45.63534" lon="4.70268">
        <ele>338</ele>
        <time>2015-10-18T09:18:04.360Z</time>
      </trkpt>
      <trkpt lat="45.63533" lon="4.70258">
        <ele>338</ele>
        <time>2015-10-18T09:18:06.365Z</time>
      </trkpt>
      <trkpt lat="45.63532" lon="4.70251">
        <ele>339</ele>
        <time>2015-10-18T09:18:07.363Z</time>
      </trkpt>
      <trkpt lat="45.63531" lon="4.70241">
        <ele>340</ele>
        <time>2015-10-18T09:18:09.372Z</time>
      </trkpt>
      <trkpt lat="45.63531" lon="4.70234">
        <ele>340</ele>
        <time>2015-10-18T09:18:10.365Z</time>
      </trkpt>
      <trkpt lat="45.63531" lon="4.70228">
        <ele>340</ele>
        <time>2015-10-18T09:18:11.385Z</time>
      </trkpt>
      <trkpt lat="45.6353" lon="4.70221">
        <ele>340</ele>
        <time>2015-10-18T09:18:12.351Z</time>
      </trkpt>
      <trkpt lat="45.63528" lon="4.70211">
        <ele>340</ele>
        <time>2015-10-18T09:18:14.397Z</time>
      </trkpt>
      <trkpt lat="45.63528" lon="4.70206">
        <ele>340</ele>
        <time>2015-10-18T09:18:15.357Z</time>
      </trkpt>
      <trkpt lat="45.63527" lon="4.702">
        <ele>340</ele>
        <time>2015-10-18T09:18:16.391Z</time>
      </trkpt>
      <trkpt lat="45.63527" lon="4.70193">
        <ele>340</ele>
        <time>2015-10-18T09:18:17.373Z</time>
      </trkpt>
      <trkpt lat="45.63525" lon="4.70187">
        <ele>340</ele>
        <time>2015-10-18T09:18:18.402Z</time>
      </trkpt>
      <trkpt lat="45.63524" lon="4.70181">
        <ele>340</ele>
        <time>2015-10-18T09:18:19.360Z</time>
      </trkpt>
      <trkpt lat="45.63523" lon="4.70174">
        <ele>340</ele>
        <time>2015-10-18T09:18:20.400Z</time>
      </trkpt>
      <trkpt lat="45.63523" lon="4.70168">
        <ele>340</ele>
        <time>2015-10-18T09:18:21.357Z</time>
      </trkpt>
      <trkpt lat="45.63521" lon="4.70157">
        <ele>340</ele>
        <time>2015-10-18T09:18:23.369Z</time>
      </trkpt>
      <trkpt lat="45.6352" lon="4.7015">
        <ele>340</ele>
        <time>2015-10-18T09:18:24.367Z</time>
      </trkpt>
      <trkpt lat="45.63519" lon="4.70144">
        <ele>340</ele>
        <time>2015-10-18T09:18:25.398Z</time>
      </trkpt>
      <trkpt lat="45.63518" lon="4.70138">
        <ele>340</ele>
        <time>2015-10-18T09:18:26.361Z</time>
      </trkpt>
      <trkpt lat="45.63517" lon="4.70131">
        <ele>340</ele>
        <time>2015-10-18T09:18:27.397Z</time>
      </trkpt>
      <trkpt lat="45.63517" lon="4.70125">
        <ele>340</ele>
        <time>2015-10-18T09:18:28.368Z</time>
      </trkpt>
      <trkpt lat="45.63516" lon="4.70118">
        <ele>340</ele>
        <time>2015-10-18T09:18:29.403Z</time>
      </trkpt>
      <trkpt lat="45.63515" lon="4.70112">
        <ele>340</ele>
        <time>2015-10-18T09:18:30.359Z</time>
      </trkpt>
      <trkpt lat="45.63514" lon="4.70105">
        <ele>340</ele>
        <time>2015-10-18T09:18:31.387Z</time>
      </trkpt>
      <trkpt lat="45.63513" lon="4.70099">
        <ele>340</ele>
        <time>2015-10-18T09:18:32.362Z</time>
      </trkpt>
      <trkpt lat="45.63509" lon="4.70088">
        <ele>339</ele>
        <time>2015-10-18T09:18:34.395Z</time>
      </trkpt>
      <trkpt lat="45.63506" lon="4.70082">
        <ele>339</ele>
        <time>2015-10-18T09:18:35.357Z</time>
      </trkpt>
      <trkpt lat="45.63504" lon="4.70075">
        <ele>339</ele>
        <time>2015-10-18T09:18:36.394Z</time>
      </trkpt>
      <trkpt lat="45.63502" lon="4.70069">
        <ele>340</ele>
        <time>2015-10-18T09:18:37.365Z</time>
      </trkpt>
      <trkpt lat="45.635" lon="4.70062">
        <ele>340</ele>
        <time>2015-10-18T09:18:38.398Z</time>
      </trkpt>
      <trkpt lat="45.63499" lon="4.70056">
        <ele>340</ele>
        <time>2015-10-18T09:18:39.361Z</time>
      </trkpt>
      <trkpt lat="45.63495" lon="4.70045">
        <ele>340</ele>
        <time>2015-10-18T09:18:41.394Z</time>
      </trkpt>
      <trkpt lat="45.63493" lon="4.70039">
        <ele>340</ele>
        <time>2015-10-18T09:18:42.361Z</time>
      </trkpt>
      <trkpt lat="45.6349" lon="4.70028">
        <ele>340</ele>
        <time>2015-10-18T09:18:44.390Z</time>
      </trkpt>
      <trkpt lat="45.63488" lon="4.70024">
        <ele>340</ele>
        <time>2015-10-18T09:18:45.353Z</time>
      </trkpt>
      <trkpt lat="45.63486" lon="4.70017">
        <ele>340</ele>
        <time>2015-10-18T09:18:46.389Z</time>
      </trkpt>
      <trkpt lat="45.63485" lon="4.70011">
        <ele>340</ele>
        <time>2015-10-18T09:18:47.356Z</time>
      </trkpt>
      <trkpt lat="45.63484" lon="4.70005">
        <ele>340</ele>
        <time>2015-10-18T09:18:48.394Z</time>
      </trkpt>
      <trkpt lat="45.6348" lon="4.69998">
        <ele>341</ele>
        <time>2015-10-18T09:18:49.364Z</time>
      </trkpt>
      <trkpt lat="45.63476" lon="4.69987">
        <ele>341</ele>
        <time>2015-10-18T09:18:51.397Z</time>
      </trkpt>
      <trkpt lat="45.63474" lon="4.69983">
        <ele>341</ele>
        <time>2015-10-18T09:18:52.361Z</time>
      </trkpt>
      <trkpt lat="45.63471" lon="4.69972">
        <ele>341</ele>
        <time>2015-10-18T09:18:54.514Z</time>
      </trkpt>
      <trkpt lat="45.6347" lon="4.69964">
        <ele>341</ele>
        <time>2015-10-18T09:18:55.356Z</time>
      </trkpt>
      <trkpt lat="45.63468" lon="4.69953">
        <ele>341</ele>
        <time>2015-10-18T09:18:57.405Z</time>
      </trkpt>
      <trkpt lat="45.63466" lon="4.69947">
        <ele>341</ele>
        <time>2015-10-18T09:18:58.360Z</time>
      </trkpt>
      <trkpt lat="45.63465" lon="4.69936">
        <ele>341</ele>
        <time>2015-10-18T09:19:00.386Z</time>
      </trkpt>
      <trkpt lat="45.63464" lon="4.69929">
        <ele>341</ele>
        <time>2015-10-18T09:19:01.347Z</time>
      </trkpt>
      <trkpt lat="45.63464" lon="4.69917">
        <ele>342</ele>
        <time>2015-10-18T09:19:03.369Z</time>
      </trkpt>
      <trkpt lat="45.63464" lon="4.6991">
        <ele>342</ele>
        <time>2015-10-18T09:19:04.343Z</time>
      </trkpt>
      <trkpt lat="45.63464" lon="4.69902">
        <ele>342</ele>
        <time>2015-10-18T09:19:06.393Z</time>
      </trkpt>
      <trkpt lat="45.63463" lon="4.69893">
        <ele>343</ele>
        <time>2015-10-18T09:19:07.380Z</time>
      </trkpt>
      <trkpt lat="45.63463" lon="4.69887">
        <ele>343</ele>
        <time>2015-10-18T09:19:08.386Z</time>
      </trkpt>
      <trkpt lat="45.63462" lon="4.6988">
        <ele>343</ele>
        <time>2015-10-18T09:19:09.353Z</time>
      </trkpt>
      <trkpt lat="45.63461" lon="4.69869">
        <ele>343</ele>
        <time>2015-10-18T09:19:11.388Z</time>
      </trkpt>
      <trkpt lat="45.63461" lon="4.69865">
        <ele>343</ele>
        <time>2015-10-18T09:19:12.353Z</time>
      </trkpt>
      <trkpt lat="45.63461" lon="4.69852">
        <ele>343</ele>
        <time>2015-10-18T09:19:14.390Z</time>
      </trkpt>
      <trkpt lat="45.63461" lon="4.69846">
        <ele>343</ele>
        <time>2015-10-18T09:19:15.349Z</time>
      </trkpt>
      <trkpt lat="45.63459" lon="4.69835">
        <ele>343</ele>
        <time>2015-10-18T09:19:17.390Z</time>
      </trkpt>
      <trkpt lat="45.63459" lon="4.69829">
        <ele>344</ele>
        <time>2015-10-18T09:19:18.365Z</time>
      </trkpt>
      <trkpt lat="45.63459" lon="4.69822">
        <ele>344</ele>
        <time>2015-10-18T09:19:19.493Z</time>
      </trkpt>
      <trkpt lat="45.63459" lon="4.69816">
        <ele>344</ele>
        <time>2015-10-18T09:19:20.360Z</time>
      </trkpt>
      <trkpt lat="45.63457" lon="4.69805">
        <ele>344</ele>
        <time>2015-10-18T09:19:22.387Z</time>
      </trkpt>
      <trkpt lat="45.63456" lon="4.69801">
        <ele>344</ele>
        <time>2015-10-18T09:19:23.362Z</time>
      </trkpt>
      <trkpt lat="45.63456" lon="4.6979">
        <ele>344</ele>
        <time>2015-10-18T09:19:25.393Z</time>
      </trkpt>
      <trkpt lat="45.63456" lon="4.69784">
        <ele>345</ele>
        <time>2015-10-18T09:19:26.362Z</time>
      </trkpt>
      <trkpt lat="45.63454" lon="4.69773">
        <ele>345</ele>
        <time>2015-10-18T09:19:28.376Z</time>
      </trkpt>
      <trkpt lat="45.63454" lon="4.69769">
        <ele>345</ele>
        <time>2015-10-18T09:19:29.362Z</time>
      </trkpt>
      <trkpt lat="45.63452" lon="4.69758">
        <ele>345</ele>
        <time>2015-10-18T09:19:31.390Z</time>
      </trkpt>
      <trkpt lat="45.63452" lon="4.69751">
        <ele>345</ele>
        <time>2015-10-18T09:19:32.376Z</time>
      </trkpt>
      <trkpt lat="45.6345" lon="4.69741">
        <ele>345</ele>
        <time>2015-10-18T09:19:34.386Z</time>
      </trkpt>
      <trkpt lat="45.63449" lon="4.69736">
        <ele>345</ele>
        <time>2015-10-18T09:19:35.358Z</time>
      </trkpt>
      <trkpt lat="45.63448" lon="4.69728">
        <ele>345</ele>
        <time>2015-10-18T09:19:37.393Z</time>
      </trkpt>
      <trkpt lat="45.63447" lon="4.69721">
        <ele>346</ele>
        <time>2015-10-18T09:19:38.358Z</time>
      </trkpt>
      <trkpt lat="45.63446" lon="4.69711">
        <ele>346</ele>
        <time>2015-10-18T09:19:40.394Z</time>
      </trkpt>
      <trkpt lat="45.63446" lon="4.69704">
        <ele>346</ele>
        <time>2015-10-18T09:19:41.355Z</time>
      </trkpt>
      <trkpt lat="45.63445" lon="4.69693">
        <ele>346</ele>
        <time>2015-10-18T09:19:43.397Z</time>
      </trkpt>
      <trkpt lat="45.63445" lon="4.69689">
        <ele>346</ele>
        <time>2015-10-18T09:19:44.358Z</time>
      </trkpt>
      <trkpt lat="45.63444" lon="4.69681">
        <ele>346</ele>
        <time>2015-10-18T09:19:46.387Z</time>
      </trkpt>
      <trkpt lat="45.63443" lon="4.69674">
        <ele>346</ele>
        <time>2015-10-18T09:19:47.344Z</time>
      </trkpt>
      <trkpt lat="45.63441" lon="4.69663">
        <ele>347</ele>
        <time>2015-10-18T09:19:49.527Z</time>
      </trkpt>
      <trkpt lat="45.63441" lon="4.69659">
        <ele>347</ele>
        <time>2015-10-18T09:19:50.363Z</time>
      </trkpt>
      <trkpt lat="45.63437" lon="4.69651">
        <ele>347</ele>
        <time>2015-10-18T09:19:52.388Z</time>
      </trkpt>
      <trkpt lat="45.63435" lon="4.69646">
        <ele>347</ele>
        <time>2015-10-18T09:19:53.355Z</time>
      </trkpt>
      <trkpt lat="45.63432" lon="4.69635">
        <ele>347</ele>
        <time>2015-10-18T09:19:55.379Z</time>
      </trkpt>
      <trkpt lat="45.63431" lon="4.69631">
        <ele>348</ele>
        <time>2015-10-18T09:19:56.353Z</time>
      </trkpt>
      <trkpt lat="45.63428" lon="4.69623">
        <ele>348</ele>
        <time>2015-10-18T09:19:58.390Z</time>
      </trkpt>
      <trkpt lat="45.63426" lon="4.69616">
        <ele>348</ele>
        <time>2015-10-18T09:19:59.350Z</time>
      </trkpt>
      <trkpt lat="45.63424" lon="4.69608">
        <ele>348</ele>
        <time>2015-10-18T09:20:01.393Z</time>
      </trkpt>
      <trkpt lat="45.63422" lon="4.69603">
        <ele>348</ele>
        <time>2015-10-18T09:20:02.361Z</time>
      </trkpt>
      <trkpt lat="45.6342" lon="4.69595">
        <ele>348</ele>
        <time>2015-10-18T09:20:04.384Z</time>
      </trkpt>
      <trkpt lat="45.6342" lon="4.6959">
        <ele>349</ele>
        <time>2015-10-18T09:20:05.343Z</time>
      </trkpt>
      <trkpt lat="45.63419" lon="4.6958">
        <ele>349</ele>
        <time>2015-10-18T09:20:07.385Z</time>
      </trkpt>
      <trkpt lat="45.63419" lon="4.69575">
        <ele>349</ele>
        <time>2015-10-18T09:20:08.375Z</time>
      </trkpt>
      <trkpt lat="45.63419" lon="4.69565">
        <ele>349</ele>
        <time>2015-10-18T09:20:10.384Z</time>
      </trkpt>
      <trkpt lat="45.6342" lon="4.6956">
        <ele>350</ele>
        <time>2015-10-18T09:20:11.382Z</time>
      </trkpt>
      <trkpt lat="45.63421" lon="4.6955">
        <ele>350</ele>
        <time>2015-10-18T09:20:13.380Z</time>
      </trkpt>
      <trkpt lat="45.63422" lon="4.69543">
        <ele>350</ele>
        <time>2015-10-18T09:20:14.367Z</time>
      </trkpt>
      <trkpt lat="45.63422" lon="4.69535">
        <ele>350</ele>
        <time>2015-10-18T09:20:16.381Z</time>
      </trkpt>
      <trkpt lat="45.63422" lon="4.6953">
        <ele>350</ele>
        <time>2015-10-18T09:20:17.352Z</time>
      </trkpt>
      <trkpt lat="45.63424" lon="4.69522">
        <ele>350</ele>
        <time>2015-10-18T09:20:19.446Z</time>
      </trkpt>
      <trkpt lat="45.63425" lon="4.69517">
        <ele>350</ele>
        <time>2015-10-18T09:20:20.361Z</time>
      </trkpt>
      <trkpt lat="45.63424" lon="4.69507">
        <ele>350</ele>
        <time>2015-10-18T09:20:22.400Z</time>
      </trkpt>
      <trkpt lat="45.63424" lon="4.69502">
        <ele>350</ele>
        <time>2015-10-18T09:20:23.357Z</time>
      </trkpt>
      <trkpt lat="45.63424" lon="4.69496">
        <ele>351</ele>
        <time>2015-10-18T09:20:24.385Z</time>
      </trkpt>
      <trkpt lat="45.63422" lon="4.6949">
        <ele>351</ele>
        <time>2015-10-18T09:20:25.357Z</time>
      </trkpt>
      <trkpt lat="45.63421" lon="4.69479">
        <ele>351</ele>
        <time>2015-10-18T09:20:27.384Z</time>
      </trkpt>
      <trkpt lat="45.63421" lon="4.69475">
        <ele>352</ele>
        <time>2015-10-18T09:20:28.354Z</time>
      </trkpt>
      <trkpt lat="45.6342" lon="4.69466">
        <ele>352</ele>
        <time>2015-10-18T09:20:30.399Z</time>
      </trkpt>
      <trkpt lat="45.63419" lon="4.6946">
        <ele>352</ele>
        <time>2015-10-18T09:20:31.357Z</time>
      </trkpt>
      <trkpt lat="45.63418" lon="4.69449">
        <ele>352</ele>
        <time>2015-10-18T09:20:33.402Z</time>
      </trkpt>
      <trkpt lat="45.63417" lon="4.69445">
        <ele>352</ele>
        <time>2015-10-18T09:20:34.353Z</time>
      </trkpt>
      <trkpt lat="45.63416" lon="4.69436">
        <ele>351</ele>
        <time>2015-10-18T09:20:36.382Z</time>
      </trkpt>
      <trkpt lat="45.63416" lon="4.69429">
        <ele>351</ele>
        <time>2015-10-18T09:20:37.375Z</time>
      </trkpt>
      <trkpt lat="45.63416" lon="4.69421">
        <ele>352</ele>
        <time>2015-10-18T09:20:39.388Z</time>
      </trkpt>
      <trkpt lat="45.63415" lon="4.69417">
        <ele>352</ele>
        <time>2015-10-18T09:20:40.355Z</time>
      </trkpt>
      <trkpt lat="45.63414" lon="4.69406">
        <ele>352</ele>
        <time>2015-10-18T09:20:42.400Z</time>
      </trkpt>
      <trkpt lat="45.63413" lon="4.69402">
        <ele>352</ele>
        <time>2015-10-18T09:20:43.365Z</time>
      </trkpt>
      <trkpt lat="45.63412" lon="4.69391">
        <ele>352</ele>
        <time>2015-10-18T09:20:45.394Z</time>
      </trkpt>
      <trkpt lat="45.63412" lon="4.69384">
        <ele>352</ele>
        <time>2015-10-18T09:20:46.356Z</time>
      </trkpt>
      <trkpt lat="45.63412" lon="4.69374">
        <ele>353</ele>
        <time>2015-10-18T09:20:48.405Z</time>
      </trkpt>
      <trkpt lat="45.63411" lon="4.69369">
        <ele>353</ele>
        <time>2015-10-18T09:20:49.354Z</time>
      </trkpt>
      <trkpt lat="45.63411" lon="4.69359">
        <ele>353</ele>
        <time>2015-10-18T09:20:51.409Z</time>
      </trkpt>
      <trkpt lat="45.6341" lon="4.69354">
        <ele>353</ele>
        <time>2015-10-18T09:20:52.358Z</time>
      </trkpt>
      <trkpt lat="45.63408" lon="4.69344">
        <ele>353</ele>
        <time>2015-10-18T09:20:54.406Z</time>
      </trkpt>
      <trkpt lat="45.63406" lon="4.69339">
        <ele>353</ele>
        <time>2015-10-18T09:20:55.356Z</time>
      </trkpt>
      <trkpt lat="45.63405" lon="4.69331">
        <ele>354</ele>
        <time>2015-10-18T09:20:57.500Z</time>
      </trkpt>
      <trkpt lat="45.63404" lon="4.69326">
        <ele>354</ele>
        <time>2015-10-18T09:20:58.355Z</time>
      </trkpt>
      <trkpt lat="45.63405" lon="4.69316">
        <ele>354</ele>
        <time>2015-10-18T09:21:00.410Z</time>
      </trkpt>
      <trkpt lat="45.63404" lon="4.69311">
        <ele>354</ele>
        <time>2015-10-18T09:21:01.356Z</time>
      </trkpt>
      <trkpt lat="45.63403" lon="4.69303">
        <ele>354</ele>
        <time>2015-10-18T09:21:03.397Z</time>
      </trkpt>
      <trkpt lat="45.63403" lon="4.69299">
        <ele>354</ele>
        <time>2015-10-18T09:21:04.359Z</time>
      </trkpt>
      <trkpt lat="45.634" lon="4.69288">
        <ele>354</ele>
        <time>2015-10-18T09:21:07.399Z</time>
      </trkpt>
      <trkpt lat="45.63399" lon="4.69284">
        <ele>354</ele>
        <time>2015-10-18T09:21:08.360Z</time>
      </trkpt>
      <trkpt lat="45.63392" lon="4.6929">
        <ele>354</ele>
        <time>2015-10-18T09:21:11.384Z</time>
      </trkpt>
      <trkpt lat="45.6339" lon="4.69292">
        <ele>354</ele>
        <time>2015-10-18T09:21:12.360Z</time>
      </trkpt>
      <trkpt lat="45.63383" lon="4.69294">
        <ele>354</ele>
        <time>2015-10-18T09:21:14.399Z</time>
      </trkpt>
      <trkpt lat="45.63378" lon="4.69296">
        <ele>354</ele>
        <time>2015-10-18T09:21:15.359Z</time>
      </trkpt>
      <trkpt lat="45.6337" lon="4.69299">
        <ele>354</ele>
        <time>2015-10-18T09:21:17.406Z</time>
      </trkpt>
      <trkpt lat="45.63366" lon="4.69301">
        <ele>353</ele>
        <time>2015-10-18T09:21:18.378Z</time>
      </trkpt>
      <trkpt lat="45.63361" lon="4.69303">
        <ele>353</ele>
        <time>2015-10-18T09:21:19.385Z</time>
      </trkpt>
      <trkpt lat="45.63357" lon="4.69305">
        <ele>353</ele>
        <time>2015-10-18T09:21:20.360Z</time>
      </trkpt>
      <trkpt lat="45.63353" lon="4.69307">
        <ele>353</ele>
        <time>2015-10-18T09:21:21.393Z</time>
      </trkpt>
      <trkpt lat="45.63347" lon="4.69309">
        <ele>353</ele>
        <time>2015-10-18T09:21:22.366Z</time>
      </trkpt>
      <trkpt lat="45.63339" lon="4.69311">
        <ele>353</ele>
        <time>2015-10-18T09:21:24.393Z</time>
      </trkpt>
      <trkpt lat="45.63336" lon="4.69314">
        <ele>353</ele>
        <time>2015-10-18T09:21:25.357Z</time>
      </trkpt>
      <trkpt lat="45.63327" lon="4.69316">
        <ele>352</ele>
        <time>2015-10-18T09:21:27.439Z</time>
      </trkpt>
      <trkpt lat="45.63323" lon="4.69318">
        <ele>351</ele>
        <time>2015-10-18T09:21:28.360Z</time>
      </trkpt>
      <trkpt lat="45.63318" lon="4.6932">
        <ele>351</ele>
        <time>2015-10-18T09:21:29.396Z</time>
      </trkpt>
      <trkpt lat="45.63314" lon="4.69322">
        <ele>351</ele>
        <time>2015-10-18T09:21:30.361Z</time>
      </trkpt>
      <trkpt lat="45.6331" lon="4.69324">
        <ele>351</ele>
        <time>2015-10-18T09:21:31.393Z</time>
      </trkpt>
      <trkpt lat="45.63304" lon="4.69326">
        <ele>351</ele>
        <time>2015-10-18T09:21:32.375Z</time>
      </trkpt>
      <trkpt lat="45.63296" lon="4.69329">
        <ele>351</ele>
        <time>2015-10-18T09:21:34.390Z</time>
      </trkpt>
      <trkpt lat="45.63292" lon="4.69331">
        <ele>351</ele>
        <time>2015-10-18T09:21:35.358Z</time>
      </trkpt>
      <trkpt lat="45.63287" lon="4.69333">
        <ele>351</ele>
        <time>2015-10-18T09:21:36.379Z</time>
      </trkpt>
      <trkpt lat="45.63282" lon="4.69335">
        <ele>351</ele>
        <time>2015-10-18T09:21:37.365Z</time>
      </trkpt>
      <trkpt lat="45.63278" lon="4.69337">
        <ele>350</ele>
        <time>2015-10-18T09:21:38.418Z</time>
      </trkpt>
      <trkpt lat="45.63272" lon="4.69339">
        <ele>350</ele>
        <time>2015-10-18T09:21:39.359Z</time>
      </trkpt>
      <trkpt lat="45.63268" lon="4.69342">
        <ele>350</ele>
        <time>2015-10-18T09:21:40.390Z</time>
      </trkpt>
      <trkpt lat="45.63264" lon="4.69344">
        <ele>350</ele>
        <time>2015-10-18T09:21:41.362Z</time>
      </trkpt>
      <trkpt lat="45.63258" lon="4.69344">
        <ele>350</ele>
        <time>2015-10-18T09:21:42.391Z</time>
      </trkpt>
      <trkpt lat="45.63254" lon="4.69346">
        <ele>350</ele>
        <time>2015-10-18T09:21:43.360Z</time>
      </trkpt>
      <trkpt lat="45.6325" lon="4.69348">
        <ele>349</ele>
        <time>2015-10-18T09:21:44.376Z</time>
      </trkpt>
      <trkpt lat="45.63245" lon="4.6935">
        <ele>349</ele>
        <time>2015-10-18T09:21:45.359Z</time>
      </trkpt>
      <trkpt lat="45.63237" lon="4.69352">
        <ele>349</ele>
        <time>2015-10-18T09:21:47.384Z</time>
      </trkpt>
      <trkpt lat="45.63233" lon="4.69354">
        <ele>349</ele>
        <time>2015-10-18T09:21:48.360Z</time>
      </trkpt>
      <trkpt lat="45.63228" lon="4.69357">
        <ele>349</ele>
        <time>2015-10-18T09:21:49.413Z</time>
      </trkpt>
      <trkpt lat="45.63224" lon="4.69359">
        <ele>349</ele>
        <time>2015-10-18T09:21:50.361Z</time>
      </trkpt>
      <trkpt lat="45.63215" lon="4.69361">
        <ele>348</ele>
        <time>2015-10-18T09:21:52.399Z</time>
      </trkpt>
      <trkpt lat="45.63211" lon="4.69361">
        <ele>348</ele>
        <time>2015-10-18T09:21:53.365Z</time>
      </trkpt>
      <trkpt lat="45.63204" lon="4.69361">
        <ele>348</ele>
        <time>2015-10-18T09:21:55.391Z</time>
      </trkpt>
      <trkpt lat="45.632" lon="4.69359">
        <ele>348</ele>
        <time>2015-10-18T09:21:56.354Z</time>
      </trkpt>
      <trkpt lat="45.63194" lon="4.69352">
        <ele>348</ele>
        <time>2015-10-18T09:21:58.399Z</time>
      </trkpt>
      <trkpt lat="45.63192" lon="4.69346">
        <ele>348</ele>
        <time>2015-10-18T09:21:59.355Z</time>
      </trkpt>
      <trkpt lat="45.63189" lon="4.69335">
        <ele>348</ele>
        <time>2015-10-18T09:22:01.399Z</time>
      </trkpt>
      <trkpt lat="45.63187" lon="4.69329">
        <ele>349</ele>
        <time>2015-10-18T09:22:02.358Z</time>
      </trkpt>
      <trkpt lat="45.63182" lon="4.6932">
        <ele>349</ele>
        <time>2015-10-18T09:22:04.396Z</time>
      </trkpt>
      <trkpt lat="45.63181" lon="4.69314">
        <ele>349</ele>
        <time>2015-10-18T09:22:05.354Z</time>
      </trkpt>
      <trkpt lat="45.63177" lon="4.69303">
        <ele>349</ele>
        <time>2015-10-18T09:22:07.393Z</time>
      </trkpt>
      <trkpt lat="45.63175" lon="4.69296">
        <ele>349</ele>
        <time>2015-10-18T09:22:08.357Z</time>
      </trkpt>
      <trkpt lat="45.6317" lon="4.69286">
        <ele>349</ele>
        <time>2015-10-18T09:22:10.389Z</time>
      </trkpt>
      <trkpt lat="45.63168" lon="4.69279">
        <ele>349</ele>
        <time>2015-10-18T09:22:11.360Z</time>
      </trkpt>
      <trkpt lat="45.63164" lon="4.69269">
        <ele>349</ele>
        <time>2015-10-18T09:22:13.387Z</time>
      </trkpt>
      <trkpt lat="45.63163" lon="4.69262">
        <ele>349</ele>
        <time>2015-10-18T09:22:14.359Z</time>
      </trkpt>
      <trkpt lat="45.63161" lon="4.69258">
        <ele>349</ele>
        <time>2015-10-18T09:22:15.385Z</time>
      </trkpt>
      <trkpt lat="45.63157" lon="4.69251">
        <ele>349</ele>
        <time>2015-10-18T09:22:16.360Z</time>
      </trkpt>
      <trkpt lat="45.63155" lon="4.69241">
        <ele>349</ele>
        <time>2015-10-18T09:22:18.394Z</time>
      </trkpt>
      <trkpt lat="45.63153" lon="4.69236">
        <ele>349</ele>
        <time>2015-10-18T09:22:19.354Z</time>
      </trkpt>
      <trkpt lat="45.63149" lon="4.69226">
        <ele>349</ele>
        <time>2015-10-18T09:22:21.412Z</time>
      </trkpt>
      <trkpt lat="45.63148" lon="4.69221">
        <ele>348</ele>
        <time>2015-10-18T09:22:22.358Z</time>
      </trkpt>
      <trkpt lat="45.63145" lon="4.69211">
        <ele>348</ele>
        <time>2015-10-18T09:22:24.388Z</time>
      </trkpt>
      <trkpt lat="45.63143" lon="4.69206">
        <ele>348</ele>
        <time>2015-10-18T09:22:25.359Z</time>
      </trkpt>
      <trkpt lat="45.63141" lon="4.69198">
        <ele>348</ele>
        <time>2015-10-18T09:22:27.407Z</time>
      </trkpt>
      <trkpt lat="45.6314" lon="4.69193">
        <ele>348</ele>
        <time>2015-10-18T09:22:28.357Z</time>
      </trkpt>
      <trkpt lat="45.63137" lon="4.69183">
        <ele>348</ele>
        <time>2015-10-18T09:22:32.390Z</time>
      </trkpt>
      <trkpt lat="45.63136" lon="4.69181">
        <ele>348</ele>
        <time>2015-10-18T09:22:33.354Z</time>
      </trkpt>
      <trkpt lat="45.63131" lon="4.69174">
        <ele>348</ele>
        <time>2015-10-18T09:22:35.392Z</time>
      </trkpt>
      <trkpt lat="45.63127" lon="4.69172">
        <ele>348</ele>
        <time>2015-10-18T09:22:36.359Z</time>
      </trkpt>
      <trkpt lat="45.63123" lon="4.69174">
        <ele>348</ele>
        <time>2015-10-18T09:22:37.383Z</time>
      </trkpt>
      <trkpt lat="45.63119" lon="4.69178">
        <ele>348</ele>
        <time>2015-10-18T09:22:38.370Z</time>
      </trkpt>
      <trkpt lat="45.63111" lon="4.69185">
        <ele>348</ele>
        <time>2015-10-18T09:22:40.402Z</time>
      </trkpt>
      <trkpt lat="45.63108" lon="4.69189">
        <ele>348</ele>
        <time>2015-10-18T09:22:41.355Z</time>
      </trkpt>
      <trkpt lat="45.63104" lon="4.69193">
        <ele>348</ele>
        <time>2015-10-18T09:22:42.390Z</time>
      </trkpt>
      <trkpt lat="45.63101" lon="4.692">
        <ele>348</ele>
        <time>2015-10-18T09:22:43.359Z</time>
      </trkpt>
      <trkpt lat="45.63093" lon="4.69206">
        <ele>348</ele>
        <time>2015-10-18T09:22:45.383Z</time>
      </trkpt>
      <trkpt lat="45.63089" lon="4.69211">
        <ele>348</ele>
        <time>2015-10-18T09:22:46.362Z</time>
      </trkpt>
      <trkpt lat="45.63084" lon="4.69215">
        <ele>348</ele>
        <time>2015-10-18T09:22:48.392Z</time>
      </trkpt>
      <trkpt lat="45.6308" lon="4.69219">
        <ele>348</ele>
        <time>2015-10-18T09:22:49.355Z</time>
      </trkpt>
      <trkpt lat="45.63076" lon="4.69223">
        <ele>348</ele>
        <time>2015-10-18T09:22:50.382Z</time>
      </trkpt>
      <trkpt lat="45.63072" lon="4.69223">
        <ele>348</ele>
        <time>2015-10-18T09:22:51.360Z</time>
      </trkpt>
      <trkpt lat="45.63067" lon="4.69215">
        <ele>348</ele>
        <time>2015-10-18T09:22:53.398Z</time>
      </trkpt>
      <trkpt lat="45.63066" lon="4.69208">
        <ele>348</ele>
        <time>2015-10-18T09:22:54.355Z</time>
      </trkpt>
      <trkpt lat="45.63064" lon="4.69202">
        <ele>348</ele>
        <time>2015-10-18T09:22:55.385Z</time>
      </trkpt>
      <trkpt lat="45.63062" lon="4.69196">
        <ele>348</ele>
        <time>2015-10-18T09:22:56.359Z</time>
      </trkpt>
      <trkpt lat="45.6306" lon="4.69189">
        <ele>348</ele>
        <time>2015-10-18T09:22:57.379Z</time>
      </trkpt>
      <trkpt lat="45.63057" lon="4.69183">
        <ele>348</ele>
        <time>2015-10-18T09:22:58.357Z</time>
      </trkpt>
      <trkpt lat="45.63054" lon="4.69176">
        <ele>348</ele>
        <time>2015-10-18T09:22:59.391Z</time>
      </trkpt>
      <trkpt lat="45.63053" lon="4.6917">
        <ele>348</ele>
        <time>2015-10-18T09:23:00.360Z</time>
      </trkpt>
      <trkpt lat="45.63051" lon="4.69163">
        <ele>348</ele>
        <time>2015-10-18T09:23:01.390Z</time>
      </trkpt>
      <trkpt lat="45.63048" lon="4.69159">
        <ele>348</ele>
        <time>2015-10-18T09:23:02.356Z</time>
      </trkpt>
      <trkpt lat="45.63044" lon="4.69155">
        <ele>348</ele>
        <time>2015-10-18T09:23:03.391Z</time>
      </trkpt>
      <trkpt lat="45.63038" lon="4.69155">
        <ele>349</ele>
        <time>2015-10-18T09:23:04.364Z</time>
      </trkpt>
      <trkpt lat="45.63032" lon="4.69157">
        <ele>349</ele>
        <time>2015-10-18T09:23:05.397Z</time>
      </trkpt>
      <trkpt lat="45.63028" lon="4.69157">
        <ele>349</ele>
        <time>2015-10-18T09:23:06.362Z</time>
      </trkpt>
      <trkpt lat="45.63021" lon="4.69161">
        <ele>349</ele>
        <time>2015-10-18T09:23:07.372Z</time>
      </trkpt>
      <trkpt lat="45.63016" lon="4.69163">
        <ele>349</ele>
        <time>2015-10-18T09:23:08.361Z</time>
      </trkpt>
      <trkpt lat="45.63012" lon="4.69166">
        <ele>349</ele>
        <time>2015-10-18T09:23:09.390Z</time>
      </trkpt>
      <trkpt lat="45.63006" lon="4.69168">
        <ele>350</ele>
        <time>2015-10-18T09:23:10.359Z</time>
      </trkpt>
      <trkpt lat="45.63001" lon="4.6917">
        <ele>350</ele>
        <time>2015-10-18T09:23:11.395Z</time>
      </trkpt>
      <trkpt lat="45.62995" lon="4.6917">
        <ele>350</ele>
        <time>2015-10-18T09:23:12.361Z</time>
      </trkpt>
      <trkpt lat="45.62991" lon="4.69172">
        <ele>349</ele>
        <time>2015-10-18T09:23:13.390Z</time>
      </trkpt>
      <trkpt lat="45.62986" lon="4.69174">
        <ele>349</ele>
        <time>2015-10-18T09:23:14.360Z</time>
      </trkpt>
      <trkpt lat="45.6298" lon="4.69176">
        <ele>349</ele>
        <time>2015-10-18T09:23:15.387Z</time>
      </trkpt>
      <trkpt lat="45.62976" lon="4.69178">
        <ele>349</ele>
        <time>2015-10-18T09:23:16.352Z</time>
      </trkpt>
      <trkpt lat="45.62971" lon="4.69181">
        <ele>349</ele>
        <time>2015-10-18T09:23:17.390Z</time>
      </trkpt>
      <trkpt lat="45.62966" lon="4.69183">
        <ele>349</ele>
        <time>2015-10-18T09:23:18.357Z</time>
      </trkpt>
      <trkpt lat="45.62961" lon="4.69185">
        <ele>349</ele>
        <time>2015-10-18T09:23:19.379Z</time>
      </trkpt>
      <trkpt lat="45.62956" lon="4.69187">
        <ele>349</ele>
        <time>2015-10-18T09:23:20.361Z</time>
      </trkpt>
      <trkpt lat="45.6295" lon="4.69187">
        <ele>349</ele>
        <time>2015-10-18T09:23:21.394Z</time>
      </trkpt>
      <trkpt lat="45.62945" lon="4.69187">
        <ele>349</ele>
        <time>2015-10-18T09:23:22.359Z</time>
      </trkpt>
      <trkpt lat="45.6294" lon="4.69189">
        <ele>349</ele>
        <time>2015-10-18T09:23:23.384Z</time>
      </trkpt>
      <trkpt lat="45.62934" lon="4.69191">
        <ele>349</ele>
        <time>2015-10-18T09:23:24.355Z</time>
      </trkpt>
      <trkpt lat="45.62929" lon="4.69193">
        <ele>349</ele>
        <time>2015-10-18T09:23:25.387Z</time>
      </trkpt>
      <trkpt lat="45.62924" lon="4.69198">
        <ele>349</ele>
        <time>2015-10-18T09:23:26.360Z</time>
      </trkpt>
      <trkpt lat="45.62918" lon="4.692">
        <ele>348</ele>
        <time>2015-10-18T09:23:27.395Z</time>
      </trkpt>
      <trkpt lat="45.62913" lon="4.69202">
        <ele>348</ele>
        <time>2015-10-18T09:23:28.364Z</time>
      </trkpt>
      <trkpt lat="45.62909" lon="4.69204">
        <ele>348</ele>
        <time>2015-10-18T09:23:29.380Z</time>
      </trkpt>
      <trkpt lat="45.62903" lon="4.69208">
        <ele>348</ele>
        <time>2015-10-18T09:23:30.359Z</time>
      </trkpt>
      <trkpt lat="45.62898" lon="4.69211">
        <ele>348</ele>
        <time>2015-10-18T09:23:31.393Z</time>
      </trkpt>
      <trkpt lat="45.62892" lon="4.69215">
        <ele>348</ele>
        <time>2015-10-18T09:23:32.360Z</time>
      </trkpt>
      <trkpt lat="45.62887" lon="4.69219">
        <ele>348</ele>
        <time>2015-10-18T09:23:33.386Z</time>
      </trkpt>
      <trkpt lat="45.62882" lon="4.69221">
        <ele>348</ele>
        <time>2015-10-18T09:23:34.359Z</time>
      </trkpt>
      <trkpt lat="45.62877" lon="4.69223">
        <ele>348</ele>
        <time>2015-10-18T09:23:35.387Z</time>
      </trkpt>
      <trkpt lat="45.62872" lon="4.69228">
        <ele>348</ele>
        <time>2015-10-18T09:23:36.364Z</time>
      </trkpt>
      <trkpt lat="45.62868" lon="4.69232">
        <ele>348</ele>
        <time>2015-10-18T09:23:37.393Z</time>
      </trkpt>
      <trkpt lat="45.62862" lon="4.69234">
        <ele>348</ele>
        <time>2015-10-18T09:23:38.383Z</time>
      </trkpt>
      <trkpt lat="45.62857" lon="4.69239">
        <ele>348</ele>
        <time>2015-10-18T09:23:39.377Z</time>
      </trkpt>
      <trkpt lat="45.62853" lon="4.69243">
        <ele>348</ele>
        <time>2015-10-18T09:23:40.357Z</time>
      </trkpt>
      <trkpt lat="45.62847" lon="4.69245">
        <ele>348</ele>
        <time>2015-10-18T09:23:41.390Z</time>
      </trkpt>
      <trkpt lat="45.62841" lon="4.69249">
        <ele>348</ele>
        <time>2015-10-18T09:23:42.361Z</time>
      </trkpt>
      <trkpt lat="45.62836" lon="4.69254">
        <ele>348</ele>
        <time>2015-10-18T09:23:43.379Z</time>
      </trkpt>
      <trkpt lat="45.6283" lon="4.69256">
        <ele>348</ele>
        <time>2015-10-18T09:23:44.358Z</time>
      </trkpt>
      <trkpt lat="45.62824" lon="4.6926">
        <ele>348</ele>
        <time>2015-10-18T09:23:45.389Z</time>
      </trkpt>
      <trkpt lat="45.62818" lon="4.69264">
        <ele>348</ele>
        <time>2015-10-18T09:23:46.355Z</time>
      </trkpt>
      <trkpt lat="45.62812" lon="4.69266">
        <ele>348</ele>
        <time>2015-10-18T09:23:47.390Z</time>
      </trkpt>
      <trkpt lat="45.62807" lon="4.69271">
        <ele>347</ele>
        <time>2015-10-18T09:23:48.358Z</time>
      </trkpt>
      <trkpt lat="45.62801" lon="4.69275">
        <ele>347</ele>
        <time>2015-10-18T09:23:49.371Z</time>
      </trkpt>
      <trkpt lat="45.62796" lon="4.69277">
        <ele>347</ele>
        <time>2015-10-18T09:23:50.358Z</time>
      </trkpt>
      <trkpt lat="45.62791" lon="4.69281">
        <ele>347</ele>
        <time>2015-10-18T09:23:51.378Z</time>
      </trkpt>
      <trkpt lat="45.62785" lon="4.69284">
        <ele>347</ele>
        <time>2015-10-18T09:23:52.359Z</time>
      </trkpt>
      <trkpt lat="45.6278" lon="4.69288">
        <ele>347</ele>
        <time>2015-10-18T09:23:53.382Z</time>
      </trkpt>
      <trkpt lat="45.62774" lon="4.69292">
        <ele>347</ele>
        <time>2015-10-18T09:23:54.355Z</time>
      </trkpt>
      <trkpt lat="45.62769" lon="4.69294">
        <ele>347</ele>
        <time>2015-10-18T09:23:55.381Z</time>
      </trkpt>
      <trkpt lat="45.62763" lon="4.69299">
        <ele>347</ele>
        <time>2015-10-18T09:23:56.358Z</time>
      </trkpt>
      <trkpt lat="45.62758" lon="4.69303">
        <ele>347</ele>
        <time>2015-10-18T09:23:57.381Z</time>
      </trkpt>
      <trkpt lat="45.62752" lon="4.69307">
        <ele>347</ele>
        <time>2015-10-18T09:23:58.358Z</time>
      </trkpt>
      <trkpt lat="45.62748" lon="4.69309">
        <ele>346</ele>
        <time>2015-10-18T09:23:59.375Z</time>
      </trkpt>
      <trkpt lat="45.62741" lon="4.69314">
        <ele>346</ele>
        <time>2015-10-18T09:24:00.357Z</time>
      </trkpt>
      <trkpt lat="45.62735" lon="4.69316">
        <ele>346</ele>
        <time>2015-10-18T09:24:01.378Z</time>
      </trkpt>
      <trkpt lat="45.62728" lon="4.69318">
        <ele>346</ele>
        <time>2015-10-18T09:24:02.359Z</time>
      </trkpt>
      <trkpt lat="45.62721" lon="4.69318">
        <ele>346</ele>
        <time>2015-10-18T09:24:03.389Z</time>
      </trkpt>
      <trkpt lat="45.62714" lon="4.6932">
        <ele>346</ele>
        <time>2015-10-18T09:24:04.346Z</time>
      </trkpt>
      <trkpt lat="45.62707" lon="4.6932">
        <ele>346</ele>
        <time>2015-10-18T09:24:05.370Z</time>
      </trkpt>
      <trkpt lat="45.627" lon="4.6932">
        <ele>346</ele>
        <time>2015-10-18T09:24:06.347Z</time>
      </trkpt>
      <trkpt lat="45.62693" lon="4.6932">
        <ele>346</ele>
        <time>2015-10-18T09:24:07.376Z</time>
      </trkpt>
      <trkpt lat="45.62686" lon="4.69322">
        <ele>346</ele>
        <time>2015-10-18T09:24:08.346Z</time>
      </trkpt>
      <trkpt lat="45.6268" lon="4.69322">
        <ele>346</ele>
        <time>2015-10-18T09:24:09.383Z</time>
      </trkpt>
      <trkpt lat="45.62672" lon="4.69326">
        <ele>345</ele>
        <time>2015-10-18T09:24:10.392Z</time>
      </trkpt>
      <trkpt lat="45.62666" lon="4.69331">
        <ele>345</ele>
        <time>2015-10-18T09:24:11.384Z</time>
      </trkpt>
      <trkpt lat="45.6266" lon="4.69335">
        <ele>344</ele>
        <time>2015-10-18T09:24:12.357Z</time>
      </trkpt>
      <trkpt lat="45.62653" lon="4.69342">
        <ele>343</ele>
        <time>2015-10-18T09:24:13.382Z</time>
      </trkpt>
      <trkpt lat="45.62646" lon="4.69348">
        <ele>343</ele>
        <time>2015-10-18T09:24:14.347Z</time>
      </trkpt>
      <trkpt lat="45.62639" lon="4.69352">
        <ele>342</ele>
        <time>2015-10-18T09:24:15.368Z</time>
      </trkpt>
      <trkpt lat="45.62632" lon="4.69359">
        <ele>342</ele>
        <time>2015-10-18T09:24:16.344Z</time>
      </trkpt>
      <trkpt lat="45.62625" lon="4.69363">
        <ele>342</ele>
        <time>2015-10-18T09:24:17.391Z</time>
      </trkpt>
      <trkpt lat="45.6262" lon="4.69369">
        <ele>342</ele>
        <time>2015-10-18T09:24:18.361Z</time>
      </trkpt>
      <trkpt lat="45.62613" lon="4.69374">
        <ele>341</ele>
        <time>2015-10-18T09:24:19.372Z</time>
      </trkpt>
      <trkpt lat="45.62608" lon="4.69378">
        <ele>341</ele>
        <time>2015-10-18T09:24:20.355Z</time>
      </trkpt>
      <trkpt lat="45.62602" lon="4.6938">
        <ele>341</ele>
        <time>2015-10-18T09:24:21.400Z</time>
      </trkpt>
      <trkpt lat="45.62595" lon="4.69382">
        <ele>341</ele>
        <time>2015-10-18T09:24:22.352Z</time>
      </trkpt>
      <trkpt lat="45.62589" lon="4.69384">
        <ele>341</ele>
        <time>2015-10-18T09:24:23.391Z</time>
      </trkpt>
      <trkpt lat="45.62581" lon="4.69387">
        <ele>338</ele>
        <time>2015-10-18T09:24:24.359Z</time>
      </trkpt>
      <trkpt lat="45.62575" lon="4.69384">
        <ele>338</ele>
        <time>2015-10-18T09:24:25.391Z</time>
      </trkpt>
      <trkpt lat="45.62567" lon="4.69384">
        <ele>338</ele>
        <time>2015-10-18T09:24:26.356Z</time>
      </trkpt>
      <trkpt lat="45.62561" lon="4.6938">
        <ele>338</ele>
        <time>2015-10-18T09:24:27.395Z</time>
      </trkpt>
      <trkpt lat="45.62553" lon="4.69376">
        <ele>338</ele>
        <time>2015-10-18T09:24:28.358Z</time>
      </trkpt>
      <trkpt lat="45.62553" lon="4.69376">
        <ele>338</ele>
        <time>2015-10-18T09:24:28.392Z</time>
      </trkpt>
      <trkpt lat="45.62545" lon="4.69372">
        <ele>338</ele>
        <time>2015-10-18T09:24:29.350Z</time>
      </trkpt>
      <trkpt lat="45.62538" lon="4.69369">
        <ele>338</ele>
        <time>2015-10-18T09:24:30.390Z</time>
      </trkpt>
      <trkpt lat="45.62531" lon="4.69365">
        <ele>338</ele>
        <time>2015-10-18T09:24:31.359Z</time>
      </trkpt>
      <trkpt lat="45.62524" lon="4.69361">
        <ele>338</ele>
        <time>2015-10-18T09:24:32.380Z</time>
      </trkpt>
      <trkpt lat="45.62518" lon="4.69357">
        <ele>337</ele>
        <time>2015-10-18T09:24:33.362Z</time>
      </trkpt>
      <trkpt lat="45.62512" lon="4.69354">
        <ele>337</ele>
        <time>2015-10-18T09:24:34.387Z</time>
      </trkpt>
      <trkpt lat="45.62505" lon="4.6935">
        <ele>337</ele>
        <time>2015-10-18T09:24:35.363Z</time>
      </trkpt>
      <trkpt lat="45.62499" lon="4.69348">
        <ele>336</ele>
        <time>2015-10-18T09:24:36.390Z</time>
      </trkpt>
      <trkpt lat="45.62493" lon="4.69344">
        <ele>336</ele>
        <time>2015-10-18T09:24:37.360Z</time>
      </trkpt>
      <trkpt lat="45.62487" lon="4.69342">
        <ele>336</ele>
        <time>2015-10-18T09:24:38.390Z</time>
      </trkpt>
      <trkpt lat="45.62482" lon="4.69339">
        <ele>335</ele>
        <time>2015-10-18T09:24:39.357Z</time>
      </trkpt>
      <trkpt lat="45.62476" lon="4.69335">
        <ele>335</ele>
        <time>2015-10-18T09:24:40.388Z</time>
      </trkpt>
      <trkpt lat="45.6247" lon="4.69333">
        <ele>336</ele>
        <time>2015-10-18T09:24:41.355Z</time>
      </trkpt>
      <trkpt lat="45.62464" lon="4.69329">
        <ele>336</ele>
        <time>2015-10-18T09:24:42.405Z</time>
      </trkpt>
      <trkpt lat="45.6246" lon="4.69326">
        <ele>336</ele>
        <time>2015-10-18T09:24:43.356Z</time>
      </trkpt>
      <trkpt lat="45.62455" lon="4.69322">
        <ele>335</ele>
        <time>2015-10-18T09:24:44.373Z</time>
      </trkpt>
      <trkpt lat="45.62449" lon="4.6932">
        <ele>335</ele>
        <time>2015-10-18T09:24:45.357Z</time>
      </trkpt>
      <trkpt lat="45.62443" lon="4.69318">
        <ele>335</ele>
        <time>2015-10-18T09:24:46.375Z</time>
      </trkpt>
      <trkpt lat="45.62438" lon="4.69314">
        <ele>335</ele>
        <time>2015-10-18T09:24:47.359Z</time>
      </trkpt>
      <trkpt lat="45.62432" lon="4.69311">
        <ele>335</ele>
        <time>2015-10-18T09:24:48.384Z</time>
      </trkpt>
      <trkpt lat="45.62427" lon="4.69309">
        <ele>335</ele>
        <time>2015-10-18T09:24:49.354Z</time>
      </trkpt>
      <trkpt lat="45.6242" lon="4.69305">
        <ele>335</ele>
        <time>2015-10-18T09:24:50.383Z</time>
      </trkpt>
      <trkpt lat="45.62414" lon="4.69301">
        <ele>332</ele>
        <time>2015-10-18T09:24:51.354Z</time>
      </trkpt>
      <trkpt lat="45.62407" lon="4.69296">
        <ele>331</ele>
        <time>2015-10-18T09:24:52.396Z</time>
      </trkpt>
      <trkpt lat="45.62403" lon="4.69294">
        <ele>331</ele>
        <time>2015-10-18T09:24:53.340Z</time>
      </trkpt>
      <trkpt lat="45.62398" lon="4.69288">
        <ele>331</ele>
        <time>2015-10-18T09:24:54.369Z</time>
      </trkpt>
      <trkpt lat="45.62394" lon="4.69281">
        <ele>331</ele>
        <time>2015-10-18T09:24:55.351Z</time>
      </trkpt>
      <trkpt lat="45.62389" lon="4.69277">
        <ele>331</ele>
        <time>2015-10-18T09:24:56.374Z</time>
      </trkpt>
      <trkpt lat="45.62384" lon="4.69273">
        <ele>331</ele>
        <time>2015-10-18T09:24:57.357Z</time>
      </trkpt>
      <trkpt lat="45.62375" lon="4.69273">
        <ele>330</ele>
        <time>2015-10-18T09:24:59.371Z</time>
      </trkpt>
      <trkpt lat="45.62372" lon="4.69271">
        <ele>330</ele>
        <time>2015-10-18T09:25:00.358Z</time>
      </trkpt>
      <trkpt lat="45.62365" lon="4.69271">
        <ele>330</ele>
        <time>2015-10-18T09:25:02.385Z</time>
      </trkpt>
      <trkpt lat="45.62361" lon="4.69269">
        <ele>329</ele>
        <time>2015-10-18T09:25:03.357Z</time>
      </trkpt>
      <trkpt lat="45.62357" lon="4.69266">
        <ele>329</ele>
        <time>2015-10-18T09:25:04.390Z</time>
      </trkpt>
      <trkpt lat="45.62352" lon="4.69264">
        <ele>329</ele>
        <time>2015-10-18T09:25:05.356Z</time>
      </trkpt>
      <trkpt lat="45.62346" lon="4.6926">
        <ele>328</ele>
        <time>2015-10-18T09:25:06.390Z</time>
      </trkpt>
      <trkpt lat="45.6234" lon="4.69258">
        <ele>328</ele>
        <time>2015-10-18T09:25:07.357Z</time>
      </trkpt>
      <trkpt lat="45.62335" lon="4.69256">
        <ele>328</ele>
        <time>2015-10-18T09:25:08.389Z</time>
      </trkpt>
      <trkpt lat="45.62328" lon="4.69251">
        <ele>326</ele>
        <time>2015-10-18T09:25:09.356Z</time>
      </trkpt>
      <trkpt lat="45.62322" lon="4.69249">
        <ele>325</ele>
        <time>2015-10-18T09:25:10.399Z</time>
      </trkpt>
      <trkpt lat="45.62316" lon="4.69249">
        <ele>325</ele>
        <time>2015-10-18T09:25:11.356Z</time>
      </trkpt>
      <trkpt lat="45.6231" lon="4.69245">
        <ele>324</ele>
        <time>2015-10-18T09:25:12.378Z</time>
      </trkpt>
      <trkpt lat="45.62303" lon="4.69243">
        <ele>324</ele>
        <time>2015-10-18T09:25:13.358Z</time>
      </trkpt>
      <trkpt lat="45.62297" lon="4.69241">
        <ele>323</ele>
        <time>2015-10-18T09:25:14.383Z</time>
      </trkpt>
      <trkpt lat="45.62291" lon="4.69236">
        <ele>323</ele>
        <time>2015-10-18T09:25:15.356Z</time>
      </trkpt>
      <trkpt lat="45.62285" lon="4.69234">
        <ele>323</ele>
        <time>2015-10-18T09:25:16.402Z</time>
      </trkpt>
      <trkpt lat="45.62281" lon="4.69234">
        <ele>323</ele>
        <time>2015-10-18T09:25:17.355Z</time>
      </trkpt>
      <trkpt lat="45.62277" lon="4.69245">
        <ele>322</ele>
        <time>2015-10-18T09:25:21.406Z</time>
      </trkpt>
      <trkpt lat="45.62276" lon="4.69249">
        <ele>322</ele>
        <time>2015-10-18T09:25:22.357Z</time>
      </trkpt>
      <trkpt lat="45.62272" lon="4.69256">
        <ele>322</ele>
        <time>2015-10-18T09:25:23.374Z</time>
      </trkpt>
      <trkpt lat="45.62269" lon="4.69262">
        <ele>322</ele>
        <time>2015-10-18T09:25:24.358Z</time>
      </trkpt>
      <trkpt lat="45.62267" lon="4.69269">
        <ele>322</ele>
        <time>2015-10-18T09:25:25.368Z</time>
      </trkpt>
      <trkpt lat="45.62263" lon="4.69277">
        <ele>322</ele>
        <time>2015-10-18T09:25:26.357Z</time>
      </trkpt>
      <trkpt lat="45.62259" lon="4.69286">
        <ele>322</ele>
        <time>2015-10-18T09:25:27.382Z</time>
      </trkpt>
      <trkpt lat="45.62255" lon="4.69294">
        <ele>322</ele>
        <time>2015-10-18T09:25:28.358Z</time>
      </trkpt>
      <trkpt lat="45.62251" lon="4.69303">
        <ele>322</ele>
        <time>2015-10-18T09:25:29.367Z</time>
      </trkpt>
      <trkpt lat="45.62247" lon="4.69314">
        <ele>320</ele>
        <time>2015-10-18T09:25:30.345Z</time>
      </trkpt>
      <trkpt lat="45.62243" lon="4.69322">
        <ele>320</ele>
        <time>2015-10-18T09:25:31.381Z</time>
      </trkpt>
      <trkpt lat="45.6224" lon="4.69331">
        <ele>320</ele>
        <time>2015-10-18T09:25:32.355Z</time>
      </trkpt>
      <trkpt lat="45.62236" lon="4.69339">
        <ele>320</ele>
        <time>2015-10-18T09:25:33.396Z</time>
      </trkpt>
      <trkpt lat="45.62233" lon="4.69348">
        <ele>320</ele>
        <time>2015-10-18T09:25:34.377Z</time>
      </trkpt>
      <trkpt lat="45.62229" lon="4.69357">
        <ele>320</ele>
        <time>2015-10-18T09:25:35.393Z</time>
      </trkpt>
      <trkpt lat="45.62225" lon="4.69365">
        <ele>320</ele>
        <time>2015-10-18T09:25:36.359Z</time>
      </trkpt>
      <trkpt lat="45.62221" lon="4.69372">
        <ele>320</ele>
        <time>2015-10-18T09:25:37.388Z</time>
      </trkpt>
      <trkpt lat="45.62218" lon="4.6938">
        <ele>320</ele>
        <time>2015-10-18T09:25:38.358Z</time>
      </trkpt>
      <trkpt lat="45.62214" lon="4.69387">
        <ele>320</ele>
        <time>2015-10-18T09:25:39.387Z</time>
      </trkpt>
      <trkpt lat="45.62211" lon="4.69395">
        <ele>320</ele>
        <time>2015-10-18T09:25:40.354Z</time>
      </trkpt>
      <trkpt lat="45.62208" lon="4.69402">
        <ele>319</ele>
        <time>2015-10-18T09:25:41.377Z</time>
      </trkpt>
      <trkpt lat="45.62204" lon="4.6941">
        <ele>319</ele>
        <time>2015-10-18T09:25:42.363Z</time>
      </trkpt>
      <trkpt lat="45.62201" lon="4.69417">
        <ele>319</ele>
        <time>2015-10-18T09:25:43.381Z</time>
      </trkpt>
      <trkpt lat="45.62198" lon="4.69423">
        <ele>319</ele>
        <time>2015-10-18T09:25:44.370Z</time>
      </trkpt>
      <trkpt lat="45.62195" lon="4.69429">
        <ele>319</ele>
        <time>2015-10-18T09:25:45.381Z</time>
      </trkpt>
      <trkpt lat="45.62192" lon="4.69436">
        <ele>319</ele>
        <time>2015-10-18T09:25:46.361Z</time>
      </trkpt>
      <trkpt lat="45.6219" lon="4.69445">
        <ele>319</ele>
        <time>2015-10-18T09:25:47.383Z</time>
      </trkpt>
      <trkpt lat="45.62186" lon="4.69451">
        <ele>319</ele>
        <time>2015-10-18T09:25:48.356Z</time>
      </trkpt>
      <trkpt lat="45.62183" lon="4.69457">
        <ele>319</ele>
        <time>2015-10-18T09:25:49.373Z</time>
      </trkpt>
      <trkpt lat="45.62181" lon="4.69464">
        <ele>319</ele>
        <time>2015-10-18T09:25:50.361Z</time>
      </trkpt>
      <trkpt lat="45.62178" lon="4.69468">
        <ele>319</ele>
        <time>2015-10-18T09:25:51.373Z</time>
      </trkpt>
      <trkpt lat="45.62176" lon="4.69475">
        <ele>319</ele>
        <time>2015-10-18T09:25:52.358Z</time>
      </trkpt>
      <trkpt lat="45.62173" lon="4.69483">
        <ele>319</ele>
        <time>2015-10-18T09:25:53.384Z</time>
      </trkpt>
      <trkpt lat="45.6217" lon="4.6949">
        <ele>319</ele>
        <time>2015-10-18T09:25:54.351Z</time>
      </trkpt>
      <trkpt lat="45.62166" lon="4.69496">
        <ele>317</ele>
        <time>2015-10-18T09:25:55.380Z</time>
      </trkpt>
      <trkpt lat="45.62163" lon="4.69502">
        <ele>317</ele>
        <time>2015-10-18T09:25:56.351Z</time>
      </trkpt>
      <trkpt lat="45.62161" lon="4.69511">
        <ele>317</ele>
        <time>2015-10-18T09:25:57.374Z</time>
      </trkpt>
      <trkpt lat="45.62159" lon="4.6952">
        <ele>316</ele>
        <time>2015-10-18T09:25:58.359Z</time>
      </trkpt>
      <trkpt lat="45.62159" lon="4.6952">
        <ele>316</ele>
        <time>2015-10-18T09:25:58.392Z</time>
      </trkpt>
      <trkpt lat="45.62156" lon="4.69532">
        <ele>316</ele>
        <time>2015-10-18T09:25:59.334Z</time>
      </trkpt>
      <trkpt lat="45.62152" lon="4.69541">
        <ele>316</ele>
        <time>2015-10-18T09:26:00.382Z</time>
      </trkpt>
      <trkpt lat="45.62148" lon="4.6955">
        <ele>316</ele>
        <time>2015-10-18T09:26:01.352Z</time>
      </trkpt>
      <trkpt lat="45.62146" lon="4.69558">
        <ele>316</ele>
        <time>2015-10-18T09:26:02.379Z</time>
      </trkpt>
      <trkpt lat="45.62141" lon="4.69565">
        <ele>316</ele>
        <time>2015-10-18T09:26:03.346Z</time>
      </trkpt>
      <trkpt lat="45.62137" lon="4.69567">
        <ele>316</ele>
        <time>2015-10-18T09:26:04.376Z</time>
      </trkpt>
      <trkpt lat="45.62132" lon="4.69565">
        <ele>315</ele>
        <time>2015-10-18T09:26:05.339Z</time>
      </trkpt>
      <trkpt lat="45.62126" lon="4.6956">
        <ele>315</ele>
        <time>2015-10-18T09:26:06.371Z</time>
      </trkpt>
      <trkpt lat="45.62121" lon="4.6956">
        <ele>315</ele>
        <time>2015-10-18T09:26:07.322Z</time>
      </trkpt>
      <trkpt lat="45.62118" lon="4.69571">
        <ele>315</ele>
        <time>2015-10-18T09:26:09.369Z</time>
      </trkpt>
      <trkpt lat="45.62117" lon="4.6958">
        <ele>315</ele>
        <time>2015-10-18T09:26:10.374Z</time>
      </trkpt>
      <trkpt lat="45.62117" lon="4.69588">
        <ele>315</ele>
        <time>2015-10-18T09:26:11.389Z</time>
      </trkpt>
      <trkpt lat="45.62116" lon="4.69597">
        <ele>315</ele>
        <time>2015-10-18T09:26:12.357Z</time>
      </trkpt>
      <trkpt lat="45.62112" lon="4.69608">
        <ele>315</ele>
        <time>2015-10-18T09:26:14.392Z</time>
      </trkpt>
      <trkpt lat="45.62109" lon="4.69612">
        <ele>314</ele>
        <time>2015-10-18T09:26:15.356Z</time>
      </trkpt>
      <trkpt lat="45.62102" lon="4.69618">
        <ele>314</ele>
        <time>2015-10-18T09:26:17.389Z</time>
      </trkpt>
      <trkpt lat="45.62097" lon="4.69618">
        <ele>314</ele>
        <time>2015-10-18T09:26:18.353Z</time>
      </trkpt>
      <trkpt lat="45.62092" lon="4.6962">
        <ele>314</ele>
        <time>2015-10-18T09:26:19.384Z</time>
      </trkpt>
      <trkpt lat="45.62087" lon="4.69623">
        <ele>314</ele>
        <time>2015-10-18T09:26:20.352Z</time>
      </trkpt>
      <trkpt lat="45.62079" lon="4.69625">
        <ele>311</ele>
        <time>2015-10-18T09:26:21.400Z</time>
      </trkpt>
      <trkpt lat="45.62074" lon="4.69629">
        <ele>311</ele>
        <time>2015-10-18T09:26:22.363Z</time>
      </trkpt>
      <trkpt lat="45.62067" lon="4.69635">
        <ele>311</ele>
        <time>2015-10-18T09:26:23.378Z</time>
      </trkpt>
      <trkpt lat="45.62062" lon="4.6964">
        <ele>311</ele>
        <time>2015-10-18T09:26:24.352Z</time>
      </trkpt>
      <trkpt lat="45.62057" lon="4.69646">
        <ele>311</ele>
        <time>2015-10-18T09:26:25.373Z</time>
      </trkpt>
      <trkpt lat="45.62052" lon="4.69653">
        <ele>311</ele>
        <time>2015-10-18T09:26:26.361Z</time>
      </trkpt>
      <trkpt lat="45.62047" lon="4.69659">
        <ele>310</ele>
        <time>2015-10-18T09:26:27.503Z</time>
      </trkpt>
      <trkpt lat="45.62043" lon="4.69663">
        <ele>310</ele>
        <time>2015-10-18T09:26:28.358Z</time>
      </trkpt>
      <trkpt lat="45.62039" lon="4.6967">
        <ele>311</ele>
        <time>2015-10-18T09:26:29.382Z</time>
      </trkpt>
      <trkpt lat="45.62036" lon="4.69674">
        <ele>311</ele>
        <time>2015-10-18T09:26:30.357Z</time>
      </trkpt>
      <trkpt lat="45.62032" lon="4.69681">
        <ele>311</ele>
        <time>2015-10-18T09:26:31.393Z</time>
      </trkpt>
      <trkpt lat="45.6203" lon="4.69687">
        <ele>311</ele>
        <time>2015-10-18T09:26:32.354Z</time>
      </trkpt>
      <trkpt lat="45.62027" lon="4.69696">
        <ele>311</ele>
        <time>2015-10-18T09:26:33.400Z</time>
      </trkpt>
      <trkpt lat="45.62024" lon="4.697">
        <ele>311</ele>
        <time>2015-10-18T09:26:34.358Z</time>
      </trkpt>
      <trkpt lat="45.62016" lon="4.697">
        <ele>311</ele>
        <time>2015-10-18T09:26:36.395Z</time>
      </trkpt>
      <trkpt lat="45.62013" lon="4.69696">
        <ele>311</ele>
        <time>2015-10-18T09:26:37.362Z</time>
      </trkpt>
      <trkpt lat="45.62006" lon="4.69687">
        <ele>310</ele>
        <time>2015-10-18T09:26:39.390Z</time>
      </trkpt>
      <trkpt lat="45.62002" lon="4.69683">
        <ele>310</ele>
        <time>2015-10-18T09:26:40.364Z</time>
      </trkpt>
      <trkpt lat="45.61994" lon="4.69676">
        <ele>309</ele>
        <time>2015-10-18T09:26:42.383Z</time>
      </trkpt>
      <trkpt lat="45.6199" lon="4.69672">
        <ele>309</ele>
        <time>2015-10-18T09:26:43.398Z</time>
      </trkpt>
      <trkpt lat="45.61986" lon="4.69668">
        <ele>309</ele>
        <time>2015-10-18T09:26:44.392Z</time>
      </trkpt>
      <trkpt lat="45.61982" lon="4.69666">
        <ele>310</ele>
        <time>2015-10-18T09:26:45.359Z</time>
      </trkpt>
      <trkpt lat="45.61974" lon="4.69663">
        <ele>310</ele>
        <time>2015-10-18T09:26:47.394Z</time>
      </trkpt>
      <trkpt lat="45.61971" lon="4.69659">
        <ele>310</ele>
        <time>2015-10-18T09:26:48.375Z</time>
      </trkpt>
      <trkpt lat="45.61965" lon="4.69653">
        <ele>310</ele>
        <time>2015-10-18T09:26:50.384Z</time>
      </trkpt>
      <trkpt lat="45.61961" lon="4.69651">
        <ele>310</ele>
        <time>2015-10-18T09:26:51.359Z</time>
      </trkpt>
      <trkpt lat="45.61955" lon="4.69646">
        <ele>310</ele>
        <time>2015-10-18T09:26:53.402Z</time>
      </trkpt>
      <trkpt lat="45.61952" lon="4.69644">
        <ele>310</ele>
        <time>2015-10-18T09:26:54.376Z</time>
      </trkpt>
      <trkpt lat="45.61946" lon="4.6964">
        <ele>310</ele>
        <time>2015-10-18T09:26:56.386Z</time>
      </trkpt>
      <trkpt lat="45.61943" lon="4.69638">
        <ele>310</ele>
        <time>2015-10-18T09:26:57.354Z</time>
      </trkpt>
      <trkpt lat="45.61935" lon="4.69635">
        <ele>310</ele>
        <time>2015-10-18T09:26:59.395Z</time>
      </trkpt>
      <trkpt lat="45.61932" lon="4.69635">
        <ele>310</ele>
        <time>2015-10-18T09:27:00.355Z</time>
      </trkpt>
      <trkpt lat="45.61926" lon="4.69631">
        <ele>310</ele>
        <time>2015-10-18T09:27:02.392Z</time>
      </trkpt>
      <trkpt lat="45.61923" lon="4.69629">
        <ele>310</ele>
        <time>2015-10-18T09:27:03.359Z</time>
      </trkpt>
      <trkpt lat="45.61915" lon="4.69627">
        <ele>311</ele>
        <time>2015-10-18T09:27:05.402Z</time>
      </trkpt>
      <trkpt lat="45.61911" lon="4.69625">
        <ele>311</ele>
        <time>2015-10-18T09:27:06.361Z</time>
      </trkpt>
      <trkpt lat="45.61902" lon="4.69625">
        <ele>312</ele>
        <time>2015-10-18T09:27:09.396Z</time>
      </trkpt>
      <trkpt lat="45.619" lon="4.69627">
        <ele>312</ele>
        <time>2015-10-18T09:27:10.388Z</time>
      </trkpt>
      <trkpt lat="45.61894" lon="4.69629">
        <ele>312</ele>
        <time>2015-10-18T09:27:12.389Z</time>
      </trkpt>
      <trkpt lat="45.6189" lon="4.69629">
        <ele>312</ele>
        <time>2015-10-18T09:27:13.360Z</time>
      </trkpt>
      <trkpt lat="45.61882" lon="4.69629">
        <ele>312</ele>
        <time>2015-10-18T09:27:16.400Z</time>
      </trkpt>
      <trkpt lat="45.61879" lon="4.69625">
        <ele>312</ele>
        <time>2015-10-18T09:27:17.381Z</time>
      </trkpt>
      <trkpt lat="45.61874" lon="4.69614">
        <ele>312</ele>
        <time>2015-10-18T09:27:20.392Z</time>
      </trkpt>
      <trkpt lat="45.61871" lon="4.6961">
        <ele>312</ele>
        <time>2015-10-18T09:27:21.354Z</time>
      </trkpt>
      <trkpt lat="45.61869" lon="4.69599">
        <ele>312</ele>
        <time>2015-10-18T09:27:24.400Z</time>
      </trkpt>
      <trkpt lat="45.61868" lon="4.69595">
        <ele>312</ele>
        <time>2015-10-18T09:27:25.355Z</time>
      </trkpt>
      <trkpt lat="45.61864" lon="4.69584">
        <ele>312</ele>
        <time>2015-10-18T09:27:28.403Z</time>
      </trkpt>
      <trkpt lat="45.61862" lon="4.6958">
        <ele>314</ele>
        <time>2015-10-18T09:27:29.356Z</time>
      </trkpt>
      <trkpt lat="45.61858" lon="4.69571">
        <ele>314</ele>
        <time>2015-10-18T09:27:32.400Z</time>
      </trkpt>
      <trkpt lat="45.61857" lon="4.69567">
        <ele>314</ele>
        <time>2015-10-18T09:27:33.360Z</time>
      </trkpt>
      <trkpt lat="45.61853" lon="4.69556">
        <ele>314</ele>
        <time>2015-10-18T09:27:36.380Z</time>
      </trkpt>
      <trkpt lat="45.61852" lon="4.69552">
        <ele>314</ele>
        <time>2015-10-18T09:27:37.357Z</time>
      </trkpt>
      <trkpt lat="45.61847" lon="4.69541">
        <ele>314</ele>
        <time>2015-10-18T09:27:40.400Z</time>
      </trkpt>
      <trkpt lat="45.61846" lon="4.69537">
        <ele>315</ele>
        <time>2015-10-18T09:27:41.369Z</time>
      </trkpt>
      <trkpt lat="45.61843" lon="4.6953">
        <ele>315</ele>
        <time>2015-10-18T09:27:43.409Z</time>
      </trkpt>
      <trkpt lat="45.61841" lon="4.69526">
        <ele>315</ele>
        <time>2015-10-18T09:27:44.377Z</time>
      </trkpt>
      <trkpt lat="45.61838" lon="4.69515">
        <ele>315</ele>
        <time>2015-10-18T09:27:47.399Z</time>
      </trkpt>
      <trkpt lat="45.61836" lon="4.69513">
        <ele>315</ele>
        <time>2015-10-18T09:27:48.379Z</time>
      </trkpt>
      <trkpt lat="45.61831" lon="4.69502">
        <ele>316</ele>
        <time>2015-10-18T09:27:51.391Z</time>
      </trkpt>
      <trkpt lat="45.6183" lon="4.695">
        <ele>316</ele>
        <time>2015-10-18T09:27:52.370Z</time>
      </trkpt>
      <trkpt lat="45.61826" lon="4.6949">
        <ele>317</ele>
        <time>2015-10-18T09:27:55.395Z</time>
      </trkpt>
      <trkpt lat="45.61825" lon="4.69485">
        <ele>317</ele>
        <time>2015-10-18T09:27:56.378Z</time>
      </trkpt>
      <trkpt lat="45.61821" lon="4.69475">
        <ele>317</ele>
        <time>2015-10-18T09:27:59.393Z</time>
      </trkpt>
      <trkpt lat="45.61818" lon="4.6947">
        <ele>317</ele>
        <time>2015-10-18T09:28:00.351Z</time>
      </trkpt>
      <trkpt lat="45.61815" lon="4.6946">
        <ele>318</ele>
        <time>2015-10-18T09:28:03.404Z</time>
      </trkpt>
      <trkpt lat="45.61813" lon="4.69457">
        <ele>318</ele>
        <time>2015-10-18T09:28:04.355Z</time>
      </trkpt>
      <trkpt lat="45.61811" lon="4.69449">
        <ele>318</ele>
        <time>2015-10-18T09:28:06.395Z</time>
      </trkpt>
      <trkpt lat="45.61809" lon="4.69445">
        <ele>318</ele>
        <time>2015-10-18T09:28:07.360Z</time>
      </trkpt>
      <trkpt lat="45.61805" lon="4.69434">
        <ele>318</ele>
        <time>2015-10-18T09:28:10.387Z</time>
      </trkpt>
      <trkpt lat="45.61802" lon="4.69432">
        <ele>318</ele>
        <time>2015-10-18T09:28:11.353Z</time>
      </trkpt>
      <trkpt lat="45.61799" lon="4.69421">
        <ele>318</ele>
        <time>2015-10-18T09:28:14.496Z</time>
      </trkpt>
      <trkpt lat="45.61798" lon="4.69417">
        <ele>320</ele>
        <time>2015-10-18T09:28:15.392Z</time>
      </trkpt>
      <trkpt lat="45.61793" lon="4.69408">
        <ele>320</ele>
        <time>2015-10-18T09:28:18.381Z</time>
      </trkpt>
      <trkpt lat="45.61792" lon="4.69404">
        <ele>320</ele>
        <time>2015-10-18T09:28:19.355Z</time>
      </trkpt>
      <trkpt lat="45.61787" lon="4.69393">
        <ele>320</ele>
        <time>2015-10-18T09:28:22.398Z</time>
      </trkpt>
      <trkpt lat="45.61786" lon="4.69391">
        <ele>320</ele>
        <time>2015-10-18T09:28:23.368Z</time>
      </trkpt>
      <trkpt lat="45.61782" lon="4.69382">
        <ele>320</ele>
        <time>2015-10-18T09:28:25.399Z</time>
      </trkpt>
      <trkpt lat="45.61781" lon="4.6938">
        <ele>320</ele>
        <time>2015-10-18T09:28:26.360Z</time>
      </trkpt>
      <trkpt lat="45.61779" lon="4.69369">
        <ele>321</ele>
        <time>2015-10-18T09:28:29.398Z</time>
      </trkpt>
      <trkpt lat="45.61777" lon="4.69365">
        <ele>321</ele>
        <time>2015-10-18T09:28:30.370Z</time>
      </trkpt>
      <trkpt lat="45.61772" lon="4.69357">
        <ele>321</ele>
        <time>2015-10-18T09:28:33.395Z</time>
      </trkpt>
      <trkpt lat="45.61771" lon="4.69352">
        <ele>321</ele>
        <time>2015-10-18T09:28:34.358Z</time>
      </trkpt>
      <trkpt lat="45.61768" lon="4.69342">
        <ele>321</ele>
        <time>2015-10-18T09:28:37.396Z</time>
      </trkpt>
      <trkpt lat="45.61767" lon="4.69339">
        <ele>321</ele>
        <time>2015-10-18T09:28:38.360Z</time>
      </trkpt>
      <trkpt lat="45.61763" lon="4.69331">
        <ele>323</ele>
        <time>2015-10-18T09:28:41.397Z</time>
      </trkpt>
      <trkpt lat="45.61761" lon="4.69326">
        <ele>323</ele>
        <time>2015-10-18T09:28:42.386Z</time>
      </trkpt>
      <trkpt lat="45.61757" lon="4.69318">
        <ele>323</ele>
        <time>2015-10-18T09:28:45.399Z</time>
      </trkpt>
      <trkpt lat="45.61755" lon="4.69314">
        <ele>323</ele>
        <time>2015-10-18T09:28:46.357Z</time>
      </trkpt>
      <trkpt lat="45.61752" lon="4.69305">
        <ele>324</ele>
        <time>2015-10-18T09:28:49.385Z</time>
      </trkpt>
      <trkpt lat="45.61751" lon="4.69301">
        <ele>324</ele>
        <time>2015-10-18T09:28:50.358Z</time>
      </trkpt>
      <trkpt lat="45.61747" lon="4.69292">
        <ele>326</ele>
        <time>2015-10-18T09:28:53.408Z</time>
      </trkpt>
      <trkpt lat="45.61746" lon="4.69288">
        <ele>326</ele>
        <time>2015-10-18T09:28:54.354Z</time>
      </trkpt>
      <trkpt lat="45.61741" lon="4.69279">
        <ele>327</ele>
        <time>2015-10-18T09:28:57.393Z</time>
      </trkpt>
      <trkpt lat="45.6174" lon="4.69275">
        <ele>327</ele>
        <time>2015-10-18T09:28:58.354Z</time>
      </trkpt>
      <trkpt lat="45.61737" lon="4.69266">
        <ele>327</ele>
        <time>2015-10-18T09:29:01.398Z</time>
      </trkpt>
      <trkpt lat="45.61736" lon="4.69262">
        <ele>327</ele>
        <time>2015-10-18T09:29:02.354Z</time>
      </trkpt>
      <trkpt lat="45.61731" lon="4.69254">
        <ele>327</ele>
        <time>2015-10-18T09:29:06.377Z</time>
      </trkpt>
      <trkpt lat="45.61729" lon="4.69251">
        <ele>328</ele>
        <time>2015-10-18T09:29:07.373Z</time>
      </trkpt>
      <trkpt lat="45.61724" lon="4.69243">
        <ele>331</ele>
        <time>2015-10-18T09:29:11.383Z</time>
      </trkpt>
      <trkpt lat="45.61723" lon="4.69239">
        <ele>331</ele>
        <time>2015-10-18T09:29:12.357Z</time>
      </trkpt>
      <trkpt lat="45.6172" lon="4.6923">
        <ele>331</ele>
        <time>2015-10-18T09:29:16.395Z</time>
      </trkpt>
      <trkpt lat="45.61719" lon="4.69226">
        <ele>331</ele>
        <time>2015-10-18T09:29:17.360Z</time>
      </trkpt>
      <trkpt lat="45.61714" lon="4.69217">
        <ele>332</ele>
        <time>2015-10-18T09:29:21.388Z</time>
      </trkpt>
      <trkpt lat="45.61713" lon="4.69213">
        <ele>332</ele>
        <time>2015-10-18T09:29:22.353Z</time>
      </trkpt>
      <trkpt lat="45.6171" lon="4.69204">
        <ele>332</ele>
        <time>2015-10-18T09:29:26.381Z</time>
      </trkpt>
      <trkpt lat="45.61708" lon="4.69202">
        <ele>332</ele>
        <time>2015-10-18T09:29:27.353Z</time>
      </trkpt>
      <trkpt lat="45.61702" lon="4.69193">
        <ele>333</ele>
        <time>2015-10-18T09:29:31.384Z</time>
      </trkpt>
      <trkpt lat="45.617" lon="4.69193">
        <ele>333</ele>
        <time>2015-10-18T09:29:32.352Z</time>
      </trkpt>
      <trkpt lat="45.61693" lon="4.69198">
        <ele>333</ele>
        <time>2015-10-18T09:29:36.416Z</time>
      </trkpt>
      <trkpt lat="45.6169" lon="4.69202">
        <ele>332</ele>
        <time>2015-10-18T09:29:37.361Z</time>
      </trkpt>
      <trkpt lat="45.61683" lon="4.69208">
        <ele>332</ele>
        <time>2015-10-18T09:29:39.389Z</time>
      </trkpt>
      <trkpt lat="45.6168" lon="4.69213">
        <ele>332</ele>
        <time>2015-10-18T09:29:40.354Z</time>
      </trkpt>
      <trkpt lat="45.61676" lon="4.69217">
        <ele>332</ele>
        <time>2015-10-18T09:29:41.417Z</time>
      </trkpt>
      <trkpt lat="45.61673" lon="4.69221">
        <ele>332</ele>
        <time>2015-10-18T09:29:42.351Z</time>
      </trkpt>
      <trkpt lat="45.61669" lon="4.69226">
        <ele>332</ele>
        <time>2015-10-18T09:29:43.524Z</time>
      </trkpt>
      <trkpt lat="45.61665" lon="4.69232">
        <ele>332</ele>
        <time>2015-10-18T09:29:44.356Z</time>
      </trkpt>
      <trkpt lat="45.61662" lon="4.69236">
        <ele>332</ele>
        <time>2015-10-18T09:29:45.376Z</time>
      </trkpt>
      <trkpt lat="45.61658" lon="4.69243">
        <ele>332</ele>
        <time>2015-10-18T09:29:46.359Z</time>
      </trkpt>
      <trkpt lat="45.61653" lon="4.69247">
        <ele>332</ele>
        <time>2015-10-18T09:29:47.373Z</time>
      </trkpt>
      <trkpt lat="45.61648" lon="4.69254">
        <ele>330</ele>
        <time>2015-10-18T09:29:48.357Z</time>
      </trkpt>
      <trkpt lat="45.61644" lon="4.69258">
        <ele>330</ele>
        <time>2015-10-18T09:29:49.385Z</time>
      </trkpt>
      <trkpt lat="45.61639" lon="4.69264">
        <ele>330</ele>
        <time>2015-10-18T09:29:50.356Z</time>
      </trkpt>
      <trkpt lat="45.61635" lon="4.69269">
        <ele>330</ele>
        <time>2015-10-18T09:29:51.388Z</time>
      </trkpt>
      <trkpt lat="45.61631" lon="4.69273">
        <ele>330</ele>
        <time>2015-10-18T09:29:52.361Z</time>
      </trkpt>
      <trkpt lat="45.61625" lon="4.69281">
        <ele>329</ele>
        <time>2015-10-18T09:29:54.387Z</time>
      </trkpt>
      <trkpt lat="45.61623" lon="4.69284">
        <ele>329</ele>
        <time>2015-10-18T09:29:55.361Z</time>
      </trkpt>
      <trkpt lat="45.61619" lon="4.69275">
        <ele>330</ele>
        <time>2015-10-18T09:29:58.394Z</time>
      </trkpt>
      <trkpt lat="45.61619" lon="4.69271">
        <ele>330</ele>
        <time>2015-10-18T09:29:59.359Z</time>
      </trkpt>
      <trkpt lat="45.61618" lon="4.6926">
        <ele>330</ele>
        <time>2015-10-18T09:30:03.403Z</time>
      </trkpt>
      <trkpt lat="45.61618" lon="4.69256">
        <ele>330</ele>
        <time>2015-10-18T09:30:04.350Z</time>
      </trkpt>
      <trkpt lat="45.61616" lon="4.69245">
        <ele>333</ele>
        <time>2015-10-18T09:30:11.375Z</time>
      </trkpt>
      <trkpt lat="45.61616" lon="4.69241">
        <ele>333</ele>
        <time>2015-10-18T09:30:12.358Z</time>
      </trkpt>
      <trkpt lat="45.61622" lon="4.69232">
        <ele>333</ele>
        <time>2015-10-18T09:30:20.395Z</time>
      </trkpt>
      <trkpt lat="45.61623" lon="4.6923">
        <ele>333</ele>
        <time>2015-10-18T09:30:21.354Z</time>
      </trkpt>
      <trkpt lat="45.61628" lon="4.69219">
        <ele>333</ele>
        <time>2015-10-18T09:30:29.384Z</time>
      </trkpt>
      <trkpt lat="45.61629" lon="4.69217">
        <ele>333</ele>
        <time>2015-10-18T09:30:30.360Z</time>
      </trkpt>
      <trkpt lat="45.61633" lon="4.69206">
        <ele>334</ele>
        <time>2015-10-18T09:30:35.386Z</time>
      </trkpt>
      <trkpt lat="45.61634" lon="4.69204">
        <ele>334</ele>
        <time>2015-10-18T09:30:36.351Z</time>
      </trkpt>
      <trkpt lat="45.61636" lon="4.69193">
        <ele>334</ele>
        <time>2015-10-18T09:30:44.397Z</time>
      </trkpt>
      <trkpt lat="45.61637" lon="4.69191">
        <ele>334</ele>
        <time>2015-10-18T09:30:45.353Z</time>
      </trkpt>
      <trkpt lat="45.61641" lon="4.69181">
        <ele>334</ele>
        <time>2015-10-18T09:30:52.385Z</time>
      </trkpt>
      <trkpt lat="45.61641" lon="4.69178">
        <ele>334</ele>
        <time>2015-10-18T09:30:53.355Z</time>
      </trkpt>
      <trkpt lat="45.61646" lon="4.69168">
        <ele>334</ele>
        <time>2015-10-18T09:30:58.411Z</time>
      </trkpt>
      <trkpt lat="45.61646" lon="4.69166">
        <ele>337</ele>
        <time>2015-10-18T09:30:59.358Z</time>
      </trkpt>
      <trkpt lat="45.61646" lon="4.69153">
        <ele>337</ele>
        <time>2015-10-18T09:31:05.395Z</time>
      </trkpt>
      <trkpt lat="45.61646" lon="4.69151">
        <ele>337</ele>
        <time>2015-10-18T09:31:06.351Z</time>
      </trkpt>
      <trkpt lat="45.61646" lon="4.6914">
        <ele>338</ele>
        <time>2015-10-18T09:31:11.371Z</time>
      </trkpt>
      <trkpt lat="45.61645" lon="4.69138">
        <ele>338</ele>
        <time>2015-10-18T09:31:12.359Z</time>
      </trkpt>
      <trkpt lat="45.61645" lon="4.69125">
        <ele>338</ele>
        <time>2015-10-18T09:31:18.397Z</time>
      </trkpt>
      <trkpt lat="45.61645" lon="4.69123">
        <ele>339</ele>
        <time>2015-10-18T09:31:19.360Z</time>
      </trkpt>
      <trkpt lat="45.61643" lon="4.69112">
        <ele>339</ele>
        <time>2015-10-18T09:31:25.385Z</time>
      </trkpt>
      <trkpt lat="45.61643" lon="4.6911">
        <ele>339</ele>
        <time>2015-10-18T09:31:26.359Z</time>
      </trkpt>
      <trkpt lat="45.61641" lon="4.69099">
        <ele>339</ele>
        <time>2015-10-18T09:31:32.389Z</time>
      </trkpt>
      <trkpt lat="45.61641" lon="4.69097">
        <ele>339</ele>
        <time>2015-10-18T09:31:33.353Z</time>
      </trkpt>
      <trkpt lat="45.6164" lon="4.69086">
        <ele>340</ele>
        <time>2015-10-18T09:31:38.391Z</time>
      </trkpt>
      <trkpt lat="45.61639" lon="4.69084">
        <ele>340</ele>
        <time>2015-10-18T09:31:39.353Z</time>
      </trkpt>
      <trkpt lat="45.6164" lon="4.69073">
        <ele>342</ele>
        <time>2015-10-18T09:31:45.389Z</time>
      </trkpt>
      <trkpt lat="45.6164" lon="4.69071">
        <ele>342</ele>
        <time>2015-10-18T09:31:46.355Z</time>
      </trkpt>
      <trkpt lat="45.61639" lon="4.6906">
        <ele>342</ele>
        <time>2015-10-18T09:31:51.385Z</time>
      </trkpt>
      <trkpt lat="45.61639" lon="4.69058">
        <ele>342</ele>
        <time>2015-10-18T09:31:52.375Z</time>
      </trkpt>
      <trkpt lat="45.61644" lon="4.69048">
        <ele>343</ele>
        <time>2015-10-18T09:31:59.378Z</time>
      </trkpt>
      <trkpt lat="45.61646" lon="4.69045">
        <ele>343</ele>
        <time>2015-10-18T09:32:00.368Z</time>
      </trkpt>
      <trkpt lat="45.61652" lon="4.69037">
        <ele>343</ele>
        <time>2015-10-18T09:32:05.392Z</time>
      </trkpt>
      <trkpt lat="45.61653" lon="4.69035">
        <ele>343</ele>
        <time>2015-10-18T09:32:06.359Z</time>
      </trkpt>
      <trkpt lat="45.61658" lon="4.69026">
        <ele>343</ele>
        <time>2015-10-18T09:32:09.404Z</time>
      </trkpt>
      <trkpt lat="45.6166" lon="4.69024">
        <ele>343</ele>
        <time>2015-10-18T09:32:10.345Z</time>
      </trkpt>
      <trkpt lat="45.61663" lon="4.69018">
        <ele>343</ele>
        <time>2015-10-18T09:32:12.394Z</time>
      </trkpt>
      <trkpt lat="45.61665" lon="4.69013">
        <ele>344</ele>
        <time>2015-10-18T09:32:13.353Z</time>
      </trkpt>
      <trkpt lat="45.61669" lon="4.69007">
        <ele>343</ele>
        <time>2015-10-18T09:32:15.381Z</time>
      </trkpt>
      <trkpt lat="45.61671" lon="4.69002">
        <ele>343</ele>
        <time>2015-10-18T09:32:16.377Z</time>
      </trkpt>
      <trkpt lat="45.61678" lon="4.68994">
        <ele>344</ele>
        <time>2015-10-18T09:32:19.385Z</time>
      </trkpt>
      <trkpt lat="45.61679" lon="4.6899">
        <ele>344</ele>
        <time>2015-10-18T09:32:20.344Z</time>
      </trkpt>
      <trkpt lat="45.6168" lon="4.68981">
        <ele>344</ele>
        <time>2015-10-18T09:32:22.394Z</time>
      </trkpt>
      <trkpt lat="45.6168" lon="4.68977">
        <ele>344</ele>
        <time>2015-10-18T09:32:23.360Z</time>
      </trkpt>
      <trkpt lat="45.61681" lon="4.68966">
        <ele>344</ele>
        <time>2015-10-18T09:32:26.391Z</time>
      </trkpt>
      <trkpt lat="45.61681" lon="4.68962">
        <ele>344</ele>
        <time>2015-10-18T09:32:27.362Z</time>
      </trkpt>
      <trkpt lat="45.61683" lon="4.68953">
        <ele>344</ele>
        <time>2015-10-18T09:32:29.393Z</time>
      </trkpt>
      <trkpt lat="45.61684" lon="4.68949">
        <ele>344</ele>
        <time>2015-10-18T09:32:30.354Z</time>
      </trkpt>
      <trkpt lat="45.61687" lon="4.6894">
        <ele>345</ele>
        <time>2015-10-18T09:32:32.392Z</time>
      </trkpt>
      <trkpt lat="45.61688" lon="4.68936">
        <ele>345</ele>
        <time>2015-10-18T09:32:33.348Z</time>
      </trkpt>
      <trkpt lat="45.6169" lon="4.68927">
        <ele>345</ele>
        <time>2015-10-18T09:32:35.381Z</time>
      </trkpt>
      <trkpt lat="45.61691" lon="4.68923">
        <ele>345</ele>
        <time>2015-10-18T09:32:36.353Z</time>
      </trkpt>
      <trkpt lat="45.61694" lon="4.68912">
        <ele>347</ele>
        <time>2015-10-18T09:32:39.389Z</time>
      </trkpt>
      <trkpt lat="45.61696" lon="4.68908">
        <ele>347</ele>
        <time>2015-10-18T09:32:40.366Z</time>
      </trkpt>
      <trkpt lat="45.61699" lon="4.68897">
        <ele>348</ele>
        <time>2015-10-18T09:32:43.387Z</time>
      </trkpt>
      <trkpt lat="45.61702" lon="4.68891">
        <ele>348</ele>
        <time>2015-10-18T09:32:44.374Z</time>
      </trkpt>
      <trkpt lat="45.61704" lon="4.6888">
        <ele>348</ele>
        <time>2015-10-18T09:32:47.403Z</time>
      </trkpt>
      <trkpt lat="45.61704" lon="4.68878">
        <ele>348</ele>
        <time>2015-10-18T09:32:48.346Z</time>
      </trkpt>
      <trkpt lat="45.61707" lon="4.68867">
        <ele>348</ele>
        <time>2015-10-18T09:32:51.394Z</time>
      </trkpt>
      <trkpt lat="45.61707" lon="4.68863">
        <ele>348</ele>
        <time>2015-10-18T09:32:52.375Z</time>
      </trkpt>
      <trkpt lat="45.6171" lon="4.68852">
        <ele>349</ele>
        <time>2015-10-18T09:32:55.392Z</time>
      </trkpt>
      <trkpt lat="45.61711" lon="4.68848">
        <ele>349</ele>
        <time>2015-10-18T09:32:56.351Z</time>
      </trkpt>
      <trkpt lat="45.61713" lon="4.68839">
        <ele>349</ele>
        <time>2015-10-18T09:32:59.395Z</time>
      </trkpt>
      <trkpt lat="45.61714" lon="4.68835">
        <ele>349</ele>
        <time>2015-10-18T09:33:00.359Z</time>
      </trkpt>
      <trkpt lat="45.61718" lon="4.68827">
        <ele>352</ele>
        <time>2015-10-18T09:33:03.377Z</time>
      </trkpt>
      <trkpt lat="45.61719" lon="4.68822">
        <ele>352</ele>
        <time>2015-10-18T09:33:04.348Z</time>
      </trkpt>
      <trkpt lat="45.61721" lon="4.68812">
        <ele>352</ele>
        <time>2015-10-18T09:33:07.390Z</time>
      </trkpt>
      <trkpt lat="45.61722" lon="4.68809">
        <ele>353</ele>
        <time>2015-10-18T09:33:08.361Z</time>
      </trkpt>
      <trkpt lat="45.61724" lon="4.68799">
        <ele>353</ele>
        <time>2015-10-18T09:33:11.396Z</time>
      </trkpt>
      <trkpt lat="45.61725" lon="4.68796">
        <ele>353</ele>
        <time>2015-10-18T09:33:12.352Z</time>
      </trkpt>
      <trkpt lat="45.61728" lon="4.68786">
        <ele>353</ele>
        <time>2015-10-18T09:33:16.394Z</time>
      </trkpt>
      <trkpt lat="45.61729" lon="4.68781">
        <ele>353</ele>
        <time>2015-10-18T09:33:17.359Z</time>
      </trkpt>
      <trkpt lat="45.61733" lon="4.68771">
        <ele>354</ele>
        <time>2015-10-18T09:33:25.400Z</time>
      </trkpt>
      <trkpt lat="45.61734" lon="4.68769">
        <ele>354</ele>
        <time>2015-10-18T09:33:26.369Z</time>
      </trkpt>
      <trkpt lat="45.61735" lon="4.68758">
        <ele>354</ele>
        <time>2015-10-18T09:33:31.390Z</time>
      </trkpt>
      <trkpt lat="45.61735" lon="4.68756">
        <ele>354</ele>
        <time>2015-10-18T09:33:32.351Z</time>
      </trkpt>
      <trkpt lat="45.61737" lon="4.68745">
        <ele>357</ele>
        <time>2015-10-18T09:33:38.367Z</time>
      </trkpt>
      <trkpt lat="45.61737" lon="4.68743">
        <ele>357</ele>
        <time>2015-10-18T09:33:39.351Z</time>
      </trkpt>
      <trkpt lat="45.61739" lon="4.68734">
        <ele>357</ele>
        <time>2015-10-18T09:33:44.382Z</time>
      </trkpt>
      <trkpt lat="45.61739" lon="4.6873">
        <ele>358</ele>
        <time>2015-10-18T09:33:45.377Z</time>
      </trkpt>
      <trkpt lat="45.6174" lon="4.68719">
        <ele>358</ele>
        <time>2015-10-18T09:33:51.384Z</time>
      </trkpt>
      <trkpt lat="45.61741" lon="4.68717">
        <ele>358</ele>
        <time>2015-10-18T09:33:52.359Z</time>
      </trkpt>
      <trkpt lat="45.61741" lon="4.68704">
        <ele>359</ele>
        <time>2015-10-18T09:33:58.394Z</time>
      </trkpt>
      <trkpt lat="45.61742" lon="4.68702">
        <ele>359</ele>
        <time>2015-10-18T09:33:59.360Z</time>
      </trkpt>
      <trkpt lat="45.61743" lon="4.68691">
        <ele>359</ele>
        <time>2015-10-18T09:34:04.393Z</time>
      </trkpt>
      <trkpt lat="45.61741" lon="4.68689">
        <ele>359</ele>
        <time>2015-10-18T09:34:05.375Z</time>
      </trkpt>
      <trkpt lat="45.61742" lon="4.68678">
        <ele>360</ele>
        <time>2015-10-18T09:34:10.397Z</time>
      </trkpt>
      <trkpt lat="45.61742" lon="4.68674">
        <ele>360</ele>
        <time>2015-10-18T09:34:11.356Z</time>
      </trkpt>
      <trkpt lat="45.6174" lon="4.68666">
        <ele>362</ele>
        <time>2015-10-18T09:34:14.391Z</time>
      </trkpt>
      <trkpt lat="45.6174" lon="4.68661">
        <ele>362</ele>
        <time>2015-10-18T09:34:15.353Z</time>
      </trkpt>
      <trkpt lat="45.61741" lon="4.68651">
        <ele>363</ele>
        <time>2015-10-18T09:34:19.390Z</time>
      </trkpt>
      <trkpt lat="45.61741" lon="4.68648">
        <ele>363</ele>
        <time>2015-10-18T09:34:20.378Z</time>
      </trkpt>
      <trkpt lat="45.61741" lon="4.68638">
        <ele>363</ele>
        <time>2015-10-18T09:34:26.394Z</time>
      </trkpt>
      <trkpt lat="45.61741" lon="4.68636">
        <ele>364</ele>
        <time>2015-10-18T09:34:27.351Z</time>
      </trkpt>
      <trkpt lat="45.61742" lon="4.68625">
        <ele>364</ele>
        <time>2015-10-18T09:34:33.391Z</time>
      </trkpt>
      <trkpt lat="45.61742" lon="4.68623">
        <ele>364</ele>
        <time>2015-10-18T09:34:34.353Z</time>
      </trkpt>
      <trkpt lat="45.61742" lon="4.68612">
        <ele>364</ele>
        <time>2015-10-18T09:34:39.399Z</time>
      </trkpt>
      <trkpt lat="45.61741" lon="4.68608">
        <ele>364</ele>
        <time>2015-10-18T09:34:40.357Z</time>
      </trkpt>
      <trkpt lat="45.61741" lon="4.68597">
        <ele>364</ele>
        <time>2015-10-18T09:34:45.391Z</time>
      </trkpt>
      <trkpt lat="45.6174" lon="4.68595">
        <ele>364</ele>
        <time>2015-10-18T09:34:46.369Z</time>
      </trkpt>
      <trkpt lat="45.61739" lon="4.68584">
        <ele>364</ele>
        <time>2015-10-18T09:34:51.393Z</time>
      </trkpt>
      <trkpt lat="45.61739" lon="4.68582">
        <ele>366</ele>
        <time>2015-10-18T09:34:52.348Z</time>
      </trkpt>
      <trkpt lat="45.61737" lon="4.68571">
        <ele>366</ele>
        <time>2015-10-18T09:34:57.385Z</time>
      </trkpt>
      <trkpt lat="45.61737" lon="4.68569">
        <ele>367</ele>
        <time>2015-10-18T09:34:58.373Z</time>
      </trkpt>
      <trkpt lat="45.61731" lon="4.68563">
        <ele>367</ele>
        <time>2015-10-18T09:35:04.393Z</time>
      </trkpt>
      <trkpt lat="45.61728" lon="4.68563">
        <ele>367</ele>
        <time>2015-10-18T09:35:05.350Z</time>
      </trkpt>
      <trkpt lat="45.61722" lon="4.68567">
        <ele>368</ele>
        <time>2015-10-18T09:35:10.386Z</time>
      </trkpt>
      <trkpt lat="45.6172" lon="4.68567">
        <ele>368</ele>
        <time>2015-10-18T09:35:11.355Z</time>
      </trkpt>
      <trkpt lat="45.61712" lon="4.68569">
        <ele>368</ele>
        <time>2015-10-18T09:35:16.386Z</time>
      </trkpt>
      <trkpt lat="45.61711" lon="4.68571">
        <ele>368</ele>
        <time>2015-10-18T09:35:17.351Z</time>
      </trkpt>
      <trkpt lat="45.61703" lon="4.68569">
        <ele>368</ele>
        <time>2015-10-18T09:35:23.390Z</time>
      </trkpt>
      <trkpt lat="45.61702" lon="4.68569">
        <ele>369</ele>
        <time>2015-10-18T09:35:24.381Z</time>
      </trkpt>
      <trkpt lat="45.61693" lon="4.68569">
        <ele>369</ele>
        <time>2015-10-18T09:35:29.385Z</time>
      </trkpt>
      <trkpt lat="45.61692" lon="4.68569">
        <ele>369</ele>
        <time>2015-10-18T09:35:30.353Z</time>
      </trkpt>
      <trkpt lat="45.61684" lon="4.68571">
        <ele>369</ele>
        <time>2015-10-18T09:35:35.405Z</time>
      </trkpt>
      <trkpt lat="45.61682" lon="4.68571">
        <ele>370</ele>
        <time>2015-10-18T09:35:36.370Z</time>
      </trkpt>
      <trkpt lat="45.61675" lon="4.68571">
        <ele>370</ele>
        <time>2015-10-18T09:35:41.372Z</time>
      </trkpt>
      <trkpt lat="45.61673" lon="4.68571">
        <ele>370</ele>
        <time>2015-10-18T09:35:42.353Z</time>
      </trkpt>
      <trkpt lat="45.61665" lon="4.68569">
        <ele>371</ele>
        <time>2015-10-18T09:35:46.375Z</time>
      </trkpt>
      <trkpt lat="45.61663" lon="4.68569">
        <ele>371</ele>
        <time>2015-10-18T09:35:47.373Z</time>
      </trkpt>
      <trkpt lat="45.61655" lon="4.68569">
        <ele>371</ele>
        <time>2015-10-18T09:35:50.391Z</time>
      </trkpt>
      <trkpt lat="45.61652" lon="4.68567">
        <ele>371</ele>
        <time>2015-10-18T09:35:51.357Z</time>
      </trkpt>
      <trkpt lat="45.61644" lon="4.68565">
        <ele>371</ele>
        <time>2015-10-18T09:35:54.389Z</time>
      </trkpt>
      <trkpt lat="45.61643" lon="4.68565">
        <ele>371</ele>
        <time>2015-10-18T09:35:55.360Z</time>
      </trkpt>
      <trkpt lat="45.61634" lon="4.68563">
        <ele>371</ele>
        <time>2015-10-18T09:35:58.390Z</time>
      </trkpt>
      <trkpt lat="45.6163" lon="4.6856">
        <ele>371</ele>
        <time>2015-10-18T09:35:59.369Z</time>
      </trkpt>
      <trkpt lat="45.61622" lon="4.68556">
        <ele>371</ele>
        <time>2015-10-18T09:36:02.403Z</time>
      </trkpt>
      <trkpt lat="45.6162" lon="4.68552">
        <ele>371</ele>
        <time>2015-10-18T09:36:03.346Z</time>
      </trkpt>
      <trkpt lat="45.61614" lon="4.68545">
        <ele>371</ele>
        <time>2015-10-18T09:36:06.381Z</time>
      </trkpt>
      <trkpt lat="45.61611" lon="4.68541">
        <ele>371</ele>
        <time>2015-10-18T09:36:07.364Z</time>
      </trkpt>
      <trkpt lat="45.61605" lon="4.68533">
        <ele>371</ele>
        <time>2015-10-18T09:36:10.394Z</time>
      </trkpt>
      <trkpt lat="45.61603" lon="4.6853">
        <ele>371</ele>
        <time>2015-10-18T09:36:11.368Z</time>
      </trkpt>
      <trkpt lat="45.61599" lon="4.68526">
        <ele>371</ele>
        <time>2015-10-18T09:36:13.411Z</time>
      </trkpt>
      <trkpt lat="45.61595" lon="4.68522">
        <ele>371</ele>
        <time>2015-10-18T09:36:14.352Z</time>
      </trkpt>
      <trkpt lat="45.61589" lon="4.68513">
        <ele>371</ele>
        <time>2015-10-18T09:36:17.394Z</time>
      </trkpt>
      <trkpt lat="45.61586" lon="4.68513">
        <ele>371</ele>
        <time>2015-10-18T09:36:18.352Z</time>
      </trkpt>
      <trkpt lat="45.6158" lon="4.68505">
        <ele>371</ele>
        <time>2015-10-18T09:36:20.373Z</time>
      </trkpt>
      <trkpt lat="45.61578" lon="4.68503">
        <ele>371</ele>
        <time>2015-10-18T09:36:21.352Z</time>
      </trkpt>
      <trkpt lat="45.61573" lon="4.68494">
        <ele>372</ele>
        <time>2015-10-18T09:36:24.395Z</time>
      </trkpt>
      <trkpt lat="45.61571" lon="4.68494">
        <ele>372</ele>
        <time>2015-10-18T09:36:25.360Z</time>
      </trkpt>
      <trkpt lat="45.61562" lon="4.68494">
        <ele>372</ele>
        <time>2015-10-18T09:36:38.385Z</time>
      </trkpt>
      <trkpt lat="45.61561" lon="4.68496">
        <ele>372</ele>
        <time>2015-10-18T09:36:39.357Z</time>
      </trkpt>
      <trkpt lat="45.61556" lon="4.68503">
        <ele>369</ele>
        <time>2015-10-18T09:36:42.386Z</time>
      </trkpt>
      <trkpt lat="45.61553" lon="4.68507">
        <ele>369</ele>
        <time>2015-10-18T09:36:43.357Z</time>
      </trkpt>
      <trkpt lat="45.61547" lon="4.68513">
        <ele>369</ele>
        <time>2015-10-18T09:36:45.402Z</time>
      </trkpt>
      <trkpt lat="45.61544" lon="4.68518">
        <ele>369</ele>
        <time>2015-10-18T09:36:46.355Z</time>
      </trkpt>
      <trkpt lat="45.6154" lon="4.68522">
        <ele>368</ele>
        <time>2015-10-18T09:36:47.505Z</time>
      </trkpt>
      <trkpt lat="45.61535" lon="4.68528">
        <ele>368</ele>
        <time>2015-10-18T09:36:48.352Z</time>
      </trkpt>
      <trkpt lat="45.6153" lon="4.68535">
        <ele>368</ele>
        <time>2015-10-18T09:36:49.397Z</time>
      </trkpt>
      <trkpt lat="45.61525" lon="4.68541">
        <ele>368</ele>
        <time>2015-10-18T09:36:50.363Z</time>
      </trkpt>
      <trkpt lat="45.6152" lon="4.68548">
        <ele>367</ele>
        <time>2015-10-18T09:36:51.382Z</time>
      </trkpt>
      <trkpt lat="45.61515" lon="4.68552">
        <ele>367</ele>
        <time>2015-10-18T09:36:52.359Z</time>
      </trkpt>
      <trkpt lat="45.61509" lon="4.68558">
        <ele>366</ele>
        <time>2015-10-18T09:36:53.402Z</time>
      </trkpt>
      <trkpt lat="45.61504" lon="4.68565">
        <ele>366</ele>
        <time>2015-10-18T09:36:54.359Z</time>
      </trkpt>
      <trkpt lat="45.61499" lon="4.68571">
        <ele>362</ele>
        <time>2015-10-18T09:36:55.383Z</time>
      </trkpt>
      <trkpt lat="45.61494" lon="4.68575">
        <ele>362</ele>
        <time>2015-10-18T09:36:56.352Z</time>
      </trkpt>
      <trkpt lat="45.61489" lon="4.68584">
        <ele>361</ele>
        <time>2015-10-18T09:36:58.414Z</time>
      </trkpt>
      <trkpt lat="45.61488" lon="4.68588">
        <ele>360</ele>
        <time>2015-10-18T09:36:59.342Z</time>
      </trkpt>
      <trkpt lat="45.61487" lon="4.68597">
        <ele>360</ele>
        <time>2015-10-18T09:37:00.381Z</time>
      </trkpt>
      <trkpt lat="45.61489" lon="4.68606">
        <ele>359</ele>
        <time>2015-10-18T09:37:01.334Z</time>
      </trkpt>
      <trkpt lat="45.61493" lon="4.68614">
        <ele>358</ele>
        <time>2015-10-18T09:37:02.375Z</time>
      </trkpt>
      <trkpt lat="45.61496" lon="4.68623">
        <ele>358</ele>
        <time>2015-10-18T09:37:03.348Z</time>
      </trkpt>
      <trkpt lat="45.61497" lon="4.68629">
        <ele>358</ele>
        <time>2015-10-18T09:37:04.369Z</time>
      </trkpt>
      <trkpt lat="45.61494" lon="4.68638">
        <ele>358</ele>
        <time>2015-10-18T09:37:05.355Z</time>
      </trkpt>
      <trkpt lat="45.61489" lon="4.68642">
        <ele>357</ele>
        <time>2015-10-18T09:37:06.373Z</time>
      </trkpt>
      <trkpt lat="45.61484" lon="4.68648">
        <ele>357</ele>
        <time>2015-10-18T09:37:07.353Z</time>
      </trkpt>
      <trkpt lat="45.61478" lon="4.68655">
        <ele>357</ele>
        <time>2015-10-18T09:37:08.389Z</time>
      </trkpt>
      <trkpt lat="45.61473" lon="4.68659">
        <ele>357</ele>
        <time>2015-10-18T09:37:09.351Z</time>
      </trkpt>
      <trkpt lat="45.61469" lon="4.68666">
        <ele>356</ele>
        <time>2015-10-18T09:37:10.388Z</time>
      </trkpt>
      <trkpt lat="45.61464" lon="4.6867">
        <ele>354</ele>
        <time>2015-10-18T09:37:11.355Z</time>
      </trkpt>
      <trkpt lat="45.61459" lon="4.68678">
        <ele>353</ele>
        <time>2015-10-18T09:37:13.413Z</time>
      </trkpt>
      <trkpt lat="45.61457" lon="4.68685">
        <ele>353</ele>
        <time>2015-10-18T09:37:14.364Z</time>
      </trkpt>
      <trkpt lat="45.61453" lon="4.68696">
        <ele>353</ele>
        <time>2015-10-18T09:37:16.394Z</time>
      </trkpt>
      <trkpt lat="45.61449" lon="4.68702">
        <ele>352</ele>
        <time>2015-10-18T09:37:17.358Z</time>
      </trkpt>
      <trkpt lat="45.61447" lon="4.68709">
        <ele>352</ele>
        <time>2015-10-18T09:37:18.385Z</time>
      </trkpt>
      <trkpt lat="45.61444" lon="4.68717">
        <ele>352</ele>
        <time>2015-10-18T09:37:19.359Z</time>
      </trkpt>
      <trkpt lat="45.6144" lon="4.68724">
        <ele>352</ele>
        <time>2015-10-18T09:37:20.387Z</time>
      </trkpt>
      <trkpt lat="45.61435" lon="4.6873">
        <ele>351</ele>
        <time>2015-10-18T09:37:21.353Z</time>
      </trkpt>
      <trkpt lat="45.6143" lon="4.68734">
        <ele>351</ele>
        <time>2015-10-18T09:37:22.389Z</time>
      </trkpt>
      <trkpt lat="45.61425" lon="4.68743">
        <ele>350</ele>
        <time>2015-10-18T09:37:23.363Z</time>
      </trkpt>
      <trkpt lat="45.61419" lon="4.68749">
        <ele>349</ele>
        <time>2015-10-18T09:37:24.398Z</time>
      </trkpt>
      <trkpt lat="45.61414" lon="4.68756">
        <ele>348</ele>
        <time>2015-10-18T09:37:25.357Z</time>
      </trkpt>
      <trkpt lat="45.61408" lon="4.68764">
        <ele>346</ele>
        <time>2015-10-18T09:37:27.385Z</time>
      </trkpt>
      <trkpt lat="45.61403" lon="4.68764">
        <ele>346</ele>
        <time>2015-10-18T09:37:28.355Z</time>
      </trkpt>
      <trkpt lat="45.61399" lon="4.6876">
        <ele>346</ele>
        <time>2015-10-18T09:37:29.379Z</time>
      </trkpt>
      <trkpt lat="45.61394" lon="4.68758">
        <ele>346</ele>
        <time>2015-10-18T09:37:30.353Z</time>
      </trkpt>
      <trkpt lat="45.61388" lon="4.68758">
        <ele>345</ele>
        <time>2015-10-18T09:37:31.382Z</time>
      </trkpt>
      <trkpt lat="45.61382" lon="4.68764">
        <ele>345</ele>
        <time>2015-10-18T09:37:32.355Z</time>
      </trkpt>
      <trkpt lat="45.61376" lon="4.68769">
        <ele>344</ele>
        <time>2015-10-18T09:37:33.380Z</time>
      </trkpt>
      <trkpt lat="45.61372" lon="4.68773">
        <ele>344</ele>
        <time>2015-10-18T09:37:34.360Z</time>
      </trkpt>
      <trkpt lat="45.61368" lon="4.68777">
        <ele>344</ele>
        <time>2015-10-18T09:37:35.393Z</time>
      </trkpt>
      <trkpt lat="45.61364" lon="4.68784">
        <ele>344</ele>
        <time>2015-10-18T09:37:36.349Z</time>
      </trkpt>
      <trkpt lat="45.61358" lon="4.68786">
        <ele>343</ele>
        <time>2015-10-18T09:37:37.380Z</time>
      </trkpt>
      <trkpt lat="45.61355" lon="4.68792">
        <ele>343</ele>
        <time>2015-10-18T09:37:38.356Z</time>
      </trkpt>
      <trkpt lat="45.61352" lon="4.68796">
        <ele>343</ele>
        <time>2015-10-18T09:37:39.380Z</time>
      </trkpt>
      <trkpt lat="45.61346" lon="4.68801">
        <ele>343</ele>
        <time>2015-10-18T09:37:40.360Z</time>
      </trkpt>
      <trkpt lat="45.61342" lon="4.68803">
        <ele>343</ele>
        <time>2015-10-18T09:37:41.378Z</time>
      </trkpt>
      <trkpt lat="45.61338" lon="4.68807">
        <ele>343</ele>
        <time>2015-10-18T09:37:42.354Z</time>
      </trkpt>
      <trkpt lat="45.61335" lon="4.68812">
        <ele>342</ele>
        <time>2015-10-18T09:37:43.372Z</time>
      </trkpt>
      <trkpt lat="45.6133" lon="4.68816">
        <ele>340</ele>
        <time>2015-10-18T09:37:44.361Z</time>
      </trkpt>
      <trkpt lat="45.61324" lon="4.68822">
        <ele>340</ele>
        <time>2015-10-18T09:37:46.392Z</time>
      </trkpt>
      <trkpt lat="45.61322" lon="4.68827">
        <ele>340</ele>
        <time>2015-10-18T09:37:47.360Z</time>
      </trkpt>
      <trkpt lat="45.61315" lon="4.68833">
        <ele>340</ele>
        <time>2015-10-18T09:37:49.392Z</time>
      </trkpt>
      <trkpt lat="45.61312" lon="4.68835">
        <ele>340</ele>
        <time>2015-10-18T09:37:50.356Z</time>
      </trkpt>
      <trkpt lat="45.61308" lon="4.68839">
        <ele>340</ele>
        <time>2015-10-18T09:37:51.387Z</time>
      </trkpt>
      <trkpt lat="45.61305" lon="4.68844">
        <ele>339</ele>
        <time>2015-10-18T09:37:52.354Z</time>
      </trkpt>
      <trkpt lat="45.61298" lon="4.68852">
        <ele>339</ele>
        <time>2015-10-18T09:37:54.390Z</time>
      </trkpt>
      <trkpt lat="45.61296" lon="4.68857">
        <ele>339</ele>
        <time>2015-10-18T09:37:55.517Z</time>
      </trkpt>
      <trkpt lat="45.61293" lon="4.68861">
        <ele>339</ele>
        <time>2015-10-18T09:37:56.402Z</time>
      </trkpt>
      <trkpt lat="45.61288" lon="4.68865">
        <ele>339</ele>
        <time>2015-10-18T09:37:57.350Z</time>
      </trkpt>
      <trkpt lat="45.61282" lon="4.68874">
        <ele>339</ele>
        <time>2015-10-18T09:37:59.388Z</time>
      </trkpt>
      <trkpt lat="45.61279" lon="4.6888">
        <ele>338</ele>
        <time>2015-10-18T09:38:00.379Z</time>
      </trkpt>
      <trkpt lat="45.61275" lon="4.68887">
        <ele>338</ele>
        <time>2015-10-18T09:38:01.395Z</time>
      </trkpt>
      <trkpt lat="45.61271" lon="4.68891">
        <ele>338</ele>
        <time>2015-10-18T09:38:02.355Z</time>
      </trkpt>
      <trkpt lat="45.61267" lon="4.68897">
        <ele>338</ele>
        <time>2015-10-18T09:38:03.387Z</time>
      </trkpt>
      <trkpt lat="45.61264" lon="4.68904">
        <ele>337</ele>
        <time>2015-10-18T09:38:04.356Z</time>
      </trkpt>
      <trkpt lat="45.61261" lon="4.6891">
        <ele>337</ele>
        <time>2015-10-18T09:38:05.402Z</time>
      </trkpt>
      <trkpt lat="45.61257" lon="4.68917">
        <ele>337</ele>
        <time>2015-10-18T09:38:06.349Z</time>
      </trkpt>
      <trkpt lat="45.61254" lon="4.68923">
        <ele>336</ele>
        <time>2015-10-18T09:38:07.390Z</time>
      </trkpt>
      <trkpt lat="45.61249" lon="4.68927">
        <ele>334</ele>
        <time>2015-10-18T09:38:08.358Z</time>
      </trkpt>
      <trkpt lat="45.61243" lon="4.6893">
        <ele>334</ele>
        <time>2015-10-18T09:38:09.388Z</time>
      </trkpt>
      <trkpt lat="45.61237" lon="4.6893">
        <ele>334</ele>
        <time>2015-10-18T09:38:10.358Z</time>
      </trkpt>
      <trkpt lat="45.61231" lon="4.6893">
        <ele>333</ele>
        <time>2015-10-18T09:38:11.380Z</time>
      </trkpt>
      <trkpt lat="45.61224" lon="4.68927">
        <ele>333</ele>
        <time>2015-10-18T09:38:12.355Z</time>
      </trkpt>
      <trkpt lat="45.61217" lon="4.6893">
        <ele>332</ele>
        <time>2015-10-18T09:38:13.385Z</time>
      </trkpt>
      <trkpt lat="45.6121" lon="4.68932">
        <ele>332</ele>
        <time>2015-10-18T09:38:14.351Z</time>
      </trkpt>
      <trkpt lat="45.61203" lon="4.68934">
        <ele>332</ele>
        <time>2015-10-18T09:38:15.387Z</time>
      </trkpt>
      <trkpt lat="45.61196" lon="4.68936">
        <ele>331</ele>
        <time>2015-10-18T09:38:16.358Z</time>
      </trkpt>
      <trkpt lat="45.6119" lon="4.6894">
        <ele>331</ele>
        <time>2015-10-18T09:38:17.397Z</time>
      </trkpt>
      <trkpt lat="45.61183" lon="4.68947">
        <ele>331</ele>
        <time>2015-10-18T09:38:18.356Z</time>
      </trkpt>
      <trkpt lat="45.61177" lon="4.68951">
        <ele>331</ele>
        <time>2015-10-18T09:38:19.427Z</time>
      </trkpt>
      <trkpt lat="45.61172" lon="4.6896">
        <ele>330</ele>
        <time>2015-10-18T09:38:20.359Z</time>
      </trkpt>
      <trkpt lat="45.61167" lon="4.6897">
        <ele>330</ele>
        <time>2015-10-18T09:38:21.379Z</time>
      </trkpt>
      <trkpt lat="45.61165" lon="4.68981">
        <ele>326</ele>
        <time>2015-10-18T09:38:22.362Z</time>
      </trkpt>
      <trkpt lat="45.61162" lon="4.68992">
        <ele>327</ele>
        <time>2015-10-18T09:38:23.377Z</time>
      </trkpt>
      <trkpt lat="45.6116" lon="4.69005">
        <ele>326</ele>
        <time>2015-10-18T09:38:24.361Z</time>
      </trkpt>
      <trkpt lat="45.61155" lon="4.69015">
        <ele>325</ele>
        <time>2015-10-18T09:38:25.386Z</time>
      </trkpt>
      <trkpt lat="45.61152" lon="4.69026">
        <ele>324</ele>
        <time>2015-10-18T09:38:26.358Z</time>
      </trkpt>
      <trkpt lat="45.61148" lon="4.69037">
        <ele>323</ele>
        <time>2015-10-18T09:38:27.387Z</time>
      </trkpt>
      <trkpt lat="45.61144" lon="4.69048">
        <ele>323</ele>
        <time>2015-10-18T09:38:28.357Z</time>
      </trkpt>
      <trkpt lat="45.61144" lon="4.69048">
        <ele>323</ele>
        <time>2015-10-18T09:38:28.505Z</time>
      </trkpt>
      <trkpt lat="45.61138" lon="4.69058">
        <ele>322</ele>
        <time>2015-10-18T09:38:29.350Z</time>
      </trkpt>
      <trkpt lat="45.61131" lon="4.69065">
        <ele>322</ele>
        <time>2015-10-18T09:38:30.404Z</time>
      </trkpt>
      <trkpt lat="45.61124" lon="4.69073">
        <ele>322</ele>
        <time>2015-10-18T09:38:31.363Z</time>
      </trkpt>
      <trkpt lat="45.61118" lon="4.69082">
        <ele>322</ele>
        <time>2015-10-18T09:38:32.398Z</time>
      </trkpt>
      <trkpt lat="45.61113" lon="4.69088">
        <ele>320</ele>
        <time>2015-10-18T09:38:33.354Z</time>
      </trkpt>
      <trkpt lat="45.61107" lon="4.69095">
        <ele>320</ele>
        <time>2015-10-18T09:38:34.379Z</time>
      </trkpt>
      <trkpt lat="45.61103" lon="4.69101">
        <ele>320</ele>
        <time>2015-10-18T09:38:35.361Z</time>
      </trkpt>
      <trkpt lat="45.61096" lon="4.6911">
        <ele>320</ele>
        <time>2015-10-18T09:38:37.400Z</time>
      </trkpt>
      <trkpt lat="45.61094" lon="4.69114">
        <ele>320</ele>
        <time>2015-10-18T09:38:38.362Z</time>
      </trkpt>
      <trkpt lat="45.61088" lon="4.69123">
        <ele>320</ele>
        <time>2015-10-18T09:38:40.391Z</time>
      </trkpt>
      <trkpt lat="45.61087" lon="4.69127">
        <ele>319</ele>
        <time>2015-10-18T09:38:41.362Z</time>
      </trkpt>
      <trkpt lat="45.61082" lon="4.69131">
        <ele>318</ele>
        <time>2015-10-18T09:38:42.399Z</time>
      </trkpt>
      <trkpt lat="45.61079" lon="4.69136">
        <ele>317</ele>
        <time>2015-10-18T09:38:43.353Z</time>
      </trkpt>
      <trkpt lat="45.61075" lon="4.69146">
        <ele>317</ele>
        <time>2015-10-18T09:38:45.388Z</time>
      </trkpt>
      <trkpt lat="45.61072" lon="4.69151">
        <ele>317</ele>
        <time>2015-10-18T09:38:46.357Z</time>
      </trkpt>
      <trkpt lat="45.61066" lon="4.69159">
        <ele>317</ele>
        <time>2015-10-18T09:38:48.382Z</time>
      </trkpt>
      <trkpt lat="45.61062" lon="4.69159">
        <ele>317</ele>
        <time>2015-10-18T09:38:49.361Z</time>
      </trkpt>
      <trkpt lat="45.61058" lon="4.69155">
        <ele>317</ele>
        <time>2015-10-18T09:38:50.380Z</time>
      </trkpt>
      <trkpt lat="45.61054" lon="4.69151">
        <ele>317</ele>
        <time>2015-10-18T09:38:51.359Z</time>
      </trkpt>
      <trkpt lat="45.61048" lon="4.69144">
        <ele>317</ele>
        <time>2015-10-18T09:38:53.398Z</time>
      </trkpt>
      <trkpt lat="45.61045" lon="4.69142">
        <ele>317</ele>
        <time>2015-10-18T09:38:54.357Z</time>
      </trkpt>
      <trkpt lat="45.6104" lon="4.69136">
        <ele>317</ele>
        <time>2015-10-18T09:38:56.386Z</time>
      </trkpt>
      <trkpt lat="45.61036" lon="4.69133">
        <ele>317</ele>
        <time>2015-10-18T09:38:57.354Z</time>
      </trkpt>
      <trkpt lat="45.6103" lon="4.69127">
        <ele>317</ele>
        <time>2015-10-18T09:38:59.400Z</time>
      </trkpt>
      <trkpt lat="45.61027" lon="4.69127">
        <ele>317</ele>
        <time>2015-10-18T09:39:00.359Z</time>
      </trkpt>
      <trkpt lat="45.61019" lon="4.69127">
        <ele>317</ele>
        <time>2015-10-18T09:39:03.419Z</time>
      </trkpt>
      <trkpt lat="45.61016" lon="4.69127">
        <ele>317</ele>
        <time>2015-10-18T09:39:04.354Z</time>
      </trkpt>
      <trkpt lat="45.6101" lon="4.69127">
        <ele>317</ele>
        <time>2015-10-18T09:39:06.397Z</time>
      </trkpt>
      <trkpt lat="45.61006" lon="4.69129">
        <ele>317</ele>
        <time>2015-10-18T09:39:07.355Z</time>
      </trkpt>
      <trkpt lat="45.60998" lon="4.69129">
        <ele>315</ele>
        <time>2015-10-18T09:39:09.389Z</time>
      </trkpt>
      <trkpt lat="45.60992" lon="4.69129">
        <ele>315</ele>
        <time>2015-10-18T09:39:10.378Z</time>
      </trkpt>
      <trkpt lat="45.60986" lon="4.69127">
        <ele>315</ele>
        <time>2015-10-18T09:39:11.367Z</time>
      </trkpt>
      <trkpt lat="45.60979" lon="4.69129">
        <ele>315</ele>
        <time>2015-10-18T09:39:12.353Z</time>
      </trkpt>
      <trkpt lat="45.60973" lon="4.69127">
        <ele>315</ele>
        <time>2015-10-18T09:39:13.368Z</time>
      </trkpt>
      <trkpt lat="45.60968" lon="4.69127">
        <ele>315</ele>
        <time>2015-10-18T09:39:14.393Z</time>
      </trkpt>
      <trkpt lat="45.60961" lon="4.69129">
        <ele>315</ele>
        <time>2015-10-18T09:39:15.399Z</time>
      </trkpt>
      <trkpt lat="45.60956" lon="4.69129">
        <ele>314</ele>
        <time>2015-10-18T09:39:16.354Z</time>
      </trkpt>
      <trkpt lat="45.60952" lon="4.69129">
        <ele>314</ele>
        <time>2015-10-18T09:39:17.401Z</time>
      </trkpt>
      <trkpt lat="45.60945" lon="4.69129">
        <ele>314</ele>
        <time>2015-10-18T09:39:18.357Z</time>
      </trkpt>
      <trkpt lat="45.6094" lon="4.69129">
        <ele>314</ele>
        <time>2015-10-18T09:39:19.380Z</time>
      </trkpt>
      <trkpt lat="45.60933" lon="4.69129">
        <ele>314</ele>
        <time>2015-10-18T09:39:20.361Z</time>
      </trkpt>
      <trkpt lat="45.60928" lon="4.69131">
        <ele>314</ele>
        <time>2015-10-18T09:39:21.400Z</time>
      </trkpt>
      <trkpt lat="45.60923" lon="4.69129">
        <ele>314</ele>
        <time>2015-10-18T09:39:22.355Z</time>
      </trkpt>
      <trkpt lat="45.60917" lon="4.69129">
        <ele>314</ele>
        <time>2015-10-18T09:39:23.393Z</time>
      </trkpt>
      <trkpt lat="45.60911" lon="4.69129">
        <ele>313</ele>
        <time>2015-10-18T09:39:24.357Z</time>
      </trkpt>
      <trkpt lat="45.60905" lon="4.69129">
        <ele>313</ele>
        <time>2015-10-18T09:39:25.409Z</time>
      </trkpt>
      <trkpt lat="45.609" lon="4.69127">
        <ele>313</ele>
        <time>2015-10-18T09:39:26.360Z</time>
      </trkpt>
      <trkpt lat="45.60895" lon="4.69127">
        <ele>313</ele>
        <time>2015-10-18T09:39:27.394Z</time>
      </trkpt>
      <trkpt lat="45.60889" lon="4.69127">
        <ele>313</ele>
        <time>2015-10-18T09:39:28.355Z</time>
      </trkpt>
      <trkpt lat="45.60885" lon="4.69125">
        <ele>313</ele>
        <time>2015-10-18T09:39:29.373Z</time>
      </trkpt>
      <trkpt lat="45.6088" lon="4.69125">
        <ele>313</ele>
        <time>2015-10-18T09:39:30.358Z</time>
      </trkpt>
      <trkpt lat="45.60874" lon="4.69127">
        <ele>313</ele>
        <time>2015-10-18T09:39:31.393Z</time>
      </trkpt>
      <trkpt lat="45.6087" lon="4.69125">
        <ele>312</ele>
        <time>2015-10-18T09:39:32.360Z</time>
      </trkpt>
      <trkpt lat="45.60865" lon="4.69125">
        <ele>312</ele>
        <time>2015-10-18T09:39:33.378Z</time>
      </trkpt>
      <trkpt lat="45.6086" lon="4.69127">
        <ele>312</ele>
        <time>2015-10-18T09:39:34.356Z</time>
      </trkpt>
      <trkpt lat="45.60856" lon="4.69127">
        <ele>312</ele>
        <time>2015-10-18T09:39:35.400Z</time>
      </trkpt>
      <trkpt lat="45.60851" lon="4.69127">
        <ele>312</ele>
        <time>2015-10-18T09:39:36.356Z</time>
      </trkpt>
      <trkpt lat="45.60845" lon="4.69127">
        <ele>312</ele>
        <time>2015-10-18T09:39:37.394Z</time>
      </trkpt>
      <trkpt lat="45.6084" lon="4.69127">
        <ele>312</ele>
        <time>2015-10-18T09:39:38.357Z</time>
      </trkpt>
      <trkpt lat="45.60836" lon="4.69125">
        <ele>312</ele>
        <time>2015-10-18T09:39:39.393Z</time>
      </trkpt>
      <trkpt lat="45.60831" lon="4.69123">
        <ele>310</ele>
        <time>2015-10-18T09:39:40.357Z</time>
      </trkpt>
      <trkpt lat="45.60827" lon="4.69118">
        <ele>310</ele>
        <time>2015-10-18T09:39:41.392Z</time>
      </trkpt>
      <trkpt lat="45.60823" lon="4.69114">
        <ele>310</ele>
        <time>2015-10-18T09:39:42.357Z</time>
      </trkpt>
      <trkpt lat="45.60814" lon="4.69112">
        <ele>309</ele>
        <time>2015-10-18T09:39:44.380Z</time>
      </trkpt>
      <trkpt lat="45.6081" lon="4.6911">
        <ele>309</ele>
        <time>2015-10-18T09:39:45.360Z</time>
      </trkpt>
      <trkpt lat="45.60805" lon="4.6911">
        <ele>309</ele>
        <time>2015-10-18T09:39:46.381Z</time>
      </trkpt>
      <trkpt lat="45.60798" lon="4.69108">
        <ele>309</ele>
        <time>2015-10-18T09:39:47.354Z</time>
      </trkpt>
      <trkpt lat="45.60792" lon="4.69103">
        <ele>308</ele>
        <time>2015-10-18T09:39:48.390Z</time>
      </trkpt>
      <trkpt lat="45.60784" lon="4.69099">
        <ele>308</ele>
        <time>2015-10-18T09:39:49.355Z</time>
      </trkpt>
      <trkpt lat="45.60778" lon="4.69097">
        <ele>308</ele>
        <time>2015-10-18T09:39:50.373Z</time>
      </trkpt>
      <trkpt lat="45.60771" lon="4.6909">
        <ele>307</ele>
        <time>2015-10-18T09:39:51.358Z</time>
      </trkpt>
      <trkpt lat="45.60766" lon="4.69088">
        <ele>306</ele>
        <time>2015-10-18T09:39:52.395Z</time>
      </trkpt>
      <trkpt lat="45.60758" lon="4.69084">
        <ele>305</ele>
        <time>2015-10-18T09:39:53.365Z</time>
      </trkpt>
      <trkpt lat="45.60753" lon="4.6908">
        <ele>304</ele>
        <time>2015-10-18T09:39:54.389Z</time>
      </trkpt>
      <trkpt lat="45.60747" lon="4.69073">
        <ele>303</ele>
        <time>2015-10-18T09:39:55.356Z</time>
      </trkpt>
      <trkpt lat="45.60741" lon="4.69069">
        <ele>303</ele>
        <time>2015-10-18T09:39:56.377Z</time>
      </trkpt>
      <trkpt lat="45.60736" lon="4.69065">
        <ele>303</ele>
        <time>2015-10-18T09:39:57.352Z</time>
      </trkpt>
      <trkpt lat="45.60731" lon="4.69058">
        <ele>302</ele>
        <time>2015-10-18T09:39:58.374Z</time>
      </trkpt>
      <trkpt lat="45.60727" lon="4.69052">
        <ele>302</ele>
        <time>2015-10-18T09:39:59.344Z</time>
      </trkpt>
      <trkpt lat="45.60723" lon="4.69045">
        <ele>302</ele>
        <time>2015-10-18T09:40:00.370Z</time>
      </trkpt>
      <trkpt lat="45.60719" lon="4.69039">
        <ele>302</ele>
        <time>2015-10-18T09:40:01.355Z</time>
      </trkpt>
      <trkpt lat="45.60714" lon="4.69035">
        <ele>302</ele>
        <time>2015-10-18T09:40:02.389Z</time>
      </trkpt>
      <trkpt lat="45.60711" lon="4.69028">
        <ele>302</ele>
        <time>2015-10-18T09:40:03.386Z</time>
      </trkpt>
      <trkpt lat="45.60707" lon="4.69024">
        <ele>302</ele>
        <time>2015-10-18T09:40:04.373Z</time>
      </trkpt>
      <trkpt lat="45.60703" lon="4.69018">
        <ele>302</ele>
        <time>2015-10-18T09:40:05.346Z</time>
      </trkpt>
      <trkpt lat="45.60698" lon="4.69011">
        <ele>302</ele>
        <time>2015-10-18T09:40:06.369Z</time>
      </trkpt>
      <trkpt lat="45.60694" lon="4.69007">
        <ele>302</ele>
        <time>2015-10-18T09:40:07.356Z</time>
      </trkpt>
      <trkpt lat="45.6069" lon="4.69002">
        <ele>302</ele>
        <time>2015-10-18T09:40:08.489Z</time>
      </trkpt>
      <trkpt lat="45.60686" lon="4.69">
        <ele>301</ele>
        <time>2015-10-18T09:40:09.355Z</time>
      </trkpt>
      <trkpt lat="45.6068" lon="4.68998">
        <ele>301</ele>
        <time>2015-10-18T09:40:10.385Z</time>
      </trkpt>
      <trkpt lat="45.60675" lon="4.68994">
        <ele>301</ele>
        <time>2015-10-18T09:40:11.346Z</time>
      </trkpt>
      <trkpt lat="45.60669" lon="4.68992">
        <ele>301</ele>
        <time>2015-10-18T09:40:12.374Z</time>
      </trkpt>
      <trkpt lat="45.60663" lon="4.68992">
        <ele>300</ele>
        <time>2015-10-18T09:40:13.353Z</time>
      </trkpt>
      <trkpt lat="45.60655" lon="4.68992">
        <ele>300</ele>
        <time>2015-10-18T09:40:14.392Z</time>
      </trkpt>
      <trkpt lat="45.60649" lon="4.68994">
        <ele>300</ele>
        <time>2015-10-18T09:40:15.355Z</time>
      </trkpt>
      <trkpt lat="45.60643" lon="4.68994">
        <ele>300</ele>
        <time>2015-10-18T09:40:16.371Z</time>
      </trkpt>
      <trkpt lat="45.60635" lon="4.68996">
        <ele>300</ele>
        <time>2015-10-18T09:40:17.353Z</time>
      </trkpt>
      <trkpt lat="45.60629" lon="4.69">
        <ele>300</ele>
        <time>2015-10-18T09:40:18.390Z</time>
      </trkpt>
      <trkpt lat="45.60622" lon="4.69007">
        <ele>300</ele>
        <time>2015-10-18T09:40:19.370Z</time>
      </trkpt>
      <trkpt lat="45.60618" lon="4.69011">
        <ele>299</ele>
        <time>2015-10-18T09:40:20.396Z</time>
      </trkpt>
      <trkpt lat="45.60614" lon="4.69018">
        <ele>299</ele>
        <time>2015-10-18T09:40:21.361Z</time>
      </trkpt>
      <trkpt lat="45.60609" lon="4.69022">
        <ele>299</ele>
        <time>2015-10-18T09:40:22.381Z</time>
      </trkpt>
      <trkpt lat="45.60605" lon="4.69028">
        <ele>299</ele>
        <time>2015-10-18T09:40:23.358Z</time>
      </trkpt>
      <trkpt lat="45.60601" lon="4.69033">
        <ele>299</ele>
        <time>2015-10-18T09:40:24.375Z</time>
      </trkpt>
      <trkpt lat="45.60598" lon="4.69037">
        <ele>299</ele>
        <time>2015-10-18T09:40:25.354Z</time>
      </trkpt>
      <trkpt lat="45.60594" lon="4.69043">
        <ele>299</ele>
        <time>2015-10-18T09:40:26.388Z</time>
      </trkpt>
      <trkpt lat="45.60591" lon="4.69048">
        <ele>299</ele>
        <time>2015-10-18T09:40:27.357Z</time>
      </trkpt>
      <trkpt lat="45.60586" lon="4.69056">
        <ele>299</ele>
        <time>2015-10-18T09:40:29.389Z</time>
      </trkpt>
      <trkpt lat="45.60583" lon="4.69063">
        <ele>298</ele>
        <time>2015-10-18T09:40:30.354Z</time>
      </trkpt>
      <trkpt lat="45.60578" lon="4.69071">
        <ele>298</ele>
        <time>2015-10-18T09:40:33.395Z</time>
      </trkpt>
      <trkpt lat="45.60577" lon="4.69073">
        <ele>298</ele>
        <time>2015-10-18T09:40:34.352Z</time>
      </trkpt>
      <trkpt lat="45.6057" lon="4.69069">
        <ele>298</ele>
        <time>2015-10-18T09:40:39.379Z</time>
      </trkpt>
      <trkpt lat="45.60566" lon="4.69067">
        <ele>298</ele>
        <time>2015-10-18T09:40:40.355Z</time>
      </trkpt>
      <trkpt lat="45.60561" lon="4.69058">
        <ele>297</ele>
        <time>2015-10-18T09:40:42.370Z</time>
      </trkpt>
      <trkpt lat="45.60558" lon="4.69052">
        <ele>297</ele>
        <time>2015-10-18T09:40:43.348Z</time>
      </trkpt>
      <trkpt lat="45.60555" lon="4.69045">
        <ele>297</ele>
        <time>2015-10-18T09:40:44.388Z</time>
      </trkpt>
      <trkpt lat="45.6055" lon="4.69041">
        <ele>297</ele>
        <time>2015-10-18T09:40:45.348Z</time>
      </trkpt>
      <trkpt lat="45.60547" lon="4.69037">
        <ele>297</ele>
        <time>2015-10-18T09:40:46.362Z</time>
      </trkpt>
      <trkpt lat="45.60544" lon="4.6903">
        <ele>297</ele>
        <time>2015-10-18T09:40:47.365Z</time>
      </trkpt>
      <trkpt lat="45.60541" lon="4.69026">
        <ele>297</ele>
        <time>2015-10-18T09:40:48.370Z</time>
      </trkpt>
      <trkpt lat="45.60537" lon="4.6902">
        <ele>297</ele>
        <time>2015-10-18T09:40:49.347Z</time>
      </trkpt>
      <trkpt lat="45.60533" lon="4.69015">
        <ele>297</ele>
        <time>2015-10-18T09:40:50.369Z</time>
      </trkpt>
      <trkpt lat="45.6053" lon="4.69011">
        <ele>297</ele>
        <time>2015-10-18T09:40:51.336Z</time>
      </trkpt>
      <trkpt lat="45.60524" lon="4.69002">
        <ele>297</ele>
        <time>2015-10-18T09:40:53.382Z</time>
      </trkpt>
      <trkpt lat="45.60521" lon="4.68998">
        <ele>298</ele>
        <time>2015-10-18T09:40:54.347Z</time>
      </trkpt>
      <trkpt lat="45.60519" lon="4.68994">
        <ele>298</ele>
        <time>2015-10-18T09:40:55.394Z</time>
      </trkpt>
      <trkpt lat="45.60516" lon="4.68987">
        <ele>298</ele>
        <time>2015-10-18T09:40:56.356Z</time>
      </trkpt>
      <trkpt lat="45.60511" lon="4.68981">
        <ele>298</ele>
        <time>2015-10-18T09:40:58.384Z</time>
      </trkpt>
      <trkpt lat="45.60508" lon="4.68977">
        <ele>298</ele>
        <time>2015-10-18T09:40:59.353Z</time>
      </trkpt>
      <trkpt lat="45.60503" lon="4.6897">
        <ele>298</ele>
        <time>2015-10-18T09:41:01.387Z</time>
      </trkpt>
      <trkpt lat="45.60501" lon="4.68968">
        <ele>298</ele>
        <time>2015-10-18T09:41:02.367Z</time>
      </trkpt>
      <trkpt lat="45.60495" lon="4.68972">
        <ele>297</ele>
        <time>2015-10-18T09:41:05.385Z</time>
      </trkpt>
      <trkpt lat="45.60493" lon="4.68977">
        <ele>297</ele>
        <time>2015-10-18T09:41:06.369Z</time>
      </trkpt>
      <trkpt lat="45.6049" lon="4.68987">
        <ele>297</ele>
        <time>2015-10-18T09:41:08.391Z</time>
      </trkpt>
      <trkpt lat="45.6049" lon="4.68992">
        <ele>297</ele>
        <time>2015-10-18T09:41:09.351Z</time>
      </trkpt>
      <trkpt lat="45.60493" lon="4.69">
        <ele>297</ele>
        <time>2015-10-18T09:41:11.391Z</time>
      </trkpt>
      <trkpt lat="45.60496" lon="4.69002">
        <ele>297</ele>
        <time>2015-10-18T09:41:12.353Z</time>
      </trkpt>
      <trkpt lat="45.60502" lon="4.69009">
        <ele>297</ele>
        <time>2015-10-18T09:41:14.392Z</time>
      </trkpt>
      <trkpt lat="45.60505" lon="4.69013">
        <ele>297</ele>
        <time>2015-10-18T09:41:15.360Z</time>
      </trkpt>
      <trkpt lat="45.60508" lon="4.69018">
        <ele>297</ele>
        <time>2015-10-18T09:41:16.389Z</time>
      </trkpt>
      <trkpt lat="45.60513" lon="4.69022">
        <ele>297</ele>
        <time>2015-10-18T09:41:17.356Z</time>
      </trkpt>
      <trkpt lat="45.60517" lon="4.69028">
        <ele>297</ele>
        <time>2015-10-18T09:41:18.395Z</time>
      </trkpt>
      <trkpt lat="45.60521" lon="4.69033">
        <ele>297</ele>
        <time>2015-10-18T09:41:19.356Z</time>
      </trkpt>
      <trkpt lat="45.60524" lon="4.69037">
        <ele>297</ele>
        <time>2015-10-18T09:41:20.388Z</time>
      </trkpt>
      <trkpt lat="45.60527" lon="4.69043">
        <ele>297</ele>
        <time>2015-10-18T09:41:21.363Z</time>
      </trkpt>
      <trkpt lat="45.60532" lon="4.69052">
        <ele>297</ele>
        <time>2015-10-18T09:41:23.400Z</time>
      </trkpt>
      <trkpt lat="45.60535" lon="4.69058">
        <ele>297</ele>
        <time>2015-10-18T09:41:24.365Z</time>
      </trkpt>
      <trkpt lat="45.60541" lon="4.69067">
        <ele>297</ele>
        <time>2015-10-18T09:41:26.400Z</time>
      </trkpt>
      <trkpt lat="45.60544" lon="4.69071">
        <ele>297</ele>
        <time>2015-10-18T09:41:27.363Z</time>
      </trkpt>
      <trkpt lat="45.6055" lon="4.69078">
        <ele>297</ele>
        <time>2015-10-18T09:41:29.380Z</time>
      </trkpt>
      <trkpt lat="45.60552" lon="4.69082">
        <ele>297</ele>
        <time>2015-10-18T09:41:30.353Z</time>
      </trkpt>
      <trkpt lat="45.60558" lon="4.6909">
        <ele>298</ele>
        <time>2015-10-18T09:41:32.384Z</time>
      </trkpt>
      <trkpt lat="45.60561" lon="4.69095">
        <ele>298</ele>
        <time>2015-10-18T09:41:33.366Z</time>
      </trkpt>
      <trkpt lat="45.60566" lon="4.69101">
        <ele>298</ele>
        <time>2015-10-18T09:41:35.367Z</time>
      </trkpt>
      <trkpt lat="45.60569" lon="4.69105">
        <ele>298</ele>
        <time>2015-10-18T09:41:36.350Z</time>
      </trkpt>
      <trkpt lat="45.60573" lon="4.69116">
        <ele>298</ele>
        <time>2015-10-18T09:41:41.393Z</time>
      </trkpt>
      <trkpt lat="45.60573" lon="4.69118">
        <ele>298</ele>
        <time>2015-10-18T09:41:42.352Z</time>
      </trkpt>
      <trkpt lat="45.60576" lon="4.69129">
        <ele>299</ele>
        <time>2015-10-18T09:41:47.393Z</time>
      </trkpt>
      <trkpt lat="45.60578" lon="4.69131">
        <ele>299</ele>
        <time>2015-10-18T09:41:48.358Z</time>
      </trkpt>
      <trkpt lat="45.60585" lon="4.6914">
        <ele>301</ele>
        <time>2015-10-18T09:41:52.395Z</time>
      </trkpt>
      <trkpt lat="45.60586" lon="4.69142">
        <ele>301</ele>
        <time>2015-10-18T09:41:53.395Z</time>
      </trkpt>
      <trkpt lat="45.60593" lon="4.69148">
        <ele>301</ele>
        <time>2015-10-18T09:41:57.408Z</time>
      </trkpt>
      <trkpt lat="45.60594" lon="4.69151">
        <ele>301</ele>
        <time>2015-10-18T09:41:58.372Z</time>
      </trkpt>
      <trkpt lat="45.606" lon="4.69159">
        <ele>301</ele>
        <time>2015-10-18T09:42:02.395Z</time>
      </trkpt>
      <trkpt lat="45.60601" lon="4.69161">
        <ele>301</ele>
        <time>2015-10-18T09:42:03.364Z</time>
      </trkpt>
      <trkpt lat="45.60604" lon="4.69168">
        <ele>302</ele>
        <time>2015-10-18T09:42:06.442Z</time>
      </trkpt>
      <trkpt lat="45.60606" lon="4.69172">
        <ele>302</ele>
        <time>2015-10-18T09:42:07.370Z</time>
      </trkpt>
      <trkpt lat="45.6061" lon="4.69181">
        <ele>302</ele>
        <time>2015-10-18T09:42:11.386Z</time>
      </trkpt>
      <trkpt lat="45.60611" lon="4.69183">
        <ele>302</ele>
        <time>2015-10-18T09:42:12.370Z</time>
      </trkpt>
      <trkpt lat="45.60617" lon="4.69189">
        <ele>302</ele>
        <time>2015-10-18T09:42:38.415Z</time>
      </trkpt>
      <trkpt lat="45.60619" lon="4.69191">
        <ele>302</ele>
        <time>2015-10-18T09:42:39.369Z</time>
      </trkpt>
      <trkpt lat="45.60625" lon="4.692">
        <ele>302</ele>
        <time>2015-10-18T09:42:43.404Z</time>
      </trkpt>
      <trkpt lat="45.60628" lon="4.69202">
        <ele>302</ele>
        <time>2015-10-18T09:42:44.369Z</time>
      </trkpt>
      <trkpt lat="45.60633" lon="4.69208">
        <ele>303</ele>
        <time>2015-10-18T09:42:47.419Z</time>
      </trkpt>
      <trkpt lat="45.60635" lon="4.69211">
        <ele>303</ele>
        <time>2015-10-18T09:42:48.374Z</time>
      </trkpt>
      <trkpt lat="45.60639" lon="4.69219">
        <ele>303</ele>
        <time>2015-10-18T09:42:51.414Z</time>
      </trkpt>
      <trkpt lat="45.6064" lon="4.69221">
        <ele>303</ele>
        <time>2015-10-18T09:42:52.356Z</time>
      </trkpt>
      <trkpt lat="45.60647" lon="4.69228">
        <ele>303</ele>
        <time>2015-10-18T09:42:56.531Z</time>
      </trkpt>
      <trkpt lat="45.60649" lon="4.6923">
        <ele>303</ele>
        <time>2015-10-18T09:42:57.380Z</time>
      </trkpt>
      <trkpt lat="45.60655" lon="4.69239">
        <ele>303</ele>
        <time>2015-10-18T09:43:01.388Z</time>
      </trkpt>
      <trkpt lat="45.60658" lon="4.69243">
        <ele>303</ele>
        <time>2015-10-18T09:43:02.358Z</time>
      </trkpt>
      <trkpt lat="45.60663" lon="4.69251">
        <ele>303</ele>
        <time>2015-10-18T09:43:04.404Z</time>
      </trkpt>
      <trkpt lat="45.60665" lon="4.69256">
        <ele>303</ele>
        <time>2015-10-18T09:43:05.366Z</time>
      </trkpt>
      <trkpt lat="45.60669" lon="4.6926">
        <ele>304</ele>
        <time>2015-10-18T09:43:07.396Z</time>
      </trkpt>
      <trkpt lat="45.60673" lon="4.69264">
        <ele>304</ele>
        <time>2015-10-18T09:43:08.365Z</time>
      </trkpt>
      <trkpt lat="45.60677" lon="4.69271">
        <ele>305</ele>
        <time>2015-10-18T09:43:10.394Z</time>
      </trkpt>
      <trkpt lat="45.60678" lon="4.69275">
        <ele>305</ele>
        <time>2015-10-18T09:43:11.362Z</time>
      </trkpt>
      <trkpt lat="45.60684" lon="4.69281">
        <ele>305</ele>
        <time>2015-10-18T09:43:14.412Z</time>
      </trkpt>
      <trkpt lat="45.60687" lon="4.69286">
        <ele>306</ele>
        <time>2015-10-18T09:43:15.369Z</time>
      </trkpt>
      <trkpt lat="45.6069" lon="4.69296">
        <ele>306</ele>
        <time>2015-10-18T09:43:19.421Z</time>
      </trkpt>
      <trkpt lat="45.6069" lon="4.69299">
        <ele>306</ele>
        <time>2015-10-18T09:43:20.408Z</time>
      </trkpt>
      <trkpt lat="45.60684" lon="4.69307">
        <ele>306</ele>
        <time>2015-10-18T09:43:23.416Z</time>
      </trkpt>
      <trkpt lat="45.60683" lon="4.69311">
        <ele>306</ele>
        <time>2015-10-18T09:43:24.378Z</time>
      </trkpt>
      <trkpt lat="45.60679" lon="4.6932">
        <ele>306</ele>
        <time>2015-10-18T09:43:27.417Z</time>
      </trkpt>
      <trkpt lat="45.60678" lon="4.69324">
        <ele>306</ele>
        <time>2015-10-18T09:43:28.375Z</time>
      </trkpt>
      <trkpt lat="45.60675" lon="4.69331">
        <ele>305</ele>
        <time>2015-10-18T09:43:30.420Z</time>
      </trkpt>
      <trkpt lat="45.60673" lon="4.69335">
        <ele>305</ele>
        <time>2015-10-18T09:43:31.378Z</time>
      </trkpt>
      <trkpt lat="45.60667" lon="4.69344">
        <ele>306</ele>
        <time>2015-10-18T09:43:34.410Z</time>
      </trkpt>
      <trkpt lat="45.60666" lon="4.69348">
        <ele>304</ele>
        <time>2015-10-18T09:43:35.379Z</time>
      </trkpt>
      <trkpt lat="45.60663" lon="4.69357">
        <ele>304</ele>
        <time>2015-10-18T09:43:38.413Z</time>
      </trkpt>
      <trkpt lat="45.60662" lon="4.69361">
        <ele>304</ele>
        <time>2015-10-18T09:43:39.390Z</time>
      </trkpt>
      <trkpt lat="45.6066" lon="4.69372">
        <ele>304</ele>
        <time>2015-10-18T09:43:41.415Z</time>
      </trkpt>
      <trkpt lat="45.60659" lon="4.69378">
        <ele>304</ele>
        <time>2015-10-18T09:43:42.409Z</time>
      </trkpt>
      <trkpt lat="45.60658" lon="4.69384">
        <ele>304</ele>
        <time>2015-10-18T09:43:43.414Z</time>
      </trkpt>
      <trkpt lat="45.60657" lon="4.69391">
        <ele>304</ele>
        <time>2015-10-18T09:43:44.383Z</time>
      </trkpt>
      <trkpt lat="45.60657" lon="4.69397">
        <ele>304</ele>
        <time>2015-10-18T09:43:45.420Z</time>
      </trkpt>
      <trkpt lat="45.60655" lon="4.69404">
        <ele>304</ele>
        <time>2015-10-18T09:43:46.375Z</time>
      </trkpt>
      <trkpt lat="45.60655" lon="4.6941">
        <ele>304</ele>
        <time>2015-10-18T09:43:47.514Z</time>
      </trkpt>
      <trkpt lat="45.60654" lon="4.69419">
        <ele>304</ele>
        <time>2015-10-18T09:43:48.375Z</time>
      </trkpt>
      <trkpt lat="45.60654" lon="4.69425">
        <ele>303</ele>
        <time>2015-10-18T09:43:49.408Z</time>
      </trkpt>
      <trkpt lat="45.60655" lon="4.69434">
        <ele>303</ele>
        <time>2015-10-18T09:43:50.375Z</time>
      </trkpt>
      <trkpt lat="45.60654" lon="4.6944">
        <ele>303</ele>
        <time>2015-10-18T09:43:51.396Z</time>
      </trkpt>
      <trkpt lat="45.60653" lon="4.69447">
        <ele>303</ele>
        <time>2015-10-18T09:43:52.378Z</time>
      </trkpt>
      <trkpt lat="45.60652" lon="4.69453">
        <ele>302</ele>
        <time>2015-10-18T09:43:53.400Z</time>
      </trkpt>
      <trkpt lat="45.60651" lon="4.6946">
        <ele>302</ele>
        <time>2015-10-18T09:43:54.374Z</time>
      </trkpt>
      <trkpt lat="45.6065" lon="4.69466">
        <ele>302</ele>
        <time>2015-10-18T09:43:55.406Z</time>
      </trkpt>
      <trkpt lat="45.60649" lon="4.69475">
        <ele>302</ele>
        <time>2015-10-18T09:43:56.364Z</time>
      </trkpt>
      <trkpt lat="45.60649" lon="4.69481">
        <ele>302</ele>
        <time>2015-10-18T09:43:57.404Z</time>
      </trkpt>
      <trkpt lat="45.60648" lon="4.6949">
        <ele>302</ele>
        <time>2015-10-18T09:43:58.375Z</time>
      </trkpt>
      <trkpt lat="45.60648" lon="4.69496">
        <ele>302</ele>
        <time>2015-10-18T09:43:59.403Z</time>
      </trkpt>
      <trkpt lat="45.60648" lon="4.69505">
        <ele>301</ele>
        <time>2015-10-18T09:44:00.378Z</time>
      </trkpt>
      <trkpt lat="45.60647" lon="4.69515">
        <ele>301</ele>
        <time>2015-10-18T09:44:02.404Z</time>
      </trkpt>
      <trkpt lat="45.60646" lon="4.69524">
        <ele>300</ele>
        <time>2015-10-18T09:44:03.373Z</time>
      </trkpt>
      <trkpt lat="45.60644" lon="4.6953">
        <ele>300</ele>
        <time>2015-10-18T09:44:04.402Z</time>
      </trkpt>
      <trkpt lat="45.60643" lon="4.69539">
        <ele>300</ele>
        <time>2015-10-18T09:44:05.376Z</time>
      </trkpt>
      <trkpt lat="45.60639" lon="4.69548">
        <ele>300</ele>
        <time>2015-10-18T09:44:06.404Z</time>
      </trkpt>
      <trkpt lat="45.60636" lon="4.69556">
        <ele>299</ele>
        <time>2015-10-18T09:44:07.376Z</time>
      </trkpt>
      <trkpt lat="45.60634" lon="4.69565">
        <ele>299</ele>
        <time>2015-10-18T09:44:08.402Z</time>
      </trkpt>
      <trkpt lat="45.60631" lon="4.69573">
        <ele>299</ele>
        <time>2015-10-18T09:44:09.372Z</time>
      </trkpt>
      <trkpt lat="45.60627" lon="4.6958">
        <ele>299</ele>
        <time>2015-10-18T09:44:10.404Z</time>
      </trkpt>
      <trkpt lat="45.60623" lon="4.69588">
        <ele>298</ele>
        <time>2015-10-18T09:44:11.373Z</time>
      </trkpt>
      <trkpt lat="45.6062" lon="4.69597">
        <ele>298</ele>
        <time>2015-10-18T09:44:12.394Z</time>
      </trkpt>
      <trkpt lat="45.60617" lon="4.69605">
        <ele>298</ele>
        <time>2015-10-18T09:44:13.370Z</time>
      </trkpt>
      <trkpt lat="45.60615" lon="4.69614">
        <ele>298</ele>
        <time>2015-10-18T09:44:14.471Z</time>
      </trkpt>
      <trkpt lat="45.60611" lon="4.6962">
        <ele>298</ele>
        <time>2015-10-18T09:44:15.372Z</time>
      </trkpt>
      <trkpt lat="45.60608" lon="4.69629">
        <ele>298</ele>
        <time>2015-10-18T09:44:16.395Z</time>
      </trkpt>
      <trkpt lat="45.60606" lon="4.69635">
        <ele>298</ele>
        <time>2015-10-18T09:44:17.370Z</time>
      </trkpt>
      <trkpt lat="45.60604" lon="4.69644">
        <ele>297</ele>
        <time>2015-10-18T09:44:18.391Z</time>
      </trkpt>
      <trkpt lat="45.60604" lon="4.69651">
        <ele>297</ele>
        <time>2015-10-18T09:44:19.362Z</time>
      </trkpt>
      <trkpt lat="45.60607" lon="4.69657">
        <ele>297</ele>
        <time>2015-10-18T09:44:20.416Z</time>
      </trkpt>
      <trkpt lat="45.6061" lon="4.69663">
        <ele>297</ele>
        <time>2015-10-18T09:44:21.366Z</time>
      </trkpt>
      <trkpt lat="45.60616" lon="4.69672">
        <ele>298</ele>
        <time>2015-10-18T09:44:23.404Z</time>
      </trkpt>
      <trkpt lat="45.60617" lon="4.69676">
        <ele>298</ele>
        <time>2015-10-18T09:44:24.362Z</time>
      </trkpt>
      <trkpt lat="45.60617" lon="4.69687">
        <ele>299</ele>
        <time>2015-10-18T09:44:28.393Z</time>
      </trkpt>
      <trkpt lat="45.60616" lon="4.69689">
        <ele>299</ele>
        <time>2015-10-18T09:44:29.355Z</time>
      </trkpt>
      <trkpt lat="45.60611" lon="4.697">
        <ele>299</ele>
        <time>2015-10-18T09:44:33.397Z</time>
      </trkpt>
      <trkpt lat="45.6061" lon="4.69702">
        <ele>299</ele>
        <time>2015-10-18T09:44:34.363Z</time>
      </trkpt>
      <trkpt lat="45.60609" lon="4.69713">
        <ele>299</ele>
        <time>2015-10-18T09:44:38.402Z</time>
      </trkpt>
      <trkpt lat="45.60609" lon="4.69717">
        <ele>299</ele>
        <time>2015-10-18T09:44:39.366Z</time>
      </trkpt>
      <trkpt lat="45.60607" lon="4.69728">
        <ele>298</ele>
        <time>2015-10-18T09:44:42.403Z</time>
      </trkpt>
      <trkpt lat="45.60607" lon="4.69732">
        <ele>298</ele>
        <time>2015-10-18T09:44:43.360Z</time>
      </trkpt>
      <trkpt lat="45.60603" lon="4.69743">
        <ele>298</ele>
        <time>2015-10-18T09:44:46.393Z</time>
      </trkpt>
      <trkpt lat="45.60602" lon="4.69749">
        <ele>298</ele>
        <time>2015-10-18T09:44:47.356Z</time>
      </trkpt>
      <trkpt lat="45.606" lon="4.69758">
        <ele>298</ele>
        <time>2015-10-18T09:44:49.391Z</time>
      </trkpt>
      <trkpt lat="45.60598" lon="4.69764">
        <ele>298</ele>
        <time>2015-10-18T09:44:50.353Z</time>
      </trkpt>
      <trkpt lat="45.60598" lon="4.69771">
        <ele>299</ele>
        <time>2015-10-18T09:44:51.404Z</time>
      </trkpt>
      <trkpt lat="45.60596" lon="4.69777">
        <ele>299</ele>
        <time>2015-10-18T09:44:52.354Z</time>
      </trkpt>
      <trkpt lat="45.60595" lon="4.69786">
        <ele>299</ele>
        <time>2015-10-18T09:44:54.437Z</time>
      </trkpt>
      <trkpt lat="45.60594" lon="4.69792">
        <ele>299</ele>
        <time>2015-10-18T09:44:55.367Z</time>
      </trkpt>
      <trkpt lat="45.60593" lon="4.69799">
        <ele>299</ele>
        <time>2015-10-18T09:44:56.392Z</time>
      </trkpt>
      <trkpt lat="45.60591" lon="4.69805">
        <ele>299</ele>
        <time>2015-10-18T09:44:57.356Z</time>
      </trkpt>
      <trkpt lat="45.6059" lon="4.69811">
        <ele>299</ele>
        <time>2015-10-18T09:44:58.408Z</time>
      </trkpt>
      <trkpt lat="45.60589" lon="4.69818">
        <ele>299</ele>
        <time>2015-10-18T09:44:59.357Z</time>
      </trkpt>
      <trkpt lat="45.60587" lon="4.69824">
        <ele>298</ele>
        <time>2015-10-18T09:45:00.382Z</time>
      </trkpt>
      <trkpt lat="45.60586" lon="4.69831">
        <ele>297</ele>
        <time>2015-10-18T09:45:01.366Z</time>
      </trkpt>
      <trkpt lat="45.60586" lon="4.69841">
        <ele>298</ele>
        <time>2015-10-18T09:45:03.397Z</time>
      </trkpt>
      <trkpt lat="45.60588" lon="4.69846">
        <ele>298</ele>
        <time>2015-10-18T09:45:04.349Z</time>
      </trkpt>
      <trkpt lat="45.60593" lon="4.69854">
        <ele>298</ele>
        <time>2015-10-18T09:45:06.401Z</time>
      </trkpt>
      <trkpt lat="45.60595" lon="4.69854">
        <ele>298</ele>
        <time>2015-10-18T09:45:07.356Z</time>
      </trkpt>
      <trkpt lat="45.60603" lon="4.69861">
        <ele>299</ele>
        <time>2015-10-18T09:45:13.401Z</time>
      </trkpt>
      <trkpt lat="45.60604" lon="4.69861">
        <ele>299</ele>
        <time>2015-10-18T09:45:14.357Z</time>
      </trkpt>
      <trkpt lat="45.60611" lon="4.69865">
        <ele>299</ele>
        <time>2015-10-18T09:45:19.402Z</time>
      </trkpt>
      <trkpt lat="45.60615" lon="4.69867">
        <ele>299</ele>
        <time>2015-10-18T09:45:20.379Z</time>
      </trkpt>
      <trkpt lat="45.6062" lon="4.69876">
        <ele>299</ele>
        <time>2015-10-18T09:45:25.405Z</time>
      </trkpt>
      <trkpt lat="45.60623" lon="4.6988">
        <ele>299</ele>
        <time>2015-10-18T09:45:26.360Z</time>
      </trkpt>
      <trkpt lat="45.6063" lon="4.69889">
        <ele>299</ele>
        <time>2015-10-18T09:45:30.411Z</time>
      </trkpt>
      <trkpt lat="45.60632" lon="4.69889">
        <ele>300</ele>
        <time>2015-10-18T09:45:31.378Z</time>
      </trkpt>
      <trkpt lat="45.60638" lon="4.69891">
        <ele>300</ele>
        <time>2015-10-18T09:45:35.379Z</time>
      </trkpt>
      <trkpt lat="45.60642" lon="4.69893">
        <ele>300</ele>
        <time>2015-10-18T09:45:36.344Z</time>
      </trkpt>
      <trkpt lat="45.60649" lon="4.69893">
        <ele>300</ele>
        <time>2015-10-18T09:45:40.519Z</time>
      </trkpt>
      <trkpt lat="45.60651" lon="4.69893">
        <ele>300</ele>
        <time>2015-10-18T09:45:41.380Z</time>
      </trkpt>
      <trkpt lat="45.60658" lon="4.69893">
        <ele>300</ele>
        <time>2015-10-18T09:45:44.397Z</time>
      </trkpt>
      <trkpt lat="45.60662" lon="4.69897">
        <ele>300</ele>
        <time>2015-10-18T09:45:45.349Z</time>
      </trkpt>
      <trkpt lat="45.60667" lon="4.69904">
        <ele>302</ele>
        <time>2015-10-18T09:45:46.394Z</time>
      </trkpt>
      <trkpt lat="45.6067" lon="4.69908">
        <ele>302</ele>
        <time>2015-10-18T09:45:47.362Z</time>
      </trkpt>
      <trkpt lat="45.60672" lon="4.69919">
        <ele>301</ele>
        <time>2015-10-18T09:45:50.496Z</time>
      </trkpt>
      <trkpt lat="45.6067" lon="4.69923">
        <ele>301</ele>
        <time>2015-10-18T09:45:51.359Z</time>
      </trkpt>
      <trkpt lat="45.60666" lon="4.69932">
        <ele>299</ele>
        <time>2015-10-18T09:45:53.393Z</time>
      </trkpt>
      <trkpt lat="45.60664" lon="4.69934">
        <ele>298</ele>
        <time>2015-10-18T09:45:54.354Z</time>
      </trkpt>
      <trkpt lat="45.60658" lon="4.69942">
        <ele>298</ele>
        <time>2015-10-18T09:45:56.388Z</time>
      </trkpt>
      <trkpt lat="45.60654" lon="4.69944">
        <ele>297</ele>
        <time>2015-10-18T09:45:57.358Z</time>
      </trkpt>
      <trkpt lat="45.60646" lon="4.69944">
        <ele>297</ele>
        <time>2015-10-18T09:45:59.378Z</time>
      </trkpt>
      <trkpt lat="45.6064" lon="4.69944">
        <ele>297</ele>
        <time>2015-10-18T09:46:00.354Z</time>
      </trkpt>
      <trkpt lat="45.60633" lon="4.69942">
        <ele>296</ele>
        <time>2015-10-18T09:46:01.361Z</time>
      </trkpt>
      <trkpt lat="45.60625" lon="4.69942">
        <ele>296</ele>
        <time>2015-10-18T09:46:02.344Z</time>
      </trkpt>
      <trkpt lat="45.60617" lon="4.69942">
        <ele>296</ele>
        <time>2015-10-18T09:46:03.382Z</time>
      </trkpt>
      <trkpt lat="45.60607" lon="4.69942">
        <ele>296</ele>
        <time>2015-10-18T09:46:04.348Z</time>
      </trkpt>
      <trkpt lat="45.60607" lon="4.69942">
        <ele>296</ele>
        <time>2015-10-18T09:46:04.387Z</time>
      </trkpt>
      <trkpt lat="45.60598" lon="4.69944">
        <ele>295</ele>
        <time>2015-10-18T09:46:05.338Z</time>
      </trkpt>
      <trkpt lat="45.6059" lon="4.69947">
        <ele>295</ele>
        <time>2015-10-18T09:46:06.380Z</time>
      </trkpt>
      <trkpt lat="45.60581" lon="4.69953">
        <ele>293</ele>
        <time>2015-10-18T09:46:07.354Z</time>
      </trkpt>
      <trkpt lat="45.60581" lon="4.69953">
        <ele>293</ele>
        <time>2015-10-18T09:46:07.368Z</time>
      </trkpt>
      <trkpt lat="45.60573" lon="4.69962">
        <ele>293</ele>
        <time>2015-10-18T09:46:08.354Z</time>
      </trkpt>
      <trkpt lat="45.60567" lon="4.6997">
        <ele>292</ele>
        <time>2015-10-18T09:46:09.366Z</time>
      </trkpt>
      <trkpt lat="45.60559" lon="4.69979">
        <ele>292</ele>
        <time>2015-10-18T09:46:10.363Z</time>
      </trkpt>
      <trkpt lat="45.60559" lon="4.69979">
        <ele>292</ele>
        <time>2015-10-18T09:46:10.381Z</time>
      </trkpt>
      <trkpt lat="45.6055" lon="4.69985">
        <ele>292</ele>
        <time>2015-10-18T09:46:11.353Z</time>
      </trkpt>
      <trkpt lat="45.60543" lon="4.69992">
        <ele>292</ele>
        <time>2015-10-18T09:46:12.386Z</time>
      </trkpt>
      <trkpt lat="45.60536" lon="4.69996">
        <ele>292</ele>
        <time>2015-10-18T09:46:13.354Z</time>
      </trkpt>
      <trkpt lat="45.6053" lon="4.70002">
        <ele>290</ele>
        <time>2015-10-18T09:46:14.371Z</time>
      </trkpt>
      <trkpt lat="45.60527" lon="4.70005">
        <ele>290</ele>
        <time>2015-10-18T09:46:15.341Z</time>
      </trkpt>
      <trkpt lat="45.60521" lon="4.70013">
        <ele>290</ele>
        <time>2015-10-18T09:46:18.367Z</time>
      </trkpt>
      <trkpt lat="45.6052" lon="4.70015">
        <ele>290</ele>
        <time>2015-10-18T09:46:19.357Z</time>
      </trkpt>
      <trkpt lat="45.60514" lon="4.70024">
        <ele>290</ele>
        <time>2015-10-18T09:46:28.400Z</time>
      </trkpt>
      <trkpt lat="45.60513" lon="4.70024">
        <ele>290</ele>
        <time>2015-10-18T09:46:29.358Z</time>
      </trkpt>
      <trkpt lat="45.60505" lon="4.70028">
        <ele>290</ele>
        <time>2015-10-18T09:46:36.492Z</time>
      </trkpt>
      <trkpt lat="45.60504" lon="4.70028">
        <ele>290</ele>
        <time>2015-10-18T09:46:37.373Z</time>
      </trkpt>
      <trkpt lat="45.60497" lon="4.70032">
        <ele>291</ele>
        <time>2015-10-18T09:46:42.396Z</time>
      </trkpt>
      <trkpt lat="45.60495" lon="4.7003">
        <ele>291</ele>
        <time>2015-10-18T09:46:43.361Z</time>
      </trkpt>
      <trkpt lat="45.60486" lon="4.70028">
        <ele>291</ele>
        <time>2015-10-18T09:46:48.397Z</time>
      </trkpt>
      <trkpt lat="45.60485" lon="4.70026">
        <ele>291</ele>
        <time>2015-10-18T09:46:49.359Z</time>
      </trkpt>
      <trkpt lat="45.60476" lon="4.70024">
        <ele>291</ele>
        <time>2015-10-18T09:46:55.390Z</time>
      </trkpt>
      <trkpt lat="45.60475" lon="4.70024">
        <ele>291</ele>
        <time>2015-10-18T09:46:56.360Z</time>
      </trkpt>
      <trkpt lat="45.60467" lon="4.70022">
        <ele>291</ele>
        <time>2015-10-18T09:47:01.392Z</time>
      </trkpt>
      <trkpt lat="45.60466" lon="4.70022">
        <ele>291</ele>
        <time>2015-10-18T09:47:02.359Z</time>
      </trkpt>
      <trkpt lat="45.60458" lon="4.7002">
        <ele>291</ele>
        <time>2015-10-18T09:47:06.399Z</time>
      </trkpt>
      <trkpt lat="45.60456" lon="4.70017">
        <ele>291</ele>
        <time>2015-10-18T09:47:07.358Z</time>
      </trkpt>
      <trkpt lat="45.60448" lon="4.70017">
        <ele>291</ele>
        <time>2015-10-18T09:47:12.397Z</time>
      </trkpt>
      <trkpt lat="45.60446" lon="4.70015">
        <ele>291</ele>
        <time>2015-10-18T09:47:13.368Z</time>
      </trkpt>
      <trkpt lat="45.60439" lon="4.70013">
        <ele>292</ele>
        <time>2015-10-18T09:47:17.393Z</time>
      </trkpt>
      <trkpt lat="45.60437" lon="4.70013">
        <ele>292</ele>
        <time>2015-10-18T09:47:18.362Z</time>
      </trkpt>
      <trkpt lat="45.60428" lon="4.70011">
        <ele>292</ele>
        <time>2015-10-18T09:47:22.396Z</time>
      </trkpt>
      <trkpt lat="45.60426" lon="4.70011">
        <ele>292</ele>
        <time>2015-10-18T09:47:23.356Z</time>
      </trkpt>
      <trkpt lat="45.60418" lon="4.70009">
        <ele>292</ele>
        <time>2015-10-18T09:47:27.393Z</time>
      </trkpt>
      <trkpt lat="45.60416" lon="4.70007">
        <ele>293</ele>
        <time>2015-10-18T09:47:28.355Z</time>
      </trkpt>
      <trkpt lat="45.60408" lon="4.70007">
        <ele>293</ele>
        <time>2015-10-18T09:47:33.397Z</time>
      </trkpt>
      <trkpt lat="45.60405" lon="4.70007">
        <ele>293</ele>
        <time>2015-10-18T09:47:34.461Z</time>
      </trkpt>
      <trkpt lat="45.60397" lon="4.70005">
        <ele>293</ele>
        <time>2015-10-18T09:47:39.366Z</time>
      </trkpt>
      <trkpt lat="45.60395" lon="4.70002">
        <ele>293</ele>
        <time>2015-10-18T09:47:40.357Z</time>
      </trkpt>
      <trkpt lat="45.60387" lon="4.69998">
        <ele>294</ele>
        <time>2015-10-18T09:47:45.367Z</time>
      </trkpt>
      <trkpt lat="45.60385" lon="4.69996">
        <ele>294</ele>
        <time>2015-10-18T09:47:46.350Z</time>
      </trkpt>
      <trkpt lat="45.60378" lon="4.6999">
        <ele>295</ele>
        <time>2015-10-18T09:47:50.390Z</time>
      </trkpt>
      <trkpt lat="45.60377" lon="4.6999">
        <ele>295</ele>
        <time>2015-10-18T09:47:51.381Z</time>
      </trkpt>
      <trkpt lat="45.6037" lon="4.69983">
        <ele>295</ele>
        <time>2015-10-18T09:47:54.389Z</time>
      </trkpt>
      <trkpt lat="45.60369" lon="4.69981">
        <ele>295</ele>
        <time>2015-10-18T09:47:55.375Z</time>
      </trkpt>
      <trkpt lat="45.60362" lon="4.69977">
        <ele>295</ele>
        <time>2015-10-18T09:47:59.394Z</time>
      </trkpt>
      <trkpt lat="45.6036" lon="4.69975">
        <ele>295</ele>
        <time>2015-10-18T09:48:00.356Z</time>
      </trkpt>
      <trkpt lat="45.60353" lon="4.69968">
        <ele>295</ele>
        <time>2015-10-18T09:48:03.400Z</time>
      </trkpt>
      <trkpt lat="45.60351" lon="4.69968">
        <ele>295</ele>
        <time>2015-10-18T09:48:04.361Z</time>
      </trkpt>
      <trkpt lat="45.60344" lon="4.69962">
        <ele>295</ele>
        <time>2015-10-18T09:48:07.395Z</time>
      </trkpt>
      <trkpt lat="45.60342" lon="4.69962">
        <ele>295</ele>
        <time>2015-10-18T09:48:08.371Z</time>
      </trkpt>
      <trkpt lat="45.60336" lon="4.69953">
        <ele>295</ele>
        <time>2015-10-18T09:48:11.390Z</time>
      </trkpt>
      <trkpt lat="45.60334" lon="4.69953">
        <ele>295</ele>
        <time>2015-10-18T09:48:12.355Z</time>
      </trkpt>
      <trkpt lat="45.60326" lon="4.69947">
        <ele>297</ele>
        <time>2015-10-18T09:48:16.389Z</time>
      </trkpt>
      <trkpt lat="45.60325" lon="4.69947">
        <ele>297</ele>
        <time>2015-10-18T09:48:17.351Z</time>
      </trkpt>
      <trkpt lat="45.60319" lon="4.69942">
        <ele>297</ele>
        <time>2015-10-18T09:48:20.392Z</time>
      </trkpt>
      <trkpt lat="45.60316" lon="4.69938">
        <ele>297</ele>
        <time>2015-10-18T09:48:21.366Z</time>
      </trkpt>
      <trkpt lat="45.6031" lon="4.69932">
        <ele>298</ele>
        <time>2015-10-18T09:48:24.410Z</time>
      </trkpt>
      <trkpt lat="45.60308" lon="4.69929">
        <ele>298</ele>
        <time>2015-10-18T09:48:25.358Z</time>
      </trkpt>
      <trkpt lat="45.60301" lon="4.69923">
        <ele>298</ele>
        <time>2015-10-18T09:48:28.394Z</time>
      </trkpt>
      <trkpt lat="45.60298" lon="4.69921">
        <ele>298</ele>
        <time>2015-10-18T09:48:29.369Z</time>
      </trkpt>
      <trkpt lat="45.60291" lon="4.69914">
        <ele>299</ele>
        <time>2015-10-18T09:48:32.390Z</time>
      </trkpt>
      <trkpt lat="45.60287" lon="4.69912">
        <ele>299</ele>
        <time>2015-10-18T09:48:33.364Z</time>
      </trkpt>
      <trkpt lat="45.60281" lon="4.69906">
        <ele>299</ele>
        <time>2015-10-18T09:48:36.508Z</time>
      </trkpt>
      <trkpt lat="45.60278" lon="4.69904">
        <ele>299</ele>
        <time>2015-10-18T09:48:37.360Z</time>
      </trkpt>
      <trkpt lat="45.6027" lon="4.69897">
        <ele>299</ele>
        <time>2015-10-18T09:48:41.382Z</time>
      </trkpt>
      <trkpt lat="45.60267" lon="4.69895">
        <ele>299</ele>
        <time>2015-10-18T09:48:42.352Z</time>
      </trkpt>
      <trkpt lat="45.60261" lon="4.69891">
        <ele>299</ele>
        <time>2015-10-18T09:48:45.384Z</time>
      </trkpt>
      <trkpt lat="45.60259" lon="4.69891">
        <ele>299</ele>
        <time>2015-10-18T09:48:46.354Z</time>
      </trkpt>
      <trkpt lat="45.60251" lon="4.69887">
        <ele>299</ele>
        <time>2015-10-18T09:48:49.391Z</time>
      </trkpt>
      <trkpt lat="45.6025" lon="4.69884">
        <ele>301</ele>
        <time>2015-10-18T09:48:50.354Z</time>
      </trkpt>
      <trkpt lat="45.60243" lon="4.6988">
        <ele>301</ele>
        <time>2015-10-18T09:48:54.384Z</time>
      </trkpt>
      <trkpt lat="45.60241" lon="4.69878">
        <ele>301</ele>
        <time>2015-10-18T09:48:55.363Z</time>
      </trkpt>
      <trkpt lat="45.60234" lon="4.69872">
        <ele>301</ele>
        <time>2015-10-18T09:49:00.392Z</time>
      </trkpt>
      <trkpt lat="45.60233" lon="4.69872">
        <ele>301</ele>
        <time>2015-10-18T09:49:01.367Z</time>
      </trkpt>
      <trkpt lat="45.60225" lon="4.69867">
        <ele>301</ele>
        <time>2015-10-18T09:49:05.511Z</time>
      </trkpt>
      <trkpt lat="45.60223" lon="4.69867">
        <ele>301</ele>
        <time>2015-10-18T09:49:06.353Z</time>
      </trkpt>
      <trkpt lat="45.60216" lon="4.69863">
        <ele>302</ele>
        <time>2015-10-18T09:49:11.398Z</time>
      </trkpt>
      <trkpt lat="45.60213" lon="4.69861">
        <ele>302</ele>
        <time>2015-10-18T09:49:12.361Z</time>
      </trkpt>
      <trkpt lat="45.60207" lon="4.69857">
        <ele>302</ele>
        <time>2015-10-18T09:49:16.398Z</time>
      </trkpt>
      <trkpt lat="45.60205" lon="4.69857">
        <ele>302</ele>
        <time>2015-10-18T09:49:17.376Z</time>
      </trkpt>
      <trkpt lat="45.60197" lon="4.6985">
        <ele>302</ele>
        <time>2015-10-18T09:49:21.399Z</time>
      </trkpt>
      <trkpt lat="45.60195" lon="4.6985">
        <ele>302</ele>
        <time>2015-10-18T09:49:22.363Z</time>
      </trkpt>
      <trkpt lat="45.60188" lon="4.69846">
        <ele>303</ele>
        <time>2015-10-18T09:49:26.393Z</time>
      </trkpt>
      <trkpt lat="45.60187" lon="4.69846">
        <ele>303</ele>
        <time>2015-10-18T09:49:27.361Z</time>
      </trkpt>
      <trkpt lat="45.60179" lon="4.69839">
        <ele>303</ele>
        <time>2015-10-18T09:49:31.386Z</time>
      </trkpt>
      <trkpt lat="45.60177" lon="4.69837">
        <ele>303</ele>
        <time>2015-10-18T09:49:32.360Z</time>
      </trkpt>
      <trkpt lat="45.60169" lon="4.69833">
        <ele>304</ele>
        <time>2015-10-18T09:49:36.391Z</time>
      </trkpt>
      <trkpt lat="45.60167" lon="4.69833">
        <ele>304</ele>
        <time>2015-10-18T09:49:37.368Z</time>
      </trkpt>
      <trkpt lat="45.6016" lon="4.69829">
        <ele>305</ele>
        <time>2015-10-18T09:49:41.385Z</time>
      </trkpt>
      <trkpt lat="45.60158" lon="4.69826">
        <ele>305</ele>
        <time>2015-10-18T09:49:42.355Z</time>
      </trkpt>
      <trkpt lat="45.60151" lon="4.69824">
        <ele>306</ele>
        <time>2015-10-18T09:49:46.389Z</time>
      </trkpt>
      <trkpt lat="45.60149" lon="4.69822">
        <ele>306</ele>
        <time>2015-10-18T09:49:47.357Z</time>
      </trkpt>
      <trkpt lat="45.60142" lon="4.69816">
        <ele>307</ele>
        <time>2015-10-18T09:49:55.418Z</time>
      </trkpt>
      <trkpt lat="45.6014" lon="4.69816">
        <ele>307</ele>
        <time>2015-10-18T09:49:56.366Z</time>
      </trkpt>
      <trkpt lat="45.60132" lon="4.69814">
        <ele>307</ele>
        <time>2015-10-18T09:50:01.396Z</time>
      </trkpt>
      <trkpt lat="45.6013" lon="4.69814">
        <ele>307</ele>
        <time>2015-10-18T09:50:02.362Z</time>
      </trkpt>
      <trkpt lat="45.60122" lon="4.69811">
        <ele>308</ele>
        <time>2015-10-18T09:50:07.395Z</time>
      </trkpt>
      <trkpt lat="45.6012" lon="4.69811">
        <ele>308</ele>
        <time>2015-10-18T09:50:08.360Z</time>
      </trkpt>
      <trkpt lat="45.60112" lon="4.69809">
        <ele>308</ele>
        <time>2015-10-18T09:50:13.391Z</time>
      </trkpt>
      <trkpt lat="45.6011" lon="4.69809">
        <ele>308</ele>
        <time>2015-10-18T09:50:14.358Z</time>
      </trkpt>
      <trkpt lat="45.60103" lon="4.69809">
        <ele>308</ele>
        <time>2015-10-18T09:50:18.390Z</time>
      </trkpt>
      <trkpt lat="45.60101" lon="4.69809">
        <ele>308</ele>
        <time>2015-10-18T09:50:19.355Z</time>
      </trkpt>
      <trkpt lat="45.60092" lon="4.69809">
        <ele>309</ele>
        <time>2015-10-18T09:50:24.493Z</time>
      </trkpt>
      <trkpt lat="45.6009" lon="4.69809">
        <ele>309</ele>
        <time>2015-10-18T09:50:25.356Z</time>
      </trkpt>
      <trkpt lat="45.60081" lon="4.69809">
        <ele>312</ele>
        <time>2015-10-18T09:50:29.397Z</time>
      </trkpt>
      <trkpt lat="45.60079" lon="4.69809">
        <ele>312</ele>
        <time>2015-10-18T09:50:30.377Z</time>
      </trkpt>
      <trkpt lat="45.60071" lon="4.69809">
        <ele>312</ele>
        <time>2015-10-18T09:50:35.389Z</time>
      </trkpt>
      <trkpt lat="45.60069" lon="4.69809">
        <ele>312</ele>
        <time>2015-10-18T09:50:36.364Z</time>
      </trkpt>
      <trkpt lat="45.6006" lon="4.69807">
        <ele>313</ele>
        <time>2015-10-18T09:50:41.388Z</time>
      </trkpt>
      <trkpt lat="45.60058" lon="4.69807">
        <ele>313</ele>
        <time>2015-10-18T09:50:42.353Z</time>
      </trkpt>
      <trkpt lat="45.6005" lon="4.69807">
        <ele>313</ele>
        <time>2015-10-18T09:50:47.398Z</time>
      </trkpt>
      <trkpt lat="45.60048" lon="4.69805">
        <ele>313</ele>
        <time>2015-10-18T09:50:48.391Z</time>
      </trkpt>
      <trkpt lat="45.6004" lon="4.69805">
        <ele>314</ele>
        <time>2015-10-18T09:50:52.399Z</time>
      </trkpt>
      <trkpt lat="45.60039" lon="4.69807">
        <ele>314</ele>
        <time>2015-10-18T09:50:53.369Z</time>
      </trkpt>
      <trkpt lat="45.60033" lon="4.69814">
        <ele>314</ele>
        <time>2015-10-18T09:50:57.394Z</time>
      </trkpt>
      <trkpt lat="45.60031" lon="4.69816">
        <ele>314</ele>
        <time>2015-10-18T09:50:58.354Z</time>
      </trkpt>
      <trkpt lat="45.60025" lon="4.69811">
        <ele>314</ele>
        <time>2015-10-18T09:51:03.396Z</time>
      </trkpt>
      <trkpt lat="45.60022" lon="4.69809">
        <ele>314</ele>
        <time>2015-10-18T09:51:04.377Z</time>
      </trkpt>
      <trkpt lat="45.60014" lon="4.69809">
        <ele>315</ele>
        <time>2015-10-18T09:51:09.394Z</time>
      </trkpt>
      <trkpt lat="45.60012" lon="4.69809">
        <ele>315</ele>
        <time>2015-10-18T09:51:10.353Z</time>
      </trkpt>
      <trkpt lat="45.60004" lon="4.69814">
        <ele>315</ele>
        <time>2015-10-18T09:51:15.365Z</time>
      </trkpt>
      <trkpt lat="45.60003" lon="4.69814">
        <ele>315</ele>
        <time>2015-10-18T09:51:16.354Z</time>
      </trkpt>
      <trkpt lat="45.59996" lon="4.69818">
        <ele>319</ele>
        <time>2015-10-18T09:51:21.401Z</time>
      </trkpt>
      <trkpt lat="45.59995" lon="4.69818">
        <ele>319</ele>
        <time>2015-10-18T09:51:22.360Z</time>
      </trkpt>
      <trkpt lat="45.59987" lon="4.69824">
        <ele>319</ele>
        <time>2015-10-18T09:51:28.382Z</time>
      </trkpt>
      <trkpt lat="45.59986" lon="4.69826">
        <ele>319</ele>
        <time>2015-10-18T09:51:29.354Z</time>
      </trkpt>
      <trkpt lat="45.59977" lon="4.69824">
        <ele>320</ele>
        <time>2015-10-18T09:51:35.382Z</time>
      </trkpt>
      <trkpt lat="45.59976" lon="4.69824">
        <ele>320</ele>
        <time>2015-10-18T09:51:36.366Z</time>
      </trkpt>
      <trkpt lat="45.5997" lon="4.69826">
        <ele>320</ele>
        <time>2015-10-18T09:51:40.393Z</time>
      </trkpt>
      <trkpt lat="45.59968" lon="4.69829">
        <ele>320</ele>
        <time>2015-10-18T09:51:41.356Z</time>
      </trkpt>
      <trkpt lat="45.59959" lon="4.69829">
        <ele>321</ele>
        <time>2015-10-18T09:51:47.394Z</time>
      </trkpt>
      <trkpt lat="45.59957" lon="4.69829">
        <ele>321</ele>
        <time>2015-10-18T09:51:48.357Z</time>
      </trkpt>
      <trkpt lat="45.59948" lon="4.69831">
        <ele>322</ele>
        <time>2015-10-18T09:51:54.395Z</time>
      </trkpt>
      <trkpt lat="45.59947" lon="4.69833">
        <ele>322</ele>
        <time>2015-10-18T09:51:55.353Z</time>
      </trkpt>
      <trkpt lat="45.5994" lon="4.69837">
        <ele>322</ele>
        <time>2015-10-18T09:52:00.391Z</time>
      </trkpt>
      <trkpt lat="45.59939" lon="4.69837">
        <ele>322</ele>
        <time>2015-10-18T09:52:01.368Z</time>
      </trkpt>
      <trkpt lat="45.59931" lon="4.69841">
        <ele>322</ele>
        <time>2015-10-18T09:52:06.383Z</time>
      </trkpt>
      <trkpt lat="45.5993" lon="4.69841">
        <ele>323</ele>
        <time>2015-10-18T09:52:07.355Z</time>
      </trkpt>
      <trkpt lat="45.59922" lon="4.69844">
        <ele>323</ele>
        <time>2015-10-18T09:52:13.393Z</time>
      </trkpt>
      <trkpt lat="45.59921" lon="4.69844">
        <ele>323</ele>
        <time>2015-10-18T09:52:14.366Z</time>
      </trkpt>
      <trkpt lat="45.59913" lon="4.69848">
        <ele>326</ele>
        <time>2015-10-18T09:52:19.382Z</time>
      </trkpt>
      <trkpt lat="45.59912" lon="4.69848">
        <ele>326</ele>
        <time>2015-10-18T09:52:20.353Z</time>
      </trkpt>
      <trkpt lat="45.59904" lon="4.69852">
        <ele>326</ele>
        <time>2015-10-18T09:52:26.394Z</time>
      </trkpt>
      <trkpt lat="45.59902" lon="4.69852">
        <ele>326</ele>
        <time>2015-10-18T09:52:27.354Z</time>
      </trkpt>
      <trkpt lat="45.59895" lon="4.69854">
        <ele>326</ele>
        <time>2015-10-18T09:52:32.398Z</time>
      </trkpt>
      <trkpt lat="45.59893" lon="4.69854">
        <ele>326</ele>
        <time>2015-10-18T09:52:33.368Z</time>
      </trkpt>
      <trkpt lat="45.59884" lon="4.69854">
        <ele>327</ele>
        <time>2015-10-18T09:52:37.402Z</time>
      </trkpt>
      <trkpt lat="45.59883" lon="4.69854">
        <ele>327</ele>
        <time>2015-10-18T09:52:38.354Z</time>
      </trkpt>
      <trkpt lat="45.59875" lon="4.69857">
        <ele>327</ele>
        <time>2015-10-18T09:52:42.375Z</time>
      </trkpt>
      <trkpt lat="45.59873" lon="4.69857">
        <ele>327</ele>
        <time>2015-10-18T09:52:43.352Z</time>
      </trkpt>
      <trkpt lat="45.59866" lon="4.69854">
        <ele>328</ele>
        <time>2015-10-18T09:52:47.398Z</time>
      </trkpt>
      <trkpt lat="45.59864" lon="4.69854">
        <ele>328</ele>
        <time>2015-10-18T09:52:48.379Z</time>
      </trkpt>
      <trkpt lat="45.59856" lon="4.69854">
        <ele>328</ele>
        <time>2015-10-18T09:52:52.396Z</time>
      </trkpt>
      <trkpt lat="45.59854" lon="4.69854">
        <ele>328</ele>
        <time>2015-10-18T09:52:53.364Z</time>
      </trkpt>
      <trkpt lat="45.59845" lon="4.69854">
        <ele>329</ele>
        <time>2015-10-18T09:52:58.383Z</time>
      </trkpt>
      <trkpt lat="45.59844" lon="4.69854">
        <ele>329</ele>
        <time>2015-10-18T09:52:59.356Z</time>
      </trkpt>
      <trkpt lat="45.5984" lon="4.69846">
        <ele>329</ele>
        <time>2015-10-18T09:53:05.385Z</time>
      </trkpt>
      <trkpt lat="45.5984" lon="4.69841">
        <ele>330</ele>
        <time>2015-10-18T09:53:06.356Z</time>
      </trkpt>
      <trkpt lat="45.59838" lon="4.69833">
        <ele>331</ele>
        <time>2015-10-18T09:53:10.398Z</time>
      </trkpt>
      <trkpt lat="45.59837" lon="4.69829">
        <ele>330</ele>
        <time>2015-10-18T09:53:11.390Z</time>
      </trkpt>
      <trkpt lat="45.59836" lon="4.6982">
        <ele>330</ele>
        <time>2015-10-18T09:53:15.391Z</time>
      </trkpt>
      <trkpt lat="45.59836" lon="4.69816">
        <ele>330</ele>
        <time>2015-10-18T09:53:16.354Z</time>
      </trkpt>
      <trkpt lat="45.59834" lon="4.69807">
        <ele>330</ele>
        <time>2015-10-18T09:53:20.389Z</time>
      </trkpt>
      <trkpt lat="45.59834" lon="4.69803">
        <ele>330</ele>
        <time>2015-10-18T09:53:21.349Z</time>
      </trkpt>
      <trkpt lat="45.59834" lon="4.69792">
        <ele>329</ele>
        <time>2015-10-18T09:53:25.396Z</time>
      </trkpt>
      <trkpt lat="45.59834" lon="4.69788">
        <ele>329</ele>
        <time>2015-10-18T09:53:26.351Z</time>
      </trkpt>
      <trkpt lat="45.5983" lon="4.69777">
        <ele>332</ele>
        <time>2015-10-18T09:53:30.385Z</time>
      </trkpt>
      <trkpt lat="45.59829" lon="4.69773">
        <ele>332</ele>
        <time>2015-10-18T09:53:31.365Z</time>
      </trkpt>
      <trkpt lat="45.59828" lon="4.69764">
        <ele>332</ele>
        <time>2015-10-18T09:53:34.393Z</time>
      </trkpt>
      <trkpt lat="45.59827" lon="4.6976">
        <ele>331</ele>
        <time>2015-10-18T09:53:35.376Z</time>
      </trkpt>
      <trkpt lat="45.59827" lon="4.69751">
        <ele>331</ele>
        <time>2015-10-18T09:53:37.376Z</time>
      </trkpt>
      <trkpt lat="45.59827" lon="4.69747">
        <ele>331</ele>
        <time>2015-10-18T09:53:38.348Z</time>
      </trkpt>
      <trkpt lat="45.59827" lon="4.69736">
        <ele>331</ele>
        <time>2015-10-18T09:53:40.488Z</time>
      </trkpt>
      <trkpt lat="45.59827" lon="4.69732">
        <ele>331</ele>
        <time>2015-10-18T09:53:41.348Z</time>
      </trkpt>
      <trkpt lat="45.59827" lon="4.69726">
        <ele>331</ele>
        <time>2015-10-18T09:53:42.375Z</time>
      </trkpt>
      <trkpt lat="45.59827" lon="4.69719">
        <ele>330</ele>
        <time>2015-10-18T09:53:43.346Z</time>
      </trkpt>
      <trkpt lat="45.59826" lon="4.69711">
        <ele>330</ele>
        <time>2015-10-18T09:53:45.385Z</time>
      </trkpt>
      <trkpt lat="45.59825" lon="4.69704">
        <ele>330</ele>
        <time>2015-10-18T09:53:46.353Z</time>
      </trkpt>
      <trkpt lat="45.59825" lon="4.69693">
        <ele>330</ele>
        <time>2015-10-18T09:53:48.394Z</time>
      </trkpt>
      <trkpt lat="45.59825" lon="4.69689">
        <ele>329</ele>
        <time>2015-10-18T09:53:49.358Z</time>
      </trkpt>
      <trkpt lat="45.59824" lon="4.69683">
        <ele>329</ele>
        <time>2015-10-18T09:53:50.380Z</time>
      </trkpt>
      <trkpt lat="45.59824" lon="4.69676">
        <ele>329</ele>
        <time>2015-10-18T09:53:51.352Z</time>
      </trkpt>
      <trkpt lat="45.59823" lon="4.69666">
        <ele>328</ele>
        <time>2015-10-18T09:53:53.407Z</time>
      </trkpt>
      <trkpt lat="45.59822" lon="4.69661">
        <ele>328</ele>
        <time>2015-10-18T09:53:54.356Z</time>
      </trkpt>
      <trkpt lat="45.59821" lon="4.69651">
        <ele>328</ele>
        <time>2015-10-18T09:53:56.383Z</time>
      </trkpt>
      <trkpt lat="45.59821" lon="4.69646">
        <ele>329</ele>
        <time>2015-10-18T09:53:57.354Z</time>
      </trkpt>
      <trkpt lat="45.59819" lon="4.69635">
        <ele>329</ele>
        <time>2015-10-18T09:54:00.397Z</time>
      </trkpt>
      <trkpt lat="45.59818" lon="4.69629">
        <ele>329</ele>
        <time>2015-10-18T09:54:01.358Z</time>
      </trkpt>
      <trkpt lat="45.59815" lon="4.6962">
        <ele>329</ele>
        <time>2015-10-18T09:54:03.510Z</time>
      </trkpt>
      <trkpt lat="45.59814" lon="4.69616">
        <ele>329</ele>
        <time>2015-10-18T09:54:04.350Z</time>
      </trkpt>
      <trkpt lat="45.59812" lon="4.69605">
        <ele>329</ele>
        <time>2015-10-18T09:54:06.385Z</time>
      </trkpt>
      <trkpt lat="45.59812" lon="4.69601">
        <ele>329</ele>
        <time>2015-10-18T09:54:07.358Z</time>
      </trkpt>
      <trkpt lat="45.59811" lon="4.6959">
        <ele>329</ele>
        <time>2015-10-18T09:54:09.395Z</time>
      </trkpt>
      <trkpt lat="45.59811" lon="4.69586">
        <ele>329</ele>
        <time>2015-10-18T09:54:10.372Z</time>
      </trkpt>
      <trkpt lat="45.59811" lon="4.69578">
        <ele>329</ele>
        <time>2015-10-18T09:54:12.393Z</time>
      </trkpt>
      <trkpt lat="45.59812" lon="4.69573">
        <ele>329</ele>
        <time>2015-10-18T09:54:13.361Z</time>
      </trkpt>
      <trkpt lat="45.59812" lon="4.69563">
        <ele>329</ele>
        <time>2015-10-18T09:54:16.383Z</time>
      </trkpt>
      <trkpt lat="45.59812" lon="4.69558">
        <ele>329</ele>
        <time>2015-10-18T09:54:17.353Z</time>
      </trkpt>
      <trkpt lat="45.59813" lon="4.6955">
        <ele>329</ele>
        <time>2015-10-18T09:54:19.392Z</time>
      </trkpt>
      <trkpt lat="45.59812" lon="4.69545">
        <ele>329</ele>
        <time>2015-10-18T09:54:20.350Z</time>
      </trkpt>
      <trkpt lat="45.59811" lon="4.69535">
        <ele>329</ele>
        <time>2015-10-18T09:54:23.383Z</time>
      </trkpt>
      <trkpt lat="45.59811" lon="4.6953">
        <ele>329</ele>
        <time>2015-10-18T09:54:24.348Z</time>
      </trkpt>
      <trkpt lat="45.59809" lon="4.6952">
        <ele>329</ele>
        <time>2015-10-18T09:54:26.362Z</time>
      </trkpt>
      <trkpt lat="45.59809" lon="4.69513">
        <ele>329</ele>
        <time>2015-10-18T09:54:27.347Z</time>
      </trkpt>
      <trkpt lat="45.59808" lon="4.69502">
        <ele>329</ele>
        <time>2015-10-18T09:54:29.391Z</time>
      </trkpt>
      <trkpt lat="45.59807" lon="4.69498">
        <ele>329</ele>
        <time>2015-10-18T09:54:30.346Z</time>
      </trkpt>
      <trkpt lat="45.59805" lon="4.69487">
        <ele>329</ele>
        <time>2015-10-18T09:54:32.389Z</time>
      </trkpt>
      <trkpt lat="45.59805" lon="4.69483">
        <ele>329</ele>
        <time>2015-10-18T09:54:33.343Z</time>
      </trkpt>
      <trkpt lat="45.59804" lon="4.69475">
        <ele>329</ele>
        <time>2015-10-18T09:54:35.385Z</time>
      </trkpt>
      <trkpt lat="45.59804" lon="4.6947">
        <ele>329</ele>
        <time>2015-10-18T09:54:36.370Z</time>
      </trkpt>
      <trkpt lat="45.59801" lon="4.6946">
        <ele>329</ele>
        <time>2015-10-18T09:54:39.394Z</time>
      </trkpt>
      <trkpt lat="45.598" lon="4.69455">
        <ele>329</ele>
        <time>2015-10-18T09:54:40.356Z</time>
      </trkpt>
      <trkpt lat="45.598" lon="4.69447">
        <ele>329</ele>
        <time>2015-10-18T09:54:43.384Z</time>
      </trkpt>
      <trkpt lat="45.598" lon="4.69442">
        <ele>330</ele>
        <time>2015-10-18T09:54:44.352Z</time>
      </trkpt>
      <trkpt lat="45.598" lon="4.69429">
        <ele>330</ele>
        <time>2015-10-18T09:54:48.389Z</time>
      </trkpt>
      <trkpt lat="45.598" lon="4.69427">
        <ele>330</ele>
        <time>2015-10-18T09:54:49.349Z</time>
      </trkpt>
      <trkpt lat="45.598" lon="4.69417">
        <ele>330</ele>
        <time>2015-10-18T09:54:54.398Z</time>
      </trkpt>
      <trkpt lat="45.598" lon="4.69414">
        <ele>330</ele>
        <time>2015-10-18T09:54:55.353Z</time>
      </trkpt>
      <trkpt lat="45.598" lon="4.69402">
        <ele>330</ele>
        <time>2015-10-18T09:55:02.391Z</time>
      </trkpt>
      <trkpt lat="45.59799" lon="4.69399">
        <ele>330</ele>
        <time>2015-10-18T09:55:03.351Z</time>
      </trkpt>
      <trkpt lat="45.59798" lon="4.69389">
        <ele>330</ele>
        <time>2015-10-18T09:55:06.522Z</time>
      </trkpt>
      <trkpt lat="45.59797" lon="4.69384">
        <ele>330</ele>
        <time>2015-10-18T09:55:07.371Z</time>
      </trkpt>
      <trkpt lat="45.59796" lon="4.69376">
        <ele>330</ele>
        <time>2015-10-18T09:55:09.389Z</time>
      </trkpt>
      <trkpt lat="45.59796" lon="4.69372">
        <ele>330</ele>
        <time>2015-10-18T09:55:10.352Z</time>
      </trkpt>
      <trkpt lat="45.59796" lon="4.69361">
        <ele>330</ele>
        <time>2015-10-18T09:55:13.387Z</time>
      </trkpt>
      <trkpt lat="45.59796" lon="4.69354">
        <ele>330</ele>
        <time>2015-10-18T09:55:14.354Z</time>
      </trkpt>
      <trkpt lat="45.59798" lon="4.69346">
        <ele>330</ele>
        <time>2015-10-18T09:55:17.399Z</time>
      </trkpt>
      <trkpt lat="45.59798" lon="4.69342">
        <ele>330</ele>
        <time>2015-10-18T09:55:18.373Z</time>
      </trkpt>
      <trkpt lat="45.59798" lon="4.69335">
        <ele>330</ele>
        <time>2015-10-18T09:55:19.386Z</time>
      </trkpt>
      <trkpt lat="45.59797" lon="4.69329">
        <ele>329</ele>
        <time>2015-10-18T09:55:20.360Z</time>
      </trkpt>
      <trkpt lat="45.59796" lon="4.69318">
        <ele>329</ele>
        <time>2015-10-18T09:55:22.399Z</time>
      </trkpt>
      <trkpt lat="45.59795" lon="4.69311">
        <ele>329</ele>
        <time>2015-10-18T09:55:23.357Z</time>
      </trkpt>
      <trkpt lat="45.59794" lon="4.69307">
        <ele>329</ele>
        <time>2015-10-18T09:55:24.390Z</time>
      </trkpt>
      <trkpt lat="45.59792" lon="4.69299">
        <ele>329</ele>
        <time>2015-10-18T09:55:25.369Z</time>
      </trkpt>
      <trkpt lat="45.5979" lon="4.69288">
        <ele>329</ele>
        <time>2015-10-18T09:55:27.394Z</time>
      </trkpt>
      <trkpt lat="45.59789" lon="4.69284">
        <ele>329</ele>
        <time>2015-10-18T09:55:28.359Z</time>
      </trkpt>
      <trkpt lat="45.59789" lon="4.69277">
        <ele>329</ele>
        <time>2015-10-18T09:55:29.397Z</time>
      </trkpt>
      <trkpt lat="45.59788" lon="4.69271">
        <ele>329</ele>
        <time>2015-10-18T09:55:30.359Z</time>
      </trkpt>
      <trkpt lat="45.59786" lon="4.69262">
        <ele>329</ele>
        <time>2015-10-18T09:55:32.371Z</time>
      </trkpt>
      <trkpt lat="45.59785" lon="4.69256">
        <ele>329</ele>
        <time>2015-10-18T09:55:33.353Z</time>
      </trkpt>
      <trkpt lat="45.59784" lon="4.69249">
        <ele>328</ele>
        <time>2015-10-18T09:55:34.394Z</time>
      </trkpt>
      <trkpt lat="45.59784" lon="4.69243">
        <ele>328</ele>
        <time>2015-10-18T09:55:35.353Z</time>
      </trkpt>
      <trkpt lat="45.59782" lon="4.69232">
        <ele>328</ele>
        <time>2015-10-18T09:55:37.385Z</time>
      </trkpt>
      <trkpt lat="45.59781" lon="4.69226">
        <ele>328</ele>
        <time>2015-10-18T09:55:38.355Z</time>
      </trkpt>
      <trkpt lat="45.5978" lon="4.69215">
        <ele>328</ele>
        <time>2015-10-18T09:55:40.398Z</time>
      </trkpt>
      <trkpt lat="45.5978" lon="4.69208">
        <ele>328</ele>
        <time>2015-10-18T09:55:41.353Z</time>
      </trkpt>
      <trkpt lat="45.59779" lon="4.69202">
        <ele>328</ele>
        <time>2015-10-18T09:55:42.412Z</time>
      </trkpt>
      <trkpt lat="45.59778" lon="4.69196">
        <ele>328</ele>
        <time>2015-10-18T09:55:43.355Z</time>
      </trkpt>
      <trkpt lat="45.59777" lon="4.69185">
        <ele>328</ele>
        <time>2015-10-18T09:55:45.396Z</time>
      </trkpt>
      <trkpt lat="45.59776" lon="4.69178">
        <ele>328</ele>
        <time>2015-10-18T09:55:46.359Z</time>
      </trkpt>
      <trkpt lat="45.59774" lon="4.69168">
        <ele>328</ele>
        <time>2015-10-18T09:55:48.395Z</time>
      </trkpt>
      <trkpt lat="45.59774" lon="4.69161">
        <ele>327</ele>
        <time>2015-10-18T09:55:49.353Z</time>
      </trkpt>
      <trkpt lat="45.59772" lon="4.69155">
        <ele>327</ele>
        <time>2015-10-18T09:55:50.389Z</time>
      </trkpt>
      <trkpt lat="45.59772" lon="4.69148">
        <ele>327</ele>
        <time>2015-10-18T09:55:51.359Z</time>
      </trkpt>
      <trkpt lat="45.5977" lon="4.69138">
        <ele>327</ele>
        <time>2015-10-18T09:55:53.397Z</time>
      </trkpt>
      <trkpt lat="45.59769" lon="4.69131">
        <ele>327</ele>
        <time>2015-10-18T09:55:54.365Z</time>
      </trkpt>
      <trkpt lat="45.59767" lon="4.69123">
        <ele>327</ele>
        <time>2015-10-18T09:55:55.397Z</time>
      </trkpt>
      <trkpt lat="45.59766" lon="4.69118">
        <ele>327</ele>
        <time>2015-10-18T09:55:56.361Z</time>
      </trkpt>
      <trkpt lat="45.59766" lon="4.69108">
        <ele>327</ele>
        <time>2015-10-18T09:55:58.381Z</time>
      </trkpt>
      <trkpt lat="45.59765" lon="4.69101">
        <ele>327</ele>
        <time>2015-10-18T09:55:59.364Z</time>
      </trkpt>
      <trkpt lat="45.59764" lon="4.6909">
        <ele>328</ele>
        <time>2015-10-18T09:56:01.391Z</time>
      </trkpt>
      <trkpt lat="45.59764" lon="4.69086">
        <ele>328</ele>
        <time>2015-10-18T09:56:02.353Z</time>
      </trkpt>
      <trkpt lat="45.59764" lon="4.69075">
        <ele>328</ele>
        <time>2015-10-18T09:56:04.386Z</time>
      </trkpt>
      <trkpt lat="45.59763" lon="4.69071">
        <ele>328</ele>
        <time>2015-10-18T09:56:05.351Z</time>
      </trkpt>
      <trkpt lat="45.59762" lon="4.6906">
        <ele>327</ele>
        <time>2015-10-18T09:56:07.392Z</time>
      </trkpt>
      <trkpt lat="45.59762" lon="4.69054">
        <ele>327</ele>
        <time>2015-10-18T09:56:08.351Z</time>
      </trkpt>
      <trkpt lat="45.5976" lon="4.69043">
        <ele>327</ele>
        <time>2015-10-18T09:56:10.395Z</time>
      </trkpt>
      <trkpt lat="45.59759" lon="4.69039">
        <ele>327</ele>
        <time>2015-10-18T09:56:11.353Z</time>
      </trkpt>
      <trkpt lat="45.59754" lon="4.69033">
        <ele>327</ele>
        <time>2015-10-18T09:56:13.388Z</time>
      </trkpt>
      <trkpt lat="45.59752" lon="4.69028">
        <ele>327</ele>
        <time>2015-10-18T09:56:14.350Z</time>
      </trkpt>
      <trkpt lat="45.59749" lon="4.6902">
        <ele>330</ele>
        <time>2015-10-18T09:56:16.391Z</time>
      </trkpt>
      <trkpt lat="45.59747" lon="4.69013">
        <ele>330</ele>
        <time>2015-10-18T09:56:17.357Z</time>
      </trkpt>
      <trkpt lat="45.59742" lon="4.69005">
        <ele>330</ele>
        <time>2015-10-18T09:56:19.395Z</time>
      </trkpt>
      <trkpt lat="45.5974" lon="4.69">
        <ele>330</ele>
        <time>2015-10-18T09:56:20.392Z</time>
      </trkpt>
      <trkpt lat="45.59737" lon="4.6899">
        <ele>330</ele>
        <time>2015-10-18T09:56:22.391Z</time>
      </trkpt>
      <trkpt lat="45.59735" lon="4.68983">
        <ele>331</ele>
        <time>2015-10-18T09:56:23.350Z</time>
      </trkpt>
      <trkpt lat="45.59733" lon="4.68975">
        <ele>331</ele>
        <time>2015-10-18T09:56:25.391Z</time>
      </trkpt>
      <trkpt lat="45.59732" lon="4.6897">
        <ele>331</ele>
        <time>2015-10-18T09:56:26.351Z</time>
      </trkpt>
      <trkpt lat="45.59731" lon="4.68964">
        <ele>331</ele>
        <time>2015-10-18T09:56:27.391Z</time>
      </trkpt>
      <trkpt lat="45.5973" lon="4.68957">
        <ele>331</ele>
        <time>2015-10-18T09:56:28.372Z</time>
      </trkpt>
      <trkpt lat="45.59727" lon="4.68947">
        <ele>331</ele>
        <time>2015-10-18T09:56:30.391Z</time>
      </trkpt>
      <trkpt lat="45.59727" lon="4.68942">
        <ele>331</ele>
        <time>2015-10-18T09:56:31.355Z</time>
      </trkpt>
      <trkpt lat="45.59724" lon="4.68932">
        <ele>331</ele>
        <time>2015-10-18T09:56:33.389Z</time>
      </trkpt>
      <trkpt lat="45.59723" lon="4.68927">
        <ele>331</ele>
        <time>2015-10-18T09:56:34.372Z</time>
      </trkpt>
      <trkpt lat="45.59721" lon="4.68917">
        <ele>331</ele>
        <time>2015-10-18T09:56:36.392Z</time>
      </trkpt>
      <trkpt lat="45.5972" lon="4.6891">
        <ele>331</ele>
        <time>2015-10-18T09:56:37.349Z</time>
      </trkpt>
      <trkpt lat="45.59719" lon="4.68899">
        <ele>331</ele>
        <time>2015-10-18T09:56:39.394Z</time>
      </trkpt>
      <trkpt lat="45.59718" lon="4.68895">
        <ele>331</ele>
        <time>2015-10-18T09:56:40.342Z</time>
      </trkpt>
      <trkpt lat="45.59716" lon="4.68887">
        <ele>332</ele>
        <time>2015-10-18T09:56:42.383Z</time>
      </trkpt>
      <trkpt lat="45.59716" lon="4.6888">
        <ele>332</ele>
        <time>2015-10-18T09:56:43.368Z</time>
      </trkpt>
      <trkpt lat="45.59713" lon="4.68872">
        <ele>332</ele>
        <time>2015-10-18T09:56:45.396Z</time>
      </trkpt>
      <trkpt lat="45.59713" lon="4.68867">
        <ele>332</ele>
        <time>2015-10-18T09:56:46.355Z</time>
      </trkpt>
      <trkpt lat="45.59712" lon="4.68857">
        <ele>332</ele>
        <time>2015-10-18T09:56:48.514Z</time>
      </trkpt>
      <trkpt lat="45.59712" lon="4.6885">
        <ele>332</ele>
        <time>2015-10-18T09:56:49.358Z</time>
      </trkpt>
      <trkpt lat="45.59711" lon="4.68842">
        <ele>332</ele>
        <time>2015-10-18T09:56:51.386Z</time>
      </trkpt>
      <trkpt lat="45.59711" lon="4.68837">
        <ele>332</ele>
        <time>2015-10-18T09:56:52.358Z</time>
      </trkpt>
      <trkpt lat="45.59711" lon="4.68829">
        <ele>332</ele>
        <time>2015-10-18T09:56:54.378Z</time>
      </trkpt>
      <trkpt lat="45.59711" lon="4.68824">
        <ele>332</ele>
        <time>2015-10-18T09:56:55.340Z</time>
      </trkpt>
      <trkpt lat="45.59711" lon="4.68814">
        <ele>332</ele>
        <time>2015-10-18T09:56:57.392Z</time>
      </trkpt>
      <trkpt lat="45.59712" lon="4.68809">
        <ele>332</ele>
        <time>2015-10-18T09:56:58.346Z</time>
      </trkpt>
      <trkpt lat="45.59713" lon="4.68801">
        <ele>333</ele>
        <time>2015-10-18T09:57:00.387Z</time>
      </trkpt>
      <trkpt lat="45.59713" lon="4.68796">
        <ele>333</ele>
        <time>2015-10-18T09:57:01.356Z</time>
      </trkpt>
      <trkpt lat="45.59715" lon="4.68786">
        <ele>333</ele>
        <time>2015-10-18T09:57:03.385Z</time>
      </trkpt>
      <trkpt lat="45.59713" lon="4.68781">
        <ele>333</ele>
        <time>2015-10-18T09:57:04.373Z</time>
      </trkpt>
      <trkpt lat="45.59711" lon="4.68771">
        <ele>333</ele>
        <time>2015-10-18T09:57:06.378Z</time>
      </trkpt>
      <trkpt lat="45.59711" lon="4.68764">
        <ele>333</ele>
        <time>2015-10-18T09:57:07.371Z</time>
      </trkpt>
      <trkpt lat="45.59709" lon="4.68756">
        <ele>333</ele>
        <time>2015-10-18T09:57:09.397Z</time>
      </trkpt>
      <trkpt lat="45.59709" lon="4.68749">
        <ele>334</ele>
        <time>2015-10-18T09:57:10.355Z</time>
      </trkpt>
      <trkpt lat="45.59708" lon="4.68741">
        <ele>334</ele>
        <time>2015-10-18T09:57:12.395Z</time>
      </trkpt>
      <trkpt lat="45.59707" lon="4.68736">
        <ele>334</ele>
        <time>2015-10-18T09:57:13.362Z</time>
      </trkpt>
      <trkpt lat="45.59705" lon="4.68728">
        <ele>334</ele>
        <time>2015-10-18T09:57:15.391Z</time>
      </trkpt>
      <trkpt lat="45.59705" lon="4.68721">
        <ele>334</ele>
        <time>2015-10-18T09:57:16.358Z</time>
      </trkpt>
      <trkpt lat="45.59703" lon="4.68713">
        <ele>334</ele>
        <time>2015-10-18T09:57:18.383Z</time>
      </trkpt>
      <trkpt lat="45.59702" lon="4.68709">
        <ele>334</ele>
        <time>2015-10-18T09:57:19.357Z</time>
      </trkpt>
      <trkpt lat="45.597" lon="4.687">
        <ele>334</ele>
        <time>2015-10-18T09:57:21.387Z</time>
      </trkpt>
      <trkpt lat="45.59698" lon="4.68696">
        <ele>334</ele>
        <time>2015-10-18T09:57:22.352Z</time>
      </trkpt>
      <trkpt lat="45.59697" lon="4.68687">
        <ele>334</ele>
        <time>2015-10-18T09:57:24.394Z</time>
      </trkpt>
      <trkpt lat="45.59695" lon="4.68681">
        <ele>334</ele>
        <time>2015-10-18T09:57:25.354Z</time>
      </trkpt>
      <trkpt lat="45.59693" lon="4.68672">
        <ele>335</ele>
        <time>2015-10-18T09:57:27.390Z</time>
      </trkpt>
      <trkpt lat="45.59692" lon="4.68668">
        <ele>335</ele>
        <time>2015-10-18T09:57:28.370Z</time>
      </trkpt>
      <trkpt lat="45.59689" lon="4.68657">
        <ele>335</ele>
        <time>2015-10-18T09:57:30.394Z</time>
      </trkpt>
      <trkpt lat="45.59688" lon="4.68653">
        <ele>335</ele>
        <time>2015-10-18T09:57:31.359Z</time>
      </trkpt>
      <trkpt lat="45.59686" lon="4.68644">
        <ele>335</ele>
        <time>2015-10-18T09:57:33.395Z</time>
      </trkpt>
      <trkpt lat="45.59686" lon="4.6864">
        <ele>335</ele>
        <time>2015-10-18T09:57:34.358Z</time>
      </trkpt>
      <trkpt lat="45.59687" lon="4.68631">
        <ele>335</ele>
        <time>2015-10-18T09:57:36.386Z</time>
      </trkpt>
      <trkpt lat="45.59687" lon="4.68627">
        <ele>335</ele>
        <time>2015-10-18T09:57:37.347Z</time>
      </trkpt>
      <trkpt lat="45.59688" lon="4.68618">
        <ele>335</ele>
        <time>2015-10-18T09:57:39.381Z</time>
      </trkpt>
      <trkpt lat="45.59688" lon="4.68614">
        <ele>335</ele>
        <time>2015-10-18T09:57:40.349Z</time>
      </trkpt>
      <trkpt lat="45.59687" lon="4.68606">
        <ele>335</ele>
        <time>2015-10-18T09:57:42.389Z</time>
      </trkpt>
      <trkpt lat="45.59687" lon="4.68601">
        <ele>335</ele>
        <time>2015-10-18T09:57:43.355Z</time>
      </trkpt>
      <trkpt lat="45.59683" lon="4.6859">
        <ele>336</ele>
        <time>2015-10-18T09:57:45.506Z</time>
      </trkpt>
      <trkpt lat="45.59683" lon="4.68586">
        <ele>336</ele>
        <time>2015-10-18T09:57:46.357Z</time>
      </trkpt>
      <trkpt lat="45.59679" lon="4.68578">
        <ele>336</ele>
        <time>2015-10-18T09:57:48.394Z</time>
      </trkpt>
      <trkpt lat="45.59677" lon="4.68573">
        <ele>336</ele>
        <time>2015-10-18T09:57:49.356Z</time>
      </trkpt>
      <trkpt lat="45.59672" lon="4.68565">
        <ele>335</ele>
        <time>2015-10-18T09:57:51.388Z</time>
      </trkpt>
      <trkpt lat="45.59669" lon="4.68563">
        <ele>335</ele>
        <time>2015-10-18T09:57:52.358Z</time>
      </trkpt>
      <trkpt lat="45.59665" lon="4.68552">
        <ele>338</ele>
        <time>2015-10-18T09:57:54.394Z</time>
      </trkpt>
      <trkpt lat="45.59663" lon="4.68548">
        <ele>338</ele>
        <time>2015-10-18T09:57:55.356Z</time>
      </trkpt>
      <trkpt lat="45.59659" lon="4.68541">
        <ele>338</ele>
        <time>2015-10-18T09:57:57.392Z</time>
      </trkpt>
      <trkpt lat="45.59657" lon="4.68537">
        <ele>338</ele>
        <time>2015-10-18T09:57:58.368Z</time>
      </trkpt>
      <trkpt lat="45.59652" lon="4.68528">
        <ele>338</ele>
        <time>2015-10-18T09:58:00.387Z</time>
      </trkpt>
      <trkpt lat="45.59651" lon="4.68526">
        <ele>338</ele>
        <time>2015-10-18T09:58:01.349Z</time>
      </trkpt>
      <trkpt lat="45.59647" lon="4.68518">
        <ele>338</ele>
        <time>2015-10-18T09:58:03.476Z</time>
      </trkpt>
      <trkpt lat="45.59645" lon="4.68515">
        <ele>338</ele>
        <time>2015-10-18T09:58:04.352Z</time>
      </trkpt>
      <trkpt lat="45.59641" lon="4.68507">
        <ele>338</ele>
        <time>2015-10-18T09:58:06.382Z</time>
      </trkpt>
      <trkpt lat="45.59638" lon="4.68503">
        <ele>338</ele>
        <time>2015-10-18T09:58:07.371Z</time>
      </trkpt>
      <trkpt lat="45.59634" lon="4.68496">
        <ele>337</ele>
        <time>2015-10-18T09:58:09.388Z</time>
      </trkpt>
      <trkpt lat="45.59632" lon="4.68492">
        <ele>337</ele>
        <time>2015-10-18T09:58:10.369Z</time>
      </trkpt>
      <trkpt lat="45.59626" lon="4.68483">
        <ele>337</ele>
        <time>2015-10-18T09:58:13.381Z</time>
      </trkpt>
      <trkpt lat="45.59624" lon="4.68481">
        <ele>337</ele>
        <time>2015-10-18T09:58:14.351Z</time>
      </trkpt>
      <trkpt lat="45.5962" lon="4.6847">
        <ele>337</ele>
        <time>2015-10-18T09:58:17.388Z</time>
      </trkpt>
      <trkpt lat="45.59618" lon="4.68466">
        <ele>337</ele>
        <time>2015-10-18T09:58:18.352Z</time>
      </trkpt>
      <trkpt lat="45.59612" lon="4.68457">
        <ele>337</ele>
        <time>2015-10-18T09:58:21.392Z</time>
      </trkpt>
      <trkpt lat="45.59609" lon="4.68455">
        <ele>338</ele>
        <time>2015-10-18T09:58:22.368Z</time>
      </trkpt>
      <trkpt lat="45.59605" lon="4.68449">
        <ele>338</ele>
        <time>2015-10-18T09:58:24.384Z</time>
      </trkpt>
      <trkpt lat="45.59602" lon="4.68447">
        <ele>338</ele>
        <time>2015-10-18T09:58:25.355Z</time>
      </trkpt>
      <trkpt lat="45.59595" lon="4.68438">
        <ele>338</ele>
        <time>2015-10-18T09:58:28.389Z</time>
      </trkpt>
      <trkpt lat="45.59593" lon="4.68434">
        <ele>338</ele>
        <time>2015-10-18T09:58:29.349Z</time>
      </trkpt>
      <trkpt lat="45.59587" lon="4.68425">
        <ele>338</ele>
        <time>2015-10-18T09:58:32.380Z</time>
      </trkpt>
      <trkpt lat="45.59584" lon="4.68421">
        <ele>339</ele>
        <time>2015-10-18T09:58:33.371Z</time>
      </trkpt>
      <trkpt lat="45.59578" lon="4.68415">
        <ele>339</ele>
        <time>2015-10-18T09:58:35.380Z</time>
      </trkpt>
      <trkpt lat="45.59576" lon="4.68412">
        <ele>339</ele>
        <time>2015-10-18T09:58:36.353Z</time>
      </trkpt>
      <trkpt lat="45.59571" lon="4.68406">
        <ele>339</ele>
        <time>2015-10-18T09:58:38.386Z</time>
      </trkpt>
      <trkpt lat="45.59569" lon="4.68404">
        <ele>339</ele>
        <time>2015-10-18T09:58:39.369Z</time>
      </trkpt>
      <trkpt lat="45.59563" lon="4.68397">
        <ele>339</ele>
        <time>2015-10-18T09:58:41.391Z</time>
      </trkpt>
      <trkpt lat="45.59561" lon="4.68393">
        <ele>339</ele>
        <time>2015-10-18T09:58:42.354Z</time>
      </trkpt>
      <trkpt lat="45.59554" lon="4.68387">
        <ele>339</ele>
        <time>2015-10-18T09:58:45.409Z</time>
      </trkpt>
      <trkpt lat="45.5955" lon="4.68382">
        <ele>339</ele>
        <time>2015-10-18T09:58:46.360Z</time>
      </trkpt>
      <trkpt lat="45.59545" lon="4.68376">
        <ele>339</ele>
        <time>2015-10-18T09:58:48.390Z</time>
      </trkpt>
      <trkpt lat="45.59543" lon="4.68372">
        <ele>339</ele>
        <time>2015-10-18T09:58:49.350Z</time>
      </trkpt>
      <trkpt lat="45.59539" lon="4.68365">
        <ele>339</ele>
        <time>2015-10-18T09:58:51.359Z</time>
      </trkpt>
      <trkpt lat="45.59536" lon="4.68361">
        <ele>339</ele>
        <time>2015-10-18T09:58:52.350Z</time>
      </trkpt>
      <trkpt lat="45.59531" lon="4.68354">
        <ele>339</ele>
        <time>2015-10-18T09:58:54.395Z</time>
      </trkpt>
      <trkpt lat="45.59529" lon="4.6835">
        <ele>338</ele>
        <time>2015-10-18T09:58:55.353Z</time>
      </trkpt>
      <trkpt lat="45.59524" lon="4.68342">
        <ele>338</ele>
        <time>2015-10-18T09:58:58.388Z</time>
      </trkpt>
      <trkpt lat="45.5952" lon="4.68342">
        <ele>338</ele>
        <time>2015-10-18T09:58:59.349Z</time>
      </trkpt>
      <trkpt lat="45.59515" lon="4.68333">
        <ele>338</ele>
        <time>2015-10-18T09:59:01.489Z</time>
      </trkpt>
      <trkpt lat="45.59512" lon="4.68331">
        <ele>338</ele>
        <time>2015-10-18T09:59:02.350Z</time>
      </trkpt>
      <trkpt lat="45.59506" lon="4.68324">
        <ele>338</ele>
        <time>2015-10-18T09:59:04.380Z</time>
      </trkpt>
      <trkpt lat="45.59501" lon="4.6832">
        <ele>338</ele>
        <time>2015-10-18T09:59:05.340Z</time>
      </trkpt>
      <trkpt lat="45.59497" lon="4.68314">
        <ele>339</ele>
        <time>2015-10-18T09:59:07.386Z</time>
      </trkpt>
      <trkpt lat="45.59494" lon="4.68309">
        <ele>339</ele>
        <time>2015-10-18T09:59:08.361Z</time>
      </trkpt>
      <trkpt lat="45.59487" lon="4.68301">
        <ele>339</ele>
        <time>2015-10-18T09:59:18.386Z</time>
      </trkpt>
      <trkpt lat="45.59486" lon="4.68301">
        <ele>339</ele>
        <time>2015-10-18T09:59:19.352Z</time>
      </trkpt>
      <trkpt lat="45.59483" lon="4.68292">
        <ele>339</ele>
        <time>2015-10-18T10:03:16.416Z</time>
      </trkpt>
      <trkpt lat="45.59481" lon="4.6829">
        <ele>339</ele>
        <time>2015-10-18T10:03:17.346Z</time>
      </trkpt>
      <trkpt lat="45.59475" lon="4.68282">
        <ele>339</ele>
        <time>2015-10-18T10:03:20.388Z</time>
      </trkpt>
      <trkpt lat="45.59473" lon="4.68279">
        <ele>339</ele>
        <time>2015-10-18T10:03:21.352Z</time>
      </trkpt>
      <trkpt lat="45.59467" lon="4.68271">
        <ele>339</ele>
        <time>2015-10-18T10:03:24.385Z</time>
      </trkpt>
      <trkpt lat="45.59465" lon="4.68266">
        <ele>339</ele>
        <time>2015-10-18T10:03:25.367Z</time>
      </trkpt>
      <trkpt lat="45.5946" lon="4.6826">
        <ele>339</ele>
        <time>2015-10-18T10:03:27.400Z</time>
      </trkpt>
      <trkpt lat="45.59457" lon="4.68256">
        <ele>339</ele>
        <time>2015-10-18T10:03:28.366Z</time>
      </trkpt>
      <trkpt lat="45.59453" lon="4.68249">
        <ele>339</ele>
        <time>2015-10-18T10:03:30.368Z</time>
      </trkpt>
      <trkpt lat="45.59451" lon="4.68245">
        <ele>339</ele>
        <time>2015-10-18T10:03:31.348Z</time>
      </trkpt>
      <trkpt lat="45.59445" lon="4.68239">
        <ele>339</ele>
        <time>2015-10-18T10:03:33.372Z</time>
      </trkpt>
      <trkpt lat="45.59443" lon="4.68236">
        <ele>339</ele>
        <time>2015-10-18T10:03:34.347Z</time>
      </trkpt>
      <trkpt lat="45.59439" lon="4.68228">
        <ele>339</ele>
        <time>2015-10-18T10:03:36.381Z</time>
      </trkpt>
      <trkpt lat="45.59436" lon="4.68224">
        <ele>339</ele>
        <time>2015-10-18T10:03:37.342Z</time>
      </trkpt>
      <trkpt lat="45.59431" lon="4.68217">
        <ele>339</ele>
        <time>2015-10-18T10:03:39.385Z</time>
      </trkpt>
      <trkpt lat="45.59429" lon="4.68213">
        <ele>339</ele>
        <time>2015-10-18T10:03:40.350Z</time>
      </trkpt>
      <trkpt lat="45.59424" lon="4.68206">
        <ele>339</ele>
        <time>2015-10-18T10:03:42.375Z</time>
      </trkpt>
      <trkpt lat="45.59422" lon="4.68202">
        <ele>339</ele>
        <time>2015-10-18T10:03:43.344Z</time>
      </trkpt>
      <trkpt lat="45.59416" lon="4.68196">
        <ele>340</ele>
        <time>2015-10-18T10:03:45.380Z</time>
      </trkpt>
      <trkpt lat="45.59414" lon="4.68191">
        <ele>340</ele>
        <time>2015-10-18T10:03:46.346Z</time>
      </trkpt>
      <trkpt lat="45.5941" lon="4.68183">
        <ele>340</ele>
        <time>2015-10-18T10:03:48.383Z</time>
      </trkpt>
      <trkpt lat="45.59407" lon="4.68179">
        <ele>340</ele>
        <time>2015-10-18T10:03:49.349Z</time>
      </trkpt>
      <trkpt lat="45.59401" lon="4.6817">
        <ele>340</ele>
        <time>2015-10-18T10:03:51.387Z</time>
      </trkpt>
      <trkpt lat="45.59399" lon="4.68168">
        <ele>340</ele>
        <time>2015-10-18T10:03:52.350Z</time>
      </trkpt>
      <trkpt lat="45.59394" lon="4.68159">
        <ele>340</ele>
        <time>2015-10-18T10:03:54.384Z</time>
      </trkpt>
      <trkpt lat="45.59392" lon="4.68155">
        <ele>340</ele>
        <time>2015-10-18T10:03:55.368Z</time>
      </trkpt>
      <trkpt lat="45.59387" lon="4.68148">
        <ele>340</ele>
        <time>2015-10-18T10:03:57.379Z</time>
      </trkpt>
      <trkpt lat="45.59385" lon="4.68144">
        <ele>340</ele>
        <time>2015-10-18T10:03:58.367Z</time>
      </trkpt>
      <trkpt lat="45.59378" lon="4.68138">
        <ele>340</ele>
        <time>2015-10-18T10:04:01.392Z</time>
      </trkpt>
      <trkpt lat="45.59374" lon="4.68131">
        <ele>340</ele>
        <time>2015-10-18T10:04:02.377Z</time>
      </trkpt>
      <trkpt lat="45.5937" lon="4.68125">
        <ele>340</ele>
        <time>2015-10-18T10:04:04.380Z</time>
      </trkpt>
      <trkpt lat="45.59367" lon="4.68121">
        <ele>340</ele>
        <time>2015-10-18T10:04:05.360Z</time>
      </trkpt>
      <trkpt lat="45.59362" lon="4.68114">
        <ele>340</ele>
        <time>2015-10-18T10:04:07.370Z</time>
      </trkpt>
      <trkpt lat="45.59359" lon="4.6811">
        <ele>340</ele>
        <time>2015-10-18T10:04:08.351Z</time>
      </trkpt>
      <trkpt lat="45.59355" lon="4.68101">
        <ele>340</ele>
        <time>2015-10-18T10:04:10.389Z</time>
      </trkpt>
      <trkpt lat="45.59353" lon="4.68097">
        <ele>340</ele>
        <time>2015-10-18T10:04:11.351Z</time>
      </trkpt>
      <trkpt lat="45.59348" lon="4.68088">
        <ele>340</ele>
        <time>2015-10-18T10:04:13.393Z</time>
      </trkpt>
      <trkpt lat="45.59345" lon="4.68084">
        <ele>340</ele>
        <time>2015-10-18T10:04:14.352Z</time>
      </trkpt>
      <trkpt lat="45.59342" lon="4.68078">
        <ele>340</ele>
        <time>2015-10-18T10:04:16.457Z</time>
      </trkpt>
      <trkpt lat="45.5934" lon="4.68073">
        <ele>340</ele>
        <time>2015-10-18T10:04:17.351Z</time>
      </trkpt>
      <trkpt lat="45.59337" lon="4.68067">
        <ele>340</ele>
        <time>2015-10-18T10:04:19.398Z</time>
      </trkpt>
      <trkpt lat="45.59335" lon="4.68063">
        <ele>340</ele>
        <time>2015-10-18T10:04:20.344Z</time>
      </trkpt>
      <trkpt lat="45.59329" lon="4.68056">
        <ele>341</ele>
        <time>2015-10-18T10:04:22.378Z</time>
      </trkpt>
      <trkpt lat="45.59327" lon="4.68052">
        <ele>342</ele>
        <time>2015-10-18T10:04:23.342Z</time>
      </trkpt>
      <trkpt lat="45.59324" lon="4.68045">
        <ele>342</ele>
        <time>2015-10-18T10:04:25.385Z</time>
      </trkpt>
      <trkpt lat="45.59321" lon="4.68041">
        <ele>342</ele>
        <time>2015-10-18T10:04:26.355Z</time>
      </trkpt>
      <trkpt lat="45.59315" lon="4.68035">
        <ele>342</ele>
        <time>2015-10-18T10:04:28.488Z</time>
      </trkpt>
      <trkpt lat="45.59313" lon="4.68033">
        <ele>342</ele>
        <time>2015-10-18T10:04:29.352Z</time>
      </trkpt>
      <trkpt lat="45.59308" lon="4.68026">
        <ele>342</ele>
        <time>2015-10-18T10:04:31.381Z</time>
      </trkpt>
      <trkpt lat="45.59306" lon="4.68022">
        <ele>342</ele>
        <time>2015-10-18T10:04:32.372Z</time>
      </trkpt>
      <trkpt lat="45.59299" lon="4.68015">
        <ele>342</ele>
        <time>2015-10-18T10:04:34.383Z</time>
      </trkpt>
      <trkpt lat="45.59297" lon="4.68011">
        <ele>342</ele>
        <time>2015-10-18T10:04:35.344Z</time>
      </trkpt>
      <trkpt lat="45.59292" lon="4.68005">
        <ele>343</ele>
        <time>2015-10-18T10:04:37.368Z</time>
      </trkpt>
      <trkpt lat="45.5929" lon="4.68003">
        <ele>343</ele>
        <time>2015-10-18T10:04:38.346Z</time>
      </trkpt>
      <trkpt lat="45.59285" lon="4.67996">
        <ele>344</ele>
        <time>2015-10-18T10:04:40.367Z</time>
      </trkpt>
      <trkpt lat="45.59282" lon="4.67992">
        <ele>344</ele>
        <time>2015-10-18T10:04:41.346Z</time>
      </trkpt>
      <trkpt lat="45.59276" lon="4.67983">
        <ele>344</ele>
        <time>2015-10-18T10:04:44.375Z</time>
      </trkpt>
      <trkpt lat="45.59274" lon="4.67981">
        <ele>344</ele>
        <time>2015-10-18T10:04:45.345Z</time>
      </trkpt>
      <trkpt lat="45.59267" lon="4.67975">
        <ele>344</ele>
        <time>2015-10-18T10:04:47.376Z</time>
      </trkpt>
      <trkpt lat="45.59265" lon="4.67973">
        <ele>344</ele>
        <time>2015-10-18T10:04:48.349Z</time>
      </trkpt>
      <trkpt lat="45.59261" lon="4.67966">
        <ele>344</ele>
        <time>2015-10-18T10:04:50.499Z</time>
      </trkpt>
      <trkpt lat="45.5926" lon="4.67962">
        <ele>344</ele>
        <time>2015-10-18T10:04:51.346Z</time>
      </trkpt>
      <trkpt lat="45.59253" lon="4.67953">
        <ele>344</ele>
        <time>2015-10-18T10:04:54.395Z</time>
      </trkpt>
      <trkpt lat="45.59251" lon="4.67951">
        <ele>345</ele>
        <time>2015-10-18T10:04:55.362Z</time>
      </trkpt>
      <trkpt lat="45.59248" lon="4.67942">
        <ele>345</ele>
        <time>2015-10-18T10:04:57.381Z</time>
      </trkpt>
      <trkpt lat="45.59245" lon="4.6794">
        <ele>345</ele>
        <time>2015-10-18T10:04:58.356Z</time>
      </trkpt>
      <trkpt lat="45.59241" lon="4.67932">
        <ele>345</ele>
        <time>2015-10-18T10:05:00.388Z</time>
      </trkpt>
      <trkpt lat="45.59239" lon="4.6793">
        <ele>345</ele>
        <time>2015-10-18T10:05:01.345Z</time>
      </trkpt>
      <trkpt lat="45.59234" lon="4.67921">
        <ele>345</ele>
        <time>2015-10-18T10:05:04.373Z</time>
      </trkpt>
      <trkpt lat="45.59232" lon="4.67917">
        <ele>345</ele>
        <time>2015-10-18T10:05:05.343Z</time>
      </trkpt>
      <trkpt lat="45.59227" lon="4.67906">
        <ele>346</ele>
        <time>2015-10-18T10:05:08.381Z</time>
      </trkpt>
      <trkpt lat="45.59226" lon="4.67902">
        <ele>346</ele>
        <time>2015-10-18T10:05:09.343Z</time>
      </trkpt>
      <trkpt lat="45.59222" lon="4.67891">
        <ele>346</ele>
        <time>2015-10-18T10:05:12.387Z</time>
      </trkpt>
      <trkpt lat="45.59221" lon="4.67887">
        <ele>346</ele>
        <time>2015-10-18T10:05:13.360Z</time>
      </trkpt>
      <trkpt lat="45.59217" lon="4.6788">
        <ele>346</ele>
        <time>2015-10-18T10:05:15.385Z</time>
      </trkpt>
      <trkpt lat="45.59215" lon="4.67876">
        <ele>346</ele>
        <time>2015-10-18T10:05:16.344Z</time>
      </trkpt>
      <trkpt lat="45.59211" lon="4.67865">
        <ele>346</ele>
        <time>2015-10-18T10:05:19.385Z</time>
      </trkpt>
      <trkpt lat="45.59209" lon="4.67861">
        <ele>346</ele>
        <time>2015-10-18T10:05:20.481Z</time>
      </trkpt>
      <trkpt lat="45.59206" lon="4.67854">
        <ele>346</ele>
        <time>2015-10-18T10:05:22.371Z</time>
      </trkpt>
      <trkpt lat="45.59204" lon="4.6785">
        <ele>346</ele>
        <time>2015-10-18T10:05:23.344Z</time>
      </trkpt>
      <trkpt lat="45.59201" lon="4.67844">
        <ele>346</ele>
        <time>2015-10-18T10:05:25.380Z</time>
      </trkpt>
      <trkpt lat="45.59198" lon="4.67839">
        <ele>346</ele>
        <time>2015-10-18T10:05:26.352Z</time>
      </trkpt>
      <trkpt lat="45.59195" lon="4.67831">
        <ele>346</ele>
        <time>2015-10-18T10:05:28.370Z</time>
      </trkpt>
      <trkpt lat="45.59194" lon="4.67827">
        <ele>346</ele>
        <time>2015-10-18T10:05:29.350Z</time>
      </trkpt>
      <trkpt lat="45.5919" lon="4.67818">
        <ele>346</ele>
        <time>2015-10-18T10:05:31.378Z</time>
      </trkpt>
      <trkpt lat="45.59188" lon="4.67814">
        <ele>346</ele>
        <time>2015-10-18T10:05:32.346Z</time>
      </trkpt>
      <trkpt lat="45.59185" lon="4.67805">
        <ele>346</ele>
        <time>2015-10-18T10:05:34.386Z</time>
      </trkpt>
      <trkpt lat="45.59182" lon="4.67801">
        <ele>346</ele>
        <time>2015-10-18T10:05:35.343Z</time>
      </trkpt>
      <trkpt lat="45.59177" lon="4.67794">
        <ele>346</ele>
        <time>2015-10-18T10:05:37.356Z</time>
      </trkpt>
      <trkpt lat="45.59175" lon="4.6779">
        <ele>345</ele>
        <time>2015-10-18T10:05:38.344Z</time>
      </trkpt>
      <trkpt lat="45.59171" lon="4.67779">
        <ele>345</ele>
        <time>2015-10-18T10:05:41.390Z</time>
      </trkpt>
      <trkpt lat="45.5917" lon="4.67775">
        <ele>345</ele>
        <time>2015-10-18T10:05:42.360Z</time>
      </trkpt>
      <trkpt lat="45.59165" lon="4.67767">
        <ele>345</ele>
        <time>2015-10-18T10:05:44.389Z</time>
      </trkpt>
      <trkpt lat="45.59164" lon="4.67764">
        <ele>345</ele>
        <time>2015-10-18T10:05:45.354Z</time>
      </trkpt>
      <trkpt lat="45.5916" lon="4.67756">
        <ele>345</ele>
        <time>2015-10-18T10:05:47.380Z</time>
      </trkpt>
      <trkpt lat="45.59159" lon="4.67752">
        <ele>345</ele>
        <time>2015-10-18T10:05:48.366Z</time>
      </trkpt>
      <trkpt lat="45.59156" lon="4.67743">
        <ele>345</ele>
        <time>2015-10-18T10:05:50.373Z</time>
      </trkpt>
      <trkpt lat="45.59153" lon="4.67739">
        <ele>346</ele>
        <time>2015-10-18T10:05:51.347Z</time>
      </trkpt>
      <trkpt lat="45.59149" lon="4.67728">
        <ele>346</ele>
        <time>2015-10-18T10:05:54.372Z</time>
      </trkpt>
      <trkpt lat="45.59148" lon="4.67724">
        <ele>346</ele>
        <time>2015-10-18T10:05:55.343Z</time>
      </trkpt>
      <trkpt lat="45.59144" lon="4.67715">
        <ele>346</ele>
        <time>2015-10-18T10:05:57.372Z</time>
      </trkpt>
      <trkpt lat="45.59143" lon="4.67711">
        <ele>346</ele>
        <time>2015-10-18T10:05:58.359Z</time>
      </trkpt>
      <trkpt lat="45.59139" lon="4.677">
        <ele>346</ele>
        <time>2015-10-18T10:06:01.364Z</time>
      </trkpt>
      <trkpt lat="45.59138" lon="4.67696">
        <ele>346</ele>
        <time>2015-10-18T10:06:02.359Z</time>
      </trkpt>
      <trkpt lat="45.59134" lon="4.67687">
        <ele>346</ele>
        <time>2015-10-18T10:06:04.372Z</time>
      </trkpt>
      <trkpt lat="45.59133" lon="4.67683">
        <ele>346</ele>
        <time>2015-10-18T10:06:05.365Z</time>
      </trkpt>
      <trkpt lat="45.59129" lon="4.67672">
        <ele>346</ele>
        <time>2015-10-18T10:06:08.383Z</time>
      </trkpt>
      <trkpt lat="45.59127" lon="4.6767">
        <ele>346</ele>
        <time>2015-10-18T10:06:09.346Z</time>
      </trkpt>
      <trkpt lat="45.59124" lon="4.67661">
        <ele>347</ele>
        <time>2015-10-18T10:06:11.376Z</time>
      </trkpt>
      <trkpt lat="45.59122" lon="4.67657">
        <ele>347</ele>
        <time>2015-10-18T10:06:12.349Z</time>
      </trkpt>
      <trkpt lat="45.59118" lon="4.67646">
        <ele>347</ele>
        <time>2015-10-18T10:06:15.382Z</time>
      </trkpt>
      <trkpt lat="45.59117" lon="4.67642">
        <ele>347</ele>
        <time>2015-10-18T10:06:16.345Z</time>
      </trkpt>
      <trkpt lat="45.59114" lon="4.67631">
        <ele>347</ele>
        <time>2015-10-18T10:06:19.378Z</time>
      </trkpt>
      <trkpt lat="45.59113" lon="4.67629">
        <ele>347</ele>
        <time>2015-10-18T10:06:20.343Z</time>
      </trkpt>
      <trkpt lat="45.59108" lon="4.67621">
        <ele>347</ele>
        <time>2015-10-18T10:06:22.375Z</time>
      </trkpt>
      <trkpt lat="45.59107" lon="4.67616">
        <ele>348</ele>
        <time>2015-10-18T10:06:23.350Z</time>
      </trkpt>
      <trkpt lat="45.59105" lon="4.67608">
        <ele>348</ele>
        <time>2015-10-18T10:06:25.385Z</time>
      </trkpt>
      <trkpt lat="45.59104" lon="4.67603">
        <ele>348</ele>
        <time>2015-10-18T10:06:26.368Z</time>
      </trkpt>
      <trkpt lat="45.59102" lon="4.67595">
        <ele>348</ele>
        <time>2015-10-18T10:06:28.382Z</time>
      </trkpt>
      <trkpt lat="45.59101" lon="4.67591">
        <ele>348</ele>
        <time>2015-10-18T10:06:29.351Z</time>
      </trkpt>
      <trkpt lat="45.59097" lon="4.67582">
        <ele>348</ele>
        <time>2015-10-18T10:06:31.383Z</time>
      </trkpt>
      <trkpt lat="45.59096" lon="4.67578">
        <ele>348</ele>
        <time>2015-10-18T10:06:32.368Z</time>
      </trkpt>
      <trkpt lat="45.59092" lon="4.67571">
        <ele>348</ele>
        <time>2015-10-18T10:06:34.383Z</time>
      </trkpt>
      <trkpt lat="45.59091" lon="4.67565">
        <ele>348</ele>
        <time>2015-10-18T10:06:35.343Z</time>
      </trkpt>
      <trkpt lat="45.59087" lon="4.67554">
        <ele>348</ele>
        <time>2015-10-18T10:06:38.371Z</time>
      </trkpt>
      <trkpt lat="45.59086" lon="4.6755">
        <ele>348</ele>
        <time>2015-10-18T10:06:39.344Z</time>
      </trkpt>
      <trkpt lat="45.59083" lon="4.67539">
        <ele>349</ele>
        <time>2015-10-18T10:06:41.469Z</time>
      </trkpt>
      <trkpt lat="45.59083" lon="4.67537">
        <ele>349</ele>
        <time>2015-10-18T10:06:42.367Z</time>
      </trkpt>
      <trkpt lat="45.59079" lon="4.67526">
        <ele>349</ele>
        <time>2015-10-18T10:06:44.387Z</time>
      </trkpt>
      <trkpt lat="45.59077" lon="4.67522">
        <ele>349</ele>
        <time>2015-10-18T10:06:45.348Z</time>
      </trkpt>
      <trkpt lat="45.59073" lon="4.67513">
        <ele>349</ele>
        <time>2015-10-18T10:06:47.373Z</time>
      </trkpt>
      <trkpt lat="45.59072" lon="4.67511">
        <ele>349</ele>
        <time>2015-10-18T10:06:48.348Z</time>
      </trkpt>
      <trkpt lat="45.59069" lon="4.67503">
        <ele>348</ele>
        <time>2015-10-18T10:06:50.383Z</time>
      </trkpt>
      <trkpt lat="45.59067" lon="4.67498">
        <ele>349</ele>
        <time>2015-10-18T10:06:51.354Z</time>
      </trkpt>
      <trkpt lat="45.59064" lon="4.6749">
        <ele>349</ele>
        <time>2015-10-18T10:06:53.385Z</time>
      </trkpt>
      <trkpt lat="45.59062" lon="4.67485">
        <ele>349</ele>
        <time>2015-10-18T10:06:54.344Z</time>
      </trkpt>
      <trkpt lat="45.59058" lon="4.67477">
        <ele>349</ele>
        <time>2015-10-18T10:06:56.388Z</time>
      </trkpt>
      <trkpt lat="45.59057" lon="4.67473">
        <ele>349</ele>
        <time>2015-10-18T10:06:57.346Z</time>
      </trkpt>
      <trkpt lat="45.59054" lon="4.67464">
        <ele>349</ele>
        <time>2015-10-18T10:06:59.383Z</time>
      </trkpt>
      <trkpt lat="45.59052" lon="4.67462">
        <ele>349</ele>
        <time>2015-10-18T10:07:00.349Z</time>
      </trkpt>
      <trkpt lat="45.59048" lon="4.67453">
        <ele>349</ele>
        <time>2015-10-18T10:07:02.382Z</time>
      </trkpt>
      <trkpt lat="45.59047" lon="4.67449">
        <ele>349</ele>
        <time>2015-10-18T10:07:03.345Z</time>
      </trkpt>
      <trkpt lat="45.59044" lon="4.6744">
        <ele>349</ele>
        <time>2015-10-18T10:07:05.385Z</time>
      </trkpt>
      <trkpt lat="45.59042" lon="4.67438">
        <ele>349</ele>
        <time>2015-10-18T10:07:06.347Z</time>
      </trkpt>
      <trkpt lat="45.5904" lon="4.6743">
        <ele>349</ele>
        <time>2015-10-18T10:07:08.392Z</time>
      </trkpt>
      <trkpt lat="45.59039" lon="4.67425">
        <ele>349</ele>
        <time>2015-10-18T10:07:09.346Z</time>
      </trkpt>
      <trkpt lat="45.59035" lon="4.67417">
        <ele>349</ele>
        <time>2015-10-18T10:07:11.386Z</time>
      </trkpt>
      <trkpt lat="45.59034" lon="4.67412">
        <ele>350</ele>
        <time>2015-10-18T10:07:12.357Z</time>
      </trkpt>
      <trkpt lat="45.5903" lon="4.67406">
        <ele>350</ele>
        <time>2015-10-18T10:07:14.379Z</time>
      </trkpt>
      <trkpt lat="45.59029" lon="4.67402">
        <ele>350</ele>
        <time>2015-10-18T10:07:15.354Z</time>
      </trkpt>
      <trkpt lat="45.59026" lon="4.67393">
        <ele>350</ele>
        <time>2015-10-18T10:07:18.394Z</time>
      </trkpt>
      <trkpt lat="45.59024" lon="4.67389">
        <ele>350</ele>
        <time>2015-10-18T10:07:19.344Z</time>
      </trkpt>
      <trkpt lat="45.5902" lon="4.67378">
        <ele>350</ele>
        <time>2015-10-18T10:07:24.385Z</time>
      </trkpt>
      <trkpt lat="45.59019" lon="4.67376">
        <ele>350</ele>
        <time>2015-10-18T10:07:25.365Z</time>
      </trkpt>
      <trkpt lat="45.59015" lon="4.67385">
        <ele>350</ele>
        <time>2015-10-18T10:09:03.495Z</time>
      </trkpt>
      <trkpt lat="45.59014" lon="4.67389">
        <ele>350</ele>
        <time>2015-10-18T10:09:04.357Z</time>
      </trkpt>
      <trkpt lat="45.59015" lon="4.67397">
        <ele>350</ele>
        <time>2015-10-18T10:09:07.367Z</time>
      </trkpt>
      <trkpt lat="45.59014" lon="4.67402">
        <ele>350</ele>
        <time>2015-10-18T10:09:08.337Z</time>
      </trkpt>
      <trkpt lat="45.59014" lon="4.67412">
        <ele>350</ele>
        <time>2015-10-18T10:09:11.396Z</time>
      </trkpt>
      <trkpt lat="45.59014" lon="4.67417">
        <ele>350</ele>
        <time>2015-10-18T10:09:12.386Z</time>
      </trkpt>
      <trkpt lat="45.59014" lon="4.67425">
        <ele>350</ele>
        <time>2015-10-18T10:09:14.402Z</time>
      </trkpt>
      <trkpt lat="45.59014" lon="4.67432">
        <ele>349</ele>
        <time>2015-10-18T10:09:15.354Z</time>
      </trkpt>
      <trkpt lat="45.59016" lon="4.6744">
        <ele>349</ele>
        <time>2015-10-18T10:09:17.393Z</time>
      </trkpt>
      <trkpt lat="45.59017" lon="4.67447">
        <ele>349</ele>
        <time>2015-10-18T10:09:18.358Z</time>
      </trkpt>
      <trkpt lat="45.59018" lon="4.67451">
        <ele>349</ele>
        <time>2015-10-18T10:09:19.403Z</time>
      </trkpt>
      <trkpt lat="45.59018" lon="4.6746">
        <ele>349</ele>
        <time>2015-10-18T10:09:20.381Z</time>
      </trkpt>
      <trkpt lat="45.59019" lon="4.67466">
        <ele>349</ele>
        <time>2015-10-18T10:09:21.419Z</time>
      </trkpt>
      <trkpt lat="45.59019" lon="4.67473">
        <ele>349</ele>
        <time>2015-10-18T10:09:22.370Z</time>
      </trkpt>
      <trkpt lat="45.5902" lon="4.67481">
        <ele>349</ele>
        <time>2015-10-18T10:09:23.410Z</time>
      </trkpt>
      <trkpt lat="45.5902" lon="4.67488">
        <ele>349</ele>
        <time>2015-10-18T10:09:24.368Z</time>
      </trkpt>
      <trkpt lat="45.5902" lon="4.67494">
        <ele>349</ele>
        <time>2015-10-18T10:09:25.410Z</time>
      </trkpt>
      <trkpt lat="45.5902" lon="4.67503">
        <ele>349</ele>
        <time>2015-10-18T10:09:26.360Z</time>
      </trkpt>
      <trkpt lat="45.59021" lon="4.67509">
        <ele>349</ele>
        <time>2015-10-18T10:09:27.404Z</time>
      </trkpt>
      <trkpt lat="45.59023" lon="4.67515">
        <ele>349</ele>
        <time>2015-10-18T10:09:28.366Z</time>
      </trkpt>
      <trkpt lat="45.5902" lon="4.67524">
        <ele>349</ele>
        <time>2015-10-18T10:09:29.398Z</time>
      </trkpt>
      <trkpt lat="45.59021" lon="4.67528">
        <ele>349</ele>
        <time>2015-10-18T10:09:30.363Z</time>
      </trkpt>
      <trkpt lat="45.59023" lon="4.67537">
        <ele>349</ele>
        <time>2015-10-18T10:09:31.394Z</time>
      </trkpt>
      <trkpt lat="45.59024" lon="4.67543">
        <ele>349</ele>
        <time>2015-10-18T10:09:32.374Z</time>
      </trkpt>
      <trkpt lat="45.59024" lon="4.6755">
        <ele>349</ele>
        <time>2015-10-18T10:09:33.404Z</time>
      </trkpt>
      <trkpt lat="45.59026" lon="4.67558">
        <ele>349</ele>
        <time>2015-10-18T10:09:34.375Z</time>
      </trkpt>
      <trkpt lat="45.59026" lon="4.67567">
        <ele>349</ele>
        <time>2015-10-18T10:09:35.399Z</time>
      </trkpt>
      <trkpt lat="45.59026" lon="4.67573">
        <ele>349</ele>
        <time>2015-10-18T10:09:36.387Z</time>
      </trkpt>
      <trkpt lat="45.59026" lon="4.6758">
        <ele>349</ele>
        <time>2015-10-18T10:09:37.421Z</time>
      </trkpt>
      <trkpt lat="45.59026" lon="4.67586">
        <ele>349</ele>
        <time>2015-10-18T10:09:38.380Z</time>
      </trkpt>
      <trkpt lat="45.59028" lon="4.67593">
        <ele>349</ele>
        <time>2015-10-18T10:09:39.415Z</time>
      </trkpt>
      <trkpt lat="45.59028" lon="4.67599">
        <ele>349</ele>
        <time>2015-10-18T10:09:40.382Z</time>
      </trkpt>
      <trkpt lat="45.59029" lon="4.67606">
        <ele>349</ele>
        <time>2015-10-18T10:09:41.413Z</time>
      </trkpt>
      <trkpt lat="45.5903" lon="4.67614">
        <ele>349</ele>
        <time>2015-10-18T10:09:42.374Z</time>
      </trkpt>
      <trkpt lat="45.59029" lon="4.67621">
        <ele>349</ele>
        <time>2015-10-18T10:09:43.408Z</time>
      </trkpt>
      <trkpt lat="45.5903" lon="4.67629">
        <ele>349</ele>
        <time>2015-10-18T10:09:44.363Z</time>
      </trkpt>
      <trkpt lat="45.59031" lon="4.67636">
        <ele>349</ele>
        <time>2015-10-18T10:09:45.384Z</time>
      </trkpt>
      <trkpt lat="45.59032" lon="4.67642">
        <ele>349</ele>
        <time>2015-10-18T10:09:46.364Z</time>
      </trkpt>
      <trkpt lat="45.59034" lon="4.67649">
        <ele>349</ele>
        <time>2015-10-18T10:09:47.397Z</time>
      </trkpt>
      <trkpt lat="45.59034" lon="4.67655">
        <ele>349</ele>
        <time>2015-10-18T10:09:48.377Z</time>
      </trkpt>
      <trkpt lat="45.59035" lon="4.67661">
        <ele>349</ele>
        <time>2015-10-18T10:09:49.403Z</time>
      </trkpt>
      <trkpt lat="45.59036" lon="4.67668">
        <ele>348</ele>
        <time>2015-10-18T10:09:50.377Z</time>
      </trkpt>
      <trkpt lat="45.59038" lon="4.67676">
        <ele>348</ele>
        <time>2015-10-18T10:09:51.404Z</time>
      </trkpt>
      <trkpt lat="45.59039" lon="4.67683">
        <ele>348</ele>
        <time>2015-10-18T10:09:52.375Z</time>
      </trkpt>
      <trkpt lat="45.5904" lon="4.67694">
        <ele>348</ele>
        <time>2015-10-18T10:09:54.415Z</time>
      </trkpt>
      <trkpt lat="45.59041" lon="4.677">
        <ele>348</ele>
        <time>2015-10-18T10:09:55.376Z</time>
      </trkpt>
      <trkpt lat="45.59041" lon="4.67709">
        <ele>348</ele>
        <time>2015-10-18T10:09:56.405Z</time>
      </trkpt>
      <trkpt lat="45.59043" lon="4.67715">
        <ele>348</ele>
        <time>2015-10-18T10:09:57.389Z</time>
      </trkpt>
      <trkpt lat="45.59044" lon="4.67721">
        <ele>348</ele>
        <time>2015-10-18T10:09:58.415Z</time>
      </trkpt>
      <trkpt lat="45.59045" lon="4.6773">
        <ele>348</ele>
        <time>2015-10-18T10:09:59.379Z</time>
      </trkpt>
      <trkpt lat="45.59045" lon="4.67739">
        <ele>348</ele>
        <time>2015-10-18T10:10:00.408Z</time>
      </trkpt>
      <trkpt lat="45.59044" lon="4.67745">
        <ele>348</ele>
        <time>2015-10-18T10:10:01.382Z</time>
      </trkpt>
      <trkpt lat="45.59045" lon="4.67752">
        <ele>347</ele>
        <time>2015-10-18T10:10:02.417Z</time>
      </trkpt>
      <trkpt lat="45.59045" lon="4.6776">
        <ele>347</ele>
        <time>2015-10-18T10:10:03.381Z</time>
      </trkpt>
      <trkpt lat="45.59046" lon="4.67767">
        <ele>347</ele>
        <time>2015-10-18T10:10:04.409Z</time>
      </trkpt>
      <trkpt lat="45.59046" lon="4.67775">
        <ele>347</ele>
        <time>2015-10-18T10:10:05.371Z</time>
      </trkpt>
      <trkpt lat="45.59046" lon="4.67784">
        <ele>347</ele>
        <time>2015-10-18T10:10:06.405Z</time>
      </trkpt>
      <trkpt lat="45.59046" lon="4.67792">
        <ele>347</ele>
        <time>2015-10-18T10:10:07.378Z</time>
      </trkpt>
      <trkpt lat="45.59047" lon="4.67799">
        <ele>347</ele>
        <time>2015-10-18T10:10:08.537Z</time>
      </trkpt>
      <trkpt lat="45.59046" lon="4.67807">
        <ele>347</ele>
        <time>2015-10-18T10:10:09.376Z</time>
      </trkpt>
      <trkpt lat="45.59046" lon="4.67814">
        <ele>347</ele>
        <time>2015-10-18T10:10:10.414Z</time>
      </trkpt>
      <trkpt lat="45.59046" lon="4.67822">
        <ele>347</ele>
        <time>2015-10-18T10:10:11.377Z</time>
      </trkpt>
      <trkpt lat="45.59047" lon="4.67831">
        <ele>347</ele>
        <time>2015-10-18T10:10:12.411Z</time>
      </trkpt>
      <trkpt lat="45.59046" lon="4.67837">
        <ele>346</ele>
        <time>2015-10-18T10:10:13.377Z</time>
      </trkpt>
      <trkpt lat="45.59046" lon="4.67846">
        <ele>346</ele>
        <time>2015-10-18T10:10:14.412Z</time>
      </trkpt>
      <trkpt lat="45.59046" lon="4.67852">
        <ele>346</ele>
        <time>2015-10-18T10:10:15.374Z</time>
      </trkpt>
      <trkpt lat="45.59046" lon="4.67863">
        <ele>346</ele>
        <time>2015-10-18T10:10:16.402Z</time>
      </trkpt>
      <trkpt lat="45.59046" lon="4.67872">
        <ele>346</ele>
        <time>2015-10-18T10:10:17.376Z</time>
      </trkpt>
      <trkpt lat="45.59046" lon="4.6788">
        <ele>346</ele>
        <time>2015-10-18T10:10:18.404Z</time>
      </trkpt>
      <trkpt lat="45.59046" lon="4.67889">
        <ele>345</ele>
        <time>2015-10-18T10:10:19.376Z</time>
      </trkpt>
      <trkpt lat="45.59046" lon="4.67897">
        <ele>345</ele>
        <time>2015-10-18T10:10:20.410Z</time>
      </trkpt>
      <trkpt lat="45.59046" lon="4.67908">
        <ele>345</ele>
        <time>2015-10-18T10:10:21.374Z</time>
      </trkpt>
      <trkpt lat="45.59046" lon="4.67917">
        <ele>343</ele>
        <time>2015-10-18T10:10:22.415Z</time>
      </trkpt>
      <trkpt lat="45.59046" lon="4.67927">
        <ele>343</ele>
        <time>2015-10-18T10:10:23.380Z</time>
      </trkpt>
      <trkpt lat="45.59046" lon="4.67936">
        <ele>343</ele>
        <time>2015-10-18T10:10:24.410Z</time>
      </trkpt>
      <trkpt lat="45.59047" lon="4.67945">
        <ele>343</ele>
        <time>2015-10-18T10:10:25.378Z</time>
      </trkpt>
      <trkpt lat="45.59047" lon="4.67955">
        <ele>342</ele>
        <time>2015-10-18T10:10:26.416Z</time>
      </trkpt>
      <trkpt lat="45.59047" lon="4.67964">
        <ele>342</ele>
        <time>2015-10-18T10:10:27.381Z</time>
      </trkpt>
      <trkpt lat="45.59047" lon="4.6797">
        <ele>342</ele>
        <time>2015-10-18T10:10:28.419Z</time>
      </trkpt>
      <trkpt lat="45.59047" lon="4.67979">
        <ele>342</ele>
        <time>2015-10-18T10:10:29.380Z</time>
      </trkpt>
      <trkpt lat="45.59047" lon="4.6799">
        <ele>342</ele>
        <time>2015-10-18T10:10:30.410Z</time>
      </trkpt>
      <trkpt lat="45.59048" lon="4.67998">
        <ele>342</ele>
        <time>2015-10-18T10:10:31.370Z</time>
      </trkpt>
      <trkpt lat="45.59049" lon="4.68007">
        <ele>340</ele>
        <time>2015-10-18T10:10:32.405Z</time>
      </trkpt>
      <trkpt lat="45.59049" lon="4.68015">
        <ele>340</ele>
        <time>2015-10-18T10:10:33.379Z</time>
      </trkpt>
      <trkpt lat="45.59049" lon="4.68024">
        <ele>339</ele>
        <time>2015-10-18T10:10:34.410Z</time>
      </trkpt>
      <trkpt lat="45.59049" lon="4.68033">
        <ele>339</ele>
        <time>2015-10-18T10:10:35.374Z</time>
      </trkpt>
      <trkpt lat="45.59049" lon="4.68041">
        <ele>339</ele>
        <time>2015-10-18T10:10:36.407Z</time>
      </trkpt>
      <trkpt lat="45.5905" lon="4.6805">
        <ele>339</ele>
        <time>2015-10-18T10:10:37.381Z</time>
      </trkpt>
      <trkpt lat="45.59052" lon="4.68058">
        <ele>339</ele>
        <time>2015-10-18T10:10:38.472Z</time>
      </trkpt>
      <trkpt lat="45.59052" lon="4.68065">
        <ele>339</ele>
        <time>2015-10-18T10:10:39.373Z</time>
      </trkpt>
      <trkpt lat="45.59052" lon="4.68073">
        <ele>339</ele>
        <time>2015-10-18T10:10:40.410Z</time>
      </trkpt>
      <trkpt lat="45.59052" lon="4.6808">
        <ele>339</ele>
        <time>2015-10-18T10:10:41.384Z</time>
      </trkpt>
      <trkpt lat="45.59052" lon="4.68088">
        <ele>337</ele>
        <time>2015-10-18T10:10:42.405Z</time>
      </trkpt>
      <trkpt lat="45.59052" lon="4.68095">
        <ele>337</ele>
        <time>2015-10-18T10:10:43.373Z</time>
      </trkpt>
      <trkpt lat="45.59052" lon="4.68103">
        <ele>337</ele>
        <time>2015-10-18T10:10:44.396Z</time>
      </trkpt>
      <trkpt lat="45.59053" lon="4.6811">
        <ele>337</ele>
        <time>2015-10-18T10:10:45.379Z</time>
      </trkpt>
      <trkpt lat="45.59053" lon="4.68118">
        <ele>337</ele>
        <time>2015-10-18T10:10:46.416Z</time>
      </trkpt>
      <trkpt lat="45.59053" lon="4.68125">
        <ele>337</ele>
        <time>2015-10-18T10:10:47.373Z</time>
      </trkpt>
      <trkpt lat="45.59054" lon="4.68133">
        <ele>337</ele>
        <time>2015-10-18T10:10:48.401Z</time>
      </trkpt>
      <trkpt lat="45.59054" lon="4.6814">
        <ele>337</ele>
        <time>2015-10-18T10:10:49.399Z</time>
      </trkpt>
      <trkpt lat="45.59054" lon="4.68148">
        <ele>337</ele>
        <time>2015-10-18T10:10:50.392Z</time>
      </trkpt>
      <trkpt lat="45.59055" lon="4.68157">
        <ele>337</ele>
        <time>2015-10-18T10:10:51.377Z</time>
      </trkpt>
      <trkpt lat="45.59055" lon="4.68166">
        <ele>337</ele>
        <time>2015-10-18T10:10:52.406Z</time>
      </trkpt>
      <trkpt lat="45.59055" lon="4.68174">
        <ele>336</ele>
        <time>2015-10-18T10:10:53.374Z</time>
      </trkpt>
      <trkpt lat="45.59055" lon="4.68181">
        <ele>336</ele>
        <time>2015-10-18T10:10:54.409Z</time>
      </trkpt>
      <trkpt lat="45.59056" lon="4.68189">
        <ele>335</ele>
        <time>2015-10-18T10:10:55.378Z</time>
      </trkpt>
      <trkpt lat="45.59056" lon="4.68196">
        <ele>335</ele>
        <time>2015-10-18T10:10:56.398Z</time>
      </trkpt>
      <trkpt lat="45.59056" lon="4.68204">
        <ele>335</ele>
        <time>2015-10-18T10:10:57.367Z</time>
      </trkpt>
      <trkpt lat="45.59057" lon="4.68213">
        <ele>335</ele>
        <time>2015-10-18T10:10:58.391Z</time>
      </trkpt>
      <trkpt lat="45.59057" lon="4.68219">
        <ele>335</ele>
        <time>2015-10-18T10:10:59.355Z</time>
      </trkpt>
      <trkpt lat="45.59057" lon="4.68226">
        <ele>335</ele>
        <time>2015-10-18T10:11:00.395Z</time>
      </trkpt>
      <trkpt lat="45.59057" lon="4.68234">
        <ele>335</ele>
        <time>2015-10-18T10:11:01.355Z</time>
      </trkpt>
      <trkpt lat="45.59057" lon="4.68241">
        <ele>335</ele>
        <time>2015-10-18T10:11:02.412Z</time>
      </trkpt>
      <trkpt lat="45.59057" lon="4.68249">
        <ele>335</ele>
        <time>2015-10-18T10:11:03.376Z</time>
      </trkpt>
      <trkpt lat="45.59058" lon="4.68258">
        <ele>334</ele>
        <time>2015-10-18T10:11:04.385Z</time>
      </trkpt>
      <trkpt lat="45.59058" lon="4.68264">
        <ele>334</ele>
        <time>2015-10-18T10:11:05.362Z</time>
      </trkpt>
      <trkpt lat="45.59058" lon="4.68273">
        <ele>334</ele>
        <time>2015-10-18T10:11:06.400Z</time>
      </trkpt>
      <trkpt lat="45.59058" lon="4.68282">
        <ele>334</ele>
        <time>2015-10-18T10:11:07.375Z</time>
      </trkpt>
      <trkpt lat="45.59059" lon="4.6829">
        <ele>334</ele>
        <time>2015-10-18T10:11:08.401Z</time>
      </trkpt>
      <trkpt lat="45.59058" lon="4.68299">
        <ele>334</ele>
        <time>2015-10-18T10:11:09.373Z</time>
      </trkpt>
      <trkpt lat="45.5906" lon="4.68307">
        <ele>334</ele>
        <time>2015-10-18T10:11:10.394Z</time>
      </trkpt>
      <trkpt lat="45.5906" lon="4.68316">
        <ele>334</ele>
        <time>2015-10-18T10:11:11.378Z</time>
      </trkpt>
      <trkpt lat="45.59059" lon="4.68324">
        <ele>334</ele>
        <time>2015-10-18T10:11:12.398Z</time>
      </trkpt>
      <trkpt lat="45.5906" lon="4.68331">
        <ele>334</ele>
        <time>2015-10-18T10:11:13.357Z</time>
      </trkpt>
      <trkpt lat="45.59061" lon="4.68339">
        <ele>334</ele>
        <time>2015-10-18T10:11:14.391Z</time>
      </trkpt>
      <trkpt lat="45.59063" lon="4.68348">
        <ele>334</ele>
        <time>2015-10-18T10:11:15.383Z</time>
      </trkpt>
      <trkpt lat="45.59062" lon="4.68357">
        <ele>334</ele>
        <time>2015-10-18T10:11:16.410Z</time>
      </trkpt>
      <trkpt lat="45.59062" lon="4.68363">
        <ele>334</ele>
        <time>2015-10-18T10:11:17.378Z</time>
      </trkpt>
      <trkpt lat="45.59062" lon="4.68369">
        <ele>334</ele>
        <time>2015-10-18T10:11:18.412Z</time>
      </trkpt>
      <trkpt lat="45.59062" lon="4.6838">
        <ele>334</ele>
        <time>2015-10-18T10:11:19.365Z</time>
      </trkpt>
      <trkpt lat="45.59062" lon="4.68387">
        <ele>334</ele>
        <time>2015-10-18T10:11:20.415Z</time>
      </trkpt>
      <trkpt lat="45.59061" lon="4.68393">
        <ele>334</ele>
        <time>2015-10-18T10:11:21.367Z</time>
      </trkpt>
      <trkpt lat="45.59061" lon="4.684">
        <ele>335</ele>
        <time>2015-10-18T10:11:22.395Z</time>
      </trkpt>
      <trkpt lat="45.59061" lon="4.68406">
        <ele>335</ele>
        <time>2015-10-18T10:11:23.362Z</time>
      </trkpt>
      <trkpt lat="45.5906" lon="4.68412">
        <ele>335</ele>
        <time>2015-10-18T10:11:24.468Z</time>
      </trkpt>
      <trkpt lat="45.59058" lon="4.68419">
        <ele>336</ele>
        <time>2015-10-18T10:11:25.365Z</time>
      </trkpt>
      <trkpt lat="45.59056" lon="4.68425">
        <ele>336</ele>
        <time>2015-10-18T10:11:26.383Z</time>
      </trkpt>
      <trkpt lat="45.59055" lon="4.68432">
        <ele>336</ele>
        <time>2015-10-18T10:11:27.354Z</time>
      </trkpt>
      <trkpt lat="45.59054" lon="4.68438">
        <ele>336</ele>
        <time>2015-10-18T10:11:28.395Z</time>
      </trkpt>
      <trkpt lat="45.59052" lon="4.68445">
        <ele>336</ele>
        <time>2015-10-18T10:11:29.364Z</time>
      </trkpt>
      <trkpt lat="45.59049" lon="4.68455">
        <ele>336</ele>
        <time>2015-10-18T10:11:31.430Z</time>
      </trkpt>
      <trkpt lat="45.59046" lon="4.6846">
        <ele>336</ele>
        <time>2015-10-18T10:11:32.369Z</time>
      </trkpt>
      <trkpt lat="45.59045" lon="4.68466">
        <ele>336</ele>
        <time>2015-10-18T10:11:33.396Z</time>
      </trkpt>
      <trkpt lat="45.59043" lon="4.68472">
        <ele>336</ele>
        <time>2015-10-18T10:11:34.368Z</time>
      </trkpt>
      <trkpt lat="45.5904" lon="4.68483">
        <ele>337</ele>
        <time>2015-10-18T10:11:36.431Z</time>
      </trkpt>
      <trkpt lat="45.59039" lon="4.6849">
        <ele>337</ele>
        <time>2015-10-18T10:11:37.354Z</time>
      </trkpt>
      <trkpt lat="45.59035" lon="4.68498">
        <ele>337</ele>
        <time>2015-10-18T10:11:39.397Z</time>
      </trkpt>
      <trkpt lat="45.59033" lon="4.68505">
        <ele>338</ele>
        <time>2015-10-18T10:11:40.353Z</time>
      </trkpt>
      <trkpt lat="45.5903" lon="4.68515">
        <ele>338</ele>
        <time>2015-10-18T10:11:42.374Z</time>
      </trkpt>
      <trkpt lat="45.59028" lon="4.6852">
        <ele>338</ele>
        <time>2015-10-18T10:11:43.349Z</time>
      </trkpt>
      <trkpt lat="45.59025" lon="4.6853">
        <ele>339</ele>
        <time>2015-10-18T10:11:45.397Z</time>
      </trkpt>
      <trkpt lat="45.59025" lon="4.68535">
        <ele>339</ele>
        <time>2015-10-18T10:11:46.364Z</time>
      </trkpt>
      <trkpt lat="45.59021" lon="4.68545">
        <ele>339</ele>
        <time>2015-10-18T10:11:48.396Z</time>
      </trkpt>
      <trkpt lat="45.59019" lon="4.6855">
        <ele>339</ele>
        <time>2015-10-18T10:11:49.366Z</time>
      </trkpt>
      <trkpt lat="45.59016" lon="4.68558">
        <ele>339</ele>
        <time>2015-10-18T10:11:51.399Z</time>
      </trkpt>
      <trkpt lat="45.59014" lon="4.68565">
        <ele>339</ele>
        <time>2015-10-18T10:11:52.367Z</time>
      </trkpt>
      <trkpt lat="45.59011" lon="4.68573">
        <ele>339</ele>
        <time>2015-10-18T10:11:54.393Z</time>
      </trkpt>
      <trkpt lat="45.5901" lon="4.68578">
        <ele>340</ele>
        <time>2015-10-18T10:11:55.356Z</time>
      </trkpt>
      <trkpt lat="45.59008" lon="4.68588">
        <ele>340</ele>
        <time>2015-10-18T10:11:57.400Z</time>
      </trkpt>
      <trkpt lat="45.59005" lon="4.68593">
        <ele>340</ele>
        <time>2015-10-18T10:11:58.362Z</time>
      </trkpt>
      <trkpt lat="45.59003" lon="4.68601">
        <ele>341</ele>
        <time>2015-10-18T10:12:00.403Z</time>
      </trkpt>
      <trkpt lat="45.59001" lon="4.68608">
        <ele>341</ele>
        <time>2015-10-18T10:12:01.354Z</time>
      </trkpt>
      <trkpt lat="45.58999" lon="4.68616">
        <ele>340</ele>
        <time>2015-10-18T10:12:03.401Z</time>
      </trkpt>
      <trkpt lat="45.58998" lon="4.68623">
        <ele>340</ele>
        <time>2015-10-18T10:12:04.352Z</time>
      </trkpt>
      <trkpt lat="45.58997" lon="4.68633">
        <ele>341</ele>
        <time>2015-10-18T10:12:06.393Z</time>
      </trkpt>
      <trkpt lat="45.58997" lon="4.6864">
        <ele>341</ele>
        <time>2015-10-18T10:12:07.362Z</time>
      </trkpt>
      <trkpt lat="45.58996" lon="4.68648">
        <ele>341</ele>
        <time>2015-10-18T10:12:09.380Z</time>
      </trkpt>
      <trkpt lat="45.58995" lon="4.68653">
        <ele>341</ele>
        <time>2015-10-18T10:12:10.363Z</time>
      </trkpt>
      <trkpt lat="45.58994" lon="4.68663">
        <ele>342</ele>
        <time>2015-10-18T10:12:12.398Z</time>
      </trkpt>
      <trkpt lat="45.58994" lon="4.68668">
        <ele>342</ele>
        <time>2015-10-18T10:12:13.368Z</time>
      </trkpt>
      <trkpt lat="45.58993" lon="4.68676">
        <ele>342</ele>
        <time>2015-10-18T10:12:15.398Z</time>
      </trkpt>
      <trkpt lat="45.58993" lon="4.68681">
        <ele>342</ele>
        <time>2015-10-18T10:12:16.362Z</time>
      </trkpt>
      <trkpt lat="45.58991" lon="4.68689">
        <ele>342</ele>
        <time>2015-10-18T10:12:18.401Z</time>
      </trkpt>
      <trkpt lat="45.5899" lon="4.68693">
        <ele>342</ele>
        <time>2015-10-18T10:12:19.361Z</time>
      </trkpt>
      <trkpt lat="45.5899" lon="4.68704">
        <ele>342</ele>
        <time>2015-10-18T10:12:21.409Z</time>
      </trkpt>
      <trkpt lat="45.5899" lon="4.68709">
        <ele>342</ele>
        <time>2015-10-18T10:12:22.360Z</time>
      </trkpt>
      <trkpt lat="45.58991" lon="4.68717">
        <ele>342</ele>
        <time>2015-10-18T10:12:24.402Z</time>
      </trkpt>
      <trkpt lat="45.58991" lon="4.68724">
        <ele>342</ele>
        <time>2015-10-18T10:12:25.349Z</time>
      </trkpt>
      <trkpt lat="45.58991" lon="4.68732">
        <ele>342</ele>
        <time>2015-10-18T10:12:27.390Z</time>
      </trkpt>
      <trkpt lat="45.58993" lon="4.68739">
        <ele>342</ele>
        <time>2015-10-18T10:12:28.376Z</time>
      </trkpt>
      <trkpt lat="45.58993" lon="4.68747">
        <ele>343</ele>
        <time>2015-10-18T10:12:30.428Z</time>
      </trkpt>
      <trkpt lat="45.58993" lon="4.68754">
        <ele>343</ele>
        <time>2015-10-18T10:12:31.379Z</time>
      </trkpt>
      <trkpt lat="45.58993" lon="4.68762">
        <ele>342</ele>
        <time>2015-10-18T10:12:33.395Z</time>
      </trkpt>
      <trkpt lat="45.58993" lon="4.68769">
        <ele>342</ele>
        <time>2015-10-18T10:12:34.377Z</time>
      </trkpt>
      <trkpt lat="45.58994" lon="4.68777">
        <ele>342</ele>
        <time>2015-10-18T10:12:36.533Z</time>
      </trkpt>
      <trkpt lat="45.58993" lon="4.68781">
        <ele>342</ele>
        <time>2015-10-18T10:12:37.389Z</time>
      </trkpt>
      <trkpt lat="45.58991" lon="4.68792">
        <ele>342</ele>
        <time>2015-10-18T10:12:39.416Z</time>
      </trkpt>
      <trkpt lat="45.5899" lon="4.68796">
        <ele>342</ele>
        <time>2015-10-18T10:12:40.400Z</time>
      </trkpt>
      <trkpt lat="45.58989" lon="4.68807">
        <ele>342</ele>
        <time>2015-10-18T10:12:42.417Z</time>
      </trkpt>
      <trkpt lat="45.58988" lon="4.68812">
        <ele>342</ele>
        <time>2015-10-18T10:12:43.379Z</time>
      </trkpt>
      <trkpt lat="45.58988" lon="4.68822">
        <ele>342</ele>
        <time>2015-10-18T10:12:45.418Z</time>
      </trkpt>
      <trkpt lat="45.58988" lon="4.68829">
        <ele>342</ele>
        <time>2015-10-18T10:12:46.363Z</time>
      </trkpt>
      <trkpt lat="45.58989" lon="4.68839">
        <ele>341</ele>
        <time>2015-10-18T10:12:48.392Z</time>
      </trkpt>
      <trkpt lat="45.58989" lon="4.68846">
        <ele>341</ele>
        <time>2015-10-18T10:12:49.365Z</time>
      </trkpt>
      <trkpt lat="45.58989" lon="4.68852">
        <ele>341</ele>
        <time>2015-10-18T10:12:50.413Z</time>
      </trkpt>
      <trkpt lat="45.5899" lon="4.68859">
        <ele>341</ele>
        <time>2015-10-18T10:12:51.376Z</time>
      </trkpt>
      <trkpt lat="45.58989" lon="4.68867">
        <ele>340</ele>
        <time>2015-10-18T10:12:52.402Z</time>
      </trkpt>
      <trkpt lat="45.5899" lon="4.68874">
        <ele>340</ele>
        <time>2015-10-18T10:12:53.377Z</time>
      </trkpt>
      <trkpt lat="45.58991" lon="4.6888">
        <ele>340</ele>
        <time>2015-10-18T10:12:54.409Z</time>
      </trkpt>
      <trkpt lat="45.58993" lon="4.68887">
        <ele>340</ele>
        <time>2015-10-18T10:12:55.373Z</time>
      </trkpt>
      <trkpt lat="45.58994" lon="4.68895">
        <ele>340</ele>
        <time>2015-10-18T10:12:56.417Z</time>
      </trkpt>
      <trkpt lat="45.58994" lon="4.68899">
        <ele>340</ele>
        <time>2015-10-18T10:12:57.386Z</time>
      </trkpt>
      <trkpt lat="45.58995" lon="4.68906">
        <ele>340</ele>
        <time>2015-10-18T10:12:58.395Z</time>
      </trkpt>
      <trkpt lat="45.58996" lon="4.68912">
        <ele>340</ele>
        <time>2015-10-18T10:12:59.369Z</time>
      </trkpt>
      <trkpt lat="45.58996" lon="4.68919">
        <ele>340</ele>
        <time>2015-10-18T10:13:00.409Z</time>
      </trkpt>
      <trkpt lat="45.58996" lon="4.68925">
        <ele>339</ele>
        <time>2015-10-18T10:13:01.377Z</time>
      </trkpt>
      <trkpt lat="45.58997" lon="4.68932">
        <ele>339</ele>
        <time>2015-10-18T10:13:02.405Z</time>
      </trkpt>
      <trkpt lat="45.58998" lon="4.68938">
        <ele>339</ele>
        <time>2015-10-18T10:13:03.360Z</time>
      </trkpt>
      <trkpt lat="45.59" lon="4.68949">
        <ele>340</ele>
        <time>2015-10-18T10:13:05.392Z</time>
      </trkpt>
      <trkpt lat="45.59001" lon="4.68955">
        <ele>340</ele>
        <time>2015-10-18T10:13:06.354Z</time>
      </trkpt>
      <trkpt lat="45.59003" lon="4.68964">
        <ele>340</ele>
        <time>2015-10-18T10:13:08.410Z</time>
      </trkpt>
      <trkpt lat="45.59003" lon="4.6897">
        <ele>340</ele>
        <time>2015-10-18T10:13:09.354Z</time>
      </trkpt>
      <trkpt lat="45.59005" lon="4.68979">
        <ele>340</ele>
        <time>2015-10-18T10:13:11.400Z</time>
      </trkpt>
      <trkpt lat="45.59006" lon="4.68983">
        <ele>340</ele>
        <time>2015-10-18T10:13:12.392Z</time>
      </trkpt>
      <trkpt lat="45.59008" lon="4.68994">
        <ele>339</ele>
        <time>2015-10-18T10:13:14.409Z</time>
      </trkpt>
      <trkpt lat="45.5901" lon="4.68998">
        <ele>339</ele>
        <time>2015-10-18T10:13:15.365Z</time>
      </trkpt>
      <trkpt lat="45.59012" lon="4.69005">
        <ele>339</ele>
        <time>2015-10-18T10:13:16.404Z</time>
      </trkpt>
      <trkpt lat="45.59012" lon="4.69011">
        <ele>339</ele>
        <time>2015-10-18T10:13:17.387Z</time>
      </trkpt>
      <trkpt lat="45.59014" lon="4.6902">
        <ele>339</ele>
        <time>2015-10-18T10:13:19.405Z</time>
      </trkpt>
      <trkpt lat="45.59014" lon="4.69026">
        <ele>339</ele>
        <time>2015-10-18T10:13:20.361Z</time>
      </trkpt>
      <trkpt lat="45.59015" lon="4.69037">
        <ele>339</ele>
        <time>2015-10-18T10:13:22.400Z</time>
      </trkpt>
      <trkpt lat="45.59016" lon="4.69043">
        <ele>339</ele>
        <time>2015-10-18T10:13:23.373Z</time>
      </trkpt>
      <trkpt lat="45.59016" lon="4.69054">
        <ele>339</ele>
        <time>2015-10-18T10:13:25.419Z</time>
      </trkpt>
      <trkpt lat="45.59015" lon="4.6906">
        <ele>339</ele>
        <time>2015-10-18T10:13:26.377Z</time>
      </trkpt>
      <trkpt lat="45.59014" lon="4.69069">
        <ele>339</ele>
        <time>2015-10-18T10:13:28.411Z</time>
      </trkpt>
      <trkpt lat="45.59014" lon="4.69075">
        <ele>339</ele>
        <time>2015-10-18T10:13:29.379Z</time>
      </trkpt>
      <trkpt lat="45.59013" lon="4.69086">
        <ele>339</ele>
        <time>2015-10-18T10:13:31.401Z</time>
      </trkpt>
      <trkpt lat="45.59014" lon="4.69093">
        <ele>339</ele>
        <time>2015-10-18T10:13:32.362Z</time>
      </trkpt>
      <trkpt lat="45.59012" lon="4.69101">
        <ele>338</ele>
        <time>2015-10-18T10:13:34.402Z</time>
      </trkpt>
      <trkpt lat="45.59011" lon="4.69105">
        <ele>338</ele>
        <time>2015-10-18T10:13:35.378Z</time>
      </trkpt>
      <trkpt lat="45.59011" lon="4.69112">
        <ele>338</ele>
        <time>2015-10-18T10:13:36.399Z</time>
      </trkpt>
      <trkpt lat="45.59011" lon="4.69118">
        <ele>338</ele>
        <time>2015-10-18T10:13:37.356Z</time>
      </trkpt>
      <trkpt lat="45.59011" lon="4.69129">
        <ele>338</ele>
        <time>2015-10-18T10:13:39.402Z</time>
      </trkpt>
      <trkpt lat="45.5901" lon="4.69133">
        <ele>338</ele>
        <time>2015-10-18T10:13:40.365Z</time>
      </trkpt>
      <trkpt lat="45.5901" lon="4.6914">
        <ele>338</ele>
        <time>2015-10-18T10:13:41.412Z</time>
      </trkpt>
      <trkpt lat="45.59008" lon="4.69148">
        <ele>338</ele>
        <time>2015-10-18T10:13:42.378Z</time>
      </trkpt>
      <trkpt lat="45.59008" lon="4.69157">
        <ele>338</ele>
        <time>2015-10-18T10:13:44.401Z</time>
      </trkpt>
      <trkpt lat="45.59006" lon="4.69163">
        <ele>338</ele>
        <time>2015-10-18T10:13:45.363Z</time>
      </trkpt>
      <trkpt lat="45.59005" lon="4.69174">
        <ele>338</ele>
        <time>2015-10-18T10:13:47.384Z</time>
      </trkpt>
      <trkpt lat="45.59004" lon="4.69181">
        <ele>337</ele>
        <time>2015-10-18T10:13:48.348Z</time>
      </trkpt>
      <trkpt lat="45.59002" lon="4.69191">
        <ele>337</ele>
        <time>2015-10-18T10:13:50.390Z</time>
      </trkpt>
      <trkpt lat="45.59002" lon="4.69196">
        <ele>337</ele>
        <time>2015-10-18T10:13:51.369Z</time>
      </trkpt>
      <trkpt lat="45.59001" lon="4.69206">
        <ele>337</ele>
        <time>2015-10-18T10:13:53.407Z</time>
      </trkpt>
      <trkpt lat="45.59" lon="4.69213">
        <ele>337</ele>
        <time>2015-10-18T10:13:54.351Z</time>
      </trkpt>
      <trkpt lat="45.58999" lon="4.69223">
        <ele>337</ele>
        <time>2015-10-18T10:13:56.407Z</time>
      </trkpt>
      <trkpt lat="45.58998" lon="4.6923">
        <ele>336</ele>
        <time>2015-10-18T10:13:57.363Z</time>
      </trkpt>
      <trkpt lat="45.58997" lon="4.69236">
        <ele>336</ele>
        <time>2015-10-18T10:13:58.394Z</time>
      </trkpt>
      <trkpt lat="45.58996" lon="4.69243">
        <ele>336</ele>
        <time>2015-10-18T10:13:59.344Z</time>
      </trkpt>
      <trkpt lat="45.58995" lon="4.69254">
        <ele>336</ele>
        <time>2015-10-18T10:14:01.388Z</time>
      </trkpt>
      <trkpt lat="45.58995" lon="4.69258">
        <ele>336</ele>
        <time>2015-10-18T10:14:02.362Z</time>
      </trkpt>
      <trkpt lat="45.58994" lon="4.69264">
        <ele>336</ele>
        <time>2015-10-18T10:14:03.377Z</time>
      </trkpt>
      <trkpt lat="45.58994" lon="4.69271">
        <ele>337</ele>
        <time>2015-10-18T10:14:04.345Z</time>
      </trkpt>
      <trkpt lat="45.58994" lon="4.69281">
        <ele>337</ele>
        <time>2015-10-18T10:14:06.388Z</time>
      </trkpt>
      <trkpt lat="45.58994" lon="4.69286">
        <ele>337</ele>
        <time>2015-10-18T10:14:07.348Z</time>
      </trkpt>
      <trkpt lat="45.5899" lon="4.69296">
        <ele>337</ele>
        <time>2015-10-18T10:14:10.404Z</time>
      </trkpt>
      <trkpt lat="45.58989" lon="4.69303">
        <ele>337</ele>
        <time>2015-10-18T10:14:11.380Z</time>
      </trkpt>
      <trkpt lat="45.5899" lon="4.69311">
        <ele>337</ele>
        <time>2015-10-18T10:14:13.400Z</time>
      </trkpt>
      <trkpt lat="45.58991" lon="4.69316">
        <ele>337</ele>
        <time>2015-10-18T10:14:14.376Z</time>
      </trkpt>
      <trkpt lat="45.58991" lon="4.69326">
        <ele>338</ele>
        <time>2015-10-18T10:14:17.406Z</time>
      </trkpt>
      <trkpt lat="45.58991" lon="4.69331">
        <ele>338</ele>
        <time>2015-10-18T10:14:18.373Z</time>
      </trkpt>
      <trkpt lat="45.58993" lon="4.69342">
        <ele>338</ele>
        <time>2015-10-18T10:14:21.392Z</time>
      </trkpt>
      <trkpt lat="45.58993" lon="4.69344">
        <ele>338</ele>
        <time>2015-10-18T10:14:22.360Z</time>
      </trkpt>
      <trkpt lat="45.58994" lon="4.69352">
        <ele>338</ele>
        <time>2015-10-18T10:14:25.396Z</time>
      </trkpt>
      <trkpt lat="45.58994" lon="4.69357">
        <ele>338</ele>
        <time>2015-10-18T10:14:26.356Z</time>
      </trkpt>
      <trkpt lat="45.58994" lon="4.69367">
        <ele>338</ele>
        <time>2015-10-18T10:14:42.416Z</time>
      </trkpt>
      <trkpt lat="45.58993" lon="4.69369">
        <ele>338</ele>
        <time>2015-10-18T10:14:43.376Z</time>
      </trkpt>
      <trkpt lat="45.58989" lon="4.6938">
        <ele>338</ele>
        <time>2015-10-18T10:23:43.403Z</time>
      </trkpt>
      <trkpt lat="45.58989" lon="4.69382">
        <ele>338</ele>
        <time>2015-10-18T10:23:44.369Z</time>
      </trkpt>
      <trkpt lat="45.5899" lon="4.69389">
        <ele>338</ele>
        <time>2015-10-18T10:23:47.405Z</time>
      </trkpt>
      <trkpt lat="45.58989" lon="4.69395">
        <ele>337</ele>
        <time>2015-10-18T10:23:48.368Z</time>
      </trkpt>
      <trkpt lat="45.58989" lon="4.69404">
        <ele>337</ele>
        <time>2015-10-18T10:23:51.389Z</time>
      </trkpt>
      <trkpt lat="45.58989" lon="4.69408">
        <ele>337</ele>
        <time>2015-10-18T10:23:52.343Z</time>
      </trkpt>
      <trkpt lat="45.58989" lon="4.69419">
        <ele>337</ele>
        <time>2015-10-18T10:23:54.393Z</time>
      </trkpt>
      <trkpt lat="45.5899" lon="4.69423">
        <ele>337</ele>
        <time>2015-10-18T10:23:55.351Z</time>
      </trkpt>
      <trkpt lat="45.5899" lon="4.69429">
        <ele>337</ele>
        <time>2015-10-18T10:23:56.397Z</time>
      </trkpt>
      <trkpt lat="45.58989" lon="4.69436">
        <ele>337</ele>
        <time>2015-10-18T10:23:57.354Z</time>
      </trkpt>
      <trkpt lat="45.58989" lon="4.69442">
        <ele>337</ele>
        <time>2015-10-18T10:23:58.385Z</time>
      </trkpt>
      <trkpt lat="45.58988" lon="4.69449">
        <ele>337</ele>
        <time>2015-10-18T10:23:59.373Z</time>
      </trkpt>
      <trkpt lat="45.58988" lon="4.69455">
        <ele>337</ele>
        <time>2015-10-18T10:24:00.394Z</time>
      </trkpt>
      <trkpt lat="45.58987" lon="4.69462">
        <ele>336</ele>
        <time>2015-10-18T10:24:01.353Z</time>
      </trkpt>
      <trkpt lat="45.58988" lon="4.69468">
        <ele>336</ele>
        <time>2015-10-18T10:24:02.400Z</time>
      </trkpt>
      <trkpt lat="45.58986" lon="4.69479">
        <ele>336</ele>
        <time>2015-10-18T10:24:03.387Z</time>
      </trkpt>
      <trkpt lat="45.58986" lon="4.6949">
        <ele>336</ele>
        <time>2015-10-18T10:24:05.401Z</time>
      </trkpt>
      <trkpt lat="45.58986" lon="4.69494">
        <ele>336</ele>
        <time>2015-10-18T10:24:06.357Z</time>
      </trkpt>
      <trkpt lat="45.58986" lon="4.69505">
        <ele>335</ele>
        <time>2015-10-18T10:24:09.388Z</time>
      </trkpt>
      <trkpt lat="45.58986" lon="4.69507">
        <ele>335</ele>
        <time>2015-10-18T10:24:10.387Z</time>
      </trkpt>
      <trkpt lat="45.58986" lon="4.69515">
        <ele>335</ele>
        <time>2015-10-18T10:24:12.368Z</time>
      </trkpt>
      <trkpt lat="45.58988" lon="4.6952">
        <ele>334</ele>
        <time>2015-10-18T10:24:13.339Z</time>
      </trkpt>
      <trkpt lat="45.58986" lon="4.6953">
        <ele>334</ele>
        <time>2015-10-18T10:24:15.386Z</time>
      </trkpt>
      <trkpt lat="45.58986" lon="4.69537">
        <ele>334</ele>
        <time>2015-10-18T10:24:16.345Z</time>
      </trkpt>
      <trkpt lat="45.58986" lon="4.69545">
        <ele>334</ele>
        <time>2015-10-18T10:24:17.401Z</time>
      </trkpt>
      <trkpt lat="45.58986" lon="4.69554">
        <ele>333</ele>
        <time>2015-10-18T10:24:18.376Z</time>
      </trkpt>
      <trkpt lat="45.58986" lon="4.69565">
        <ele>333</ele>
        <time>2015-10-18T10:24:19.419Z</time>
      </trkpt>
      <trkpt lat="45.58986" lon="4.69573">
        <ele>333</ele>
        <time>2015-10-18T10:24:20.370Z</time>
      </trkpt>
      <trkpt lat="45.58986" lon="4.69584">
        <ele>331</ele>
        <time>2015-10-18T10:24:21.422Z</time>
      </trkpt>
      <trkpt lat="45.58985" lon="4.69595">
        <ele>331</ele>
        <time>2015-10-18T10:24:22.394Z</time>
      </trkpt>
      <trkpt lat="45.58986" lon="4.69603">
        <ele>331</ele>
        <time>2015-10-18T10:24:23.404Z</time>
      </trkpt>
      <trkpt lat="45.58987" lon="4.69614">
        <ele>330</ele>
        <time>2015-10-18T10:24:24.373Z</time>
      </trkpt>
      <trkpt lat="45.58987" lon="4.69623">
        <ele>330</ele>
        <time>2015-10-18T10:24:25.401Z</time>
      </trkpt>
      <trkpt lat="45.58986" lon="4.69635">
        <ele>330</ele>
        <time>2015-10-18T10:24:26.374Z</time>
      </trkpt>
      <trkpt lat="45.58986" lon="4.69646">
        <ele>329</ele>
        <time>2015-10-18T10:24:27.399Z</time>
      </trkpt>
      <trkpt lat="45.58987" lon="4.69657">
        <ele>329</ele>
        <time>2015-10-18T10:24:28.385Z</time>
      </trkpt>
      <trkpt lat="45.58986" lon="4.69668">
        <ele>328</ele>
        <time>2015-10-18T10:24:29.402Z</time>
      </trkpt>
      <trkpt lat="45.58986" lon="4.69676">
        <ele>328</ele>
        <time>2015-10-18T10:24:30.378Z</time>
      </trkpt>
      <trkpt lat="45.58986" lon="4.69687">
        <ele>327</ele>
        <time>2015-10-18T10:24:31.404Z</time>
      </trkpt>
      <trkpt lat="45.58985" lon="4.697">
        <ele>327</ele>
        <time>2015-10-18T10:24:32.367Z</time>
      </trkpt>
      <trkpt lat="45.58986" lon="4.69708">
        <ele>327</ele>
        <time>2015-10-18T10:24:33.390Z</time>
      </trkpt>
      <trkpt lat="45.58985" lon="4.69717">
        <ele>327</ele>
        <time>2015-10-18T10:24:34.374Z</time>
      </trkpt>
      <trkpt lat="45.58984" lon="4.69726">
        <ele>327</ele>
        <time>2015-10-18T10:24:35.388Z</time>
      </trkpt>
      <trkpt lat="45.58984" lon="4.69734">
        <ele>327</ele>
        <time>2015-10-18T10:24:36.372Z</time>
      </trkpt>
      <trkpt lat="45.58984" lon="4.69745">
        <ele>326</ele>
        <time>2015-10-18T10:24:37.404Z</time>
      </trkpt>
      <trkpt lat="45.58984" lon="4.69754">
        <ele>325</ele>
        <time>2015-10-18T10:24:38.370Z</time>
      </trkpt>
      <trkpt lat="45.58984" lon="4.69762">
        <ele>325</ele>
        <time>2015-10-18T10:24:39.405Z</time>
      </trkpt>
      <trkpt lat="45.58983" lon="4.69771">
        <ele>325</ele>
        <time>2015-10-18T10:24:40.353Z</time>
      </trkpt>
      <trkpt lat="45.58982" lon="4.69777">
        <ele>325</ele>
        <time>2015-10-18T10:24:41.383Z</time>
      </trkpt>
      <trkpt lat="45.58981" lon="4.69786">
        <ele>325</ele>
        <time>2015-10-18T10:24:42.353Z</time>
      </trkpt>
      <trkpt lat="45.58982" lon="4.69794">
        <ele>325</ele>
        <time>2015-10-18T10:24:43.378Z</time>
      </trkpt>
      <trkpt lat="45.58982" lon="4.69803">
        <ele>324</ele>
        <time>2015-10-18T10:24:44.357Z</time>
      </trkpt>
      <trkpt lat="45.58983" lon="4.69811">
        <ele>324</ele>
        <time>2015-10-18T10:24:45.380Z</time>
      </trkpt>
      <trkpt lat="45.58985" lon="4.69818">
        <ele>324</ele>
        <time>2015-10-18T10:24:46.353Z</time>
      </trkpt>
      <trkpt lat="45.58987" lon="4.69824">
        <ele>324</ele>
        <time>2015-10-18T10:24:47.392Z</time>
      </trkpt>
      <trkpt lat="45.58991" lon="4.69831">
        <ele>324</ele>
        <time>2015-10-18T10:24:48.357Z</time>
      </trkpt>
      <trkpt lat="45.58998" lon="4.69833">
        <ele>324</ele>
        <time>2015-10-18T10:24:49.386Z</time>
      </trkpt>
      <trkpt lat="45.59003" lon="4.69837">
        <ele>324</ele>
        <time>2015-10-18T10:24:50.355Z</time>
      </trkpt>
      <trkpt lat="45.59008" lon="4.69841">
        <ele>325</ele>
        <time>2015-10-18T10:24:51.374Z</time>
      </trkpt>
      <trkpt lat="45.59012" lon="4.69844">
        <ele>325</ele>
        <time>2015-10-18T10:24:52.347Z</time>
      </trkpt>
      <trkpt lat="45.59016" lon="4.69848">
        <ele>325</ele>
        <time>2015-10-18T10:24:53.398Z</time>
      </trkpt>
      <trkpt lat="45.59019" lon="4.69852">
        <ele>325</ele>
        <time>2015-10-18T10:24:54.353Z</time>
      </trkpt>
      <trkpt lat="45.59026" lon="4.69861">
        <ele>325</ele>
        <time>2015-10-18T10:24:56.373Z</time>
      </trkpt>
      <trkpt lat="45.59029" lon="4.69865">
        <ele>325</ele>
        <time>2015-10-18T10:24:57.352Z</time>
      </trkpt>
      <trkpt lat="45.59034" lon="4.69869">
        <ele>325</ele>
        <time>2015-10-18T10:24:59.377Z</time>
      </trkpt>
      <trkpt lat="45.59038" lon="4.69874">
        <ele>325</ele>
        <time>2015-10-18T10:25:00.362Z</time>
      </trkpt>
      <trkpt lat="45.59044" lon="4.6988">
        <ele>326</ele>
        <time>2015-10-18T10:25:02.381Z</time>
      </trkpt>
      <trkpt lat="45.59046" lon="4.69882">
        <ele>326</ele>
        <time>2015-10-18T10:25:03.350Z</time>
      </trkpt>
      <trkpt lat="45.59052" lon="4.69889">
        <ele>326</ele>
        <time>2015-10-18T10:25:05.365Z</time>
      </trkpt>
      <trkpt lat="45.59055" lon="4.69891">
        <ele>326</ele>
        <time>2015-10-18T10:25:06.344Z</time>
      </trkpt>
      <trkpt lat="45.5906" lon="4.69899">
        <ele>326</ele>
        <time>2015-10-18T10:25:08.369Z</time>
      </trkpt>
      <trkpt lat="45.59061" lon="4.69904">
        <ele>326</ele>
        <time>2015-10-18T10:25:09.341Z</time>
      </trkpt>
      <trkpt lat="45.59064" lon="4.69912">
        <ele>326</ele>
        <time>2015-10-18T10:25:11.366Z</time>
      </trkpt>
      <trkpt lat="45.59067" lon="4.69917">
        <ele>326</ele>
        <time>2015-10-18T10:25:12.326Z</time>
      </trkpt>
      <trkpt lat="45.5907" lon="4.69927">
        <ele>326</ele>
        <time>2015-10-18T10:25:14.366Z</time>
      </trkpt>
      <trkpt lat="45.59072" lon="4.69934">
        <ele>325</ele>
        <time>2015-10-18T10:25:15.358Z</time>
      </trkpt>
      <trkpt lat="45.59076" lon="4.69942">
        <ele>325</ele>
        <time>2015-10-18T10:25:17.361Z</time>
      </trkpt>
      <trkpt lat="45.59077" lon="4.69947">
        <ele>325</ele>
        <time>2015-10-18T10:25:18.322Z</time>
      </trkpt>
      <trkpt lat="45.5908" lon="4.69951">
        <ele>325</ele>
        <time>2015-10-18T10:25:19.350Z</time>
      </trkpt>
      <trkpt lat="45.59083" lon="4.69957">
        <ele>325</ele>
        <time>2015-10-18T10:25:20.321Z</time>
      </trkpt>
      <trkpt lat="45.59088" lon="4.69966">
        <ele>327</ele>
        <time>2015-10-18T10:25:23.396Z</time>
      </trkpt>
      <trkpt lat="45.59091" lon="4.6997">
        <ele>327</ele>
        <time>2015-10-18T10:25:24.364Z</time>
      </trkpt>
      <trkpt lat="45.59096" lon="4.69972">
        <ele>327</ele>
        <time>2015-10-18T10:25:25.385Z</time>
      </trkpt>
      <trkpt lat="45.591" lon="4.69977">
        <ele>327</ele>
        <time>2015-10-18T10:25:26.361Z</time>
      </trkpt>
      <trkpt lat="45.59106" lon="4.69981">
        <ele>327</ele>
        <time>2015-10-18T10:25:28.403Z</time>
      </trkpt>
      <trkpt lat="45.59109" lon="4.69983">
        <ele>327</ele>
        <time>2015-10-18T10:25:29.370Z</time>
      </trkpt>
      <trkpt lat="45.59116" lon="4.6999">
        <ele>327</ele>
        <time>2015-10-18T10:25:31.389Z</time>
      </trkpt>
      <trkpt lat="45.59119" lon="4.69994">
        <ele>327</ele>
        <time>2015-10-18T10:25:32.381Z</time>
      </trkpt>
      <trkpt lat="45.59126" lon="4.69998">
        <ele>327</ele>
        <time>2015-10-18T10:25:34.386Z</time>
      </trkpt>
      <trkpt lat="45.5913" lon="4.70002">
        <ele>326</ele>
        <time>2015-10-18T10:25:35.358Z</time>
      </trkpt>
      <trkpt lat="45.59136" lon="4.70007">
        <ele>326</ele>
        <time>2015-10-18T10:25:37.387Z</time>
      </trkpt>
      <trkpt lat="45.59139" lon="4.70011">
        <ele>326</ele>
        <time>2015-10-18T10:25:38.374Z</time>
      </trkpt>
      <trkpt lat="45.59144" lon="4.70013">
        <ele>327</ele>
        <time>2015-10-18T10:25:39.396Z</time>
      </trkpt>
      <trkpt lat="45.59148" lon="4.70015">
        <ele>327</ele>
        <time>2015-10-18T10:25:40.361Z</time>
      </trkpt>
      <trkpt lat="45.59155" lon="4.7002">
        <ele>327</ele>
        <time>2015-10-18T10:25:42.390Z</time>
      </trkpt>
      <trkpt lat="45.59158" lon="4.70022">
        <ele>327</ele>
        <time>2015-10-18T10:25:43.356Z</time>
      </trkpt>
      <trkpt lat="45.59165" lon="4.70028">
        <ele>327</ele>
        <time>2015-10-18T10:25:45.390Z</time>
      </trkpt>
      <trkpt lat="45.5917" lon="4.7003">
        <ele>327</ele>
        <time>2015-10-18T10:25:46.354Z</time>
      </trkpt>
      <trkpt lat="45.59176" lon="4.70035">
        <ele>327</ele>
        <time>2015-10-18T10:25:48.408Z</time>
      </trkpt>
      <trkpt lat="45.59179" lon="4.70037">
        <ele>327</ele>
        <time>2015-10-18T10:25:49.356Z</time>
      </trkpt>
      <trkpt lat="45.59187" lon="4.70041">
        <ele>327</ele>
        <time>2015-10-18T10:25:51.391Z</time>
      </trkpt>
      <trkpt lat="45.5919" lon="4.70043">
        <ele>327</ele>
        <time>2015-10-18T10:25:52.360Z</time>
      </trkpt>
      <trkpt lat="45.59196" lon="4.70047">
        <ele>327</ele>
        <time>2015-10-18T10:25:54.397Z</time>
      </trkpt>
      <trkpt lat="45.592" lon="4.7005">
        <ele>327</ele>
        <time>2015-10-18T10:25:55.353Z</time>
      </trkpt>
      <trkpt lat="45.59204" lon="4.70052">
        <ele>327</ele>
        <time>2015-10-18T10:25:56.403Z</time>
      </trkpt>
      <trkpt lat="45.59208" lon="4.70054">
        <ele>327</ele>
        <time>2015-10-18T10:25:57.352Z</time>
      </trkpt>
      <trkpt lat="45.59215" lon="4.7006">
        <ele>327</ele>
        <time>2015-10-18T10:25:59.376Z</time>
      </trkpt>
      <trkpt lat="45.59218" lon="4.70062">
        <ele>327</ele>
        <time>2015-10-18T10:26:00.374Z</time>
      </trkpt>
      <trkpt lat="45.59225" lon="4.70069">
        <ele>327</ele>
        <time>2015-10-18T10:26:02.380Z</time>
      </trkpt>
      <trkpt lat="45.59229" lon="4.70071">
        <ele>327</ele>
        <time>2015-10-18T10:26:03.326Z</time>
      </trkpt>
      <trkpt lat="45.59234" lon="4.70073">
        <ele>328</ele>
        <time>2015-10-18T10:26:05.369Z</time>
      </trkpt>
      <trkpt lat="45.59238" lon="4.70075">
        <ele>328</ele>
        <time>2015-10-18T10:26:06.324Z</time>
      </trkpt>
      <trkpt lat="45.59246" lon="4.70082">
        <ele>328</ele>
        <time>2015-10-18T10:26:08.371Z</time>
      </trkpt>
      <trkpt lat="45.59249" lon="4.70084">
        <ele>328</ele>
        <time>2015-10-18T10:26:09.341Z</time>
      </trkpt>
      <trkpt lat="45.59255" lon="4.7009">
        <ele>328</ele>
        <time>2015-10-18T10:26:11.388Z</time>
      </trkpt>
      <trkpt lat="45.5926" lon="4.70095">
        <ele>328</ele>
        <time>2015-10-18T10:26:12.365Z</time>
      </trkpt>
      <trkpt lat="45.59267" lon="4.70099">
        <ele>328</ele>
        <time>2015-10-18T10:26:14.388Z</time>
      </trkpt>
      <trkpt lat="45.59271" lon="4.70101">
        <ele>327</ele>
        <time>2015-10-18T10:26:15.351Z</time>
      </trkpt>
      <trkpt lat="45.59279" lon="4.70108">
        <ele>327</ele>
        <time>2015-10-18T10:26:17.382Z</time>
      </trkpt>
      <trkpt lat="45.59282" lon="4.7011">
        <ele>327</ele>
        <time>2015-10-18T10:26:18.355Z</time>
      </trkpt>
      <trkpt lat="45.59289" lon="4.70114">
        <ele>327</ele>
        <time>2015-10-18T10:26:20.383Z</time>
      </trkpt>
      <trkpt lat="45.59292" lon="4.70116">
        <ele>327</ele>
        <time>2015-10-18T10:26:21.353Z</time>
      </trkpt>
      <trkpt lat="45.59298" lon="4.70123">
        <ele>327</ele>
        <time>2015-10-18T10:26:23.391Z</time>
      </trkpt>
      <trkpt lat="45.59303" lon="4.70125">
        <ele>327</ele>
        <time>2015-10-18T10:26:24.357Z</time>
      </trkpt>
      <trkpt lat="45.59306" lon="4.70127">
        <ele>327</ele>
        <time>2015-10-18T10:26:25.399Z</time>
      </trkpt>
      <trkpt lat="45.59311" lon="4.70131">
        <ele>327</ele>
        <time>2015-10-18T10:26:26.351Z</time>
      </trkpt>
      <trkpt lat="45.59318" lon="4.70138">
        <ele>327</ele>
        <time>2015-10-18T10:26:28.399Z</time>
      </trkpt>
      <trkpt lat="45.59321" lon="4.7014">
        <ele>327</ele>
        <time>2015-10-18T10:26:29.339Z</time>
      </trkpt>
      <trkpt lat="45.59327" lon="4.70146">
        <ele>327</ele>
        <time>2015-10-18T10:26:31.377Z</time>
      </trkpt>
      <trkpt lat="45.5933" lon="4.70148">
        <ele>327</ele>
        <time>2015-10-18T10:26:32.402Z</time>
      </trkpt>
      <trkpt lat="45.59335" lon="4.70153">
        <ele>327</ele>
        <time>2015-10-18T10:26:33.382Z</time>
      </trkpt>
      <trkpt lat="45.59338" lon="4.70157">
        <ele>327</ele>
        <time>2015-10-18T10:26:34.344Z</time>
      </trkpt>
      <trkpt lat="45.59343" lon="4.70161">
        <ele>327</ele>
        <time>2015-10-18T10:26:36.386Z</time>
      </trkpt>
      <trkpt lat="45.59347" lon="4.70163">
        <ele>327</ele>
        <time>2015-10-18T10:26:37.358Z</time>
      </trkpt>
      <trkpt lat="45.59353" lon="4.7017">
        <ele>327</ele>
        <time>2015-10-18T10:26:39.393Z</time>
      </trkpt>
      <trkpt lat="45.59356" lon="4.70174">
        <ele>327</ele>
        <time>2015-10-18T10:26:40.352Z</time>
      </trkpt>
      <trkpt lat="45.59363" lon="4.70181">
        <ele>327</ele>
        <time>2015-10-18T10:26:42.385Z</time>
      </trkpt>
      <trkpt lat="45.59366" lon="4.70185">
        <ele>327</ele>
        <time>2015-10-18T10:26:43.355Z</time>
      </trkpt>
      <trkpt lat="45.59371" lon="4.70189">
        <ele>327</ele>
        <time>2015-10-18T10:26:45.396Z</time>
      </trkpt>
      <trkpt lat="45.59374" lon="4.70191">
        <ele>327</ele>
        <time>2015-10-18T10:26:46.370Z</time>
      </trkpt>
      <trkpt lat="45.5938" lon="4.702">
        <ele>327</ele>
        <time>2015-10-18T10:26:48.399Z</time>
      </trkpt>
      <trkpt lat="45.59383" lon="4.70202">
        <ele>327</ele>
        <time>2015-10-18T10:26:49.353Z</time>
      </trkpt>
      <trkpt lat="45.59391" lon="4.70208">
        <ele>327</ele>
        <time>2015-10-18T10:26:51.385Z</time>
      </trkpt>
      <trkpt lat="45.59394" lon="4.70213">
        <ele>327</ele>
        <time>2015-10-18T10:26:52.361Z</time>
      </trkpt>
      <trkpt lat="45.594" lon="4.70221">
        <ele>326</ele>
        <time>2015-10-18T10:26:54.396Z</time>
      </trkpt>
      <trkpt lat="45.59404" lon="4.70226">
        <ele>326</ele>
        <time>2015-10-18T10:26:55.356Z</time>
      </trkpt>
      <trkpt lat="45.5941" lon="4.7023">
        <ele>326</ele>
        <time>2015-10-18T10:26:56.383Z</time>
      </trkpt>
      <trkpt lat="45.59414" lon="4.70232">
        <ele>326</ele>
        <time>2015-10-18T10:26:57.359Z</time>
      </trkpt>
      <trkpt lat="45.59417" lon="4.70236">
        <ele>326</ele>
        <time>2015-10-18T10:26:58.401Z</time>
      </trkpt>
      <trkpt lat="45.59423" lon="4.70238">
        <ele>326</ele>
        <time>2015-10-18T10:26:59.357Z</time>
      </trkpt>
      <trkpt lat="45.59429" lon="4.70247">
        <ele>326</ele>
        <time>2015-10-18T10:27:01.391Z</time>
      </trkpt>
      <trkpt lat="45.59432" lon="4.70251">
        <ele>326</ele>
        <time>2015-10-18T10:27:02.370Z</time>
      </trkpt>
      <trkpt lat="45.59437" lon="4.70256">
        <ele>326</ele>
        <time>2015-10-18T10:27:03.373Z</time>
      </trkpt>
      <trkpt lat="45.59441" lon="4.70262">
        <ele>326</ele>
        <time>2015-10-18T10:27:04.353Z</time>
      </trkpt>
      <trkpt lat="45.59445" lon="4.70264">
        <ele>326</ele>
        <time>2015-10-18T10:27:05.381Z</time>
      </trkpt>
      <trkpt lat="45.5945" lon="4.70268">
        <ele>326</ele>
        <time>2015-10-18T10:27:06.356Z</time>
      </trkpt>
      <trkpt lat="45.59454" lon="4.70275">
        <ele>326</ele>
        <time>2015-10-18T10:27:07.370Z</time>
      </trkpt>
      <trkpt lat="45.59457" lon="4.70277">
        <ele>326</ele>
        <time>2015-10-18T10:27:08.360Z</time>
      </trkpt>
      <trkpt lat="45.59461" lon="4.70284">
        <ele>326</ele>
        <time>2015-10-18T10:27:09.372Z</time>
      </trkpt>
      <trkpt lat="45.59466" lon="4.70286">
        <ele>326</ele>
        <time>2015-10-18T10:27:10.343Z</time>
      </trkpt>
      <trkpt lat="45.5947" lon="4.7029">
        <ele>326</ele>
        <time>2015-10-18T10:27:11.503Z</time>
      </trkpt>
      <trkpt lat="45.59473" lon="4.70294">
        <ele>326</ele>
        <time>2015-10-18T10:27:12.340Z</time>
      </trkpt>
      <trkpt lat="45.59476" lon="4.70296">
        <ele>326</ele>
        <time>2015-10-18T10:27:13.375Z</time>
      </trkpt>
      <trkpt lat="45.59481" lon="4.70303">
        <ele>326</ele>
        <time>2015-10-18T10:27:14.351Z</time>
      </trkpt>
      <trkpt lat="45.59484" lon="4.70305">
        <ele>326</ele>
        <time>2015-10-18T10:27:15.378Z</time>
      </trkpt>
      <trkpt lat="45.59489" lon="4.70309">
        <ele>327</ele>
        <time>2015-10-18T10:27:16.352Z</time>
      </trkpt>
      <trkpt lat="45.59494" lon="4.70314">
        <ele>327</ele>
        <time>2015-10-18T10:27:17.378Z</time>
      </trkpt>
      <trkpt lat="45.59497" lon="4.70318">
        <ele>327</ele>
        <time>2015-10-18T10:27:18.357Z</time>
      </trkpt>
      <trkpt lat="45.59501" lon="4.70322">
        <ele>327</ele>
        <time>2015-10-18T10:27:19.396Z</time>
      </trkpt>
      <trkpt lat="45.59504" lon="4.70326">
        <ele>327</ele>
        <time>2015-10-18T10:27:20.354Z</time>
      </trkpt>
      <trkpt lat="45.59507" lon="4.70331">
        <ele>327</ele>
        <time>2015-10-18T10:27:21.397Z</time>
      </trkpt>
      <trkpt lat="45.59512" lon="4.70335">
        <ele>327</ele>
        <time>2015-10-18T10:27:22.357Z</time>
      </trkpt>
      <trkpt lat="45.59518" lon="4.70344">
        <ele>327</ele>
        <time>2015-10-18T10:27:24.373Z</time>
      </trkpt>
      <trkpt lat="45.59519" lon="4.70348">
        <ele>327</ele>
        <time>2015-10-18T10:27:25.344Z</time>
      </trkpt>
      <trkpt lat="45.59521" lon="4.70356">
        <ele>327</ele>
        <time>2015-10-18T10:27:27.373Z</time>
      </trkpt>
      <trkpt lat="45.59523" lon="4.70363">
        <ele>327</ele>
        <time>2015-10-18T10:27:28.341Z</time>
      </trkpt>
      <trkpt lat="45.59525" lon="4.70374">
        <ele>327</ele>
        <time>2015-10-18T10:27:30.366Z</time>
      </trkpt>
      <trkpt lat="45.59527" lon="4.70378">
        <ele>326</ele>
        <time>2015-10-18T10:27:31.342Z</time>
      </trkpt>
      <trkpt lat="45.59529" lon="4.70384">
        <ele>326</ele>
        <time>2015-10-18T10:27:32.396Z</time>
      </trkpt>
      <trkpt lat="45.5953" lon="4.70391">
        <ele>326</ele>
        <time>2015-10-18T10:27:33.349Z</time>
      </trkpt>
      <trkpt lat="45.59535" lon="4.70399">
        <ele>326</ele>
        <time>2015-10-18T10:27:35.367Z</time>
      </trkpt>
      <trkpt lat="45.59539" lon="4.70404">
        <ele>326</ele>
        <time>2015-10-18T10:27:36.352Z</time>
      </trkpt>
      <trkpt lat="45.59543" lon="4.70408">
        <ele>326</ele>
        <time>2015-10-18T10:27:37.365Z</time>
      </trkpt>
      <trkpt lat="45.59547" lon="4.70414">
        <ele>326</ele>
        <time>2015-10-18T10:27:38.351Z</time>
      </trkpt>
      <trkpt lat="45.59554" lon="4.70421">
        <ele>325</ele>
        <time>2015-10-18T10:27:40.379Z</time>
      </trkpt>
      <trkpt lat="45.59558" lon="4.70425">
        <ele>325</ele>
        <time>2015-10-18T10:27:41.352Z</time>
      </trkpt>
      <trkpt lat="45.59563" lon="4.70432">
        <ele>325</ele>
        <time>2015-10-18T10:27:42.372Z</time>
      </trkpt>
      <trkpt lat="45.59566" lon="4.70436">
        <ele>325</ele>
        <time>2015-10-18T10:27:43.340Z</time>
      </trkpt>
      <trkpt lat="45.5957" lon="4.7044">
        <ele>325</ele>
        <time>2015-10-18T10:27:44.386Z</time>
      </trkpt>
      <trkpt lat="45.59573" lon="4.70447">
        <ele>325</ele>
        <time>2015-10-18T10:27:45.356Z</time>
      </trkpt>
      <trkpt lat="45.59576" lon="4.70451">
        <ele>325</ele>
        <time>2015-10-18T10:27:46.382Z</time>
      </trkpt>
      <trkpt lat="45.5958" lon="4.70457">
        <ele>325</ele>
        <time>2015-10-18T10:27:47.352Z</time>
      </trkpt>
      <trkpt lat="45.59585" lon="4.70466">
        <ele>325</ele>
        <time>2015-10-18T10:27:49.383Z</time>
      </trkpt>
      <trkpt lat="45.59586" lon="4.7047">
        <ele>325</ele>
        <time>2015-10-18T10:27:50.356Z</time>
      </trkpt>
      <trkpt lat="45.5959" lon="4.70481">
        <ele>325</ele>
        <time>2015-10-18T10:27:53.451Z</time>
      </trkpt>
      <trkpt lat="45.59593" lon="4.70485">
        <ele>325</ele>
        <time>2015-10-18T10:27:54.369Z</time>
      </trkpt>
      <trkpt lat="45.596" lon="4.70492">
        <ele>325</ele>
        <time>2015-10-18T10:27:56.380Z</time>
      </trkpt>
      <trkpt lat="45.59603" lon="4.70494">
        <ele>325</ele>
        <time>2015-10-18T10:27:57.340Z</time>
      </trkpt>
      <trkpt lat="45.5961" lon="4.705">
        <ele>323</ele>
        <time>2015-10-18T10:27:59.401Z</time>
      </trkpt>
      <trkpt lat="45.59614" lon="4.70502">
        <ele>323</ele>
        <time>2015-10-18T10:28:00.381Z</time>
      </trkpt>
      <trkpt lat="45.5962" lon="4.70511">
        <ele>323</ele>
        <time>2015-10-18T10:28:02.401Z</time>
      </trkpt>
      <trkpt lat="45.59624" lon="4.70513">
        <ele>323</ele>
        <time>2015-10-18T10:28:03.356Z</time>
      </trkpt>
      <trkpt lat="45.59631" lon="4.7052">
        <ele>323</ele>
        <time>2015-10-18T10:28:05.389Z</time>
      </trkpt>
      <trkpt lat="45.59634" lon="4.70524">
        <ele>323</ele>
        <time>2015-10-18T10:28:06.359Z</time>
      </trkpt>
      <trkpt lat="45.59641" lon="4.7053">
        <ele>323</ele>
        <time>2015-10-18T10:28:08.387Z</time>
      </trkpt>
      <trkpt lat="45.59643" lon="4.70535">
        <ele>323</ele>
        <time>2015-10-18T10:28:09.377Z</time>
      </trkpt>
      <trkpt lat="45.59649" lon="4.70543">
        <ele>323</ele>
        <time>2015-10-18T10:28:11.411Z</time>
      </trkpt>
      <trkpt lat="45.59651" lon="4.70547">
        <ele>323</ele>
        <time>2015-10-18T10:28:12.359Z</time>
      </trkpt>
      <trkpt lat="45.59657" lon="4.70554">
        <ele>323</ele>
        <time>2015-10-18T10:28:14.388Z</time>
      </trkpt>
      <trkpt lat="45.59661" lon="4.70558">
        <ele>323</ele>
        <time>2015-10-18T10:28:15.347Z</time>
      </trkpt>
      <trkpt lat="45.59665" lon="4.70565">
        <ele>323</ele>
        <time>2015-10-18T10:28:16.384Z</time>
      </trkpt>
      <trkpt lat="45.59667" lon="4.70571">
        <ele>322</ele>
        <time>2015-10-18T10:28:17.340Z</time>
      </trkpt>
      <trkpt lat="45.59674" lon="4.7058">
        <ele>322</ele>
        <time>2015-10-18T10:28:19.385Z</time>
      </trkpt>
      <trkpt lat="45.59678" lon="4.70584">
        <ele>321</ele>
        <time>2015-10-18T10:28:20.355Z</time>
      </trkpt>
      <trkpt lat="45.59681" lon="4.7059">
        <ele>321</ele>
        <time>2015-10-18T10:28:21.389Z</time>
      </trkpt>
      <trkpt lat="45.59686" lon="4.70595">
        <ele>321</ele>
        <time>2015-10-18T10:28:22.379Z</time>
      </trkpt>
      <trkpt lat="45.5969" lon="4.70599">
        <ele>320</ele>
        <time>2015-10-18T10:28:23.374Z</time>
      </trkpt>
      <trkpt lat="45.59695" lon="4.70603">
        <ele>320</ele>
        <time>2015-10-18T10:28:24.343Z</time>
      </trkpt>
      <trkpt lat="45.597" lon="4.70608">
        <ele>320</ele>
        <time>2015-10-18T10:28:25.383Z</time>
      </trkpt>
      <trkpt lat="45.59704" lon="4.7061">
        <ele>320</ele>
        <time>2015-10-18T10:28:26.354Z</time>
      </trkpt>
      <trkpt lat="45.59709" lon="4.70614">
        <ele>320</ele>
        <time>2015-10-18T10:28:27.395Z</time>
      </trkpt>
      <trkpt lat="45.59715" lon="4.7062">
        <ele>320</ele>
        <time>2015-10-18T10:28:28.350Z</time>
      </trkpt>
      <trkpt lat="45.59719" lon="4.70625">
        <ele>319</ele>
        <time>2015-10-18T10:28:29.381Z</time>
      </trkpt>
      <trkpt lat="45.59724" lon="4.70631">
        <ele>319</ele>
        <time>2015-10-18T10:28:30.358Z</time>
      </trkpt>
      <trkpt lat="45.59729" lon="4.70638">
        <ele>319</ele>
        <time>2015-10-18T10:28:31.384Z</time>
      </trkpt>
      <trkpt lat="45.59733" lon="4.70642">
        <ele>319</ele>
        <time>2015-10-18T10:28:32.350Z</time>
      </trkpt>
      <trkpt lat="45.59736" lon="4.7065">
        <ele>318</ele>
        <time>2015-10-18T10:28:33.385Z</time>
      </trkpt>
      <trkpt lat="45.5974" lon="4.70657">
        <ele>318</ele>
        <time>2015-10-18T10:28:34.341Z</time>
      </trkpt>
      <trkpt lat="45.59744" lon="4.70665">
        <ele>318</ele>
        <time>2015-10-18T10:28:35.383Z</time>
      </trkpt>
      <trkpt lat="45.59748" lon="4.70674">
        <ele>317</ele>
        <time>2015-10-18T10:28:36.355Z</time>
      </trkpt>
      <trkpt lat="45.59752" lon="4.70683">
        <ele>316</ele>
        <time>2015-10-18T10:28:37.381Z</time>
      </trkpt>
      <trkpt lat="45.59756" lon="4.70689">
        <ele>316</ele>
        <time>2015-10-18T10:28:38.350Z</time>
      </trkpt>
      <trkpt lat="45.59761" lon="4.70698">
        <ele>316</ele>
        <time>2015-10-18T10:28:39.366Z</time>
      </trkpt>
      <trkpt lat="45.59765" lon="4.70704">
        <ele>316</ele>
        <time>2015-10-18T10:28:40.338Z</time>
      </trkpt>
      <trkpt lat="45.5977" lon="4.70713">
        <ele>315</ele>
        <time>2015-10-18T10:28:41.377Z</time>
      </trkpt>
      <trkpt lat="45.59775" lon="4.70719">
        <ele>315</ele>
        <time>2015-10-18T10:28:42.338Z</time>
      </trkpt>
      <trkpt lat="45.59778" lon="4.70726">
        <ele>315</ele>
        <time>2015-10-18T10:28:43.371Z</time>
      </trkpt>
      <trkpt lat="45.59782" lon="4.70732">
        <ele>315</ele>
        <time>2015-10-18T10:28:44.343Z</time>
      </trkpt>
      <trkpt lat="45.59786" lon="4.70741">
        <ele>315</ele>
        <time>2015-10-18T10:28:46.387Z</time>
      </trkpt>
      <trkpt lat="45.59788" lon="4.70743">
        <ele>315</ele>
        <time>2015-10-18T10:28:47.359Z</time>
      </trkpt>
      <trkpt lat="45.59791" lon="4.70753">
        <ele>315</ele>
        <time>2015-10-18T10:28:50.369Z</time>
      </trkpt>
      <trkpt lat="45.59792" lon="4.70756">
        <ele>314</ele>
        <time>2015-10-18T10:28:51.341Z</time>
      </trkpt>
      <trkpt lat="45.59796" lon="4.70762">
        <ele>314</ele>
        <time>2015-10-18T10:28:56.389Z</time>
      </trkpt>
      <trkpt lat="45.59799" lon="4.70766">
        <ele>314</ele>
        <time>2015-10-18T10:28:57.353Z</time>
      </trkpt>
      <trkpt lat="45.59806" lon="4.70771">
        <ele>314</ele>
        <time>2015-10-18T10:28:59.403Z</time>
      </trkpt>
      <trkpt lat="45.59809" lon="4.70775">
        <ele>314</ele>
        <time>2015-10-18T10:29:00.349Z</time>
      </trkpt>
      <trkpt lat="45.59811" lon="4.70781">
        <ele>314</ele>
        <time>2015-10-18T10:29:01.387Z</time>
      </trkpt>
      <trkpt lat="45.59814" lon="4.70788">
        <ele>314</ele>
        <time>2015-10-18T10:29:02.375Z</time>
      </trkpt>
      <trkpt lat="45.59818" lon="4.70792">
        <ele>314</ele>
        <time>2015-10-18T10:29:03.390Z</time>
      </trkpt>
      <trkpt lat="45.59822" lon="4.70798">
        <ele>314</ele>
        <time>2015-10-18T10:29:04.365Z</time>
      </trkpt>
      <trkpt lat="45.59826" lon="4.70809">
        <ele>314</ele>
        <time>2015-10-18T10:29:07.401Z</time>
      </trkpt>
      <trkpt lat="45.59828" lon="4.70814">
        <ele>314</ele>
        <time>2015-10-18T10:29:08.371Z</time>
      </trkpt>
      <trkpt lat="45.59832" lon="4.70822">
        <ele>314</ele>
        <time>2015-10-18T10:29:10.398Z</time>
      </trkpt>
      <trkpt lat="45.59834" lon="4.70826">
        <ele>313</ele>
        <time>2015-10-18T10:29:11.363Z</time>
      </trkpt>
      <trkpt lat="45.5984" lon="4.70835">
        <ele>313</ele>
        <time>2015-10-18T10:29:14.407Z</time>
      </trkpt>
      <trkpt lat="45.59842" lon="4.70837">
        <ele>313</ele>
        <time>2015-10-18T10:29:15.355Z</time>
      </trkpt>
      <trkpt lat="45.59847" lon="4.70846">
        <ele>312</ele>
        <time>2015-10-18T10:29:17.416Z</time>
      </trkpt>
      <trkpt lat="45.59851" lon="4.70848">
        <ele>312</ele>
        <time>2015-10-18T10:29:18.384Z</time>
      </trkpt>
      <trkpt lat="45.59856" lon="4.70856">
        <ele>311</ele>
        <time>2015-10-18T10:29:20.418Z</time>
      </trkpt>
      <trkpt lat="45.59862" lon="4.70861">
        <ele>311</ele>
        <time>2015-10-18T10:29:21.378Z</time>
      </trkpt>
      <trkpt lat="45.59867" lon="4.70863">
        <ele>311</ele>
        <time>2015-10-18T10:29:22.381Z</time>
      </trkpt>
      <trkpt lat="45.59873" lon="4.70863">
        <ele>311</ele>
        <time>2015-10-18T10:29:23.350Z</time>
      </trkpt>
      <trkpt lat="45.5988" lon="4.70863">
        <ele>310</ele>
        <time>2015-10-18T10:29:24.384Z</time>
      </trkpt>
      <trkpt lat="45.59886" lon="4.70863">
        <ele>310</ele>
        <time>2015-10-18T10:29:25.367Z</time>
      </trkpt>
      <trkpt lat="45.59892" lon="4.70863">
        <ele>310</ele>
        <time>2015-10-18T10:29:26.378Z</time>
      </trkpt>
      <trkpt lat="45.59896" lon="4.70863">
        <ele>310</ele>
        <time>2015-10-18T10:29:27.352Z</time>
      </trkpt>
      <trkpt lat="45.599" lon="4.70861">
        <ele>309</ele>
        <time>2015-10-18T10:29:28.394Z</time>
      </trkpt>
      <trkpt lat="45.59906" lon="4.70863">
        <ele>309</ele>
        <time>2015-10-18T10:29:29.365Z</time>
      </trkpt>
      <trkpt lat="45.5991" lon="4.70863">
        <ele>309</ele>
        <time>2015-10-18T10:29:30.393Z</time>
      </trkpt>
      <trkpt lat="45.59916" lon="4.70863">
        <ele>309</ele>
        <time>2015-10-18T10:29:31.356Z</time>
      </trkpt>
      <trkpt lat="45.59922" lon="4.70861">
        <ele>305</ele>
        <time>2015-10-18T10:29:32.379Z</time>
      </trkpt>
      <trkpt lat="45.59928" lon="4.70861">
        <ele>304</ele>
        <time>2015-10-18T10:29:33.355Z</time>
      </trkpt>
      <trkpt lat="45.59933" lon="4.70859">
        <ele>304</ele>
        <time>2015-10-18T10:29:34.393Z</time>
      </trkpt>
      <trkpt lat="45.59939" lon="4.70859">
        <ele>304</ele>
        <time>2015-10-18T10:29:35.351Z</time>
      </trkpt>
      <trkpt lat="45.59946" lon="4.70859">
        <ele>304</ele>
        <time>2015-10-18T10:29:36.393Z</time>
      </trkpt>
      <trkpt lat="45.59953" lon="4.70859">
        <ele>303</ele>
        <time>2015-10-18T10:29:37.353Z</time>
      </trkpt>
      <trkpt lat="45.5996" lon="4.70859">
        <ele>303</ele>
        <time>2015-10-18T10:29:38.379Z</time>
      </trkpt>
      <trkpt lat="45.59967" lon="4.70859">
        <ele>303</ele>
        <time>2015-10-18T10:29:39.356Z</time>
      </trkpt>
      <trkpt lat="45.59973" lon="4.70861">
        <ele>302</ele>
        <time>2015-10-18T10:29:41.399Z</time>
      </trkpt>
      <trkpt lat="45.59975" lon="4.70863">
        <ele>302</ele>
        <time>2015-10-18T10:29:42.363Z</time>
      </trkpt>
      <trkpt lat="45.59983" lon="4.70865">
        <ele>302</ele>
        <time>2015-10-18T10:29:44.399Z</time>
      </trkpt>
      <trkpt lat="45.59986" lon="4.70867">
        <ele>302</ele>
        <time>2015-10-18T10:29:45.366Z</time>
      </trkpt>
      <trkpt lat="45.5999" lon="4.70867">
        <ele>302</ele>
        <time>2015-10-18T10:29:46.385Z</time>
      </trkpt>
      <trkpt lat="45.59996" lon="4.70869">
        <ele>302</ele>
        <time>2015-10-18T10:29:47.359Z</time>
      </trkpt>
      <trkpt lat="45.60002" lon="4.70871">
        <ele>298</ele>
        <time>2015-10-18T10:29:48.396Z</time>
      </trkpt>
      <trkpt lat="45.60007" lon="4.70871">
        <ele>298</ele>
        <time>2015-10-18T10:29:49.362Z</time>
      </trkpt>
      <trkpt lat="45.60013" lon="4.70874">
        <ele>297</ele>
        <time>2015-10-18T10:29:50.395Z</time>
      </trkpt>
      <trkpt lat="45.60018" lon="4.70876">
        <ele>297</ele>
        <time>2015-10-18T10:29:51.369Z</time>
      </trkpt>
      <trkpt lat="45.60025" lon="4.70876">
        <ele>297</ele>
        <time>2015-10-18T10:29:52.392Z</time>
      </trkpt>
      <trkpt lat="45.6003" lon="4.70878">
        <ele>297</ele>
        <time>2015-10-18T10:29:53.362Z</time>
      </trkpt>
      <trkpt lat="45.60034" lon="4.70884">
        <ele>297</ele>
        <time>2015-10-18T10:29:54.408Z</time>
      </trkpt>
      <trkpt lat="45.60041" lon="4.70889">
        <ele>297</ele>
        <time>2015-10-18T10:29:55.377Z</time>
      </trkpt>
      <trkpt lat="45.60046" lon="4.70895">
        <ele>296</ele>
        <time>2015-10-18T10:29:56.399Z</time>
      </trkpt>
      <trkpt lat="45.6005" lon="4.70899">
        <ele>296</ele>
        <time>2015-10-18T10:29:57.367Z</time>
      </trkpt>
      <trkpt lat="45.60057" lon="4.70904">
        <ele>296</ele>
        <time>2015-10-18T10:29:58.387Z</time>
      </trkpt>
      <trkpt lat="45.60061" lon="4.7091">
        <ele>296</ele>
        <time>2015-10-18T10:29:59.369Z</time>
      </trkpt>
      <trkpt lat="45.60066" lon="4.70914">
        <ele>295</ele>
        <time>2015-10-18T10:30:00.398Z</time>
      </trkpt>
      <trkpt lat="45.60072" lon="4.70921">
        <ele>294</ele>
        <time>2015-10-18T10:30:01.366Z</time>
      </trkpt>
      <trkpt lat="45.60077" lon="4.70927">
        <ele>294</ele>
        <time>2015-10-18T10:30:03.393Z</time>
      </trkpt>
      <trkpt lat="45.6008" lon="4.70934">
        <ele>294</ele>
        <time>2015-10-18T10:30:04.366Z</time>
      </trkpt>
      <trkpt lat="45.60088" lon="4.7094">
        <ele>293</ele>
        <time>2015-10-18T10:30:06.409Z</time>
      </trkpt>
      <trkpt lat="45.60091" lon="4.70944">
        <ele>293</ele>
        <time>2015-10-18T10:30:07.361Z</time>
      </trkpt>
      <trkpt lat="45.60097" lon="4.70951">
        <ele>292</ele>
        <time>2015-10-18T10:30:09.418Z</time>
      </trkpt>
      <trkpt lat="45.60101" lon="4.70955">
        <ele>292</ele>
        <time>2015-10-18T10:30:10.364Z</time>
      </trkpt>
      <trkpt lat="45.60104" lon="4.70962">
        <ele>292</ele>
        <time>2015-10-18T10:30:11.412Z</time>
      </trkpt>
      <trkpt lat="45.60108" lon="4.70966">
        <ele>292</ele>
        <time>2015-10-18T10:30:12.364Z</time>
      </trkpt>
      <trkpt lat="45.60112" lon="4.7097">
        <ele>292</ele>
        <time>2015-10-18T10:30:13.406Z</time>
      </trkpt>
      <trkpt lat="45.60116" lon="4.70974">
        <ele>292</ele>
        <time>2015-10-18T10:30:14.367Z</time>
      </trkpt>
      <trkpt lat="45.60121" lon="4.70979">
        <ele>292</ele>
        <time>2015-10-18T10:30:15.388Z</time>
      </trkpt>
      <trkpt lat="45.60124" lon="4.70983">
        <ele>292</ele>
        <time>2015-10-18T10:30:16.366Z</time>
      </trkpt>
      <trkpt lat="45.60128" lon="4.70987">
        <ele>292</ele>
        <time>2015-10-18T10:30:17.399Z</time>
      </trkpt>
      <trkpt lat="45.6013" lon="4.70994">
        <ele>292</ele>
        <time>2015-10-18T10:30:18.367Z</time>
      </trkpt>
      <trkpt lat="45.60135" lon="4.71">
        <ele>291</ele>
        <time>2015-10-18T10:30:20.411Z</time>
      </trkpt>
      <trkpt lat="45.60138" lon="4.71004">
        <ele>291</ele>
        <time>2015-10-18T10:30:21.364Z</time>
      </trkpt>
      <trkpt lat="45.60145" lon="4.71013">
        <ele>291</ele>
        <time>2015-10-18T10:30:23.398Z</time>
      </trkpt>
      <trkpt lat="45.60147" lon="4.71017">
        <ele>291</ele>
        <time>2015-10-18T10:30:24.353Z</time>
      </trkpt>
      <trkpt lat="45.6015" lon="4.71028">
        <ele>291</ele>
        <time>2015-10-18T10:30:26.394Z</time>
      </trkpt>
      <trkpt lat="45.60152" lon="4.71032">
        <ele>291</ele>
        <time>2015-10-18T10:30:27.388Z</time>
      </trkpt>
      <trkpt lat="45.60156" lon="4.71037">
        <ele>291</ele>
        <time>2015-10-18T10:30:28.414Z</time>
      </trkpt>
      <trkpt lat="45.60158" lon="4.71043">
        <ele>291</ele>
        <time>2015-10-18T10:30:29.380Z</time>
      </trkpt>
      <trkpt lat="45.60161" lon="4.71047">
        <ele>291</ele>
        <time>2015-10-18T10:30:30.415Z</time>
      </trkpt>
      <trkpt lat="45.60165" lon="4.71054">
        <ele>291</ele>
        <time>2015-10-18T10:30:31.364Z</time>
      </trkpt>
      <trkpt lat="45.60172" lon="4.7106">
        <ele>289</ele>
        <time>2015-10-18T10:30:33.398Z</time>
      </trkpt>
      <trkpt lat="45.60175" lon="4.71065">
        <ele>289</ele>
        <time>2015-10-18T10:30:34.368Z</time>
      </trkpt>
      <trkpt lat="45.60178" lon="4.71071">
        <ele>289</ele>
        <time>2015-10-18T10:30:35.404Z</time>
      </trkpt>
      <trkpt lat="45.60181" lon="4.71075">
        <ele>289</ele>
        <time>2015-10-18T10:30:36.366Z</time>
      </trkpt>
      <trkpt lat="45.60184" lon="4.7108">
        <ele>289</ele>
        <time>2015-10-18T10:30:37.404Z</time>
      </trkpt>
      <trkpt lat="45.60188" lon="4.71086">
        <ele>288</ele>
        <time>2015-10-18T10:30:38.370Z</time>
      </trkpt>
      <trkpt lat="45.60191" lon="4.71092">
        <ele>288</ele>
        <time>2015-10-18T10:30:39.388Z</time>
      </trkpt>
      <trkpt lat="45.60194" lon="4.71097">
        <ele>288</ele>
        <time>2015-10-18T10:30:40.355Z</time>
      </trkpt>
      <trkpt lat="45.60196" lon="4.71103">
        <ele>287</ele>
        <time>2015-10-18T10:30:41.386Z</time>
      </trkpt>
      <trkpt lat="45.60198" lon="4.7111">
        <ele>287</ele>
        <time>2015-10-18T10:30:42.367Z</time>
      </trkpt>
      <trkpt lat="45.60201" lon="4.71116">
        <ele>287</ele>
        <time>2015-10-18T10:30:43.524Z</time>
      </trkpt>
      <trkpt lat="45.60204" lon="4.71125">
        <ele>287</ele>
        <time>2015-10-18T10:30:44.364Z</time>
      </trkpt>
      <trkpt lat="45.60205" lon="4.71131">
        <ele>287</ele>
        <time>2015-10-18T10:30:45.401Z</time>
      </trkpt>
      <trkpt lat="45.60208" lon="4.71138">
        <ele>287</ele>
        <time>2015-10-18T10:30:46.364Z</time>
      </trkpt>
      <trkpt lat="45.6021" lon="4.71146">
        <ele>287</ele>
        <time>2015-10-18T10:30:47.390Z</time>
      </trkpt>
      <trkpt lat="45.60213" lon="4.71153">
        <ele>286</ele>
        <time>2015-10-18T10:30:48.396Z</time>
      </trkpt>
      <trkpt lat="45.60216" lon="4.71159">
        <ele>286</ele>
        <time>2015-10-18T10:30:49.393Z</time>
      </trkpt>
      <trkpt lat="45.60218" lon="4.71168">
        <ele>284</ele>
        <time>2015-10-18T10:30:50.368Z</time>
      </trkpt>
      <trkpt lat="45.6022" lon="4.71174">
        <ele>284</ele>
        <time>2015-10-18T10:30:51.402Z</time>
      </trkpt>
      <trkpt lat="45.6022" lon="4.7118">
        <ele>284</ele>
        <time>2015-10-18T10:30:52.368Z</time>
      </trkpt>
      <trkpt lat="45.60222" lon="4.71189">
        <ele>284</ele>
        <time>2015-10-18T10:30:53.392Z</time>
      </trkpt>
      <trkpt lat="45.60223" lon="4.71198">
        <ele>284</ele>
        <time>2015-10-18T10:30:54.367Z</time>
      </trkpt>
      <trkpt lat="45.60225" lon="4.71206">
        <ele>284</ele>
        <time>2015-10-18T10:30:55.511Z</time>
      </trkpt>
      <trkpt lat="45.60226" lon="4.71215">
        <ele>284</ele>
        <time>2015-10-18T10:30:56.371Z</time>
      </trkpt>
      <trkpt lat="45.60231" lon="4.71223">
        <ele>283</ele>
        <time>2015-10-18T10:30:57.407Z</time>
      </trkpt>
      <trkpt lat="45.60233" lon="4.71232">
        <ele>283</ele>
        <time>2015-10-18T10:30:58.371Z</time>
      </trkpt>
      <trkpt lat="45.60235" lon="4.71241">
        <ele>282</ele>
        <time>2015-10-18T10:30:59.390Z</time>
      </trkpt>
      <trkpt lat="45.60237" lon="4.71249">
        <ele>282</ele>
        <time>2015-10-18T10:31:00.368Z</time>
      </trkpt>
      <trkpt lat="45.60239" lon="4.71256">
        <ele>281</ele>
        <time>2015-10-18T10:31:01.385Z</time>
      </trkpt>
      <trkpt lat="45.60241" lon="4.71264">
        <ele>281</ele>
        <time>2015-10-18T10:31:02.370Z</time>
      </trkpt>
      <trkpt lat="45.60245" lon="4.71275">
        <ele>281</ele>
        <time>2015-10-18T10:31:03.382Z</time>
      </trkpt>
      <trkpt lat="45.60247" lon="4.71283">
        <ele>281</ele>
        <time>2015-10-18T10:31:04.360Z</time>
      </trkpt>
      <trkpt lat="45.6025" lon="4.71292">
        <ele>281</ele>
        <time>2015-10-18T10:31:05.383Z</time>
      </trkpt>
      <trkpt lat="45.60253" lon="4.71298">
        <ele>279</ele>
        <time>2015-10-18T10:31:06.351Z</time>
      </trkpt>
      <trkpt lat="45.60256" lon="4.71307">
        <ele>279</ele>
        <time>2015-10-18T10:31:07.377Z</time>
      </trkpt>
      <trkpt lat="45.60261" lon="4.71313">
        <ele>279</ele>
        <time>2015-10-18T10:31:08.358Z</time>
      </trkpt>
      <trkpt lat="45.60264" lon="4.71322">
        <ele>279</ele>
        <time>2015-10-18T10:31:09.386Z</time>
      </trkpt>
      <trkpt lat="45.60267" lon="4.71331">
        <ele>279</ele>
        <time>2015-10-18T10:31:10.384Z</time>
      </trkpt>
      <trkpt lat="45.60269" lon="4.71337">
        <ele>279</ele>
        <time>2015-10-18T10:31:11.381Z</time>
      </trkpt>
      <trkpt lat="45.60271" lon="4.71346">
        <ele>278</ele>
        <time>2015-10-18T10:31:12.389Z</time>
      </trkpt>
      <trkpt lat="45.60272" lon="4.71354">
        <ele>278</ele>
        <time>2015-10-18T10:31:13.388Z</time>
      </trkpt>
      <trkpt lat="45.60274" lon="4.71365">
        <ele>278</ele>
        <time>2015-10-18T10:31:14.363Z</time>
      </trkpt>
      <trkpt lat="45.60276" lon="4.71371">
        <ele>278</ele>
        <time>2015-10-18T10:31:15.410Z</time>
      </trkpt>
      <trkpt lat="45.6028" lon="4.71378">
        <ele>278</ele>
        <time>2015-10-18T10:31:16.352Z</time>
      </trkpt>
      <trkpt lat="45.60283" lon="4.71384">
        <ele>278</ele>
        <time>2015-10-18T10:31:17.376Z</time>
      </trkpt>
      <trkpt lat="45.60285" lon="4.71391">
        <ele>278</ele>
        <time>2015-10-18T10:31:18.350Z</time>
      </trkpt>
      <trkpt lat="45.6029" lon="4.71401">
        <ele>278</ele>
        <time>2015-10-18T10:31:20.378Z</time>
      </trkpt>
      <trkpt lat="45.60291" lon="4.71408">
        <ele>278</ele>
        <time>2015-10-18T10:31:21.351Z</time>
      </trkpt>
      <trkpt lat="45.60296" lon="4.71416">
        <ele>278</ele>
        <time>2015-10-18T10:31:23.386Z</time>
      </trkpt>
      <trkpt lat="45.60298" lon="4.71423">
        <ele>279</ele>
        <time>2015-10-18T10:31:24.360Z</time>
      </trkpt>
      <trkpt lat="45.60305" lon="4.71431">
        <ele>279</ele>
        <time>2015-10-18T10:31:26.379Z</time>
      </trkpt>
      <trkpt lat="45.60307" lon="4.71438">
        <ele>279</ele>
        <time>2015-10-18T10:31:27.351Z</time>
      </trkpt>
      <trkpt lat="45.60309" lon="4.71442">
        <ele>279</ele>
        <time>2015-10-18T10:31:28.383Z</time>
      </trkpt>
      <trkpt lat="45.60312" lon="4.71449">
        <ele>279</ele>
        <time>2015-10-18T10:31:29.359Z</time>
      </trkpt>
      <trkpt lat="45.60315" lon="4.71453">
        <ele>279</ele>
        <time>2015-10-18T10:31:30.503Z</time>
      </trkpt>
      <trkpt lat="45.60319" lon="4.71459">
        <ele>280</ele>
        <time>2015-10-18T10:31:31.363Z</time>
      </trkpt>
      <trkpt lat="45.60324" lon="4.71466">
        <ele>280</ele>
        <time>2015-10-18T10:31:33.401Z</time>
      </trkpt>
      <trkpt lat="45.60327" lon="4.7147">
        <ele>280</ele>
        <time>2015-10-18T10:31:34.381Z</time>
      </trkpt>
      <trkpt lat="45.6033" lon="4.71477">
        <ele>280</ele>
        <time>2015-10-18T10:31:35.394Z</time>
      </trkpt>
      <trkpt lat="45.60334" lon="4.71481">
        <ele>279</ele>
        <time>2015-10-18T10:31:36.368Z</time>
      </trkpt>
      <trkpt lat="45.60339" lon="4.71489">
        <ele>280</ele>
        <time>2015-10-18T10:31:38.397Z</time>
      </trkpt>
      <trkpt lat="45.60341" lon="4.71494">
        <ele>280</ele>
        <time>2015-10-18T10:31:39.362Z</time>
      </trkpt>
      <trkpt lat="45.60344" lon="4.715">
        <ele>280</ele>
        <time>2015-10-18T10:31:41.406Z</time>
      </trkpt>
      <trkpt lat="45.60346" lon="4.71507">
        <ele>280</ele>
        <time>2015-10-18T10:31:42.379Z</time>
      </trkpt>
      <trkpt lat="45.60351" lon="4.71513">
        <ele>281</ele>
        <time>2015-10-18T10:31:44.393Z</time>
      </trkpt>
      <trkpt lat="45.60353" lon="4.71517">
        <ele>281</ele>
        <time>2015-10-18T10:31:45.358Z</time>
      </trkpt>
      <trkpt lat="45.60358" lon="4.71522">
        <ele>281</ele>
        <time>2015-10-18T10:31:47.384Z</time>
      </trkpt>
      <trkpt lat="45.60362" lon="4.71526">
        <ele>281</ele>
        <time>2015-10-18T10:31:48.351Z</time>
      </trkpt>
      <trkpt lat="45.60369" lon="4.71532">
        <ele>281</ele>
        <time>2015-10-18T10:31:51.399Z</time>
      </trkpt>
      <trkpt lat="45.60372" lon="4.71534">
        <ele>281</ele>
        <time>2015-10-18T10:31:52.362Z</time>
      </trkpt>
      <trkpt lat="45.60379" lon="4.71537">
        <ele>281</ele>
        <time>2015-10-18T10:31:54.399Z</time>
      </trkpt>
      <trkpt lat="45.60383" lon="4.71539">
        <ele>281</ele>
        <time>2015-10-18T10:31:55.363Z</time>
      </trkpt>
      <trkpt lat="45.60389" lon="4.71541">
        <ele>281</ele>
        <time>2015-10-18T10:31:57.395Z</time>
      </trkpt>
      <trkpt lat="45.60394" lon="4.71543">
        <ele>281</ele>
        <time>2015-10-18T10:31:58.359Z</time>
      </trkpt>
      <trkpt lat="45.60401" lon="4.71545">
        <ele>281</ele>
        <time>2015-10-18T10:32:00.407Z</time>
      </trkpt>
      <trkpt lat="45.60404" lon="4.71545">
        <ele>281</ele>
        <time>2015-10-18T10:32:01.368Z</time>
      </trkpt>
      <trkpt lat="45.60412" lon="4.7155">
        <ele>281</ele>
        <time>2015-10-18T10:32:03.389Z</time>
      </trkpt>
      <trkpt lat="45.60415" lon="4.71552">
        <ele>281</ele>
        <time>2015-10-18T10:32:04.362Z</time>
      </trkpt>
      <trkpt lat="45.60422" lon="4.71554">
        <ele>282</ele>
        <time>2015-10-18T10:32:06.407Z</time>
      </trkpt>
      <trkpt lat="45.60425" lon="4.71556">
        <ele>282</ele>
        <time>2015-10-18T10:32:07.367Z</time>
      </trkpt>
      <trkpt lat="45.60433" lon="4.71558">
        <ele>282</ele>
        <time>2015-10-18T10:32:10.408Z</time>
      </trkpt>
      <trkpt lat="45.60437" lon="4.7156">
        <ele>282</ele>
        <time>2015-10-18T10:32:11.370Z</time>
      </trkpt>
      <trkpt lat="45.60444" lon="4.71565">
        <ele>282</ele>
        <time>2015-10-18T10:32:13.399Z</time>
      </trkpt>
      <trkpt lat="45.60448" lon="4.71565">
        <ele>282</ele>
        <time>2015-10-18T10:32:14.368Z</time>
      </trkpt>
      <trkpt lat="45.60454" lon="4.71569">
        <ele>282</ele>
        <time>2015-10-18T10:32:16.400Z</time>
      </trkpt>
      <trkpt lat="45.60458" lon="4.71571">
        <ele>282</ele>
        <time>2015-10-18T10:32:17.367Z</time>
      </trkpt>
      <trkpt lat="45.60463" lon="4.71577">
        <ele>282</ele>
        <time>2015-10-18T10:32:19.406Z</time>
      </trkpt>
      <trkpt lat="45.60467" lon="4.71577">
        <ele>282</ele>
        <time>2015-10-18T10:32:20.365Z</time>
      </trkpt>
      <trkpt lat="45.60473" lon="4.7158">
        <ele>282</ele>
        <time>2015-10-18T10:32:22.386Z</time>
      </trkpt>
      <trkpt lat="45.60476" lon="4.71582">
        <ele>282</ele>
        <time>2015-10-18T10:32:23.381Z</time>
      </trkpt>
      <trkpt lat="45.60483" lon="4.7159">
        <ele>283</ele>
        <time>2015-10-18T10:32:26.395Z</time>
      </trkpt>
      <trkpt lat="45.60485" lon="4.71592">
        <ele>283</ele>
        <time>2015-10-18T10:32:27.366Z</time>
      </trkpt>
      <trkpt lat="45.60492" lon="4.71597">
        <ele>283</ele>
        <time>2015-10-18T10:32:29.379Z</time>
      </trkpt>
      <trkpt lat="45.60495" lon="4.71599">
        <ele>283</ele>
        <time>2015-10-18T10:32:30.355Z</time>
      </trkpt>
      <trkpt lat="45.605" lon="4.71605">
        <ele>284</ele>
        <time>2015-10-18T10:32:32.400Z</time>
      </trkpt>
      <trkpt lat="45.60502" lon="4.71607">
        <ele>284</ele>
        <time>2015-10-18T10:32:33.369Z</time>
      </trkpt>
      <trkpt lat="45.60508" lon="4.71614">
        <ele>285</ele>
        <time>2015-10-18T10:32:36.420Z</time>
      </trkpt>
      <trkpt lat="45.60508" lon="4.71618">
        <ele>285</ele>
        <time>2015-10-18T10:32:37.370Z</time>
      </trkpt>
      <trkpt lat="45.60507" lon="4.71627">
        <ele>285</ele>
        <time>2015-10-18T10:32:39.404Z</time>
      </trkpt>
      <trkpt lat="45.60505" lon="4.71631">
        <ele>285</ele>
        <time>2015-10-18T10:32:40.369Z</time>
      </trkpt>
      <trkpt lat="45.605" lon="4.7164">
        <ele>284</ele>
        <time>2015-10-18T10:32:43.459Z</time>
      </trkpt>
      <trkpt lat="45.60499" lon="4.71644">
        <ele>284</ele>
        <time>2015-10-18T10:32:44.371Z</time>
      </trkpt>
      <trkpt lat="45.60495" lon="4.7165">
        <ele>284</ele>
        <time>2015-10-18T10:32:46.430Z</time>
      </trkpt>
      <trkpt lat="45.60492" lon="4.71655">
        <ele>284</ele>
        <time>2015-10-18T10:32:47.374Z</time>
      </trkpt>
      <trkpt lat="45.6049" lon="4.71663">
        <ele>284</ele>
        <time>2015-10-18T10:32:49.413Z</time>
      </trkpt>
      <trkpt lat="45.60489" lon="4.71668">
        <ele>285</ele>
        <time>2015-10-18T10:32:50.371Z</time>
      </trkpt>
      <trkpt lat="45.60486" lon="4.71678">
        <ele>285</ele>
        <time>2015-10-18T10:32:52.408Z</time>
      </trkpt>
      <trkpt lat="45.60484" lon="4.71683">
        <ele>285</ele>
        <time>2015-10-18T10:32:53.371Z</time>
      </trkpt>
      <trkpt lat="45.60482" lon="4.71691">
        <ele>285</ele>
        <time>2015-10-18T10:32:55.417Z</time>
      </trkpt>
      <trkpt lat="45.60481" lon="4.71695">
        <ele>286</ele>
        <time>2015-10-18T10:32:56.384Z</time>
      </trkpt>
      <trkpt lat="45.60476" lon="4.71706">
        <ele>286</ele>
        <time>2015-10-18T10:32:59.406Z</time>
      </trkpt>
      <trkpt lat="45.60474" lon="4.7171">
        <ele>286</ele>
        <time>2015-10-18T10:33:00.367Z</time>
      </trkpt>
      <trkpt lat="45.6047" lon="4.71719">
        <ele>286</ele>
        <time>2015-10-18T10:33:02.411Z</time>
      </trkpt>
      <trkpt lat="45.60469" lon="4.71723">
        <ele>286</ele>
        <time>2015-10-18T10:33:03.367Z</time>
      </trkpt>
      <trkpt lat="45.60465" lon="4.71732">
        <ele>286</ele>
        <time>2015-10-18T10:33:05.390Z</time>
      </trkpt>
      <trkpt lat="45.60462" lon="4.71736">
        <ele>286</ele>
        <time>2015-10-18T10:33:06.389Z</time>
      </trkpt>
      <trkpt lat="45.6046" lon="4.71745">
        <ele>286</ele>
        <time>2015-10-18T10:33:08.426Z</time>
      </trkpt>
      <trkpt lat="45.60458" lon="4.71749">
        <ele>286</ele>
        <time>2015-10-18T10:33:09.388Z</time>
      </trkpt>
      <trkpt lat="45.60456" lon="4.71758">
        <ele>288</ele>
        <time>2015-10-18T10:33:11.417Z</time>
      </trkpt>
      <trkpt lat="45.60454" lon="4.71762">
        <ele>288</ele>
        <time>2015-10-18T10:33:12.399Z</time>
      </trkpt>
      <trkpt lat="45.60449" lon="4.71773">
        <ele>288</ele>
        <time>2015-10-18T10:33:15.422Z</time>
      </trkpt>
      <trkpt lat="45.60448" lon="4.71777">
        <ele>288</ele>
        <time>2015-10-18T10:33:16.388Z</time>
      </trkpt>
      <trkpt lat="45.60447" lon="4.71783">
        <ele>288</ele>
        <time>2015-10-18T10:33:17.421Z</time>
      </trkpt>
      <trkpt lat="45.60445" lon="4.7179">
        <ele>288</ele>
        <time>2015-10-18T10:33:18.384Z</time>
      </trkpt>
      <trkpt lat="45.60441" lon="4.71801">
        <ele>288</ele>
        <time>2015-10-18T10:33:21.395Z</time>
      </trkpt>
      <trkpt lat="45.6044" lon="4.71807">
        <ele>288</ele>
        <time>2015-10-18T10:33:22.373Z</time>
      </trkpt>
      <trkpt lat="45.60439" lon="4.71816">
        <ele>288</ele>
        <time>2015-10-18T10:33:24.425Z</time>
      </trkpt>
      <trkpt lat="45.60439" lon="4.7182">
        <ele>288</ele>
        <time>2015-10-18T10:33:25.366Z</time>
      </trkpt>
      <trkpt lat="45.60438" lon="4.71828">
        <ele>289</ele>
        <time>2015-10-18T10:33:27.416Z</time>
      </trkpt>
      <trkpt lat="45.60437" lon="4.71833">
        <ele>289</ele>
        <time>2015-10-18T10:33:28.379Z</time>
      </trkpt>
      <trkpt lat="45.60436" lon="4.71841">
        <ele>289</ele>
        <time>2015-10-18T10:33:30.412Z</time>
      </trkpt>
      <trkpt lat="45.60436" lon="4.71846">
        <ele>290</ele>
        <time>2015-10-18T10:33:31.390Z</time>
      </trkpt>
      <trkpt lat="45.60436" lon="4.71856">
        <ele>290</ele>
        <time>2015-10-18T10:33:33.388Z</time>
      </trkpt>
      <trkpt lat="45.60434" lon="4.71859">
        <ele>290</ele>
        <time>2015-10-18T10:33:34.365Z</time>
      </trkpt>
      <trkpt lat="45.60434" lon="4.71869">
        <ele>290</ele>
        <time>2015-10-18T10:33:36.419Z</time>
      </trkpt>
      <trkpt lat="45.60434" lon="4.71876">
        <ele>290</ele>
        <time>2015-10-18T10:33:37.375Z</time>
      </trkpt>
      <trkpt lat="45.60433" lon="4.71886">
        <ele>290</ele>
        <time>2015-10-18T10:33:39.428Z</time>
      </trkpt>
      <trkpt lat="45.60433" lon="4.71891">
        <ele>290</ele>
        <time>2015-10-18T10:33:40.429Z</time>
      </trkpt>
      <trkpt lat="45.60433" lon="4.71901">
        <ele>290</ele>
        <time>2015-10-18T10:33:42.501Z</time>
      </trkpt>
      <trkpt lat="45.60433" lon="4.71906">
        <ele>290</ele>
        <time>2015-10-18T10:33:43.375Z</time>
      </trkpt>
      <trkpt lat="45.60431" lon="4.71916">
        <ele>290</ele>
        <time>2015-10-18T10:33:45.411Z</time>
      </trkpt>
      <trkpt lat="45.60431" lon="4.71919">
        <ele>291</ele>
        <time>2015-10-18T10:33:46.365Z</time>
      </trkpt>
      <trkpt lat="45.60431" lon="4.71929">
        <ele>291</ele>
        <time>2015-10-18T10:33:48.466Z</time>
      </trkpt>
      <trkpt lat="45.60431" lon="4.71934">
        <ele>291</ele>
        <time>2015-10-18T10:33:49.353Z</time>
      </trkpt>
      <trkpt lat="45.60429" lon="4.7194">
        <ele>291</ele>
        <time>2015-10-18T10:33:51.515Z</time>
      </trkpt>
      <trkpt lat="45.60428" lon="4.71946">
        <ele>291</ele>
        <time>2015-10-18T10:33:52.366Z</time>
      </trkpt>
      <trkpt lat="45.60428" lon="4.71957">
        <ele>291</ele>
        <time>2015-10-18T10:33:54.383Z</time>
      </trkpt>
      <trkpt lat="45.60427" lon="4.71961">
        <ele>291</ele>
        <time>2015-10-18T10:33:55.367Z</time>
      </trkpt>
      <trkpt lat="45.60427" lon="4.7197">
        <ele>291</ele>
        <time>2015-10-18T10:33:57.405Z</time>
      </trkpt>
      <trkpt lat="45.60427" lon="4.71977">
        <ele>291</ele>
        <time>2015-10-18T10:33:58.369Z</time>
      </trkpt>
      <trkpt lat="45.60427" lon="4.71985">
        <ele>291</ele>
        <time>2015-10-18T10:34:00.404Z</time>
      </trkpt>
      <trkpt lat="45.60427" lon="4.71989">
        <ele>291</ele>
        <time>2015-10-18T10:34:01.360Z</time>
      </trkpt>
      <trkpt lat="45.60425" lon="4.72">
        <ele>291</ele>
        <time>2015-10-18T10:34:06.410Z</time>
      </trkpt>
      <trkpt lat="45.60424" lon="4.72004">
        <ele>291</ele>
        <time>2015-10-18T10:34:07.364Z</time>
      </trkpt>
      <trkpt lat="45.60424" lon="4.72013">
        <ele>292</ele>
        <time>2015-10-18T10:34:09.398Z</time>
      </trkpt>
      <trkpt lat="45.60424" lon="4.72017">
        <ele>292</ele>
        <time>2015-10-18T10:34:10.364Z</time>
      </trkpt>
      <trkpt lat="45.60424" lon="4.72026">
        <ele>292</ele>
        <time>2015-10-18T10:34:13.399Z</time>
      </trkpt>
      <trkpt lat="45.60424" lon="4.7203">
        <ele>292</ele>
        <time>2015-10-18T10:34:14.377Z</time>
      </trkpt>
      <trkpt lat="45.60423" lon="4.72041">
        <ele>292</ele>
        <time>2015-10-18T10:34:17.407Z</time>
      </trkpt>
      <trkpt lat="45.60423" lon="4.72043">
        <ele>292</ele>
        <time>2015-10-18T10:34:18.375Z</time>
      </trkpt>
      <trkpt lat="45.60424" lon="4.72052">
        <ele>292</ele>
        <time>2015-10-18T10:34:20.422Z</time>
      </trkpt>
      <trkpt lat="45.60424" lon="4.72056">
        <ele>292</ele>
        <time>2015-10-18T10:34:21.377Z</time>
      </trkpt>
      <trkpt lat="45.60424" lon="4.72064">
        <ele>292</ele>
        <time>2015-10-18T10:34:23.417Z</time>
      </trkpt>
      <trkpt lat="45.60423" lon="4.72071">
        <ele>292</ele>
        <time>2015-10-18T10:34:24.394Z</time>
      </trkpt>
      <trkpt lat="45.60423" lon="4.7208">
        <ele>292</ele>
        <time>2015-10-18T10:34:26.417Z</time>
      </trkpt>
      <trkpt lat="45.60423" lon="4.72084">
        <ele>292</ele>
        <time>2015-10-18T10:34:27.375Z</time>
      </trkpt>
      <trkpt lat="45.60423" lon="4.72092">
        <ele>293</ele>
        <time>2015-10-18T10:34:29.428Z</time>
      </trkpt>
      <trkpt lat="45.60423" lon="4.72099">
        <ele>293</ele>
        <time>2015-10-18T10:34:30.376Z</time>
      </trkpt>
      <trkpt lat="45.60423" lon="4.72105">
        <ele>293</ele>
        <time>2015-10-18T10:34:31.417Z</time>
      </trkpt>
      <trkpt lat="45.60424" lon="4.72112">
        <ele>293</ele>
        <time>2015-10-18T10:34:32.390Z</time>
      </trkpt>
      <trkpt lat="45.60424" lon="4.72122">
        <ele>293</ele>
        <time>2015-10-18T10:34:34.422Z</time>
      </trkpt>
      <trkpt lat="45.60423" lon="4.72127">
        <ele>293</ele>
        <time>2015-10-18T10:34:35.401Z</time>
      </trkpt>
      <trkpt lat="45.60423" lon="4.72133">
        <ele>294</ele>
        <time>2015-10-18T10:34:36.430Z</time>
      </trkpt>
      <trkpt lat="45.60423" lon="4.7214">
        <ele>294</ele>
        <time>2015-10-18T10:34:37.406Z</time>
      </trkpt>
      <trkpt lat="45.60423" lon="4.72148">
        <ele>293</ele>
        <time>2015-10-18T10:34:38.408Z</time>
      </trkpt>
      <trkpt lat="45.60423" lon="4.72155">
        <ele>293</ele>
        <time>2015-10-18T10:34:39.381Z</time>
      </trkpt>
      <trkpt lat="45.60423" lon="4.72163">
        <ele>293</ele>
        <time>2015-10-18T10:34:40.431Z</time>
      </trkpt>
      <trkpt lat="45.60422" lon="4.7217">
        <ele>293</ele>
        <time>2015-10-18T10:34:41.384Z</time>
      </trkpt>
      <trkpt lat="45.60423" lon="4.72176">
        <ele>293</ele>
        <time>2015-10-18T10:34:42.395Z</time>
      </trkpt>
      <trkpt lat="45.60422" lon="4.72183">
        <ele>293</ele>
        <time>2015-10-18T10:34:43.388Z</time>
      </trkpt>
      <trkpt lat="45.60421" lon="4.72189">
        <ele>293</ele>
        <time>2015-10-18T10:34:44.406Z</time>
      </trkpt>
      <trkpt lat="45.60419" lon="4.72198">
        <ele>293</ele>
        <time>2015-10-18T10:34:45.366Z</time>
      </trkpt>
      <trkpt lat="45.60419" lon="4.72204">
        <ele>293</ele>
        <time>2015-10-18T10:34:46.392Z</time>
      </trkpt>
      <trkpt lat="45.60418" lon="4.72213">
        <ele>293</ele>
        <time>2015-10-18T10:34:47.366Z</time>
      </trkpt>
      <trkpt lat="45.60417" lon="4.72219">
        <ele>293</ele>
        <time>2015-10-18T10:34:48.395Z</time>
      </trkpt>
      <trkpt lat="45.60415" lon="4.72225">
        <ele>291</ele>
        <time>2015-10-18T10:34:49.367Z</time>
      </trkpt>
      <trkpt lat="45.60414" lon="4.72234">
        <ele>290</ele>
        <time>2015-10-18T10:34:50.400Z</time>
      </trkpt>
      <trkpt lat="45.60413" lon="4.7224">
        <ele>290</ele>
        <time>2015-10-18T10:34:51.367Z</time>
      </trkpt>
      <trkpt lat="45.60412" lon="4.72247">
        <ele>290</ele>
        <time>2015-10-18T10:34:52.409Z</time>
      </trkpt>
      <trkpt lat="45.60411" lon="4.72255">
        <ele>289</ele>
        <time>2015-10-18T10:34:53.363Z</time>
      </trkpt>
      <trkpt lat="45.6041" lon="4.72264">
        <ele>289</ele>
        <time>2015-10-18T10:34:54.399Z</time>
      </trkpt>
      <trkpt lat="45.60409" lon="4.7227">
        <ele>288</ele>
        <time>2015-10-18T10:34:55.379Z</time>
      </trkpt>
      <trkpt lat="45.60409" lon="4.72279">
        <ele>288</ele>
        <time>2015-10-18T10:34:56.419Z</time>
      </trkpt>
      <trkpt lat="45.60409" lon="4.72288">
        <ele>288</ele>
        <time>2015-10-18T10:34:57.384Z</time>
      </trkpt>
      <trkpt lat="45.60409" lon="4.72296">
        <ele>287</ele>
        <time>2015-10-18T10:34:58.403Z</time>
      </trkpt>
      <trkpt lat="45.60409" lon="4.72303">
        <ele>287</ele>
        <time>2015-10-18T10:34:59.384Z</time>
      </trkpt>
      <trkpt lat="45.60409" lon="4.72311">
        <ele>287</ele>
        <time>2015-10-18T10:35:00.393Z</time>
      </trkpt>
      <trkpt lat="45.6041" lon="4.7232">
        <ele>287</ele>
        <time>2015-10-18T10:35:01.367Z</time>
      </trkpt>
      <trkpt lat="45.60411" lon="4.72326">
        <ele>288</ele>
        <time>2015-10-18T10:35:02.405Z</time>
      </trkpt>
      <trkpt lat="45.6041" lon="4.72333">
        <ele>288</ele>
        <time>2015-10-18T10:35:03.373Z</time>
      </trkpt>
      <trkpt lat="45.6041" lon="4.72341">
        <ele>287</ele>
        <time>2015-10-18T10:35:04.389Z</time>
      </trkpt>
      <trkpt lat="45.60409" lon="4.72348">
        <ele>286</ele>
        <time>2015-10-18T10:35:05.364Z</time>
      </trkpt>
      <trkpt lat="45.60405" lon="4.72354">
        <ele>286</ele>
        <time>2015-10-18T10:35:06.389Z</time>
      </trkpt>
      <trkpt lat="45.60404" lon="4.72361">
        <ele>286</ele>
        <time>2015-10-18T10:35:07.351Z</time>
      </trkpt>
      <trkpt lat="45.60402" lon="4.72367">
        <ele>286</ele>
        <time>2015-10-18T10:35:08.381Z</time>
      </trkpt>
      <trkpt lat="45.60401" lon="4.72373">
        <ele>286</ele>
        <time>2015-10-18T10:35:09.358Z</time>
      </trkpt>
      <trkpt lat="45.60399" lon="4.7238">
        <ele>286</ele>
        <time>2015-10-18T10:35:10.400Z</time>
      </trkpt>
      <trkpt lat="45.60397" lon="4.72386">
        <ele>286</ele>
        <time>2015-10-18T10:35:11.389Z</time>
      </trkpt>
      <trkpt lat="45.60395" lon="4.72397">
        <ele>286</ele>
        <time>2015-10-18T10:35:13.406Z</time>
      </trkpt>
      <trkpt lat="45.60393" lon="4.72404">
        <ele>286</ele>
        <time>2015-10-18T10:35:14.380Z</time>
      </trkpt>
      <trkpt lat="45.60392" lon="4.7241">
        <ele>286</ele>
        <time>2015-10-18T10:35:15.416Z</time>
      </trkpt>
      <trkpt lat="45.60389" lon="4.72416">
        <ele>286</ele>
        <time>2015-10-18T10:35:16.361Z</time>
      </trkpt>
      <trkpt lat="45.60387" lon="4.72423">
        <ele>286</ele>
        <time>2015-10-18T10:35:17.418Z</time>
      </trkpt>
      <trkpt lat="45.60385" lon="4.72429">
        <ele>286</ele>
        <time>2015-10-18T10:35:18.369Z</time>
      </trkpt>
      <trkpt lat="45.60384" lon="4.72436">
        <ele>286</ele>
        <time>2015-10-18T10:35:19.400Z</time>
      </trkpt>
      <trkpt lat="45.60383" lon="4.72442">
        <ele>286</ele>
        <time>2015-10-18T10:35:20.370Z</time>
      </trkpt>
      <trkpt lat="45.60383" lon="4.72449">
        <ele>286</ele>
        <time>2015-10-18T10:35:21.392Z</time>
      </trkpt>
      <trkpt lat="45.60382" lon="4.72455">
        <ele>286</ele>
        <time>2015-10-18T10:35:22.374Z</time>
      </trkpt>
      <trkpt lat="45.60381" lon="4.72464">
        <ele>286</ele>
        <time>2015-10-18T10:35:23.407Z</time>
      </trkpt>
      <trkpt lat="45.6038" lon="4.72472">
        <ele>286</ele>
        <time>2015-10-18T10:35:24.372Z</time>
      </trkpt>
      <trkpt lat="45.60379" lon="4.72483">
        <ele>286</ele>
        <time>2015-10-18T10:35:26.422Z</time>
      </trkpt>
      <trkpt lat="45.60379" lon="4.72489">
        <ele>286</ele>
        <time>2015-10-18T10:35:27.382Z</time>
      </trkpt>
      <trkpt lat="45.60379" lon="4.72496">
        <ele>286</ele>
        <time>2015-10-18T10:35:28.416Z</time>
      </trkpt>
      <trkpt lat="45.60378" lon="4.72502">
        <ele>286</ele>
        <time>2015-10-18T10:35:29.380Z</time>
      </trkpt>
      <trkpt lat="45.60378" lon="4.72511">
        <ele>286</ele>
        <time>2015-10-18T10:35:30.412Z</time>
      </trkpt>
      <trkpt lat="45.60378" lon="4.72517">
        <ele>286</ele>
        <time>2015-10-18T10:35:31.381Z</time>
      </trkpt>
      <trkpt lat="45.60379" lon="4.72524">
        <ele>286</ele>
        <time>2015-10-18T10:35:32.410Z</time>
      </trkpt>
      <trkpt lat="45.60379" lon="4.72532">
        <ele>286</ele>
        <time>2015-10-18T10:35:33.383Z</time>
      </trkpt>
      <trkpt lat="45.60379" lon="4.72539">
        <ele>286</ele>
        <time>2015-10-18T10:35:34.410Z</time>
      </trkpt>
      <trkpt lat="45.6038" lon="4.72545">
        <ele>286</ele>
        <time>2015-10-18T10:35:35.384Z</time>
      </trkpt>
      <trkpt lat="45.6038" lon="4.72552">
        <ele>286</ele>
        <time>2015-10-18T10:35:36.417Z</time>
      </trkpt>
      <trkpt lat="45.6038" lon="4.72558">
        <ele>286</ele>
        <time>2015-10-18T10:35:37.380Z</time>
      </trkpt>
      <trkpt lat="45.60381" lon="4.72564">
        <ele>286</ele>
        <time>2015-10-18T10:35:38.413Z</time>
      </trkpt>
      <trkpt lat="45.60382" lon="4.72571">
        <ele>286</ele>
        <time>2015-10-18T10:35:39.381Z</time>
      </trkpt>
      <trkpt lat="45.60383" lon="4.72577">
        <ele>286</ele>
        <time>2015-10-18T10:35:40.396Z</time>
      </trkpt>
      <trkpt lat="45.60383" lon="4.72584">
        <ele>288</ele>
        <time>2015-10-18T10:35:41.369Z</time>
      </trkpt>
      <trkpt lat="45.60383" lon="4.7259">
        <ele>288</ele>
        <time>2015-10-18T10:35:42.397Z</time>
      </trkpt>
      <trkpt lat="45.60383" lon="4.72597">
        <ele>288</ele>
        <time>2015-10-18T10:35:43.362Z</time>
      </trkpt>
      <trkpt lat="45.60384" lon="4.72607">
        <ele>288</ele>
        <time>2015-10-18T10:35:45.399Z</time>
      </trkpt>
      <trkpt lat="45.60385" lon="4.72612">
        <ele>288</ele>
        <time>2015-10-18T10:35:46.382Z</time>
      </trkpt>
      <trkpt lat="45.60387" lon="4.7262">
        <ele>288</ele>
        <time>2015-10-18T10:35:48.469Z</time>
      </trkpt>
      <trkpt lat="45.60389" lon="4.72625">
        <ele>288</ele>
        <time>2015-10-18T10:35:49.389Z</time>
      </trkpt>
      <trkpt lat="45.60394" lon="4.72633">
        <ele>288</ele>
        <time>2015-10-18T10:35:51.392Z</time>
      </trkpt>
      <trkpt lat="45.60395" lon="4.72635">
        <ele>289</ele>
        <time>2015-10-18T10:35:52.369Z</time>
      </trkpt>
      <trkpt lat="45.60399" lon="4.72644">
        <ele>289</ele>
        <time>2015-10-18T10:35:54.393Z</time>
      </trkpt>
      <trkpt lat="45.60401" lon="4.72646">
        <ele>289</ele>
        <time>2015-10-18T10:35:55.370Z</time>
      </trkpt>
      <trkpt lat="45.60405" lon="4.72652">
        <ele>289</ele>
        <time>2015-10-18T10:35:57.404Z</time>
      </trkpt>
      <trkpt lat="45.60408" lon="4.72657">
        <ele>290</ele>
        <time>2015-10-18T10:35:58.388Z</time>
      </trkpt>
      <trkpt lat="45.6041" lon="4.72665">
        <ele>290</ele>
        <time>2015-10-18T10:36:00.405Z</time>
      </trkpt>
      <trkpt lat="45.60412" lon="4.7267">
        <ele>291</ele>
        <time>2015-10-18T10:36:01.386Z</time>
      </trkpt>
      <trkpt lat="45.60415" lon="4.72678">
        <ele>291</ele>
        <time>2015-10-18T10:36:03.410Z</time>
      </trkpt>
      <trkpt lat="45.60417" lon="4.72682">
        <ele>293</ele>
        <time>2015-10-18T10:36:04.363Z</time>
      </trkpt>
      <trkpt lat="45.60422" lon="4.72691">
        <ele>294</ele>
        <time>2015-10-18T10:36:07.517Z</time>
      </trkpt>
      <trkpt lat="45.60424" lon="4.72695">
        <ele>294</ele>
        <time>2015-10-18T10:36:08.388Z</time>
      </trkpt>
      <trkpt lat="45.60429" lon="4.72704">
        <ele>295</ele>
        <time>2015-10-18T10:36:11.410Z</time>
      </trkpt>
      <trkpt lat="45.6043" lon="4.72708">
        <ele>295</ele>
        <time>2015-10-18T10:36:12.406Z</time>
      </trkpt>
      <trkpt lat="45.60433" lon="4.72715">
        <ele>295</ele>
        <time>2015-10-18T10:36:14.411Z</time>
      </trkpt>
      <trkpt lat="45.60436" lon="4.72719">
        <ele>295</ele>
        <time>2015-10-18T10:36:15.362Z</time>
      </trkpt>
      <trkpt lat="45.6044" lon="4.7273">
        <ele>296</ele>
        <time>2015-10-18T10:36:18.401Z</time>
      </trkpt>
      <trkpt lat="45.60441" lon="4.72732">
        <ele>296</ele>
        <time>2015-10-18T10:36:19.374Z</time>
      </trkpt>
      <trkpt lat="45.60444" lon="4.7274">
        <ele>296</ele>
        <time>2015-10-18T10:36:22.410Z</time>
      </trkpt>
      <trkpt lat="45.60446" lon="4.72745">
        <ele>296</ele>
        <time>2015-10-18T10:36:23.399Z</time>
      </trkpt>
      <trkpt lat="45.60446" lon="4.72753">
        <ele>298</ele>
        <time>2015-10-18T10:36:25.407Z</time>
      </trkpt>
      <trkpt lat="45.60446" lon="4.72758">
        <ele>298</ele>
        <time>2015-10-18T10:36:26.362Z</time>
      </trkpt>
      <trkpt lat="45.60444" lon="4.72766">
        <ele>298</ele>
        <time>2015-10-18T10:36:28.405Z</time>
      </trkpt>
      <trkpt lat="45.60442" lon="4.7277">
        <ele>298</ele>
        <time>2015-10-18T10:36:29.382Z</time>
      </trkpt>
      <trkpt lat="45.6044" lon="4.72779">
        <ele>298</ele>
        <time>2015-10-18T10:36:31.408Z</time>
      </trkpt>
      <trkpt lat="45.6044" lon="4.72783">
        <ele>298</ele>
        <time>2015-10-18T10:36:32.377Z</time>
      </trkpt>
      <trkpt lat="45.60437" lon="4.72794">
        <ele>298</ele>
        <time>2015-10-18T10:36:35.395Z</time>
      </trkpt>
      <trkpt lat="45.60436" lon="4.72798">
        <ele>298</ele>
        <time>2015-10-18T10:36:36.372Z</time>
      </trkpt>
      <trkpt lat="45.60433" lon="4.72809">
        <ele>298</ele>
        <time>2015-10-18T10:36:39.406Z</time>
      </trkpt>
      <trkpt lat="45.60432" lon="4.72811">
        <ele>298</ele>
        <time>2015-10-18T10:36:40.365Z</time>
      </trkpt>
      <trkpt lat="45.6043" lon="4.7282">
        <ele>298</ele>
        <time>2015-10-18T10:36:42.407Z</time>
      </trkpt>
      <trkpt lat="45.60429" lon="4.72824">
        <ele>298</ele>
        <time>2015-10-18T10:36:43.368Z</time>
      </trkpt>
      <trkpt lat="45.60426" lon="4.72835">
        <ele>299</ele>
        <time>2015-10-18T10:36:46.405Z</time>
      </trkpt>
      <trkpt lat="45.60425" lon="4.72839">
        <ele>299</ele>
        <time>2015-10-18T10:36:47.400Z</time>
      </trkpt>
      <trkpt lat="45.60424" lon="4.72848">
        <ele>300</ele>
        <time>2015-10-18T10:36:50.412Z</time>
      </trkpt>
      <trkpt lat="45.60423" lon="4.72852">
        <ele>300</ele>
        <time>2015-10-18T10:36:51.373Z</time>
      </trkpt>
      <trkpt lat="45.60421" lon="4.72863">
        <ele>300</ele>
        <time>2015-10-18T10:36:54.397Z</time>
      </trkpt>
      <trkpt lat="45.60418" lon="4.72867">
        <ele>300</ele>
        <time>2015-10-18T10:36:55.353Z</time>
      </trkpt>
      <trkpt lat="45.60416" lon="4.72876">
        <ele>298</ele>
        <time>2015-10-18T10:36:57.409Z</time>
      </trkpt>
      <trkpt lat="45.60415" lon="4.7288">
        <ele>298</ele>
        <time>2015-10-18T10:36:58.372Z</time>
      </trkpt>
      <trkpt lat="45.60413" lon="4.72891">
        <ele>299</ele>
        <time>2015-10-18T10:37:01.440Z</time>
      </trkpt>
      <trkpt lat="45.60412" lon="4.72895">
        <ele>299</ele>
        <time>2015-10-18T10:37:02.362Z</time>
      </trkpt>
      <trkpt lat="45.60411" lon="4.72903">
        <ele>299</ele>
        <time>2015-10-18T10:37:04.409Z</time>
      </trkpt>
      <trkpt lat="45.6041" lon="4.72908">
        <ele>300</ele>
        <time>2015-10-18T10:37:05.381Z</time>
      </trkpt>
      <trkpt lat="45.60409" lon="4.72919">
        <ele>301</ele>
        <time>2015-10-18T10:37:08.413Z</time>
      </trkpt>
      <trkpt lat="45.60408" lon="4.72923">
        <ele>300</ele>
        <time>2015-10-18T10:37:09.383Z</time>
      </trkpt>
      <trkpt lat="45.60404" lon="4.72934">
        <ele>300</ele>
        <time>2015-10-18T10:37:12.410Z</time>
      </trkpt>
      <trkpt lat="45.60403" lon="4.72938">
        <ele>300</ele>
        <time>2015-10-18T10:37:13.362Z</time>
      </trkpt>
      <trkpt lat="45.60404" lon="4.72946">
        <ele>300</ele>
        <time>2015-10-18T10:37:16.415Z</time>
      </trkpt>
      <trkpt lat="45.60402" lon="4.72951">
        <ele>300</ele>
        <time>2015-10-18T10:37:17.382Z</time>
      </trkpt>
      <trkpt lat="45.60396" lon="4.72955">
        <ele>300</ele>
        <time>2015-10-18T10:37:19.399Z</time>
      </trkpt>
      <trkpt lat="45.6039" lon="4.72955">
        <ele>300</ele>
        <time>2015-10-18T10:37:20.388Z</time>
      </trkpt>
      <trkpt lat="45.60382" lon="4.72957">
        <ele>299</ele>
        <time>2015-10-18T10:37:22.412Z</time>
      </trkpt>
      <trkpt lat="45.6038" lon="4.72959">
        <ele>299</ele>
        <time>2015-10-18T10:37:23.359Z</time>
      </trkpt>
      <trkpt lat="45.60377" lon="4.72966">
        <ele>299</ele>
        <time>2015-10-18T10:37:24.453Z</time>
      </trkpt>
      <trkpt lat="45.60373" lon="4.72972">
        <ele>299</ele>
        <time>2015-10-18T10:37:25.396Z</time>
      </trkpt>
      <trkpt lat="45.60372" lon="4.72979">
        <ele>299</ele>
        <time>2015-10-18T10:37:26.411Z</time>
      </trkpt>
      <trkpt lat="45.60369" lon="4.72985">
        <ele>299</ele>
        <time>2015-10-18T10:37:27.414Z</time>
      </trkpt>
      <trkpt lat="45.60366" lon="4.72994">
        <ele>299</ele>
        <time>2015-10-18T10:37:28.419Z</time>
      </trkpt>
      <trkpt lat="45.60363" lon="4.73">
        <ele>299</ele>
        <time>2015-10-18T10:37:29.398Z</time>
      </trkpt>
      <trkpt lat="45.60359" lon="4.73006">
        <ele>299</ele>
        <time>2015-10-18T10:37:30.427Z</time>
      </trkpt>
      <trkpt lat="45.60355" lon="4.73009">
        <ele>299</ele>
        <time>2015-10-18T10:37:31.365Z</time>
      </trkpt>
      <trkpt lat="45.60349" lon="4.73006">
        <ele>298</ele>
        <time>2015-10-18T10:37:32.409Z</time>
      </trkpt>
      <trkpt lat="45.60342" lon="4.73004">
        <ele>298</ele>
        <time>2015-10-18T10:37:33.372Z</time>
      </trkpt>
      <trkpt lat="45.60339" lon="4.73">
        <ele>298</ele>
        <time>2015-10-18T10:37:34.372Z</time>
      </trkpt>
      <trkpt lat="45.60334" lon="4.72996">
        <ele>297</ele>
        <time>2015-10-18T10:37:35.340Z</time>
      </trkpt>
      <trkpt lat="45.60329" lon="4.72994">
        <ele>296</ele>
        <time>2015-10-18T10:37:36.376Z</time>
      </trkpt>
      <trkpt lat="45.60325" lon="4.72987">
        <ele>295</ele>
        <time>2015-10-18T10:37:37.374Z</time>
      </trkpt>
      <trkpt lat="45.6032" lon="4.72985">
        <ele>294</ele>
        <time>2015-10-18T10:37:38.408Z</time>
      </trkpt>
      <trkpt lat="45.60316" lon="4.72976">
        <ele>294</ele>
        <time>2015-10-18T10:37:39.362Z</time>
      </trkpt>
      <trkpt lat="45.60314" lon="4.7297">
        <ele>294</ele>
        <time>2015-10-18T10:37:40.412Z</time>
      </trkpt>
      <trkpt lat="45.60313" lon="4.72961">
        <ele>293</ele>
        <time>2015-10-18T10:37:41.384Z</time>
      </trkpt>
      <trkpt lat="45.60312" lon="4.72953">
        <ele>293</ele>
        <time>2015-10-18T10:37:42.418Z</time>
      </trkpt>
      <trkpt lat="45.60311" lon="4.72942">
        <ele>294</ele>
        <time>2015-10-18T10:37:43.402Z</time>
      </trkpt>
      <trkpt lat="45.60309" lon="4.72936">
        <ele>294</ele>
        <time>2015-10-18T10:37:44.404Z</time>
      </trkpt>
      <trkpt lat="45.60306" lon="4.72927">
        <ele>294</ele>
        <time>2015-10-18T10:37:45.383Z</time>
      </trkpt>
      <trkpt lat="45.60302" lon="4.72919">
        <ele>293</ele>
        <time>2015-10-18T10:37:46.413Z</time>
      </trkpt>
      <trkpt lat="45.60298" lon="4.72912">
        <ele>293</ele>
        <time>2015-10-18T10:37:47.386Z</time>
      </trkpt>
      <trkpt lat="45.60295" lon="4.72903">
        <ele>292</ele>
        <time>2015-10-18T10:37:48.426Z</time>
      </trkpt>
      <trkpt lat="45.60293" lon="4.72895">
        <ele>292</ele>
        <time>2015-10-18T10:37:49.393Z</time>
      </trkpt>
      <trkpt lat="45.60292" lon="4.72886">
        <ele>292</ele>
        <time>2015-10-18T10:37:50.448Z</time>
      </trkpt>
      <trkpt lat="45.60291" lon="4.72878">
        <ele>292</ele>
        <time>2015-10-18T10:37:51.389Z</time>
      </trkpt>
      <trkpt lat="45.60289" lon="4.72869">
        <ele>292</ele>
        <time>2015-10-18T10:37:52.415Z</time>
      </trkpt>
      <trkpt lat="45.60287" lon="4.72863">
        <ele>291</ele>
        <time>2015-10-18T10:37:53.389Z</time>
      </trkpt>
      <trkpt lat="45.60285" lon="4.72854">
        <ele>291</ele>
        <time>2015-10-18T10:37:54.414Z</time>
      </trkpt>
      <trkpt lat="45.60284" lon="4.72846">
        <ele>291</ele>
        <time>2015-10-18T10:37:55.389Z</time>
      </trkpt>
      <trkpt lat="45.60281" lon="4.72839">
        <ele>291</ele>
        <time>2015-10-18T10:37:56.417Z</time>
      </trkpt>
      <trkpt lat="45.60278" lon="4.72833">
        <ele>289</ele>
        <time>2015-10-18T10:37:57.381Z</time>
      </trkpt>
      <trkpt lat="45.60275" lon="4.72826">
        <ele>289</ele>
        <time>2015-10-18T10:37:58.416Z</time>
      </trkpt>
      <trkpt lat="45.6027" lon="4.7282">
        <ele>289</ele>
        <time>2015-10-18T10:37:59.391Z</time>
      </trkpt>
      <trkpt lat="45.60264" lon="4.72816">
        <ele>288</ele>
        <time>2015-10-18T10:38:00.418Z</time>
      </trkpt>
      <trkpt lat="45.60259" lon="4.72809">
        <ele>288</ele>
        <time>2015-10-18T10:38:01.384Z</time>
      </trkpt>
      <trkpt lat="45.60251" lon="4.72805">
        <ele>288</ele>
        <time>2015-10-18T10:38:02.386Z</time>
      </trkpt>
      <trkpt lat="45.60245" lon="4.72798">
        <ele>284</ele>
        <time>2015-10-18T10:38:03.352Z</time>
      </trkpt>
      <trkpt lat="45.60237" lon="4.72792">
        <ele>283</ele>
        <time>2015-10-18T10:38:04.386Z</time>
      </trkpt>
      <trkpt lat="45.60233" lon="4.72781">
        <ele>283</ele>
        <time>2015-10-18T10:38:05.382Z</time>
      </trkpt>
      <trkpt lat="45.6023" lon="4.7277">
        <ele>283</ele>
        <time>2015-10-18T10:38:06.406Z</time>
      </trkpt>
      <trkpt lat="45.60225" lon="4.7276">
        <ele>283</ele>
        <time>2015-10-18T10:38:07.394Z</time>
      </trkpt>
      <trkpt lat="45.60225" lon="4.7276">
        <ele>283</ele>
        <time>2015-10-18T10:38:07.428Z</time>
      </trkpt>
      <trkpt lat="45.60223" lon="4.72747">
        <ele>281</ele>
        <time>2015-10-18T10:38:08.362Z</time>
      </trkpt>
      <trkpt lat="45.60221" lon="4.72736">
        <ele>281</ele>
        <time>2015-10-18T10:38:09.394Z</time>
      </trkpt>
      <trkpt lat="45.60218" lon="4.72725">
        <ele>280</ele>
        <time>2015-10-18T10:38:10.379Z</time>
      </trkpt>
      <trkpt lat="45.60216" lon="4.72715">
        <ele>280</ele>
        <time>2015-10-18T10:38:11.406Z</time>
      </trkpt>
      <trkpt lat="45.60211" lon="4.72704">
        <ele>279</ele>
        <time>2015-10-18T10:38:12.358Z</time>
      </trkpt>
      <trkpt lat="45.60206" lon="4.727">
        <ele>279</ele>
        <time>2015-10-18T10:38:13.394Z</time>
      </trkpt>
      <trkpt lat="45.60198" lon="4.72695">
        <ele>278</ele>
        <time>2015-10-18T10:38:14.384Z</time>
      </trkpt>
      <trkpt lat="45.60193" lon="4.72693">
        <ele>278</ele>
        <time>2015-10-18T10:38:15.398Z</time>
      </trkpt>
      <trkpt lat="45.6019" lon="4.72691">
        <ele>277</ele>
        <time>2015-10-18T10:38:16.376Z</time>
      </trkpt>
      <trkpt lat="45.60186" lon="4.72685">
        <ele>277</ele>
        <time>2015-10-18T10:38:18.440Z</time>
      </trkpt>
      <trkpt lat="45.60182" lon="4.72682">
        <ele>276</ele>
        <time>2015-10-18T10:38:19.379Z</time>
      </trkpt>
      <trkpt lat="45.60177" lon="4.72678">
        <ele>275</ele>
        <time>2015-10-18T10:38:20.415Z</time>
      </trkpt>
      <trkpt lat="45.60171" lon="4.72674">
        <ele>273</ele>
        <time>2015-10-18T10:38:21.392Z</time>
      </trkpt>
      <trkpt lat="45.60168" lon="4.72663">
        <ele>271</ele>
        <time>2015-10-18T10:38:26.438Z</time>
      </trkpt>
      <trkpt lat="45.60167" lon="4.72659">
        <ele>272</ele>
        <time>2015-10-18T10:38:27.397Z</time>
      </trkpt>
      <trkpt lat="45.60162" lon="4.7265">
        <ele>267</ele>
        <time>2015-10-18T10:38:31.412Z</time>
      </trkpt>
      <trkpt lat="45.60161" lon="4.72648">
        <ele>267</ele>
        <time>2015-10-18T10:38:32.380Z</time>
      </trkpt>
      <trkpt lat="45.60153" lon="4.72646">
        <ele>266</ele>
        <time>2015-10-18T10:38:37.416Z</time>
      </trkpt>
      <trkpt lat="45.6015" lon="4.72646">
        <ele>266</ele>
        <time>2015-10-18T10:38:38.354Z</time>
      </trkpt>
      <trkpt lat="45.6015" lon="4.72637">
        <ele>266</ele>
        <time>2015-10-18T10:38:45.403Z</time>
      </trkpt>
      <trkpt lat="45.60153" lon="4.72633">
        <ele>265</ele>
        <time>2015-10-18T10:38:46.352Z</time>
      </trkpt>
      <trkpt lat="45.60153" lon="4.72627">
        <ele>265</ele>
        <time>2015-10-18T10:38:47.365Z</time>
      </trkpt>
      <trkpt lat="45.60153" lon="4.7262">
        <ele>265</ele>
        <time>2015-10-18T10:38:48.339Z</time>
      </trkpt>
      <trkpt lat="45.60153" lon="4.72612">
        <ele>265</ele>
        <time>2015-10-18T10:38:49.359Z</time>
      </trkpt>
      <trkpt lat="45.60152" lon="4.72603">
        <ele>264</ele>
        <time>2015-10-18T10:38:50.333Z</time>
      </trkpt>
      <trkpt lat="45.60152" lon="4.72594">
        <ele>264</ele>
        <time>2015-10-18T10:38:51.386Z</time>
      </trkpt>
      <trkpt lat="45.60149" lon="4.72584">
        <ele>264</ele>
        <time>2015-10-18T10:38:52.371Z</time>
      </trkpt>
      <trkpt lat="45.60147" lon="4.72577">
        <ele>264</ele>
        <time>2015-10-18T10:38:53.398Z</time>
      </trkpt>
      <trkpt lat="45.60147" lon="4.72571">
        <ele>264</ele>
        <time>2015-10-18T10:38:54.331Z</time>
      </trkpt>
      <trkpt lat="45.60152" lon="4.72564">
        <ele>264</ele>
        <time>2015-10-18T10:38:57.442Z</time>
      </trkpt>
      <trkpt lat="45.60154" lon="4.7256">
        <ele>264</ele>
        <time>2015-10-18T10:38:58.337Z</time>
      </trkpt>
      <trkpt lat="45.60161" lon="4.72552">
        <ele>263</ele>
        <time>2015-10-18T10:39:00.371Z</time>
      </trkpt>
      <trkpt lat="45.60166" lon="4.72547">
        <ele>263</ele>
        <time>2015-10-18T10:39:01.316Z</time>
      </trkpt>
      <trkpt lat="45.60173" lon="4.72541">
        <ele>265</ele>
        <time>2015-10-18T10:39:02.350Z</time>
      </trkpt>
      <trkpt lat="45.60179" lon="4.72534">
        <ele>265</ele>
        <time>2015-10-18T10:39:03.300Z</time>
      </trkpt>
      <trkpt lat="45.60187" lon="4.72528">
        <ele>265</ele>
        <time>2015-10-18T10:39:04.331Z</time>
      </trkpt>
      <trkpt lat="45.60191" lon="4.72522">
        <ele>265</ele>
        <time>2015-10-18T10:39:05.336Z</time>
      </trkpt>
      <trkpt lat="45.60197" lon="4.72515">
        <ele>265</ele>
        <time>2015-10-18T10:39:29.355Z</time>
      </trkpt>
      <trkpt lat="45.60198" lon="4.72513">
        <ele>265</ele>
        <time>2015-10-18T10:39:30.327Z</time>
      </trkpt>
      <trkpt lat="45.60199" lon="4.72504">
        <ele>265</ele>
        <time>2015-10-18T10:39:35.360Z</time>
      </trkpt>
      <trkpt lat="45.60199" lon="4.725">
        <ele>264</ele>
        <time>2015-10-18T10:39:36.321Z</time>
      </trkpt>
      <trkpt lat="45.60195" lon="4.72489">
        <ele>264</ele>
        <time>2015-10-18T10:39:41.389Z</time>
      </trkpt>
      <trkpt lat="45.60194" lon="4.72489">
        <ele>264</ele>
        <time>2015-10-18T10:39:42.342Z</time>
      </trkpt>
      <trkpt lat="45.60194" lon="4.72479">
        <ele>264</ele>
        <time>2015-10-18T10:39:50.379Z</time>
      </trkpt>
      <trkpt lat="45.60194" lon="4.72476">
        <ele>264</ele>
        <time>2015-10-18T10:39:51.340Z</time>
      </trkpt>
      <trkpt lat="45.60194" lon="4.7247">
        <ele>264</ele>
        <time>2015-10-18T10:39:55.364Z</time>
      </trkpt>
      <trkpt lat="45.60195" lon="4.72464">
        <ele>265</ele>
        <time>2015-10-18T10:39:56.328Z</time>
      </trkpt>
      <trkpt lat="45.60189" lon="4.72457">
        <ele>265</ele>
        <time>2015-10-18T10:40:01.369Z</time>
      </trkpt>
      <trkpt lat="45.60186" lon="4.72457">
        <ele>265</ele>
        <time>2015-10-18T10:40:02.341Z</time>
      </trkpt>
      <trkpt lat="45.6018" lon="4.72464">
        <ele>264</ele>
        <time>2015-10-18T10:40:08.366Z</time>
      </trkpt>
      <trkpt lat="45.60177" lon="4.72464">
        <ele>264</ele>
        <time>2015-10-18T10:40:09.332Z</time>
      </trkpt>
      <trkpt lat="45.60171" lon="4.72472">
        <ele>263</ele>
        <time>2015-10-18T10:40:18.363Z</time>
      </trkpt>
      <trkpt lat="45.60169" lon="4.72472">
        <ele>263</ele>
        <time>2015-10-18T10:40:19.328Z</time>
      </trkpt>
      <trkpt lat="45.60161" lon="4.72472">
        <ele>262</ele>
        <time>2015-10-18T10:40:28.367Z</time>
      </trkpt>
      <trkpt lat="45.6016" lon="4.72472">
        <ele>262</ele>
        <time>2015-10-18T10:40:29.329Z</time>
      </trkpt>
      <trkpt lat="45.60151" lon="4.72472">
        <ele>263</ele>
        <time>2015-10-18T10:40:39.368Z</time>
      </trkpt>
      <trkpt lat="45.6015" lon="4.72472">
        <ele>263</ele>
        <time>2015-10-18T10:40:40.336Z</time>
      </trkpt>
      <trkpt lat="45.60143" lon="4.72472">
        <ele>263</ele>
        <time>2015-10-18T10:40:47.387Z</time>
      </trkpt>
      <trkpt lat="45.6014" lon="4.7247">
        <ele>263</ele>
        <time>2015-10-18T10:40:48.340Z</time>
      </trkpt>
      <trkpt lat="45.60132" lon="4.72468">
        <ele>264</ele>
        <time>2015-10-18T10:40:54.401Z</time>
      </trkpt>
      <trkpt lat="45.60131" lon="4.72468">
        <ele>264</ele>
        <time>2015-10-18T10:40:55.351Z</time>
      </trkpt>
      <trkpt lat="45.60122" lon="4.72468">
        <ele>264</ele>
        <time>2015-10-18T10:41:01.402Z</time>
      </trkpt>
      <trkpt lat="45.6012" lon="4.72468">
        <ele>264</ele>
        <time>2015-10-18T10:41:02.369Z</time>
      </trkpt>
      <trkpt lat="45.60112" lon="4.7247">
        <ele>265</ele>
        <time>2015-10-18T10:41:12.389Z</time>
      </trkpt>
      <trkpt lat="45.60109" lon="4.7247">
        <ele>265</ele>
        <time>2015-10-18T10:41:13.368Z</time>
      </trkpt>
      <trkpt lat="45.60102" lon="4.72474">
        <ele>266</ele>
        <time>2015-10-18T10:41:21.508Z</time>
      </trkpt>
      <trkpt lat="45.60101" lon="4.72474">
        <ele>266</ele>
        <time>2015-10-18T10:41:22.362Z</time>
      </trkpt>
      <trkpt lat="45.60093" lon="4.72479">
        <ele>266</ele>
        <time>2015-10-18T10:41:29.413Z</time>
      </trkpt>
      <trkpt lat="45.60092" lon="4.72479">
        <ele>266</ele>
        <time>2015-10-18T10:41:30.362Z</time>
      </trkpt>
      <trkpt lat="45.60086" lon="4.72487">
        <ele>268</ele>
        <time>2015-10-18T10:41:36.413Z</time>
      </trkpt>
      <trkpt lat="45.60085" lon="4.72487">
        <ele>268</ele>
        <time>2015-10-18T10:41:37.375Z</time>
      </trkpt>
      <trkpt lat="45.60076" lon="4.72489">
        <ele>271</ele>
        <time>2015-10-18T10:41:44.408Z</time>
      </trkpt>
      <trkpt lat="45.60075" lon="4.72489">
        <ele>271</ele>
        <time>2015-10-18T10:41:45.376Z</time>
      </trkpt>
      <trkpt lat="45.60069" lon="4.72498">
        <ele>271</ele>
        <time>2015-10-18T10:41:53.413Z</time>
      </trkpt>
      <trkpt lat="45.60068" lon="4.72498">
        <ele>271</ele>
        <time>2015-10-18T10:41:54.375Z</time>
      </trkpt>
      <trkpt lat="45.60059" lon="4.72496">
        <ele>272</ele>
        <time>2015-10-18T10:42:05.408Z</time>
      </trkpt>
      <trkpt lat="45.60057" lon="4.72496">
        <ele>272</ele>
        <time>2015-10-18T10:42:06.377Z</time>
      </trkpt>
      <trkpt lat="45.60049" lon="4.72494">
        <ele>273</ele>
        <time>2015-10-18T10:42:13.414Z</time>
      </trkpt>
      <trkpt lat="45.60048" lon="4.72492">
        <ele>273</ele>
        <time>2015-10-18T10:42:14.383Z</time>
      </trkpt>
      <trkpt lat="45.6004" lon="4.72494">
        <ele>274</ele>
        <time>2015-10-18T10:42:19.424Z</time>
      </trkpt>
      <trkpt lat="45.60039" lon="4.72494">
        <ele>274</ele>
        <time>2015-10-18T10:42:20.366Z</time>
      </trkpt>
      <trkpt lat="45.6003" lon="4.72496">
        <ele>275</ele>
        <time>2015-10-18T10:42:30.427Z</time>
      </trkpt>
      <trkpt lat="45.60029" lon="4.72496">
        <ele>275</ele>
        <time>2015-10-18T10:42:31.391Z</time>
      </trkpt>
      <trkpt lat="45.6002" lon="4.72494">
        <ele>276</ele>
        <time>2015-10-18T10:42:38.414Z</time>
      </trkpt>
      <trkpt lat="45.60018" lon="4.72492">
        <ele>276</ele>
        <time>2015-10-18T10:42:39.367Z</time>
      </trkpt>
      <trkpt lat="45.6001" lon="4.72489">
        <ele>277</ele>
        <time>2015-10-18T10:42:45.439Z</time>
      </trkpt>
      <trkpt lat="45.60009" lon="4.72489">
        <ele>277</ele>
        <time>2015-10-18T10:42:46.406Z</time>
      </trkpt>
      <trkpt lat="45.6" lon="4.72487">
        <ele>281</ele>
        <time>2015-10-18T10:42:53.410Z</time>
      </trkpt>
      <trkpt lat="45.59998" lon="4.72487">
        <ele>281</ele>
        <time>2015-10-18T10:42:54.370Z</time>
      </trkpt>
      <trkpt lat="45.59989" lon="4.72487">
        <ele>282</ele>
        <time>2015-10-18T10:43:00.408Z</time>
      </trkpt>
      <trkpt lat="45.59988" lon="4.72487">
        <ele>282</ele>
        <time>2015-10-18T10:43:01.373Z</time>
      </trkpt>
      <trkpt lat="45.5998" lon="4.72489">
        <ele>282</ele>
        <time>2015-10-18T10:43:07.431Z</time>
      </trkpt>
      <trkpt lat="45.59977" lon="4.72489">
        <ele>282</ele>
        <time>2015-10-18T10:43:08.407Z</time>
      </trkpt>
      <trkpt lat="45.5997" lon="4.72487">
        <ele>283</ele>
        <time>2015-10-18T10:43:13.416Z</time>
      </trkpt>
      <trkpt lat="45.59968" lon="4.72487">
        <ele>283</ele>
        <time>2015-10-18T10:43:14.398Z</time>
      </trkpt>
      <trkpt lat="45.59959" lon="4.72489">
        <ele>284</ele>
        <time>2015-10-18T10:43:20.444Z</time>
      </trkpt>
      <trkpt lat="45.59957" lon="4.72489">
        <ele>284</ele>
        <time>2015-10-18T10:43:21.405Z</time>
      </trkpt>
      <trkpt lat="45.5995" lon="4.72489">
        <ele>284</ele>
        <time>2015-10-18T10:43:26.449Z</time>
      </trkpt>
      <trkpt lat="45.59947" lon="4.72489">
        <ele>284</ele>
        <time>2015-10-18T10:43:27.385Z</time>
      </trkpt>
      <trkpt lat="45.59939" lon="4.72489">
        <ele>285</ele>
        <time>2015-10-18T10:43:31.415Z</time>
      </trkpt>
      <trkpt lat="45.59937" lon="4.72489">
        <ele>285</ele>
        <time>2015-10-18T10:43:32.378Z</time>
      </trkpt>
      <trkpt lat="45.59929" lon="4.72492">
        <ele>286</ele>
        <time>2015-10-18T10:43:35.418Z</time>
      </trkpt>
      <trkpt lat="45.59926" lon="4.72492">
        <ele>286</ele>
        <time>2015-10-18T10:43:36.388Z</time>
      </trkpt>
      <trkpt lat="45.59918" lon="4.72489">
        <ele>287</ele>
        <time>2015-10-18T10:43:39.416Z</time>
      </trkpt>
      <trkpt lat="45.59916" lon="4.72489">
        <ele>289</ele>
        <time>2015-10-18T10:43:40.379Z</time>
      </trkpt>
      <trkpt lat="45.5991" lon="4.72492">
        <ele>289</ele>
        <time>2015-10-18T10:43:43.413Z</time>
      </trkpt>
      <trkpt lat="45.59907" lon="4.72492">
        <ele>289</ele>
        <time>2015-10-18T10:43:44.378Z</time>
      </trkpt>
      <trkpt lat="45.59898" lon="4.72492">
        <ele>289</ele>
        <time>2015-10-18T10:43:47.409Z</time>
      </trkpt>
      <trkpt lat="45.59895" lon="4.72489">
        <ele>289</ele>
        <time>2015-10-18T10:43:48.381Z</time>
      </trkpt>
      <trkpt lat="45.59887" lon="4.72487">
        <ele>290</ele>
        <time>2015-10-18T10:43:51.448Z</time>
      </trkpt>
      <trkpt lat="45.59884" lon="4.72485">
        <ele>290</ele>
        <time>2015-10-18T10:43:52.405Z</time>
      </trkpt>
      <trkpt lat="45.59878" lon="4.72481">
        <ele>290</ele>
        <time>2015-10-18T10:43:55.418Z</time>
      </trkpt>
      <trkpt lat="45.59874" lon="4.72481">
        <ele>290</ele>
        <time>2015-10-18T10:43:56.380Z</time>
      </trkpt>
      <trkpt lat="45.59867" lon="4.72476">
        <ele>290</ele>
        <time>2015-10-18T10:43:59.406Z</time>
      </trkpt>
      <trkpt lat="45.59865" lon="4.72474">
        <ele>290</ele>
        <time>2015-10-18T10:44:00.361Z</time>
      </trkpt>
      <trkpt lat="45.59858" lon="4.72472">
        <ele>290</ele>
        <time>2015-10-18T10:44:02.432Z</time>
      </trkpt>
      <trkpt lat="45.59856" lon="4.7247">
        <ele>291</ele>
        <time>2015-10-18T10:44:03.418Z</time>
      </trkpt>
      <trkpt lat="45.59849" lon="4.72466">
        <ele>291</ele>
        <time>2015-10-18T10:44:06.428Z</time>
      </trkpt>
      <trkpt lat="45.59845" lon="4.72464">
        <ele>291</ele>
        <time>2015-10-18T10:44:07.386Z</time>
      </trkpt>
      <trkpt lat="45.59838" lon="4.72459">
        <ele>291</ele>
        <time>2015-10-18T10:44:10.417Z</time>
      </trkpt>
      <trkpt lat="45.59835" lon="4.72459">
        <ele>291</ele>
        <time>2015-10-18T10:44:11.384Z</time>
      </trkpt>
      <trkpt lat="45.59827" lon="4.72453">
        <ele>293</ele>
        <time>2015-10-18T10:44:14.415Z</time>
      </trkpt>
      <trkpt lat="45.59825" lon="4.72453">
        <ele>293</ele>
        <time>2015-10-18T10:44:15.389Z</time>
      </trkpt>
      <trkpt lat="45.59819" lon="4.72449">
        <ele>293</ele>
        <time>2015-10-18T10:44:17.428Z</time>
      </trkpt>
      <trkpt lat="45.59816" lon="4.72446">
        <ele>293</ele>
        <time>2015-10-18T10:44:18.385Z</time>
      </trkpt>
      <trkpt lat="45.59809" lon="4.72442">
        <ele>293</ele>
        <time>2015-10-18T10:44:21.431Z</time>
      </trkpt>
      <trkpt lat="45.59807" lon="4.7244">
        <ele>293</ele>
        <time>2015-10-18T10:44:22.394Z</time>
      </trkpt>
      <trkpt lat="45.59799" lon="4.72438">
        <ele>293</ele>
        <time>2015-10-18T10:44:25.440Z</time>
      </trkpt>
      <trkpt lat="45.59797" lon="4.72436">
        <ele>293</ele>
        <time>2015-10-18T10:44:26.403Z</time>
      </trkpt>
      <trkpt lat="45.5979" lon="4.72434">
        <ele>293</ele>
        <time>2015-10-18T10:44:29.443Z</time>
      </trkpt>
      <trkpt lat="45.59786" lon="4.72431">
        <ele>293</ele>
        <time>2015-10-18T10:44:30.401Z</time>
      </trkpt>
      <trkpt lat="45.59779" lon="4.72427">
        <ele>293</ele>
        <time>2015-10-18T10:44:33.482Z</time>
      </trkpt>
      <trkpt lat="45.59776" lon="4.72427">
        <ele>293</ele>
        <time>2015-10-18T10:44:34.396Z</time>
      </trkpt>
      <trkpt lat="45.59769" lon="4.72423">
        <ele>293</ele>
        <time>2015-10-18T10:44:37.421Z</time>
      </trkpt>
      <trkpt lat="45.59766" lon="4.72421">
        <ele>294</ele>
        <time>2015-10-18T10:44:38.395Z</time>
      </trkpt>
      <trkpt lat="45.59759" lon="4.72419">
        <ele>294</ele>
        <time>2015-10-18T10:44:41.440Z</time>
      </trkpt>
      <trkpt lat="45.59757" lon="4.72416">
        <ele>294</ele>
        <time>2015-10-18T10:44:42.393Z</time>
      </trkpt>
      <trkpt lat="45.5975" lon="4.72412">
        <ele>294</ele>
        <time>2015-10-18T10:44:45.426Z</time>
      </trkpt>
      <trkpt lat="45.59748" lon="4.72412">
        <ele>294</ele>
        <time>2015-10-18T10:44:46.393Z</time>
      </trkpt>
      <trkpt lat="45.5974" lon="4.72406">
        <ele>294</ele>
        <time>2015-10-18T10:44:50.432Z</time>
      </trkpt>
      <trkpt lat="45.59738" lon="4.72406">
        <ele>294</ele>
        <time>2015-10-18T10:44:51.396Z</time>
      </trkpt>
      <trkpt lat="45.59733" lon="4.72414">
        <ele>294</ele>
        <time>2015-10-18T10:44:55.446Z</time>
      </trkpt>
      <trkpt lat="45.59731" lon="4.72416">
        <ele>294</ele>
        <time>2015-10-18T10:44:56.386Z</time>
      </trkpt>
      <trkpt lat="45.5973" lon="4.72427">
        <ele>294</ele>
        <time>2015-10-18T10:45:05.428Z</time>
      </trkpt>
      <trkpt lat="45.59731" lon="4.72429">
        <ele>294</ele>
        <time>2015-10-18T10:45:06.413Z</time>
      </trkpt>
      <trkpt lat="45.59731" lon="4.7244">
        <ele>294</ele>
        <time>2015-10-18T10:45:13.421Z</time>
      </trkpt>
      <trkpt lat="45.59732" lon="4.72442">
        <ele>294</ele>
        <time>2015-10-18T10:45:14.404Z</time>
      </trkpt>
      <trkpt lat="45.59731" lon="4.72453">
        <ele>294</ele>
        <time>2015-10-18T10:45:18.420Z</time>
      </trkpt>
      <trkpt lat="45.5973" lon="4.72457">
        <ele>294</ele>
        <time>2015-10-18T10:45:19.389Z</time>
      </trkpt>
      <trkpt lat="45.5973" lon="4.72468">
        <ele>294</ele>
        <time>2015-10-18T10:45:25.446Z</time>
      </trkpt>
      <trkpt lat="45.59729" lon="4.7247">
        <ele>294</ele>
        <time>2015-10-18T10:45:26.421Z</time>
      </trkpt>
      <trkpt lat="45.59724" lon="4.72481">
        <ele>294</ele>
        <time>2015-10-18T10:45:32.440Z</time>
      </trkpt>
      <trkpt lat="45.59723" lon="4.72483">
        <ele>294</ele>
        <time>2015-10-18T10:45:33.395Z</time>
      </trkpt>
      <trkpt lat="45.5972" lon="4.72492">
        <ele>294</ele>
        <time>2015-10-18T10:45:36.415Z</time>
      </trkpt>
      <trkpt lat="45.59716" lon="4.72494">
        <ele>294</ele>
        <time>2015-10-18T10:45:37.382Z</time>
      </trkpt>
      <trkpt lat="45.59709" lon="4.725">
        <ele>294</ele>
        <time>2015-10-18T10:45:40.445Z</time>
      </trkpt>
      <trkpt lat="45.59706" lon="4.725">
        <ele>294</ele>
        <time>2015-10-18T10:45:41.372Z</time>
      </trkpt>
      <trkpt lat="45.59697" lon="4.72498">
        <ele>294</ele>
        <time>2015-10-18T10:45:43.399Z</time>
      </trkpt>
      <trkpt lat="45.59692" lon="4.725">
        <ele>293</ele>
        <time>2015-10-18T10:45:44.374Z</time>
      </trkpt>
      <trkpt lat="45.59688" lon="4.72504">
        <ele>293</ele>
        <time>2015-10-18T10:45:45.404Z</time>
      </trkpt>
      <trkpt lat="45.59686" lon="4.72511">
        <ele>293</ele>
        <time>2015-10-18T10:45:46.364Z</time>
      </trkpt>
      <trkpt lat="45.59682" lon="4.72519">
        <ele>293</ele>
        <time>2015-10-18T10:45:48.369Z</time>
      </trkpt>
      <trkpt lat="45.59682" lon="4.72526">
        <ele>293</ele>
        <time>2015-10-18T10:45:49.406Z</time>
      </trkpt>
      <trkpt lat="45.5968" lon="4.72537">
        <ele>293</ele>
        <time>2015-10-18T10:45:51.430Z</time>
      </trkpt>
      <trkpt lat="45.59679" lon="4.72543">
        <ele>293</ele>
        <time>2015-10-18T10:45:52.375Z</time>
      </trkpt>
      <trkpt lat="45.59678" lon="4.72549">
        <ele>293</ele>
        <time>2015-10-18T10:45:53.411Z</time>
      </trkpt>
      <trkpt lat="45.59677" lon="4.72556">
        <ele>293</ele>
        <time>2015-10-18T10:45:54.397Z</time>
      </trkpt>
      <trkpt lat="45.59676" lon="4.72562">
        <ele>293</ele>
        <time>2015-10-18T10:45:55.420Z</time>
      </trkpt>
      <trkpt lat="45.59675" lon="4.72569">
        <ele>293</ele>
        <time>2015-10-18T10:45:56.392Z</time>
      </trkpt>
      <trkpt lat="45.59674" lon="4.72575">
        <ele>292</ele>
        <time>2015-10-18T10:45:57.423Z</time>
      </trkpt>
      <trkpt lat="45.59672" lon="4.72582">
        <ele>292</ele>
        <time>2015-10-18T10:45:58.390Z</time>
      </trkpt>
      <trkpt lat="45.59671" lon="4.7259">
        <ele>292</ele>
        <time>2015-10-18T10:45:59.426Z</time>
      </trkpt>
      <trkpt lat="45.59671" lon="4.72599">
        <ele>292</ele>
        <time>2015-10-18T10:46:00.381Z</time>
      </trkpt>
      <trkpt lat="45.59669" lon="4.72607">
        <ele>291</ele>
        <time>2015-10-18T10:46:01.415Z</time>
      </trkpt>
      <trkpt lat="45.59668" lon="4.72614">
        <ele>291</ele>
        <time>2015-10-18T10:46:02.399Z</time>
      </trkpt>
      <trkpt lat="45.59667" lon="4.72622">
        <ele>291</ele>
        <time>2015-10-18T10:46:03.397Z</time>
      </trkpt>
      <trkpt lat="45.59667" lon="4.72633">
        <ele>290</ele>
        <time>2015-10-18T10:46:04.382Z</time>
      </trkpt>
      <trkpt lat="45.59666" lon="4.72644">
        <ele>288</ele>
        <time>2015-10-18T10:46:05.524Z</time>
      </trkpt>
      <trkpt lat="45.59664" lon="4.72652">
        <ele>288</ele>
        <time>2015-10-18T10:46:06.377Z</time>
      </trkpt>
      <trkpt lat="45.59662" lon="4.72661">
        <ele>288</ele>
        <time>2015-10-18T10:46:07.413Z</time>
      </trkpt>
      <trkpt lat="45.5966" lon="4.72672">
        <ele>287</ele>
        <time>2015-10-18T10:46:08.384Z</time>
      </trkpt>
      <trkpt lat="45.59658" lon="4.7268">
        <ele>286</ele>
        <time>2015-10-18T10:46:09.407Z</time>
      </trkpt>
      <trkpt lat="45.59657" lon="4.72691">
        <ele>286</ele>
        <time>2015-10-18T10:46:10.392Z</time>
      </trkpt>
      <trkpt lat="45.59654" lon="4.727">
        <ele>285</ele>
        <time>2015-10-18T10:46:11.415Z</time>
      </trkpt>
      <trkpt lat="45.59651" lon="4.72708">
        <ele>285</ele>
        <time>2015-10-18T10:46:12.383Z</time>
      </trkpt>
      <trkpt lat="45.59647" lon="4.72717">
        <ele>285</ele>
        <time>2015-10-18T10:46:13.422Z</time>
      </trkpt>
      <trkpt lat="45.59645" lon="4.72725">
        <ele>285</ele>
        <time>2015-10-18T10:46:14.389Z</time>
      </trkpt>
      <trkpt lat="45.59642" lon="4.72732">
        <ele>285</ele>
        <time>2015-10-18T10:46:15.431Z</time>
      </trkpt>
      <trkpt lat="45.59638" lon="4.72743">
        <ele>284</ele>
        <time>2015-10-18T10:46:16.417Z</time>
      </trkpt>
      <trkpt lat="45.59634" lon="4.72751">
        <ele>283</ele>
        <time>2015-10-18T10:46:17.413Z</time>
      </trkpt>
      <trkpt lat="45.59629" lon="4.72758">
        <ele>283</ele>
        <time>2015-10-18T10:46:18.394Z</time>
      </trkpt>
      <trkpt lat="45.59627" lon="4.72766">
        <ele>283</ele>
        <time>2015-10-18T10:46:19.411Z</time>
      </trkpt>
      <trkpt lat="45.59626" lon="4.72775">
        <ele>283</ele>
        <time>2015-10-18T10:46:20.405Z</time>
      </trkpt>
      <trkpt lat="45.59626" lon="4.72783">
        <ele>282</ele>
        <time>2015-10-18T10:46:21.428Z</time>
      </trkpt>
      <trkpt lat="45.59628" lon="4.72792">
        <ele>282</ele>
        <time>2015-10-18T10:46:22.377Z</time>
      </trkpt>
      <trkpt lat="45.59629" lon="4.72803">
        <ele>282</ele>
        <time>2015-10-18T10:46:23.420Z</time>
      </trkpt>
      <trkpt lat="45.59632" lon="4.72811">
        <ele>282</ele>
        <time>2015-10-18T10:46:24.383Z</time>
      </trkpt>
      <trkpt lat="45.59633" lon="4.72822">
        <ele>282</ele>
        <time>2015-10-18T10:46:25.426Z</time>
      </trkpt>
      <trkpt lat="45.59634" lon="4.72831">
        <ele>282</ele>
        <time>2015-10-18T10:46:26.384Z</time>
      </trkpt>
      <trkpt lat="45.59633" lon="4.72841">
        <ele>281</ele>
        <time>2015-10-18T10:46:27.439Z</time>
      </trkpt>
      <trkpt lat="45.59633" lon="4.7285">
        <ele>281</ele>
        <time>2015-10-18T10:46:28.389Z</time>
      </trkpt>
      <trkpt lat="45.59632" lon="4.72858">
        <ele>281</ele>
        <time>2015-10-18T10:46:29.435Z</time>
      </trkpt>
      <trkpt lat="45.5963" lon="4.72865">
        <ele>280</ele>
        <time>2015-10-18T10:46:30.377Z</time>
      </trkpt>
      <trkpt lat="45.59629" lon="4.72873">
        <ele>280</ele>
        <time>2015-10-18T10:46:31.415Z</time>
      </trkpt>
      <trkpt lat="45.59628" lon="4.72882">
        <ele>280</ele>
        <time>2015-10-18T10:46:32.372Z</time>
      </trkpt>
      <trkpt lat="45.59623" lon="4.72888">
        <ele>280</ele>
        <time>2015-10-18T10:46:33.417Z</time>
      </trkpt>
      <trkpt lat="45.59623" lon="4.72897">
        <ele>280</ele>
        <time>2015-10-18T10:46:34.375Z</time>
      </trkpt>
      <trkpt lat="45.59626" lon="4.72903">
        <ele>280</ele>
        <time>2015-10-18T10:46:35.418Z</time>
      </trkpt>
      <trkpt lat="45.59626" lon="4.7291">
        <ele>280</ele>
        <time>2015-10-18T10:46:36.395Z</time>
      </trkpt>
      <trkpt lat="45.59626" lon="4.72916">
        <ele>280</ele>
        <time>2015-10-18T10:46:37.428Z</time>
      </trkpt>
      <trkpt lat="45.59626" lon="4.72923">
        <ele>280</ele>
        <time>2015-10-18T10:46:38.384Z</time>
      </trkpt>
      <trkpt lat="45.59627" lon="4.72929">
        <ele>280</ele>
        <time>2015-10-18T10:46:39.420Z</time>
      </trkpt>
      <trkpt lat="45.59627" lon="4.72936">
        <ele>280</ele>
        <time>2015-10-18T10:46:40.391Z</time>
      </trkpt>
      <trkpt lat="45.59624" lon="4.72946">
        <ele>280</ele>
        <time>2015-10-18T10:46:42.419Z</time>
      </trkpt>
      <trkpt lat="45.59624" lon="4.72951">
        <ele>280</ele>
        <time>2015-10-18T10:46:43.373Z</time>
      </trkpt>
      <trkpt lat="45.59624" lon="4.72961">
        <ele>280</ele>
        <time>2015-10-18T10:46:45.435Z</time>
      </trkpt>
      <trkpt lat="45.59621" lon="4.72968">
        <ele>280</ele>
        <time>2015-10-18T10:46:46.407Z</time>
      </trkpt>
      <trkpt lat="45.59619" lon="4.72979">
        <ele>280</ele>
        <time>2015-10-18T10:46:48.428Z</time>
      </trkpt>
      <trkpt lat="45.59617" lon="4.72983">
        <ele>280</ele>
        <time>2015-10-18T10:46:49.411Z</time>
      </trkpt>
      <trkpt lat="45.59614" lon="4.72994">
        <ele>279</ele>
        <time>2015-10-18T10:46:52.440Z</time>
      </trkpt>
      <trkpt lat="45.59613" lon="4.72998">
        <ele>279</ele>
        <time>2015-10-18T10:46:53.405Z</time>
      </trkpt>
      <trkpt lat="45.5961" lon="4.73009">
        <ele>279</ele>
        <time>2015-10-18T10:46:56.417Z</time>
      </trkpt>
      <trkpt lat="45.59609" lon="4.73013">
        <ele>279</ele>
        <time>2015-10-18T10:46:57.392Z</time>
      </trkpt>
      <trkpt lat="45.59608" lon="4.73024">
        <ele>279</ele>
        <time>2015-10-18T10:47:00.446Z</time>
      </trkpt>
      <trkpt lat="45.59608" lon="4.73026">
        <ele>279</ele>
        <time>2015-10-18T10:47:01.409Z</time>
      </trkpt>
      <trkpt lat="45.59606" lon="4.73037">
        <ele>279</ele>
        <time>2015-10-18T10:47:05.421Z</time>
      </trkpt>
      <trkpt lat="45.59605" lon="4.73039">
        <ele>279</ele>
        <time>2015-10-18T10:47:06.415Z</time>
      </trkpt>
      <trkpt lat="45.59602" lon="4.73049">
        <ele>278</ele>
        <time>2015-10-18T10:47:08.448Z</time>
      </trkpt>
      <trkpt lat="45.59599" lon="4.73056">
        <ele>278</ele>
        <time>2015-10-18T10:47:09.405Z</time>
      </trkpt>
      <trkpt lat="45.59594" lon="4.73067">
        <ele>277</ele>
        <time>2015-10-18T10:47:11.468Z</time>
      </trkpt>
      <trkpt lat="45.59593" lon="4.73075">
        <ele>277</ele>
        <time>2015-10-18T10:47:12.475Z</time>
      </trkpt>
      <trkpt lat="45.59585" lon="4.73075">
        <ele>276</ele>
        <time>2015-10-18T10:47:15.411Z</time>
      </trkpt>
      <trkpt lat="45.5958" lon="4.73071">
        <ele>274</ele>
        <time>2015-10-18T10:47:16.366Z</time>
      </trkpt>
      <trkpt lat="45.59573" lon="4.73067">
        <ele>274</ele>
        <time>2015-10-18T10:47:18.420Z</time>
      </trkpt>
      <trkpt lat="45.5957" lon="4.73062">
        <ele>274</ele>
        <time>2015-10-18T10:47:19.384Z</time>
      </trkpt>
      <trkpt lat="45.59563" lon="4.73058">
        <ele>273</ele>
        <time>2015-10-18T10:47:21.423Z</time>
      </trkpt>
      <trkpt lat="45.59561" lon="4.73054">
        <ele>273</ele>
        <time>2015-10-18T10:47:22.382Z</time>
      </trkpt>
      <trkpt lat="45.59554" lon="4.73047">
        <ele>273</ele>
        <time>2015-10-18T10:47:24.411Z</time>
      </trkpt>
      <trkpt lat="45.5955" lon="4.73045">
        <ele>273</ele>
        <time>2015-10-18T10:47:25.387Z</time>
      </trkpt>
      <trkpt lat="45.59544" lon="4.73041">
        <ele>273</ele>
        <time>2015-10-18T10:47:27.407Z</time>
      </trkpt>
      <trkpt lat="45.59539" lon="4.73039">
        <ele>272</ele>
        <time>2015-10-18T10:47:28.387Z</time>
      </trkpt>
      <trkpt lat="45.59531" lon="4.73032">
        <ele>272</ele>
        <time>2015-10-18T10:47:30.387Z</time>
      </trkpt>
      <trkpt lat="45.59529" lon="4.73037">
        <ele>272</ele>
        <time>2015-10-18T10:47:31.369Z</time>
      </trkpt>
      <trkpt lat="45.59529" lon="4.73045">
        <ele>272</ele>
        <time>2015-10-18T10:47:33.428Z</time>
      </trkpt>
      <trkpt lat="45.59531" lon="4.73052">
        <ele>272</ele>
        <time>2015-10-18T10:47:34.391Z</time>
      </trkpt>
      <trkpt lat="45.59533" lon="4.73058">
        <ele>272</ele>
        <time>2015-10-18T10:47:35.411Z</time>
      </trkpt>
      <trkpt lat="45.59535" lon="4.73064">
        <ele>272</ele>
        <time>2015-10-18T10:47:36.406Z</time>
      </trkpt>
      <trkpt lat="45.59541" lon="4.73073">
        <ele>272</ele>
        <time>2015-10-18T10:47:38.431Z</time>
      </trkpt>
      <trkpt lat="45.59543" lon="4.73079">
        <ele>272</ele>
        <time>2015-10-18T10:47:39.381Z</time>
      </trkpt>
      <trkpt lat="45.59547" lon="4.73084">
        <ele>271</ele>
        <time>2015-10-18T10:47:40.404Z</time>
      </trkpt>
      <trkpt lat="45.59549" lon="4.7309">
        <ele>271</ele>
        <time>2015-10-18T10:47:41.359Z</time>
      </trkpt>
      <trkpt lat="45.59554" lon="4.73101">
        <ele>271</ele>
        <time>2015-10-18T10:47:43.421Z</time>
      </trkpt>
      <trkpt lat="45.59558" lon="4.73105">
        <ele>271</ele>
        <time>2015-10-18T10:47:44.354Z</time>
      </trkpt>
      <trkpt lat="45.59561" lon="4.73109">
        <ele>271</ele>
        <time>2015-10-18T10:47:45.359Z</time>
      </trkpt>
      <trkpt lat="45.59564" lon="4.73116">
        <ele>270</ele>
        <time>2015-10-18T10:47:46.356Z</time>
      </trkpt>
      <trkpt lat="45.59566" lon="4.73122">
        <ele>270</ele>
        <time>2015-10-18T10:47:47.373Z</time>
      </trkpt>
      <trkpt lat="45.59571" lon="4.73129">
        <ele>270</ele>
        <time>2015-10-18T10:47:48.353Z</time>
      </trkpt>
      <trkpt lat="45.59576" lon="4.73137">
        <ele>269</ele>
        <time>2015-10-18T10:47:49.393Z</time>
      </trkpt>
      <trkpt lat="45.59579" lon="4.73146">
        <ele>268</ele>
        <time>2015-10-18T10:47:50.353Z</time>
      </trkpt>
      <trkpt lat="45.59583" lon="4.73157">
        <ele>267</ele>
        <time>2015-10-18T10:47:51.372Z</time>
      </trkpt>
      <trkpt lat="45.59587" lon="4.73165">
        <ele>266</ele>
        <time>2015-10-18T10:47:52.364Z</time>
      </trkpt>
      <trkpt lat="45.5959" lon="4.73174">
        <ele>266</ele>
        <time>2015-10-18T10:47:53.368Z</time>
      </trkpt>
      <trkpt lat="45.5959" lon="4.7318">
        <ele>266</ele>
        <time>2015-10-18T10:47:54.365Z</time>
      </trkpt>
      <trkpt lat="45.59592" lon="4.73187">
        <ele>266</ele>
        <time>2015-10-18T10:47:55.385Z</time>
      </trkpt>
      <trkpt lat="45.59594" lon="4.73193">
        <ele>266</ele>
        <time>2015-10-18T10:47:56.353Z</time>
      </trkpt>
      <trkpt lat="45.59595" lon="4.732">
        <ele>266</ele>
        <time>2015-10-18T10:47:57.379Z</time>
      </trkpt>
      <trkpt lat="45.59598" lon="4.73206">
        <ele>266</ele>
        <time>2015-10-18T10:47:58.343Z</time>
      </trkpt>
      <trkpt lat="45.59602" lon="4.73215">
        <ele>266</ele>
        <time>2015-10-18T10:48:00.375Z</time>
      </trkpt>
      <trkpt lat="45.59604" lon="4.73219">
        <ele>266</ele>
        <time>2015-10-18T10:48:01.323Z</time>
      </trkpt>
      <trkpt lat="45.59606" lon="4.73225">
        <ele>266</ele>
        <time>2015-10-18T10:48:02.379Z</time>
      </trkpt>
      <trkpt lat="45.59606" lon="4.73234">
        <ele>265</ele>
        <time>2015-10-18T10:48:03.307Z</time>
      </trkpt>
      <trkpt lat="45.59608" lon="4.73243">
        <ele>265</ele>
        <time>2015-10-18T10:48:04.338Z</time>
      </trkpt>
      <trkpt lat="45.59609" lon="4.73251">
        <ele>262</ele>
        <time>2015-10-18T10:48:05.311Z</time>
      </trkpt>
      <trkpt lat="45.59613" lon="4.7326">
        <ele>262</ele>
        <time>2015-10-18T10:48:06.364Z</time>
      </trkpt>
      <trkpt lat="45.59613" lon="4.73268">
        <ele>262</ele>
        <time>2015-10-18T10:48:07.319Z</time>
      </trkpt>
      <trkpt lat="45.59616" lon="4.73277">
        <ele>262</ele>
        <time>2015-10-18T10:48:08.355Z</time>
      </trkpt>
      <trkpt lat="45.59617" lon="4.73285">
        <ele>262</ele>
        <time>2015-10-18T10:48:09.352Z</time>
      </trkpt>
      <trkpt lat="45.5962" lon="4.73296">
        <ele>262</ele>
        <time>2015-10-18T10:48:10.352Z</time>
      </trkpt>
      <trkpt lat="45.5962" lon="4.73305">
        <ele>262</ele>
        <time>2015-10-18T10:48:11.339Z</time>
      </trkpt>
      <trkpt lat="45.5962" lon="4.73313">
        <ele>261</ele>
        <time>2015-10-18T10:48:12.358Z</time>
      </trkpt>
      <trkpt lat="45.59621" lon="4.73324">
        <ele>261</ele>
        <time>2015-10-18T10:48:13.315Z</time>
      </trkpt>
      <trkpt lat="45.5962" lon="4.73335">
        <ele>259</ele>
        <time>2015-10-18T10:48:14.337Z</time>
      </trkpt>
      <trkpt lat="45.5962" lon="4.73348">
        <ele>259</ele>
        <time>2015-10-18T10:48:15.353Z</time>
      </trkpt>
      <trkpt lat="45.59623" lon="4.73358">
        <ele>259</ele>
        <time>2015-10-18T10:48:16.358Z</time>
      </trkpt>
      <trkpt lat="45.59626" lon="4.73373">
        <ele>259</ele>
        <time>2015-10-18T10:48:17.323Z</time>
      </trkpt>
      <trkpt lat="45.59629" lon="4.73384">
        <ele>259</ele>
        <time>2015-10-18T10:48:18.365Z</time>
      </trkpt>
      <trkpt lat="45.59628" lon="4.73393">
        <ele>258</ele>
        <time>2015-10-18T10:48:19.336Z</time>
      </trkpt>
      <trkpt lat="45.59632" lon="4.73401">
        <ele>258</ele>
        <time>2015-10-18T10:48:21.347Z</time>
      </trkpt>
      <trkpt lat="45.59633" lon="4.73408">
        <ele>258</ele>
        <time>2015-10-18T10:48:22.334Z</time>
      </trkpt>
      <trkpt lat="45.59633" lon="4.73414">
        <ele>258</ele>
        <time>2015-10-18T10:48:23.330Z</time>
      </trkpt>
      <trkpt lat="45.59636" lon="4.73423">
        <ele>258</ele>
        <time>2015-10-18T10:48:24.310Z</time>
      </trkpt>
      <trkpt lat="45.59639" lon="4.73431">
        <ele>257</ele>
        <time>2015-10-18T10:48:25.344Z</time>
      </trkpt>
      <trkpt lat="45.59643" lon="4.7344">
        <ele>257</ele>
        <time>2015-10-18T10:48:26.362Z</time>
      </trkpt>
      <trkpt lat="45.59647" lon="4.73451">
        <ele>257</ele>
        <time>2015-10-18T10:48:27.339Z</time>
      </trkpt>
      <trkpt lat="45.5965" lon="4.73459">
        <ele>257</ele>
        <time>2015-10-18T10:48:28.324Z</time>
      </trkpt>
      <trkpt lat="45.59652" lon="4.7347">
        <ele>256</ele>
        <time>2015-10-18T10:48:29.368Z</time>
      </trkpt>
      <trkpt lat="45.59653" lon="4.73479">
        <ele>256</ele>
        <time>2015-10-18T10:48:30.331Z</time>
      </trkpt>
      <trkpt lat="45.59654" lon="4.73487">
        <ele>255</ele>
        <time>2015-10-18T10:48:31.412Z</time>
      </trkpt>
      <trkpt lat="45.59656" lon="4.73494">
        <ele>254</ele>
        <time>2015-10-18T10:48:32.336Z</time>
      </trkpt>
      <trkpt lat="45.59658" lon="4.73502">
        <ele>254</ele>
        <time>2015-10-18T10:48:33.357Z</time>
      </trkpt>
      <trkpt lat="45.5966" lon="4.73513">
        <ele>255</ele>
        <time>2015-10-18T10:48:34.341Z</time>
      </trkpt>
      <trkpt lat="45.59663" lon="4.73521">
        <ele>256</ele>
        <time>2015-10-18T10:48:35.367Z</time>
      </trkpt>
      <trkpt lat="45.59666" lon="4.7353">
        <ele>256</ele>
        <time>2015-10-18T10:48:36.348Z</time>
      </trkpt>
      <trkpt lat="45.59669" lon="4.73539">
        <ele>255</ele>
        <time>2015-10-18T10:48:37.376Z</time>
      </trkpt>
      <trkpt lat="45.59672" lon="4.73547">
        <ele>255</ele>
        <time>2015-10-18T10:48:38.337Z</time>
      </trkpt>
      <trkpt lat="45.59674" lon="4.73556">
        <ele>255</ele>
        <time>2015-10-18T10:48:39.375Z</time>
      </trkpt>
      <trkpt lat="45.59676" lon="4.73564">
        <ele>254</ele>
        <time>2015-10-18T10:48:40.357Z</time>
      </trkpt>
      <trkpt lat="45.59678" lon="4.73571">
        <ele>254</ele>
        <time>2015-10-18T10:48:41.431Z</time>
      </trkpt>
      <trkpt lat="45.5968" lon="4.73582">
        <ele>254</ele>
        <time>2015-10-18T10:48:42.372Z</time>
      </trkpt>
      <trkpt lat="45.59679" lon="4.73588">
        <ele>252</ele>
        <time>2015-10-18T10:48:43.387Z</time>
      </trkpt>
      <trkpt lat="45.59679" lon="4.73597">
        <ele>253</ele>
        <time>2015-10-18T10:48:44.324Z</time>
      </trkpt>
      <trkpt lat="45.5968" lon="4.73605">
        <ele>253</ele>
        <time>2015-10-18T10:48:45.348Z</time>
      </trkpt>
      <trkpt lat="45.59681" lon="4.73614">
        <ele>253</ele>
        <time>2015-10-18T10:48:46.323Z</time>
      </trkpt>
      <trkpt lat="45.59685" lon="4.73622">
        <ele>253</ele>
        <time>2015-10-18T10:48:47.338Z</time>
      </trkpt>
      <trkpt lat="45.59686" lon="4.73631">
        <ele>253</ele>
        <time>2015-10-18T10:48:48.326Z</time>
      </trkpt>
      <trkpt lat="45.59689" lon="4.73642">
        <ele>253</ele>
        <time>2015-10-18T10:48:49.351Z</time>
      </trkpt>
      <trkpt lat="45.59692" lon="4.73652">
        <ele>253</ele>
        <time>2015-10-18T10:48:50.323Z</time>
      </trkpt>
      <trkpt lat="45.59693" lon="4.73663">
        <ele>253</ele>
        <time>2015-10-18T10:48:51.348Z</time>
      </trkpt>
      <trkpt lat="45.59693" lon="4.73672">
        <ele>250</ele>
        <time>2015-10-18T10:48:52.326Z</time>
      </trkpt>
      <trkpt lat="45.59695" lon="4.7368">
        <ele>250</ele>
        <time>2015-10-18T10:48:53.462Z</time>
      </trkpt>
      <trkpt lat="45.59696" lon="4.73689">
        <ele>250</ele>
        <time>2015-10-18T10:48:54.321Z</time>
      </trkpt>
      <trkpt lat="45.59702" lon="4.73697">
        <ele>250</ele>
        <time>2015-10-18T10:48:55.354Z</time>
      </trkpt>
      <trkpt lat="45.59703" lon="4.73706">
        <ele>249</ele>
        <time>2015-10-18T10:48:56.341Z</time>
      </trkpt>
      <trkpt lat="45.59706" lon="4.73715">
        <ele>249</ele>
        <time>2015-10-18T10:48:58.360Z</time>
      </trkpt>
      <trkpt lat="45.59708" lon="4.73723">
        <ele>249</ele>
        <time>2015-10-18T10:48:59.332Z</time>
      </trkpt>
      <trkpt lat="45.59708" lon="4.73723">
        <ele>249</ele>
        <time>2015-10-18T10:48:59.360Z</time>
      </trkpt>
      <trkpt lat="45.59713" lon="4.73736">
        <ele>248</ele>
        <time>2015-10-18T10:49:00.327Z</time>
      </trkpt>
      <trkpt lat="45.59716" lon="4.73742">
        <ele>248</ele>
        <time>2015-10-18T10:49:01.355Z</time>
      </trkpt>
      <trkpt lat="45.59719" lon="4.73749">
        <ele>248</ele>
        <time>2015-10-18T10:49:02.334Z</time>
      </trkpt>
      <trkpt lat="45.59722" lon="4.73758">
        <ele>247</ele>
        <time>2015-10-18T10:49:04.383Z</time>
      </trkpt>
      <trkpt lat="45.59724" lon="4.73764">
        <ele>247</ele>
        <time>2015-10-18T10:49:05.335Z</time>
      </trkpt>
      <trkpt lat="45.59725" lon="4.7377">
        <ele>248</ele>
        <time>2015-10-18T10:49:06.356Z</time>
      </trkpt>
      <trkpt lat="45.5973" lon="4.73777">
        <ele>248</ele>
        <time>2015-10-18T10:49:07.330Z</time>
      </trkpt>
      <trkpt lat="45.59735" lon="4.73781">
        <ele>247</ele>
        <time>2015-10-18T10:49:08.367Z</time>
      </trkpt>
      <trkpt lat="45.59739" lon="4.7379">
        <ele>248</ele>
        <time>2015-10-18T10:49:09.311Z</time>
      </trkpt>
      <trkpt lat="45.59744" lon="4.73796">
        <ele>247</ele>
        <time>2015-10-18T10:49:10.359Z</time>
      </trkpt>
      <trkpt lat="45.59748" lon="4.738">
        <ele>247</ele>
        <time>2015-10-18T10:49:11.333Z</time>
      </trkpt>
      <trkpt lat="45.59752" lon="4.73805">
        <ele>245</ele>
        <time>2015-10-18T10:49:12.370Z</time>
      </trkpt>
      <trkpt lat="45.59757" lon="4.73807">
        <ele>245</ele>
        <time>2015-10-18T10:49:13.333Z</time>
      </trkpt>
      <trkpt lat="45.59764" lon="4.73811">
        <ele>245</ele>
        <time>2015-10-18T10:49:14.358Z</time>
      </trkpt>
      <trkpt lat="45.59772" lon="4.73815">
        <ele>245</ele>
        <time>2015-10-18T10:49:15.360Z</time>
      </trkpt>
      <trkpt lat="45.5978" lon="4.73818">
        <ele>245</ele>
        <time>2015-10-18T10:49:16.346Z</time>
      </trkpt>
      <trkpt lat="45.59786" lon="4.73822">
        <ele>245</ele>
        <time>2015-10-18T10:49:17.339Z</time>
      </trkpt>
      <trkpt lat="45.59793" lon="4.73826">
        <ele>244</ele>
        <time>2015-10-18T10:49:18.341Z</time>
      </trkpt>
      <trkpt lat="45.59798" lon="4.73833">
        <ele>244</ele>
        <time>2015-10-18T10:49:19.326Z</time>
      </trkpt>
      <trkpt lat="45.59803" lon="4.73841">
        <ele>240</ele>
        <time>2015-10-18T10:49:20.343Z</time>
      </trkpt>
      <trkpt lat="45.59808" lon="4.7385">
        <ele>240</ele>
        <time>2015-10-18T10:49:21.324Z</time>
      </trkpt>
      <trkpt lat="45.59813" lon="4.73854">
        <ele>240</ele>
        <time>2015-10-18T10:49:22.358Z</time>
      </trkpt>
      <trkpt lat="45.59818" lon="4.73858">
        <ele>240</ele>
        <time>2015-10-18T10:49:23.331Z</time>
      </trkpt>
      <trkpt lat="45.59822" lon="4.73863">
        <ele>240</ele>
        <time>2015-10-18T10:49:24.368Z</time>
      </trkpt>
      <trkpt lat="45.59826" lon="4.73865">
        <ele>240</ele>
        <time>2015-10-18T10:49:25.340Z</time>
      </trkpt>
      <trkpt lat="45.59834" lon="4.73867">
        <ele>234</ele>
        <time>2015-10-18T10:49:30.383Z</time>
      </trkpt>
      <trkpt lat="45.59836" lon="4.73869">
        <ele>234</ele>
        <time>2015-10-18T10:49:31.346Z</time>
      </trkpt>
      <trkpt lat="45.59841" lon="4.73878">
        <ele>234</ele>
        <time>2015-10-18T10:49:36.387Z</time>
      </trkpt>
      <trkpt lat="45.59843" lon="4.7388">
        <ele>234</ele>
        <time>2015-10-18T10:49:37.349Z</time>
      </trkpt>
      <trkpt lat="45.59851" lon="4.73886">
        <ele>233</ele>
        <time>2015-10-18T10:49:40.431Z</time>
      </trkpt>
      <trkpt lat="45.59853" lon="4.73888">
        <ele>233</ele>
        <time>2015-10-18T10:49:41.358Z</time>
      </trkpt>
      <trkpt lat="45.59857" lon="4.73888">
        <ele>233</ele>
        <time>2015-10-18T10:49:42.381Z</time>
      </trkpt>
      <trkpt lat="45.59863" lon="4.73891">
        <ele>233</ele>
        <time>2015-10-18T10:49:43.339Z</time>
      </trkpt>
      <trkpt lat="45.59869" lon="4.73895">
        <ele>232</ele>
        <time>2015-10-18T10:49:45.369Z</time>
      </trkpt>
      <trkpt lat="45.59872" lon="4.73895">
        <ele>232</ele>
        <time>2015-10-18T10:49:46.334Z</time>
      </trkpt>
      <trkpt lat="45.59879" lon="4.73895">
        <ele>232</ele>
        <time>2015-10-18T10:49:47.380Z</time>
      </trkpt>
      <trkpt lat="45.59883" lon="4.73897">
        <ele>232</ele>
        <time>2015-10-18T10:49:48.350Z</time>
      </trkpt>
      <trkpt lat="45.59892" lon="4.73895">
        <ele>231</ele>
        <time>2015-10-18T10:49:53.384Z</time>
      </trkpt>
      <trkpt lat="45.59894" lon="4.73893">
        <ele>231</ele>
        <time>2015-10-18T10:49:54.342Z</time>
      </trkpt>
      <trkpt lat="45.59897" lon="4.73903">
        <ele>230</ele>
        <time>2015-10-18T10:50:12.380Z</time>
      </trkpt>
      <trkpt lat="45.59897" lon="4.73906">
        <ele>230</ele>
        <time>2015-10-18T10:50:13.348Z</time>
      </trkpt>
      <trkpt lat="45.59895" lon="4.73916">
        <ele>230</ele>
        <time>2015-10-18T10:50:26.365Z</time>
      </trkpt>
      <trkpt lat="45.59895" lon="4.73918">
        <ele>232</ele>
        <time>2015-10-18T10:50:27.334Z</time>
      </trkpt>
      <trkpt lat="45.59895" lon="4.73929">
        <ele>233</ele>
        <time>2015-10-18T10:50:33.392Z</time>
      </trkpt>
      <trkpt lat="45.59896" lon="4.73933">
        <ele>233</ele>
        <time>2015-10-18T10:50:34.369Z</time>
      </trkpt>
      <trkpt lat="45.59891" lon="4.73942">
        <ele>235</ele>
        <time>2015-10-18T10:50:44.929Z</time>
      </trkpt>
      <trkpt lat="45.59889" lon="4.73944">
        <ele>235</ele>
        <time>2015-10-18T10:50:45.902Z</time>
      </trkpt>
      <trkpt lat="45.59884" lon="4.7394">
        <ele>235</ele>
        <time>2015-10-18T10:51:31.928Z</time>
      </trkpt>
      <trkpt lat="45.59879" lon="4.73936">
        <ele>235</ele>
        <time>2015-10-18T10:51:32.899Z</time>
      </trkpt>
      <trkpt lat="45.59871" lon="4.73931">
        <ele>236</ele>
        <time>2015-10-18T10:51:40.920Z</time>
      </trkpt>
      <trkpt lat="45.59868" lon="4.73931">
        <ele>236</ele>
        <time>2015-10-18T10:51:41.916Z</time>
      </trkpt>
      <trkpt lat="45.59862" lon="4.73929">
        <ele>236</ele>
        <time>2015-10-18T10:51:46.926Z</time>
      </trkpt>
      <trkpt lat="45.59858" lon="4.73931">
        <ele>236</ele>
        <time>2015-10-18T10:51:47.881Z</time>
      </trkpt>
      <trkpt lat="45.59853" lon="4.73925">
        <ele>236</ele>
        <time>2015-10-18T10:51:52.950Z</time>
      </trkpt>
      <trkpt lat="45.59845" lon="4.73921">
        <ele>236</ele>
        <time>2015-10-18T10:51:53.904Z</time>
      </trkpt>
      <trkpt lat="45.59839" lon="4.73927">
        <ele>236</ele>
        <time>2015-10-18T10:51:59.932Z</time>
      </trkpt>
      <trkpt lat="45.59835" lon="4.73929">
        <ele>236</ele>
        <time>2015-10-18T10:52:00.891Z</time>
      </trkpt>
      <trkpt lat="45.59829" lon="4.73933">
        <ele>242</ele>
        <time>2015-10-18T10:52:15.959Z</time>
      </trkpt>
      <trkpt lat="45.59825" lon="4.73936">
        <ele>243</ele>
        <time>2015-10-18T10:52:16.916Z</time>
      </trkpt>
      <trkpt lat="45.59816" lon="4.73936">
        <ele>244</ele>
        <time>2015-10-18T10:52:26.935Z</time>
      </trkpt>
      <trkpt lat="45.59814" lon="4.73936">
        <ele>244</ele>
        <time>2015-10-18T10:52:27.903Z</time>
      </trkpt>
      <trkpt lat="45.59808" lon="4.7394">
        <ele>245</ele>
        <time>2015-10-18T10:52:32.924Z</time>
      </trkpt>
      <trkpt lat="45.59805" lon="4.7394">
        <ele>246</ele>
        <time>2015-10-18T10:52:33.912Z</time>
      </trkpt>
      <trkpt lat="45.59796" lon="4.73942">
        <ele>247</ele>
        <time>2015-10-18T10:52:54.924Z</time>
      </trkpt>
      <trkpt lat="45.59792" lon="4.73944">
        <ele>247</ele>
        <time>2015-10-18T10:52:55.885Z</time>
      </trkpt>
      <trkpt lat="45.59783" lon="4.73946">
        <ele>248</ele>
        <time>2015-10-18T10:53:43.934Z</time>
      </trkpt>
      <trkpt lat="45.59779" lon="4.73948">
        <ele>248</ele>
        <time>2015-10-18T10:53:44.917Z</time>
      </trkpt>
      <trkpt lat="45.59772" lon="4.73953">
        <ele>249</ele>
        <time>2015-10-18T10:54:29.925Z</time>
      </trkpt>
      <trkpt lat="45.59769" lon="4.73955">
        <ele>249</ele>
        <time>2015-10-18T10:54:30.888Z</time>
      </trkpt>
      <trkpt lat="45.59763" lon="4.73955">
        <ele>249</ele>
        <time>2015-10-18T10:54:33.926Z</time>
      </trkpt>
      <trkpt lat="45.5976" lon="4.73957">
        <ele>249</ele>
        <time>2015-10-18T10:54:34.894Z</time>
      </trkpt>
      <trkpt lat="45.59753" lon="4.73961">
        <ele>250</ele>
        <time>2015-10-18T10:54:38.918Z</time>
      </trkpt>
      <trkpt lat="45.59751" lon="4.73963">
        <ele>250</ele>
        <time>2015-10-18T10:54:39.888Z</time>
      </trkpt>
      <trkpt lat="45.59742" lon="4.73963">
        <ele>257</ele>
        <time>2015-10-18T10:54:48.936Z</time>
      </trkpt>
      <trkpt lat="45.5974" lon="4.73966">
        <ele>257</ele>
        <time>2015-10-18T10:54:49.891Z</time>
      </trkpt>
      <trkpt lat="45.59734" lon="4.73972">
        <ele>257</ele>
        <time>2015-10-18T10:54:53.935Z</time>
      </trkpt>
      <trkpt lat="45.59733" lon="4.73974">
        <ele>258</ele>
        <time>2015-10-18T10:54:54.904Z</time>
      </trkpt>
      <trkpt lat="45.59725" lon="4.73979">
        <ele>258</ele>
        <time>2015-10-18T10:55:01.933Z</time>
      </trkpt>
      <trkpt lat="45.59724" lon="4.73981">
        <ele>258</ele>
        <time>2015-10-18T10:55:02.908Z</time>
      </trkpt>
      <trkpt lat="45.59717" lon="4.73985">
        <ele>259</ele>
        <time>2015-10-18T10:55:13.960Z</time>
      </trkpt>
      <trkpt lat="45.59716" lon="4.73985">
        <ele>259</ele>
        <time>2015-10-18T10:55:14.890Z</time>
      </trkpt>
      <trkpt lat="45.59709" lon="4.73989">
        <ele>259</ele>
        <time>2015-10-18T10:55:25.945Z</time>
      </trkpt>
      <trkpt lat="45.59707" lon="4.73989">
        <ele>259</ele>
        <time>2015-10-18T10:55:26.911Z</time>
      </trkpt>
      <trkpt lat="45.597" lon="4.73994">
        <ele>260</ele>
        <time>2015-10-18T10:55:30.945Z</time>
      </trkpt>
      <trkpt lat="45.59697" lon="4.73994">
        <ele>260</ele>
        <time>2015-10-18T10:55:31.922Z</time>
      </trkpt>
      <trkpt lat="45.5969" lon="4.73998">
        <ele>261</ele>
        <time>2015-10-18T10:55:38.058Z</time>
      </trkpt>
      <trkpt lat="45.59689" lon="4.74">
        <ele>261</ele>
        <time>2015-10-18T10:55:38.913Z</time>
      </trkpt>
      <trkpt lat="45.59682" lon="4.74004">
        <ele>264</ele>
        <time>2015-10-18T10:55:43.945Z</time>
      </trkpt>
      <trkpt lat="45.5968" lon="4.74006">
        <ele>264</ele>
        <time>2015-10-18T10:55:44.917Z</time>
      </trkpt>
      <trkpt lat="45.59672" lon="4.74006">
        <ele>265</ele>
        <time>2015-10-18T10:56:06.941Z</time>
      </trkpt>
      <trkpt lat="45.59667" lon="4.74009">
        <ele>265</ele>
        <time>2015-10-18T10:56:07.905Z</time>
      </trkpt>
      <trkpt lat="45.59659" lon="4.74006">
        <ele>266</ele>
        <time>2015-10-18T10:57:29.900Z</time>
      </trkpt>
      <trkpt lat="45.59657" lon="4.74006">
        <ele>267</ele>
        <time>2015-10-18T10:57:30.869Z</time>
      </trkpt>
      <trkpt lat="45.59648" lon="4.74006">
        <ele>267</ele>
        <time>2015-10-18T10:58:16.343Z</time>
      </trkpt>
      <trkpt lat="45.59646" lon="4.74006">
        <ele>267</ele>
        <time>2015-10-18T10:58:17.335Z</time>
      </trkpt>
      <trkpt lat="45.59638" lon="4.74013">
        <ele>268</ele>
        <time>2015-10-18T10:58:23.380Z</time>
      </trkpt>
      <trkpt lat="45.59634" lon="4.74011">
        <ele>268</ele>
        <time>2015-10-18T10:58:24.334Z</time>
      </trkpt>
      <trkpt lat="45.59627" lon="4.74011">
        <ele>268</ele>
        <time>2015-10-18T10:58:28.379Z</time>
      </trkpt>
      <trkpt lat="45.59624" lon="4.74011">
        <ele>268</ele>
        <time>2015-10-18T10:58:29.352Z</time>
      </trkpt>
      <trkpt lat="45.59619" lon="4.74006">
        <ele>268</ele>
        <time>2015-10-18T10:58:35.382Z</time>
      </trkpt>
      <trkpt lat="45.59615" lon="4.74009">
        <ele>268</ele>
        <time>2015-10-18T10:58:36.348Z</time>
      </trkpt>
      <trkpt lat="45.59607" lon="4.74013">
        <ele>269</ele>
        <time>2015-10-18T10:58:40.393Z</time>
      </trkpt>
      <trkpt lat="45.59605" lon="4.74015">
        <ele>269</ele>
        <time>2015-10-18T10:58:41.344Z</time>
      </trkpt>
      <trkpt lat="45.59599" lon="4.74021">
        <ele>269</ele>
        <time>2015-10-18T10:58:47.408Z</time>
      </trkpt>
      <trkpt lat="45.59597" lon="4.74021">
        <ele>269</ele>
        <time>2015-10-18T10:58:48.359Z</time>
      </trkpt>
      <trkpt lat="45.59591" lon="4.74021">
        <ele>269</ele>
        <time>2015-10-18T10:58:52.370Z</time>
      </trkpt>
      <trkpt lat="45.59585" lon="4.74019">
        <ele>269</ele>
        <time>2015-10-18T10:58:53.366Z</time>
      </trkpt>
      <trkpt lat="45.59578" lon="4.74021">
        <ele>272</ele>
        <time>2015-10-18T10:58:57.404Z</time>
      </trkpt>
      <trkpt lat="45.59575" lon="4.74021">
        <ele>272</ele>
        <time>2015-10-18T10:58:58.366Z</time>
      </trkpt>
      <trkpt lat="45.59566" lon="4.74019">
        <ele>272</ele>
        <time>2015-10-18T10:59:04.400Z</time>
      </trkpt>
      <trkpt lat="45.59565" lon="4.74019">
        <ele>272</ele>
        <time>2015-10-18T10:59:05.366Z</time>
      </trkpt>
      <trkpt lat="45.59557" lon="4.74021">
        <ele>273</ele>
        <time>2015-10-18T10:59:11.397Z</time>
      </trkpt>
      <trkpt lat="45.59556" lon="4.74021">
        <ele>273</ele>
        <time>2015-10-18T10:59:12.363Z</time>
      </trkpt>
      <trkpt lat="45.59548" lon="4.74024">
        <ele>274</ele>
        <time>2015-10-18T10:59:19.392Z</time>
      </trkpt>
      <trkpt lat="45.59545" lon="4.74021">
        <ele>274</ele>
        <time>2015-10-18T10:59:20.371Z</time>
      </trkpt>
      <trkpt lat="45.59538" lon="4.74019">
        <ele>275</ele>
        <time>2015-10-18T10:59:24.419Z</time>
      </trkpt>
      <trkpt lat="45.59535" lon="4.74021">
        <ele>275</ele>
        <time>2015-10-18T10:59:25.369Z</time>
      </trkpt>
      <trkpt lat="45.59527" lon="4.74024">
        <ele>275</ele>
        <time>2015-10-18T10:59:31.415Z</time>
      </trkpt>
      <trkpt lat="45.59526" lon="4.74024">
        <ele>275</ele>
        <time>2015-10-18T10:59:32.363Z</time>
      </trkpt>
      <trkpt lat="45.59518" lon="4.74028">
        <ele>276</ele>
        <time>2015-10-18T10:59:36.417Z</time>
      </trkpt>
      <trkpt lat="45.59517" lon="4.74028">
        <ele>276</ele>
        <time>2015-10-18T10:59:37.363Z</time>
      </trkpt>
      <trkpt lat="45.59511" lon="4.74032">
        <ele>276</ele>
        <time>2015-10-18T10:59:44.407Z</time>
      </trkpt>
      <trkpt lat="45.59509" lon="4.74032">
        <ele>276</ele>
        <time>2015-10-18T10:59:45.382Z</time>
      </trkpt>
      <trkpt lat="45.59502" lon="4.74041">
        <ele>276</ele>
        <time>2015-10-18T10:59:50.404Z</time>
      </trkpt>
      <trkpt lat="45.59501" lon="4.74041">
        <ele>276</ele>
        <time>2015-10-18T10:59:51.363Z</time>
      </trkpt>
      <trkpt lat="45.59494" lon="4.74043">
        <ele>281</ele>
        <time>2015-10-18T10:59:56.411Z</time>
      </trkpt>
      <trkpt lat="45.59491" lon="4.74043">
        <ele>281</ele>
        <time>2015-10-18T10:59:57.364Z</time>
      </trkpt>
      <trkpt lat="45.59485" lon="4.74051">
        <ele>282</ele>
        <time>2015-10-18T11:00:01.403Z</time>
      </trkpt>
      <trkpt lat="45.59484" lon="4.74054">
        <ele>282</ele>
        <time>2015-10-18T11:00:02.369Z</time>
      </trkpt>
      <trkpt lat="45.5948" lon="4.74064">
        <ele>282</ele>
        <time>2015-10-18T11:00:09.401Z</time>
      </trkpt>
      <trkpt lat="45.59479" lon="4.74066">
        <ele>282</ele>
        <time>2015-10-18T11:00:10.385Z</time>
      </trkpt>
      <trkpt lat="45.59472" lon="4.74071">
        <ele>282</ele>
        <time>2015-10-18T11:00:18.401Z</time>
      </trkpt>
      <trkpt lat="45.59469" lon="4.74073">
        <ele>282</ele>
        <time>2015-10-18T11:00:19.374Z</time>
      </trkpt>
      <trkpt lat="45.59462" lon="4.74077">
        <ele>283</ele>
        <time>2015-10-18T11:00:25.399Z</time>
      </trkpt>
      <trkpt lat="45.59459" lon="4.74077">
        <ele>283</ele>
        <time>2015-10-18T11:00:26.401Z</time>
      </trkpt>
      <trkpt lat="45.59453" lon="4.74084">
        <ele>283</ele>
        <time>2015-10-18T11:00:31.406Z</time>
      </trkpt>
      <trkpt lat="45.59452" lon="4.74086">
        <ele>283</ele>
        <time>2015-10-18T11:00:32.367Z</time>
      </trkpt>
      <trkpt lat="45.59444" lon="4.74092">
        <ele>284</ele>
        <time>2015-10-18T11:00:38.396Z</time>
      </trkpt>
      <trkpt lat="45.59444" lon="4.74094">
        <ele>284</ele>
        <time>2015-10-18T11:00:39.363Z</time>
      </trkpt>
      <trkpt lat="45.59437" lon="4.74101">
        <ele>284</ele>
        <time>2015-10-18T11:00:46.522Z</time>
      </trkpt>
      <trkpt lat="45.59435" lon="4.74101">
        <ele>284</ele>
        <time>2015-10-18T11:00:47.372Z</time>
      </trkpt>
      <trkpt lat="45.59426" lon="4.74103">
        <ele>284</ele>
        <time>2015-10-18T11:00:52.406Z</time>
      </trkpt>
      <trkpt lat="45.59425" lon="4.74103">
        <ele>284</ele>
        <time>2015-10-18T11:00:53.365Z</time>
      </trkpt>
      <trkpt lat="45.59416" lon="4.74103">
        <ele>289</ele>
        <time>2015-10-18T11:01:01.409Z</time>
      </trkpt>
      <trkpt lat="45.59414" lon="4.74103">
        <ele>289</ele>
        <time>2015-10-18T11:01:02.361Z</time>
      </trkpt>
      <trkpt lat="45.59406" lon="4.74103">
        <ele>289</ele>
        <time>2015-10-18T11:01:09.407Z</time>
      </trkpt>
      <trkpt lat="45.59404" lon="4.74103">
        <ele>289</ele>
        <time>2015-10-18T11:01:10.365Z</time>
      </trkpt>
      <trkpt lat="45.59398" lon="4.74107">
        <ele>289</ele>
        <time>2015-10-18T11:01:14.401Z</time>
      </trkpt>
      <trkpt lat="45.59396" lon="4.74109">
        <ele>290</ele>
        <time>2015-10-18T11:01:15.361Z</time>
      </trkpt>
      <trkpt lat="45.59389" lon="4.74118">
        <ele>290</ele>
        <time>2015-10-18T11:01:18.407Z</time>
      </trkpt>
      <trkpt lat="45.59387" lon="4.74118">
        <ele>290</ele>
        <time>2015-10-18T11:01:19.362Z</time>
      </trkpt>
      <trkpt lat="45.59381" lon="4.74124">
        <ele>290</ele>
        <time>2015-10-18T11:01:25.399Z</time>
      </trkpt>
      <trkpt lat="45.59379" lon="4.74127">
        <ele>291</ele>
        <time>2015-10-18T11:01:26.361Z</time>
      </trkpt>
      <trkpt lat="45.59371" lon="4.74131">
        <ele>291</ele>
        <time>2015-10-18T11:01:31.404Z</time>
      </trkpt>
      <trkpt lat="45.59369" lon="4.74133">
        <ele>291</ele>
        <time>2015-10-18T11:01:32.361Z</time>
      </trkpt>
      <trkpt lat="45.59365" lon="4.74144">
        <ele>292</ele>
        <time>2015-10-18T11:01:36.415Z</time>
      </trkpt>
      <trkpt lat="45.59364" lon="4.74144">
        <ele>292</ele>
        <time>2015-10-18T11:01:37.363Z</time>
      </trkpt>
      <trkpt lat="45.59358" lon="4.74152">
        <ele>292</ele>
        <time>2015-10-18T11:01:42.389Z</time>
      </trkpt>
      <trkpt lat="45.59357" lon="4.74157">
        <ele>293</ele>
        <time>2015-10-18T11:01:43.358Z</time>
      </trkpt>
      <trkpt lat="45.59355" lon="4.74167">
        <ele>292</ele>
        <time>2015-10-18T11:01:47.397Z</time>
      </trkpt>
      <trkpt lat="45.59353" lon="4.74169">
        <ele>293</ele>
        <time>2015-10-18T11:01:48.373Z</time>
      </trkpt>
      <trkpt lat="45.59347" lon="4.74178">
        <ele>293</ele>
        <time>2015-10-18T11:01:52.406Z</time>
      </trkpt>
      <trkpt lat="45.59347" lon="4.7418">
        <ele>293</ele>
        <time>2015-10-18T11:01:53.350Z</time>
      </trkpt>
      <trkpt lat="45.59341" lon="4.74189">
        <ele>293</ele>
        <time>2015-10-18T11:01:57.411Z</time>
      </trkpt>
      <trkpt lat="45.5934" lon="4.74191">
        <ele>292</ele>
        <time>2015-10-18T11:01:58.363Z</time>
      </trkpt>
      <trkpt lat="45.59338" lon="4.742">
        <ele>292</ele>
        <time>2015-10-18T11:02:01.400Z</time>
      </trkpt>
      <trkpt lat="45.59337" lon="4.74204">
        <ele>292</ele>
        <time>2015-10-18T11:02:02.359Z</time>
      </trkpt>
      <trkpt lat="45.59332" lon="4.7421">
        <ele>298</ele>
        <time>2015-10-18T11:02:06.397Z</time>
      </trkpt>
      <trkpt lat="45.59329" lon="4.74212">
        <ele>298</ele>
        <time>2015-10-18T11:02:07.362Z</time>
      </trkpt>
      <trkpt lat="45.59325" lon="4.74221">
        <ele>298</ele>
        <time>2015-10-18T11:02:10.406Z</time>
      </trkpt>
      <trkpt lat="45.59323" lon="4.74225">
        <ele>298</ele>
        <time>2015-10-18T11:02:11.367Z</time>
      </trkpt>
      <trkpt lat="45.59319" lon="4.74234">
        <ele>297</ele>
        <time>2015-10-18T11:02:14.394Z</time>
      </trkpt>
      <trkpt lat="45.59318" lon="4.74238">
        <ele>297</ele>
        <time>2015-10-18T11:02:15.367Z</time>
      </trkpt>
      <trkpt lat="45.59311" lon="4.74245">
        <ele>298</ele>
        <time>2015-10-18T11:02:17.402Z</time>
      </trkpt>
      <trkpt lat="45.59309" lon="4.74249">
        <ele>298</ele>
        <time>2015-10-18T11:02:18.363Z</time>
      </trkpt>
      <trkpt lat="45.59306" lon="4.7426">
        <ele>296</ele>
        <time>2015-10-18T11:02:21.393Z</time>
      </trkpt>
      <trkpt lat="45.59305" lon="4.74262">
        <ele>296</ele>
        <time>2015-10-18T11:02:22.360Z</time>
      </trkpt>
      <trkpt lat="45.593" lon="4.74272">
        <ele>297</ele>
        <time>2015-10-18T11:02:25.386Z</time>
      </trkpt>
      <trkpt lat="45.593" lon="4.74277">
        <ele>297</ele>
        <time>2015-10-18T11:02:26.376Z</time>
      </trkpt>
      <trkpt lat="45.59304" lon="4.74285">
        <ele>297</ele>
        <time>2015-10-18T11:02:29.402Z</time>
      </trkpt>
      <trkpt lat="45.59305" lon="4.7429">
        <ele>296</ele>
        <time>2015-10-18T11:02:30.357Z</time>
      </trkpt>
      <trkpt lat="45.59309" lon="4.74296">
        <ele>296</ele>
        <time>2015-10-18T11:02:33.394Z</time>
      </trkpt>
      <trkpt lat="45.5931" lon="4.743">
        <ele>296</ele>
        <time>2015-10-18T11:02:34.365Z</time>
      </trkpt>
      <trkpt lat="45.59315" lon="4.74307">
        <ele>296</ele>
        <time>2015-10-18T11:02:38.407Z</time>
      </trkpt>
      <trkpt lat="45.59318" lon="4.74309">
        <ele>295</ele>
        <time>2015-10-18T11:02:39.364Z</time>
      </trkpt>
      <trkpt lat="45.59324" lon="4.74311">
        <ele>295</ele>
        <time>2015-10-18T11:02:41.403Z</time>
      </trkpt>
      <trkpt lat="45.59326" lon="4.74315">
        <ele>295</ele>
        <time>2015-10-18T11:02:42.362Z</time>
      </trkpt>
      <trkpt lat="45.59332" lon="4.74324">
        <ele>294</ele>
        <time>2015-10-18T11:02:45.425Z</time>
      </trkpt>
      <trkpt lat="45.59334" lon="4.74326">
        <ele>291</ele>
        <time>2015-10-18T11:02:46.361Z</time>
      </trkpt>
      <trkpt lat="45.59341" lon="4.74333">
        <ele>291</ele>
        <time>2015-10-18T11:02:50.396Z</time>
      </trkpt>
      <trkpt lat="45.59343" lon="4.74335">
        <ele>290</ele>
        <time>2015-10-18T11:02:51.370Z</time>
      </trkpt>
      <trkpt lat="45.59348" lon="4.74345">
        <ele>289</ele>
        <time>2015-10-18T11:02:56.402Z</time>
      </trkpt>
      <trkpt lat="45.59351" lon="4.74348">
        <ele>288</ele>
        <time>2015-10-18T11:02:57.363Z</time>
      </trkpt>
      <trkpt lat="45.59358" lon="4.74354">
        <ele>287</ele>
        <time>2015-10-18T11:03:03.398Z</time>
      </trkpt>
      <trkpt lat="45.59362" lon="4.74354">
        <ele>287</ele>
        <time>2015-10-18T11:03:04.368Z</time>
      </trkpt>
      <trkpt lat="45.59368" lon="4.74363">
        <ele>286</ele>
        <time>2015-10-18T11:03:07.386Z</time>
      </trkpt>
      <trkpt lat="45.59373" lon="4.74365">
        <ele>286</ele>
        <time>2015-10-18T11:03:08.365Z</time>
      </trkpt>
      <trkpt lat="45.59381" lon="4.74367">
        <ele>285</ele>
        <time>2015-10-18T11:03:09.390Z</time>
      </trkpt>
      <trkpt lat="45.59386" lon="4.74369">
        <ele>285</ele>
        <time>2015-10-18T11:03:10.361Z</time>
      </trkpt>
      <trkpt lat="45.59391" lon="4.74369">
        <ele>285</ele>
        <time>2015-10-18T11:03:11.414Z</time>
      </trkpt>
      <trkpt lat="45.59396" lon="4.74369">
        <ele>284</ele>
        <time>2015-10-18T11:03:12.394Z</time>
      </trkpt>
      <trkpt lat="45.59403" lon="4.74371">
        <ele>284</ele>
        <time>2015-10-18T11:03:14.399Z</time>
      </trkpt>
      <trkpt lat="45.59407" lon="4.74373">
        <ele>284</ele>
        <time>2015-10-18T11:03:15.348Z</time>
      </trkpt>
      <trkpt lat="45.59414" lon="4.74375">
        <ele>284</ele>
        <time>2015-10-18T11:03:17.412Z</time>
      </trkpt>
      <trkpt lat="45.59418" lon="4.74378">
        <ele>278</ele>
        <time>2015-10-18T11:03:18.352Z</time>
      </trkpt>
      <trkpt lat="45.59422" lon="4.7438">
        <ele>278</ele>
        <time>2015-10-18T11:03:19.376Z</time>
      </trkpt>
      <trkpt lat="45.59427" lon="4.74382">
        <ele>278</ele>
        <time>2015-10-18T11:03:20.358Z</time>
      </trkpt>
      <trkpt lat="45.59431" lon="4.74384">
        <ele>278</ele>
        <time>2015-10-18T11:03:21.387Z</time>
      </trkpt>
      <trkpt lat="45.59436" lon="4.74386">
        <ele>278</ele>
        <time>2015-10-18T11:03:22.350Z</time>
      </trkpt>
      <trkpt lat="45.5944" lon="4.74391">
        <ele>278</ele>
        <time>2015-10-18T11:03:23.386Z</time>
      </trkpt>
      <trkpt lat="45.59444" lon="4.74393">
        <ele>278</ele>
        <time>2015-10-18T11:03:24.368Z</time>
      </trkpt>
      <trkpt lat="45.5945" lon="4.74397">
        <ele>278</ele>
        <time>2015-10-18T11:03:25.395Z</time>
      </trkpt>
      <trkpt lat="45.59455" lon="4.74399">
        <ele>277</ele>
        <time>2015-10-18T11:03:26.360Z</time>
      </trkpt>
      <trkpt lat="45.59459" lon="4.74403">
        <ele>277</ele>
        <time>2015-10-18T11:03:27.450Z</time>
      </trkpt>
      <trkpt lat="45.59466" lon="4.74408">
        <ele>277</ele>
        <time>2015-10-18T11:03:28.350Z</time>
      </trkpt>
      <trkpt lat="45.59471" lon="4.7441">
        <ele>277</ele>
        <time>2015-10-18T11:03:29.394Z</time>
      </trkpt>
      <trkpt lat="45.59477" lon="4.74414">
        <ele>276</ele>
        <time>2015-10-18T11:03:30.370Z</time>
      </trkpt>
      <trkpt lat="45.59482" lon="4.74416">
        <ele>276</ele>
        <time>2015-10-18T11:03:31.397Z</time>
      </trkpt>
      <trkpt lat="45.59488" lon="4.74421">
        <ele>276</ele>
        <time>2015-10-18T11:03:32.364Z</time>
      </trkpt>
      <trkpt lat="45.59494" lon="4.74423">
        <ele>275</ele>
        <time>2015-10-18T11:03:33.407Z</time>
      </trkpt>
      <trkpt lat="45.59499" lon="4.74427">
        <ele>275</ele>
        <time>2015-10-18T11:03:34.362Z</time>
      </trkpt>
      <trkpt lat="45.59505" lon="4.74429">
        <ele>274</ele>
        <time>2015-10-18T11:03:35.376Z</time>
      </trkpt>
      <trkpt lat="45.59511" lon="4.74433">
        <ele>274</ele>
        <time>2015-10-18T11:03:36.357Z</time>
      </trkpt>
      <trkpt lat="45.59517" lon="4.74436">
        <ele>274</ele>
        <time>2015-10-18T11:03:37.375Z</time>
      </trkpt>
      <trkpt lat="45.59524" lon="4.7444">
        <ele>274</ele>
        <time>2015-10-18T11:03:38.336Z</time>
      </trkpt>
      <trkpt lat="45.59529" lon="4.74444">
        <ele>274</ele>
        <time>2015-10-18T11:03:39.374Z</time>
      </trkpt>
      <trkpt lat="45.59533" lon="4.74448">
        <ele>274</ele>
        <time>2015-10-18T11:03:40.331Z</time>
      </trkpt>
      <trkpt lat="45.59536" lon="4.74457">
        <ele>274</ele>
        <time>2015-10-18T11:03:41.361Z</time>
      </trkpt>
      <trkpt lat="45.5954" lon="4.74463">
        <ele>274</ele>
        <time>2015-10-18T11:03:42.329Z</time>
      </trkpt>
      <trkpt lat="45.59542" lon="4.7447">
        <ele>273</ele>
        <time>2015-10-18T11:03:43.357Z</time>
      </trkpt>
      <trkpt lat="45.59545" lon="4.74478">
        <ele>273</ele>
        <time>2015-10-18T11:03:44.332Z</time>
      </trkpt>
      <trkpt lat="45.59549" lon="4.74485">
        <ele>273</ele>
        <time>2015-10-18T11:03:45.345Z</time>
      </trkpt>
      <trkpt lat="45.59554" lon="4.74489">
        <ele>273</ele>
        <time>2015-10-18T11:03:46.325Z</time>
      </trkpt>
      <trkpt lat="45.59558" lon="4.74491">
        <ele>273</ele>
        <time>2015-10-18T11:03:47.350Z</time>
      </trkpt>
      <trkpt lat="45.59563" lon="4.74494">
        <ele>273</ele>
        <time>2015-10-18T11:03:48.334Z</time>
      </trkpt>
      <trkpt lat="45.5957" lon="4.74496">
        <ele>273</ele>
        <time>2015-10-18T11:03:49.351Z</time>
      </trkpt>
      <trkpt lat="45.59577" lon="4.74496">
        <ele>273</ele>
        <time>2015-10-18T11:03:50.328Z</time>
      </trkpt>
      <trkpt lat="45.59586" lon="4.74498">
        <ele>273</ele>
        <time>2015-10-18T11:03:52.355Z</time>
      </trkpt>
      <trkpt lat="45.5959" lon="4.74498">
        <ele>272</ele>
        <time>2015-10-18T11:03:53.343Z</time>
      </trkpt>
      <trkpt lat="45.59599" lon="4.74498">
        <ele>272</ele>
        <time>2015-10-18T11:03:55.384Z</time>
      </trkpt>
      <trkpt lat="45.59604" lon="4.74498">
        <ele>272</ele>
        <time>2015-10-18T11:03:56.349Z</time>
      </trkpt>
      <trkpt lat="45.59609" lon="4.74498">
        <ele>272</ele>
        <time>2015-10-18T11:03:57.397Z</time>
      </trkpt>
      <trkpt lat="45.59616" lon="4.74496">
        <ele>271</ele>
        <time>2015-10-18T11:03:58.350Z</time>
      </trkpt>
      <trkpt lat="45.5962" lon="4.74494">
        <ele>271</ele>
        <time>2015-10-18T11:03:59.380Z</time>
      </trkpt>
      <trkpt lat="45.59626" lon="4.74494">
        <ele>271</ele>
        <time>2015-10-18T11:04:00.341Z</time>
      </trkpt>
      <trkpt lat="45.59631" lon="4.74491">
        <ele>271</ele>
        <time>2015-10-18T11:04:01.385Z</time>
      </trkpt>
      <trkpt lat="45.59637" lon="4.74491">
        <ele>271</ele>
        <time>2015-10-18T11:04:02.348Z</time>
      </trkpt>
      <trkpt lat="45.59643" lon="4.74487">
        <ele>271</ele>
        <time>2015-10-18T11:04:03.384Z</time>
      </trkpt>
      <trkpt lat="45.59649" lon="4.74485">
        <ele>270</ele>
        <time>2015-10-18T11:04:04.352Z</time>
      </trkpt>
      <trkpt lat="45.59656" lon="4.74485">
        <ele>270</ele>
        <time>2015-10-18T11:04:05.384Z</time>
      </trkpt>
      <trkpt lat="45.59663" lon="4.74483">
        <ele>270</ele>
        <time>2015-10-18T11:04:06.353Z</time>
      </trkpt>
      <trkpt lat="45.59671" lon="4.74481">
        <ele>268</ele>
        <time>2015-10-18T11:04:07.375Z</time>
      </trkpt>
      <trkpt lat="45.59677" lon="4.74478">
        <ele>268</ele>
        <time>2015-10-18T11:04:08.351Z</time>
      </trkpt>
      <trkpt lat="45.59685" lon="4.74474">
        <ele>267</ele>
        <time>2015-10-18T11:04:09.379Z</time>
      </trkpt>
      <trkpt lat="45.59692" lon="4.74472">
        <ele>267</ele>
        <time>2015-10-18T11:04:10.357Z</time>
      </trkpt>
      <trkpt lat="45.59692" lon="4.74472">
        <ele>267</ele>
        <time>2015-10-18T11:04:10.383Z</time>
      </trkpt>
      <trkpt lat="45.59701" lon="4.74466">
        <ele>266</ele>
        <time>2015-10-18T11:04:11.352Z</time>
      </trkpt>
      <trkpt lat="45.59708" lon="4.74461">
        <ele>266</ele>
        <time>2015-10-18T11:04:12.381Z</time>
      </trkpt>
      <trkpt lat="45.59715" lon="4.74457">
        <ele>266</ele>
        <time>2015-10-18T11:04:13.350Z</time>
      </trkpt>
      <trkpt lat="45.59722" lon="4.74451">
        <ele>266</ele>
        <time>2015-10-18T11:04:19.419Z</time>
      </trkpt>
      <trkpt lat="45.59722" lon="4.74448">
        <ele>266</ele>
        <time>2015-10-18T11:04:20.360Z</time>
      </trkpt>
      <trkpt lat="45.59725" lon="4.7444">
        <ele>265</ele>
        <time>2015-10-18T11:04:23.367Z</time>
      </trkpt>
      <trkpt lat="45.59727" lon="4.74438">
        <ele>265</ele>
        <time>2015-10-18T11:04:24.331Z</time>
      </trkpt>
      <trkpt lat="45.59731" lon="4.74427">
        <ele>265</ele>
        <time>2015-10-18T11:04:26.359Z</time>
      </trkpt>
      <trkpt lat="45.59733" lon="4.74423">
        <ele>265</ele>
        <time>2015-10-18T11:04:27.331Z</time>
      </trkpt>
      <trkpt lat="45.59734" lon="4.74416">
        <ele>264</ele>
        <time>2015-10-18T11:04:28.365Z</time>
      </trkpt>
      <trkpt lat="45.59738" lon="4.7441">
        <ele>264</ele>
        <time>2015-10-18T11:04:29.331Z</time>
      </trkpt>
      <trkpt lat="45.59741" lon="4.74406">
        <ele>264</ele>
        <time>2015-10-18T11:04:30.376Z</time>
      </trkpt>
      <trkpt lat="45.59746" lon="4.74399">
        <ele>264</ele>
        <time>2015-10-18T11:04:31.347Z</time>
      </trkpt>
      <trkpt lat="45.59752" lon="4.74397">
        <ele>260</ele>
        <time>2015-10-18T11:04:32.381Z</time>
      </trkpt>
      <trkpt lat="45.59757" lon="4.74395">
        <ele>259</ele>
        <time>2015-10-18T11:04:33.335Z</time>
      </trkpt>
      <trkpt lat="45.59764" lon="4.74395">
        <ele>259</ele>
        <time>2015-10-18T11:04:34.372Z</time>
      </trkpt>
      <trkpt lat="45.59772" lon="4.74397">
        <ele>258</ele>
        <time>2015-10-18T11:04:35.336Z</time>
      </trkpt>
      <trkpt lat="45.59781" lon="4.74399">
        <ele>257</ele>
        <time>2015-10-18T11:04:36.351Z</time>
      </trkpt>
      <trkpt lat="45.5979" lon="4.74401">
        <ele>256</ele>
        <time>2015-10-18T11:04:37.343Z</time>
      </trkpt>
      <trkpt lat="45.5979" lon="4.74401">
        <ele>256</ele>
        <time>2015-10-18T11:04:37.379Z</time>
      </trkpt>
      <trkpt lat="45.59799" lon="4.74403">
        <ele>256</ele>
        <time>2015-10-18T11:04:38.355Z</time>
      </trkpt>
      <trkpt lat="45.59808" lon="4.74406">
        <ele>255</ele>
        <time>2015-10-18T11:04:39.380Z</time>
      </trkpt>
      <trkpt lat="45.59815" lon="4.74408">
        <ele>254</ele>
        <time>2015-10-18T11:04:40.347Z</time>
      </trkpt>
      <trkpt lat="45.59823" lon="4.74408">
        <ele>253</ele>
        <time>2015-10-18T11:04:41.386Z</time>
      </trkpt>
      <trkpt lat="45.59829" lon="4.74403">
        <ele>253</ele>
        <time>2015-10-18T11:04:42.327Z</time>
      </trkpt>
      <trkpt lat="45.59838" lon="4.74401">
        <ele>248</ele>
        <time>2015-10-18T11:04:43.361Z</time>
      </trkpt>
      <trkpt lat="45.59848" lon="4.74397">
        <ele>246</ele>
        <time>2015-10-18T11:04:44.331Z</time>
      </trkpt>
      <trkpt lat="45.59856" lon="4.74395">
        <ele>245</ele>
        <time>2015-10-18T11:04:45.356Z</time>
      </trkpt>
      <trkpt lat="45.59866" lon="4.74393">
        <ele>244</ele>
        <time>2015-10-18T11:04:46.335Z</time>
      </trkpt>
      <trkpt lat="45.59866" lon="4.74393">
        <ele>244</ele>
        <time>2015-10-18T11:04:46.373Z</time>
      </trkpt>
      <trkpt lat="45.59875" lon="4.74393">
        <ele>244</ele>
        <time>2015-10-18T11:04:47.322Z</time>
      </trkpt>
      <trkpt lat="45.59875" lon="4.74393">
        <ele>244</ele>
        <time>2015-10-18T11:04:47.353Z</time>
      </trkpt>
      <trkpt lat="45.59885" lon="4.74395">
        <ele>243</ele>
        <time>2015-10-18T11:04:48.328Z</time>
      </trkpt>
      <trkpt lat="45.59885" lon="4.74395">
        <ele>243</ele>
        <time>2015-10-18T11:04:48.351Z</time>
      </trkpt>
      <trkpt lat="45.59895" lon="4.74397">
        <ele>242</ele>
        <time>2015-10-18T11:04:49.331Z</time>
      </trkpt>
      <trkpt lat="45.59895" lon="4.74397">
        <ele>242</ele>
        <time>2015-10-18T11:04:49.367Z</time>
      </trkpt>
      <trkpt lat="45.59907" lon="4.74397">
        <ele>242</ele>
        <time>2015-10-18T11:04:50.331Z</time>
      </trkpt>
      <trkpt lat="45.59915" lon="4.74399">
        <ele>241</ele>
        <time>2015-10-18T11:04:51.373Z</time>
      </trkpt>
      <trkpt lat="45.59925" lon="4.74403">
        <ele>236</ele>
        <time>2015-10-18T11:04:52.350Z</time>
      </trkpt>
      <trkpt lat="45.59932" lon="4.74408">
        <ele>236</ele>
        <time>2015-10-18T11:04:53.359Z</time>
      </trkpt>
      <trkpt lat="45.5994" lon="4.74412">
        <ele>235</ele>
        <time>2015-10-18T11:04:54.331Z</time>
      </trkpt>
      <trkpt lat="45.5994" lon="4.74412">
        <ele>235</ele>
        <time>2015-10-18T11:04:54.369Z</time>
      </trkpt>
      <trkpt lat="45.59948" lon="4.74416">
        <ele>234</ele>
        <time>2015-10-18T11:04:55.332Z</time>
      </trkpt>
      <trkpt lat="45.59948" lon="4.74416">
        <ele>234</ele>
        <time>2015-10-18T11:04:55.367Z</time>
      </trkpt>
      <trkpt lat="45.59959" lon="4.74423">
        <ele>233</ele>
        <time>2015-10-18T11:04:56.327Z</time>
      </trkpt>
      <trkpt lat="45.59968" lon="4.74425">
        <ele>232</ele>
        <time>2015-10-18T11:04:57.382Z</time>
      </trkpt>
      <trkpt lat="45.59977" lon="4.74429">
        <ele>231</ele>
        <time>2015-10-18T11:04:58.331Z</time>
      </trkpt>
      <trkpt lat="45.59985" lon="4.74433">
        <ele>230</ele>
        <time>2015-10-18T11:04:59.372Z</time>
      </trkpt>
      <trkpt lat="45.59992" lon="4.7444">
        <ele>230</ele>
        <time>2015-10-18T11:05:00.323Z</time>
      </trkpt>
      <trkpt lat="45.59987" lon="4.74446">
        <ele>230</ele>
        <time>2015-10-18T11:05:38.382Z</time>
      </trkpt>
      <trkpt lat="45.59986" lon="4.74451">
        <ele>230</ele>
        <time>2015-10-18T11:05:39.342Z</time>
      </trkpt>
      <trkpt lat="45.5998" lon="4.74459">
        <ele>231</ele>
        <time>2015-10-18T11:05:45.390Z</time>
      </trkpt>
      <trkpt lat="45.5998" lon="4.74463">
        <ele>231</ele>
        <time>2015-10-18T11:05:46.347Z</time>
      </trkpt>
      <trkpt lat="45.59975" lon="4.74474">
        <ele>230</ele>
        <time>2015-10-18T11:05:53.385Z</time>
      </trkpt>
      <trkpt lat="45.59974" lon="4.74476">
        <ele>231</ele>
        <time>2015-10-18T11:05:54.344Z</time>
      </trkpt>
      <trkpt lat="45.59967" lon="4.74483">
        <ele>231</ele>
        <time>2015-10-18T11:05:59.379Z</time>
      </trkpt>
      <trkpt lat="45.59965" lon="4.74485">
        <ele>231</ele>
        <time>2015-10-18T11:06:00.346Z</time>
      </trkpt>
      <trkpt lat="45.59958" lon="4.74489">
        <ele>232</ele>
        <time>2015-10-18T11:06:04.371Z</time>
      </trkpt>
      <trkpt lat="45.59956" lon="4.74489">
        <ele>233</ele>
        <time>2015-10-18T11:06:05.345Z</time>
      </trkpt>
      <trkpt lat="45.5995" lon="4.74494">
        <ele>233</ele>
        <time>2015-10-18T11:06:09.373Z</time>
      </trkpt>
      <trkpt lat="45.59946" lon="4.74496">
        <ele>234</ele>
        <time>2015-10-18T11:06:10.336Z</time>
      </trkpt>
      <trkpt lat="45.59942" lon="4.74498">
        <ele>235</ele>
        <time>2015-10-18T11:06:11.371Z</time>
      </trkpt>
      <trkpt lat="45.59938" lon="4.745">
        <ele>235</ele>
        <time>2015-10-18T11:06:12.337Z</time>
      </trkpt>
      <trkpt lat="45.59933" lon="4.74504">
        <ele>234</ele>
        <time>2015-10-18T11:06:13.370Z</time>
      </trkpt>
      <trkpt lat="45.59928" lon="4.74513">
        <ele>235</ele>
        <time>2015-10-18T11:06:14.320Z</time>
      </trkpt>
      <trkpt lat="45.59924" lon="4.74519">
        <ele>234</ele>
        <time>2015-10-18T11:06:15.344Z</time>
      </trkpt>
      <trkpt lat="45.59922" lon="4.74524">
        <ele>234</ele>
        <time>2015-10-18T11:06:16.331Z</time>
      </trkpt>
      <trkpt lat="45.59915" lon="4.7453">
        <ele>242</ele>
        <time>2015-10-18T11:06:20.376Z</time>
      </trkpt>
      <trkpt lat="45.59914" lon="4.74534">
        <ele>242</ele>
        <time>2015-10-18T11:06:21.357Z</time>
      </trkpt>
      <trkpt lat="45.59913" lon="4.74545">
        <ele>242</ele>
        <time>2015-10-18T11:06:24.378Z</time>
      </trkpt>
      <trkpt lat="45.59912" lon="4.74549">
        <ele>242</ele>
        <time>2015-10-18T11:06:25.345Z</time>
      </trkpt>
      <trkpt lat="45.59911" lon="4.74558">
        <ele>241</ele>
        <time>2015-10-18T11:06:28.382Z</time>
      </trkpt>
      <trkpt lat="45.59913" lon="4.74566">
        <ele>240</ele>
        <time>2015-10-18T11:06:29.366Z</time>
      </trkpt>
      <trkpt lat="45.59916" lon="4.74575">
        <ele>239</ele>
        <time>2015-10-18T11:06:31.381Z</time>
      </trkpt>
      <trkpt lat="45.59917" lon="4.74581">
        <ele>236</ele>
        <time>2015-10-18T11:06:32.332Z</time>
      </trkpt>
      <trkpt lat="45.59919" lon="4.74592">
        <ele>233</ele>
        <time>2015-10-18T11:06:36.379Z</time>
      </trkpt>
      <trkpt lat="45.59918" lon="4.74594">
        <ele>232</ele>
        <time>2015-10-18T11:06:37.344Z</time>
      </trkpt>
      <trkpt lat="45.59912" lon="4.74603">
        <ele>236</ele>
        <time>2015-10-18T11:06:40.358Z</time>
      </trkpt>
      <trkpt lat="45.59911" lon="4.74607">
        <ele>236</ele>
        <time>2015-10-18T11:06:41.327Z</time>
      </trkpt>
      <trkpt lat="45.59912" lon="4.74616">
        <ele>236</ele>
        <time>2015-10-18T11:06:43.365Z</time>
      </trkpt>
      <trkpt lat="45.5991" lon="4.7462">
        <ele>235</ele>
        <time>2015-10-18T11:06:44.335Z</time>
      </trkpt>
      <trkpt lat="45.59906" lon="4.74629">
        <ele>235</ele>
        <time>2015-10-18T11:06:46.366Z</time>
      </trkpt>
      <trkpt lat="45.59902" lon="4.74633">
        <ele>235</ele>
        <time>2015-10-18T11:06:47.342Z</time>
      </trkpt>
      <trkpt lat="45.59898" lon="4.74639">
        <ele>234</ele>
        <time>2015-10-18T11:06:48.352Z</time>
      </trkpt>
      <trkpt lat="45.59894" lon="4.74648">
        <ele>234</ele>
        <time>2015-10-18T11:06:49.323Z</time>
      </trkpt>
      <trkpt lat="45.59888" lon="4.74652">
        <ele>234</ele>
        <time>2015-10-18T11:06:50.331Z</time>
      </trkpt>
      <trkpt lat="45.59883" lon="4.74659">
        <ele>234</ele>
        <time>2015-10-18T11:06:51.310Z</time>
      </trkpt>
      <trkpt lat="45.59875" lon="4.74665">
        <ele>234</ele>
        <time>2015-10-18T11:06:52.328Z</time>
      </trkpt>
      <trkpt lat="45.59867" lon="4.74669">
        <ele>232</ele>
        <time>2015-10-18T11:06:53.293Z</time>
      </trkpt>
      <trkpt lat="45.59859" lon="4.74674">
        <ele>232</ele>
        <time>2015-10-18T11:06:54.303Z</time>
      </trkpt>
      <trkpt lat="45.59854" lon="4.74674">
        <ele>233</ele>
        <time>2015-10-18T11:06:55.295Z</time>
      </trkpt>
      <trkpt lat="45.59848" lon="4.7468">
        <ele>233</ele>
        <time>2015-10-18T11:07:00.393Z</time>
      </trkpt>
      <trkpt lat="45.59845" lon="4.74682">
        <ele>233</ele>
        <time>2015-10-18T11:07:01.351Z</time>
      </trkpt>
      <trkpt lat="45.59838" lon="4.7468">
        <ele>233</ele>
        <time>2015-10-18T11:08:00.337Z</time>
      </trkpt>
      <trkpt lat="45.59836" lon="4.7468">
        <ele>233</ele>
        <time>2015-10-18T11:08:01.324Z</time>
      </trkpt>
      <trkpt lat="45.59828" lon="4.74687">
        <ele>236</ele>
        <time>2015-10-18T11:08:58.367Z</time>
      </trkpt>
      <trkpt lat="45.59826" lon="4.74691">
        <ele>236</ele>
        <time>2015-10-18T11:08:59.322Z</time>
      </trkpt>
      <trkpt lat="45.59821" lon="4.74693">
        <ele>237</ele>
        <time>2015-10-18T11:09:32.353Z</time>
      </trkpt>
      <trkpt lat="45.59818" lon="4.74697">
        <ele>237</ele>
        <time>2015-10-18T11:09:33.322Z</time>
      </trkpt>
      <trkpt lat="45.59813" lon="4.74708">
        <ele>237</ele>
        <time>2015-10-18T11:09:51.371Z</time>
      </trkpt>
      <trkpt lat="45.59812" lon="4.7471">
        <ele>237</ele>
        <time>2015-10-18T11:09:52.327Z</time>
      </trkpt>
      <trkpt lat="45.59815" lon="4.74719">
        <ele>237</ele>
        <time>2015-10-18T11:10:01.375Z</time>
      </trkpt>
      <trkpt lat="45.59818" lon="4.74721">
        <ele>237</ele>
        <time>2015-10-18T11:10:02.326Z</time>
      </trkpt>
      <trkpt lat="45.59821" lon="4.7473">
        <ele>237</ele>
        <time>2015-10-18T11:10:14.372Z</time>
      </trkpt>
      <trkpt lat="45.59823" lon="4.74732">
        <ele>237</ele>
        <time>2015-10-18T11:10:15.327Z</time>
      </trkpt>
      <trkpt lat="45.59829" lon="4.7474">
        <ele>236</ele>
        <time>2015-10-18T11:10:23.359Z</time>
      </trkpt>
      <trkpt lat="45.5983" lon="4.74742">
        <ele>236</ele>
        <time>2015-10-18T11:10:24.330Z</time>
      </trkpt>
      <trkpt lat="45.59837" lon="4.74749">
        <ele>235</ele>
        <time>2015-10-18T11:10:34.361Z</time>
      </trkpt>
      <trkpt lat="45.59838" lon="4.74751">
        <ele>235</ele>
        <time>2015-10-18T11:10:35.333Z</time>
      </trkpt>
      <trkpt lat="45.59844" lon="4.74755">
        <ele>236</ele>
        <time>2015-10-18T11:10:42.361Z</time>
      </trkpt>
      <trkpt lat="45.59847" lon="4.74755">
        <ele>236</ele>
        <time>2015-10-18T11:10:43.327Z</time>
      </trkpt>
      <trkpt lat="45.59854" lon="4.7476">
        <ele>236</ele>
        <time>2015-10-18T11:10:49.360Z</time>
      </trkpt>
      <trkpt lat="45.59856" lon="4.74762">
        <ele>236</ele>
        <time>2015-10-18T11:10:50.329Z</time>
      </trkpt>
      <trkpt lat="45.59862" lon="4.7477">
        <ele>236</ele>
        <time>2015-10-18T11:10:56.351Z</time>
      </trkpt>
      <trkpt lat="45.59862" lon="4.74772">
        <ele>236</ele>
        <time>2015-10-18T11:10:57.346Z</time>
      </trkpt>
      <trkpt lat="45.59867" lon="4.74781">
        <ele>236</ele>
        <time>2015-10-18T11:11:02.370Z</time>
      </trkpt>
      <trkpt lat="45.59868" lon="4.74783">
        <ele>236</ele>
        <time>2015-10-18T11:11:03.334Z</time>
      </trkpt>
      <trkpt lat="45.59873" lon="4.74792">
        <ele>237</ele>
        <time>2015-10-18T11:11:11.361Z</time>
      </trkpt>
      <trkpt lat="45.59874" lon="4.74794">
        <ele>237</ele>
        <time>2015-10-18T11:11:12.332Z</time>
      </trkpt>
      <trkpt lat="45.59881" lon="4.74802">
        <ele>237</ele>
        <time>2015-10-18T11:11:18.368Z</time>
      </trkpt>
      <trkpt lat="45.59882" lon="4.74805">
        <ele>237</ele>
        <time>2015-10-18T11:11:19.348Z</time>
      </trkpt>
      <trkpt lat="45.59887" lon="4.74813">
        <ele>237</ele>
        <time>2015-10-18T11:11:28.349Z</time>
      </trkpt>
      <trkpt lat="45.59887" lon="4.74815">
        <ele>237</ele>
        <time>2015-10-18T11:11:29.334Z</time>
      </trkpt>
      <trkpt lat="45.59894" lon="4.74824">
        <ele>237</ele>
        <time>2015-10-18T11:11:35.363Z</time>
      </trkpt>
      <trkpt lat="45.59895" lon="4.74824">
        <ele>237</ele>
        <time>2015-10-18T11:11:36.328Z</time>
      </trkpt>
      <trkpt lat="45.59899" lon="4.74833">
        <ele>237</ele>
        <time>2015-10-18T11:11:42.373Z</time>
      </trkpt>
      <trkpt lat="45.599" lon="4.74835">
        <ele>239</ele>
        <time>2015-10-18T11:11:43.348Z</time>
      </trkpt>
      <trkpt lat="45.59907" lon="4.74843">
        <ele>238</ele>
        <time>2015-10-18T11:11:51.353Z</time>
      </trkpt>
      <trkpt lat="45.59907" lon="4.74845">
        <ele>239</ele>
        <time>2015-10-18T11:11:52.312Z</time>
      </trkpt>
      <trkpt lat="45.59913" lon="4.74854">
        <ele>239</ele>
        <time>2015-10-18T11:11:58.368Z</time>
      </trkpt>
      <trkpt lat="45.59914" lon="4.74856">
        <ele>239</ele>
        <time>2015-10-18T11:11:59.345Z</time>
      </trkpt>
      <trkpt lat="45.59919" lon="4.74865">
        <ele>236</ele>
        <time>2015-10-18T11:12:03.373Z</time>
      </trkpt>
      <trkpt lat="45.59921" lon="4.74867">
        <ele>236</ele>
        <time>2015-10-18T11:12:04.327Z</time>
      </trkpt>
      <trkpt lat="45.59926" lon="4.74875">
        <ele>236</ele>
        <time>2015-10-18T11:12:08.351Z</time>
      </trkpt>
      <trkpt lat="45.59929" lon="4.74878">
        <ele>236</ele>
        <time>2015-10-18T11:12:09.328Z</time>
      </trkpt>
      <trkpt lat="45.59938" lon="4.74875">
        <ele>235</ele>
        <time>2015-10-18T11:12:11.366Z</time>
      </trkpt>
      <trkpt lat="45.59943" lon="4.74875">
        <ele>235</ele>
        <time>2015-10-18T11:12:12.341Z</time>
      </trkpt>
      <trkpt lat="45.5995" lon="4.74875">
        <ele>235</ele>
        <time>2015-10-18T11:12:13.484Z</time>
      </trkpt>
      <trkpt lat="45.59957" lon="4.74878">
        <ele>235</ele>
        <time>2015-10-18T11:12:14.346Z</time>
      </trkpt>
      <trkpt lat="45.59957" lon="4.74878">
        <ele>235</ele>
        <time>2015-10-18T11:12:14.374Z</time>
      </trkpt>
      <trkpt lat="45.59966" lon="4.74882">
        <ele>235</ele>
        <time>2015-10-18T11:12:15.341Z</time>
      </trkpt>
      <trkpt lat="45.59966" lon="4.74882">
        <ele>235</ele>
        <time>2015-10-18T11:12:15.381Z</time>
      </trkpt>
      <trkpt lat="45.59975" lon="4.74884">
        <ele>235</ele>
        <time>2015-10-18T11:12:16.319Z</time>
      </trkpt>
      <trkpt lat="45.59975" lon="4.74884">
        <ele>235</ele>
        <time>2015-10-18T11:12:16.346Z</time>
      </trkpt>
      <trkpt lat="45.59985" lon="4.74884">
        <ele>234</ele>
        <time>2015-10-18T11:12:17.322Z</time>
      </trkpt>
      <trkpt lat="45.59994" lon="4.74884">
        <ele>234</ele>
        <time>2015-10-18T11:12:18.360Z</time>
      </trkpt>
      <trkpt lat="45.60002" lon="4.74884">
        <ele>228</ele>
        <time>2015-10-18T11:12:19.327Z</time>
      </trkpt>
      <trkpt lat="45.60011" lon="4.74886">
        <ele>228</ele>
        <time>2015-10-18T11:12:20.352Z</time>
      </trkpt>
      <trkpt lat="45.60018" lon="4.74888">
        <ele>228</ele>
        <time>2015-10-18T11:12:21.323Z</time>
      </trkpt>
      <trkpt lat="45.60027" lon="4.74888">
        <ele>227</ele>
        <time>2015-10-18T11:12:22.360Z</time>
      </trkpt>
      <trkpt lat="45.60035" lon="4.74888">
        <ele>226</ele>
        <time>2015-10-18T11:12:23.328Z</time>
      </trkpt>
      <trkpt lat="45.60035" lon="4.74888">
        <ele>226</ele>
        <time>2015-10-18T11:12:23.478Z</time>
      </trkpt>
      <trkpt lat="45.60045" lon="4.7489">
        <ele>225</ele>
        <time>2015-10-18T11:12:24.314Z</time>
      </trkpt>
      <trkpt lat="45.60045" lon="4.7489">
        <ele>225</ele>
        <time>2015-10-18T11:12:24.358Z</time>
      </trkpt>
      <trkpt lat="45.60056" lon="4.74893">
        <ele>224</ele>
        <time>2015-10-18T11:12:25.311Z</time>
      </trkpt>
      <trkpt lat="45.60056" lon="4.74893">
        <ele>224</ele>
        <time>2015-10-18T11:12:25.351Z</time>
      </trkpt>
      <trkpt lat="45.60068" lon="4.74893">
        <ele>223</ele>
        <time>2015-10-18T11:12:26.312Z</time>
      </trkpt>
      <trkpt lat="45.60068" lon="4.74893">
        <ele>223</ele>
        <time>2015-10-18T11:12:26.347Z</time>
      </trkpt>
      <trkpt lat="45.60078" lon="4.74893">
        <ele>222</ele>
        <time>2015-10-18T11:12:27.303Z</time>
      </trkpt>
      <trkpt lat="45.60078" lon="4.74893">
        <ele>222</ele>
        <time>2015-10-18T11:12:27.335Z</time>
      </trkpt>
      <trkpt lat="45.60088" lon="4.7489">
        <ele>212</ele>
        <time>2015-10-18T11:12:28.303Z</time>
      </trkpt>
      <trkpt lat="45.60094" lon="4.74886">
        <ele>212</ele>
        <time>2015-10-18T11:12:29.344Z</time>
      </trkpt>
      <trkpt lat="45.60099" lon="4.74882">
        <ele>211</ele>
        <time>2015-10-18T11:12:30.317Z</time>
      </trkpt>
      <trkpt lat="45.60104" lon="4.74878">
        <ele>211</ele>
        <time>2015-10-18T11:12:31.338Z</time>
      </trkpt>
      <trkpt lat="45.60109" lon="4.74875">
        <ele>210</ele>
        <time>2015-10-18T11:12:32.296Z</time>
      </trkpt>
      <trkpt lat="45.60113" lon="4.74878">
        <ele>210</ele>
        <time>2015-10-18T11:12:33.336Z</time>
      </trkpt>
      <trkpt lat="45.60117" lon="4.74888">
        <ele>209</ele>
        <time>2015-10-18T11:12:34.296Z</time>
      </trkpt>
      <trkpt lat="45.6012" lon="4.74897">
        <ele>209</ele>
        <time>2015-10-18T11:12:35.334Z</time>
      </trkpt>
      <trkpt lat="45.60124" lon="4.7491">
        <ele>208</ele>
        <time>2015-10-18T11:12:36.316Z</time>
      </trkpt>
      <trkpt lat="45.60128" lon="4.74918">
        <ele>204</ele>
        <time>2015-10-18T11:12:37.337Z</time>
      </trkpt>
      <trkpt lat="45.60131" lon="4.74927">
        <ele>204</ele>
        <time>2015-10-18T11:12:38.313Z</time>
      </trkpt>
      <trkpt lat="45.60137" lon="4.74933">
        <ele>203</ele>
        <time>2015-10-18T11:12:39.348Z</time>
      </trkpt>
      <trkpt lat="45.60143" lon="4.7494">
        <ele>202</ele>
        <time>2015-10-18T11:12:40.320Z</time>
      </trkpt>
      <trkpt lat="45.60148" lon="4.74944">
        <ele>202</ele>
        <time>2015-10-18T11:12:41.333Z</time>
      </trkpt>
      <trkpt lat="45.6015" lon="4.74948">
        <ele>201</ele>
        <time>2015-10-18T11:12:42.318Z</time>
      </trkpt>
      <trkpt lat="45.60151" lon="4.74957">
        <ele>201</ele>
        <time>2015-10-18T11:12:45.337Z</time>
      </trkpt>
      <trkpt lat="45.6015" lon="4.74961">
        <ele>201</ele>
        <time>2015-10-18T11:12:46.315Z</time>
      </trkpt>
      <trkpt lat="45.60147" lon="4.74968">
        <ele>201</ele>
        <time>2015-10-18T11:12:47.341Z</time>
      </trkpt>
      <trkpt lat="45.60145" lon="4.74974">
        <ele>201</ele>
        <time>2015-10-18T11:12:48.323Z</time>
      </trkpt>
      <trkpt lat="45.60137" lon="4.74981">
        <ele>201</ele>
        <time>2015-10-18T11:12:53.354Z</time>
      </trkpt>
      <trkpt lat="45.60136" lon="4.74981">
        <ele>201</ele>
        <time>2015-10-18T11:12:54.324Z</time>
      </trkpt>
      <trkpt lat="45.60139" lon="4.74991">
        <ele>200</ele>
        <time>2015-10-18T11:12:59.354Z</time>
      </trkpt>
      <trkpt lat="45.60139" lon="4.75">
        <ele>200</ele>
        <time>2015-10-18T11:13:00.330Z</time>
      </trkpt>
      <trkpt lat="45.60138" lon="4.75008">
        <ele>196</ele>
        <time>2015-10-18T11:13:01.359Z</time>
      </trkpt>
      <trkpt lat="45.60138" lon="4.75021">
        <ele>196</ele>
        <time>2015-10-18T11:13:02.326Z</time>
      </trkpt>
      <trkpt lat="45.60139" lon="4.7503">
        <ele>196</ele>
        <time>2015-10-18T11:13:03.355Z</time>
      </trkpt>
      <trkpt lat="45.60142" lon="4.75036">
        <ele>196</ele>
        <time>2015-10-18T11:13:04.332Z</time>
      </trkpt>
      <trkpt lat="45.60147" lon="4.75043">
        <ele>195</ele>
        <time>2015-10-18T11:13:05.327Z</time>
      </trkpt>
      <trkpt lat="45.60154" lon="4.75047">
        <ele>195</ele>
        <time>2015-10-18T11:13:06.321Z</time>
      </trkpt>
      <trkpt lat="45.60162" lon="4.75047">
        <ele>194</ele>
        <time>2015-10-18T11:13:07.351Z</time>
      </trkpt>
      <trkpt lat="45.60168" lon="4.75045">
        <ele>193</ele>
        <time>2015-10-18T11:13:08.325Z</time>
      </trkpt>
      <trkpt lat="45.60176" lon="4.75043">
        <ele>193</ele>
        <time>2015-10-18T11:13:09.459Z</time>
      </trkpt>
      <trkpt lat="45.60182" lon="4.75039">
        <ele>193</ele>
        <time>2015-10-18T11:13:10.312Z</time>
      </trkpt>
      <trkpt lat="45.60188" lon="4.75034">
        <ele>193</ele>
        <time>2015-10-18T11:13:11.357Z</time>
      </trkpt>
      <trkpt lat="45.60191" lon="4.75032">
        <ele>193</ele>
        <time>2015-10-18T11:13:12.317Z</time>
      </trkpt>
      <trkpt lat="45.60195" lon="4.75039">
        <ele>193</ele>
        <time>2015-10-18T11:13:16.360Z</time>
      </trkpt>
      <trkpt lat="45.60197" lon="4.75043">
        <ele>193</ele>
        <time>2015-10-18T11:13:17.320Z</time>
      </trkpt>
      <trkpt lat="45.60198" lon="4.75054">
        <ele>193</ele>
        <time>2015-10-18T11:13:22.341Z</time>
      </trkpt>
      <trkpt lat="45.60197" lon="4.75056">
        <ele>193</ele>
        <time>2015-10-18T11:13:23.325Z</time>
      </trkpt>
      <trkpt lat="45.60194" lon="4.75066">
        <ele>192</ele>
        <time>2015-10-18T11:13:29.337Z</time>
      </trkpt>
      <trkpt lat="45.60194" lon="4.75069">
        <ele>192</ele>
        <time>2015-10-18T11:13:30.313Z</time>
      </trkpt>
      <trkpt lat="45.60196" lon="4.75079">
        <ele>192</ele>
        <time>2015-10-18T11:13:33.456Z</time>
      </trkpt>
      <trkpt lat="45.60198" lon="4.75081">
        <ele>192</ele>
        <time>2015-10-18T11:13:34.319Z</time>
      </trkpt>
      <trkpt lat="45.60201" lon="4.75088">
        <ele>191</ele>
        <time>2015-10-18T11:13:35.349Z</time>
      </trkpt>
      <trkpt lat="45.60204" lon="4.75094">
        <ele>192</ele>
        <time>2015-10-18T11:13:36.320Z</time>
      </trkpt>
      <trkpt lat="45.60206" lon="4.75099">
        <ele>192</ele>
        <time>2015-10-18T11:13:37.366Z</time>
      </trkpt>
      <trkpt lat="45.60209" lon="4.75105">
        <ele>192</ele>
        <time>2015-10-18T11:13:38.326Z</time>
      </trkpt>
      <trkpt lat="45.60212" lon="4.75109">
        <ele>192</ele>
        <time>2015-10-18T11:13:39.360Z</time>
      </trkpt>
      <trkpt lat="45.60216" lon="4.75116">
        <ele>192</ele>
        <time>2015-10-18T11:13:40.326Z</time>
      </trkpt>
      <trkpt lat="45.60219" lon="4.7512">
        <ele>192</ele>
        <time>2015-10-18T11:13:41.367Z</time>
      </trkpt>
      <trkpt lat="45.60222" lon="4.75127">
        <ele>192</ele>
        <time>2015-10-18T11:13:42.322Z</time>
      </trkpt>
      <trkpt lat="45.60225" lon="4.75131">
        <ele>193</ele>
        <time>2015-10-18T11:13:43.350Z</time>
      </trkpt>
      <trkpt lat="45.60228" lon="4.75137">
        <ele>193</ele>
        <time>2015-10-18T11:13:44.325Z</time>
      </trkpt>
      <trkpt lat="45.60233" lon="4.75146">
        <ele>193</ele>
        <time>2015-10-18T11:13:45.355Z</time>
      </trkpt>
      <trkpt lat="45.60235" lon="4.75152">
        <ele>193</ele>
        <time>2015-10-18T11:13:46.314Z</time>
      </trkpt>
      <trkpt lat="45.60242" lon="4.75154">
        <ele>194</ele>
        <time>2015-10-18T11:13:48.338Z</time>
      </trkpt>
      <trkpt lat="45.60247" lon="4.75157">
        <ele>194</ele>
        <time>2015-10-18T11:13:49.308Z</time>
      </trkpt>
      <trkpt lat="45.60255" lon="4.75159">
        <ele>194</ele>
        <time>2015-10-18T11:13:54.340Z</time>
      </trkpt>
      <trkpt lat="45.60257" lon="4.75161">
        <ele>194</ele>
        <time>2015-10-18T11:13:55.306Z</time>
      </trkpt>
      <trkpt lat="45.60265" lon="4.75165">
        <ele>194</ele>
        <time>2015-10-18T11:13:59.336Z</time>
      </trkpt>
      <trkpt lat="45.60266" lon="4.75165">
        <ele>194</ele>
        <time>2015-10-18T11:14:00.305Z</time>
      </trkpt>
      <trkpt lat="45.60275" lon="4.75163">
        <ele>193</ele>
        <time>2015-10-18T11:14:05.354Z</time>
      </trkpt>
      <trkpt lat="45.60276" lon="4.75161">
        <ele>193</ele>
        <time>2015-10-18T11:14:06.320Z</time>
      </trkpt>
      <trkpt lat="45.60283" lon="4.75157">
        <ele>193</ele>
        <time>2015-10-18T11:14:10.347Z</time>
      </trkpt>
      <trkpt lat="45.60285" lon="4.75157">
        <ele>193</ele>
        <time>2015-10-18T11:14:11.311Z</time>
      </trkpt>
      <trkpt lat="45.6029" lon="4.75152">
        <ele>193</ele>
        <time>2015-10-18T11:14:13.347Z</time>
      </trkpt>
      <trkpt lat="45.60294" lon="4.75148">
        <ele>193</ele>
        <time>2015-10-18T11:14:14.310Z</time>
      </trkpt>
      <trkpt lat="45.60301" lon="4.75142">
        <ele>193</ele>
        <time>2015-10-18T11:14:17.344Z</time>
      </trkpt>
      <trkpt lat="45.60304" lon="4.75139">
        <ele>193</ele>
        <time>2015-10-18T11:14:18.305Z</time>
      </trkpt>
      <trkpt lat="45.60308" lon="4.75135">
        <ele>193</ele>
        <time>2015-10-18T11:14:19.338Z</time>
      </trkpt>
      <trkpt lat="45.60311" lon="4.75131">
        <ele>192</ele>
        <time>2015-10-18T11:14:20.304Z</time>
      </trkpt>
      <trkpt lat="45.60319" lon="4.75124">
        <ele>192</ele>
        <time>2015-10-18T11:14:22.322Z</time>
      </trkpt>
      <trkpt lat="45.60323" lon="4.75122">
        <ele>192</ele>
        <time>2015-10-18T11:14:23.301Z</time>
      </trkpt>
      <trkpt lat="45.60329" lon="4.75116">
        <ele>192</ele>
        <time>2015-10-18T11:14:25.340Z</time>
      </trkpt>
      <trkpt lat="45.60335" lon="4.75111">
        <ele>189</ele>
        <time>2015-10-18T11:14:26.300Z</time>
      </trkpt>
      <trkpt lat="45.60339" lon="4.75107">
        <ele>189</ele>
        <time>2015-10-18T11:14:27.357Z</time>
      </trkpt>
      <trkpt lat="45.60346" lon="4.75103">
        <ele>189</ele>
        <time>2015-10-18T11:14:28.315Z</time>
      </trkpt>
      <trkpt lat="45.60354" lon="4.75099">
        <ele>189</ele>
        <time>2015-10-18T11:14:30.348Z</time>
      </trkpt>
      <trkpt lat="45.60359" lon="4.75096">
        <ele>189</ele>
        <time>2015-10-18T11:14:31.350Z</time>
      </trkpt>
      <trkpt lat="45.60368" lon="4.75094">
        <ele>188</ele>
        <time>2015-10-18T11:14:33.480Z</time>
      </trkpt>
      <trkpt lat="45.60373" lon="4.75094">
        <ele>188</ele>
        <time>2015-10-18T11:14:34.318Z</time>
      </trkpt>
      <trkpt lat="45.60381" lon="4.75096">
        <ele>188</ele>
        <time>2015-10-18T11:14:36.399Z</time>
      </trkpt>
      <trkpt lat="45.60385" lon="4.75101">
        <ele>187</ele>
        <time>2015-10-18T11:14:37.317Z</time>
      </trkpt>
      <trkpt lat="45.6039" lon="4.75109">
        <ele>187</ele>
        <time>2015-10-18T11:14:40.357Z</time>
      </trkpt>
      <trkpt lat="45.60393" lon="4.75111">
        <ele>187</ele>
        <time>2015-10-18T11:14:41.346Z</time>
      </trkpt>
      <trkpt lat="45.60398" lon="4.75118">
        <ele>187</ele>
        <time>2015-10-18T11:14:43.640Z</time>
      </trkpt>
      <trkpt lat="45.604" lon="4.7512">
        <ele>187</ele>
        <time>2015-10-18T11:14:44.313Z</time>
      </trkpt>
      <trkpt lat="45.60407" lon="4.75124">
        <ele>187</ele>
        <time>2015-10-18T11:14:46.365Z</time>
      </trkpt>
      <trkpt lat="45.6041" lon="4.75127">
        <ele>187</ele>
        <time>2015-10-18T11:14:47.313Z</time>
      </trkpt>
      <trkpt lat="45.60417" lon="4.75133">
        <ele>186</ele>
        <time>2015-10-18T11:14:49.372Z</time>
      </trkpt>
      <trkpt lat="45.60423" lon="4.75135">
        <ele>186</ele>
        <time>2015-10-18T11:14:50.312Z</time>
      </trkpt>
      <trkpt lat="45.60428" lon="4.75137">
        <ele>186</ele>
        <time>2015-10-18T11:14:51.343Z</time>
      </trkpt>
      <trkpt lat="45.60434" lon="4.75137">
        <ele>186</ele>
        <time>2015-10-18T11:14:52.359Z</time>
      </trkpt>
      <trkpt lat="45.6044" lon="4.75139">
        <ele>186</ele>
        <time>2015-10-18T11:14:53.354Z</time>
      </trkpt>
      <trkpt lat="45.60446" lon="4.75144">
        <ele>186</ele>
        <time>2015-10-18T11:14:54.318Z</time>
      </trkpt>
      <trkpt lat="45.60451" lon="4.75148">
        <ele>186</ele>
        <time>2015-10-18T11:14:55.351Z</time>
      </trkpt>
      <trkpt lat="45.60456" lon="4.75152">
        <ele>186</ele>
        <time>2015-10-18T11:14:56.330Z</time>
      </trkpt>
      <trkpt lat="45.6046" lon="4.75157">
        <ele>186</ele>
        <time>2015-10-18T11:14:57.358Z</time>
      </trkpt>
      <trkpt lat="45.60465" lon="4.75163">
        <ele>186</ele>
        <time>2015-10-18T11:14:58.322Z</time>
      </trkpt>
      <trkpt lat="45.60469" lon="4.75169">
        <ele>184</ele>
        <time>2015-10-18T11:14:59.347Z</time>
      </trkpt>
      <trkpt lat="45.60472" lon="4.75174">
        <ele>184</ele>
        <time>2015-10-18T11:15:00.304Z</time>
      </trkpt>
      <trkpt lat="45.60475" lon="4.75182">
        <ele>184</ele>
        <time>2015-10-18T11:15:01.350Z</time>
      </trkpt>
      <trkpt lat="45.60478" lon="4.75189">
        <ele>184</ele>
        <time>2015-10-18T11:15:02.313Z</time>
      </trkpt>
      <trkpt lat="45.60481" lon="4.75195">
        <ele>184</ele>
        <time>2015-10-18T11:15:03.350Z</time>
      </trkpt>
      <trkpt lat="45.60483" lon="4.75202">
        <ele>184</ele>
        <time>2015-10-18T11:15:04.326Z</time>
      </trkpt>
      <trkpt lat="45.60484" lon="4.75208">
        <ele>184</ele>
        <time>2015-10-18T11:15:05.446Z</time>
      </trkpt>
      <trkpt lat="45.60486" lon="4.75214">
        <ele>184</ele>
        <time>2015-10-18T11:15:06.321Z</time>
      </trkpt>
      <trkpt lat="45.60488" lon="4.75221">
        <ele>184</ele>
        <time>2015-10-18T11:15:07.340Z</time>
      </trkpt>
      <trkpt lat="45.60489" lon="4.75227">
        <ele>184</ele>
        <time>2015-10-18T11:15:08.318Z</time>
      </trkpt>
      <trkpt lat="45.6049" lon="4.75236">
        <ele>184</ele>
        <time>2015-10-18T11:15:09.345Z</time>
      </trkpt>
      <trkpt lat="45.6049" lon="4.75242">
        <ele>184</ele>
        <time>2015-10-18T11:15:10.321Z</time>
      </trkpt>
      <trkpt lat="45.60491" lon="4.75249">
        <ele>183</ele>
        <time>2015-10-18T11:15:11.351Z</time>
      </trkpt>
      <trkpt lat="45.60491" lon="4.75255">
        <ele>183</ele>
        <time>2015-10-18T11:15:12.317Z</time>
      </trkpt>
      <trkpt lat="45.6049" lon="4.75262">
        <ele>183</ele>
        <time>2015-10-18T11:15:13.371Z</time>
      </trkpt>
      <trkpt lat="45.6049" lon="4.7527">
        <ele>183</ele>
        <time>2015-10-18T11:15:14.322Z</time>
      </trkpt>
      <trkpt lat="45.60489" lon="4.75277">
        <ele>184</ele>
        <time>2015-10-18T11:15:15.357Z</time>
      </trkpt>
      <trkpt lat="45.60488" lon="4.75283">
        <ele>184</ele>
        <time>2015-10-18T11:15:16.319Z</time>
      </trkpt>
      <trkpt lat="45.60487" lon="4.7529">
        <ele>184</ele>
        <time>2015-10-18T11:15:17.349Z</time>
      </trkpt>
      <trkpt lat="45.60486" lon="4.75296">
        <ele>184</ele>
        <time>2015-10-18T11:15:18.321Z</time>
      </trkpt>
      <trkpt lat="45.60485" lon="4.75305">
        <ele>184</ele>
        <time>2015-10-18T11:15:19.340Z</time>
      </trkpt>
      <trkpt lat="45.60484" lon="4.75311">
        <ele>184</ele>
        <time>2015-10-18T11:15:20.320Z</time>
      </trkpt>
      <trkpt lat="45.60482" lon="4.75317">
        <ele>184</ele>
        <time>2015-10-18T11:15:21.348Z</time>
      </trkpt>
      <trkpt lat="45.6048" lon="4.75324">
        <ele>184</ele>
        <time>2015-10-18T11:15:22.317Z</time>
      </trkpt>
      <trkpt lat="45.60477" lon="4.7533">
        <ele>184</ele>
        <time>2015-10-18T11:15:23.363Z</time>
      </trkpt>
      <trkpt lat="45.60475" lon="4.75337">
        <ele>185</ele>
        <time>2015-10-18T11:15:24.323Z</time>
      </trkpt>
      <trkpt lat="45.60473" lon="4.75343">
        <ele>185</ele>
        <time>2015-10-18T11:15:25.348Z</time>
      </trkpt>
      <trkpt lat="45.60471" lon="4.75352">
        <ele>185</ele>
        <time>2015-10-18T11:15:26.305Z</time>
      </trkpt>
      <trkpt lat="45.60468" lon="4.75358">
        <ele>185</ele>
        <time>2015-10-18T11:15:27.441Z</time>
      </trkpt>
      <trkpt lat="45.60466" lon="4.75365">
        <ele>185</ele>
        <time>2015-10-18T11:15:28.311Z</time>
      </trkpt>
      <trkpt lat="45.60459" lon="4.75373">
        <ele>185</ele>
        <time>2015-10-18T11:15:30.345Z</time>
      </trkpt>
      <trkpt lat="45.60456" lon="4.75378">
        <ele>185</ele>
        <time>2015-10-18T11:15:31.322Z</time>
      </trkpt>
      <trkpt lat="45.60448" lon="4.75384">
        <ele>185</ele>
        <time>2015-10-18T11:15:33.346Z</time>
      </trkpt>
      <trkpt lat="45.60443" lon="4.75384">
        <ele>185</ele>
        <time>2015-10-18T11:15:34.314Z</time>
      </trkpt>
      <trkpt lat="45.60436" lon="4.7539">
        <ele>185</ele>
        <time>2015-10-18T11:15:36.340Z</time>
      </trkpt>
      <trkpt lat="45.60431" lon="4.75393">
        <ele>184</ele>
        <time>2015-10-18T11:15:37.310Z</time>
      </trkpt>
      <trkpt lat="45.60427" lon="4.75395">
        <ele>184</ele>
        <time>2015-10-18T11:15:38.341Z</time>
      </trkpt>
      <trkpt lat="45.60422" lon="4.75399">
        <ele>184</ele>
        <time>2015-10-18T11:15:39.304Z</time>
      </trkpt>
      <trkpt lat="45.60415" lon="4.75405">
        <ele>186</ele>
        <time>2015-10-18T11:15:41.325Z</time>
      </trkpt>
      <trkpt lat="45.60412" lon="4.7541">
        <ele>185</ele>
        <time>2015-10-18T11:15:42.302Z</time>
      </trkpt>
      <trkpt lat="45.60408" lon="4.75414">
        <ele>186</ele>
        <time>2015-10-18T11:15:43.327Z</time>
      </trkpt>
      <trkpt lat="45.60404" lon="4.75418">
        <ele>189</ele>
        <time>2015-10-18T11:15:44.313Z</time>
      </trkpt>
      <trkpt lat="45.60398" lon="4.75427">
        <ele>193</ele>
        <time>2015-10-18T11:15:46.357Z</time>
      </trkpt>
      <trkpt lat="45.60396" lon="4.75431">
        <ele>194</ele>
        <time>2015-10-18T11:15:47.310Z</time>
      </trkpt>
      <trkpt lat="45.60389" lon="4.7544">
        <ele>196</ele>
        <time>2015-10-18T11:15:49.345Z</time>
      </trkpt>
      <trkpt lat="45.60386" lon="4.75444">
        <ele>197</ele>
        <time>2015-10-18T11:15:50.299Z</time>
      </trkpt>
      <trkpt lat="45.60382" lon="4.75453">
        <ele>198</ele>
        <time>2015-10-18T11:15:52.444Z</time>
      </trkpt>
      <trkpt lat="45.60384" lon="4.75459">
        <ele>199</ele>
        <time>2015-10-18T11:15:53.293Z</time>
      </trkpt>
      <trkpt lat="45.60386" lon="4.75468">
        <ele>199</ele>
        <time>2015-10-18T11:15:55.328Z</time>
      </trkpt>
      <trkpt lat="45.60387" lon="4.75472">
        <ele>199</ele>
        <time>2015-10-18T11:15:56.295Z</time>
      </trkpt>
      <trkpt lat="45.60387" lon="4.75483">
        <ele>200</ele>
        <time>2015-10-18T11:16:03.334Z</time>
      </trkpt>
      <trkpt lat="45.60386" lon="4.75485">
        <ele>200</ele>
        <time>2015-10-18T11:16:04.293Z</time>
      </trkpt>
      <trkpt lat="45.60394" lon="4.75489">
        <ele>199</ele>
        <time>2015-10-18T11:16:08.331Z</time>
      </trkpt>
      <trkpt lat="45.60395" lon="4.75491">
        <ele>199</ele>
        <time>2015-10-18T11:16:09.304Z</time>
      </trkpt>
      <trkpt lat="45.60398" lon="4.755">
        <ele>198</ele>
        <time>2015-10-18T11:16:15.319Z</time>
      </trkpt>
      <trkpt lat="45.604" lon="4.75502">
        <ele>206</ele>
        <time>2015-10-18T11:16:16.288Z</time>
      </trkpt>
      <trkpt lat="45.60408" lon="4.75506">
        <ele>203</ele>
        <time>2015-10-18T11:16:19.330Z</time>
      </trkpt>
      <trkpt lat="45.60409" lon="4.75508">
        <ele>203</ele>
        <time>2015-10-18T11:16:20.283Z</time>
      </trkpt>
      <trkpt lat="45.60414" lon="4.75517">
        <ele>206</ele>
        <time>2015-10-18T11:16:26.448Z</time>
      </trkpt>
      <trkpt lat="45.60415" lon="4.75519">
        <ele>207</ele>
        <time>2015-10-18T11:16:27.283Z</time>
      </trkpt>
      <trkpt lat="45.60422" lon="4.75528">
        <ele>199</ele>
        <time>2015-10-18T11:16:35.335Z</time>
      </trkpt>
      <trkpt lat="45.60423" lon="4.75528">
        <ele>199</ele>
        <time>2015-10-18T11:16:36.283Z</time>
      </trkpt>
      <trkpt lat="45.60429" lon="4.75536">
        <ele>201</ele>
        <time>2015-10-18T11:16:41.333Z</time>
      </trkpt>
      <trkpt lat="45.60431" lon="4.75536">
        <ele>201</ele>
        <time>2015-10-18T11:16:42.304Z</time>
      </trkpt>
      <trkpt lat="45.60436" lon="4.75545">
        <ele>202</ele>
        <time>2015-10-18T11:16:46.324Z</time>
      </trkpt>
      <trkpt lat="45.60438" lon="4.75547">
        <ele>202</ele>
        <time>2015-10-18T11:16:47.290Z</time>
      </trkpt>
      <trkpt lat="45.60445" lon="4.75554">
        <ele>202</ele>
        <time>2015-10-18T11:16:52.333Z</time>
      </trkpt>
      <trkpt lat="45.60447" lon="4.75556">
        <ele>202</ele>
        <time>2015-10-18T11:16:53.308Z</time>
      </trkpt>
      <trkpt lat="45.60455" lon="4.75562">
        <ele>201</ele>
        <time>2015-10-18T11:17:02.366Z</time>
      </trkpt>
      <trkpt lat="45.60458" lon="4.75564">
        <ele>201</ele>
        <time>2015-10-18T11:17:03.303Z</time>
      </trkpt>
      <trkpt lat="45.60466" lon="4.75566">
        <ele>200</ele>
        <time>2015-10-18T11:17:09.339Z</time>
      </trkpt>
      <trkpt lat="45.60468" lon="4.75566">
        <ele>200</ele>
        <time>2015-10-18T11:17:10.317Z</time>
      </trkpt>
      <trkpt lat="45.60475" lon="4.75571">
        <ele>199</ele>
        <time>2015-10-18T11:17:14.343Z</time>
      </trkpt>
      <trkpt lat="45.60477" lon="4.75573">
        <ele>199</ele>
        <time>2015-10-18T11:17:15.321Z</time>
      </trkpt>
      <trkpt lat="45.60485" lon="4.75577">
        <ele>198</ele>
        <time>2015-10-18T11:17:18.340Z</time>
      </trkpt>
      <trkpt lat="45.60487" lon="4.75577">
        <ele>197</ele>
        <time>2015-10-18T11:17:19.325Z</time>
      </trkpt>
      <trkpt lat="45.60493" lon="4.75581">
        <ele>196</ele>
        <time>2015-10-18T11:17:22.330Z</time>
      </trkpt>
      <trkpt lat="45.60496" lon="4.75584">
        <ele>198</ele>
        <time>2015-10-18T11:17:23.307Z</time>
      </trkpt>
      <trkpt lat="45.60503" lon="4.75588">
        <ele>195</ele>
        <time>2015-10-18T11:17:27.338Z</time>
      </trkpt>
      <trkpt lat="45.60505" lon="4.75588">
        <ele>195</ele>
        <time>2015-10-18T11:17:28.310Z</time>
      </trkpt>
      <trkpt lat="45.60514" lon="4.7559">
        <ele>195</ele>
        <time>2015-10-18T11:17:33.347Z</time>
      </trkpt>
      <trkpt lat="45.60515" lon="4.7559">
        <ele>195</ele>
        <time>2015-10-18T11:17:34.312Z</time>
      </trkpt>
      <trkpt lat="45.60522" lon="4.75596">
        <ele>195</ele>
        <time>2015-10-18T11:17:39.350Z</time>
      </trkpt>
      <trkpt lat="45.60524" lon="4.75596">
        <ele>195</ele>
        <time>2015-10-18T11:17:40.310Z</time>
      </trkpt>
      <trkpt lat="45.6053" lon="4.75605">
        <ele>195</ele>
        <time>2015-10-18T11:17:45.351Z</time>
      </trkpt>
      <trkpt lat="45.60531" lon="4.75607">
        <ele>195</ele>
        <time>2015-10-18T11:17:46.309Z</time>
      </trkpt>
      <trkpt lat="45.60535" lon="4.75616">
        <ele>196</ele>
        <time>2015-10-18T11:17:48.336Z</time>
      </trkpt>
      <trkpt lat="45.60536" lon="4.75618">
        <ele>196</ele>
        <time>2015-10-18T11:17:49.299Z</time>
      </trkpt>
      <trkpt lat="45.6054" lon="4.75629">
        <ele>196</ele>
        <time>2015-10-18T11:17:51.347Z</time>
      </trkpt>
      <trkpt lat="45.60543" lon="4.75633">
        <ele>196</ele>
        <time>2015-10-18T11:17:52.307Z</time>
      </trkpt>
      <trkpt lat="45.60546" lon="4.75641">
        <ele>197</ele>
        <time>2015-10-18T11:17:54.344Z</time>
      </trkpt>
      <trkpt lat="45.60548" lon="4.75644">
        <ele>196</ele>
        <time>2015-10-18T11:17:55.308Z</time>
      </trkpt>
      <trkpt lat="45.60555" lon="4.75648">
        <ele>196</ele>
        <time>2015-10-18T11:17:58.339Z</time>
      </trkpt>
      <trkpt lat="45.60557" lon="4.7565">
        <ele>196</ele>
        <time>2015-10-18T11:17:59.306Z</time>
      </trkpt>
      <trkpt lat="45.60562" lon="4.75654">
        <ele>195</ele>
        <time>2015-10-18T11:18:01.337Z</time>
      </trkpt>
      <trkpt lat="45.60567" lon="4.75654">
        <ele>194</ele>
        <time>2015-10-18T11:18:02.307Z</time>
      </trkpt>
      <trkpt lat="45.60574" lon="4.75657">
        <ele>194</ele>
        <time>2015-10-18T11:18:05.354Z</time>
      </trkpt>
      <trkpt lat="45.60577" lon="4.75659">
        <ele>193</ele>
        <time>2015-10-18T11:18:06.316Z</time>
      </trkpt>
      <trkpt lat="45.60586" lon="4.75661">
        <ele>190</ele>
        <time>2015-10-18T11:18:08.351Z</time>
      </trkpt>
      <trkpt lat="45.60589" lon="4.75663">
        <ele>189</ele>
        <time>2015-10-18T11:18:09.322Z</time>
      </trkpt>
      <trkpt lat="45.60593" lon="4.75665">
        <ele>189</ele>
        <time>2015-10-18T11:18:10.350Z</time>
      </trkpt>
      <trkpt lat="45.60599" lon="4.75667">
        <ele>190</ele>
        <time>2015-10-18T11:18:11.320Z</time>
      </trkpt>
      <trkpt lat="45.60604" lon="4.75672">
        <ele>189</ele>
        <time>2015-10-18T11:18:12.371Z</time>
      </trkpt>
      <trkpt lat="45.6061" lon="4.75678">
        <ele>188</ele>
        <time>2015-10-18T11:18:13.310Z</time>
      </trkpt>
      <trkpt lat="45.60614" lon="4.75687">
        <ele>188</ele>
        <time>2015-10-18T11:18:14.351Z</time>
      </trkpt>
      <trkpt lat="45.60617" lon="4.75693">
        <ele>188</ele>
        <time>2015-10-18T11:18:15.313Z</time>
      </trkpt>
      <trkpt lat="45.60622" lon="4.75702">
        <ele>188</ele>
        <time>2015-10-18T11:18:17.334Z</time>
      </trkpt>
      <trkpt lat="45.60625" lon="4.75708">
        <ele>187</ele>
        <time>2015-10-18T11:18:18.311Z</time>
      </trkpt>
      <trkpt lat="45.60631" lon="4.75717">
        <ele>187</ele>
        <time>2015-10-18T11:18:20.337Z</time>
      </trkpt>
      <trkpt lat="45.60632" lon="4.75721">
        <ele>187</ele>
        <time>2015-10-18T11:18:21.312Z</time>
      </trkpt>
      <trkpt lat="45.60634" lon="4.75729">
        <ele>187</ele>
        <time>2015-10-18T11:18:23.338Z</time>
      </trkpt>
      <trkpt lat="45.60635" lon="4.75734">
        <ele>187</ele>
        <time>2015-10-18T11:18:24.308Z</time>
      </trkpt>
      <trkpt lat="45.60635" lon="4.75744">
        <ele>187</ele>
        <time>2015-10-18T11:18:26.349Z</time>
      </trkpt>
      <trkpt lat="45.60636" lon="4.75747">
        <ele>187</ele>
        <time>2015-10-18T11:18:27.315Z</time>
      </trkpt>
      <trkpt lat="45.6064" lon="4.75753">
        <ele>189</ele>
        <time>2015-10-18T11:18:29.350Z</time>
      </trkpt>
      <trkpt lat="45.60642" lon="4.75757">
        <ele>189</ele>
        <time>2015-10-18T11:18:30.303Z</time>
      </trkpt>
      <trkpt lat="45.60646" lon="4.75766">
        <ele>189</ele>
        <time>2015-10-18T11:18:33.336Z</time>
      </trkpt>
      <trkpt lat="45.60646" lon="4.7577">
        <ele>190</ele>
        <time>2015-10-18T11:18:34.307Z</time>
      </trkpt>
      <trkpt lat="45.60648" lon="4.75779">
        <ele>190</ele>
        <time>2015-10-18T11:18:36.343Z</time>
      </trkpt>
      <trkpt lat="45.6065" lon="4.75783">
        <ele>190</ele>
        <time>2015-10-18T11:18:37.299Z</time>
      </trkpt>
      <trkpt lat="45.60653" lon="4.7579">
        <ele>191</ele>
        <time>2015-10-18T11:18:38.338Z</time>
      </trkpt>
      <trkpt lat="45.60655" lon="4.75794">
        <ele>191</ele>
        <time>2015-10-18T11:18:39.307Z</time>
      </trkpt>
      <trkpt lat="45.60664" lon="4.75794">
        <ele>191</ele>
        <time>2015-10-18T11:18:44.357Z</time>
      </trkpt>
      <trkpt lat="45.60666" lon="4.75794">
        <ele>191</ele>
        <time>2015-10-18T11:18:45.330Z</time>
      </trkpt>
      <trkpt lat="45.60674" lon="4.75792">
        <ele>184</ele>
        <time>2015-10-18T11:18:48.340Z</time>
      </trkpt>
      <trkpt lat="45.60677" lon="4.75792">
        <ele>184</ele>
        <time>2015-10-18T11:18:49.328Z</time>
      </trkpt>
      <trkpt lat="45.60684" lon="4.75794">
        <ele>184</ele>
        <time>2015-10-18T11:18:52.360Z</time>
      </trkpt>
      <trkpt lat="45.60687" lon="4.75794">
        <ele>184</ele>
        <time>2015-10-18T11:18:53.320Z</time>
      </trkpt>
      <trkpt lat="45.60692" lon="4.75802">
        <ele>184</ele>
        <time>2015-10-18T11:18:57.352Z</time>
      </trkpt>
      <trkpt lat="45.60693" lon="4.75805">
        <ele>184</ele>
        <time>2015-10-18T11:18:58.320Z</time>
      </trkpt>
      <trkpt lat="45.60698" lon="4.75813">
        <ele>184</ele>
        <time>2015-10-18T11:19:02.352Z</time>
      </trkpt>
      <trkpt lat="45.60701" lon="4.75815">
        <ele>184</ele>
        <time>2015-10-18T11:19:03.315Z</time>
      </trkpt>
      <trkpt lat="45.60709" lon="4.75817">
        <ele>184</ele>
        <time>2015-10-18T11:19:05.359Z</time>
      </trkpt>
      <trkpt lat="45.60717" lon="4.7582">
        <ele>184</ele>
        <time>2015-10-18T11:19:06.316Z</time>
      </trkpt>
      <trkpt lat="45.60721" lon="4.7582">
        <ele>183</ele>
        <time>2015-10-18T11:19:07.343Z</time>
      </trkpt>
      <trkpt lat="45.60726" lon="4.7582">
        <ele>183</ele>
        <time>2015-10-18T11:19:08.309Z</time>
      </trkpt>
      <trkpt lat="45.60732" lon="4.7582">
        <ele>183</ele>
        <time>2015-10-18T11:19:09.337Z</time>
      </trkpt>
      <trkpt lat="45.60736" lon="4.75817">
        <ele>183</ele>
        <time>2015-10-18T11:19:10.300Z</time>
      </trkpt>
      <trkpt lat="45.60743" lon="4.75817">
        <ele>183</ele>
        <time>2015-10-18T11:19:12.349Z</time>
      </trkpt>
      <trkpt lat="45.60749" lon="4.75817">
        <ele>183</ele>
        <time>2015-10-18T11:19:13.303Z</time>
      </trkpt>
      <trkpt lat="45.60756" lon="4.75817">
        <ele>180</ele>
        <time>2015-10-18T11:19:15.359Z</time>
      </trkpt>
      <trkpt lat="45.60761" lon="4.75815">
        <ele>179</ele>
        <time>2015-10-18T11:19:16.339Z</time>
      </trkpt>
      <trkpt lat="45.60765" lon="4.75815">
        <ele>179</ele>
        <time>2015-10-18T11:19:17.341Z</time>
      </trkpt>
      <trkpt lat="45.60771" lon="4.75815">
        <ele>178</ele>
        <time>2015-10-18T11:19:18.311Z</time>
      </trkpt>
      <trkpt lat="45.60777" lon="4.75815">
        <ele>177</ele>
        <time>2015-10-18T11:19:19.335Z</time>
      </trkpt>
      <trkpt lat="45.60783" lon="4.75815">
        <ele>177</ele>
        <time>2015-10-18T11:19:20.309Z</time>
      </trkpt>
      <trkpt lat="45.6079" lon="4.75813">
        <ele>176</ele>
        <time>2015-10-18T11:19:21.337Z</time>
      </trkpt>
      <trkpt lat="45.60797" lon="4.75813">
        <ele>176</ele>
        <time>2015-10-18T11:19:22.325Z</time>
      </trkpt>
      <trkpt lat="45.60805" lon="4.75811">
        <ele>175</ele>
        <time>2015-10-18T11:19:23.355Z</time>
      </trkpt>
      <trkpt lat="45.60812" lon="4.75811">
        <ele>175</ele>
        <time>2015-10-18T11:19:24.318Z</time>
      </trkpt>
      <trkpt lat="45.6082" lon="4.75811">
        <ele>174</ele>
        <time>2015-10-18T11:19:25.370Z</time>
      </trkpt>
      <trkpt lat="45.60826" lon="4.75809">
        <ele>174</ele>
        <time>2015-10-18T11:19:26.319Z</time>
      </trkpt>
      <trkpt lat="45.60834" lon="4.75807">
        <ele>172</ele>
        <time>2015-10-18T11:19:27.346Z</time>
      </trkpt>
      <trkpt lat="45.60841" lon="4.75805">
        <ele>172</ele>
        <time>2015-10-18T11:19:28.318Z</time>
      </trkpt>
      <trkpt lat="45.60849" lon="4.75802">
        <ele>172</ele>
        <time>2015-10-18T11:19:29.351Z</time>
      </trkpt>
      <trkpt lat="45.60855" lon="4.758">
        <ele>173</ele>
        <time>2015-10-18T11:19:30.316Z</time>
      </trkpt>
      <trkpt lat="45.6086" lon="4.75796">
        <ele>173</ele>
        <time>2015-10-18T11:19:31.346Z</time>
      </trkpt>
      <trkpt lat="45.60865" lon="4.7579">
        <ele>173</ele>
        <time>2015-10-18T11:19:32.326Z</time>
      </trkpt>
      <trkpt lat="45.60871" lon="4.75781">
        <ele>173</ele>
        <time>2015-10-18T11:19:34.355Z</time>
      </trkpt>
      <trkpt lat="45.60874" lon="4.75779">
        <ele>173</ele>
        <time>2015-10-18T11:19:35.316Z</time>
      </trkpt>
      <trkpt lat="45.60883" lon="4.75777">
        <ele>173</ele>
        <time>2015-10-18T11:19:37.352Z</time>
      </trkpt>
      <trkpt lat="45.60887" lon="4.75779">
        <ele>173</ele>
        <time>2015-10-18T11:19:38.326Z</time>
      </trkpt>
      <trkpt lat="45.60892" lon="4.75781">
        <ele>173</ele>
        <time>2015-10-18T11:19:39.351Z</time>
      </trkpt>
      <trkpt lat="45.60896" lon="4.75785">
        <ele>173</ele>
        <time>2015-10-18T11:19:40.317Z</time>
      </trkpt>
      <trkpt lat="45.60898" lon="4.75792">
        <ele>173</ele>
        <time>2015-10-18T11:19:41.368Z</time>
      </trkpt>
      <trkpt lat="45.60898" lon="4.75798">
        <ele>173</ele>
        <time>2015-10-18T11:19:42.312Z</time>
      </trkpt>
      <trkpt lat="45.609" lon="4.75809">
        <ele>173</ele>
        <time>2015-10-18T11:19:44.340Z</time>
      </trkpt>
      <trkpt lat="45.60901" lon="4.75815">
        <ele>173</ele>
        <time>2015-10-18T11:19:45.315Z</time>
      </trkpt>
      <trkpt lat="45.60902" lon="4.75822">
        <ele>172</ele>
        <time>2015-10-18T11:19:46.352Z</time>
      </trkpt>
      <trkpt lat="45.60903" lon="4.75828">
        <ele>172</ele>
        <time>2015-10-18T11:19:47.318Z</time>
      </trkpt>
      <trkpt lat="45.60904" lon="4.75835">
        <ele>172</ele>
        <time>2015-10-18T11:19:48.355Z</time>
      </trkpt>
      <trkpt lat="45.60905" lon="4.75841">
        <ele>172</ele>
        <time>2015-10-18T11:19:49.316Z</time>
      </trkpt>
      <trkpt lat="45.60907" lon="4.75852">
        <ele>173</ele>
        <time>2015-10-18T11:19:51.348Z</time>
      </trkpt>
      <trkpt lat="45.60908" lon="4.75858">
        <ele>173</ele>
        <time>2015-10-18T11:19:52.317Z</time>
      </trkpt>
      <trkpt lat="45.60909" lon="4.75865">
        <ele>173</ele>
        <time>2015-10-18T11:19:53.339Z</time>
      </trkpt>
      <trkpt lat="45.6091" lon="4.75871">
        <ele>173</ele>
        <time>2015-10-18T11:19:54.324Z</time>
      </trkpt>
      <trkpt lat="45.60911" lon="4.75878">
        <ele>173</ele>
        <time>2015-10-18T11:19:55.352Z</time>
      </trkpt>
      <trkpt lat="45.60913" lon="4.75884">
        <ele>173</ele>
        <time>2015-10-18T11:19:56.319Z</time>
      </trkpt>
      <trkpt lat="45.60915" lon="4.7589">
        <ele>173</ele>
        <time>2015-10-18T11:19:57.369Z</time>
      </trkpt>
      <trkpt lat="45.60918" lon="4.75895">
        <ele>173</ele>
        <time>2015-10-18T11:19:58.317Z</time>
      </trkpt>
      <trkpt lat="45.60923" lon="4.75905">
        <ele>172</ele>
        <time>2015-10-18T11:20:00.350Z</time>
      </trkpt>
      <trkpt lat="45.60925" lon="4.7591">
        <ele>172</ele>
        <time>2015-10-18T11:20:01.321Z</time>
      </trkpt>
      <trkpt lat="45.60928" lon="4.75916">
        <ele>172</ele>
        <time>2015-10-18T11:20:02.354Z</time>
      </trkpt>
      <trkpt lat="45.60931" lon="4.75923">
        <ele>171</ele>
        <time>2015-10-18T11:20:03.338Z</time>
      </trkpt>
      <trkpt lat="45.60937" lon="4.75929">
        <ele>172</ele>
        <time>2015-10-18T11:20:05.361Z</time>
      </trkpt>
      <trkpt lat="45.60941" lon="4.75933">
        <ele>172</ele>
        <time>2015-10-18T11:20:06.321Z</time>
      </trkpt>
      <trkpt lat="45.60946" lon="4.75942">
        <ele>172</ele>
        <time>2015-10-18T11:20:08.366Z</time>
      </trkpt>
      <trkpt lat="45.60949" lon="4.75946">
        <ele>172</ele>
        <time>2015-10-18T11:20:09.319Z</time>
      </trkpt>
      <trkpt lat="45.60956" lon="4.75955">
        <ele>172</ele>
        <time>2015-10-18T11:20:11.462Z</time>
      </trkpt>
      <trkpt lat="45.60959" lon="4.75961">
        <ele>172</ele>
        <time>2015-10-18T11:20:12.324Z</time>
      </trkpt>
      <trkpt lat="45.60964" lon="4.7597">
        <ele>172</ele>
        <time>2015-10-18T11:20:14.348Z</time>
      </trkpt>
      <trkpt lat="45.60968" lon="4.75974">
        <ele>172</ele>
        <time>2015-10-18T11:20:15.322Z</time>
      </trkpt>
      <trkpt lat="45.60974" lon="4.75981">
        <ele>172</ele>
        <time>2015-10-18T11:20:17.344Z</time>
      </trkpt>
      <trkpt lat="45.60977" lon="4.75985">
        <ele>172</ele>
        <time>2015-10-18T11:20:18.314Z</time>
      </trkpt>
      <trkpt lat="45.60985" lon="4.75989">
        <ele>171</ele>
        <time>2015-10-18T11:20:20.342Z</time>
      </trkpt>
      <trkpt lat="45.60988" lon="4.75993">
        <ele>171</ele>
        <time>2015-10-18T11:20:21.303Z</time>
      </trkpt>
      <trkpt lat="45.60996" lon="4.76">
        <ele>171</ele>
        <time>2015-10-18T11:20:23.349Z</time>
      </trkpt>
      <trkpt lat="45.60999" lon="4.76002">
        <ele>171</ele>
        <time>2015-10-18T11:20:24.314Z</time>
      </trkpt>
      <trkpt lat="45.61005" lon="4.76008">
        <ele>172</ele>
        <time>2015-10-18T11:20:26.355Z</time>
      </trkpt>
      <trkpt lat="45.61008" lon="4.76013">
        <ele>172</ele>
        <time>2015-10-18T11:20:27.325Z</time>
      </trkpt>
      <trkpt lat="45.61014" lon="4.76021">
        <ele>172</ele>
        <time>2015-10-18T11:20:29.367Z</time>
      </trkpt>
      <trkpt lat="45.61017" lon="4.76026">
        <ele>173</ele>
        <time>2015-10-18T11:20:30.354Z</time>
      </trkpt>
      <trkpt lat="45.61023" lon="4.76032">
        <ele>173</ele>
        <time>2015-10-18T11:20:32.356Z</time>
      </trkpt>
      <trkpt lat="45.61027" lon="4.76036">
        <ele>173</ele>
        <time>2015-10-18T11:20:33.321Z</time>
      </trkpt>
      <trkpt lat="45.61033" lon="4.76043">
        <ele>173</ele>
        <time>2015-10-18T11:20:35.356Z</time>
      </trkpt>
      <trkpt lat="45.61037" lon="4.76045">
        <ele>173</ele>
        <time>2015-10-18T11:20:36.317Z</time>
      </trkpt>
      <trkpt lat="45.61045" lon="4.76047">
        <ele>173</ele>
        <time>2015-10-18T11:20:38.363Z</time>
      </trkpt>
      <trkpt lat="45.61049" lon="4.76049">
        <ele>173</ele>
        <time>2015-10-18T11:20:39.335Z</time>
      </trkpt>
      <trkpt lat="45.61054" lon="4.76047">
        <ele>173</ele>
        <time>2015-10-18T11:20:40.350Z</time>
      </trkpt>
      <trkpt lat="45.61059" lon="4.76047">
        <ele>173</ele>
        <time>2015-10-18T11:20:41.319Z</time>
      </trkpt>
      <trkpt lat="45.61065" lon="4.76047">
        <ele>173</ele>
        <time>2015-10-18T11:20:43.343Z</time>
      </trkpt>
      <trkpt lat="45.61069" lon="4.76047">
        <ele>173</ele>
        <time>2015-10-18T11:20:44.318Z</time>
      </trkpt>
      <trkpt lat="45.61076" lon="4.76047">
        <ele>173</ele>
        <time>2015-10-18T11:20:46.360Z</time>
      </trkpt>
      <trkpt lat="45.6108" lon="4.76047">
        <ele>173</ele>
        <time>2015-10-18T11:20:47.475Z</time>
      </trkpt>
      <trkpt lat="45.61087" lon="4.76045">
        <ele>179</ele>
        <time>2015-10-18T11:20:49.361Z</time>
      </trkpt>
      <trkpt lat="45.6109" lon="4.76047">
        <ele>178</ele>
        <time>2015-10-18T11:20:50.339Z</time>
      </trkpt>
      <trkpt lat="45.61099" lon="4.76049">
        <ele>179</ele>
        <time>2015-10-18T11:20:53.357Z</time>
      </trkpt>
      <trkpt lat="45.61101" lon="4.76051">
        <ele>179</ele>
        <time>2015-10-18T11:20:54.339Z</time>
      </trkpt>
      <trkpt lat="45.61107" lon="4.76051">
        <ele>179</ele>
        <time>2015-10-18T11:20:56.464Z</time>
      </trkpt>
      <trkpt lat="45.6111" lon="4.76053">
        <ele>179</ele>
        <time>2015-10-18T11:20:57.318Z</time>
      </trkpt>
      <trkpt lat="45.61118" lon="4.76058">
        <ele>179</ele>
        <time>2015-10-18T11:21:00.366Z</time>
      </trkpt>
      <trkpt lat="45.61119" lon="4.7606">
        <ele>179</ele>
        <time>2015-10-18T11:21:01.331Z</time>
      </trkpt>
      <trkpt lat="45.61124" lon="4.76062">
        <ele>180</ele>
        <time>2015-10-18T11:21:03.372Z</time>
      </trkpt>
      <trkpt lat="45.61128" lon="4.76064">
        <ele>180</ele>
        <time>2015-10-18T11:21:04.315Z</time>
      </trkpt>
      <trkpt lat="45.61135" lon="4.76068">
        <ele>180</ele>
        <time>2015-10-18T11:21:07.361Z</time>
      </trkpt>
      <trkpt lat="45.61137" lon="4.76071">
        <ele>180</ele>
        <time>2015-10-18T11:21:08.301Z</time>
      </trkpt>
      <trkpt lat="45.61144" lon="4.76077">
        <ele>180</ele>
        <time>2015-10-18T11:21:11.343Z</time>
      </trkpt>
      <trkpt lat="45.61147" lon="4.76077">
        <ele>180</ele>
        <time>2015-10-18T11:21:12.336Z</time>
      </trkpt>
      <trkpt lat="45.61153" lon="4.76084">
        <ele>176</ele>
        <time>2015-10-18T11:21:15.359Z</time>
      </trkpt>
      <trkpt lat="45.61157" lon="4.76084">
        <ele>177</ele>
        <time>2015-10-18T11:21:16.312Z</time>
      </trkpt>
      <trkpt lat="45.61164" lon="4.7609">
        <ele>177</ele>
        <time>2015-10-18T11:21:19.339Z</time>
      </trkpt>
      <trkpt lat="45.61167" lon="4.76092">
        <ele>179</ele>
        <time>2015-10-18T11:21:20.295Z</time>
      </trkpt>
      <trkpt lat="45.61175" lon="4.76094">
        <ele>179</ele>
        <time>2015-10-18T11:21:23.356Z</time>
      </trkpt>
      <trkpt lat="45.61178" lon="4.76099">
        <ele>178</ele>
        <time>2015-10-18T11:21:24.328Z</time>
      </trkpt>
      <trkpt lat="45.61185" lon="4.76103">
        <ele>178</ele>
        <time>2015-10-18T11:21:27.346Z</time>
      </trkpt>
      <trkpt lat="45.61187" lon="4.76103">
        <ele>178</ele>
        <time>2015-10-18T11:21:28.317Z</time>
      </trkpt>
      <trkpt lat="45.61195" lon="4.76103">
        <ele>179</ele>
        <time>2015-10-18T11:21:32.353Z</time>
      </trkpt>
      <trkpt lat="45.61197" lon="4.76105">
        <ele>179</ele>
        <time>2015-10-18T11:21:33.330Z</time>
      </trkpt>
      <trkpt lat="45.61204" lon="4.76105">
        <ele>179</ele>
        <time>2015-10-18T11:21:35.352Z</time>
      </trkpt>
      <trkpt lat="45.61207" lon="4.76107">
        <ele>179</ele>
        <time>2015-10-18T11:21:36.317Z</time>
      </trkpt>
      <trkpt lat="45.61216" lon="4.76109">
        <ele>179</ele>
        <time>2015-10-18T11:21:39.339Z</time>
      </trkpt>
      <trkpt lat="45.6122" lon="4.76111">
        <ele>180</ele>
        <time>2015-10-18T11:21:40.295Z</time>
      </trkpt>
      <trkpt lat="45.61227" lon="4.76111">
        <ele>180</ele>
        <time>2015-10-18T11:21:42.321Z</time>
      </trkpt>
      <trkpt lat="45.61232" lon="4.76114">
        <ele>180</ele>
        <time>2015-10-18T11:21:43.307Z</time>
      </trkpt>
      <trkpt lat="45.61237" lon="4.76114">
        <ele>180</ele>
        <time>2015-10-18T11:21:45.328Z</time>
      </trkpt>
      <trkpt lat="45.61241" lon="4.76109">
        <ele>181</ele>
        <time>2015-10-18T11:21:46.311Z</time>
      </trkpt>
      <trkpt lat="45.6125" lon="4.76107">
        <ele>181</ele>
        <time>2015-10-18T11:21:48.344Z</time>
      </trkpt>
      <trkpt lat="45.61252" lon="4.76107">
        <ele>186</ele>
        <time>2015-10-18T11:21:49.317Z</time>
      </trkpt>
      <trkpt lat="45.61261" lon="4.76105">
        <ele>186</ele>
        <time>2015-10-18T11:21:53.346Z</time>
      </trkpt>
      <trkpt lat="45.61263" lon="4.76105">
        <ele>186</ele>
        <time>2015-10-18T11:21:54.323Z</time>
      </trkpt>
      <trkpt lat="45.6127" lon="4.76107">
        <ele>186</ele>
        <time>2015-10-18T11:21:57.355Z</time>
      </trkpt>
      <trkpt lat="45.61272" lon="4.76107">
        <ele>186</ele>
        <time>2015-10-18T11:21:58.326Z</time>
      </trkpt>
      <trkpt lat="45.61281" lon="4.76109">
        <ele>187</ele>
        <time>2015-10-18T11:22:02.345Z</time>
      </trkpt>
      <trkpt lat="45.61283" lon="4.76109">
        <ele>187</ele>
        <time>2015-10-18T11:22:03.304Z</time>
      </trkpt>
      <trkpt lat="45.61291" lon="4.76109">
        <ele>187</ele>
        <time>2015-10-18T11:22:06.348Z</time>
      </trkpt>
      <trkpt lat="45.61294" lon="4.76109">
        <ele>187</ele>
        <time>2015-10-18T11:22:07.331Z</time>
      </trkpt>
      <trkpt lat="45.61301" lon="4.76111">
        <ele>187</ele>
        <time>2015-10-18T11:22:10.324Z</time>
      </trkpt>
      <trkpt lat="45.61303" lon="4.76111">
        <ele>188</ele>
        <time>2015-10-18T11:22:11.299Z</time>
      </trkpt>
      <trkpt lat="45.61311" lon="4.76111">
        <ele>188</ele>
        <time>2015-10-18T11:22:14.332Z</time>
      </trkpt>
      <trkpt lat="45.61313" lon="4.76111">
        <ele>188</ele>
        <time>2015-10-18T11:22:15.318Z</time>
      </trkpt>
      <trkpt lat="45.61322" lon="4.76114">
        <ele>188</ele>
        <time>2015-10-18T11:22:19.350Z</time>
      </trkpt>
      <trkpt lat="45.61324" lon="4.76116">
        <ele>188</ele>
        <time>2015-10-18T11:22:20.319Z</time>
      </trkpt>
      <trkpt lat="45.6133" lon="4.7612">
        <ele>188</ele>
        <time>2015-10-18T11:22:24.360Z</time>
      </trkpt>
      <trkpt lat="45.61332" lon="4.7612">
        <ele>188</ele>
        <time>2015-10-18T11:22:25.314Z</time>
      </trkpt>
      <trkpt lat="45.61341" lon="4.76122">
        <ele>190</ele>
        <time>2015-10-18T11:22:29.342Z</time>
      </trkpt>
      <trkpt lat="45.61343" lon="4.76122">
        <ele>190</ele>
        <time>2015-10-18T11:22:30.312Z</time>
      </trkpt>
      <trkpt lat="45.61351" lon="4.76124">
        <ele>190</ele>
        <time>2015-10-18T11:22:33.348Z</time>
      </trkpt>
      <trkpt lat="45.61352" lon="4.76126">
        <ele>190</ele>
        <time>2015-10-18T11:22:34.359Z</time>
      </trkpt>
      <trkpt lat="45.61358" lon="4.76124">
        <ele>190</ele>
        <time>2015-10-18T11:22:36.352Z</time>
      </trkpt>
      <trkpt lat="45.61361" lon="4.76124">
        <ele>189</ele>
        <time>2015-10-18T11:22:37.315Z</time>
      </trkpt>
      <trkpt lat="45.61367" lon="4.76124">
        <ele>189</ele>
        <time>2015-10-18T11:22:39.375Z</time>
      </trkpt>
      <trkpt lat="45.61371" lon="4.76122">
        <ele>189</ele>
        <time>2015-10-18T11:22:40.316Z</time>
      </trkpt>
      <trkpt lat="45.61379" lon="4.76122">
        <ele>189</ele>
        <time>2015-10-18T11:22:46.350Z</time>
      </trkpt>
      <trkpt lat="45.61381" lon="4.76122">
        <ele>189</ele>
        <time>2015-10-18T11:22:47.314Z</time>
      </trkpt>
      <trkpt lat="45.61389" lon="4.76124">
        <ele>189</ele>
        <time>2015-10-18T11:22:51.352Z</time>
      </trkpt>
      <trkpt lat="45.61391" lon="4.76124">
        <ele>189</ele>
        <time>2015-10-18T11:22:52.305Z</time>
      </trkpt>
      <trkpt lat="45.614" lon="4.76122">
        <ele>189</ele>
        <time>2015-10-18T11:22:58.338Z</time>
      </trkpt>
      <trkpt lat="45.61403" lon="4.76122">
        <ele>189</ele>
        <time>2015-10-18T11:22:59.312Z</time>
      </trkpt>
      <trkpt lat="45.61411" lon="4.76118">
        <ele>189</ele>
        <time>2015-10-18T11:23:04.352Z</time>
      </trkpt>
      <trkpt lat="45.61412" lon="4.76118">
        <ele>189</ele>
        <time>2015-10-18T11:23:05.314Z</time>
      </trkpt>
      <trkpt lat="45.61418" lon="4.76111">
        <ele>188</ele>
        <time>2015-10-18T11:23:10.339Z</time>
      </trkpt>
      <trkpt lat="45.61419" lon="4.76109">
        <ele>188</ele>
        <time>2015-10-18T11:23:11.310Z</time>
      </trkpt>
      <trkpt lat="45.61426" lon="4.76103">
        <ele>189</ele>
        <time>2015-10-18T11:23:14.352Z</time>
      </trkpt>
      <trkpt lat="45.61428" lon="4.76099">
        <ele>189</ele>
        <time>2015-10-18T11:23:15.317Z</time>
      </trkpt>
      <trkpt lat="45.61435" lon="4.76092">
        <ele>189</ele>
        <time>2015-10-18T11:23:20.348Z</time>
      </trkpt>
      <trkpt lat="45.61438" lon="4.7609">
        <ele>189</ele>
        <time>2015-10-18T11:23:21.324Z</time>
      </trkpt>
      <trkpt lat="45.61444" lon="4.76084">
        <ele>188</ele>
        <time>2015-10-18T11:23:25.346Z</time>
      </trkpt>
      <trkpt lat="45.61445" lon="4.76081">
        <ele>195</ele>
        <time>2015-10-18T11:23:26.334Z</time>
      </trkpt>
      <trkpt lat="45.61453" lon="4.76077">
        <ele>195</ele>
        <time>2015-10-18T11:23:31.342Z</time>
      </trkpt>
      <trkpt lat="45.61457" lon="4.76077">
        <ele>195</ele>
        <time>2015-10-18T11:23:32.307Z</time>
      </trkpt>
      <trkpt lat="45.61463" lon="4.76071">
        <ele>195</ele>
        <time>2015-10-18T11:23:36.329Z</time>
      </trkpt>
      <trkpt lat="45.61466" lon="4.76068">
        <ele>195</ele>
        <time>2015-10-18T11:23:37.314Z</time>
      </trkpt>
      <trkpt lat="45.61473" lon="4.76062">
        <ele>195</ele>
        <time>2015-10-18T11:23:42.349Z</time>
      </trkpt>
      <trkpt lat="45.61473" lon="4.7606">
        <ele>195</ele>
        <time>2015-10-18T11:23:43.309Z</time>
      </trkpt>
      <trkpt lat="45.61479" lon="4.76053">
        <ele>196</ele>
        <time>2015-10-18T11:23:47.345Z</time>
      </trkpt>
      <trkpt lat="45.61482" lon="4.76051">
        <ele>196</ele>
        <time>2015-10-18T11:23:48.307Z</time>
      </trkpt>
      <trkpt lat="45.61488" lon="4.76045">
        <ele>197</ele>
        <time>2015-10-18T11:23:51.334Z</time>
      </trkpt>
      <trkpt lat="45.61492" lon="4.76047">
        <ele>196</ele>
        <time>2015-10-18T11:23:52.309Z</time>
      </trkpt>
      <trkpt lat="45.615" lon="4.76041">
        <ele>197</ele>
        <time>2015-10-18T11:23:58.334Z</time>
      </trkpt>
      <trkpt lat="45.61502" lon="4.76038">
        <ele>193</ele>
        <time>2015-10-18T11:23:59.308Z</time>
      </trkpt>
      <trkpt lat="45.61507" lon="4.76032">
        <ele>194</ele>
        <time>2015-10-18T11:24:02.342Z</time>
      </trkpt>
      <trkpt lat="45.61509" lon="4.7603">
        <ele>194</ele>
        <time>2015-10-18T11:24:03.303Z</time>
      </trkpt>
      <trkpt lat="45.61515" lon="4.76028">
        <ele>194</ele>
        <time>2015-10-18T11:24:06.324Z</time>
      </trkpt>
      <trkpt lat="45.61519" lon="4.76028">
        <ele>194</ele>
        <time>2015-10-18T11:24:07.303Z</time>
      </trkpt>
      <trkpt lat="45.61527" lon="4.76026">
        <ele>194</ele>
        <time>2015-10-18T11:24:09.337Z</time>
      </trkpt>
      <trkpt lat="45.6153" lon="4.76026">
        <ele>194</ele>
        <time>2015-10-18T11:24:10.305Z</time>
      </trkpt>
      <trkpt lat="45.61538" lon="4.76026">
        <ele>193</ele>
        <time>2015-10-18T11:24:13.348Z</time>
      </trkpt>
      <trkpt lat="45.61542" lon="4.76023">
        <ele>193</ele>
        <time>2015-10-18T11:24:14.307Z</time>
      </trkpt>
      <trkpt lat="45.6155" lon="4.76021">
        <ele>193</ele>
        <time>2015-10-18T11:24:18.445Z</time>
      </trkpt>
      <trkpt lat="45.61553" lon="4.76021">
        <ele>193</ele>
        <time>2015-10-18T11:24:19.313Z</time>
      </trkpt>
      <trkpt lat="45.6156" lon="4.76017">
        <ele>193</ele>
        <time>2015-10-18T11:24:22.340Z</time>
      </trkpt>
      <trkpt lat="45.61564" lon="4.76017">
        <ele>193</ele>
        <time>2015-10-18T11:24:23.314Z</time>
      </trkpt>
      <trkpt lat="45.61571" lon="4.76015">
        <ele>194</ele>
        <time>2015-10-18T11:24:25.345Z</time>
      </trkpt>
      <trkpt lat="45.61574" lon="4.76015">
        <ele>194</ele>
        <time>2015-10-18T11:24:26.361Z</time>
      </trkpt>
      <trkpt lat="45.6158" lon="4.76015">
        <ele>194</ele>
        <time>2015-10-18T11:24:29.356Z</time>
      </trkpt>
      <trkpt lat="45.61584" lon="4.76017">
        <ele>193</ele>
        <time>2015-10-18T11:24:30.338Z</time>
      </trkpt>
      <trkpt lat="45.6159" lon="4.76021">
        <ele>193</ele>
        <time>2015-10-18T11:24:33.343Z</time>
      </trkpt>
      <trkpt lat="45.61593" lon="4.76021">
        <ele>193</ele>
        <time>2015-10-18T11:24:34.320Z</time>
      </trkpt>
      <trkpt lat="45.61601" lon="4.76021">
        <ele>193</ele>
        <time>2015-10-18T11:24:37.347Z</time>
      </trkpt>
      <trkpt lat="45.61604" lon="4.76021">
        <ele>193</ele>
        <time>2015-10-18T11:24:38.338Z</time>
      </trkpt>
      <trkpt lat="45.61611" lon="4.76021">
        <ele>193</ele>
        <time>2015-10-18T11:24:41.343Z</time>
      </trkpt>
      <trkpt lat="45.61616" lon="4.76019">
        <ele>193</ele>
        <time>2015-10-18T11:24:42.316Z</time>
      </trkpt>
      <trkpt lat="45.61624" lon="4.76017">
        <ele>193</ele>
        <time>2015-10-18T11:24:45.344Z</time>
      </trkpt>
      <trkpt lat="45.61626" lon="4.76017">
        <ele>193</ele>
        <time>2015-10-18T11:24:46.320Z</time>
      </trkpt>
      <trkpt lat="45.61633" lon="4.76013">
        <ele>193</ele>
        <time>2015-10-18T11:24:49.341Z</time>
      </trkpt>
      <trkpt lat="45.61635" lon="4.76011">
        <ele>193</ele>
        <time>2015-10-18T11:24:50.318Z</time>
      </trkpt>
      <trkpt lat="45.61643" lon="4.76006">
        <ele>194</ele>
        <time>2015-10-18T11:24:56.353Z</time>
      </trkpt>
      <trkpt lat="45.61644" lon="4.76004">
        <ele>194</ele>
        <time>2015-10-18T11:24:57.348Z</time>
      </trkpt>
      <trkpt lat="45.61651" lon="4.76">
        <ele>199</ele>
        <time>2015-10-18T11:25:02.364Z</time>
      </trkpt>
      <trkpt lat="45.61652" lon="4.76">
        <ele>199</ele>
        <time>2015-10-18T11:25:03.321Z</time>
      </trkpt>
      <trkpt lat="45.61661" lon="4.75998">
        <ele>198</ele>
        <time>2015-10-18T11:25:08.354Z</time>
      </trkpt>
      <trkpt lat="45.61662" lon="4.75998">
        <ele>198</ele>
        <time>2015-10-18T11:25:09.336Z</time>
      </trkpt>
      <trkpt lat="45.6167" lon="4.75996">
        <ele>198</ele>
        <time>2015-10-18T11:25:15.352Z</time>
      </trkpt>
      <trkpt lat="45.61671" lon="4.75993">
        <ele>198</ele>
        <time>2015-10-18T11:25:16.335Z</time>
      </trkpt>
      <trkpt lat="45.61679" lon="4.75993">
        <ele>199</ele>
        <time>2015-10-18T11:25:20.356Z</time>
      </trkpt>
      <trkpt lat="45.61681" lon="4.75993">
        <ele>199</ele>
        <time>2015-10-18T11:25:21.319Z</time>
      </trkpt>
      <trkpt lat="45.61689" lon="4.75991">
        <ele>200</ele>
        <time>2015-10-18T11:25:26.405Z</time>
      </trkpt>
      <trkpt lat="45.6169" lon="4.75989">
        <ele>200</ele>
        <time>2015-10-18T11:25:27.324Z</time>
      </trkpt>
      <trkpt lat="45.61697" lon="4.75991">
        <ele>201</ele>
        <time>2015-10-18T11:25:33.361Z</time>
      </trkpt>
      <trkpt lat="45.61699" lon="4.75989">
        <ele>201</ele>
        <time>2015-10-18T11:25:34.333Z</time>
      </trkpt>
      <trkpt lat="45.61707" lon="4.75983">
        <ele>201</ele>
        <time>2015-10-18T11:25:42.362Z</time>
      </trkpt>
      <trkpt lat="45.61709" lon="4.75981">
        <ele>201</ele>
        <time>2015-10-18T11:25:43.339Z</time>
      </trkpt>
      <trkpt lat="45.61717" lon="4.75974">
        <ele>202</ele>
        <time>2015-10-18T11:25:49.342Z</time>
      </trkpt>
      <trkpt lat="45.61718" lon="4.75974">
        <ele>202</ele>
        <time>2015-10-18T11:25:50.337Z</time>
      </trkpt>
      <trkpt lat="45.61724" lon="4.7597">
        <ele>202</ele>
        <time>2015-10-18T11:26:01.369Z</time>
      </trkpt>
      <trkpt lat="45.61725" lon="4.75965">
        <ele>202</ele>
        <time>2015-10-18T11:26:02.320Z</time>
      </trkpt>
      <trkpt lat="45.61721" lon="4.75955">
        <ele>203</ele>
        <time>2015-10-18T11:26:15.348Z</time>
      </trkpt>
      <trkpt lat="45.61721" lon="4.75953">
        <ele>203</ele>
        <time>2015-10-18T11:26:16.318Z</time>
      </trkpt>
      <trkpt lat="45.61721" lon="4.75942">
        <ele>204</ele>
        <time>2015-10-18T11:26:22.353Z</time>
      </trkpt>
      <trkpt lat="45.61722" lon="4.7594">
        <ele>204</ele>
        <time>2015-10-18T11:26:23.319Z</time>
      </trkpt>
      <trkpt lat="45.61721" lon="4.75929">
        <ele>205</ele>
        <time>2015-10-18T11:26:30.362Z</time>
      </trkpt>
      <trkpt lat="45.61722" lon="4.75927">
        <ele>205</ele>
        <time>2015-10-18T11:26:31.314Z</time>
      </trkpt>
      <trkpt lat="45.61722" lon="4.75914">
        <ele>213</ele>
        <time>2015-10-18T11:26:40.360Z</time>
      </trkpt>
      <trkpt lat="45.61722" lon="4.75912">
        <ele>213</ele>
        <time>2015-10-18T11:26:41.314Z</time>
      </trkpt>
      <trkpt lat="45.61722" lon="4.75899">
        <ele>213</ele>
        <time>2015-10-18T11:26:50.367Z</time>
      </trkpt>
      <trkpt lat="45.61722" lon="4.75897">
        <ele>213</ele>
        <time>2015-10-18T11:26:51.320Z</time>
      </trkpt>
      <trkpt lat="45.61722" lon="4.75886">
        <ele>214</ele>
        <time>2015-10-18T11:27:02.355Z</time>
      </trkpt>
      <trkpt lat="45.61722" lon="4.75884">
        <ele>214</ele>
        <time>2015-10-18T11:27:03.321Z</time>
      </trkpt>
      <trkpt lat="45.61723" lon="4.75873">
        <ele>215</ele>
        <time>2015-10-18T11:27:08.354Z</time>
      </trkpt>
      <trkpt lat="45.61723" lon="4.75871">
        <ele>215</ele>
        <time>2015-10-18T11:27:09.326Z</time>
      </trkpt>
      <trkpt lat="45.61723" lon="4.7586">
        <ele>216</ele>
        <time>2015-10-18T11:27:30.336Z</time>
      </trkpt>
      <trkpt lat="45.61722" lon="4.75858">
        <ele>216</ele>
        <time>2015-10-18T11:27:31.302Z</time>
      </trkpt>
      <trkpt lat="45.61721" lon="4.75847">
        <ele>216</ele>
        <time>2015-10-18T11:27:36.338Z</time>
      </trkpt>
      <trkpt lat="45.61721" lon="4.75845">
        <ele>216</ele>
        <time>2015-10-18T11:27:37.326Z</time>
      </trkpt>
      <trkpt lat="45.61722" lon="4.75835">
        <ele>217</ele>
        <time>2015-10-18T11:27:42.329Z</time>
      </trkpt>
      <trkpt lat="45.61722" lon="4.75832">
        <ele>223</ele>
        <time>2015-10-18T11:27:43.311Z</time>
      </trkpt>
      <trkpt lat="45.61721" lon="4.75822">
        <ele>223</ele>
        <time>2015-10-18T11:27:58.349Z</time>
      </trkpt>
      <trkpt lat="45.6172" lon="4.7582">
        <ele>224</ele>
        <time>2015-10-18T11:27:59.308Z</time>
      </trkpt>
      <trkpt lat="45.61717" lon="4.75809">
        <ele>225</ele>
        <time>2015-10-18T11:28:06.350Z</time>
      </trkpt>
      <trkpt lat="45.61714" lon="4.75807">
        <ele>225</ele>
        <time>2015-10-18T11:28:07.311Z</time>
      </trkpt>
      <trkpt lat="45.61711" lon="4.75798">
        <ele>226</ele>
        <time>2015-10-18T11:28:43.356Z</time>
      </trkpt>
      <trkpt lat="45.61712" lon="4.75787">
        <ele>227</ele>
        <time>2015-10-18T11:28:44.341Z</time>
      </trkpt>
      <trkpt lat="45.61708" lon="4.75779">
        <ele>227</ele>
        <time>2015-10-18T11:28:52.359Z</time>
      </trkpt>
      <trkpt lat="45.61705" lon="4.75775">
        <ele>228</ele>
        <time>2015-10-18T11:28:53.317Z</time>
      </trkpt>
      <trkpt lat="45.617" lon="4.75764">
        <ele>229</ele>
        <time>2015-10-18T11:29:29.346Z</time>
      </trkpt>
      <trkpt lat="45.61698" lon="4.7576">
        <ele>229</ele>
        <time>2015-10-18T11:29:30.321Z</time>
      </trkpt>
      <trkpt lat="45.61697" lon="4.75751">
        <ele>230</ele>
        <time>2015-10-18T11:30:05.338Z</time>
      </trkpt>
      <trkpt lat="45.61696" lon="4.75742">
        <ele>235</ele>
        <time>2015-10-18T11:30:06.306Z</time>
      </trkpt>
      <trkpt lat="45.61692" lon="4.75732">
        <ele>236</ele>
        <time>2015-10-18T11:30:12.356Z</time>
      </trkpt>
      <trkpt lat="45.6169" lon="4.75729">
        <ele>236</ele>
        <time>2015-10-18T11:30:13.318Z</time>
      </trkpt>
      <trkpt lat="45.61684" lon="4.75727">
        <ele>236</ele>
        <time>2015-10-18T11:30:18.347Z</time>
      </trkpt>
      <trkpt lat="45.61681" lon="4.75723">
        <ele>237</ele>
        <time>2015-10-18T11:30:19.321Z</time>
      </trkpt>
      <trkpt lat="45.61673" lon="4.75721">
        <ele>237</ele>
        <time>2015-10-18T11:30:24.446Z</time>
      </trkpt>
      <trkpt lat="45.61671" lon="4.75721">
        <ele>237</ele>
        <time>2015-10-18T11:30:25.323Z</time>
      </trkpt>
      <trkpt lat="45.61663" lon="4.75719">
        <ele>240</ele>
        <time>2015-10-18T11:30:34.361Z</time>
      </trkpt>
      <trkpt lat="45.61662" lon="4.75719">
        <ele>240</ele>
        <time>2015-10-18T11:30:35.317Z</time>
      </trkpt>
      <trkpt lat="45.61654" lon="4.75712">
        <ele>241</ele>
        <time>2015-10-18T11:31:00.350Z</time>
      </trkpt>
      <trkpt lat="45.61653" lon="4.75712">
        <ele>241</ele>
        <time>2015-10-18T11:31:01.342Z</time>
      </trkpt>
      <trkpt lat="45.61649" lon="4.75702">
        <ele>241</ele>
        <time>2015-10-18T11:31:08.368Z</time>
      </trkpt>
      <trkpt lat="45.61648" lon="4.75702">
        <ele>241</ele>
        <time>2015-10-18T11:31:09.337Z</time>
      </trkpt>
      <trkpt lat="45.61646" lon="4.75691">
        <ele>242</ele>
        <time>2015-10-18T11:31:15.363Z</time>
      </trkpt>
      <trkpt lat="45.61646" lon="4.75689">
        <ele>242</ele>
        <time>2015-10-18T11:31:16.327Z</time>
      </trkpt>
      <trkpt lat="45.61646" lon="4.75678">
        <ele>242</ele>
        <time>2015-10-18T11:31:21.361Z</time>
      </trkpt>
      <trkpt lat="45.61647" lon="4.75676">
        <ele>243</ele>
        <time>2015-10-18T11:31:22.319Z</time>
      </trkpt>
      <trkpt lat="45.61645" lon="4.75665">
        <ele>246</ele>
        <time>2015-10-18T11:31:28.339Z</time>
      </trkpt>
      <trkpt lat="45.61644" lon="4.75663">
        <ele>246</ele>
        <time>2015-10-18T11:31:29.314Z</time>
      </trkpt>
      <trkpt lat="45.61644" lon="4.75652">
        <ele>246</ele>
        <time>2015-10-18T11:31:34.367Z</time>
      </trkpt>
      <trkpt lat="45.61644" lon="4.7565">
        <ele>246</ele>
        <time>2015-10-18T11:31:35.325Z</time>
      </trkpt>
      <trkpt lat="45.61641" lon="4.75639">
        <ele>247</ele>
        <time>2015-10-18T11:31:41.342Z</time>
      </trkpt>
      <trkpt lat="45.6164" lon="4.75637">
        <ele>247</ele>
        <time>2015-10-18T11:31:42.319Z</time>
      </trkpt>
      <trkpt lat="45.61638" lon="4.75626">
        <ele>247</ele>
        <time>2015-10-18T11:31:46.363Z</time>
      </trkpt>
      <trkpt lat="45.61638" lon="4.75624">
        <ele>247</ele>
        <time>2015-10-18T11:31:47.324Z</time>
      </trkpt>
      <trkpt lat="45.61637" lon="4.75614">
        <ele>247</ele>
        <time>2015-10-18T11:31:51.368Z</time>
      </trkpt>
      <trkpt lat="45.61638" lon="4.75611">
        <ele>247</ele>
        <time>2015-10-18T11:31:52.320Z</time>
      </trkpt>
      <trkpt lat="45.61636" lon="4.75601">
        <ele>248</ele>
        <time>2015-10-18T11:31:57.365Z</time>
      </trkpt>
      <trkpt lat="45.61636" lon="4.75596">
        <ele>248</ele>
        <time>2015-10-18T11:31:58.322Z</time>
      </trkpt>
      <trkpt lat="45.61635" lon="4.75586">
        <ele>248</ele>
        <time>2015-10-18T11:32:03.359Z</time>
      </trkpt>
      <trkpt lat="45.61635" lon="4.75584">
        <ele>248</ele>
        <time>2015-10-18T11:32:04.343Z</time>
      </trkpt>
      <trkpt lat="45.61635" lon="4.75573">
        <ele>250</ele>
        <time>2015-10-18T11:32:09.359Z</time>
      </trkpt>
      <trkpt lat="45.61634" lon="4.75571">
        <ele>250</ele>
        <time>2015-10-18T11:32:10.341Z</time>
      </trkpt>
      <trkpt lat="45.61634" lon="4.7556">
        <ele>251</ele>
        <time>2015-10-18T11:32:15.359Z</time>
      </trkpt>
      <trkpt lat="45.61635" lon="4.75558">
        <ele>251</ele>
        <time>2015-10-18T11:32:16.319Z</time>
      </trkpt>
      <trkpt lat="45.61635" lon="4.75547">
        <ele>251</ele>
        <time>2015-10-18T11:32:20.358Z</time>
      </trkpt>
      <trkpt lat="45.61635" lon="4.75545">
        <ele>251</ele>
        <time>2015-10-18T11:32:21.319Z</time>
      </trkpt>
      <trkpt lat="45.61635" lon="4.75534">
        <ele>251</ele>
        <time>2015-10-18T11:32:26.340Z</time>
      </trkpt>
      <trkpt lat="45.61635" lon="4.75532">
        <ele>251</ele>
        <time>2015-10-18T11:32:27.323Z</time>
      </trkpt>
      <trkpt lat="45.61636" lon="4.75521">
        <ele>251</ele>
        <time>2015-10-18T11:32:31.358Z</time>
      </trkpt>
      <trkpt lat="45.61636" lon="4.75519">
        <ele>252</ele>
        <time>2015-10-18T11:32:32.316Z</time>
      </trkpt>
      <trkpt lat="45.61636" lon="4.75506">
        <ele>252</ele>
        <time>2015-10-18T11:32:38.359Z</time>
      </trkpt>
      <trkpt lat="45.61636" lon="4.75502">
        <ele>252</ele>
        <time>2015-10-18T11:32:39.320Z</time>
      </trkpt>
      <trkpt lat="45.61636" lon="4.75493">
        <ele>254</ele>
        <time>2015-10-18T11:32:43.352Z</time>
      </trkpt>
      <trkpt lat="45.61636" lon="4.75489">
        <ele>254</ele>
        <time>2015-10-18T11:32:44.323Z</time>
      </trkpt>
      <trkpt lat="45.61636" lon="4.75478">
        <ele>254</ele>
        <time>2015-10-18T11:32:49.353Z</time>
      </trkpt>
      <trkpt lat="45.61636" lon="4.75476">
        <ele>254</ele>
        <time>2015-10-18T11:32:50.326Z</time>
      </trkpt>
      <trkpt lat="45.61636" lon="4.75463">
        <ele>254</ele>
        <time>2015-10-18T11:32:57.361Z</time>
      </trkpt>
      <trkpt lat="45.61637" lon="4.75461">
        <ele>254</ele>
        <time>2015-10-18T11:32:58.319Z</time>
      </trkpt>
      <trkpt lat="45.61637" lon="4.75451">
        <ele>254</ele>
        <time>2015-10-18T11:33:02.361Z</time>
      </trkpt>
      <trkpt lat="45.61638" lon="4.75448">
        <ele>254</ele>
        <time>2015-10-18T11:33:03.342Z</time>
      </trkpt>
      <trkpt lat="45.61638" lon="4.75435">
        <ele>254</ele>
        <time>2015-10-18T11:33:08.352Z</time>
      </trkpt>
      <trkpt lat="45.61638" lon="4.75433">
        <ele>255</ele>
        <time>2015-10-18T11:33:09.313Z</time>
      </trkpt>
      <trkpt lat="45.61637" lon="4.75423">
        <ele>255</ele>
        <time>2015-10-18T11:33:13.364Z</time>
      </trkpt>
      <trkpt lat="45.61637" lon="4.7542">
        <ele>255</ele>
        <time>2015-10-18T11:33:14.317Z</time>
      </trkpt>
      <trkpt lat="45.61638" lon="4.75412">
        <ele>257</ele>
        <time>2015-10-18T11:33:19.349Z</time>
      </trkpt>
      <trkpt lat="45.61638" lon="4.75408">
        <ele>257</ele>
        <time>2015-10-18T11:33:20.325Z</time>
      </trkpt>
      <trkpt lat="45.61637" lon="4.75397">
        <ele>257</ele>
        <time>2015-10-18T11:33:25.351Z</time>
      </trkpt>
      <trkpt lat="45.61637" lon="4.75395">
        <ele>257</ele>
        <time>2015-10-18T11:33:26.317Z</time>
      </trkpt>
      <trkpt lat="45.61637" lon="4.75384">
        <ele>257</ele>
        <time>2015-10-18T11:33:31.340Z</time>
      </trkpt>
      <trkpt lat="45.61636" lon="4.75382">
        <ele>257</ele>
        <time>2015-10-18T11:33:32.320Z</time>
      </trkpt>
      <trkpt lat="45.61638" lon="4.75371">
        <ele>258</ele>
        <time>2015-10-18T11:33:37.355Z</time>
      </trkpt>
      <trkpt lat="45.61638" lon="4.75369">
        <ele>258</ele>
        <time>2015-10-18T11:33:38.398Z</time>
      </trkpt>
      <trkpt lat="45.61631" lon="4.75363">
        <ele>258</ele>
        <time>2015-10-18T11:33:52.353Z</time>
      </trkpt>
      <trkpt lat="45.6163" lon="4.75363">
        <ele>258</ele>
        <time>2015-10-18T11:33:53.324Z</time>
      </trkpt>
      <trkpt lat="45.61623" lon="4.75358">
        <ele>258</ele>
        <time>2015-10-18T11:33:59.361Z</time>
      </trkpt>
      <trkpt lat="45.61621" lon="4.75358">
        <ele>258</ele>
        <time>2015-10-18T11:34:00.316Z</time>
      </trkpt>
      <trkpt lat="45.61614" lon="4.75352">
        <ele>259</ele>
        <time>2015-10-18T11:34:07.418Z</time>
      </trkpt>
      <trkpt lat="45.61611" lon="4.75352">
        <ele>259</ele>
        <time>2015-10-18T11:34:08.334Z</time>
      </trkpt>
      <trkpt lat="45.61605" lon="4.75348">
        <ele>259</ele>
        <time>2015-10-18T11:34:13.377Z</time>
      </trkpt>
      <trkpt lat="45.61603" lon="4.75348">
        <ele>259</ele>
        <time>2015-10-18T11:34:14.328Z</time>
      </trkpt>
      <trkpt lat="45.61595" lon="4.75343">
        <ele>259</ele>
        <time>2015-10-18T11:34:19.362Z</time>
      </trkpt>
      <trkpt lat="45.61594" lon="4.75341">
        <ele>260</ele>
        <time>2015-10-18T11:34:20.330Z</time>
      </trkpt>
      <trkpt lat="45.6159" lon="4.75332">
        <ele>261</ele>
        <time>2015-10-18T11:34:24.367Z</time>
      </trkpt>
      <trkpt lat="45.61588" lon="4.7533">
        <ele>261</ele>
        <time>2015-10-18T11:34:25.324Z</time>
      </trkpt>
      <trkpt lat="45.6158" lon="4.75328">
        <ele>261</ele>
        <time>2015-10-18T11:34:28.358Z</time>
      </trkpt>
      <trkpt lat="45.61578" lon="4.75328">
        <ele>261</ele>
        <time>2015-10-18T11:34:29.313Z</time>
      </trkpt>
      <trkpt lat="45.61571" lon="4.75326">
        <ele>262</ele>
        <time>2015-10-18T11:34:32.347Z</time>
      </trkpt>
      <trkpt lat="45.61568" lon="4.75326">
        <ele>262</ele>
        <time>2015-10-18T11:34:33.320Z</time>
      </trkpt>
      <trkpt lat="45.61561" lon="4.75324">
        <ele>262</ele>
        <time>2015-10-18T11:34:36.366Z</time>
      </trkpt>
      <trkpt lat="45.61559" lon="4.75324">
        <ele>262</ele>
        <time>2015-10-18T11:34:37.314Z</time>
      </trkpt>
      <trkpt lat="45.61551" lon="4.75324">
        <ele>262</ele>
        <time>2015-10-18T11:34:40.359Z</time>
      </trkpt>
      <trkpt lat="45.61549" lon="4.75324">
        <ele>262</ele>
        <time>2015-10-18T11:34:41.346Z</time>
      </trkpt>
      <trkpt lat="45.61542" lon="4.75326">
        <ele>262</ele>
        <time>2015-10-18T11:34:45.377Z</time>
      </trkpt>
      <trkpt lat="45.6154" lon="4.75328">
        <ele>262</ele>
        <time>2015-10-18T11:34:46.336Z</time>
      </trkpt>
      <trkpt lat="45.61535" lon="4.75335">
        <ele>260</ele>
        <time>2015-10-18T11:34:49.364Z</time>
      </trkpt>
      <trkpt lat="45.61532" lon="4.75337">
        <ele>260</ele>
        <time>2015-10-18T11:34:50.345Z</time>
      </trkpt>
      <trkpt lat="45.61525" lon="4.75341">
        <ele>260</ele>
        <time>2015-10-18T11:34:53.362Z</time>
      </trkpt>
      <trkpt lat="45.61522" lon="4.75343">
        <ele>260</ele>
        <time>2015-10-18T11:34:54.324Z</time>
      </trkpt>
      <trkpt lat="45.61516" lon="4.75348">
        <ele>260</ele>
        <time>2015-10-18T11:34:57.368Z</time>
      </trkpt>
      <trkpt lat="45.61513" lon="4.7535">
        <ele>260</ele>
        <time>2015-10-18T11:34:58.340Z</time>
      </trkpt>
      <trkpt lat="45.61506" lon="4.75354">
        <ele>260</ele>
        <time>2015-10-18T11:35:00.348Z</time>
      </trkpt>
      <trkpt lat="45.61503" lon="4.75356">
        <ele>260</ele>
        <time>2015-10-18T11:35:01.313Z</time>
      </trkpt>
      <trkpt lat="45.61498" lon="4.7536">
        <ele>260</ele>
        <time>2015-10-18T11:35:03.370Z</time>
      </trkpt>
      <trkpt lat="45.61494" lon="4.7536">
        <ele>260</ele>
        <time>2015-10-18T11:35:04.326Z</time>
      </trkpt>
      <trkpt lat="45.61488" lon="4.75363">
        <ele>260</ele>
        <time>2015-10-18T11:35:06.357Z</time>
      </trkpt>
      <trkpt lat="45.61485" lon="4.75365">
        <ele>260</ele>
        <time>2015-10-18T11:35:07.330Z</time>
      </trkpt>
      <trkpt lat="45.61478" lon="4.75369">
        <ele>260</ele>
        <time>2015-10-18T11:35:09.365Z</time>
      </trkpt>
      <trkpt lat="45.61476" lon="4.75369">
        <ele>260</ele>
        <time>2015-10-18T11:35:10.329Z</time>
      </trkpt>
      <trkpt lat="45.61469" lon="4.75371">
        <ele>260</ele>
        <time>2015-10-18T11:35:12.360Z</time>
      </trkpt>
      <trkpt lat="45.61464" lon="4.75373">
        <ele>260</ele>
        <time>2015-10-18T11:35:13.319Z</time>
      </trkpt>
      <trkpt lat="45.61458" lon="4.7538">
        <ele>260</ele>
        <time>2015-10-18T11:35:15.368Z</time>
      </trkpt>
      <trkpt lat="45.61456" lon="4.75382">
        <ele>260</ele>
        <time>2015-10-18T11:35:16.307Z</time>
      </trkpt>
      <trkpt lat="45.6145" lon="4.75388">
        <ele>260</ele>
        <time>2015-10-18T11:35:18.359Z</time>
      </trkpt>
      <trkpt lat="45.61448" lon="4.75393">
        <ele>260</ele>
        <time>2015-10-18T11:35:19.345Z</time>
      </trkpt>
      <trkpt lat="45.61443" lon="4.75399">
        <ele>260</ele>
        <time>2015-10-18T11:35:21.370Z</time>
      </trkpt>
      <trkpt lat="45.6144" lon="4.75399">
        <ele>260</ele>
        <time>2015-10-18T11:35:22.331Z</time>
      </trkpt>
      <trkpt lat="45.61433" lon="4.75397">
        <ele>260</ele>
        <time>2015-10-18T11:35:24.380Z</time>
      </trkpt>
      <trkpt lat="45.61429" lon="4.75395">
        <ele>260</ele>
        <time>2015-10-18T11:35:25.336Z</time>
      </trkpt>
      <trkpt lat="45.61422" lon="4.75388">
        <ele>260</ele>
        <time>2015-10-18T11:35:27.369Z</time>
      </trkpt>
      <trkpt lat="45.61418" lon="4.75386">
        <ele>260</ele>
        <time>2015-10-18T11:35:28.312Z</time>
      </trkpt>
      <trkpt lat="45.61412" lon="4.75382">
        <ele>260</ele>
        <time>2015-10-18T11:35:30.339Z</time>
      </trkpt>
      <trkpt lat="45.6141" lon="4.7538">
        <ele>260</ele>
        <time>2015-10-18T11:35:31.320Z</time>
      </trkpt>
      <trkpt lat="45.61403" lon="4.75375">
        <ele>260</ele>
        <time>2015-10-18T11:35:33.334Z</time>
      </trkpt>
      <trkpt lat="45.614" lon="4.75373">
        <ele>260</ele>
        <time>2015-10-18T11:35:34.311Z</time>
      </trkpt>
      <trkpt lat="45.61395" lon="4.75369">
        <ele>260</ele>
        <time>2015-10-18T11:35:36.355Z</time>
      </trkpt>
      <trkpt lat="45.61391" lon="4.75367">
        <ele>260</ele>
        <time>2015-10-18T11:35:37.324Z</time>
      </trkpt>
      <trkpt lat="45.61385" lon="4.75363">
        <ele>260</ele>
        <time>2015-10-18T11:35:39.361Z</time>
      </trkpt>
      <trkpt lat="45.61382" lon="4.7536">
        <ele>260</ele>
        <time>2015-10-18T11:35:40.326Z</time>
      </trkpt>
      <trkpt lat="45.61374" lon="4.75356">
        <ele>260</ele>
        <time>2015-10-18T11:35:42.343Z</time>
      </trkpt>
      <trkpt lat="45.61371" lon="4.75354">
        <ele>260</ele>
        <time>2015-10-18T11:35:43.316Z</time>
      </trkpt>
      <trkpt lat="45.61365" lon="4.7535">
        <ele>260</ele>
        <time>2015-10-18T11:35:45.350Z</time>
      </trkpt>
      <trkpt lat="45.61361" lon="4.75345">
        <ele>260</ele>
        <time>2015-10-18T11:35:46.315Z</time>
      </trkpt>
      <trkpt lat="45.61355" lon="4.75341">
        <ele>260</ele>
        <time>2015-10-18T11:35:48.354Z</time>
      </trkpt>
      <trkpt lat="45.61352" lon="4.75339">
        <ele>260</ele>
        <time>2015-10-18T11:35:49.313Z</time>
      </trkpt>
      <trkpt lat="45.61345" lon="4.75335">
        <ele>260</ele>
        <time>2015-10-18T11:35:51.346Z</time>
      </trkpt>
      <trkpt lat="45.61342" lon="4.75332">
        <ele>260</ele>
        <time>2015-10-18T11:35:52.310Z</time>
      </trkpt>
      <trkpt lat="45.61336" lon="4.75324">
        <ele>260</ele>
        <time>2015-10-18T11:35:55.372Z</time>
      </trkpt>
      <trkpt lat="45.61334" lon="4.75322">
        <ele>260</ele>
        <time>2015-10-18T11:35:56.316Z</time>
      </trkpt>
      <trkpt lat="45.61329" lon="4.75311">
        <ele>259</ele>
        <time>2015-10-18T11:35:59.356Z</time>
      </trkpt>
      <trkpt lat="45.61327" lon="4.75307">
        <ele>259</ele>
        <time>2015-10-18T11:36:00.327Z</time>
      </trkpt>
      <trkpt lat="45.61323" lon="4.75296">
        <ele>259</ele>
        <time>2015-10-18T11:36:03.373Z</time>
      </trkpt>
      <trkpt lat="45.61323" lon="4.75294">
        <ele>259</ele>
        <time>2015-10-18T11:36:04.332Z</time>
      </trkpt>
      <trkpt lat="45.61319" lon="4.75283">
        <ele>259</ele>
        <time>2015-10-18T11:36:07.363Z</time>
      </trkpt>
      <trkpt lat="45.61317" lon="4.75281">
        <ele>259</ele>
        <time>2015-10-18T11:36:08.345Z</time>
      </trkpt>
      <trkpt lat="45.61313" lon="4.7527">
        <ele>259</ele>
        <time>2015-10-18T11:36:11.366Z</time>
      </trkpt>
      <trkpt lat="45.61312" lon="4.75268">
        <ele>259</ele>
        <time>2015-10-18T11:36:12.326Z</time>
      </trkpt>
      <trkpt lat="45.6131" lon="4.75257">
        <ele>259</ele>
        <time>2015-10-18T11:36:16.367Z</time>
      </trkpt>
      <trkpt lat="45.6131" lon="4.75253">
        <ele>259</ele>
        <time>2015-10-18T11:36:17.349Z</time>
      </trkpt>
      <trkpt lat="45.61312" lon="4.75242">
        <ele>259</ele>
        <time>2015-10-18T11:36:21.366Z</time>
      </trkpt>
      <trkpt lat="45.61311" lon="4.75238">
        <ele>259</ele>
        <time>2015-10-18T11:36:22.341Z</time>
      </trkpt>
      <trkpt lat="45.61312" lon="4.75227">
        <ele>259</ele>
        <time>2015-10-18T11:36:27.364Z</time>
      </trkpt>
      <trkpt lat="45.61312" lon="4.75223">
        <ele>259</ele>
        <time>2015-10-18T11:36:28.329Z</time>
      </trkpt>
      <trkpt lat="45.61313" lon="4.75212">
        <ele>259</ele>
        <time>2015-10-18T11:36:31.371Z</time>
      </trkpt>
      <trkpt lat="45.61314" lon="4.75208">
        <ele>259</ele>
        <time>2015-10-18T11:36:32.351Z</time>
      </trkpt>
      <trkpt lat="45.61314" lon="4.75197">
        <ele>259</ele>
        <time>2015-10-18T11:36:36.358Z</time>
      </trkpt>
      <trkpt lat="45.61314" lon="4.75193">
        <ele>259</ele>
        <time>2015-10-18T11:36:37.325Z</time>
      </trkpt>
      <trkpt lat="45.61314" lon="4.75182">
        <ele>259</ele>
        <time>2015-10-18T11:36:41.383Z</time>
      </trkpt>
      <trkpt lat="45.61317" lon="4.7518">
        <ele>260</ele>
        <time>2015-10-18T11:36:42.390Z</time>
      </trkpt>
      <trkpt lat="45.61326" lon="4.7518">
        <ele>260</ele>
        <time>2015-10-18T11:36:46.360Z</time>
      </trkpt>
      <trkpt lat="45.61328" lon="4.75178">
        <ele>260</ele>
        <time>2015-10-18T11:36:47.312Z</time>
      </trkpt>
      <trkpt lat="45.61337" lon="4.75178">
        <ele>263</ele>
        <time>2015-10-18T11:36:51.350Z</time>
      </trkpt>
      <trkpt lat="45.61338" lon="4.75176">
        <ele>263</ele>
        <time>2015-10-18T11:36:52.312Z</time>
      </trkpt>
      <trkpt lat="45.61346" lon="4.75176">
        <ele>263</ele>
        <time>2015-10-18T11:36:57.321Z</time>
      </trkpt>
      <trkpt lat="45.61347" lon="4.75174">
        <ele>263</ele>
        <time>2015-10-18T11:36:58.313Z</time>
      </trkpt>
      <trkpt lat="45.61355" lon="4.75172">
        <ele>263</ele>
        <time>2015-10-18T11:37:02.421Z</time>
      </trkpt>
      <trkpt lat="45.61357" lon="4.75174">
        <ele>263</ele>
        <time>2015-10-18T11:37:03.330Z</time>
      </trkpt>
      <trkpt lat="45.61366" lon="4.75172">
        <ele>264</ele>
        <time>2015-10-18T11:37:07.346Z</time>
      </trkpt>
      <trkpt lat="45.61367" lon="4.75172">
        <ele>264</ele>
        <time>2015-10-18T11:37:08.312Z</time>
      </trkpt>
      <trkpt lat="45.61375" lon="4.75172">
        <ele>264</ele>
        <time>2015-10-18T11:37:12.457Z</time>
      </trkpt>
      <trkpt lat="45.61378" lon="4.75172">
        <ele>264</ele>
        <time>2015-10-18T11:37:13.348Z</time>
      </trkpt>
      <trkpt lat="45.61386" lon="4.75172">
        <ele>265</ele>
        <time>2015-10-18T11:37:17.351Z</time>
      </trkpt>
      <trkpt lat="45.61388" lon="4.75172">
        <ele>265</ele>
        <time>2015-10-18T11:37:18.318Z</time>
      </trkpt>
      <trkpt lat="45.61396" lon="4.75169">
        <ele>265</ele>
        <time>2015-10-18T11:37:22.444Z</time>
      </trkpt>
      <trkpt lat="45.61398" lon="4.75167">
        <ele>266</ele>
        <time>2015-10-18T11:37:23.321Z</time>
      </trkpt>
      <trkpt lat="45.61405" lon="4.75165">
        <ele>267</ele>
        <time>2015-10-18T11:37:27.353Z</time>
      </trkpt>
      <trkpt lat="45.6141" lon="4.75165">
        <ele>268</ele>
        <time>2015-10-18T11:37:28.332Z</time>
      </trkpt>
      <trkpt lat="45.61418" lon="4.75165">
        <ele>268</ele>
        <time>2015-10-18T11:37:32.404Z</time>
      </trkpt>
      <trkpt lat="45.6142" lon="4.75163">
        <ele>268</ele>
        <time>2015-10-18T11:37:33.312Z</time>
      </trkpt>
      <trkpt lat="45.61429" lon="4.75161">
        <ele>269</ele>
        <time>2015-10-18T11:37:37.350Z</time>
      </trkpt>
      <trkpt lat="45.61432" lon="4.75161">
        <ele>269</ele>
        <time>2015-10-18T11:37:38.328Z</time>
      </trkpt>
      <trkpt lat="45.61441" lon="4.75161">
        <ele>269</ele>
        <time>2015-10-18T11:37:43.377Z</time>
      </trkpt>
      <trkpt lat="45.61442" lon="4.75161">
        <ele>269</ele>
        <time>2015-10-18T11:37:44.341Z</time>
      </trkpt>
      <trkpt lat="45.6145" lon="4.75159">
        <ele>269</ele>
        <time>2015-10-18T11:37:47.354Z</time>
      </trkpt>
      <trkpt lat="45.61453" lon="4.75159">
        <ele>269</ele>
        <time>2015-10-18T11:37:48.331Z</time>
      </trkpt>
      <trkpt lat="45.61459" lon="4.75159">
        <ele>269</ele>
        <time>2015-10-18T11:37:51.365Z</time>
      </trkpt>
      <trkpt lat="45.61462" lon="4.75159">
        <ele>269</ele>
        <time>2015-10-18T11:37:52.312Z</time>
      </trkpt>
      <trkpt lat="45.61468" lon="4.75159">
        <ele>269</ele>
        <time>2015-10-18T11:37:54.345Z</time>
      </trkpt>
      <trkpt lat="45.61472" lon="4.75161">
        <ele>269</ele>
        <time>2015-10-18T11:37:55.318Z</time>
      </trkpt>
      <trkpt lat="45.61481" lon="4.75159">
        <ele>269</ele>
        <time>2015-10-18T11:37:58.346Z</time>
      </trkpt>
      <trkpt lat="45.61483" lon="4.75159">
        <ele>269</ele>
        <time>2015-10-18T11:37:59.324Z</time>
      </trkpt>
      <trkpt lat="45.61489" lon="4.75159">
        <ele>269</ele>
        <time>2015-10-18T11:38:03.342Z</time>
      </trkpt>
      <trkpt lat="45.61492" lon="4.75159">
        <ele>269</ele>
        <time>2015-10-18T11:38:04.326Z</time>
      </trkpt>
      <trkpt lat="45.61499" lon="4.75159">
        <ele>269</ele>
        <time>2015-10-18T11:38:06.364Z</time>
      </trkpt>
      <trkpt lat="45.61502" lon="4.75157">
        <ele>269</ele>
        <time>2015-10-18T11:38:07.324Z</time>
      </trkpt>
      <trkpt lat="45.61511" lon="4.75154">
        <ele>269</ele>
        <time>2015-10-18T11:38:09.362Z</time>
      </trkpt>
      <trkpt lat="45.61514" lon="4.75154">
        <ele>269</ele>
        <time>2015-10-18T11:38:10.327Z</time>
      </trkpt>
      <trkpt lat="45.61521" lon="4.75154">
        <ele>270</ele>
        <time>2015-10-18T11:38:12.365Z</time>
      </trkpt>
      <trkpt lat="45.61525" lon="4.75152">
        <ele>270</ele>
        <time>2015-10-18T11:38:13.324Z</time>
      </trkpt>
      <trkpt lat="45.61529" lon="4.75148">
        <ele>270</ele>
        <time>2015-10-18T11:38:14.377Z</time>
      </trkpt>
      <trkpt lat="45.61533" lon="4.75146">
        <ele>270</ele>
        <time>2015-10-18T11:38:15.322Z</time>
      </trkpt>
      <trkpt lat="45.61541" lon="4.75144">
        <ele>270</ele>
        <time>2015-10-18T11:38:17.350Z</time>
      </trkpt>
      <trkpt lat="45.61543" lon="4.75144">
        <ele>270</ele>
        <time>2015-10-18T11:38:18.318Z</time>
      </trkpt>
      <trkpt lat="45.61549" lon="4.75142">
        <ele>270</ele>
        <time>2015-10-18T11:38:20.360Z</time>
      </trkpt>
      <trkpt lat="45.61552" lon="4.75139">
        <ele>270</ele>
        <time>2015-10-18T11:38:21.319Z</time>
      </trkpt>
      <trkpt lat="45.6156" lon="4.75135">
        <ele>270</ele>
        <time>2015-10-18T11:38:24.360Z</time>
      </trkpt>
      <trkpt lat="45.61563" lon="4.75133">
        <ele>270</ele>
        <time>2015-10-18T11:38:25.352Z</time>
      </trkpt>
      <trkpt lat="45.61571" lon="4.75131">
        <ele>271</ele>
        <time>2015-10-18T11:38:28.363Z</time>
      </trkpt>
      <trkpt lat="45.61574" lon="4.75129">
        <ele>271</ele>
        <time>2015-10-18T11:38:29.324Z</time>
      </trkpt>
      <trkpt lat="45.6158" lon="4.75124">
        <ele>271</ele>
        <time>2015-10-18T11:38:31.344Z</time>
      </trkpt>
      <trkpt lat="45.61582" lon="4.75124">
        <ele>271</ele>
        <time>2015-10-18T11:38:32.319Z</time>
      </trkpt>
      <trkpt lat="45.6159" lon="4.75122">
        <ele>272</ele>
        <time>2015-10-18T11:38:35.365Z</time>
      </trkpt>
      <trkpt lat="45.61593" lon="4.75122">
        <ele>272</ele>
        <time>2015-10-18T11:38:36.308Z</time>
      </trkpt>
      <trkpt lat="45.616" lon="4.7512">
        <ele>272</ele>
        <time>2015-10-18T11:38:38.358Z</time>
      </trkpt>
      <trkpt lat="45.61603" lon="4.75118">
        <ele>272</ele>
        <time>2015-10-18T11:38:39.332Z</time>
      </trkpt>
      <trkpt lat="45.6161" lon="4.75114">
        <ele>272</ele>
        <time>2015-10-18T11:38:42.347Z</time>
      </trkpt>
      <trkpt lat="45.61614" lon="4.75114">
        <ele>272</ele>
        <time>2015-10-18T11:38:43.313Z</time>
      </trkpt>
      <trkpt lat="45.61621" lon="4.75109">
        <ele>272</ele>
        <time>2015-10-18T11:38:46.373Z</time>
      </trkpt>
      <trkpt lat="45.61623" lon="4.75109">
        <ele>272</ele>
        <time>2015-10-18T11:38:47.320Z</time>
      </trkpt>
      <trkpt lat="45.61631" lon="4.75107">
        <ele>273</ele>
        <time>2015-10-18T11:38:50.366Z</time>
      </trkpt>
      <trkpt lat="45.61633" lon="4.75107">
        <ele>273</ele>
        <time>2015-10-18T11:38:51.329Z</time>
      </trkpt>
      <trkpt lat="45.61639" lon="4.75103">
        <ele>273</ele>
        <time>2015-10-18T11:38:54.342Z</time>
      </trkpt>
      <trkpt lat="45.61641" lon="4.75101">
        <ele>273</ele>
        <time>2015-10-18T11:38:55.323Z</time>
      </trkpt>
      <trkpt lat="45.61647" lon="4.75094">
        <ele>273</ele>
        <time>2015-10-18T11:38:59.362Z</time>
      </trkpt>
      <trkpt lat="45.61649" lon="4.75092">
        <ele>273</ele>
        <time>2015-10-18T11:39:00.336Z</time>
      </trkpt>
      <trkpt lat="45.61655" lon="4.75084">
        <ele>274</ele>
        <time>2015-10-18T11:39:04.365Z</time>
      </trkpt>
      <trkpt lat="45.61656" lon="4.75081">
        <ele>275</ele>
        <time>2015-10-18T11:39:05.325Z</time>
      </trkpt>
      <trkpt lat="45.61662" lon="4.75075">
        <ele>275</ele>
        <time>2015-10-18T11:39:08.342Z</time>
      </trkpt>
      <trkpt lat="45.61664" lon="4.75073">
        <ele>275</ele>
        <time>2015-10-18T11:39:09.338Z</time>
      </trkpt>
      <trkpt lat="45.61669" lon="4.75064">
        <ele>276</ele>
        <time>2015-10-18T11:39:13.352Z</time>
      </trkpt>
      <trkpt lat="45.6167" lon="4.75062">
        <ele>276</ele>
        <time>2015-10-18T11:39:14.328Z</time>
      </trkpt>
      <trkpt lat="45.61675" lon="4.75054">
        <ele>276</ele>
        <time>2015-10-18T11:39:18.361Z</time>
      </trkpt>
      <trkpt lat="45.61676" lon="4.75051">
        <ele>277</ele>
        <time>2015-10-18T11:39:19.335Z</time>
      </trkpt>
      <trkpt lat="45.61681" lon="4.75043">
        <ele>277</ele>
        <time>2015-10-18T11:39:22.383Z</time>
      </trkpt>
      <trkpt lat="45.61682" lon="4.75041">
        <ele>277</ele>
        <time>2015-10-18T11:39:23.332Z</time>
      </trkpt>
      <trkpt lat="45.6169" lon="4.75034">
        <ele>277</ele>
        <time>2015-10-18T11:39:27.352Z</time>
      </trkpt>
      <trkpt lat="45.61693" lon="4.75032">
        <ele>277</ele>
        <time>2015-10-18T11:39:28.317Z</time>
      </trkpt>
      <trkpt lat="45.61702" lon="4.7503">
        <ele>277</ele>
        <time>2015-10-18T11:39:31.349Z</time>
      </trkpt>
      <trkpt lat="45.61702" lon="4.75028">
        <ele>277</ele>
        <time>2015-10-18T11:39:32.323Z</time>
      </trkpt>
      <trkpt lat="45.61699" lon="4.75019">
        <ele>277</ele>
        <time>2015-10-18T11:39:37.360Z</time>
      </trkpt>
      <trkpt lat="45.61698" lon="4.75015">
        <ele>277</ele>
        <time>2015-10-18T11:39:38.325Z</time>
      </trkpt>
      <trkpt lat="45.61692" lon="4.75006">
        <ele>278</ele>
        <time>2015-10-18T11:39:45.482Z</time>
      </trkpt>
      <trkpt lat="45.61692" lon="4.75004">
        <ele>278</ele>
        <time>2015-10-18T11:39:46.330Z</time>
      </trkpt>
      <trkpt lat="45.6169" lon="4.74993">
        <ele>279</ele>
        <time>2015-10-18T11:39:52.363Z</time>
      </trkpt>
      <trkpt lat="45.6169" lon="4.74989">
        <ele>280</ele>
        <time>2015-10-18T11:39:53.322Z</time>
      </trkpt>
      <trkpt lat="45.6169" lon="4.74978">
        <ele>280</ele>
        <time>2015-10-18T11:39:59.368Z</time>
      </trkpt>
      <trkpt lat="45.61689" lon="4.74976">
        <ele>280</ele>
        <time>2015-10-18T11:40:00.326Z</time>
      </trkpt>
      <trkpt lat="45.6169" lon="4.74966">
        <ele>280</ele>
        <time>2015-10-18T11:40:05.358Z</time>
      </trkpt>
      <trkpt lat="45.6169" lon="4.74963">
        <ele>280</ele>
        <time>2015-10-18T11:40:06.327Z</time>
      </trkpt>
      <trkpt lat="45.61689" lon="4.74953">
        <ele>280</ele>
        <time>2015-10-18T11:40:10.359Z</time>
      </trkpt>
      <trkpt lat="45.61689" lon="4.74951">
        <ele>280</ele>
        <time>2015-10-18T11:40:11.323Z</time>
      </trkpt>
      <trkpt lat="45.61687" lon="4.74942">
        <ele>281</ele>
        <time>2015-10-18T11:40:15.373Z</time>
      </trkpt>
      <trkpt lat="45.61687" lon="4.74938">
        <ele>281</ele>
        <time>2015-10-18T11:40:16.340Z</time>
      </trkpt>
      <trkpt lat="45.61687" lon="4.74927">
        <ele>281</ele>
        <time>2015-10-18T11:40:20.351Z</time>
      </trkpt>
      <trkpt lat="45.61688" lon="4.74923">
        <ele>281</ele>
        <time>2015-10-18T11:40:21.327Z</time>
      </trkpt>
      <trkpt lat="45.6169" lon="4.74912">
        <ele>284</ele>
        <time>2015-10-18T11:40:25.338Z</time>
      </trkpt>
      <trkpt lat="45.61691" lon="4.74908">
        <ele>284</ele>
        <time>2015-10-18T11:40:26.317Z</time>
      </trkpt>
      <trkpt lat="45.61694" lon="4.74899">
        <ele>284</ele>
        <time>2015-10-18T11:40:29.376Z</time>
      </trkpt>
      <trkpt lat="45.61696" lon="4.74895">
        <ele>284</ele>
        <time>2015-10-18T11:40:30.324Z</time>
      </trkpt>
      <trkpt lat="45.61699" lon="4.74886">
        <ele>284</ele>
        <time>2015-10-18T11:40:33.353Z</time>
      </trkpt>
      <trkpt lat="45.61703" lon="4.74884">
        <ele>284</ele>
        <time>2015-10-18T11:40:34.325Z</time>
      </trkpt>
      <trkpt lat="45.61708" lon="4.74875">
        <ele>284</ele>
        <time>2015-10-18T11:40:37.354Z</time>
      </trkpt>
      <trkpt lat="45.61709" lon="4.74873">
        <ele>285</ele>
        <time>2015-10-18T11:40:38.315Z</time>
      </trkpt>
      <trkpt lat="45.61715" lon="4.74867">
        <ele>285</ele>
        <time>2015-10-18T11:40:41.359Z</time>
      </trkpt>
      <trkpt lat="45.61718" lon="4.74863">
        <ele>285</ele>
        <time>2015-10-18T11:40:42.328Z</time>
      </trkpt>
      <trkpt lat="45.61723" lon="4.74856">
        <ele>285</ele>
        <time>2015-10-18T11:40:45.366Z</time>
      </trkpt>
      <trkpt lat="45.61726" lon="4.74854">
        <ele>286</ele>
        <time>2015-10-18T11:40:46.308Z</time>
      </trkpt>
      <trkpt lat="45.61732" lon="4.7485">
        <ele>286</ele>
        <time>2015-10-18T11:40:49.342Z</time>
      </trkpt>
      <trkpt lat="45.61735" lon="4.7485">
        <ele>286</ele>
        <time>2015-10-18T11:40:50.291Z</time>
      </trkpt>
      <trkpt lat="45.61742" lon="4.74854">
        <ele>286</ele>
        <time>2015-10-18T11:40:53.347Z</time>
      </trkpt>
      <trkpt lat="45.61744" lon="4.74856">
        <ele>286</ele>
        <time>2015-10-18T11:40:54.317Z</time>
      </trkpt>
      <trkpt lat="45.61753" lon="4.74856">
        <ele>286</ele>
        <time>2015-10-18T11:40:56.359Z</time>
      </trkpt>
      <trkpt lat="45.61756" lon="4.74854">
        <ele>286</ele>
        <time>2015-10-18T11:40:57.327Z</time>
      </trkpt>
      <trkpt lat="45.61765" lon="4.74852">
        <ele>286</ele>
        <time>2015-10-18T11:41:01.373Z</time>
      </trkpt>
      <trkpt lat="45.61767" lon="4.74856">
        <ele>285</ele>
        <time>2015-10-18T11:41:02.454Z</time>
      </trkpt>
      <trkpt lat="45.61776" lon="4.74856">
        <ele>285</ele>
        <time>2015-10-18T11:41:04.355Z</time>
      </trkpt>
      <trkpt lat="45.6178" lon="4.74856">
        <ele>285</ele>
        <time>2015-10-18T11:41:05.330Z</time>
      </trkpt>
      <trkpt lat="45.61786" lon="4.74852">
        <ele>285</ele>
        <time>2015-10-18T11:41:07.350Z</time>
      </trkpt>
      <trkpt lat="45.61788" lon="4.7485">
        <ele>285</ele>
        <time>2015-10-18T11:41:08.318Z</time>
      </trkpt>
      <trkpt lat="45.61797" lon="4.7485">
        <ele>284</ele>
        <time>2015-10-18T11:41:11.347Z</time>
      </trkpt>
      <trkpt lat="45.618" lon="4.74848">
        <ele>284</ele>
        <time>2015-10-18T11:41:12.343Z</time>
      </trkpt>
      <trkpt lat="45.61807" lon="4.74843">
        <ele>284</ele>
        <time>2015-10-18T11:41:14.349Z</time>
      </trkpt>
      <trkpt lat="45.61809" lon="4.74841">
        <ele>284</ele>
        <time>2015-10-18T11:41:15.323Z</time>
      </trkpt>
      <trkpt lat="45.61812" lon="4.74833">
        <ele>287</ele>
        <time>2015-10-18T11:41:17.347Z</time>
      </trkpt>
      <trkpt lat="45.61814" lon="4.74828">
        <ele>287</ele>
        <time>2015-10-18T11:41:18.321Z</time>
      </trkpt>
      <trkpt lat="45.61817" lon="4.74818">
        <ele>287</ele>
        <time>2015-10-18T11:41:20.361Z</time>
      </trkpt>
      <trkpt lat="45.61818" lon="4.74815">
        <ele>287</ele>
        <time>2015-10-18T11:41:21.325Z</time>
      </trkpt>
      <trkpt lat="45.61823" lon="4.74807">
        <ele>287</ele>
        <time>2015-10-18T11:41:23.339Z</time>
      </trkpt>
      <trkpt lat="45.61825" lon="4.74802">
        <ele>287</ele>
        <time>2015-10-18T11:41:24.299Z</time>
      </trkpt>
      <trkpt lat="45.61829" lon="4.74794">
        <ele>288</ele>
        <time>2015-10-18T11:41:27.349Z</time>
      </trkpt>
      <trkpt lat="45.6183" lon="4.7479">
        <ele>288</ele>
        <time>2015-10-18T11:41:28.327Z</time>
      </trkpt>
      <trkpt lat="45.61829" lon="4.74779">
        <ele>288</ele>
        <time>2015-10-18T11:41:32.362Z</time>
      </trkpt>
      <trkpt lat="45.61826" lon="4.74777">
        <ele>288</ele>
        <time>2015-10-18T11:41:33.325Z</time>
      </trkpt>
      <trkpt lat="45.6182" lon="4.74772">
        <ele>288</ele>
        <time>2015-10-18T11:41:35.366Z</time>
      </trkpt>
      <trkpt lat="45.61817" lon="4.7477">
        <ele>288</ele>
        <time>2015-10-18T11:41:36.333Z</time>
      </trkpt>
      <trkpt lat="45.61812" lon="4.74764">
        <ele>288</ele>
        <time>2015-10-18T11:41:38.353Z</time>
      </trkpt>
      <trkpt lat="45.6181" lon="4.74762">
        <ele>288</ele>
        <time>2015-10-18T11:41:39.340Z</time>
      </trkpt>
      <trkpt lat="45.61806" lon="4.74753">
        <ele>288</ele>
        <time>2015-10-18T11:41:42.357Z</time>
      </trkpt>
      <trkpt lat="45.61803" lon="4.74749">
        <ele>289</ele>
        <time>2015-10-18T11:41:43.330Z</time>
      </trkpt>
      <trkpt lat="45.618" lon="4.7474">
        <ele>289</ele>
        <time>2015-10-18T11:41:46.345Z</time>
      </trkpt>
      <trkpt lat="45.618" lon="4.74736">
        <ele>289</ele>
        <time>2015-10-18T11:41:47.313Z</time>
      </trkpt>
      <trkpt lat="45.618" lon="4.74723">
        <ele>289</ele>
        <time>2015-10-18T11:41:52.343Z</time>
      </trkpt>
      <trkpt lat="45.618" lon="4.74717">
        <ele>289</ele>
        <time>2015-10-18T11:41:53.299Z</time>
      </trkpt>
      <trkpt lat="45.61802" lon="4.74706">
        <ele>289</ele>
        <time>2015-10-18T11:41:55.342Z</time>
      </trkpt>
      <trkpt lat="45.61803" lon="4.74697">
        <ele>289</ele>
        <time>2015-10-18T11:41:56.319Z</time>
      </trkpt>
      <trkpt lat="45.61805" lon="4.74691">
        <ele>289</ele>
        <time>2015-10-18T11:41:57.347Z</time>
      </trkpt>
      <trkpt lat="45.61807" lon="4.74682">
        <ele>289</ele>
        <time>2015-10-18T11:41:58.315Z</time>
      </trkpt>
      <trkpt lat="45.61808" lon="4.74674">
        <ele>289</ele>
        <time>2015-10-18T11:41:59.361Z</time>
      </trkpt>
      <trkpt lat="45.61811" lon="4.74665">
        <ele>288</ele>
        <time>2015-10-18T11:42:00.340Z</time>
      </trkpt>
      <trkpt lat="45.61815" lon="4.74659">
        <ele>288</ele>
        <time>2015-10-18T11:42:01.354Z</time>
      </trkpt>
      <trkpt lat="45.61821" lon="4.74652">
        <ele>288</ele>
        <time>2015-10-18T11:42:02.324Z</time>
      </trkpt>
      <trkpt lat="45.61823" lon="4.74644">
        <ele>288</ele>
        <time>2015-10-18T11:42:03.360Z</time>
      </trkpt>
      <trkpt lat="45.61825" lon="4.74637">
        <ele>288</ele>
        <time>2015-10-18T11:42:04.327Z</time>
      </trkpt>
      <trkpt lat="45.61826" lon="4.74631">
        <ele>288</ele>
        <time>2015-10-18T11:42:05.377Z</time>
      </trkpt>
      <trkpt lat="45.61827" lon="4.74624">
        <ele>288</ele>
        <time>2015-10-18T11:42:06.322Z</time>
      </trkpt>
      <trkpt lat="45.61827" lon="4.74616">
        <ele>288</ele>
        <time>2015-10-18T11:42:08.359Z</time>
      </trkpt>
      <trkpt lat="45.61828" lon="4.74612">
        <ele>288</ele>
        <time>2015-10-18T11:42:09.318Z</time>
      </trkpt>
      <trkpt lat="45.61836" lon="4.74612">
        <ele>288</ele>
        <time>2015-10-18T11:42:12.352Z</time>
      </trkpt>
      <trkpt lat="45.61838" lon="4.74614">
        <ele>288</ele>
        <time>2015-10-18T11:42:13.322Z</time>
      </trkpt>
      <trkpt lat="45.61843" lon="4.7462">
        <ele>287</ele>
        <time>2015-10-18T11:42:15.353Z</time>
      </trkpt>
      <trkpt lat="45.61845" lon="4.74622">
        <ele>287</ele>
        <time>2015-10-18T11:42:16.320Z</time>
      </trkpt>
      <trkpt lat="45.61852" lon="4.74627">
        <ele>287</ele>
        <time>2015-10-18T11:42:18.354Z</time>
      </trkpt>
      <trkpt lat="45.61854" lon="4.74627">
        <ele>287</ele>
        <time>2015-10-18T11:42:19.328Z</time>
      </trkpt>
      <trkpt lat="45.6186" lon="4.74631">
        <ele>287</ele>
        <time>2015-10-18T11:42:22.342Z</time>
      </trkpt>
      <trkpt lat="45.61864" lon="4.74633">
        <ele>287</ele>
        <time>2015-10-18T11:42:23.309Z</time>
      </trkpt>
      <trkpt lat="45.6187" lon="4.74637">
        <ele>287</ele>
        <time>2015-10-18T11:42:25.351Z</time>
      </trkpt>
      <trkpt lat="45.61874" lon="4.74639">
        <ele>287</ele>
        <time>2015-10-18T11:42:26.320Z</time>
      </trkpt>
      <trkpt lat="45.61877" lon="4.74644">
        <ele>287</ele>
        <time>2015-10-18T11:42:27.356Z</time>
      </trkpt>
      <trkpt lat="45.61882" lon="4.7465">
        <ele>287</ele>
        <time>2015-10-18T11:42:28.311Z</time>
      </trkpt>
      <trkpt lat="45.61885" lon="4.74654">
        <ele>287</ele>
        <time>2015-10-18T11:42:29.459Z</time>
      </trkpt>
      <trkpt lat="45.61888" lon="4.74661">
        <ele>287</ele>
        <time>2015-10-18T11:42:30.322Z</time>
      </trkpt>
      <trkpt lat="45.61894" lon="4.74665">
        <ele>287</ele>
        <time>2015-10-18T11:42:31.351Z</time>
      </trkpt>
      <trkpt lat="45.61898" lon="4.74667">
        <ele>287</ele>
        <time>2015-10-18T11:42:32.318Z</time>
      </trkpt>
      <trkpt lat="45.61903" lon="4.74669">
        <ele>287</ele>
        <time>2015-10-18T11:42:33.350Z</time>
      </trkpt>
      <trkpt lat="45.6191" lon="4.74672">
        <ele>287</ele>
        <time>2015-10-18T11:42:34.319Z</time>
      </trkpt>
      <trkpt lat="45.61914" lon="4.74672">
        <ele>287</ele>
        <time>2015-10-18T11:42:35.351Z</time>
      </trkpt>
      <trkpt lat="45.61919" lon="4.74672">
        <ele>287</ele>
        <time>2015-10-18T11:42:36.320Z</time>
      </trkpt>
      <trkpt lat="45.61928" lon="4.74674">
        <ele>287</ele>
        <time>2015-10-18T11:42:38.374Z</time>
      </trkpt>
      <trkpt lat="45.61933" lon="4.74674">
        <ele>287</ele>
        <time>2015-10-18T11:42:39.316Z</time>
      </trkpt>
      <trkpt lat="45.61941" lon="4.7468">
        <ele>286</ele>
        <time>2015-10-18T11:42:42.348Z</time>
      </trkpt>
      <trkpt lat="45.61942" lon="4.74684">
        <ele>286</ele>
        <time>2015-10-18T11:42:43.317Z</time>
      </trkpt>
      <trkpt lat="45.61941" lon="4.74695">
        <ele>286</ele>
        <time>2015-10-18T11:42:45.338Z</time>
      </trkpt>
      <trkpt lat="45.61941" lon="4.74699">
        <ele>286</ele>
        <time>2015-10-18T11:42:46.313Z</time>
      </trkpt>
      <trkpt lat="45.61941" lon="4.74706">
        <ele>286</ele>
        <time>2015-10-18T11:42:47.353Z</time>
      </trkpt>
      <trkpt lat="45.61942" lon="4.74712">
        <ele>286</ele>
        <time>2015-10-18T11:42:48.315Z</time>
      </trkpt>
      <trkpt lat="45.61944" lon="4.74719">
        <ele>286</ele>
        <time>2015-10-18T11:42:49.318Z</time>
      </trkpt>
      <trkpt lat="45.61948" lon="4.74723">
        <ele>286</ele>
        <time>2015-10-18T11:42:50.308Z</time>
      </trkpt>
      <trkpt lat="45.61956" lon="4.74725">
        <ele>286</ele>
        <time>2015-10-18T11:42:52.344Z</time>
      </trkpt>
      <trkpt lat="45.61959" lon="4.74725">
        <ele>286</ele>
        <time>2015-10-18T11:42:53.300Z</time>
      </trkpt>
      <trkpt lat="45.61967" lon="4.74725">
        <ele>286</ele>
        <time>2015-10-18T11:42:56.344Z</time>
      </trkpt>
      <trkpt lat="45.61968" lon="4.7473">
        <ele>286</ele>
        <time>2015-10-18T11:42:57.306Z</time>
      </trkpt>
      <trkpt lat="45.61969" lon="4.7474">
        <ele>286</ele>
        <time>2015-10-18T11:42:59.345Z</time>
      </trkpt>
      <trkpt lat="45.61969" lon="4.74745">
        <ele>286</ele>
        <time>2015-10-18T11:43:00.295Z</time>
      </trkpt>
      <trkpt lat="45.6197" lon="4.74753">
        <ele>285</ele>
        <time>2015-10-18T11:43:02.340Z</time>
      </trkpt>
      <trkpt lat="45.61971" lon="4.7476">
        <ele>285</ele>
        <time>2015-10-18T11:43:03.308Z</time>
      </trkpt>
      <trkpt lat="45.61973" lon="4.74768">
        <ele>285</ele>
        <time>2015-10-18T11:43:05.352Z</time>
      </trkpt>
      <trkpt lat="45.61975" lon="4.74772">
        <ele>285</ele>
        <time>2015-10-18T11:43:06.316Z</time>
      </trkpt>
      <trkpt lat="45.61982" lon="4.74779">
        <ele>284</ele>
        <time>2015-10-18T11:43:08.333Z</time>
      </trkpt>
      <trkpt lat="45.61984" lon="4.74781">
        <ele>284</ele>
        <time>2015-10-18T11:43:09.290Z</time>
      </trkpt>
      <trkpt lat="45.6199" lon="4.7479">
        <ele>284</ele>
        <time>2015-10-18T11:43:12.330Z</time>
      </trkpt>
      <trkpt lat="45.61993" lon="4.74792">
        <ele>284</ele>
        <time>2015-10-18T11:43:13.295Z</time>
      </trkpt>
      <trkpt lat="45.61999" lon="4.74796">
        <ele>284</ele>
        <time>2015-10-18T11:43:15.343Z</time>
      </trkpt>
      <trkpt lat="45.62001" lon="4.748">
        <ele>283</ele>
        <time>2015-10-18T11:43:16.298Z</time>
      </trkpt>
      <trkpt lat="45.62009" lon="4.74802">
        <ele>283</ele>
        <time>2015-10-18T11:43:19.322Z</time>
      </trkpt>
      <trkpt lat="45.62012" lon="4.74802">
        <ele>283</ele>
        <time>2015-10-18T11:43:20.293Z</time>
      </trkpt>
      <trkpt lat="45.62018" lon="4.74798">
        <ele>283</ele>
        <time>2015-10-18T11:43:22.351Z</time>
      </trkpt>
      <trkpt lat="45.6202" lon="4.74796">
        <ele>283</ele>
        <time>2015-10-18T11:43:23.300Z</time>
      </trkpt>
      <trkpt lat="45.62028" lon="4.74796">
        <ele>283</ele>
        <time>2015-10-18T11:43:26.347Z</time>
      </trkpt>
      <trkpt lat="45.62031" lon="4.74796">
        <ele>283</ele>
        <time>2015-10-18T11:43:27.304Z</time>
      </trkpt>
      <trkpt lat="45.62039" lon="4.74794">
        <ele>283</ele>
        <time>2015-10-18T11:43:30.340Z</time>
      </trkpt>
      <trkpt lat="45.62043" lon="4.74794">
        <ele>283</ele>
        <time>2015-10-18T11:43:31.305Z</time>
      </trkpt>
      <trkpt lat="45.62049" lon="4.7479">
        <ele>283</ele>
        <time>2015-10-18T11:43:33.369Z</time>
      </trkpt>
      <trkpt lat="45.62051" lon="4.7479">
        <ele>283</ele>
        <time>2015-10-18T11:43:34.331Z</time>
      </trkpt>
      <trkpt lat="45.6206" lon="4.74787">
        <ele>283</ele>
        <time>2015-10-18T11:43:37.345Z</time>
      </trkpt>
      <trkpt lat="45.62062" lon="4.74787">
        <ele>283</ele>
        <time>2015-10-18T11:43:38.302Z</time>
      </trkpt>
      <trkpt lat="45.62068" lon="4.74783">
        <ele>283</ele>
        <time>2015-10-18T11:43:40.326Z</time>
      </trkpt>
      <trkpt lat="45.62072" lon="4.74781">
        <ele>283</ele>
        <time>2015-10-18T11:43:41.323Z</time>
      </trkpt>
      <trkpt lat="45.62078" lon="4.74779">
        <ele>283</ele>
        <time>2015-10-18T11:43:43.406Z</time>
      </trkpt>
      <trkpt lat="45.62081" lon="4.74777">
        <ele>283</ele>
        <time>2015-10-18T11:43:44.357Z</time>
      </trkpt>
      <trkpt lat="45.62089" lon="4.7477">
        <ele>283</ele>
        <time>2015-10-18T11:43:46.367Z</time>
      </trkpt>
      <trkpt lat="45.62094" lon="4.74775">
        <ele>283</ele>
        <time>2015-10-18T11:43:47.326Z</time>
      </trkpt>
      <trkpt lat="45.62097" lon="4.74779">
        <ele>282</ele>
        <time>2015-10-18T11:43:48.346Z</time>
      </trkpt>
      <trkpt lat="45.62102" lon="4.74783">
        <ele>282</ele>
        <time>2015-10-18T11:43:49.303Z</time>
      </trkpt>
      <trkpt lat="45.6211" lon="4.74785">
        <ele>282</ele>
        <time>2015-10-18T11:43:52.330Z</time>
      </trkpt>
      <trkpt lat="45.62112" lon="4.74787">
        <ele>282</ele>
        <time>2015-10-18T11:43:53.293Z</time>
      </trkpt>
      <trkpt lat="45.62119" lon="4.7479">
        <ele>282</ele>
        <time>2015-10-18T11:43:55.452Z</time>
      </trkpt>
      <trkpt lat="45.62122" lon="4.74792">
        <ele>282</ele>
        <time>2015-10-18T11:43:56.297Z</time>
      </trkpt>
      <trkpt lat="45.62129" lon="4.74792">
        <ele>282</ele>
        <time>2015-10-18T11:43:58.350Z</time>
      </trkpt>
      <trkpt lat="45.62132" lon="4.7479">
        <ele>282</ele>
        <time>2015-10-18T11:43:59.318Z</time>
      </trkpt>
      <trkpt lat="45.62137" lon="4.74783">
        <ele>282</ele>
        <time>2015-10-18T11:44:01.351Z</time>
      </trkpt>
      <trkpt lat="45.62139" lon="4.74779">
        <ele>282</ele>
        <time>2015-10-18T11:44:02.312Z</time>
      </trkpt>
      <trkpt lat="45.62146" lon="4.7477">
        <ele>282</ele>
        <time>2015-10-18T11:44:04.351Z</time>
      </trkpt>
      <trkpt lat="45.62149" lon="4.74766">
        <ele>282</ele>
        <time>2015-10-18T11:44:05.322Z</time>
      </trkpt>
      <trkpt lat="45.62152" lon="4.74757">
        <ele>282</ele>
        <time>2015-10-18T11:44:07.331Z</time>
      </trkpt>
      <trkpt lat="45.62154" lon="4.74753">
        <ele>282</ele>
        <time>2015-10-18T11:44:08.302Z</time>
      </trkpt>
      <trkpt lat="45.62162" lon="4.74751">
        <ele>282</ele>
        <time>2015-10-18T11:44:11.326Z</time>
      </trkpt>
      <trkpt lat="45.62165" lon="4.74753">
        <ele>282</ele>
        <time>2015-10-18T11:44:12.308Z</time>
      </trkpt>
      <trkpt lat="45.6217" lon="4.74757">
        <ele>282</ele>
        <time>2015-10-18T11:44:14.342Z</time>
      </trkpt>
      <trkpt lat="45.62174" lon="4.74757">
        <ele>282</ele>
        <time>2015-10-18T11:44:15.297Z</time>
      </trkpt>
      <trkpt lat="45.62182" lon="4.74755">
        <ele>281</ele>
        <time>2015-10-18T11:44:18.465Z</time>
      </trkpt>
      <trkpt lat="45.62185" lon="4.74755">
        <ele>281</ele>
        <time>2015-10-18T11:44:19.305Z</time>
      </trkpt>
      <trkpt lat="45.62192" lon="4.74747">
        <ele>282</ele>
        <time>2015-10-18T11:44:24.360Z</time>
      </trkpt>
      <trkpt lat="45.62195" lon="4.74747">
        <ele>282</ele>
        <time>2015-10-18T11:44:25.328Z</time>
      </trkpt>
      <trkpt lat="45.62201" lon="4.74745">
        <ele>282</ele>
        <time>2015-10-18T11:44:27.366Z</time>
      </trkpt>
      <trkpt lat="45.62205" lon="4.74745">
        <ele>282</ele>
        <time>2015-10-18T11:44:28.321Z</time>
      </trkpt>
      <trkpt lat="45.6221" lon="4.74749">
        <ele>282</ele>
        <time>2015-10-18T11:44:30.351Z</time>
      </trkpt>
      <trkpt lat="45.62213" lon="4.74751">
        <ele>281</ele>
        <time>2015-10-18T11:44:31.320Z</time>
      </trkpt>
      <trkpt lat="45.62222" lon="4.74749">
        <ele>282</ele>
        <time>2015-10-18T11:44:51.367Z</time>
      </trkpt>
      <trkpt lat="45.62223" lon="4.74751">
        <ele>281</ele>
        <time>2015-10-18T11:44:52.323Z</time>
      </trkpt>
      <trkpt lat="45.6223" lon="4.74751">
        <ele>281</ele>
        <time>2015-10-18T11:48:32.461Z</time>
      </trkpt>
    </trkseg>
  </trk>
</gpx>